<?xml version="1.0" encoding="UTF-8"?>
<gpx version="1.1" creator="https://www.youtrack.es" xsi:schemaLocation="http://www.topografix.com/GPX/1/1 http://www.topografix.com/GPX/1/1/gpx.xsd http://www.garmin.com/xmlschemas/GpxExtensions/v3 http://www.garmin.com/xmlschemas/GpxExtensionsv3.xsd http://www.garmin.com/xmlschemas/TrackPointExtension/v1 http://www.garmin.com/xmlschemas/TrackPointExtensionv1.xsd" xmlns:gpxtpx="http://www.garmin.com/xmlschemas/TrackPointExtension/v1" xmlns:gpxx="http://www.garmin.com/xmlschemas/GpxExtensions/v3" xmlns:xsi="http://www.w3.org/2001/XMLSchema-instance">
  <metadata>
    <link href="https://www.youtrack.es">
      <text>YouTrack.es</text>
    </link>
    <time>2026-05-07T22:41:05Z</time>
  </metadata>
  <trk>
    <src>https://www.youtrack.es</src>
    <link href="https://www.youtrack.es/ruta/36223-el-giro-2">
      <text>YouTrack.es</text>
    </link>
    <trkseg>
      <trkpt lat="-11.4431690" lon="-76.6021590">
        <ele>3306.0</ele>
        <time>2022-09-11T14:17:04Z</time>
      </trkpt>
      <trkpt lat="-11.4432020" lon="-76.6021190">
        <ele>3306.0</ele>
        <time>2022-09-11T14:17:08Z</time>
      </trkpt>
      <trkpt lat="-11.4432780" lon="-76.6021100">
        <ele>3306.0</ele>
        <time>2022-09-11T14:17:12Z</time>
      </trkpt>
      <trkpt lat="-11.4433380" lon="-76.6020620">
        <ele>3305.9</ele>
        <time>2022-09-11T14:17:15Z</time>
      </trkpt>
      <trkpt lat="-11.4434330" lon="-76.6019570">
        <ele>3305.8</ele>
        <time>2022-09-11T14:17:19Z</time>
      </trkpt>
      <trkpt lat="-11.4435440" lon="-76.6018250">
        <ele>3305.7</ele>
        <time>2022-09-11T14:17:23Z</time>
      </trkpt>
      <trkpt lat="-11.4436760" lon="-76.6016740">
        <ele>3305.7</ele>
        <time>2022-09-11T14:17:28Z</time>
      </trkpt>
      <trkpt lat="-11.4437810" lon="-76.6015460">
        <ele>3305.6</ele>
        <time>2022-09-11T14:17:32Z</time>
      </trkpt>
      <trkpt lat="-11.4438760" lon="-76.6014470">
        <ele>3305.6</ele>
        <time>2022-09-11T14:17:35Z</time>
      </trkpt>
      <trkpt lat="-11.4440170" lon="-76.6012930">
        <ele>3305.4</ele>
        <time>2022-09-11T14:17:39Z</time>
      </trkpt>
      <trkpt lat="-11.4441480" lon="-76.6011430">
        <ele>3305.1</ele>
        <time>2022-09-11T14:17:43Z</time>
      </trkpt>
      <trkpt lat="-11.4442640" lon="-76.6009770">
        <ele>3304.9</ele>
        <time>2022-09-11T14:17:47Z</time>
      </trkpt>
      <trkpt lat="-11.4443630" lon="-76.6008000">
        <ele>3304.8</ele>
        <time>2022-09-11T14:17:51Z</time>
      </trkpt>
      <trkpt lat="-11.4444510" lon="-76.6005930">
        <ele>3304.6</ele>
        <time>2022-09-11T14:17:55Z</time>
      </trkpt>
      <trkpt lat="-11.4445100" lon="-76.6003610">
        <ele>3304.2</ele>
        <time>2022-09-11T14:17:59Z</time>
      </trkpt>
      <trkpt lat="-11.4445460" lon="-76.6001330">
        <ele>3304.1</ele>
        <time>2022-09-11T14:18:03Z</time>
      </trkpt>
      <trkpt lat="-11.4445650" lon="-76.5999050">
        <ele>3303.7</ele>
        <time>2022-09-11T14:18:07Z</time>
      </trkpt>
      <trkpt lat="-11.4445990" lon="-76.5996750">
        <ele>3303.2</ele>
        <time>2022-09-11T14:18:11Z</time>
      </trkpt>
      <trkpt lat="-11.4446490" lon="-76.5994980">
        <ele>3302.9</ele>
        <time>2022-09-11T14:18:14Z</time>
      </trkpt>
      <trkpt lat="-11.4447460" lon="-76.5993310">
        <ele>3302.8</ele>
        <time>2022-09-11T14:18:17Z</time>
      </trkpt>
      <trkpt lat="-11.4448860" lon="-76.5992090">
        <ele>3303.0</ele>
        <time>2022-09-11T14:18:20Z</time>
      </trkpt>
      <trkpt lat="-11.4450650" lon="-76.5991380">
        <ele>3303.0</ele>
        <time>2022-09-11T14:18:23Z</time>
      </trkpt>
      <trkpt lat="-11.4452500" lon="-76.5991080">
        <ele>3303.1</ele>
        <time>2022-09-11T14:18:26Z</time>
      </trkpt>
      <trkpt lat="-11.4454390" lon="-76.5990850">
        <ele>3303.1</ele>
        <time>2022-09-11T14:18:29Z</time>
      </trkpt>
      <trkpt lat="-11.4456380" lon="-76.5990680">
        <ele>3303.1</ele>
        <time>2022-09-11T14:18:32Z</time>
      </trkpt>
      <trkpt lat="-11.4458460" lon="-76.5990500">
        <ele>3303.1</ele>
        <time>2022-09-11T14:18:35Z</time>
      </trkpt>
      <trkpt lat="-11.4460660" lon="-76.5990360">
        <ele>3303.2</ele>
        <time>2022-09-11T14:18:38Z</time>
      </trkpt>
      <trkpt lat="-11.4462920" lon="-76.5990130">
        <ele>3303.2</ele>
        <time>2022-09-11T14:18:41Z</time>
      </trkpt>
      <trkpt lat="-11.4465160" lon="-76.5989970">
        <ele>3303.2</ele>
        <time>2022-09-11T14:18:44Z</time>
      </trkpt>
      <trkpt lat="-11.4467290" lon="-76.5989790">
        <ele>3303.2</ele>
        <time>2022-09-11T14:18:47Z</time>
      </trkpt>
      <trkpt lat="-11.4469370" lon="-76.5989520">
        <ele>3303.3</ele>
        <time>2022-09-11T14:18:50Z</time>
      </trkpt>
      <trkpt lat="-11.4471420" lon="-76.5989210">
        <ele>3303.3</ele>
        <time>2022-09-11T14:18:53Z</time>
      </trkpt>
      <trkpt lat="-11.4473420" lon="-76.5988860">
        <ele>3303.3</ele>
        <time>2022-09-11T14:18:56Z</time>
      </trkpt>
      <trkpt lat="-11.4474060" lon="-76.5988640">
        <ele>3303.3</ele>
        <time>2022-09-11T14:18:57Z</time>
      </trkpt>
      <trkpt lat="-11.4475690" lon="-76.5987380">
        <ele>3303.3</ele>
        <time>2022-09-11T14:19:00Z</time>
      </trkpt>
      <trkpt lat="-11.4476590" lon="-76.5985550">
        <ele>3303.4</ele>
        <time>2022-09-11T14:19:03Z</time>
      </trkpt>
      <trkpt lat="-11.4476780" lon="-76.5984900">
        <ele>3303.4</ele>
        <time>2022-09-11T14:19:04Z</time>
      </trkpt>
      <trkpt lat="-11.4477410" lon="-76.5982910">
        <ele>3303.4</ele>
        <time>2022-09-11T14:19:07Z</time>
      </trkpt>
      <trkpt lat="-11.4477900" lon="-76.5980910">
        <ele>3303.4</ele>
        <time>2022-09-11T14:19:10Z</time>
      </trkpt>
      <trkpt lat="-11.4478410" lon="-76.5978990">
        <ele>3303.4</ele>
        <time>2022-09-11T14:19:13Z</time>
      </trkpt>
      <trkpt lat="-11.4478970" lon="-76.5977080">
        <ele>3303.5</ele>
        <time>2022-09-11T14:19:16Z</time>
      </trkpt>
      <trkpt lat="-11.4479720" lon="-76.5975250">
        <ele>3303.5</ele>
        <time>2022-09-11T14:19:19Z</time>
      </trkpt>
      <trkpt lat="-11.4480620" lon="-76.5973500">
        <ele>3303.5</ele>
        <time>2022-09-11T14:19:22Z</time>
      </trkpt>
      <trkpt lat="-11.4482010" lon="-76.5972170">
        <ele>3301.6</ele>
        <time>2022-09-11T14:19:25Z</time>
      </trkpt>
      <trkpt lat="-11.4483950" lon="-76.5971650">
        <ele>3303.6</ele>
        <time>2022-09-11T14:19:28Z</time>
      </trkpt>
      <trkpt lat="-11.4485990" lon="-76.5972090">
        <ele>3303.7</ele>
        <time>2022-09-11T14:19:31Z</time>
      </trkpt>
      <trkpt lat="-11.4487670" lon="-76.5973500">
        <ele>3303.7</ele>
        <time>2022-09-11T14:19:34Z</time>
      </trkpt>
      <trkpt lat="-11.4488610" lon="-76.5975430">
        <ele>3303.7</ele>
        <time>2022-09-11T14:19:37Z</time>
      </trkpt>
      <trkpt lat="-11.4488780" lon="-76.5977500">
        <ele>3303.7</ele>
        <time>2022-09-11T14:19:40Z</time>
      </trkpt>
      <trkpt lat="-11.4488830" lon="-76.5978810">
        <ele>3303.8</ele>
        <time>2022-09-11T14:19:42Z</time>
      </trkpt>
      <trkpt lat="-11.4489250" lon="-76.5980760">
        <ele>3303.8</ele>
        <time>2022-09-11T14:19:45Z</time>
      </trkpt>
      <trkpt lat="-11.4490290" lon="-76.5982470">
        <ele>3303.8</ele>
        <time>2022-09-11T14:19:48Z</time>
      </trkpt>
      <trkpt lat="-11.4490750" lon="-76.5982980">
        <ele>3303.8</ele>
        <time>2022-09-11T14:19:49Z</time>
      </trkpt>
      <trkpt lat="-11.4492300" lon="-76.5984360">
        <ele>3303.8</ele>
        <time>2022-09-11T14:19:52Z</time>
      </trkpt>
      <trkpt lat="-11.4493940" lon="-76.5985730">
        <ele>3303.9</ele>
        <time>2022-09-11T14:19:55Z</time>
      </trkpt>
      <trkpt lat="-11.4495690" lon="-76.5987010">
        <ele>3303.9</ele>
        <time>2022-09-11T14:19:58Z</time>
      </trkpt>
      <trkpt lat="-11.4496250" lon="-76.5987410">
        <ele>3303.9</ele>
        <time>2022-09-11T14:19:59Z</time>
      </trkpt>
      <trkpt lat="-11.4497230" lon="-76.5988160">
        <ele>3303.9</ele>
        <time>2022-09-11T14:20:01Z</time>
      </trkpt>
      <trkpt lat="-11.4499110" lon="-76.5989630">
        <ele>3303.9</ele>
        <time>2022-09-11T14:20:05Z</time>
      </trkpt>
      <trkpt lat="-11.4500560" lon="-76.5990740">
        <ele>3304.0</ele>
        <time>2022-09-11T14:20:08Z</time>
      </trkpt>
      <trkpt lat="-11.4501000" lon="-76.5990980">
        <ele>3304.0</ele>
        <time>2022-09-11T14:20:09Z</time>
      </trkpt>
      <trkpt lat="-11.4502910" lon="-76.5990100">
        <ele>3304.2</ele>
        <time>2022-09-11T14:20:14Z</time>
      </trkpt>
      <trkpt lat="-11.4503540" lon="-76.5990290">
        <ele>3304.6</ele>
        <time>2022-09-11T14:20:16Z</time>
      </trkpt>
      <trkpt lat="-11.4504300" lon="-76.5991010">
        <ele>3305.1</ele>
        <time>2022-09-11T14:20:19Z</time>
      </trkpt>
      <trkpt lat="-11.4504520" lon="-76.5991280">
        <ele>3305.3</ele>
        <time>2022-09-11T14:20:20Z</time>
      </trkpt>
      <trkpt lat="-11.4505180" lon="-76.5992060">
        <ele>3305.8</ele>
        <time>2022-09-11T14:20:23Z</time>
      </trkpt>
      <trkpt lat="-11.4505820" lon="-76.5992640">
        <ele>3306.2</ele>
        <time>2022-09-11T14:20:26Z</time>
      </trkpt>
      <trkpt lat="-11.4507090" lon="-76.5993670">
        <ele>3307.1</ele>
        <time>2022-09-11T14:20:32Z</time>
      </trkpt>
      <trkpt lat="-11.4508130" lon="-76.5994320">
        <ele>3307.7</ele>
        <time>2022-09-11T14:20:36Z</time>
      </trkpt>
      <trkpt lat="-11.4508690" lon="-76.5994660">
        <ele>3308.0</ele>
        <time>2022-09-11T14:20:38Z</time>
      </trkpt>
      <trkpt lat="-11.4509590" lon="-76.5995120">
        <ele>3308.5</ele>
        <time>2022-09-11T14:20:41Z</time>
      </trkpt>
      <trkpt lat="-11.4510710" lon="-76.5995750">
        <ele>3309.2</ele>
        <time>2022-09-11T14:20:45Z</time>
      </trkpt>
      <trkpt lat="-11.4512350" lon="-76.5996860">
        <ele>3310.2</ele>
        <time>2022-09-11T14:20:51Z</time>
      </trkpt>
      <trkpt lat="-11.4513940" lon="-76.5997900">
        <ele>3311.2</ele>
        <time>2022-09-11T14:20:57Z</time>
      </trkpt>
      <trkpt lat="-11.4515640" lon="-76.5998530">
        <ele>3312.1</ele>
        <time>2022-09-11T14:21:05Z</time>
      </trkpt>
      <trkpt lat="-11.4517350" lon="-76.5997800">
        <ele>3313.1</ele>
        <time>2022-09-11T14:21:13Z</time>
      </trkpt>
      <trkpt lat="-11.4518990" lon="-76.5996710">
        <ele>3314.1</ele>
        <time>2022-09-11T14:21:22Z</time>
      </trkpt>
      <trkpt lat="-11.4520500" lon="-76.5995610">
        <ele>3315.0</ele>
        <time>2022-09-11T14:21:31Z</time>
      </trkpt>
      <trkpt lat="-11.4522030" lon="-76.5994440">
        <ele>3316.0</ele>
        <time>2022-09-11T14:21:41Z</time>
      </trkpt>
      <trkpt lat="-11.4523470" lon="-76.5993160">
        <ele>3317.0</ele>
        <time>2022-09-11T14:21:51Z</time>
      </trkpt>
      <trkpt lat="-11.4524820" lon="-76.5991910">
        <ele>3317.9</ele>
        <time>2022-09-11T14:22:00Z</time>
      </trkpt>
      <trkpt lat="-11.4526200" lon="-76.5990580">
        <ele>3318.9</ele>
        <time>2022-09-11T14:22:10Z</time>
      </trkpt>
      <trkpt lat="-11.4527410" lon="-76.5989200">
        <ele>3319.8</ele>
        <time>2022-09-11T14:22:20Z</time>
      </trkpt>
      <trkpt lat="-11.4528780" lon="-76.5987930">
        <ele>3320.8</ele>
        <time>2022-09-11T14:22:30Z</time>
      </trkpt>
      <trkpt lat="-11.4530290" lon="-76.5986870">
        <ele>3321.7</ele>
        <time>2022-09-11T14:22:40Z</time>
      </trkpt>
      <trkpt lat="-11.4531310" lon="-76.5986190">
        <ele>3322.3</ele>
        <time>2022-09-11T14:22:47Z</time>
      </trkpt>
      <trkpt lat="-11.4532070" lon="-76.5985490">
        <ele>3322.9</ele>
        <time>2022-09-11T14:22:53Z</time>
      </trkpt>
      <trkpt lat="-11.4532960" lon="-76.5983740">
        <ele>3323.9</ele>
        <time>2022-09-11T14:23:03Z</time>
      </trkpt>
      <trkpt lat="-11.4533540" lon="-76.5981810">
        <ele>3324.9</ele>
        <time>2022-09-11T14:23:12Z</time>
      </trkpt>
      <trkpt lat="-11.4534760" lon="-76.5980390">
        <ele>3325.8</ele>
        <time>2022-09-11T14:23:22Z</time>
      </trkpt>
      <trkpt lat="-11.4536490" lon="-76.5979380">
        <ele>3326.9</ele>
        <time>2022-09-11T14:23:32Z</time>
      </trkpt>
      <trkpt lat="-11.4538130" lon="-76.5978430">
        <ele>3327.8</ele>
        <time>2022-09-11T14:23:41Z</time>
      </trkpt>
      <trkpt lat="-11.4539820" lon="-76.5977440">
        <ele>3328.8</ele>
        <time>2022-09-11T14:23:51Z</time>
      </trkpt>
      <trkpt lat="-11.4541330" lon="-76.5976240">
        <ele>3329.8</ele>
        <time>2022-09-11T14:24:02Z</time>
      </trkpt>
      <trkpt lat="-11.4542870" lon="-76.5975250">
        <ele>3334.2</ele>
        <time>2022-09-11T14:24:12Z</time>
      </trkpt>
      <trkpt lat="-11.4544470" lon="-76.5974380">
        <ele>3336.7</ele>
        <time>2022-09-11T14:24:21Z</time>
      </trkpt>
      <trkpt lat="-11.4546180" lon="-76.5973310">
        <ele>3335.7</ele>
        <time>2022-09-11T14:24:31Z</time>
      </trkpt>
      <trkpt lat="-11.4547600" lon="-76.5972180">
        <ele>3335.0</ele>
        <time>2022-09-11T14:24:39Z</time>
      </trkpt>
      <trkpt lat="-11.4547810" lon="-76.5971690">
        <ele>3335.2</ele>
        <time>2022-09-11T14:24:42Z</time>
      </trkpt>
      <trkpt lat="-11.4546770" lon="-76.5971820">
        <ele>3335.7</ele>
        <time>2022-09-11T14:24:50Z</time>
      </trkpt>
      <trkpt lat="-11.4546450" lon="-76.5972000">
        <ele>3335.9</ele>
        <time>2022-09-11T14:24:52Z</time>
      </trkpt>
      <trkpt lat="-11.4545110" lon="-76.5972730">
        <ele>3336.7</ele>
        <time>2022-09-11T14:24:59Z</time>
      </trkpt>
      <trkpt lat="-11.4543380" lon="-76.5973750">
        <ele>3337.6</ele>
        <time>2022-09-11T14:25:08Z</time>
      </trkpt>
      <trkpt lat="-11.4541740" lon="-76.5974600">
        <ele>3338.5</ele>
        <time>2022-09-11T14:25:16Z</time>
      </trkpt>
      <trkpt lat="-11.4539870" lon="-76.5975290">
        <ele>3339.5</ele>
        <time>2022-09-11T14:25:25Z</time>
      </trkpt>
      <trkpt lat="-11.4537980" lon="-76.5975780">
        <ele>3340.4</ele>
        <time>2022-09-11T14:25:34Z</time>
      </trkpt>
      <trkpt lat="-11.4536150" lon="-76.5976440">
        <ele>3341.4</ele>
        <time>2022-09-11T14:25:43Z</time>
      </trkpt>
      <trkpt lat="-11.4534610" lon="-76.5977420">
        <ele>3342.2</ele>
        <time>2022-09-11T14:25:51Z</time>
      </trkpt>
      <trkpt lat="-11.4533210" lon="-76.5978630">
        <ele>3343.1</ele>
        <time>2022-09-11T14:26:00Z</time>
      </trkpt>
      <trkpt lat="-11.4531350" lon="-76.5979450">
        <ele>3344.1</ele>
        <time>2022-09-11T14:26:08Z</time>
      </trkpt>
      <trkpt lat="-11.4529450" lon="-76.5979850">
        <ele>3345.1</ele>
        <time>2022-09-11T14:26:15Z</time>
      </trkpt>
      <trkpt lat="-11.4527510" lon="-76.5980240">
        <ele>3346.0</ele>
        <time>2022-09-11T14:26:23Z</time>
      </trkpt>
      <trkpt lat="-11.4525830" lon="-76.5981420">
        <ele>3347.0</ele>
        <time>2022-09-11T14:26:31Z</time>
      </trkpt>
      <trkpt lat="-11.4524190" lon="-76.5982390">
        <ele>3347.9</ele>
        <time>2022-09-11T14:26:38Z</time>
      </trkpt>
      <trkpt lat="-11.4522630" lon="-76.5983360">
        <ele>3348.3</ele>
        <time>2022-09-11T14:26:44Z</time>
      </trkpt>
      <trkpt lat="-11.4520990" lon="-76.5984590">
        <ele>3348.6</ele>
        <time>2022-09-11T14:26:51Z</time>
      </trkpt>
      <trkpt lat="-11.4519420" lon="-76.5985950">
        <ele>3349.1</ele>
        <time>2022-09-11T14:26:58Z</time>
      </trkpt>
      <trkpt lat="-11.4517940" lon="-76.5985530">
        <ele>3350.0</ele>
        <time>2022-09-11T14:27:05Z</time>
      </trkpt>
      <trkpt lat="-11.4518980" lon="-76.5984610">
        <ele>3350.7</ele>
        <time>2022-09-11T14:27:11Z</time>
      </trkpt>
      <trkpt lat="-11.4520600" lon="-76.5983660">
        <ele>3351.3</ele>
        <time>2022-09-11T14:27:18Z</time>
      </trkpt>
      <trkpt lat="-11.4522050" lon="-76.5982280">
        <ele>3351.5</ele>
        <time>2022-09-11T14:27:25Z</time>
      </trkpt>
      <trkpt lat="-11.4523550" lon="-76.5980890">
        <ele>3351.8</ele>
        <time>2022-09-11T14:27:32Z</time>
      </trkpt>
      <trkpt lat="-11.4524930" lon="-76.5979570">
        <ele>3352.6</ele>
        <time>2022-09-11T14:27:39Z</time>
      </trkpt>
      <trkpt lat="-11.4526450" lon="-76.5978190">
        <ele>3353.4</ele>
        <time>2022-09-11T14:27:47Z</time>
      </trkpt>
      <trkpt lat="-11.4527890" lon="-76.5977050">
        <ele>3353.9</ele>
        <time>2022-09-11T14:27:53Z</time>
      </trkpt>
      <trkpt lat="-11.4529730" lon="-76.5976360">
        <ele>3354.5</ele>
        <time>2022-09-11T14:28:00Z</time>
      </trkpt>
      <trkpt lat="-11.4531500" lon="-76.5975290">
        <ele>3355.0</ele>
        <time>2022-09-11T14:28:07Z</time>
      </trkpt>
      <trkpt lat="-11.4533130" lon="-76.5973980">
        <ele>3355.7</ele>
        <time>2022-09-11T14:28:14Z</time>
      </trkpt>
      <trkpt lat="-11.4534770" lon="-76.5972730">
        <ele>3356.4</ele>
        <time>2022-09-11T14:28:21Z</time>
      </trkpt>
      <trkpt lat="-11.4536360" lon="-76.5971450">
        <ele>3357.7</ele>
        <time>2022-09-11T14:28:29Z</time>
      </trkpt>
      <trkpt lat="-11.4537380" lon="-76.5969940">
        <ele>3358.8</ele>
        <time>2022-09-11T14:28:37Z</time>
      </trkpt>
      <trkpt lat="-11.4538440" lon="-76.5968350">
        <ele>3359.7</ele>
        <time>2022-09-11T14:28:45Z</time>
      </trkpt>
      <trkpt lat="-11.4539690" lon="-76.5967020">
        <ele>3360.4</ele>
        <time>2022-09-11T14:28:52Z</time>
      </trkpt>
      <trkpt lat="-11.4541020" lon="-76.5965740">
        <ele>3360.9</ele>
        <time>2022-09-11T14:28:59Z</time>
      </trkpt>
      <trkpt lat="-11.4542600" lon="-76.5964510">
        <ele>3361.5</ele>
        <time>2022-09-11T14:29:06Z</time>
      </trkpt>
      <trkpt lat="-11.4543510" lon="-76.5962710">
        <ele>3362.5</ele>
        <time>2022-09-11T14:29:14Z</time>
      </trkpt>
      <trkpt lat="-11.4544000" lon="-76.5960730">
        <ele>3363.7</ele>
        <time>2022-09-11T14:29:22Z</time>
      </trkpt>
      <trkpt lat="-11.4545830" lon="-76.5960240">
        <ele>3364.3</ele>
        <time>2022-09-11T14:29:29Z</time>
      </trkpt>
      <trkpt lat="-11.4547540" lon="-76.5961000">
        <ele>3365.0</ele>
        <time>2022-09-11T14:29:35Z</time>
      </trkpt>
      <trkpt lat="-11.4547790" lon="-76.5960960">
        <ele>3365.2</ele>
        <time>2022-09-11T14:29:36Z</time>
      </trkpt>
      <trkpt lat="-11.4548060" lon="-76.5959350">
        <ele>3366.3</ele>
        <time>2022-09-11T14:29:44Z</time>
      </trkpt>
      <trkpt lat="-11.4547270" lon="-76.5957660">
        <ele>3367.3</ele>
        <time>2022-09-11T14:29:51Z</time>
      </trkpt>
      <trkpt lat="-11.4546170" lon="-76.5956060">
        <ele>3368.8</ele>
        <time>2022-09-11T14:30:00Z</time>
      </trkpt>
      <trkpt lat="-11.4545620" lon="-76.5954120">
        <ele>3370.2</ele>
        <time>2022-09-11T14:30:10Z</time>
      </trkpt>
      <trkpt lat="-11.4545360" lon="-76.5952280">
        <ele>3371.5</ele>
        <time>2022-09-11T14:30:19Z</time>
      </trkpt>
      <trkpt lat="-11.4545970" lon="-76.5951620">
        <ele>3371.9</ele>
        <time>2022-09-11T14:30:22Z</time>
      </trkpt>
      <trkpt lat="-11.4547640" lon="-76.5951850">
        <ele>3372.1</ele>
        <time>2022-09-11T14:30:30Z</time>
      </trkpt>
      <trkpt lat="-11.4549110" lon="-76.5953220">
        <ele>3372.3</ele>
        <time>2022-09-11T14:30:38Z</time>
      </trkpt>
      <trkpt lat="-11.4551010" lon="-76.5953650">
        <ele>3372.7</ele>
        <time>2022-09-11T14:30:46Z</time>
      </trkpt>
      <trkpt lat="-11.4552770" lon="-76.5953280">
        <ele>3373.8</ele>
        <time>2022-09-11T14:30:54Z</time>
      </trkpt>
      <trkpt lat="-11.4554510" lon="-76.5953860">
        <ele>3375.0</ele>
        <time>2022-09-11T14:31:03Z</time>
      </trkpt>
      <trkpt lat="-11.4556140" lon="-76.5954720">
        <ele>3375.9</ele>
        <time>2022-09-11T14:31:11Z</time>
      </trkpt>
      <trkpt lat="-11.4557740" lon="-76.5955730">
        <ele>3376.7</ele>
        <time>2022-09-11T14:31:19Z</time>
      </trkpt>
      <trkpt lat="-11.4558960" lon="-76.5957190">
        <ele>3377.6</ele>
        <time>2022-09-11T14:31:27Z</time>
      </trkpt>
      <trkpt lat="-11.4560730" lon="-76.5958070">
        <ele>3378.6</ele>
        <time>2022-09-11T14:31:35Z</time>
      </trkpt>
      <trkpt lat="-11.4562520" lon="-76.5958850">
        <ele>3379.9</ele>
        <time>2022-09-11T14:31:43Z</time>
      </trkpt>
      <trkpt lat="-11.4564130" lon="-76.5959840">
        <ele>3381.3</ele>
        <time>2022-09-11T14:31:51Z</time>
      </trkpt>
      <trkpt lat="-11.4565800" lon="-76.5960830">
        <ele>3382.6</ele>
        <time>2022-09-11T14:32:00Z</time>
      </trkpt>
      <trkpt lat="-11.4567510" lon="-76.5961510">
        <ele>3383.6</ele>
        <time>2022-09-11T14:32:08Z</time>
      </trkpt>
      <trkpt lat="-11.4569000" lon="-76.5962610">
        <ele>3384.3</ele>
        <time>2022-09-11T14:32:16Z</time>
      </trkpt>
      <trkpt lat="-11.4570410" lon="-76.5963990">
        <ele>3385.2</ele>
        <time>2022-09-11T14:32:24Z</time>
      </trkpt>
      <trkpt lat="-11.4571500" lon="-76.5965480">
        <ele>3386.1</ele>
        <time>2022-09-11T14:32:31Z</time>
      </trkpt>
      <trkpt lat="-11.4572670" lon="-76.5967040">
        <ele>3386.7</ele>
        <time>2022-09-11T14:32:38Z</time>
      </trkpt>
      <trkpt lat="-11.4573640" lon="-76.5968810">
        <ele>3387.0</ele>
        <time>2022-09-11T14:32:45Z</time>
      </trkpt>
      <trkpt lat="-11.4574270" lon="-76.5970560">
        <ele>3387.6</ele>
        <time>2022-09-11T14:32:51Z</time>
      </trkpt>
      <trkpt lat="-11.4575450" lon="-76.5971940">
        <ele>3388.2</ele>
        <time>2022-09-11T14:32:57Z</time>
      </trkpt>
      <trkpt lat="-11.4577030" lon="-76.5972920">
        <ele>3389.3</ele>
        <time>2022-09-11T14:33:04Z</time>
      </trkpt>
      <trkpt lat="-11.4578820" lon="-76.5973580">
        <ele>3390.7</ele>
        <time>2022-09-11T14:33:11Z</time>
      </trkpt>
      <trkpt lat="-11.4580840" lon="-76.5973730">
        <ele>3391.8</ele>
        <time>2022-09-11T14:33:18Z</time>
      </trkpt>
      <trkpt lat="-11.4582820" lon="-76.5973430">
        <ele>3392.5</ele>
        <time>2022-09-11T14:33:25Z</time>
      </trkpt>
      <trkpt lat="-11.4584790" lon="-76.5972900">
        <ele>3393.3</ele>
        <time>2022-09-11T14:33:32Z</time>
      </trkpt>
      <trkpt lat="-11.4586680" lon="-76.5972360">
        <ele>3394.1</ele>
        <time>2022-09-11T14:33:39Z</time>
      </trkpt>
      <trkpt lat="-11.4588580" lon="-76.5972010">
        <ele>3394.8</ele>
        <time>2022-09-11T14:33:46Z</time>
      </trkpt>
      <trkpt lat="-11.4590460" lon="-76.5971940">
        <ele>3395.6</ele>
        <time>2022-09-11T14:33:53Z</time>
      </trkpt>
      <trkpt lat="-11.4592370" lon="-76.5971890">
        <ele>3396.7</ele>
        <time>2022-09-11T14:34:00Z</time>
      </trkpt>
      <trkpt lat="-11.4594190" lon="-76.5971750">
        <ele>3398.0</ele>
        <time>2022-09-11T14:34:07Z</time>
      </trkpt>
      <trkpt lat="-11.4595680" lon="-76.5970440">
        <ele>3399.6</ele>
        <time>2022-09-11T14:34:15Z</time>
      </trkpt>
      <trkpt lat="-11.4597300" lon="-76.5969220">
        <ele>3400.7</ele>
        <time>2022-09-11T14:34:22Z</time>
      </trkpt>
      <trkpt lat="-11.4598860" lon="-76.5968300">
        <ele>3401.8</ele>
        <time>2022-09-11T14:34:28Z</time>
      </trkpt>
      <trkpt lat="-11.4600000" lon="-76.5966840">
        <ele>3403.8</ele>
        <time>2022-09-11T14:34:36Z</time>
      </trkpt>
      <trkpt lat="-11.4600180" lon="-76.5965410">
        <ele>3405.9</ele>
        <time>2022-09-11T14:34:45Z</time>
      </trkpt>
      <trkpt lat="-11.4599150" lon="-76.5965840">
        <ele>3407.4</ele>
        <time>2022-09-11T14:34:52Z</time>
      </trkpt>
      <trkpt lat="-11.4598680" lon="-76.5966400">
        <ele>3408.3</ele>
        <time>2022-09-11T14:34:56Z</time>
      </trkpt>
      <trkpt lat="-11.4597320" lon="-76.5967620">
        <ele>3410.2</ele>
        <time>2022-09-11T14:35:06Z</time>
      </trkpt>
      <trkpt lat="-11.4595660" lon="-76.5968680">
        <ele>3411.7</ele>
        <time>2022-09-11T14:35:15Z</time>
      </trkpt>
      <trkpt lat="-11.4593870" lon="-76.5969160">
        <ele>3412.5</ele>
        <time>2022-09-11T14:35:23Z</time>
      </trkpt>
      <trkpt lat="-11.4591900" lon="-76.5968880">
        <ele>3413.3</ele>
        <time>2022-09-11T14:35:31Z</time>
      </trkpt>
      <trkpt lat="-11.4590060" lon="-76.5968380">
        <ele>3414.0</ele>
        <time>2022-09-11T14:35:38Z</time>
      </trkpt>
      <trkpt lat="-11.4588250" lon="-76.5967950">
        <ele>3414.8</ele>
        <time>2022-09-11T14:35:45Z</time>
      </trkpt>
      <trkpt lat="-11.4586290" lon="-76.5967570">
        <ele>3415.7</ele>
        <time>2022-09-11T14:35:53Z</time>
      </trkpt>
      <trkpt lat="-11.4584470" lon="-76.5967330">
        <ele>3416.7</ele>
        <time>2022-09-11T14:36:00Z</time>
      </trkpt>
      <trkpt lat="-11.4582470" lon="-76.5966950">
        <ele>3417.5</ele>
        <time>2022-09-11T14:36:07Z</time>
      </trkpt>
      <trkpt lat="-11.4580480" lon="-76.5966580">
        <ele>3418.3</ele>
        <time>2022-09-11T14:36:14Z</time>
      </trkpt>
      <trkpt lat="-11.4578640" lon="-76.5966010">
        <ele>3419.3</ele>
        <time>2022-09-11T14:36:21Z</time>
      </trkpt>
      <trkpt lat="-11.4577230" lon="-76.5964730">
        <ele>3420.4</ele>
        <time>2022-09-11T14:36:28Z</time>
      </trkpt>
      <trkpt lat="-11.4576210" lon="-76.5963200">
        <ele>3421.5</ele>
        <time>2022-09-11T14:36:35Z</time>
      </trkpt>
      <trkpt lat="-11.4575690" lon="-76.5961410">
        <ele>3422.7</ele>
        <time>2022-09-11T14:36:42Z</time>
      </trkpt>
      <trkpt lat="-11.4575310" lon="-76.5959470">
        <ele>3423.9</ele>
        <time>2022-09-11T14:36:49Z</time>
      </trkpt>
      <trkpt lat="-11.4574340" lon="-76.5957700">
        <ele>3425.0</ele>
        <time>2022-09-11T14:36:56Z</time>
      </trkpt>
      <trkpt lat="-11.4573100" lon="-76.5956130">
        <ele>3426.2</ele>
        <time>2022-09-11T14:37:03Z</time>
      </trkpt>
      <trkpt lat="-11.4571580" lon="-76.5954800">
        <ele>3427.2</ele>
        <time>2022-09-11T14:37:10Z</time>
      </trkpt>
      <trkpt lat="-11.4570240" lon="-76.5953390">
        <ele>3428.2</ele>
        <time>2022-09-11T14:37:17Z</time>
      </trkpt>
      <trkpt lat="-11.4569190" lon="-76.5951620">
        <ele>3429.6</ele>
        <time>2022-09-11T14:37:25Z</time>
      </trkpt>
      <trkpt lat="-11.4568450" lon="-76.5949860">
        <ele>3430.9</ele>
        <time>2022-09-11T14:37:33Z</time>
      </trkpt>
      <trkpt lat="-11.4567620" lon="-76.5948150">
        <ele>3432.2</ele>
        <time>2022-09-11T14:37:41Z</time>
      </trkpt>
      <trkpt lat="-11.4565720" lon="-76.5947470">
        <ele>3433.6</ele>
        <time>2022-09-11T14:37:49Z</time>
      </trkpt>
      <trkpt lat="-11.4563960" lon="-76.5947060">
        <ele>3434.9</ele>
        <time>2022-09-11T14:37:57Z</time>
      </trkpt>
      <trkpt lat="-11.4562440" lon="-76.5945790">
        <ele>3436.4</ele>
        <time>2022-09-11T14:38:05Z</time>
      </trkpt>
      <trkpt lat="-11.4560900" lon="-76.5944440">
        <ele>3437.7</ele>
        <time>2022-09-11T14:38:13Z</time>
      </trkpt>
      <trkpt lat="-11.4559290" lon="-76.5943410">
        <ele>3439.1</ele>
        <time>2022-09-11T14:38:21Z</time>
      </trkpt>
      <trkpt lat="-11.4557660" lon="-76.5942350">
        <ele>3440.8</ele>
        <time>2022-09-11T14:38:29Z</time>
      </trkpt>
      <trkpt lat="-11.4556160" lon="-76.5941070">
        <ele>3441.4</ele>
        <time>2022-09-11T14:38:38Z</time>
      </trkpt>
      <trkpt lat="-11.4555790" lon="-76.5939250">
        <ele>3441.9</ele>
        <time>2022-09-11T14:38:46Z</time>
      </trkpt>
      <trkpt lat="-11.4555010" lon="-76.5937520">
        <ele>3442.5</ele>
        <time>2022-09-11T14:38:54Z</time>
      </trkpt>
      <trkpt lat="-11.4553350" lon="-76.5936590">
        <ele>3443.1</ele>
        <time>2022-09-11T14:39:02Z</time>
      </trkpt>
      <trkpt lat="-11.4551620" lon="-76.5935860">
        <ele>3443.6</ele>
        <time>2022-09-11T14:39:11Z</time>
      </trkpt>
      <trkpt lat="-11.4552470" lon="-76.5934580">
        <ele>3444.1</ele>
        <time>2022-09-11T14:39:22Z</time>
      </trkpt>
      <trkpt lat="-11.4554190" lon="-76.5935510">
        <ele>3444.7</ele>
        <time>2022-09-11T14:39:32Z</time>
      </trkpt>
      <trkpt lat="-11.4555630" lon="-76.5936760">
        <ele>3445.3</ele>
        <time>2022-09-11T14:39:39Z</time>
      </trkpt>
      <trkpt lat="-11.4556610" lon="-76.5938340">
        <ele>3445.8</ele>
        <time>2022-09-11T14:39:46Z</time>
      </trkpt>
      <trkpt lat="-11.4557950" lon="-76.5939750">
        <ele>3446.4</ele>
        <time>2022-09-11T14:39:54Z</time>
      </trkpt>
      <trkpt lat="-11.4559790" lon="-76.5940400">
        <ele>3447.0</ele>
        <time>2022-09-11T14:40:01Z</time>
      </trkpt>
      <trkpt lat="-11.4561550" lon="-76.5941240">
        <ele>3447.6</ele>
        <time>2022-09-11T14:40:08Z</time>
      </trkpt>
      <trkpt lat="-11.4563520" lon="-76.5941960">
        <ele>3448.3</ele>
        <time>2022-09-11T14:40:15Z</time>
      </trkpt>
      <trkpt lat="-11.4565370" lon="-76.5942770">
        <ele>3448.9</ele>
        <time>2022-09-11T14:40:22Z</time>
      </trkpt>
      <trkpt lat="-11.4567340" lon="-76.5943360">
        <ele>3449.5</ele>
        <time>2022-09-11T14:40:30Z</time>
      </trkpt>
      <trkpt lat="-11.4569200" lon="-76.5943360">
        <ele>3450.1</ele>
        <time>2022-09-11T14:40:37Z</time>
      </trkpt>
      <trkpt lat="-11.4571010" lon="-76.5943370">
        <ele>3450.6</ele>
        <time>2022-09-11T14:40:45Z</time>
      </trkpt>
      <trkpt lat="-11.4572850" lon="-76.5943830">
        <ele>3451.2</ele>
        <time>2022-09-11T14:40:53Z</time>
      </trkpt>
      <trkpt lat="-11.4574000" lon="-76.5945620">
        <ele>3451.8</ele>
        <time>2022-09-11T14:41:01Z</time>
      </trkpt>
      <trkpt lat="-11.4575080" lon="-76.5947320">
        <ele>3452.4</ele>
        <time>2022-09-11T14:41:08Z</time>
      </trkpt>
      <trkpt lat="-11.4576900" lon="-76.5948190">
        <ele>3453.1</ele>
        <time>2022-09-11T14:41:14Z</time>
      </trkpt>
      <trkpt lat="-11.4578540" lon="-76.5949410">
        <ele>3453.7</ele>
        <time>2022-09-11T14:41:20Z</time>
      </trkpt>
      <trkpt lat="-11.4579920" lon="-76.5950620">
        <ele>3454.2</ele>
        <time>2022-09-11T14:41:25Z</time>
      </trkpt>
      <trkpt lat="-11.4581500" lon="-76.5951990">
        <ele>3454.9</ele>
        <time>2022-09-11T14:41:31Z</time>
      </trkpt>
      <trkpt lat="-11.4582910" lon="-76.5953360">
        <ele>3455.5</ele>
        <time>2022-09-11T14:41:37Z</time>
      </trkpt>
      <trkpt lat="-11.4584680" lon="-76.5954570">
        <ele>3456.1</ele>
        <time>2022-09-11T14:41:43Z</time>
      </trkpt>
      <trkpt lat="-11.4586620" lon="-76.5955200">
        <ele>3456.7</ele>
        <time>2022-09-11T14:41:49Z</time>
      </trkpt>
      <trkpt lat="-11.4588570" lon="-76.5955340">
        <ele>3457.3</ele>
        <time>2022-09-11T14:41:57Z</time>
      </trkpt>
      <trkpt lat="-11.4590520" lon="-76.5954860">
        <ele>3457.9</ele>
        <time>2022-09-11T14:42:05Z</time>
      </trkpt>
      <trkpt lat="-11.4592220" lon="-76.5954070">
        <ele>3458.5</ele>
        <time>2022-09-11T14:42:12Z</time>
      </trkpt>
      <trkpt lat="-11.4593930" lon="-76.5953170">
        <ele>3459.1</ele>
        <time>2022-09-11T14:42:20Z</time>
      </trkpt>
      <trkpt lat="-11.4595660" lon="-76.5952020">
        <ele>3459.7</ele>
        <time>2022-09-11T14:42:28Z</time>
      </trkpt>
      <trkpt lat="-11.4597140" lon="-76.5950650">
        <ele>3460.3</ele>
        <time>2022-09-11T14:42:36Z</time>
      </trkpt>
      <trkpt lat="-11.4598770" lon="-76.5949560">
        <ele>3460.9</ele>
        <time>2022-09-11T14:42:44Z</time>
      </trkpt>
      <trkpt lat="-11.4600770" lon="-76.5949210">
        <ele>3461.6</ele>
        <time>2022-09-11T14:42:52Z</time>
      </trkpt>
      <trkpt lat="-11.4602490" lon="-76.5948360">
        <ele>3462.1</ele>
        <time>2022-09-11T14:42:59Z</time>
      </trkpt>
      <trkpt lat="-11.4603890" lon="-76.5946870">
        <ele>3462.8</ele>
        <time>2022-09-11T14:43:06Z</time>
      </trkpt>
      <trkpt lat="-11.4605290" lon="-76.5945480">
        <ele>3463.4</ele>
        <time>2022-09-11T14:43:13Z</time>
      </trkpt>
      <trkpt lat="-11.4606980" lon="-76.5944220">
        <ele>3464.0</ele>
        <time>2022-09-11T14:43:20Z</time>
      </trkpt>
      <trkpt lat="-11.4608740" lon="-76.5943100">
        <ele>3464.6</ele>
        <time>2022-09-11T14:43:26Z</time>
      </trkpt>
      <trkpt lat="-11.4610580" lon="-76.5942240">
        <ele>3465.3</ele>
        <time>2022-09-11T14:43:32Z</time>
      </trkpt>
      <trkpt lat="-11.4612440" lon="-76.5941500">
        <ele>3465.9</ele>
        <time>2022-09-11T14:43:39Z</time>
      </trkpt>
      <trkpt lat="-11.4613820" lon="-76.5940230">
        <ele>3466.6</ele>
        <time>2022-09-11T14:43:48Z</time>
      </trkpt>
      <trkpt lat="-11.4614920" lon="-76.5939210">
        <ele>3467.2</ele>
        <time>2022-09-11T14:44:01Z</time>
      </trkpt>
      <trkpt lat="-11.4613440" lon="-76.5939940">
        <ele>3467.9</ele>
        <time>2022-09-11T14:48:27Z</time>
      </trkpt>
      <trkpt lat="-11.4613270" lon="-76.5940020">
        <ele>3467.9</ele>
        <time>2022-09-11T14:48:28Z</time>
      </trkpt>
      <trkpt lat="-11.4612390" lon="-76.5941430">
        <ele>3468.6</ele>
        <time>2022-09-11T14:48:41Z</time>
      </trkpt>
      <trkpt lat="-11.4612320" lon="-76.5941510">
        <ele>3468.6</ele>
        <time>2022-09-11T14:48:43Z</time>
      </trkpt>
      <trkpt lat="-11.4612880" lon="-76.5941210">
        <ele>3468.9</ele>
        <time>2022-09-11T14:48:51Z</time>
      </trkpt>
      <trkpt lat="-11.4613310" lon="-76.5940700">
        <ele>3469.1</ele>
        <time>2022-09-11T14:48:56Z</time>
      </trkpt>
      <trkpt lat="-11.4613830" lon="-76.5940020">
        <ele>3469.4</ele>
        <time>2022-09-11T14:49:03Z</time>
      </trkpt>
      <trkpt lat="-11.4613840" lon="-76.5940030">
        <ele>3469.5</ele>
        <time>2022-09-11T14:49:04Z</time>
      </trkpt>
      <trkpt lat="-11.4614520" lon="-76.5939630">
        <ele>3469.8</ele>
        <time>2022-09-11T14:49:35Z</time>
      </trkpt>
      <trkpt lat="-11.4614660" lon="-76.5939530">
        <ele>3469.8</ele>
        <time>2022-09-11T14:49:36Z</time>
      </trkpt>
      <trkpt lat="-11.4616000" lon="-76.5938100">
        <ele>3470.6</ele>
        <time>2022-09-11T14:49:47Z</time>
      </trkpt>
      <trkpt lat="-11.4616600" lon="-76.5937210">
        <ele>3471.0</ele>
        <time>2022-09-11T14:49:52Z</time>
      </trkpt>
      <trkpt lat="-11.4617290" lon="-76.5935630">
        <ele>3471.7</ele>
        <time>2022-09-11T14:49:59Z</time>
      </trkpt>
      <trkpt lat="-11.4617720" lon="-76.5934430">
        <ele>3472.1</ele>
        <time>2022-09-11T14:50:05Z</time>
      </trkpt>
      <trkpt lat="-11.4618100" lon="-76.5933440">
        <ele>3472.6</ele>
        <time>2022-09-11T14:50:11Z</time>
      </trkpt>
      <trkpt lat="-11.4619490" lon="-76.5931900">
        <ele>3473.4</ele>
        <time>2022-09-11T14:50:17Z</time>
      </trkpt>
      <trkpt lat="-11.4620620" lon="-76.5930240">
        <ele>3474.1</ele>
        <time>2022-09-11T14:50:23Z</time>
      </trkpt>
      <trkpt lat="-11.4621460" lon="-76.5928460">
        <ele>3474.9</ele>
        <time>2022-09-11T14:50:30Z</time>
      </trkpt>
      <trkpt lat="-11.4621490" lon="-76.5928010">
        <ele>3475.1</ele>
        <time>2022-09-11T14:50:36Z</time>
      </trkpt>
      <trkpt lat="-11.4621620" lon="-76.5928500">
        <ele>3475.2</ele>
        <time>2022-09-11T14:50:39Z</time>
      </trkpt>
      <trkpt lat="-11.4622600" lon="-76.5930250">
        <ele>3476.0</ele>
        <time>2022-09-11T14:50:48Z</time>
      </trkpt>
      <trkpt lat="-11.4622500" lon="-76.5932090">
        <ele>3476.7</ele>
        <time>2022-09-11T14:51:01Z</time>
      </trkpt>
      <trkpt lat="-11.4622450" lon="-76.5932270">
        <ele>3476.8</ele>
        <time>2022-09-11T14:51:05Z</time>
      </trkpt>
      <trkpt lat="-11.4622530" lon="-76.5933550">
        <ele>3477.3</ele>
        <time>2022-09-11T14:51:50Z</time>
      </trkpt>
      <trkpt lat="-11.4622510" lon="-76.5933770">
        <ele>3477.4</ele>
        <time>2022-09-11T14:51:51Z</time>
      </trkpt>
      <trkpt lat="-11.4622620" lon="-76.5934930">
        <ele>3477.8</ele>
        <time>2022-09-11T14:51:56Z</time>
      </trkpt>
      <trkpt lat="-11.4622970" lon="-76.5936190">
        <ele>3478.3</ele>
        <time>2022-09-11T14:52:02Z</time>
      </trkpt>
      <trkpt lat="-11.4623250" lon="-76.5937780">
        <ele>3478.9</ele>
        <time>2022-09-11T14:52:10Z</time>
      </trkpt>
      <trkpt lat="-11.4623450" lon="-76.5939660">
        <ele>3479.7</ele>
        <time>2022-09-11T14:52:17Z</time>
      </trkpt>
      <trkpt lat="-11.4623750" lon="-76.5941670">
        <ele>3480.4</ele>
        <time>2022-09-11T14:52:24Z</time>
      </trkpt>
      <trkpt lat="-11.4623850" lon="-76.5943530">
        <ele>3481.1</ele>
        <time>2022-09-11T14:52:31Z</time>
      </trkpt>
      <trkpt lat="-11.4624600" lon="-76.5945420">
        <ele>3481.9</ele>
        <time>2022-09-11T14:52:39Z</time>
      </trkpt>
      <trkpt lat="-11.4625010" lon="-76.5947210">
        <ele>3482.6</ele>
        <time>2022-09-11T14:52:46Z</time>
      </trkpt>
      <trkpt lat="-11.4624900" lon="-76.5949270">
        <ele>3483.4</ele>
        <time>2022-09-11T14:52:54Z</time>
      </trkpt>
      <trkpt lat="-11.4624580" lon="-76.5951130">
        <ele>3484.1</ele>
        <time>2022-09-11T14:53:01Z</time>
      </trkpt>
      <trkpt lat="-11.4624240" lon="-76.5953140">
        <ele>3484.9</ele>
        <time>2022-09-11T14:53:09Z</time>
      </trkpt>
      <trkpt lat="-11.4623880" lon="-76.5954850">
        <ele>3485.6</ele>
        <time>2022-09-11T14:53:16Z</time>
      </trkpt>
      <trkpt lat="-11.4623630" lon="-76.5956830">
        <ele>3486.4</ele>
        <time>2022-09-11T14:53:24Z</time>
      </trkpt>
      <trkpt lat="-11.4624030" lon="-76.5958880">
        <ele>3487.2</ele>
        <time>2022-09-11T14:53:32Z</time>
      </trkpt>
      <trkpt lat="-11.4624490" lon="-76.5960820">
        <ele>3487.9</ele>
        <time>2022-09-11T14:53:40Z</time>
      </trkpt>
      <trkpt lat="-11.4625190" lon="-76.5962760">
        <ele>3488.7</ele>
        <time>2022-09-11T14:53:48Z</time>
      </trkpt>
      <trkpt lat="-11.4626670" lon="-76.5963840">
        <ele>3489.4</ele>
        <time>2022-09-11T14:53:55Z</time>
      </trkpt>
      <trkpt lat="-11.4628540" lon="-76.5963590">
        <ele>3490.1</ele>
        <time>2022-09-11T14:54:02Z</time>
      </trkpt>
      <trkpt lat="-11.4630250" lon="-76.5962820">
        <ele>3490.9</ele>
        <time>2022-09-11T14:54:09Z</time>
      </trkpt>
      <trkpt lat="-11.4632060" lon="-76.5962050">
        <ele>3491.6</ele>
        <time>2022-09-11T14:54:16Z</time>
      </trkpt>
      <trkpt lat="-11.4633880" lon="-76.5961190">
        <ele>3492.4</ele>
        <time>2022-09-11T14:54:23Z</time>
      </trkpt>
      <trkpt lat="-11.4635380" lon="-76.5960100">
        <ele>3493.1</ele>
        <time>2022-09-11T14:54:30Z</time>
      </trkpt>
      <trkpt lat="-11.4636810" lon="-76.5958850">
        <ele>3493.9</ele>
        <time>2022-09-11T14:54:38Z</time>
      </trkpt>
      <trkpt lat="-11.4638590" lon="-76.5958120">
        <ele>3494.6</ele>
        <time>2022-09-11T14:54:46Z</time>
      </trkpt>
      <trkpt lat="-11.4640340" lon="-76.5957540">
        <ele>3495.3</ele>
        <time>2022-09-11T14:54:53Z</time>
      </trkpt>
      <trkpt lat="-11.4642210" lon="-76.5957560">
        <ele>3496.1</ele>
        <time>2022-09-11T14:55:00Z</time>
      </trkpt>
      <trkpt lat="-11.4644250" lon="-76.5957060">
        <ele>3496.9</ele>
        <time>2022-09-11T14:55:07Z</time>
      </trkpt>
      <trkpt lat="-11.4646230" lon="-76.5956450">
        <ele>3497.7</ele>
        <time>2022-09-11T14:55:14Z</time>
      </trkpt>
      <trkpt lat="-11.4648020" lon="-76.5955780">
        <ele>3498.4</ele>
        <time>2022-09-11T14:55:20Z</time>
      </trkpt>
      <trkpt lat="-11.4649770" lon="-76.5955020">
        <ele>3499.2</ele>
        <time>2022-09-11T14:55:26Z</time>
      </trkpt>
      <trkpt lat="-11.4651460" lon="-76.5954080">
        <ele>3499.9</ele>
        <time>2022-09-11T14:55:32Z</time>
      </trkpt>
      <trkpt lat="-11.4652910" lon="-76.5952850">
        <ele>3500.7</ele>
        <time>2022-09-11T14:55:38Z</time>
      </trkpt>
      <trkpt lat="-11.4654040" lon="-76.5951240">
        <ele>3501.4</ele>
        <time>2022-09-11T14:55:44Z</time>
      </trkpt>
      <trkpt lat="-11.4654930" lon="-76.5949470">
        <ele>3502.2</ele>
        <time>2022-09-11T14:55:50Z</time>
      </trkpt>
      <trkpt lat="-11.4655550" lon="-76.5947620">
        <ele>3502.9</ele>
        <time>2022-09-11T14:55:56Z</time>
      </trkpt>
      <trkpt lat="-11.4655930" lon="-76.5945550">
        <ele>3503.7</ele>
        <time>2022-09-11T14:56:03Z</time>
      </trkpt>
      <trkpt lat="-11.4656180" lon="-76.5943730">
        <ele>3504.4</ele>
        <time>2022-09-11T14:56:09Z</time>
      </trkpt>
      <trkpt lat="-11.4656670" lon="-76.5941770">
        <ele>3505.1</ele>
        <time>2022-09-11T14:56:15Z</time>
      </trkpt>
      <trkpt lat="-11.4657300" lon="-76.5940270">
        <ele>3505.6</ele>
        <time>2022-09-11T14:56:20Z</time>
      </trkpt>
      <trkpt lat="-11.4658570" lon="-76.5938890">
        <ele>3506.1</ele>
        <time>2022-09-11T14:56:26Z</time>
      </trkpt>
      <trkpt lat="-11.4660740" lon="-76.5938490">
        <ele>3505.9</ele>
        <time>2022-09-11T14:56:32Z</time>
      </trkpt>
      <trkpt lat="-11.4662670" lon="-76.5938400">
        <ele>3506.0</ele>
        <time>2022-09-11T14:56:37Z</time>
      </trkpt>
      <trkpt lat="-11.4664410" lon="-76.5937310">
        <ele>3506.0</ele>
        <time>2022-09-11T14:56:44Z</time>
      </trkpt>
      <trkpt lat="-11.4665730" lon="-76.5935630">
        <ele>3506.3</ele>
        <time>2022-09-11T14:56:50Z</time>
      </trkpt>
      <trkpt lat="-11.4667510" lon="-76.5934470">
        <ele>3506.7</ele>
        <time>2022-09-11T14:56:56Z</time>
      </trkpt>
      <trkpt lat="-11.4668920" lon="-76.5933150">
        <ele>3507.6</ele>
        <time>2022-09-11T14:57:03Z</time>
      </trkpt>
      <trkpt lat="-11.4669910" lon="-76.5931670">
        <ele>3508.4</ele>
        <time>2022-09-11T14:57:10Z</time>
      </trkpt>
      <trkpt lat="-11.4671240" lon="-76.5931650">
        <ele>3508.6</ele>
        <time>2022-09-11T14:57:16Z</time>
      </trkpt>
      <trkpt lat="-11.4671650" lon="-76.5933670">
        <ele>3508.0</ele>
        <time>2022-09-11T14:57:23Z</time>
      </trkpt>
      <trkpt lat="-11.4671910" lon="-76.5935190">
        <ele>3507.2</ele>
        <time>2022-09-11T14:57:27Z</time>
      </trkpt>
      <trkpt lat="-11.4673060" lon="-76.5936780">
        <ele>3505.8</ele>
        <time>2022-09-11T14:57:31Z</time>
      </trkpt>
      <trkpt lat="-11.4674840" lon="-76.5938110">
        <ele>3504.4</ele>
        <time>2022-09-11T14:57:35Z</time>
      </trkpt>
      <trkpt lat="-11.4676700" lon="-76.5938430">
        <ele>3503.2</ele>
        <time>2022-09-11T14:57:38Z</time>
      </trkpt>
      <trkpt lat="-11.4677440" lon="-76.5938450">
        <ele>3502.8</ele>
        <time>2022-09-11T14:57:39Z</time>
      </trkpt>
      <trkpt lat="-11.4679540" lon="-76.5938700">
        <ele>3501.7</ele>
        <time>2022-09-11T14:57:42Z</time>
      </trkpt>
      <trkpt lat="-11.4681530" lon="-76.5939310">
        <ele>3500.5</ele>
        <time>2022-09-11T14:57:45Z</time>
      </trkpt>
      <trkpt lat="-11.4683400" lon="-76.5940420">
        <ele>3499.8</ele>
        <time>2022-09-11T14:57:48Z</time>
      </trkpt>
      <trkpt lat="-11.4685240" lon="-76.5941350">
        <ele>3499.1</ele>
        <time>2022-09-11T14:57:51Z</time>
      </trkpt>
      <trkpt lat="-11.4686960" lon="-76.5942140">
        <ele>3498.7</ele>
        <time>2022-09-11T14:57:54Z</time>
      </trkpt>
      <trkpt lat="-11.4687520" lon="-76.5942170">
        <ele>3498.6</ele>
        <time>2022-09-11T14:57:55Z</time>
      </trkpt>
      <trkpt lat="-11.4689310" lon="-76.5941660">
        <ele>3498.0</ele>
        <time>2022-09-11T14:57:58Z</time>
      </trkpt>
      <trkpt lat="-11.4691170" lon="-76.5940850">
        <ele>3497.1</ele>
        <time>2022-09-11T14:58:01Z</time>
      </trkpt>
      <trkpt lat="-11.4693300" lon="-76.5940810">
        <ele>3497.4</ele>
        <time>2022-09-11T14:58:05Z</time>
      </trkpt>
      <trkpt lat="-11.4694250" lon="-76.5941210">
        <ele>3497.7</ele>
        <time>2022-09-11T14:58:07Z</time>
      </trkpt>
      <trkpt lat="-11.4695260" lon="-76.5941620">
        <ele>3498.0</ele>
        <time>2022-09-11T14:58:09Z</time>
      </trkpt>
      <trkpt lat="-11.4695790" lon="-76.5941760">
        <ele>3498.0</ele>
        <time>2022-09-11T14:58:10Z</time>
      </trkpt>
      <trkpt lat="-11.4697970" lon="-76.5941930">
        <ele>3498.2</ele>
        <time>2022-09-11T14:58:14Z</time>
      </trkpt>
      <trkpt lat="-11.4700040" lon="-76.5941800">
        <ele>3498.8</ele>
        <time>2022-09-11T14:58:18Z</time>
      </trkpt>
      <trkpt lat="-11.4701840" lon="-76.5941650">
        <ele>3499.2</ele>
        <time>2022-09-11T14:58:22Z</time>
      </trkpt>
      <trkpt lat="-11.4703860" lon="-76.5941640">
        <ele>3499.4</ele>
        <time>2022-09-11T14:58:26Z</time>
      </trkpt>
      <trkpt lat="-11.4705680" lon="-76.5942190">
        <ele>3499.8</ele>
        <time>2022-09-11T14:58:30Z</time>
      </trkpt>
      <trkpt lat="-11.4706800" lon="-76.5943590">
        <ele>3500.2</ele>
        <time>2022-09-11T14:58:34Z</time>
      </trkpt>
      <trkpt lat="-11.4708370" lon="-76.5944530">
        <ele>3500.7</ele>
        <time>2022-09-11T14:58:40Z</time>
      </trkpt>
      <trkpt lat="-11.4710280" lon="-76.5944050">
        <ele>3501.0</ele>
        <time>2022-09-11T14:58:46Z</time>
      </trkpt>
      <trkpt lat="-11.4712450" lon="-76.5943750">
        <ele>3501.0</ele>
        <time>2022-09-11T14:58:51Z</time>
      </trkpt>
      <trkpt lat="-11.4714580" lon="-76.5943370">
        <ele>3501.4</ele>
        <time>2022-09-11T14:58:56Z</time>
      </trkpt>
      <trkpt lat="-11.4716360" lon="-76.5943000">
        <ele>3502.2</ele>
        <time>2022-09-11T14:59:01Z</time>
      </trkpt>
      <trkpt lat="-11.4718160" lon="-76.5942960">
        <ele>3503.6</ele>
        <time>2022-09-11T14:59:07Z</time>
      </trkpt>
      <trkpt lat="-11.4719380" lon="-76.5944280">
        <ele>3504.2</ele>
        <time>2022-09-11T14:59:12Z</time>
      </trkpt>
      <trkpt lat="-11.4720520" lon="-76.5945800">
        <ele>3504.4</ele>
        <time>2022-09-11T14:59:18Z</time>
      </trkpt>
      <trkpt lat="-11.4721540" lon="-76.5947450">
        <ele>3505.0</ele>
        <time>2022-09-11T14:59:25Z</time>
      </trkpt>
      <trkpt lat="-11.4723270" lon="-76.5948440">
        <ele>3506.4</ele>
        <time>2022-09-11T14:59:32Z</time>
      </trkpt>
      <trkpt lat="-11.4725190" lon="-76.5948430">
        <ele>3507.0</ele>
        <time>2022-09-11T14:59:37Z</time>
      </trkpt>
      <trkpt lat="-11.4727250" lon="-76.5948590">
        <ele>3507.2</ele>
        <time>2022-09-11T14:59:43Z</time>
      </trkpt>
      <trkpt lat="-11.4729100" lon="-76.5948600">
        <ele>3507.9</ele>
        <time>2022-09-11T14:59:49Z</time>
      </trkpt>
      <trkpt lat="-11.4730710" lon="-76.5949500">
        <ele>3508.7</ele>
        <time>2022-09-11T14:59:56Z</time>
      </trkpt>
      <trkpt lat="-11.4730690" lon="-76.5949750">
        <ele>3508.8</ele>
        <time>2022-09-11T14:59:57Z</time>
      </trkpt>
      <trkpt lat="-11.4729560" lon="-76.5951200">
        <ele>3510.0</ele>
        <time>2022-09-11T15:00:03Z</time>
      </trkpt>
      <trkpt lat="-11.4728890" lon="-76.5953150">
        <ele>3510.5</ele>
        <time>2022-09-11T15:00:10Z</time>
      </trkpt>
      <trkpt lat="-11.4728840" lon="-76.5955200">
        <ele>3510.7</ele>
        <time>2022-09-11T15:00:18Z</time>
      </trkpt>
      <trkpt lat="-11.4729750" lon="-76.5956930">
        <ele>3511.4</ele>
        <time>2022-09-11T15:00:26Z</time>
      </trkpt>
      <trkpt lat="-11.4731200" lon="-76.5958090">
        <ele>3512.1</ele>
        <time>2022-09-11T15:00:33Z</time>
      </trkpt>
      <trkpt lat="-11.4733000" lon="-76.5959140">
        <ele>3511.9</ele>
        <time>2022-09-11T15:00:39Z</time>
      </trkpt>
      <trkpt lat="-11.4734970" lon="-76.5960070">
        <ele>3511.6</ele>
        <time>2022-09-11T15:00:45Z</time>
      </trkpt>
      <trkpt lat="-11.4736220" lon="-76.5961400">
        <ele>3511.4</ele>
        <time>2022-09-11T15:00:50Z</time>
      </trkpt>
      <trkpt lat="-11.4737050" lon="-76.5963120">
        <ele>3511.0</ele>
        <time>2022-09-11T15:00:55Z</time>
      </trkpt>
      <trkpt lat="-11.4737840" lon="-76.5965110">
        <ele>3510.7</ele>
        <time>2022-09-11T15:01:00Z</time>
      </trkpt>
      <trkpt lat="-11.4738110" lon="-76.5967230">
        <ele>3510.8</ele>
        <time>2022-09-11T15:01:06Z</time>
      </trkpt>
      <trkpt lat="-11.4738260" lon="-76.5969400">
        <ele>3510.8</ele>
        <time>2022-09-11T15:01:12Z</time>
      </trkpt>
      <trkpt lat="-11.4738170" lon="-76.5971230">
        <ele>3511.0</ele>
        <time>2022-09-11T15:01:17Z</time>
      </trkpt>
      <trkpt lat="-11.4738160" lon="-76.5973330">
        <ele>3511.3</ele>
        <time>2022-09-11T15:01:23Z</time>
      </trkpt>
      <trkpt lat="-11.4738600" lon="-76.5975360">
        <ele>3511.9</ele>
        <time>2022-09-11T15:01:29Z</time>
      </trkpt>
      <trkpt lat="-11.4739120" lon="-76.5976470">
        <ele>3511.9</ele>
        <time>2022-09-11T15:01:32Z</time>
      </trkpt>
      <trkpt lat="-11.4740370" lon="-76.5977720">
        <ele>3512.2</ele>
        <time>2022-09-11T15:01:37Z</time>
      </trkpt>
      <trkpt lat="-11.4742220" lon="-76.5978170">
        <ele>3512.6</ele>
        <time>2022-09-11T15:01:43Z</time>
      </trkpt>
      <trkpt lat="-11.4744370" lon="-76.5978350">
        <ele>3512.3</ele>
        <time>2022-09-11T15:01:48Z</time>
      </trkpt>
      <trkpt lat="-11.4746290" lon="-76.5978420">
        <ele>3512.4</ele>
        <time>2022-09-11T15:01:53Z</time>
      </trkpt>
      <trkpt lat="-11.4748360" lon="-76.5978200">
        <ele>3513.8</ele>
        <time>2022-09-11T15:02:00Z</time>
      </trkpt>
      <trkpt lat="-11.4750190" lon="-76.5979140">
        <ele>3515.5</ele>
        <time>2022-09-11T15:02:07Z</time>
      </trkpt>
      <trkpt lat="-11.4751790" lon="-76.5980190">
        <ele>3516.4</ele>
        <time>2022-09-11T15:02:13Z</time>
      </trkpt>
      <trkpt lat="-11.4753530" lon="-76.5981190">
        <ele>3517.3</ele>
        <time>2022-09-11T15:02:20Z</time>
      </trkpt>
      <trkpt lat="-11.4755340" lon="-76.5981920">
        <ele>3518.6</ele>
        <time>2022-09-11T15:02:28Z</time>
      </trkpt>
      <trkpt lat="-11.4757280" lon="-76.5982170">
        <ele>3520.5</ele>
        <time>2022-09-11T15:02:37Z</time>
      </trkpt>
      <trkpt lat="-11.4759140" lon="-76.5982200">
        <ele>3521.7</ele>
        <time>2022-09-11T15:02:45Z</time>
      </trkpt>
      <trkpt lat="-11.4760740" lon="-76.5983190">
        <ele>3522.5</ele>
        <time>2022-09-11T15:02:53Z</time>
      </trkpt>
      <trkpt lat="-11.4761950" lon="-76.5984770">
        <ele>3523.5</ele>
        <time>2022-09-11T15:03:01Z</time>
      </trkpt>
      <trkpt lat="-11.4762880" lon="-76.5986610">
        <ele>3524.8</ele>
        <time>2022-09-11T15:03:09Z</time>
      </trkpt>
      <trkpt lat="-11.4763240" lon="-76.5988450">
        <ele>3525.8</ele>
        <time>2022-09-11T15:03:16Z</time>
      </trkpt>
      <trkpt lat="-11.4763130" lon="-76.5990290">
        <ele>3526.6</ele>
        <time>2022-09-11T15:03:23Z</time>
      </trkpt>
      <trkpt lat="-11.4764070" lon="-76.5992070">
        <ele>3527.3</ele>
        <time>2022-09-11T15:03:31Z</time>
      </trkpt>
      <trkpt lat="-11.4765940" lon="-76.5992790">
        <ele>3527.9</ele>
        <time>2022-09-11T15:03:39Z</time>
      </trkpt>
      <trkpt lat="-11.4767740" lon="-76.5993000">
        <ele>3528.4</ele>
        <time>2022-09-11T15:03:46Z</time>
      </trkpt>
      <trkpt lat="-11.4769770" lon="-76.5993120">
        <ele>3529.3</ele>
        <time>2022-09-11T15:03:54Z</time>
      </trkpt>
      <trkpt lat="-11.4771770" lon="-76.5992940">
        <ele>3530.6</ele>
        <time>2022-09-11T15:04:02Z</time>
      </trkpt>
      <trkpt lat="-11.4773720" lon="-76.5992720">
        <ele>3531.8</ele>
        <time>2022-09-11T15:04:10Z</time>
      </trkpt>
      <trkpt lat="-11.4775430" lon="-76.5991970">
        <ele>3532.9</ele>
        <time>2022-09-11T15:04:18Z</time>
      </trkpt>
      <trkpt lat="-11.4776510" lon="-76.5990380">
        <ele>3533.9</ele>
        <time>2022-09-11T15:04:26Z</time>
      </trkpt>
      <trkpt lat="-11.4776580" lon="-76.5988290">
        <ele>3534.9</ele>
        <time>2022-09-11T15:04:34Z</time>
      </trkpt>
      <trkpt lat="-11.4776440" lon="-76.5986400">
        <ele>3535.7</ele>
        <time>2022-09-11T15:04:41Z</time>
      </trkpt>
      <trkpt lat="-11.4776420" lon="-76.5984460">
        <ele>3536.5</ele>
        <time>2022-09-11T15:04:48Z</time>
      </trkpt>
      <trkpt lat="-11.4776850" lon="-76.5982560">
        <ele>3537.4</ele>
        <time>2022-09-11T15:04:55Z</time>
      </trkpt>
      <trkpt lat="-11.4777630" lon="-76.5980780">
        <ele>3538.7</ele>
        <time>2022-09-11T15:05:02Z</time>
      </trkpt>
      <trkpt lat="-11.4778310" lon="-76.5978910">
        <ele>3540.0</ele>
        <time>2022-09-11T15:05:10Z</time>
      </trkpt>
      <trkpt lat="-11.4778590" lon="-76.5977490">
        <ele>3540.8</ele>
        <time>2022-09-11T15:05:16Z</time>
      </trkpt>
      <trkpt lat="-11.4779810" lon="-76.5977040">
        <ele>3541.0</ele>
        <time>2022-09-11T15:05:22Z</time>
      </trkpt>
      <trkpt lat="-11.4781670" lon="-76.5977110">
        <ele>3542.0</ele>
        <time>2022-09-11T15:05:31Z</time>
      </trkpt>
      <trkpt lat="-11.4783690" lon="-76.5977180">
        <ele>3542.7</ele>
        <time>2022-09-11T15:05:42Z</time>
      </trkpt>
      <trkpt lat="-11.4785620" lon="-76.5977310">
        <ele>3543.3</ele>
        <time>2022-09-11T15:05:50Z</time>
      </trkpt>
      <trkpt lat="-11.4787650" lon="-76.5977120">
        <ele>3544.3</ele>
        <time>2022-09-11T15:05:58Z</time>
      </trkpt>
      <trkpt lat="-11.4789210" lon="-76.5975860">
        <ele>3545.5</ele>
        <time>2022-09-11T15:06:06Z</time>
      </trkpt>
      <trkpt lat="-11.4790100" lon="-76.5974260">
        <ele>3546.0</ele>
        <time>2022-09-11T15:06:13Z</time>
      </trkpt>
      <trkpt lat="-11.4791190" lon="-76.5972690">
        <ele>3546.9</ele>
        <time>2022-09-11T15:06:20Z</time>
      </trkpt>
      <trkpt lat="-11.4792470" lon="-76.5971450">
        <ele>3548.0</ele>
        <time>2022-09-11T15:06:28Z</time>
      </trkpt>
      <trkpt lat="-11.4794400" lon="-76.5972030">
        <ele>3549.2</ele>
        <time>2022-09-11T15:06:36Z</time>
      </trkpt>
      <trkpt lat="-11.4796350" lon="-76.5971880">
        <ele>3550.1</ele>
        <time>2022-09-11T15:06:43Z</time>
      </trkpt>
      <trkpt lat="-11.4798330" lon="-76.5971750">
        <ele>3551.2</ele>
        <time>2022-09-11T15:06:51Z</time>
      </trkpt>
      <trkpt lat="-11.4800340" lon="-76.5971550">
        <ele>3552.4</ele>
        <time>2022-09-11T15:06:59Z</time>
      </trkpt>
      <trkpt lat="-11.4802370" lon="-76.5971050">
        <ele>3553.1</ele>
        <time>2022-09-11T15:07:06Z</time>
      </trkpt>
      <trkpt lat="-11.4804250" lon="-76.5970720">
        <ele>3553.9</ele>
        <time>2022-09-11T15:07:13Z</time>
      </trkpt>
      <trkpt lat="-11.4806030" lon="-76.5970380">
        <ele>3555.1</ele>
        <time>2022-09-11T15:07:20Z</time>
      </trkpt>
      <trkpt lat="-11.4807830" lon="-76.5969950">
        <ele>3556.2</ele>
        <time>2022-09-11T15:07:27Z</time>
      </trkpt>
      <trkpt lat="-11.4809660" lon="-76.5969280">
        <ele>3557.1</ele>
        <time>2022-09-11T15:07:34Z</time>
      </trkpt>
      <trkpt lat="-11.4811310" lon="-76.5968440">
        <ele>3558.0</ele>
        <time>2022-09-11T15:07:41Z</time>
      </trkpt>
      <trkpt lat="-11.4812730" lon="-76.5967020">
        <ele>3559.2</ele>
        <time>2022-09-11T15:07:49Z</time>
      </trkpt>
      <trkpt lat="-11.4813190" lon="-76.5966860">
        <ele>3559.4</ele>
        <time>2022-09-11T15:07:51Z</time>
      </trkpt>
      <trkpt lat="-11.4813760" lon="-76.5967510">
        <ele>3559.6</ele>
        <time>2022-09-11T15:07:55Z</time>
      </trkpt>
      <trkpt lat="-11.4813850" lon="-76.5969380">
        <ele>3560.0</ele>
        <time>2022-09-11T15:08:03Z</time>
      </trkpt>
      <trkpt lat="-11.4813490" lon="-76.5971290">
        <ele>3560.5</ele>
        <time>2022-09-11T15:08:10Z</time>
      </trkpt>
      <trkpt lat="-11.4813770" lon="-76.5973120">
        <ele>3561.1</ele>
        <time>2022-09-11T15:08:17Z</time>
      </trkpt>
      <trkpt lat="-11.4815230" lon="-76.5974240">
        <ele>3562.0</ele>
        <time>2022-09-11T15:08:24Z</time>
      </trkpt>
      <trkpt lat="-11.4816970" lon="-76.5974840">
        <ele>3563.1</ele>
        <time>2022-09-11T15:08:31Z</time>
      </trkpt>
      <trkpt lat="-11.4818840" lon="-76.5974710">
        <ele>3564.3</ele>
        <time>2022-09-11T15:08:39Z</time>
      </trkpt>
      <trkpt lat="-11.4820480" lon="-76.5973840">
        <ele>3565.7</ele>
        <time>2022-09-11T15:08:47Z</time>
      </trkpt>
      <trkpt lat="-11.4822120" lon="-76.5973050">
        <ele>3566.9</ele>
        <time>2022-09-11T15:08:55Z</time>
      </trkpt>
      <trkpt lat="-11.4823000" lon="-76.5973050">
        <ele>3567.3</ele>
        <time>2022-09-11T15:08:59Z</time>
      </trkpt>
      <trkpt lat="-11.4823360" lon="-76.5974740">
        <ele>3567.9</ele>
        <time>2022-09-11T15:09:07Z</time>
      </trkpt>
      <trkpt lat="-11.4824240" lon="-76.5975890">
        <ele>3568.4</ele>
        <time>2022-09-11T15:09:14Z</time>
      </trkpt>
      <trkpt lat="-11.4826020" lon="-76.5976280">
        <ele>3569.5</ele>
        <time>2022-09-11T15:09:22Z</time>
      </trkpt>
      <trkpt lat="-11.4827880" lon="-76.5976120">
        <ele>3570.7</ele>
        <time>2022-09-11T15:09:30Z</time>
      </trkpt>
      <trkpt lat="-11.4829690" lon="-76.5976490">
        <ele>3571.8</ele>
        <time>2022-09-11T15:09:38Z</time>
      </trkpt>
      <trkpt lat="-11.4831570" lon="-76.5976700">
        <ele>3572.7</ele>
        <time>2022-09-11T15:09:46Z</time>
      </trkpt>
      <trkpt lat="-11.4833410" lon="-76.5976870">
        <ele>3573.5</ele>
        <time>2022-09-11T15:09:54Z</time>
      </trkpt>
      <trkpt lat="-11.4835320" lon="-76.5976610">
        <ele>3574.8</ele>
        <time>2022-09-11T15:10:02Z</time>
      </trkpt>
      <trkpt lat="-11.4837280" lon="-76.5976250">
        <ele>3576.4</ele>
        <time>2022-09-11T15:10:10Z</time>
      </trkpt>
      <trkpt lat="-11.4839170" lon="-76.5975800">
        <ele>3577.7</ele>
        <time>2022-09-11T15:10:18Z</time>
      </trkpt>
      <trkpt lat="-11.4840970" lon="-76.5975310">
        <ele>3578.9</ele>
        <time>2022-09-11T15:10:26Z</time>
      </trkpt>
      <trkpt lat="-11.4842730" lon="-76.5974560">
        <ele>3580.1</ele>
        <time>2022-09-11T15:10:35Z</time>
      </trkpt>
      <trkpt lat="-11.4844630" lon="-76.5974160">
        <ele>3581.1</ele>
        <time>2022-09-11T15:10:44Z</time>
      </trkpt>
      <trkpt lat="-11.4846350" lon="-76.5973500">
        <ele>3581.9</ele>
        <time>2022-09-11T15:10:52Z</time>
      </trkpt>
      <trkpt lat="-11.4848040" lon="-76.5972820">
        <ele>3582.7</ele>
        <time>2022-09-11T15:11:00Z</time>
      </trkpt>
      <trkpt lat="-11.4849730" lon="-76.5972140">
        <ele>3583.7</ele>
        <time>2022-09-11T15:11:08Z</time>
      </trkpt>
      <trkpt lat="-11.4851600" lon="-76.5971590">
        <ele>3584.6</ele>
        <time>2022-09-11T15:11:16Z</time>
      </trkpt>
      <trkpt lat="-11.4853260" lon="-76.5970860">
        <ele>3585.7</ele>
        <time>2022-09-11T15:11:24Z</time>
      </trkpt>
      <trkpt lat="-11.4854760" lon="-76.5969810">
        <ele>3586.9</ele>
        <time>2022-09-11T15:11:32Z</time>
      </trkpt>
      <trkpt lat="-11.4856470" lon="-76.5968860">
        <ele>3588.3</ele>
        <time>2022-09-11T15:11:41Z</time>
      </trkpt>
      <trkpt lat="-11.4858170" lon="-76.5968210">
        <ele>3589.5</ele>
        <time>2022-09-11T15:11:49Z</time>
      </trkpt>
      <trkpt lat="-11.4859950" lon="-76.5967410">
        <ele>3590.8</ele>
        <time>2022-09-11T15:11:58Z</time>
      </trkpt>
      <trkpt lat="-11.4861770" lon="-76.5967040">
        <ele>3591.7</ele>
        <time>2022-09-11T15:12:06Z</time>
      </trkpt>
      <trkpt lat="-11.4863740" lon="-76.5967330">
        <ele>3592.9</ele>
        <time>2022-09-11T15:12:14Z</time>
      </trkpt>
      <trkpt lat="-11.4865640" lon="-76.5967000">
        <ele>3593.9</ele>
        <time>2022-09-11T15:12:22Z</time>
      </trkpt>
      <trkpt lat="-11.4867410" lon="-76.5966410">
        <ele>3594.7</ele>
        <time>2022-09-11T15:12:30Z</time>
      </trkpt>
      <trkpt lat="-11.4869280" lon="-76.5965560">
        <ele>3595.8</ele>
        <time>2022-09-11T15:12:38Z</time>
      </trkpt>
      <trkpt lat="-11.4871130" lon="-76.5965100">
        <ele>3597.1</ele>
        <time>2022-09-11T15:12:46Z</time>
      </trkpt>
      <trkpt lat="-11.4872960" lon="-76.5964580">
        <ele>3598.5</ele>
        <time>2022-09-11T15:12:54Z</time>
      </trkpt>
      <trkpt lat="-11.4874710" lon="-76.5963740">
        <ele>3599.5</ele>
        <time>2022-09-11T15:13:04Z</time>
      </trkpt>
      <trkpt lat="-11.4876240" lon="-76.5962560">
        <ele>3600.8</ele>
        <time>2022-09-11T15:13:13Z</time>
      </trkpt>
      <trkpt lat="-11.4877870" lon="-76.5961470">
        <ele>3602.1</ele>
        <time>2022-09-11T15:13:22Z</time>
      </trkpt>
      <trkpt lat="-11.4878560" lon="-76.5960480">
        <ele>3602.6</ele>
        <time>2022-09-11T15:13:28Z</time>
      </trkpt>
      <trkpt lat="-11.4879620" lon="-76.5960690">
        <ele>3603.0</ele>
        <time>2022-09-11T15:13:35Z</time>
      </trkpt>
      <trkpt lat="-11.4881000" lon="-76.5961810">
        <ele>3603.5</ele>
        <time>2022-09-11T15:13:44Z</time>
      </trkpt>
      <trkpt lat="-11.4882780" lon="-76.5962270">
        <ele>3604.0</ele>
        <time>2022-09-11T15:13:52Z</time>
      </trkpt>
      <trkpt lat="-11.4884670" lon="-76.5962850">
        <ele>3604.6</ele>
        <time>2022-09-11T15:14:00Z</time>
      </trkpt>
      <trkpt lat="-11.4886590" lon="-76.5963330">
        <ele>3605.5</ele>
        <time>2022-09-11T15:14:08Z</time>
      </trkpt>
      <trkpt lat="-11.4888670" lon="-76.5963630">
        <ele>3606.7</ele>
        <time>2022-09-11T15:14:16Z</time>
      </trkpt>
      <trkpt lat="-11.4890640" lon="-76.5963470">
        <ele>3607.7</ele>
        <time>2022-09-11T15:14:24Z</time>
      </trkpt>
      <trkpt lat="-11.4892530" lon="-76.5962820">
        <ele>3608.7</ele>
        <time>2022-09-11T15:14:33Z</time>
      </trkpt>
      <trkpt lat="-11.4894330" lon="-76.5962460">
        <ele>3609.8</ele>
        <time>2022-09-11T15:14:42Z</time>
      </trkpt>
      <trkpt lat="-11.4896210" lon="-76.5961930">
        <ele>3611.0</ele>
        <time>2022-09-11T15:14:51Z</time>
      </trkpt>
      <trkpt lat="-11.4897930" lon="-76.5961040">
        <ele>3612.1</ele>
        <time>2022-09-11T15:15:00Z</time>
      </trkpt>
      <trkpt lat="-11.4899090" lon="-76.5959580">
        <ele>3613.1</ele>
        <time>2022-09-11T15:15:08Z</time>
      </trkpt>
      <trkpt lat="-11.4899410" lon="-76.5959270">
        <ele>3613.4</ele>
        <time>2022-09-11T15:15:10Z</time>
      </trkpt>
      <trkpt lat="-11.4901240" lon="-76.5959720">
        <ele>3615.1</ele>
        <time>2022-09-11T15:15:20Z</time>
      </trkpt>
      <trkpt lat="-11.4902990" lon="-76.5958900">
        <ele>3616.4</ele>
        <time>2022-09-11T15:15:30Z</time>
      </trkpt>
      <trkpt lat="-11.4904630" lon="-76.5958150">
        <ele>3617.7</ele>
        <time>2022-09-11T15:15:39Z</time>
      </trkpt>
      <trkpt lat="-11.4906260" lon="-76.5957210">
        <ele>3619.1</ele>
        <time>2022-09-11T15:15:49Z</time>
      </trkpt>
      <trkpt lat="-11.4908140" lon="-76.5956640">
        <ele>3620.6</ele>
        <time>2022-09-11T15:16:00Z</time>
      </trkpt>
      <trkpt lat="-11.4909920" lon="-76.5956070">
        <ele>3621.7</ele>
        <time>2022-09-11T15:16:10Z</time>
      </trkpt>
      <trkpt lat="-11.4911770" lon="-76.5955470">
        <ele>3622.8</ele>
        <time>2022-09-11T15:16:20Z</time>
      </trkpt>
      <trkpt lat="-11.4913650" lon="-76.5955500">
        <ele>3624.0</ele>
        <time>2022-09-11T15:16:29Z</time>
      </trkpt>
      <trkpt lat="-11.4915040" lon="-76.5954410">
        <ele>3625.5</ele>
        <time>2022-09-11T15:16:39Z</time>
      </trkpt>
      <trkpt lat="-11.4915750" lon="-76.5952550">
        <ele>3627.1</ele>
        <time>2022-09-11T15:16:49Z</time>
      </trkpt>
      <trkpt lat="-11.4916010" lon="-76.5951420">
        <ele>3628.0</ele>
        <time>2022-09-11T15:16:55Z</time>
      </trkpt>
      <trkpt lat="-11.4916770" lon="-76.5951050">
        <ele>3628.6</ele>
        <time>2022-09-11T15:17:00Z</time>
      </trkpt>
      <trkpt lat="-11.4918460" lon="-76.5952110">
        <ele>3629.7</ele>
        <time>2022-09-11T15:17:10Z</time>
      </trkpt>
      <trkpt lat="-11.4920370" lon="-76.5952320">
        <ele>3630.6</ele>
        <time>2022-09-11T15:17:19Z</time>
      </trkpt>
      <trkpt lat="-11.4922200" lon="-76.5952100">
        <ele>3631.5</ele>
        <time>2022-09-11T15:17:27Z</time>
      </trkpt>
      <trkpt lat="-11.4924010" lon="-76.5951400">
        <ele>3632.5</ele>
        <time>2022-09-11T15:17:35Z</time>
      </trkpt>
      <trkpt lat="-11.4925750" lon="-76.5950750">
        <ele>3633.7</ele>
        <time>2022-09-11T15:17:43Z</time>
      </trkpt>
      <trkpt lat="-11.4927590" lon="-76.5950460">
        <ele>3635.1</ele>
        <time>2022-09-11T15:17:53Z</time>
      </trkpt>
      <trkpt lat="-11.4929360" lon="-76.5949910">
        <ele>3636.0</ele>
        <time>2022-09-11T15:18:03Z</time>
      </trkpt>
      <trkpt lat="-11.4931230" lon="-76.5949640">
        <ele>3637.0</ele>
        <time>2022-09-11T15:18:13Z</time>
      </trkpt>
      <trkpt lat="-11.4933070" lon="-76.5949150">
        <ele>3638.7</ele>
        <time>2022-09-11T15:18:24Z</time>
      </trkpt>
      <trkpt lat="-11.4934400" lon="-76.5947870">
        <ele>3640.5</ele>
        <time>2022-09-11T15:18:34Z</time>
      </trkpt>
      <trkpt lat="-11.4935510" lon="-76.5946410">
        <ele>3642.1</ele>
        <time>2022-09-11T15:18:44Z</time>
      </trkpt>
      <trkpt lat="-11.4936590" lon="-76.5946040">
        <ele>3643.0</ele>
        <time>2022-09-11T15:18:51Z</time>
      </trkpt>
      <trkpt lat="-11.4937500" lon="-76.5947120">
        <ele>3644.0</ele>
        <time>2022-09-11T15:18:59Z</time>
      </trkpt>
      <trkpt lat="-11.4937680" lon="-76.5947480">
        <ele>3644.3</ele>
        <time>2022-09-11T15:19:02Z</time>
      </trkpt>
      <trkpt lat="-11.4939210" lon="-76.5948470">
        <ele>3645.6</ele>
        <time>2022-09-11T15:19:13Z</time>
      </trkpt>
      <trkpt lat="-11.4940730" lon="-76.5949620">
        <ele>3646.4</ele>
        <time>2022-09-11T15:19:24Z</time>
      </trkpt>
      <trkpt lat="-11.4942110" lon="-76.5951000">
        <ele>3647.2</ele>
        <time>2022-09-11T15:19:35Z</time>
      </trkpt>
      <trkpt lat="-11.4943650" lon="-76.5952220">
        <ele>3648.3</ele>
        <time>2022-09-11T15:19:46Z</time>
      </trkpt>
      <trkpt lat="-11.4945270" lon="-76.5953380">
        <ele>3649.7</ele>
        <time>2022-09-11T15:19:58Z</time>
      </trkpt>
      <trkpt lat="-11.4946700" lon="-76.5953580">
        <ele>3650.4</ele>
        <time>2022-09-11T15:20:07Z</time>
      </trkpt>
      <trkpt lat="-11.4948360" lon="-76.5952710">
        <ele>3651.2</ele>
        <time>2022-09-11T15:20:17Z</time>
      </trkpt>
      <trkpt lat="-11.4949960" lon="-76.5952030">
        <ele>3651.9</ele>
        <time>2022-09-11T15:20:27Z</time>
      </trkpt>
      <trkpt lat="-11.4950350" lon="-76.5952310">
        <ele>3652.2</ele>
        <time>2022-09-11T15:20:30Z</time>
      </trkpt>
      <trkpt lat="-11.4950540" lon="-76.5953470">
        <ele>3653.1</ele>
        <time>2022-09-11T15:20:37Z</time>
      </trkpt>
      <trkpt lat="-11.4951210" lon="-76.5955300">
        <ele>3654.4</ele>
        <time>2022-09-11T15:20:51Z</time>
      </trkpt>
      <trkpt lat="-11.4951430" lon="-76.5955630">
        <ele>3654.6</ele>
        <time>2022-09-11T15:20:56Z</time>
      </trkpt>
      <trkpt lat="-11.4951650" lon="-76.5955880">
        <ele>3654.7</ele>
        <time>2022-09-11T15:22:48Z</time>
      </trkpt>
      <trkpt lat="-11.4951750" lon="-76.5956020">
        <ele>3654.8</ele>
        <time>2022-09-11T15:22:49Z</time>
      </trkpt>
      <trkpt lat="-11.4952780" lon="-76.5957700">
        <ele>3655.6</ele>
        <time>2022-09-11T15:22:58Z</time>
      </trkpt>
      <trkpt lat="-11.4953240" lon="-76.5958660">
        <ele>3656.0</ele>
        <time>2022-09-11T15:23:03Z</time>
      </trkpt>
      <trkpt lat="-11.4953580" lon="-76.5959420">
        <ele>3656.5</ele>
        <time>2022-09-11T15:23:08Z</time>
      </trkpt>
      <trkpt lat="-11.4953960" lon="-76.5960210">
        <ele>3657.0</ele>
        <time>2022-09-11T15:23:14Z</time>
      </trkpt>
      <trkpt lat="-11.4954510" lon="-76.5961590">
        <ele>3657.6</ele>
        <time>2022-09-11T15:23:23Z</time>
      </trkpt>
      <trkpt lat="-11.4955090" lon="-76.5963380">
        <ele>3658.5</ele>
        <time>2022-09-11T15:23:33Z</time>
      </trkpt>
      <trkpt lat="-11.4955850" lon="-76.5965140">
        <ele>3659.7</ele>
        <time>2022-09-11T15:23:44Z</time>
      </trkpt>
      <trkpt lat="-11.4956780" lon="-76.5966770">
        <ele>3660.4</ele>
        <time>2022-09-11T15:23:55Z</time>
      </trkpt>
      <trkpt lat="-11.4957630" lon="-76.5968400">
        <ele>3661.3</ele>
        <time>2022-09-11T15:24:05Z</time>
      </trkpt>
      <trkpt lat="-11.4958550" lon="-76.5970130">
        <ele>3662.4</ele>
        <time>2022-09-11T15:24:15Z</time>
      </trkpt>
      <trkpt lat="-11.4959360" lon="-76.5971960">
        <ele>3663.6</ele>
        <time>2022-09-11T15:24:25Z</time>
      </trkpt>
      <trkpt lat="-11.4960000" lon="-76.5973860">
        <ele>3664.9</ele>
        <time>2022-09-11T15:24:35Z</time>
      </trkpt>
      <trkpt lat="-11.4960820" lon="-76.5975560">
        <ele>3665.9</ele>
        <time>2022-09-11T15:24:44Z</time>
      </trkpt>
      <trkpt lat="-11.4961810" lon="-76.5977170">
        <ele>3666.9</ele>
        <time>2022-09-11T15:24:54Z</time>
      </trkpt>
      <trkpt lat="-11.4962940" lon="-76.5978780">
        <ele>3668.1</ele>
        <time>2022-09-11T15:25:05Z</time>
      </trkpt>
      <trkpt lat="-11.4964210" lon="-76.5980080">
        <ele>3669.0</ele>
        <time>2022-09-11T15:25:16Z</time>
      </trkpt>
      <trkpt lat="-11.4965370" lon="-76.5980910">
        <ele>3669.6</ele>
        <time>2022-09-11T15:25:28Z</time>
      </trkpt>
      <trkpt lat="-11.4965790" lon="-76.5980770">
        <ele>3669.8</ele>
        <time>2022-09-11T15:47:36Z</time>
      </trkpt>
      <trkpt lat="-11.4965960" lon="-76.5980740">
        <ele>3669.9</ele>
        <time>2022-09-11T15:47:37Z</time>
      </trkpt>
      <trkpt lat="-11.4966520" lon="-76.5980820">
        <ele>3670.3</ele>
        <time>2022-09-11T15:47:40Z</time>
      </trkpt>
      <trkpt lat="-11.4967530" lon="-76.5980930">
        <ele>3670.9</ele>
        <time>2022-09-11T15:47:45Z</time>
      </trkpt>
      <trkpt lat="-11.4968180" lon="-76.5980980">
        <ele>3671.2</ele>
        <time>2022-09-11T15:47:48Z</time>
      </trkpt>
      <trkpt lat="-11.4968920" lon="-76.5981040">
        <ele>3671.7</ele>
        <time>2022-09-11T15:47:51Z</time>
      </trkpt>
      <trkpt lat="-11.4969740" lon="-76.5981070">
        <ele>3672.3</ele>
        <time>2022-09-11T15:47:54Z</time>
      </trkpt>
      <trkpt lat="-11.4970250" lon="-76.5981150">
        <ele>3672.7</ele>
        <time>2022-09-11T15:47:56Z</time>
      </trkpt>
      <trkpt lat="-11.4970720" lon="-76.5981240">
        <ele>3673.1</ele>
        <time>2022-09-11T15:47:58Z</time>
      </trkpt>
      <trkpt lat="-11.4971330" lon="-76.5981380">
        <ele>3673.6</ele>
        <time>2022-09-11T15:48:01Z</time>
      </trkpt>
      <trkpt lat="-11.4971940" lon="-76.5981530">
        <ele>3674.1</ele>
        <time>2022-09-11T15:48:04Z</time>
      </trkpt>
      <trkpt lat="-11.4972550" lon="-76.5981670">
        <ele>3674.7</ele>
        <time>2022-09-11T15:48:07Z</time>
      </trkpt>
      <trkpt lat="-11.4973300" lon="-76.5981870">
        <ele>3675.4</ele>
        <time>2022-09-11T15:48:11Z</time>
      </trkpt>
      <trkpt lat="-11.4974160" lon="-76.5982070">
        <ele>3676.2</ele>
        <time>2022-09-11T15:48:16Z</time>
      </trkpt>
      <trkpt lat="-11.4975760" lon="-76.5982330">
        <ele>3677.6</ele>
        <time>2022-09-11T15:48:25Z</time>
      </trkpt>
      <trkpt lat="-11.4977560" lon="-76.5982600">
        <ele>3678.9</ele>
        <time>2022-09-11T15:48:35Z</time>
      </trkpt>
      <trkpt lat="-11.4979470" lon="-76.5983020">
        <ele>3680.5</ele>
        <time>2022-09-11T15:48:45Z</time>
      </trkpt>
      <trkpt lat="-11.4981200" lon="-76.5983820">
        <ele>3681.9</ele>
        <time>2022-09-11T15:48:55Z</time>
      </trkpt>
      <trkpt lat="-11.4983020" lon="-76.5984540">
        <ele>3683.5</ele>
        <time>2022-09-11T15:49:06Z</time>
      </trkpt>
      <trkpt lat="-11.4984710" lon="-76.5985260">
        <ele>3684.6</ele>
        <time>2022-09-11T15:49:15Z</time>
      </trkpt>
      <trkpt lat="-11.4986520" lon="-76.5986030">
        <ele>3685.8</ele>
        <time>2022-09-11T15:49:25Z</time>
      </trkpt>
      <trkpt lat="-11.4988320" lon="-76.5986240">
        <ele>3687.1</ele>
        <time>2022-09-11T15:49:34Z</time>
      </trkpt>
      <trkpt lat="-11.4990220" lon="-76.5985910">
        <ele>3688.2</ele>
        <time>2022-09-11T15:49:43Z</time>
      </trkpt>
      <trkpt lat="-11.4991820" lon="-76.5984990">
        <ele>3689.4</ele>
        <time>2022-09-11T15:49:52Z</time>
      </trkpt>
      <trkpt lat="-11.4993140" lon="-76.5983620">
        <ele>3690.6</ele>
        <time>2022-09-11T15:50:00Z</time>
      </trkpt>
      <trkpt lat="-11.4994850" lon="-76.5982750">
        <ele>3692.2</ele>
        <time>2022-09-11T15:50:09Z</time>
      </trkpt>
      <trkpt lat="-11.4995960" lon="-76.5981110">
        <ele>3694.0</ele>
        <time>2022-09-11T15:50:18Z</time>
      </trkpt>
      <trkpt lat="-11.4996350" lon="-76.5979200">
        <ele>3695.3</ele>
        <time>2022-09-11T15:50:26Z</time>
      </trkpt>
      <trkpt lat="-11.4997080" lon="-76.5977310">
        <ele>3696.6</ele>
        <time>2022-09-11T15:50:35Z</time>
      </trkpt>
      <trkpt lat="-11.4998380" lon="-76.5975840">
        <ele>3697.9</ele>
        <time>2022-09-11T15:50:44Z</time>
      </trkpt>
      <trkpt lat="-11.4999860" lon="-76.5974520">
        <ele>3699.2</ele>
        <time>2022-09-11T15:50:53Z</time>
      </trkpt>
      <trkpt lat="-11.5000700" lon="-76.5972900">
        <ele>3700.4</ele>
        <time>2022-09-11T15:51:01Z</time>
      </trkpt>
      <trkpt lat="-11.5000790" lon="-76.5970990">
        <ele>3701.6</ele>
        <time>2022-09-11T15:51:09Z</time>
      </trkpt>
      <trkpt lat="-11.5000640" lon="-76.5968990">
        <ele>3702.9</ele>
        <time>2022-09-11T15:51:17Z</time>
      </trkpt>
      <trkpt lat="-11.4999450" lon="-76.5967550">
        <ele>3704.2</ele>
        <time>2022-09-11T15:51:24Z</time>
      </trkpt>
      <trkpt lat="-11.4997630" lon="-76.5967100">
        <ele>3705.4</ele>
        <time>2022-09-11T15:51:31Z</time>
      </trkpt>
      <trkpt lat="-11.4995800" lon="-76.5966880">
        <ele>3706.6</ele>
        <time>2022-09-11T15:51:38Z</time>
      </trkpt>
      <trkpt lat="-11.4993820" lon="-76.5966380">
        <ele>3708.0</ele>
        <time>2022-09-11T15:51:45Z</time>
      </trkpt>
      <trkpt lat="-11.4992520" lon="-76.5965050">
        <ele>3709.2</ele>
        <time>2022-09-11T15:51:52Z</time>
      </trkpt>
      <trkpt lat="-11.4992860" lon="-76.5963270">
        <ele>3710.4</ele>
        <time>2022-09-11T15:52:00Z</time>
      </trkpt>
      <trkpt lat="-11.4993740" lon="-76.5961510">
        <ele>3711.7</ele>
        <time>2022-09-11T15:52:09Z</time>
      </trkpt>
      <trkpt lat="-11.4994510" lon="-76.5959780">
        <ele>3712.9</ele>
        <time>2022-09-11T15:52:19Z</time>
      </trkpt>
      <trkpt lat="-11.4995190" lon="-76.5957890">
        <ele>3714.2</ele>
        <time>2022-09-11T15:52:30Z</time>
      </trkpt>
      <trkpt lat="-11.4996020" lon="-76.5956260">
        <ele>3715.4</ele>
        <time>2022-09-11T15:52:40Z</time>
      </trkpt>
      <trkpt lat="-11.4997190" lon="-76.5954650">
        <ele>3716.7</ele>
        <time>2022-09-11T15:52:50Z</time>
      </trkpt>
      <trkpt lat="-11.4998390" lon="-76.5953160">
        <ele>3718.0</ele>
        <time>2022-09-11T15:52:59Z</time>
      </trkpt>
      <trkpt lat="-11.4999970" lon="-76.5951970">
        <ele>3719.3</ele>
        <time>2022-09-11T15:53:09Z</time>
      </trkpt>
      <trkpt lat="-11.5001610" lon="-76.5950930">
        <ele>3720.6</ele>
        <time>2022-09-11T15:53:18Z</time>
      </trkpt>
      <trkpt lat="-11.5003220" lon="-76.5950020">
        <ele>3721.8</ele>
        <time>2022-09-11T15:53:27Z</time>
      </trkpt>
      <trkpt lat="-11.5004830" lon="-76.5948840">
        <ele>3723.1</ele>
        <time>2022-09-11T15:53:37Z</time>
      </trkpt>
      <trkpt lat="-11.5006610" lon="-76.5948090">
        <ele>3724.4</ele>
        <time>2022-09-11T15:53:45Z</time>
      </trkpt>
      <trkpt lat="-11.5008450" lon="-76.5948170">
        <ele>3725.6</ele>
        <time>2022-09-11T15:53:54Z</time>
      </trkpt>
      <trkpt lat="-11.5010300" lon="-76.5947970">
        <ele>3726.9</ele>
        <time>2022-09-11T15:54:04Z</time>
      </trkpt>
      <trkpt lat="-11.5012140" lon="-76.5948080">
        <ele>3728.1</ele>
        <time>2022-09-11T15:54:14Z</time>
      </trkpt>
      <trkpt lat="-11.5013930" lon="-76.5948360">
        <ele>3729.3</ele>
        <time>2022-09-11T15:54:24Z</time>
      </trkpt>
      <trkpt lat="-11.5015710" lon="-76.5949080">
        <ele>3730.6</ele>
        <time>2022-09-11T15:54:35Z</time>
      </trkpt>
      <trkpt lat="-11.5017420" lon="-76.5949130">
        <ele>3731.7</ele>
        <time>2022-09-11T15:54:45Z</time>
      </trkpt>
      <trkpt lat="-11.5017320" lon="-76.5947410">
        <ele>3732.8</ele>
        <time>2022-09-11T15:54:58Z</time>
      </trkpt>
      <trkpt lat="-11.5015950" lon="-76.5946000">
        <ele>3734.1</ele>
        <time>2022-09-11T15:55:11Z</time>
      </trkpt>
      <trkpt lat="-11.5014460" lon="-76.5944890">
        <ele>3735.3</ele>
        <time>2022-09-11T15:55:22Z</time>
      </trkpt>
      <trkpt lat="-11.5012820" lon="-76.5943770">
        <ele>3736.7</ele>
        <time>2022-09-11T15:55:33Z</time>
      </trkpt>
      <trkpt lat="-11.5011340" lon="-76.5942700">
        <ele>3737.9</ele>
        <time>2022-09-11T15:55:43Z</time>
      </trkpt>
      <trkpt lat="-11.5009790" lon="-76.5941450">
        <ele>3739.2</ele>
        <time>2022-09-11T15:55:53Z</time>
      </trkpt>
      <trkpt lat="-11.5008320" lon="-76.5940210">
        <ele>3740.4</ele>
        <time>2022-09-11T15:56:02Z</time>
      </trkpt>
      <trkpt lat="-11.5006800" lon="-76.5938810">
        <ele>3741.8</ele>
        <time>2022-09-11T15:56:11Z</time>
      </trkpt>
      <trkpt lat="-11.5004990" lon="-76.5937980">
        <ele>3743.1</ele>
        <time>2022-09-11T15:56:20Z</time>
      </trkpt>
      <trkpt lat="-11.5003220" lon="-76.5937410">
        <ele>3744.4</ele>
        <time>2022-09-11T15:56:29Z</time>
      </trkpt>
      <trkpt lat="-11.5001510" lon="-76.5936610">
        <ele>3745.6</ele>
        <time>2022-09-11T15:56:38Z</time>
      </trkpt>
      <trkpt lat="-11.4999950" lon="-76.5935690">
        <ele>3746.8</ele>
        <time>2022-09-11T15:56:47Z</time>
      </trkpt>
      <trkpt lat="-11.4998410" lon="-76.5934470">
        <ele>3748.1</ele>
        <time>2022-09-11T15:56:57Z</time>
      </trkpt>
      <trkpt lat="-11.4996890" lon="-76.5933230">
        <ele>3749.4</ele>
        <time>2022-09-11T15:57:06Z</time>
      </trkpt>
      <trkpt lat="-11.4995660" lon="-76.5931870">
        <ele>3750.6</ele>
        <time>2022-09-11T15:57:15Z</time>
      </trkpt>
      <trkpt lat="-11.4994550" lon="-76.5930180">
        <ele>3751.9</ele>
        <time>2022-09-11T15:57:26Z</time>
      </trkpt>
      <trkpt lat="-11.4993440" lon="-76.5928670">
        <ele>3752.8</ele>
        <time>2022-09-11T15:57:36Z</time>
      </trkpt>
      <trkpt lat="-11.4992010" lon="-76.5927370">
        <ele>3753.8</ele>
        <time>2022-09-11T15:57:46Z</time>
      </trkpt>
      <trkpt lat="-11.4990990" lon="-76.5925700">
        <ele>3754.8</ele>
        <time>2022-09-11T15:57:57Z</time>
      </trkpt>
      <trkpt lat="-11.4990370" lon="-76.5923920">
        <ele>3755.8</ele>
        <time>2022-09-11T15:58:07Z</time>
      </trkpt>
      <trkpt lat="-11.4989380" lon="-76.5922420">
        <ele>3756.7</ele>
        <time>2022-09-11T15:58:16Z</time>
      </trkpt>
      <trkpt lat="-11.4988040" lon="-76.5921130">
        <ele>3757.7</ele>
        <time>2022-09-11T15:58:25Z</time>
      </trkpt>
      <trkpt lat="-11.4987710" lon="-76.5919490">
        <ele>3758.6</ele>
        <time>2022-09-11T15:58:36Z</time>
      </trkpt>
      <trkpt lat="-11.4988280" lon="-76.5919200">
        <ele>3758.9</ele>
        <time>2022-09-11T15:58:40Z</time>
      </trkpt>
      <trkpt lat="-11.4988950" lon="-76.5919290">
        <ele>3759.2</ele>
        <time>2022-09-11T15:58:44Z</time>
      </trkpt>
      <trkpt lat="-11.4990710" lon="-76.5919840">
        <ele>3760.2</ele>
        <time>2022-09-11T15:58:55Z</time>
      </trkpt>
      <trkpt lat="-11.4992370" lon="-76.5920940">
        <ele>3761.3</ele>
        <time>2022-09-11T15:59:06Z</time>
      </trkpt>
      <trkpt lat="-11.4993550" lon="-76.5922380">
        <ele>3762.2</ele>
        <time>2022-09-11T15:59:16Z</time>
      </trkpt>
      <trkpt lat="-11.4994980" lon="-76.5923750">
        <ele>3763.3</ele>
        <time>2022-09-11T15:59:26Z</time>
      </trkpt>
      <trkpt lat="-11.4996670" lon="-76.5924480">
        <ele>3764.2</ele>
        <time>2022-09-11T15:59:36Z</time>
      </trkpt>
      <trkpt lat="-11.4998380" lon="-76.5925500">
        <ele>3765.3</ele>
        <time>2022-09-11T15:59:46Z</time>
      </trkpt>
      <trkpt lat="-11.5000190" lon="-76.5926160">
        <ele>3766.3</ele>
        <time>2022-09-11T15:59:56Z</time>
      </trkpt>
      <trkpt lat="-11.5001990" lon="-76.5926280">
        <ele>3767.2</ele>
        <time>2022-09-11T16:00:05Z</time>
      </trkpt>
      <trkpt lat="-11.5003890" lon="-76.5926090">
        <ele>3768.2</ele>
        <time>2022-09-11T16:00:16Z</time>
      </trkpt>
      <trkpt lat="-11.5005740" lon="-76.5926450">
        <ele>3769.2</ele>
        <time>2022-09-11T16:00:26Z</time>
      </trkpt>
      <trkpt lat="-11.5007570" lon="-76.5926710">
        <ele>3770.2</ele>
        <time>2022-09-11T16:00:35Z</time>
      </trkpt>
      <trkpt lat="-11.5009490" lon="-76.5927110">
        <ele>3771.2</ele>
        <time>2022-09-11T16:00:45Z</time>
      </trkpt>
      <trkpt lat="-11.5011190" lon="-76.5927770">
        <ele>3772.2</ele>
        <time>2022-09-11T16:00:55Z</time>
      </trkpt>
      <trkpt lat="-11.5012800" lon="-76.5928740">
        <ele>3773.2</ele>
        <time>2022-09-11T16:01:05Z</time>
      </trkpt>
      <trkpt lat="-11.5014400" lon="-76.5929850">
        <ele>3774.2</ele>
        <time>2022-09-11T16:01:15Z</time>
      </trkpt>
      <trkpt lat="-11.5016010" lon="-76.5930960">
        <ele>3774.0</ele>
        <time>2022-09-11T16:01:24Z</time>
      </trkpt>
      <trkpt lat="-11.5017670" lon="-76.5931030">
        <ele>3778.8</ele>
        <time>2022-09-11T16:01:34Z</time>
      </trkpt>
      <trkpt lat="-11.5017740" lon="-76.5930910">
        <ele>3778.8</ele>
        <time>2022-09-11T16:01:35Z</time>
      </trkpt>
      <trkpt lat="-11.5017650" lon="-76.5930270">
        <ele>3779.2</ele>
        <time>2022-09-11T16:01:40Z</time>
      </trkpt>
      <trkpt lat="-11.5016100" lon="-76.5929110">
        <ele>3780.2</ele>
        <time>2022-09-11T16:01:53Z</time>
      </trkpt>
      <trkpt lat="-11.5014490" lon="-76.5928160">
        <ele>3781.2</ele>
        <time>2022-09-11T16:02:05Z</time>
      </trkpt>
      <trkpt lat="-11.5013150" lon="-76.5926770">
        <ele>3782.2</ele>
        <time>2022-09-11T16:02:17Z</time>
      </trkpt>
      <trkpt lat="-11.5011930" lon="-76.5925300">
        <ele>3783.2</ele>
        <time>2022-09-11T16:02:27Z</time>
      </trkpt>
      <trkpt lat="-11.5010650" lon="-76.5923830">
        <ele>3784.2</ele>
        <time>2022-09-11T16:02:36Z</time>
      </trkpt>
      <trkpt lat="-11.5009040" lon="-76.5922720">
        <ele>3785.2</ele>
        <time>2022-09-11T16:02:46Z</time>
      </trkpt>
      <trkpt lat="-11.5007450" lon="-76.5921560">
        <ele>3786.2</ele>
        <time>2022-09-11T16:02:57Z</time>
      </trkpt>
      <trkpt lat="-11.5007040" lon="-76.5919660">
        <ele>3787.2</ele>
        <time>2022-09-11T16:03:07Z</time>
      </trkpt>
      <trkpt lat="-11.5005300" lon="-76.5919020">
        <ele>3788.2</ele>
        <time>2022-09-11T16:03:17Z</time>
      </trkpt>
      <trkpt lat="-11.5005130" lon="-76.5918990">
        <ele>3788.3</ele>
        <time>2022-09-11T16:03:18Z</time>
      </trkpt>
      <trkpt lat="-11.5003560" lon="-76.5917970">
        <ele>3789.3</ele>
        <time>2022-09-11T16:03:29Z</time>
      </trkpt>
      <trkpt lat="-11.5003470" lon="-76.5917840">
        <ele>3789.3</ele>
        <time>2022-09-11T16:03:30Z</time>
      </trkpt>
      <trkpt lat="-11.5002260" lon="-76.5916350">
        <ele>3790.3</ele>
        <time>2022-09-11T16:03:41Z</time>
      </trkpt>
      <trkpt lat="-11.5002890" lon="-76.5914880">
        <ele>3791.2</ele>
        <time>2022-09-11T16:03:53Z</time>
      </trkpt>
      <trkpt lat="-11.5004580" lon="-76.5915560">
        <ele>3792.1</ele>
        <time>2022-09-11T16:04:08Z</time>
      </trkpt>
      <trkpt lat="-11.5006390" lon="-76.5916060">
        <ele>3793.1</ele>
        <time>2022-09-11T16:04:23Z</time>
      </trkpt>
      <trkpt lat="-11.5008010" lon="-76.5917060">
        <ele>3794.1</ele>
        <time>2022-09-11T16:04:36Z</time>
      </trkpt>
      <trkpt lat="-11.5008930" lon="-76.5918670">
        <ele>3795.1</ele>
        <time>2022-09-11T16:04:47Z</time>
      </trkpt>
      <trkpt lat="-11.5010430" lon="-76.5919570">
        <ele>3796.0</ele>
        <time>2022-09-11T16:04:57Z</time>
      </trkpt>
      <trkpt lat="-11.5012240" lon="-76.5920150">
        <ele>3797.0</ele>
        <time>2022-09-11T16:05:07Z</time>
      </trkpt>
      <trkpt lat="-11.5013830" lon="-76.5921270">
        <ele>3798.0</ele>
        <time>2022-09-11T16:05:17Z</time>
      </trkpt>
      <trkpt lat="-11.5015160" lon="-76.5922760">
        <ele>3799.0</ele>
        <time>2022-09-11T16:05:26Z</time>
      </trkpt>
      <trkpt lat="-11.5016260" lon="-76.5924340">
        <ele>3800.0</ele>
        <time>2022-09-11T16:05:34Z</time>
      </trkpt>
      <trkpt lat="-11.5018050" lon="-76.5925110">
        <ele>3801.1</ele>
        <time>2022-09-11T16:05:44Z</time>
      </trkpt>
      <trkpt lat="-11.5020000" lon="-76.5925100">
        <ele>3802.6</ele>
        <time>2022-09-11T16:05:53Z</time>
      </trkpt>
      <trkpt lat="-11.5021940" lon="-76.5925080">
        <ele>3803.9</ele>
        <time>2022-09-11T16:06:03Z</time>
      </trkpt>
      <trkpt lat="-11.5023790" lon="-76.5925550">
        <ele>3805.2</ele>
        <time>2022-09-11T16:06:13Z</time>
      </trkpt>
      <trkpt lat="-11.5023850" lon="-76.5925870">
        <ele>3805.4</ele>
        <time>2022-09-11T16:06:14Z</time>
      </trkpt>
      <trkpt lat="-11.5023340" lon="-76.5926920">
        <ele>3806.2</ele>
        <time>2022-09-11T16:06:19Z</time>
      </trkpt>
      <trkpt lat="-11.5022730" lon="-76.5928710">
        <ele>3807.5</ele>
        <time>2022-09-11T16:06:27Z</time>
      </trkpt>
      <trkpt lat="-11.5023030" lon="-76.5930570">
        <ele>3808.8</ele>
        <time>2022-09-11T16:06:34Z</time>
      </trkpt>
      <trkpt lat="-11.5023590" lon="-76.5932470">
        <ele>3810.1</ele>
        <time>2022-09-11T16:06:42Z</time>
      </trkpt>
      <trkpt lat="-11.5024430" lon="-76.5934160">
        <ele>3811.4</ele>
        <time>2022-09-11T16:06:50Z</time>
      </trkpt>
      <trkpt lat="-11.5025640" lon="-76.5935520">
        <ele>3812.6</ele>
        <time>2022-09-11T16:06:58Z</time>
      </trkpt>
      <trkpt lat="-11.5027270" lon="-76.5936550">
        <ele>3813.9</ele>
        <time>2022-09-11T16:07:06Z</time>
      </trkpt>
      <trkpt lat="-11.5028220" lon="-76.5938260">
        <ele>3815.2</ele>
        <time>2022-09-11T16:07:14Z</time>
      </trkpt>
      <trkpt lat="-11.5028970" lon="-76.5940030">
        <ele>3816.5</ele>
        <time>2022-09-11T16:07:21Z</time>
      </trkpt>
      <trkpt lat="-11.5030470" lon="-76.5941400">
        <ele>3817.9</ele>
        <time>2022-09-11T16:07:29Z</time>
      </trkpt>
      <trkpt lat="-11.5031870" lon="-76.5942940">
        <ele>3819.3</ele>
        <time>2022-09-11T16:07:37Z</time>
      </trkpt>
      <trkpt lat="-11.5033330" lon="-76.5944020">
        <ele>3820.6</ele>
        <time>2022-09-11T16:07:44Z</time>
      </trkpt>
      <trkpt lat="-11.5035020" lon="-76.5944950">
        <ele>3821.9</ele>
        <time>2022-09-11T16:07:52Z</time>
      </trkpt>
      <trkpt lat="-11.5036800" lon="-76.5945290">
        <ele>3823.1</ele>
        <time>2022-09-11T16:08:00Z</time>
      </trkpt>
      <trkpt lat="-11.5038790" lon="-76.5944980">
        <ele>3824.5</ele>
        <time>2022-09-11T16:08:07Z</time>
      </trkpt>
      <trkpt lat="-11.5040440" lon="-76.5946010">
        <ele>3825.8</ele>
        <time>2022-09-11T16:08:14Z</time>
      </trkpt>
      <trkpt lat="-11.5042180" lon="-76.5946680">
        <ele>3827.1</ele>
        <time>2022-09-11T16:08:21Z</time>
      </trkpt>
      <trkpt lat="-11.5044170" lon="-76.5946240">
        <ele>3828.5</ele>
        <time>2022-09-11T16:08:28Z</time>
      </trkpt>
      <trkpt lat="-11.5045850" lon="-76.5945550">
        <ele>3829.8</ele>
        <time>2022-09-11T16:08:36Z</time>
      </trkpt>
      <trkpt lat="-11.5047780" lon="-76.5945990">
        <ele>3831.1</ele>
        <time>2022-09-11T16:08:46Z</time>
      </trkpt>
      <trkpt lat="-11.5049510" lon="-76.5946890">
        <ele>3832.4</ele>
        <time>2022-09-11T16:08:55Z</time>
      </trkpt>
      <trkpt lat="-11.5050680" lon="-76.5948480">
        <ele>3833.8</ele>
        <time>2022-09-11T16:09:04Z</time>
      </trkpt>
      <trkpt lat="-11.5051940" lon="-76.5949820">
        <ele>3835.0</ele>
        <time>2022-09-11T16:09:14Z</time>
      </trkpt>
      <trkpt lat="-11.5053040" lon="-76.5951410">
        <ele>3836.3</ele>
        <time>2022-09-11T16:09:24Z</time>
      </trkpt>
      <trkpt lat="-11.5054130" lon="-76.5952910">
        <ele>3837.6</ele>
        <time>2022-09-11T16:09:35Z</time>
      </trkpt>
      <trkpt lat="-11.5054800" lon="-76.5954750">
        <ele>3838.9</ele>
        <time>2022-09-11T16:09:47Z</time>
      </trkpt>
      <trkpt lat="-11.5055110" lon="-76.5956740">
        <ele>3840.3</ele>
        <time>2022-09-11T16:09:57Z</time>
      </trkpt>
      <trkpt lat="-11.5055220" lon="-76.5958120">
        <ele>3841.2</ele>
        <time>2022-09-11T16:10:04Z</time>
      </trkpt>
      <trkpt lat="-11.5055570" lon="-76.5958480">
        <ele>3841.5</ele>
        <time>2022-09-11T16:10:08Z</time>
      </trkpt>
      <trkpt lat="-11.5055840" lon="-76.5958680">
        <ele>3841.8</ele>
        <time>2022-09-11T16:10:13Z</time>
      </trkpt>
      <trkpt lat="-11.5055400" lon="-76.5958060">
        <ele>3842.3</ele>
        <time>2022-09-11T16:12:25Z</time>
      </trkpt>
      <trkpt lat="-11.5055370" lon="-76.5957840">
        <ele>3842.4</ele>
        <time>2022-09-11T16:12:26Z</time>
      </trkpt>
      <trkpt lat="-11.5055350" lon="-76.5957370">
        <ele>3842.7</ele>
        <time>2022-09-11T16:12:29Z</time>
      </trkpt>
      <trkpt lat="-11.5055230" lon="-76.5956420">
        <ele>3843.4</ele>
        <time>2022-09-11T16:12:38Z</time>
      </trkpt>
      <trkpt lat="-11.5055110" lon="-76.5956980">
        <ele>3843.8</ele>
        <time>2022-09-11T16:12:48Z</time>
      </trkpt>
      <trkpt lat="-11.5055200" lon="-76.5957610">
        <ele>3844.2</ele>
        <time>2022-09-11T16:12:53Z</time>
      </trkpt>
      <trkpt lat="-11.5055400" lon="-76.5958430">
        <ele>3844.8</ele>
        <time>2022-09-11T16:12:57Z</time>
      </trkpt>
      <trkpt lat="-11.5055620" lon="-76.5958600">
        <ele>3845.0</ele>
        <time>2022-09-11T16:13:01Z</time>
      </trkpt>
      <trkpt lat="-11.5056080" lon="-76.5958610">
        <ele>3845.3</ele>
        <time>2022-09-11T16:38:24Z</time>
      </trkpt>
      <trkpt lat="-11.5056230" lon="-76.5958630">
        <ele>3845.4</ele>
        <time>2022-09-11T16:38:25Z</time>
      </trkpt>
      <trkpt lat="-11.5056710" lon="-76.5958710">
        <ele>3845.7</ele>
        <time>2022-09-11T16:38:28Z</time>
      </trkpt>
      <trkpt lat="-11.5057360" lon="-76.5958810">
        <ele>3846.2</ele>
        <time>2022-09-11T16:38:32Z</time>
      </trkpt>
      <trkpt lat="-11.5058040" lon="-76.5959080">
        <ele>3846.7</ele>
        <time>2022-09-11T16:38:36Z</time>
      </trkpt>
      <trkpt lat="-11.5058520" lon="-76.5959340">
        <ele>3847.0</ele>
        <time>2022-09-11T16:38:40Z</time>
      </trkpt>
      <trkpt lat="-11.5059410" lon="-76.5959990">
        <ele>3847.8</ele>
        <time>2022-09-11T16:38:49Z</time>
      </trkpt>
      <trkpt lat="-11.5059830" lon="-76.5960250">
        <ele>3848.1</ele>
        <time>2022-09-11T16:38:53Z</time>
      </trkpt>
      <trkpt lat="-11.5060360" lon="-76.5960550">
        <ele>3848.5</ele>
        <time>2022-09-11T16:38:58Z</time>
      </trkpt>
      <trkpt lat="-11.5060770" lon="-76.5960750">
        <ele>3848.9</ele>
        <time>2022-09-11T16:39:02Z</time>
      </trkpt>
      <trkpt lat="-11.5061490" lon="-76.5961150">
        <ele>3849.4</ele>
        <time>2022-09-11T16:39:09Z</time>
      </trkpt>
      <trkpt lat="-11.5062530" lon="-76.5961640">
        <ele>3850.2</ele>
        <time>2022-09-11T16:39:18Z</time>
      </trkpt>
      <trkpt lat="-11.5064210" lon="-76.5962390">
        <ele>3851.5</ele>
        <time>2022-09-11T16:39:32Z</time>
      </trkpt>
      <trkpt lat="-11.5065900" lon="-76.5963100">
        <ele>3852.7</ele>
        <time>2022-09-11T16:39:45Z</time>
      </trkpt>
      <trkpt lat="-11.5067720" lon="-76.5963800">
        <ele>3854.1</ele>
        <time>2022-09-11T16:39:57Z</time>
      </trkpt>
      <trkpt lat="-11.5069590" lon="-76.5964210">
        <ele>3855.4</ele>
        <time>2022-09-11T16:40:09Z</time>
      </trkpt>
      <trkpt lat="-11.5071430" lon="-76.5964590">
        <ele>3856.7</ele>
        <time>2022-09-11T16:40:22Z</time>
      </trkpt>
      <trkpt lat="-11.5073270" lon="-76.5965150">
        <ele>3858.0</ele>
        <time>2022-09-11T16:40:36Z</time>
      </trkpt>
      <trkpt lat="-11.5074850" lon="-76.5966180">
        <ele>3859.3</ele>
        <time>2022-09-11T16:40:47Z</time>
      </trkpt>
      <trkpt lat="-11.5076230" lon="-76.5967360">
        <ele>3860.5</ele>
        <time>2022-09-11T16:40:57Z</time>
      </trkpt>
      <trkpt lat="-11.5077400" lon="-76.5968930">
        <ele>3861.8</ele>
        <time>2022-09-11T16:41:07Z</time>
      </trkpt>
      <trkpt lat="-11.5077710" lon="-76.5970270">
        <ele>3862.7</ele>
        <time>2022-09-11T16:41:15Z</time>
      </trkpt>
      <trkpt lat="-11.5078440" lon="-76.5972100">
        <ele>3864.1</ele>
        <time>2022-09-11T16:41:26Z</time>
      </trkpt>
      <trkpt lat="-11.5079200" lon="-76.5973840">
        <ele>3865.4</ele>
        <time>2022-09-11T16:41:35Z</time>
      </trkpt>
      <trkpt lat="-11.5079810" lon="-76.5975350">
        <ele>3866.5</ele>
        <time>2022-09-11T16:41:42Z</time>
      </trkpt>
      <trkpt lat="-11.5081280" lon="-76.5976400">
        <ele>3867.9</ele>
        <time>2022-09-11T16:41:52Z</time>
      </trkpt>
      <trkpt lat="-11.5081410" lon="-76.5976390">
        <ele>3868.0</ele>
        <time>2022-09-11T16:41:53Z</time>
      </trkpt>
      <trkpt lat="-11.5081800" lon="-76.5975860">
        <ele>3868.5</ele>
        <time>2022-09-11T16:41:57Z</time>
      </trkpt>
      <trkpt lat="-11.5082450" lon="-76.5973950">
        <ele>3869.2</ele>
        <time>2022-09-11T16:42:07Z</time>
      </trkpt>
      <trkpt lat="-11.5083760" lon="-76.5972660">
        <ele>3869.8</ele>
        <time>2022-09-11T16:42:15Z</time>
      </trkpt>
      <trkpt lat="-11.5085560" lon="-76.5972290">
        <ele>3870.7</ele>
        <time>2022-09-11T16:42:25Z</time>
      </trkpt>
      <trkpt lat="-11.5087300" lon="-76.5971470">
        <ele>3871.5</ele>
        <time>2022-09-11T16:42:37Z</time>
      </trkpt>
      <trkpt lat="-11.5088830" lon="-76.5970190">
        <ele>3871.8</ele>
        <time>2022-09-11T16:42:46Z</time>
      </trkpt>
      <trkpt lat="-11.5090520" lon="-76.5968980">
        <ele>3872.0</ele>
        <time>2022-09-11T16:42:53Z</time>
      </trkpt>
      <trkpt lat="-11.5091100" lon="-76.5968900">
        <ele>3872.2</ele>
        <time>2022-09-11T16:42:55Z</time>
      </trkpt>
      <trkpt lat="-11.5092820" lon="-76.5968910">
        <ele>3872.8</ele>
        <time>2022-09-11T16:43:05Z</time>
      </trkpt>
      <trkpt lat="-11.5093610" lon="-76.5966920">
        <ele>3873.1</ele>
        <time>2022-09-11T16:43:12Z</time>
      </trkpt>
      <trkpt lat="-11.5094170" lon="-76.5966530">
        <ele>3873.2</ele>
        <time>2022-09-11T16:43:14Z</time>
      </trkpt>
      <trkpt lat="-11.5095420" lon="-76.5967390">
        <ele>3873.5</ele>
        <time>2022-09-11T16:43:19Z</time>
      </trkpt>
      <trkpt lat="-11.5096750" lon="-76.5968660">
        <ele>3874.1</ele>
        <time>2022-09-11T16:43:25Z</time>
      </trkpt>
      <trkpt lat="-11.5097380" lon="-76.5968770">
        <ele>3874.4</ele>
        <time>2022-09-11T16:43:27Z</time>
      </trkpt>
      <trkpt lat="-11.5098300" lon="-76.5967820">
        <ele>3874.8</ele>
        <time>2022-09-11T16:43:32Z</time>
      </trkpt>
      <trkpt lat="-11.5098430" lon="-76.5967540">
        <ele>3874.8</ele>
        <time>2022-09-11T16:43:33Z</time>
      </trkpt>
      <trkpt lat="-11.5099160" lon="-76.5966850">
        <ele>3874.9</ele>
        <time>2022-09-11T16:43:36Z</time>
      </trkpt>
      <trkpt lat="-11.5100560" lon="-76.5967870">
        <ele>3875.1</ele>
        <time>2022-09-11T16:43:42Z</time>
      </trkpt>
      <trkpt lat="-11.5100680" lon="-76.5968130">
        <ele>3875.1</ele>
        <time>2022-09-11T16:43:43Z</time>
      </trkpt>
      <trkpt lat="-11.5101570" lon="-76.5969840">
        <ele>3875.6</ele>
        <time>2022-09-11T16:43:51Z</time>
      </trkpt>
      <trkpt lat="-11.5102510" lon="-76.5971640">
        <ele>3876.5</ele>
        <time>2022-09-11T16:44:00Z</time>
      </trkpt>
      <trkpt lat="-11.5103410" lon="-76.5973040">
        <ele>3877.1</ele>
        <time>2022-09-11T16:44:07Z</time>
      </trkpt>
      <trkpt lat="-11.5102760" lon="-76.5974390">
        <ele>3877.4</ele>
        <time>2022-09-11T16:44:13Z</time>
      </trkpt>
      <trkpt lat="-11.5102620" lon="-76.5976190">
        <ele>3877.9</ele>
        <time>2022-09-11T16:44:21Z</time>
      </trkpt>
      <trkpt lat="-11.5104100" lon="-76.5977490">
        <ele>3878.5</ele>
        <time>2022-09-11T16:44:28Z</time>
      </trkpt>
      <trkpt lat="-11.5105230" lon="-76.5979100">
        <ele>3878.8</ele>
        <time>2022-09-11T16:44:34Z</time>
      </trkpt>
      <trkpt lat="-11.5106220" lon="-76.5980910">
        <ele>3880.0</ele>
        <time>2022-09-11T16:44:41Z</time>
      </trkpt>
      <trkpt lat="-11.5107610" lon="-76.5982300">
        <ele>3881.3</ele>
        <time>2022-09-11T16:44:49Z</time>
      </trkpt>
      <trkpt lat="-11.5109440" lon="-76.5982350">
        <ele>3881.9</ele>
        <time>2022-09-11T16:45:02Z</time>
      </trkpt>
      <trkpt lat="-11.5109500" lon="-76.5982320">
        <ele>3881.9</ele>
        <time>2022-09-11T16:45:04Z</time>
      </trkpt>
      <trkpt lat="-11.5109850" lon="-76.5981940">
        <ele>3881.8</ele>
        <time>2022-09-11T16:48:07Z</time>
      </trkpt>
      <trkpt lat="-11.5110000" lon="-76.5981870">
        <ele>3881.8</ele>
        <time>2022-09-11T16:48:08Z</time>
      </trkpt>
      <trkpt lat="-11.5110250" lon="-76.5981710">
        <ele>3881.6</ele>
        <time>2022-09-11T16:48:11Z</time>
      </trkpt>
      <trkpt lat="-11.5111230" lon="-76.5981270">
        <ele>3881.1</ele>
        <time>2022-09-11T16:48:16Z</time>
      </trkpt>
      <trkpt lat="-11.5113030" lon="-76.5980180">
        <ele>3879.8</ele>
        <time>2022-09-11T16:48:22Z</time>
      </trkpt>
      <trkpt lat="-11.5114920" lon="-76.5979120">
        <ele>3878.4</ele>
        <time>2022-09-11T16:48:28Z</time>
      </trkpt>
      <trkpt lat="-11.5116620" lon="-76.5978150">
        <ele>3876.9</ele>
        <time>2022-09-11T16:48:32Z</time>
      </trkpt>
      <trkpt lat="-11.5118440" lon="-76.5976650">
        <ele>3875.8</ele>
        <time>2022-09-11T16:48:36Z</time>
      </trkpt>
      <trkpt lat="-11.5119890" lon="-76.5975340">
        <ele>3875.1</ele>
        <time>2022-09-11T16:48:39Z</time>
      </trkpt>
      <trkpt lat="-11.5121290" lon="-76.5973830">
        <ele>3873.9</ele>
        <time>2022-09-11T16:48:42Z</time>
      </trkpt>
      <trkpt lat="-11.5122810" lon="-76.5972330">
        <ele>3872.7</ele>
        <time>2022-09-11T16:48:45Z</time>
      </trkpt>
      <trkpt lat="-11.5124610" lon="-76.5971160">
        <ele>3871.5</ele>
        <time>2022-09-11T16:48:48Z</time>
      </trkpt>
      <trkpt lat="-11.5125090" lon="-76.5970830">
        <ele>3871.1</ele>
        <time>2022-09-11T16:48:49Z</time>
      </trkpt>
      <trkpt lat="-11.5126160" lon="-76.5969670">
        <ele>3870.2</ele>
        <time>2022-09-11T16:48:52Z</time>
      </trkpt>
      <trkpt lat="-11.5128110" lon="-76.5968900">
        <ele>3869.0</ele>
        <time>2022-09-11T16:48:56Z</time>
      </trkpt>
      <trkpt lat="-11.5128520" lon="-76.5967760">
        <ele>3868.3</ele>
        <time>2022-09-11T16:48:59Z</time>
      </trkpt>
      <trkpt lat="-11.5126860" lon="-76.5966900">
        <ele>3867.2</ele>
        <time>2022-09-11T16:49:03Z</time>
      </trkpt>
      <trkpt lat="-11.5126330" lon="-76.5966720">
        <ele>3866.9</ele>
        <time>2022-09-11T16:49:04Z</time>
      </trkpt>
      <trkpt lat="-11.5125380" lon="-76.5965330">
        <ele>3865.9</ele>
        <time>2022-09-11T16:49:08Z</time>
      </trkpt>
      <trkpt lat="-11.5127090" lon="-76.5965130">
        <ele>3864.9</ele>
        <time>2022-09-11T16:49:16Z</time>
      </trkpt>
      <trkpt lat="-11.5127700" lon="-76.5965860">
        <ele>3864.3</ele>
        <time>2022-09-11T16:49:18Z</time>
      </trkpt>
      <trkpt lat="-11.5128030" lon="-76.5966200">
        <ele>3864.1</ele>
        <time>2022-09-11T16:49:19Z</time>
      </trkpt>
      <trkpt lat="-11.5129620" lon="-76.5967090">
        <ele>3863.0</ele>
        <time>2022-09-11T16:49:23Z</time>
      </trkpt>
      <trkpt lat="-11.5130160" lon="-76.5968960">
        <ele>3861.9</ele>
        <time>2022-09-11T16:49:28Z</time>
      </trkpt>
      <trkpt lat="-11.5130890" lon="-76.5970360">
        <ele>3861.0</ele>
        <time>2022-09-11T16:49:34Z</time>
      </trkpt>
      <trkpt lat="-11.5131580" lon="-76.5970300">
        <ele>3860.6</ele>
        <time>2022-09-11T16:49:36Z</time>
      </trkpt>
      <trkpt lat="-11.5133850" lon="-76.5969960">
        <ele>3859.2</ele>
        <time>2022-09-11T16:49:41Z</time>
      </trkpt>
      <trkpt lat="-11.5135840" lon="-76.5969670">
        <ele>3858.1</ele>
        <time>2022-09-11T16:49:45Z</time>
      </trkpt>
      <trkpt lat="-11.5136820" lon="-76.5969680">
        <ele>3857.5</ele>
        <time>2022-09-11T16:49:47Z</time>
      </trkpt>
      <trkpt lat="-11.5138630" lon="-76.5970120">
        <ele>3856.4</ele>
        <time>2022-09-11T16:49:51Z</time>
      </trkpt>
      <trkpt lat="-11.5140360" lon="-76.5970870">
        <ele>3855.3</ele>
        <time>2022-09-11T16:49:55Z</time>
      </trkpt>
      <trkpt lat="-11.5142230" lon="-76.5971650">
        <ele>3854.1</ele>
        <time>2022-09-11T16:49:59Z</time>
      </trkpt>
      <trkpt lat="-11.5143850" lon="-76.5972550">
        <ele>3853.0</ele>
        <time>2022-09-11T16:50:04Z</time>
      </trkpt>
      <trkpt lat="-11.5145260" lon="-76.5973800">
        <ele>3852.0</ele>
        <time>2022-09-11T16:50:08Z</time>
      </trkpt>
      <trkpt lat="-11.5146470" lon="-76.5975350">
        <ele>3850.8</ele>
        <time>2022-09-11T16:50:12Z</time>
      </trkpt>
      <trkpt lat="-11.5146760" lon="-76.5975720">
        <ele>3850.5</ele>
        <time>2022-09-11T16:50:13Z</time>
      </trkpt>
      <trkpt lat="-11.5148280" lon="-76.5977200">
        <ele>3849.3</ele>
        <time>2022-09-11T16:50:18Z</time>
      </trkpt>
      <trkpt lat="-11.5149470" lon="-76.5978630">
        <ele>3848.2</ele>
        <time>2022-09-11T16:50:22Z</time>
      </trkpt>
      <trkpt lat="-11.5150860" lon="-76.5980300">
        <ele>3847.0</ele>
        <time>2022-09-11T16:50:26Z</time>
      </trkpt>
      <trkpt lat="-11.5152530" lon="-76.5981910">
        <ele>3845.6</ele>
        <time>2022-09-11T16:50:30Z</time>
      </trkpt>
      <trkpt lat="-11.5153260" lon="-76.5984080">
        <ele>3844.3</ele>
        <time>2022-09-11T16:50:34Z</time>
      </trkpt>
      <trkpt lat="-11.5153600" lon="-76.5986330">
        <ele>3843.0</ele>
        <time>2022-09-11T16:50:38Z</time>
      </trkpt>
      <trkpt lat="-11.5153940" lon="-76.5988640">
        <ele>3841.7</ele>
        <time>2022-09-11T16:50:42Z</time>
      </trkpt>
      <trkpt lat="-11.5153870" lon="-76.5990520">
        <ele>3840.6</ele>
        <time>2022-09-11T16:50:45Z</time>
      </trkpt>
      <trkpt lat="-11.5153630" lon="-76.5992360">
        <ele>3839.5</ele>
        <time>2022-09-11T16:50:48Z</time>
      </trkpt>
      <trkpt lat="-11.5153100" lon="-76.5994730">
        <ele>3838.2</ele>
        <time>2022-09-11T16:50:52Z</time>
      </trkpt>
      <trkpt lat="-11.5152650" lon="-76.5997030">
        <ele>3836.8</ele>
        <time>2022-09-11T16:50:56Z</time>
      </trkpt>
      <trkpt lat="-11.5152500" lon="-76.5997580">
        <ele>3836.5</ele>
        <time>2022-09-11T16:50:57Z</time>
      </trkpt>
      <trkpt lat="-11.5151190" lon="-76.5999470">
        <ele>3835.2</ele>
        <time>2022-09-11T16:51:01Z</time>
      </trkpt>
      <trkpt lat="-11.5149590" lon="-76.6001150">
        <ele>3833.8</ele>
        <time>2022-09-11T16:51:05Z</time>
      </trkpt>
      <trkpt lat="-11.5147980" lon="-76.6002850">
        <ele>3832.5</ele>
        <time>2022-09-11T16:51:09Z</time>
      </trkpt>
      <trkpt lat="-11.5146850" lon="-76.6004320">
        <ele>3831.4</ele>
        <time>2022-09-11T16:51:12Z</time>
      </trkpt>
      <trkpt lat="-11.5145440" lon="-76.6006240">
        <ele>3830.0</ele>
        <time>2022-09-11T16:51:16Z</time>
      </trkpt>
      <trkpt lat="-11.5144230" lon="-76.6008250">
        <ele>3828.7</ele>
        <time>2022-09-11T16:51:20Z</time>
      </trkpt>
      <trkpt lat="-11.5143620" lon="-76.6009160">
        <ele>3828.0</ele>
        <time>2022-09-11T16:51:22Z</time>
      </trkpt>
      <trkpt lat="-11.5143020" lon="-76.6009970">
        <ele>3827.5</ele>
        <time>2022-09-11T16:51:24Z</time>
      </trkpt>
      <trkpt lat="-11.5143850" lon="-76.6011250">
        <ele>3826.6</ele>
        <time>2022-09-11T16:51:30Z</time>
      </trkpt>
      <trkpt lat="-11.5144700" lon="-76.6009520">
        <ele>3825.0</ele>
        <time>2022-09-11T16:51:35Z</time>
      </trkpt>
      <trkpt lat="-11.5145330" lon="-76.6008870">
        <ele>3824.4</ele>
        <time>2022-09-11T16:51:37Z</time>
      </trkpt>
      <trkpt lat="-11.5146790" lon="-76.6007490">
        <ele>3823.1</ele>
        <time>2022-09-11T16:51:41Z</time>
      </trkpt>
      <trkpt lat="-11.5148590" lon="-76.6006250">
        <ele>3821.6</ele>
        <time>2022-09-11T16:51:45Z</time>
      </trkpt>
      <trkpt lat="-11.5150440" lon="-76.6005030">
        <ele>3820.1</ele>
        <time>2022-09-11T16:51:49Z</time>
      </trkpt>
      <trkpt lat="-11.5152440" lon="-76.6003920">
        <ele>3818.6</ele>
        <time>2022-09-11T16:51:53Z</time>
      </trkpt>
      <trkpt lat="-11.5154170" lon="-76.6003280">
        <ele>3817.4</ele>
        <time>2022-09-11T16:51:56Z</time>
      </trkpt>
      <trkpt lat="-11.5156030" lon="-76.6002980">
        <ele>3816.1</ele>
        <time>2022-09-11T16:51:59Z</time>
      </trkpt>
      <trkpt lat="-11.5157750" lon="-76.6002330">
        <ele>3814.9</ele>
        <time>2022-09-11T16:52:02Z</time>
      </trkpt>
      <trkpt lat="-11.5158920" lon="-76.6000440">
        <ele>3813.4</ele>
        <time>2022-09-11T16:52:06Z</time>
      </trkpt>
      <trkpt lat="-11.5158750" lon="-76.5999310">
        <ele>3812.6</ele>
        <time>2022-09-11T16:52:08Z</time>
      </trkpt>
      <trkpt lat="-11.5158420" lon="-76.5997520">
        <ele>3811.4</ele>
        <time>2022-09-11T16:52:11Z</time>
      </trkpt>
      <trkpt lat="-11.5159140" lon="-76.5995730">
        <ele>3810.2</ele>
        <time>2022-09-11T16:52:15Z</time>
      </trkpt>
      <trkpt lat="-11.5159470" lon="-76.5995400">
        <ele>3809.8</ele>
        <time>2022-09-11T16:52:16Z</time>
      </trkpt>
      <trkpt lat="-11.5159770" lon="-76.5995040">
        <ele>3809.5</ele>
        <time>2022-09-11T16:52:17Z</time>
      </trkpt>
      <trkpt lat="-11.5160500" lon="-76.5993010">
        <ele>3808.1</ele>
        <time>2022-09-11T16:52:21Z</time>
      </trkpt>
      <trkpt lat="-11.5160690" lon="-76.5992460">
        <ele>3807.7</ele>
        <time>2022-09-11T16:52:22Z</time>
      </trkpt>
      <trkpt lat="-11.5161990" lon="-76.5990670">
        <ele>3806.3</ele>
        <time>2022-09-11T16:52:26Z</time>
      </trkpt>
      <trkpt lat="-11.5163730" lon="-76.5989120">
        <ele>3804.7</ele>
        <time>2022-09-11T16:52:30Z</time>
      </trkpt>
      <trkpt lat="-11.5165360" lon="-76.5987540">
        <ele>3803.2</ele>
        <time>2022-09-11T16:52:34Z</time>
      </trkpt>
      <trkpt lat="-11.5166660" lon="-76.5986550">
        <ele>3802.1</ele>
        <time>2022-09-11T16:52:37Z</time>
      </trkpt>
      <trkpt lat="-11.5168030" lon="-76.5987350">
        <ele>3801.0</ele>
        <time>2022-09-11T16:52:42Z</time>
      </trkpt>
      <trkpt lat="-11.5166690" lon="-76.5988730">
        <ele>3799.8</ele>
        <time>2022-09-11T16:52:46Z</time>
      </trkpt>
      <trkpt lat="-11.5166260" lon="-76.5989090">
        <ele>3799.4</ele>
        <time>2022-09-11T16:52:47Z</time>
      </trkpt>
      <trkpt lat="-11.5165300" lon="-76.5991210">
        <ele>3797.9</ele>
        <time>2022-09-11T16:52:51Z</time>
      </trkpt>
      <trkpt lat="-11.5165230" lon="-76.5993540">
        <ele>3796.3</ele>
        <time>2022-09-11T16:52:55Z</time>
      </trkpt>
      <trkpt lat="-11.5164600" lon="-76.5995150">
        <ele>3795.2</ele>
        <time>2022-09-11T16:52:58Z</time>
      </trkpt>
      <trkpt lat="-11.5164370" lon="-76.5995690">
        <ele>3794.8</ele>
        <time>2022-09-11T16:52:59Z</time>
      </trkpt>
      <trkpt lat="-11.5164110" lon="-76.5997990">
        <ele>3793.3</ele>
        <time>2022-09-11T16:53:03Z</time>
      </trkpt>
      <trkpt lat="-11.5164210" lon="-76.5999160">
        <ele>3792.5</ele>
        <time>2022-09-11T16:53:05Z</time>
      </trkpt>
      <trkpt lat="-11.5164460" lon="-76.6001450">
        <ele>3791.0</ele>
        <time>2022-09-11T16:53:09Z</time>
      </trkpt>
      <trkpt lat="-11.5164230" lon="-76.6003350">
        <ele>3789.7</ele>
        <time>2022-09-11T16:53:14Z</time>
      </trkpt>
      <trkpt lat="-11.5164190" lon="-76.6003510">
        <ele>3789.6</ele>
        <time>2022-09-11T16:53:15Z</time>
      </trkpt>
      <trkpt lat="-11.5163940" lon="-76.6004210">
        <ele>3789.1</ele>
        <time>2022-09-11T16:53:23Z</time>
      </trkpt>
      <trkpt lat="-11.5163410" lon="-76.6004440">
        <ele>3788.7</ele>
        <time>2022-09-11T17:12:22Z</time>
      </trkpt>
      <trkpt lat="-11.5163300" lon="-76.6004590">
        <ele>3788.6</ele>
        <time>2022-09-11T17:12:23Z</time>
      </trkpt>
      <trkpt lat="-11.5162740" lon="-76.6005630">
        <ele>3787.8</ele>
        <time>2022-09-11T17:12:27Z</time>
      </trkpt>
      <trkpt lat="-11.5163010" lon="-76.6006600">
        <ele>3787.2</ele>
        <time>2022-09-11T17:12:30Z</time>
      </trkpt>
      <trkpt lat="-11.5163180" lon="-76.6006860">
        <ele>3787.0</ele>
        <time>2022-09-11T17:12:31Z</time>
      </trkpt>
      <trkpt lat="-11.5164130" lon="-76.6008620">
        <ele>3785.6</ele>
        <time>2022-09-11T17:12:38Z</time>
      </trkpt>
      <trkpt lat="-11.5164760" lon="-76.6008810">
        <ele>3785.2</ele>
        <time>2022-09-11T17:12:41Z</time>
      </trkpt>
      <trkpt lat="-11.5164990" lon="-76.6008810">
        <ele>3785.0</ele>
        <time>2022-09-11T17:12:42Z</time>
      </trkpt>
      <trkpt lat="-11.5165840" lon="-76.6008920">
        <ele>3784.5</ele>
        <time>2022-09-11T17:12:45Z</time>
      </trkpt>
      <trkpt lat="-11.5166840" lon="-76.6009480">
        <ele>3783.7</ele>
        <time>2022-09-11T17:12:48Z</time>
      </trkpt>
      <trkpt lat="-11.5168150" lon="-76.6010060">
        <ele>3782.7</ele>
        <time>2022-09-11T17:12:51Z</time>
      </trkpt>
      <trkpt lat="-11.5170190" lon="-76.6009550">
        <ele>3781.3</ele>
        <time>2022-09-11T17:12:56Z</time>
      </trkpt>
      <trkpt lat="-11.5170490" lon="-76.6009210">
        <ele>3781.0</ele>
        <time>2022-09-11T17:12:57Z</time>
      </trkpt>
      <trkpt lat="-11.5170750" lon="-76.6008840">
        <ele>3780.7</ele>
        <time>2022-09-11T17:12:58Z</time>
      </trkpt>
      <trkpt lat="-11.5171340" lon="-76.6006980">
        <ele>3779.4</ele>
        <time>2022-09-11T17:13:02Z</time>
      </trkpt>
      <trkpt lat="-11.5171410" lon="-76.6006440">
        <ele>3779.1</ele>
        <time>2022-09-11T17:13:03Z</time>
      </trkpt>
      <trkpt lat="-11.5171460" lon="-76.6004850">
        <ele>3778.0</ele>
        <time>2022-09-11T17:13:06Z</time>
      </trkpt>
      <trkpt lat="-11.5170900" lon="-76.6002650">
        <ele>3776.5</ele>
        <time>2022-09-11T17:13:10Z</time>
      </trkpt>
      <trkpt lat="-11.5170180" lon="-76.6000830">
        <ele>3775.2</ele>
        <time>2022-09-11T17:13:13Z</time>
      </trkpt>
      <trkpt lat="-11.5170000" lon="-76.5998760">
        <ele>3773.9</ele>
        <time>2022-09-11T17:13:16Z</time>
      </trkpt>
      <trkpt lat="-11.5170320" lon="-76.5996630">
        <ele>3772.4</ele>
        <time>2022-09-11T17:13:19Z</time>
      </trkpt>
      <trkpt lat="-11.5170820" lon="-76.5994510">
        <ele>3771.0</ele>
        <time>2022-09-11T17:13:22Z</time>
      </trkpt>
      <trkpt lat="-11.5171390" lon="-76.5993210">
        <ele>3770.1</ele>
        <time>2022-09-11T17:13:24Z</time>
      </trkpt>
      <trkpt lat="-11.5172910" lon="-76.5991810">
        <ele>3768.7</ele>
        <time>2022-09-11T17:13:27Z</time>
      </trkpt>
      <trkpt lat="-11.5174620" lon="-76.5990840">
        <ele>3767.4</ele>
        <time>2022-09-11T17:13:30Z</time>
      </trkpt>
      <trkpt lat="-11.5175190" lon="-76.5988940">
        <ele>3766.1</ele>
        <time>2022-09-11T17:13:34Z</time>
      </trkpt>
      <trkpt lat="-11.5174640" lon="-76.5986690">
        <ele>3764.9</ele>
        <time>2022-09-11T17:13:38Z</time>
      </trkpt>
      <trkpt lat="-11.5174270" lon="-76.5985480">
        <ele>3764.7</ele>
        <time>2022-09-11T17:13:40Z</time>
      </trkpt>
      <trkpt lat="-11.5173360" lon="-76.5983840">
        <ele>3764.4</ele>
        <time>2022-09-11T17:13:43Z</time>
      </trkpt>
      <trkpt lat="-11.5172390" lon="-76.5982130">
        <ele>3764.0</ele>
        <time>2022-09-11T17:13:46Z</time>
      </trkpt>
      <trkpt lat="-11.5171350" lon="-76.5980410">
        <ele>3763.7</ele>
        <time>2022-09-11T17:13:49Z</time>
      </trkpt>
      <trkpt lat="-11.5170300" lon="-76.5978790">
        <ele>3763.4</ele>
        <time>2022-09-11T17:13:52Z</time>
      </trkpt>
      <trkpt lat="-11.5169120" lon="-76.5977240">
        <ele>3763.1</ele>
        <time>2022-09-11T17:13:55Z</time>
      </trkpt>
      <trkpt lat="-11.5168330" lon="-76.5975700">
        <ele>3762.8</ele>
        <time>2022-09-11T17:13:58Z</time>
      </trkpt>
      <trkpt lat="-11.5167880" lon="-76.5974580">
        <ele>3762.6</ele>
        <time>2022-09-11T17:14:00Z</time>
      </trkpt>
      <trkpt lat="-11.5166920" lon="-76.5972500">
        <ele>3762.2</ele>
        <time>2022-09-11T17:14:04Z</time>
      </trkpt>
      <trkpt lat="-11.5166090" lon="-76.5970720">
        <ele>3761.9</ele>
        <time>2022-09-11T17:14:08Z</time>
      </trkpt>
      <trkpt lat="-11.5165100" lon="-76.5969460">
        <ele>3761.6</ele>
        <time>2022-09-11T17:14:11Z</time>
      </trkpt>
      <trkpt lat="-11.5164430" lon="-76.5968170">
        <ele>3761.4</ele>
        <time>2022-09-11T17:14:14Z</time>
      </trkpt>
      <trkpt lat="-11.5165630" lon="-76.5967970">
        <ele>3761.2</ele>
        <time>2022-09-11T17:14:21Z</time>
      </trkpt>
      <trkpt lat="-11.5166600" lon="-76.5969710">
        <ele>3760.9</ele>
        <time>2022-09-11T17:14:25Z</time>
      </trkpt>
      <trkpt lat="-11.5167030" lon="-76.5970090">
        <ele>3760.8</ele>
        <time>2022-09-11T17:14:26Z</time>
      </trkpt>
      <trkpt lat="-11.5167860" lon="-76.5970920">
        <ele>3760.6</ele>
        <time>2022-09-11T17:14:28Z</time>
      </trkpt>
      <trkpt lat="-11.5168940" lon="-76.5972950">
        <ele>3760.2</ele>
        <time>2022-09-11T17:14:32Z</time>
      </trkpt>
      <trkpt lat="-11.5169880" lon="-76.5974700">
        <ele>3759.9</ele>
        <time>2022-09-11T17:14:35Z</time>
      </trkpt>
      <trkpt lat="-11.5171020" lon="-76.5976610">
        <ele>3759.5</ele>
        <time>2022-09-11T17:14:38Z</time>
      </trkpt>
      <trkpt lat="-11.5171500" lon="-76.5977210">
        <ele>3759.4</ele>
        <time>2022-09-11T17:14:39Z</time>
      </trkpt>
      <trkpt lat="-11.5172940" lon="-76.5978880">
        <ele>3759.0</ele>
        <time>2022-09-11T17:14:42Z</time>
      </trkpt>
      <trkpt lat="-11.5174470" lon="-76.5980610">
        <ele>3758.7</ele>
        <time>2022-09-11T17:14:45Z</time>
      </trkpt>
      <trkpt lat="-11.5175800" lon="-76.5982260">
        <ele>3758.3</ele>
        <time>2022-09-11T17:14:48Z</time>
      </trkpt>
      <trkpt lat="-11.5176590" lon="-76.5982970">
        <ele>3758.1</ele>
        <time>2022-09-11T17:14:50Z</time>
      </trkpt>
      <trkpt lat="-11.5177680" lon="-76.5983300">
        <ele>3758.0</ele>
        <time>2022-09-11T17:14:56Z</time>
      </trkpt>
      <trkpt lat="-11.5177630" lon="-76.5982400">
        <ele>3757.8</ele>
        <time>2022-09-11T17:16:00Z</time>
      </trkpt>
      <trkpt lat="-11.5177740" lon="-76.5982170">
        <ele>3757.8</ele>
        <time>2022-09-11T17:16:01Z</time>
      </trkpt>
      <trkpt lat="-11.5177830" lon="-76.5981650">
        <ele>3757.7</ele>
        <time>2022-09-11T17:16:03Z</time>
      </trkpt>
      <trkpt lat="-11.5177360" lon="-76.5980790">
        <ele>3757.5</ele>
        <time>2022-09-11T17:16:07Z</time>
      </trkpt>
      <trkpt lat="-11.5176130" lon="-76.5979340">
        <ele>3757.2</ele>
        <time>2022-09-11T17:16:14Z</time>
      </trkpt>
      <trkpt lat="-11.5175210" lon="-76.5978660">
        <ele>3757.0</ele>
        <time>2022-09-11T17:16:20Z</time>
      </trkpt>
      <trkpt lat="-11.5175140" lon="-76.5978480">
        <ele>3757.0</ele>
        <time>2022-09-11T17:16:21Z</time>
      </trkpt>
      <trkpt lat="-11.5175530" lon="-76.5976680">
        <ele>3756.7</ele>
        <time>2022-09-11T17:16:33Z</time>
      </trkpt>
      <trkpt lat="-11.5176060" lon="-76.5975990">
        <ele>3756.5</ele>
        <time>2022-09-11T17:16:41Z</time>
      </trkpt>
      <trkpt lat="-11.5176260" lon="-76.5975630">
        <ele>3756.5</ele>
        <time>2022-09-11T17:16:44Z</time>
      </trkpt>
      <trkpt lat="-11.5177920" lon="-76.5976040">
        <ele>3756.2</ele>
        <time>2022-09-11T17:16:54Z</time>
      </trkpt>
      <trkpt lat="-11.5178020" lon="-76.5976100">
        <ele>3756.2</ele>
        <time>2022-09-11T17:16:55Z</time>
      </trkpt>
      <trkpt lat="-11.5178640" lon="-76.5976600">
        <ele>3756.0</ele>
        <time>2022-09-11T17:17:00Z</time>
      </trkpt>
      <trkpt lat="-11.5178580" lon="-76.5977400">
        <ele>3756.0</ele>
        <time>2022-09-11T17:17:05Z</time>
      </trkpt>
      <trkpt lat="-11.5179860" lon="-76.5978790">
        <ele>3756.3</ele>
        <time>2022-09-11T17:17:16Z</time>
      </trkpt>
      <trkpt lat="-11.5181080" lon="-76.5980140">
        <ele>3756.5</ele>
        <time>2022-09-11T17:17:25Z</time>
      </trkpt>
      <trkpt lat="-11.5180850" lon="-76.5982090">
        <ele>3757.0</ele>
        <time>2022-09-11T17:17:36Z</time>
      </trkpt>
      <trkpt lat="-11.5181940" lon="-76.5983780">
        <ele>3757.6</ele>
        <time>2022-09-11T17:17:46Z</time>
      </trkpt>
      <trkpt lat="-11.5183780" lon="-76.5984390">
        <ele>3757.8</ele>
        <time>2022-09-11T17:17:54Z</time>
      </trkpt>
      <trkpt lat="-11.5185660" lon="-76.5984270">
        <ele>3758.3</ele>
        <time>2022-09-11T17:18:02Z</time>
      </trkpt>
      <trkpt lat="-11.5187320" lon="-76.5984070">
        <ele>3759.0</ele>
        <time>2022-09-11T17:18:10Z</time>
      </trkpt>
      <trkpt lat="-11.5189040" lon="-76.5983250">
        <ele>3760.2</ele>
        <time>2022-09-11T17:18:21Z</time>
      </trkpt>
      <trkpt lat="-11.5190650" lon="-76.5982420">
        <ele>3761.1</ele>
        <time>2022-09-11T17:18:32Z</time>
      </trkpt>
      <trkpt lat="-11.5192510" lon="-76.5982450">
        <ele>3762.4</ele>
        <time>2022-09-11T17:18:45Z</time>
      </trkpt>
      <trkpt lat="-11.5193950" lon="-76.5983570">
        <ele>3763.6</ele>
        <time>2022-09-11T17:18:55Z</time>
      </trkpt>
      <trkpt lat="-11.5195730" lon="-76.5984400">
        <ele>3764.8</ele>
        <time>2022-09-11T17:19:05Z</time>
      </trkpt>
      <trkpt lat="-11.5197490" lon="-76.5985050">
        <ele>3765.9</ele>
        <time>2022-09-11T17:19:14Z</time>
      </trkpt>
      <trkpt lat="-11.5199280" lon="-76.5985930">
        <ele>3766.6</ele>
        <time>2022-09-11T17:19:23Z</time>
      </trkpt>
      <trkpt lat="-11.5200940" lon="-76.5987250">
        <ele>3767.2</ele>
        <time>2022-09-11T17:19:31Z</time>
      </trkpt>
      <trkpt lat="-11.5202430" lon="-76.5988040">
        <ele>3767.4</ele>
        <time>2022-09-11T17:19:36Z</time>
      </trkpt>
      <trkpt lat="-11.5204370" lon="-76.5988630">
        <ele>3767.8</ele>
        <time>2022-09-11T17:19:43Z</time>
      </trkpt>
      <trkpt lat="-11.5206100" lon="-76.5989500">
        <ele>3768.1</ele>
        <time>2022-09-11T17:19:51Z</time>
      </trkpt>
      <trkpt lat="-11.5207850" lon="-76.5989980">
        <ele>3769.0</ele>
        <time>2022-09-11T17:19:58Z</time>
      </trkpt>
      <trkpt lat="-11.5209850" lon="-76.5989980">
        <ele>3769.9</ele>
        <time>2022-09-11T17:20:06Z</time>
      </trkpt>
      <trkpt lat="-11.5211680" lon="-76.5989270">
        <ele>3770.4</ele>
        <time>2022-09-11T17:20:14Z</time>
      </trkpt>
      <trkpt lat="-11.5213520" lon="-76.5988300">
        <ele>3770.6</ele>
        <time>2022-09-11T17:20:21Z</time>
      </trkpt>
      <trkpt lat="-11.5215190" lon="-76.5987460">
        <ele>3770.8</ele>
        <time>2022-09-11T17:20:27Z</time>
      </trkpt>
      <trkpt lat="-11.5216940" lon="-76.5986450">
        <ele>3770.9</ele>
        <time>2022-09-11T17:20:35Z</time>
      </trkpt>
      <trkpt lat="-11.5218360" lon="-76.5985260">
        <ele>3771.4</ele>
        <time>2022-09-11T17:20:42Z</time>
      </trkpt>
      <trkpt lat="-11.5219820" lon="-76.5983820">
        <ele>3772.3</ele>
        <time>2022-09-11T17:20:50Z</time>
      </trkpt>
      <trkpt lat="-11.5221180" lon="-76.5982420">
        <ele>3773.5</ele>
        <time>2022-09-11T17:21:00Z</time>
      </trkpt>
      <trkpt lat="-11.5222220" lon="-76.5982140">
        <ele>3774.0</ele>
        <time>2022-09-11T17:21:05Z</time>
      </trkpt>
      <trkpt lat="-11.5222850" lon="-76.5983110">
        <ele>3773.9</ele>
        <time>2022-09-11T17:21:10Z</time>
      </trkpt>
      <trkpt lat="-11.5223590" lon="-76.5984920">
        <ele>3773.9</ele>
        <time>2022-09-11T17:21:18Z</time>
      </trkpt>
      <trkpt lat="-11.5224570" lon="-76.5986640">
        <ele>3773.8</ele>
        <time>2022-09-11T17:21:26Z</time>
      </trkpt>
      <trkpt lat="-11.5226010" lon="-76.5988040">
        <ele>3773.7</ele>
        <time>2022-09-11T17:21:34Z</time>
      </trkpt>
      <trkpt lat="-11.5226860" lon="-76.5989750">
        <ele>3773.6</ele>
        <time>2022-09-11T17:21:41Z</time>
      </trkpt>
      <trkpt lat="-11.5227120" lon="-76.5991710">
        <ele>3773.5</ele>
        <time>2022-09-11T17:21:49Z</time>
      </trkpt>
      <trkpt lat="-11.5227830" lon="-76.5993490">
        <ele>3773.4</ele>
        <time>2022-09-11T17:21:57Z</time>
      </trkpt>
      <trkpt lat="-11.5228670" lon="-76.5995300">
        <ele>3773.3</ele>
        <time>2022-09-11T17:22:04Z</time>
      </trkpt>
      <trkpt lat="-11.5229350" lon="-76.5997090">
        <ele>3773.3</ele>
        <time>2022-09-11T17:22:11Z</time>
      </trkpt>
      <trkpt lat="-11.5229980" lon="-76.5998840">
        <ele>3773.2</ele>
        <time>2022-09-11T17:22:18Z</time>
      </trkpt>
      <trkpt lat="-11.5231700" lon="-76.5999350">
        <ele>3773.1</ele>
        <time>2022-09-11T17:22:25Z</time>
      </trkpt>
      <trkpt lat="-11.5233620" lon="-76.5998990">
        <ele>3773.0</ele>
        <time>2022-09-11T17:22:31Z</time>
      </trkpt>
      <trkpt lat="-11.5235700" lon="-76.5998790">
        <ele>3772.9</ele>
        <time>2022-09-11T17:22:36Z</time>
      </trkpt>
      <trkpt lat="-11.5237560" lon="-76.5999310">
        <ele>3772.8</ele>
        <time>2022-09-11T17:22:40Z</time>
      </trkpt>
      <trkpt lat="-11.5238340" lon="-76.5999860">
        <ele>3772.8</ele>
        <time>2022-09-11T17:22:42Z</time>
      </trkpt>
      <trkpt lat="-11.5239640" lon="-76.6001190">
        <ele>3772.7</ele>
        <time>2022-09-11T17:22:46Z</time>
      </trkpt>
      <trkpt lat="-11.5240760" lon="-76.6002940">
        <ele>3772.6</ele>
        <time>2022-09-11T17:22:51Z</time>
      </trkpt>
      <trkpt lat="-11.5242220" lon="-76.6004170">
        <ele>3772.5</ele>
        <time>2022-09-11T17:22:56Z</time>
      </trkpt>
      <trkpt lat="-11.5243790" lon="-76.6005410">
        <ele>3772.4</ele>
        <time>2022-09-11T17:23:01Z</time>
      </trkpt>
      <trkpt lat="-11.5245280" lon="-76.6006870">
        <ele>3772.3</ele>
        <time>2022-09-11T17:23:06Z</time>
      </trkpt>
      <trkpt lat="-11.5246470" lon="-76.6008300">
        <ele>3772.3</ele>
        <time>2022-09-11T17:23:11Z</time>
      </trkpt>
      <trkpt lat="-11.5246830" lon="-76.6008450">
        <ele>3772.2</ele>
        <time>2022-09-11T17:23:12Z</time>
      </trkpt>
      <trkpt lat="-11.5248720" lon="-76.6009250">
        <ele>3772.1</ele>
        <time>2022-09-11T17:23:17Z</time>
      </trkpt>
      <trkpt lat="-11.5249040" lon="-76.6009500">
        <ele>3772.1</ele>
        <time>2022-09-11T17:23:18Z</time>
      </trkpt>
      <trkpt lat="-11.5250080" lon="-76.6010090">
        <ele>3772.1</ele>
        <time>2022-09-11T17:23:21Z</time>
      </trkpt>
      <trkpt lat="-11.5250960" lon="-76.6010310">
        <ele>3772.0</ele>
        <time>2022-09-11T17:23:23Z</time>
      </trkpt>
      <trkpt lat="-11.5252770" lon="-76.6011090">
        <ele>3771.9</ele>
        <time>2022-09-11T17:23:27Z</time>
      </trkpt>
      <trkpt lat="-11.5253530" lon="-76.6011570">
        <ele>3771.9</ele>
        <time>2022-09-11T17:23:29Z</time>
      </trkpt>
      <trkpt lat="-11.5255340" lon="-76.6012250">
        <ele>3771.8</ele>
        <time>2022-09-11T17:23:33Z</time>
      </trkpt>
      <trkpt lat="-11.5257110" lon="-76.6013750">
        <ele>3771.7</ele>
        <time>2022-09-11T17:23:37Z</time>
      </trkpt>
      <trkpt lat="-11.5258080" lon="-76.6014540">
        <ele>3771.7</ele>
        <time>2022-09-11T17:23:39Z</time>
      </trkpt>
      <trkpt lat="-11.5259780" lon="-76.6015470">
        <ele>3771.6</ele>
        <time>2022-09-11T17:23:42Z</time>
      </trkpt>
      <trkpt lat="-11.5261650" lon="-76.6015620">
        <ele>3771.5</ele>
        <time>2022-09-11T17:23:45Z</time>
      </trkpt>
      <trkpt lat="-11.5262320" lon="-76.6015530">
        <ele>3771.5</ele>
        <time>2022-09-11T17:23:46Z</time>
      </trkpt>
      <trkpt lat="-11.5264220" lon="-76.6015480">
        <ele>3771.4</ele>
        <time>2022-09-11T17:23:49Z</time>
      </trkpt>
      <trkpt lat="-11.5266050" lon="-76.6016360">
        <ele>3771.3</ele>
        <time>2022-09-11T17:23:53Z</time>
      </trkpt>
      <trkpt lat="-11.5266450" lon="-76.6016660">
        <ele>3771.3</ele>
        <time>2022-09-11T17:23:54Z</time>
      </trkpt>
      <trkpt lat="-11.5266830" lon="-76.6016980">
        <ele>3771.2</ele>
        <time>2022-09-11T17:23:55Z</time>
      </trkpt>
      <trkpt lat="-11.5267200" lon="-76.6018900">
        <ele>3771.2</ele>
        <time>2022-09-11T17:23:59Z</time>
      </trkpt>
      <trkpt lat="-11.5267010" lon="-76.6019410">
        <ele>3771.1</ele>
        <time>2022-09-11T17:24:00Z</time>
      </trkpt>
      <trkpt lat="-11.5266470" lon="-76.6020940">
        <ele>3771.1</ele>
        <time>2022-09-11T17:24:03Z</time>
      </trkpt>
      <trkpt lat="-11.5264930" lon="-76.6022390">
        <ele>3771.0</ele>
        <time>2022-09-11T17:24:07Z</time>
      </trkpt>
      <trkpt lat="-11.5263370" lon="-76.6023760">
        <ele>3770.9</ele>
        <time>2022-09-11T17:24:11Z</time>
      </trkpt>
      <trkpt lat="-11.5261820" lon="-76.6025170">
        <ele>3770.8</ele>
        <time>2022-09-11T17:24:15Z</time>
      </trkpt>
      <trkpt lat="-11.5260120" lon="-76.6026280">
        <ele>3770.7</ele>
        <time>2022-09-11T17:24:19Z</time>
      </trkpt>
      <trkpt lat="-11.5258560" lon="-76.6027350">
        <ele>3770.6</ele>
        <time>2022-09-11T17:24:23Z</time>
      </trkpt>
      <trkpt lat="-11.5256910" lon="-76.6028510">
        <ele>3770.5</ele>
        <time>2022-09-11T17:24:28Z</time>
      </trkpt>
      <trkpt lat="-11.5255490" lon="-76.6029970">
        <ele>3770.4</ele>
        <time>2022-09-11T17:24:33Z</time>
      </trkpt>
      <trkpt lat="-11.5254670" lon="-76.6031930">
        <ele>3770.3</ele>
        <time>2022-09-11T17:24:38Z</time>
      </trkpt>
      <trkpt lat="-11.5253960" lon="-76.6034050">
        <ele>3770.2</ele>
        <time>2022-09-11T17:24:43Z</time>
      </trkpt>
      <trkpt lat="-11.5253670" lon="-76.6036080">
        <ele>3770.1</ele>
        <time>2022-09-11T17:24:47Z</time>
      </trkpt>
      <trkpt lat="-11.5253190" lon="-76.6038240">
        <ele>3770.1</ele>
        <time>2022-09-11T17:24:51Z</time>
      </trkpt>
      <trkpt lat="-11.5252330" lon="-76.6040100">
        <ele>3769.6</ele>
        <time>2022-09-11T17:24:55Z</time>
      </trkpt>
      <trkpt lat="-11.5251400" lon="-76.6041790">
        <ele>3769.0</ele>
        <time>2022-09-11T17:24:59Z</time>
      </trkpt>
      <trkpt lat="-11.5250150" lon="-76.6043240">
        <ele>3768.5</ele>
        <time>2022-09-11T17:25:03Z</time>
      </trkpt>
      <trkpt lat="-11.5248640" lon="-76.6044460">
        <ele>3767.9</ele>
        <time>2022-09-11T17:25:07Z</time>
      </trkpt>
      <trkpt lat="-11.5247150" lon="-76.6045630">
        <ele>3767.3</ele>
        <time>2022-09-11T17:25:11Z</time>
      </trkpt>
      <trkpt lat="-11.5245510" lon="-76.6046800">
        <ele>3766.7</ele>
        <time>2022-09-11T17:25:15Z</time>
      </trkpt>
      <trkpt lat="-11.5243870" lon="-76.6048090">
        <ele>3766.1</ele>
        <time>2022-09-11T17:25:19Z</time>
      </trkpt>
      <trkpt lat="-11.5243490" lon="-76.6048440">
        <ele>3765.9</ele>
        <time>2022-09-11T17:25:20Z</time>
      </trkpt>
      <trkpt lat="-11.5242030" lon="-76.6049770">
        <ele>3765.3</ele>
        <time>2022-09-11T17:25:24Z</time>
      </trkpt>
      <trkpt lat="-11.5240840" lon="-76.6051160">
        <ele>3764.8</ele>
        <time>2022-09-11T17:25:28Z</time>
      </trkpt>
      <trkpt lat="-11.5240600" lon="-76.6051550">
        <ele>3764.7</ele>
        <time>2022-09-11T17:25:29Z</time>
      </trkpt>
      <trkpt lat="-11.5239740" lon="-76.6053280">
        <ele>3764.1</ele>
        <time>2022-09-11T17:25:33Z</time>
      </trkpt>
      <trkpt lat="-11.5239050" lon="-76.6055180">
        <ele>3763.5</ele>
        <time>2022-09-11T17:25:37Z</time>
      </trkpt>
      <trkpt lat="-11.5238390" lon="-76.6057160">
        <ele>3762.9</ele>
        <time>2022-09-11T17:25:41Z</time>
      </trkpt>
      <trkpt lat="-11.5238300" lon="-76.6057630">
        <ele>3762.7</ele>
        <time>2022-09-11T17:25:42Z</time>
      </trkpt>
      <trkpt lat="-11.5239480" lon="-76.6059070">
        <ele>3762.2</ele>
        <time>2022-09-11T17:25:46Z</time>
      </trkpt>
      <trkpt lat="-11.5241430" lon="-76.6059400">
        <ele>3761.6</ele>
        <time>2022-09-11T17:25:49Z</time>
      </trkpt>
      <trkpt lat="-11.5243750" lon="-76.6059450">
        <ele>3760.9</ele>
        <time>2022-09-11T17:25:52Z</time>
      </trkpt>
      <trkpt lat="-11.5246250" lon="-76.6059870">
        <ele>3760.1</ele>
        <time>2022-09-11T17:25:55Z</time>
      </trkpt>
      <trkpt lat="-11.5248540" lon="-76.6061060">
        <ele>3759.3</ele>
        <time>2022-09-11T17:25:58Z</time>
      </trkpt>
      <trkpt lat="-11.5250980" lon="-76.6061920">
        <ele>3758.5</ele>
        <time>2022-09-11T17:26:01Z</time>
      </trkpt>
      <trkpt lat="-11.5252780" lon="-76.6062140">
        <ele>3758.0</ele>
        <time>2022-09-11T17:26:03Z</time>
      </trkpt>
      <trkpt lat="-11.5253680" lon="-76.6062310">
        <ele>3757.7</ele>
        <time>2022-09-11T17:26:04Z</time>
      </trkpt>
      <trkpt lat="-11.5255390" lon="-76.6062940">
        <ele>3757.2</ele>
        <time>2022-09-11T17:26:06Z</time>
      </trkpt>
      <trkpt lat="-11.5257660" lon="-76.6064040">
        <ele>3756.4</ele>
        <time>2022-09-11T17:26:09Z</time>
      </trkpt>
      <trkpt lat="-11.5259010" lon="-76.6064570">
        <ele>3756.0</ele>
        <time>2022-09-11T17:26:11Z</time>
      </trkpt>
      <trkpt lat="-11.5260900" lon="-76.6064670">
        <ele>3755.4</ele>
        <time>2022-09-11T17:26:14Z</time>
      </trkpt>
      <trkpt lat="-11.5263000" lon="-76.6064540">
        <ele>3754.8</ele>
        <time>2022-09-11T17:26:17Z</time>
      </trkpt>
      <trkpt lat="-11.5265130" lon="-76.6063710">
        <ele>3754.1</ele>
        <time>2022-09-11T17:26:20Z</time>
      </trkpt>
      <trkpt lat="-11.5265870" lon="-76.6063280">
        <ele>3753.8</ele>
        <time>2022-09-11T17:26:21Z</time>
      </trkpt>
      <trkpt lat="-11.5268250" lon="-76.6062040">
        <ele>3753.0</ele>
        <time>2022-09-11T17:26:24Z</time>
      </trkpt>
      <trkpt lat="-11.5269850" lon="-76.6061180">
        <ele>3752.5</ele>
        <time>2022-09-11T17:26:26Z</time>
      </trkpt>
      <trkpt lat="-11.5270640" lon="-76.6060800">
        <ele>3752.2</ele>
        <time>2022-09-11T17:26:27Z</time>
      </trkpt>
      <trkpt lat="-11.5272730" lon="-76.6060610">
        <ele>3751.6</ele>
        <time>2022-09-11T17:26:30Z</time>
      </trkpt>
      <trkpt lat="-11.5273980" lon="-76.6062140">
        <ele>3751.0</ele>
        <time>2022-09-11T17:26:34Z</time>
      </trkpt>
      <trkpt lat="-11.5274210" lon="-76.6062610">
        <ele>3750.8</ele>
        <time>2022-09-11T17:26:35Z</time>
      </trkpt>
      <trkpt lat="-11.5274400" lon="-76.6063140">
        <ele>3750.6</ele>
        <time>2022-09-11T17:26:36Z</time>
      </trkpt>
      <trkpt lat="-11.5274990" lon="-76.6065410">
        <ele>3749.9</ele>
        <time>2022-09-11T17:26:40Z</time>
      </trkpt>
      <trkpt lat="-11.5275620" lon="-76.6067460">
        <ele>3749.3</ele>
        <time>2022-09-11T17:26:43Z</time>
      </trkpt>
      <trkpt lat="-11.5275900" lon="-76.6068970">
        <ele>3748.9</ele>
        <time>2022-09-11T17:26:45Z</time>
      </trkpt>
      <trkpt lat="-11.5276270" lon="-76.6071080">
        <ele>3748.2</ele>
        <time>2022-09-11T17:26:48Z</time>
      </trkpt>
      <trkpt lat="-11.5278150" lon="-76.6071550">
        <ele>3747.6</ele>
        <time>2022-09-11T17:26:51Z</time>
      </trkpt>
      <trkpt lat="-11.5278940" lon="-76.6071490">
        <ele>3747.4</ele>
        <time>2022-09-11T17:26:52Z</time>
      </trkpt>
      <trkpt lat="-11.5281520" lon="-76.6071450">
        <ele>3746.6</ele>
        <time>2022-09-11T17:26:55Z</time>
      </trkpt>
      <trkpt lat="-11.5283340" lon="-76.6071490">
        <ele>3746.1</ele>
        <time>2022-09-11T17:26:57Z</time>
      </trkpt>
      <trkpt lat="-11.5285920" lon="-76.6072130">
        <ele>3745.3</ele>
        <time>2022-09-11T17:27:00Z</time>
      </trkpt>
      <trkpt lat="-11.5286700" lon="-76.6072440">
        <ele>3745.0</ele>
        <time>2022-09-11T17:27:01Z</time>
      </trkpt>
      <trkpt lat="-11.5288820" lon="-76.6073510">
        <ele>3744.3</ele>
        <time>2022-09-11T17:27:04Z</time>
      </trkpt>
      <trkpt lat="-11.5289510" lon="-76.6073750">
        <ele>3744.1</ele>
        <time>2022-09-11T17:27:05Z</time>
      </trkpt>
      <trkpt lat="-11.5291790" lon="-76.6074050">
        <ele>3743.4</ele>
        <time>2022-09-11T17:27:08Z</time>
      </trkpt>
      <trkpt lat="-11.5293850" lon="-76.6074480">
        <ele>3742.9</ele>
        <time>2022-09-11T17:27:11Z</time>
      </trkpt>
      <trkpt lat="-11.5294830" lon="-76.6076010">
        <ele>3742.6</ele>
        <time>2022-09-11T17:27:14Z</time>
      </trkpt>
      <trkpt lat="-11.5295940" lon="-76.6077750">
        <ele>3742.4</ele>
        <time>2022-09-11T17:27:18Z</time>
      </trkpt>
      <trkpt lat="-11.5296320" lon="-76.6078060">
        <ele>3742.3</ele>
        <time>2022-09-11T17:27:19Z</time>
      </trkpt>
      <trkpt lat="-11.5297980" lon="-76.6079200">
        <ele>3742.0</ele>
        <time>2022-09-11T17:27:23Z</time>
      </trkpt>
      <trkpt lat="-11.5299570" lon="-76.6080490">
        <ele>3741.7</ele>
        <time>2022-09-11T17:27:27Z</time>
      </trkpt>
      <trkpt lat="-11.5300410" lon="-76.6081060">
        <ele>3741.6</ele>
        <time>2022-09-11T17:27:29Z</time>
      </trkpt>
      <trkpt lat="-11.5302390" lon="-76.6081550">
        <ele>3741.3</ele>
        <time>2022-09-11T17:27:33Z</time>
      </trkpt>
      <trkpt lat="-11.5302900" lon="-76.6081540">
        <ele>3741.2</ele>
        <time>2022-09-11T17:27:34Z</time>
      </trkpt>
      <trkpt lat="-11.5305070" lon="-76.6081470">
        <ele>3741.0</ele>
        <time>2022-09-11T17:27:38Z</time>
      </trkpt>
      <trkpt lat="-11.5307470" lon="-76.6081730">
        <ele>3740.7</ele>
        <time>2022-09-11T17:27:42Z</time>
      </trkpt>
      <trkpt lat="-11.5309350" lon="-76.6081740">
        <ele>3740.6</ele>
        <time>2022-09-11T17:27:45Z</time>
      </trkpt>
      <trkpt lat="-11.5311240" lon="-76.6081520">
        <ele>3740.4</ele>
        <time>2022-09-11T17:27:48Z</time>
      </trkpt>
      <trkpt lat="-11.5312550" lon="-76.6081230">
        <ele>3740.3</ele>
        <time>2022-09-11T17:27:50Z</time>
      </trkpt>
      <trkpt lat="-11.5314550" lon="-76.6081810">
        <ele>3740.1</ele>
        <time>2022-09-11T17:27:54Z</time>
      </trkpt>
      <trkpt lat="-11.5315050" lon="-76.6083740">
        <ele>3739.9</ele>
        <time>2022-09-11T17:27:58Z</time>
      </trkpt>
      <trkpt lat="-11.5315640" lon="-76.6084810">
        <ele>3739.8</ele>
        <time>2022-09-11T17:28:00Z</time>
      </trkpt>
      <trkpt lat="-11.5316760" lon="-76.6086440">
        <ele>3739.6</ele>
        <time>2022-09-11T17:28:03Z</time>
      </trkpt>
      <trkpt lat="-11.5317890" lon="-76.6088230">
        <ele>3739.4</ele>
        <time>2022-09-11T17:28:06Z</time>
      </trkpt>
      <trkpt lat="-11.5318590" lon="-76.6090200">
        <ele>3739.3</ele>
        <time>2022-09-11T17:28:09Z</time>
      </trkpt>
      <trkpt lat="-11.5319310" lon="-76.6092020">
        <ele>3739.1</ele>
        <time>2022-09-11T17:28:12Z</time>
      </trkpt>
      <trkpt lat="-11.5320060" lon="-76.6093820">
        <ele>3738.9</ele>
        <time>2022-09-11T17:28:15Z</time>
      </trkpt>
      <trkpt lat="-11.5320620" lon="-76.6095020">
        <ele>3738.8</ele>
        <time>2022-09-11T17:28:17Z</time>
      </trkpt>
      <trkpt lat="-11.5321740" lon="-76.6096830">
        <ele>3738.6</ele>
        <time>2022-09-11T17:28:20Z</time>
      </trkpt>
      <trkpt lat="-11.5322510" lon="-76.6098830">
        <ele>3738.4</ele>
        <time>2022-09-11T17:28:23Z</time>
      </trkpt>
      <trkpt lat="-11.5322580" lon="-76.6100820">
        <ele>3738.2</ele>
        <time>2022-09-11T17:28:26Z</time>
      </trkpt>
      <trkpt lat="-11.5322710" lon="-76.6102680">
        <ele>3738.1</ele>
        <time>2022-09-11T17:28:29Z</time>
      </trkpt>
      <trkpt lat="-11.5323540" lon="-76.6104440">
        <ele>3737.9</ele>
        <time>2022-09-11T17:28:32Z</time>
      </trkpt>
      <trkpt lat="-11.5324560" lon="-76.6106250">
        <ele>3737.7</ele>
        <time>2022-09-11T17:28:35Z</time>
      </trkpt>
      <trkpt lat="-11.5326270" lon="-76.6107410">
        <ele>3737.5</ele>
        <time>2022-09-11T17:28:38Z</time>
      </trkpt>
      <trkpt lat="-11.5327270" lon="-76.6109280">
        <ele>3737.3</ele>
        <time>2022-09-11T17:28:41Z</time>
      </trkpt>
      <trkpt lat="-11.5327760" lon="-76.6110750">
        <ele>3737.2</ele>
        <time>2022-09-11T17:28:43Z</time>
      </trkpt>
      <trkpt lat="-11.5327960" lon="-76.6111510">
        <ele>3737.1</ele>
        <time>2022-09-11T17:28:44Z</time>
      </trkpt>
      <trkpt lat="-11.5328180" lon="-76.6113880">
        <ele>3736.9</ele>
        <time>2022-09-11T17:28:47Z</time>
      </trkpt>
      <trkpt lat="-11.5327640" lon="-76.6116220">
        <ele>3736.7</ele>
        <time>2022-09-11T17:28:50Z</time>
      </trkpt>
      <trkpt lat="-11.5327380" lon="-76.6118460">
        <ele>3736.5</ele>
        <time>2022-09-11T17:28:53Z</time>
      </trkpt>
      <trkpt lat="-11.5328090" lon="-76.6119830">
        <ele>3736.4</ele>
        <time>2022-09-11T17:28:55Z</time>
      </trkpt>
      <trkpt lat="-11.5328910" lon="-76.6121250">
        <ele>3736.2</ele>
        <time>2022-09-11T17:28:57Z</time>
      </trkpt>
      <trkpt lat="-11.5329190" lon="-76.6123540">
        <ele>3736.0</ele>
        <time>2022-09-11T17:29:00Z</time>
      </trkpt>
      <trkpt lat="-11.5328620" lon="-76.6125630">
        <ele>3735.8</ele>
        <time>2022-09-11T17:29:03Z</time>
      </trkpt>
      <trkpt lat="-11.5329040" lon="-76.6127560">
        <ele>3735.7</ele>
        <time>2022-09-11T17:29:06Z</time>
      </trkpt>
      <trkpt lat="-11.5329420" lon="-76.6128130">
        <ele>3735.6</ele>
        <time>2022-09-11T17:29:07Z</time>
      </trkpt>
      <trkpt lat="-11.5330320" lon="-76.6129240">
        <ele>3735.5</ele>
        <time>2022-09-11T17:29:09Z</time>
      </trkpt>
      <trkpt lat="-11.5331320" lon="-76.6130880">
        <ele>3735.3</ele>
        <time>2022-09-11T17:29:12Z</time>
      </trkpt>
      <trkpt lat="-11.5330960" lon="-76.6132180">
        <ele>3735.2</ele>
        <time>2022-09-11T17:29:14Z</time>
      </trkpt>
      <trkpt lat="-11.5330450" lon="-76.6133610">
        <ele>3735.0</ele>
        <time>2022-09-11T17:29:16Z</time>
      </trkpt>
      <trkpt lat="-11.5329300" lon="-76.6135630">
        <ele>3734.8</ele>
        <time>2022-09-11T17:29:19Z</time>
      </trkpt>
      <trkpt lat="-11.5329000" lon="-76.6137920">
        <ele>3734.6</ele>
        <time>2022-09-11T17:29:22Z</time>
      </trkpt>
      <trkpt lat="-11.5329100" lon="-76.6140150">
        <ele>3734.4</ele>
        <time>2022-09-11T17:29:25Z</time>
      </trkpt>
      <trkpt lat="-11.5329330" lon="-76.6141580">
        <ele>3734.3</ele>
        <time>2022-09-11T17:29:27Z</time>
      </trkpt>
      <trkpt lat="-11.5330160" lon="-76.6143240">
        <ele>3734.1</ele>
        <time>2022-09-11T17:29:30Z</time>
      </trkpt>
      <trkpt lat="-11.5330700" lon="-76.6144010">
        <ele>3734.1</ele>
        <time>2022-09-11T17:29:36Z</time>
      </trkpt>
      <trkpt lat="-11.5330930" lon="-76.6144200">
        <ele>3734.0</ele>
        <time>2022-09-11T17:30:14Z</time>
      </trkpt>
      <trkpt lat="-11.5331060" lon="-76.6144350">
        <ele>3734.0</ele>
        <time>2022-09-11T17:30:15Z</time>
      </trkpt>
      <trkpt lat="-11.5332740" lon="-76.6145280">
        <ele>3733.8</ele>
        <time>2022-09-11T17:30:21Z</time>
      </trkpt>
      <trkpt lat="-11.5334610" lon="-76.6145100">
        <ele>3733.7</ele>
        <time>2022-09-11T17:30:25Z</time>
      </trkpt>
      <trkpt lat="-11.5335100" lon="-76.6144910">
        <ele>3733.6</ele>
        <time>2022-09-11T17:30:26Z</time>
      </trkpt>
      <trkpt lat="-11.5335620" lon="-76.6144780">
        <ele>3733.6</ele>
        <time>2022-09-11T17:30:27Z</time>
      </trkpt>
      <trkpt lat="-11.5337510" lon="-76.6145600">
        <ele>3733.4</ele>
        <time>2022-09-11T17:30:31Z</time>
      </trkpt>
      <trkpt lat="-11.5339430" lon="-76.6145550">
        <ele>3733.2</ele>
        <time>2022-09-11T17:30:35Z</time>
      </trkpt>
      <trkpt lat="-11.5339930" lon="-76.6145300">
        <ele>3733.2</ele>
        <time>2022-09-11T17:30:36Z</time>
      </trkpt>
      <trkpt lat="-11.5341310" lon="-76.6144430">
        <ele>3733.0</ele>
        <time>2022-09-11T17:30:39Z</time>
      </trkpt>
      <trkpt lat="-11.5343460" lon="-76.6144030">
        <ele>3732.1</ele>
        <time>2022-09-11T17:30:43Z</time>
      </trkpt>
      <trkpt lat="-11.5345590" lon="-76.6144520">
        <ele>3730.8</ele>
        <time>2022-09-11T17:30:46Z</time>
      </trkpt>
      <trkpt lat="-11.5346320" lon="-76.6144870">
        <ele>3730.3</ele>
        <time>2022-09-11T17:30:47Z</time>
      </trkpt>
      <trkpt lat="-11.5347720" lon="-76.6145400">
        <ele>3729.5</ele>
        <time>2022-09-11T17:30:49Z</time>
      </trkpt>
      <trkpt lat="-11.5349390" lon="-76.6145260">
        <ele>3728.5</ele>
        <time>2022-09-11T17:30:52Z</time>
      </trkpt>
      <trkpt lat="-11.5350030" lon="-76.6146860">
        <ele>3727.5</ele>
        <time>2022-09-11T17:30:57Z</time>
      </trkpt>
      <trkpt lat="-11.5348540" lon="-76.6148060">
        <ele>3726.4</ele>
        <time>2022-09-11T17:31:01Z</time>
      </trkpt>
      <trkpt lat="-11.5347640" lon="-76.6148490">
        <ele>3725.8</ele>
        <time>2022-09-11T17:31:03Z</time>
      </trkpt>
      <trkpt lat="-11.5345770" lon="-76.6149190">
        <ele>3724.6</ele>
        <time>2022-09-11T17:31:08Z</time>
      </trkpt>
      <trkpt lat="-11.5345140" lon="-76.6151290">
        <ele>3723.4</ele>
        <time>2022-09-11T17:31:13Z</time>
      </trkpt>
      <trkpt lat="-11.5346230" lon="-76.6153270">
        <ele>3722.0</ele>
        <time>2022-09-11T17:31:18Z</time>
      </trkpt>
      <trkpt lat="-11.5345380" lon="-76.6154710">
        <ele>3721.1</ele>
        <time>2022-09-11T17:31:23Z</time>
      </trkpt>
      <trkpt lat="-11.5343600" lon="-76.6155700">
        <ele>3719.9</ele>
        <time>2022-09-11T17:31:27Z</time>
      </trkpt>
      <trkpt lat="-11.5343070" lon="-76.6155910">
        <ele>3719.6</ele>
        <time>2022-09-11T17:31:28Z</time>
      </trkpt>
      <trkpt lat="-11.5341050" lon="-76.6156790">
        <ele>3718.3</ele>
        <time>2022-09-11T17:31:32Z</time>
      </trkpt>
      <trkpt lat="-11.5340310" lon="-76.6158560">
        <ele>3717.2</ele>
        <time>2022-09-11T17:31:35Z</time>
      </trkpt>
      <trkpt lat="-11.5339720" lon="-76.6160440">
        <ele>3716.0</ele>
        <time>2022-09-11T17:31:38Z</time>
      </trkpt>
      <trkpt lat="-11.5339610" lon="-76.6161100">
        <ele>3715.7</ele>
        <time>2022-09-11T17:31:39Z</time>
      </trkpt>
      <trkpt lat="-11.5340210" lon="-76.6163090">
        <ele>3714.5</ele>
        <time>2022-09-11T17:31:42Z</time>
      </trkpt>
      <trkpt lat="-11.5340520" lon="-76.6163790">
        <ele>3714.0</ele>
        <time>2022-09-11T17:31:43Z</time>
      </trkpt>
      <trkpt lat="-11.5340990" lon="-76.6165260">
        <ele>3713.1</ele>
        <time>2022-09-11T17:31:45Z</time>
      </trkpt>
      <trkpt lat="-11.5341910" lon="-76.6167420">
        <ele>3711.8</ele>
        <time>2022-09-11T17:31:48Z</time>
      </trkpt>
      <trkpt lat="-11.5342390" lon="-76.6168070">
        <ele>3711.3</ele>
        <time>2022-09-11T17:31:49Z</time>
      </trkpt>
      <trkpt lat="-11.5343740" lon="-76.6170290">
        <ele>3709.8</ele>
        <time>2022-09-11T17:31:52Z</time>
      </trkpt>
      <trkpt lat="-11.5345110" lon="-76.6172500">
        <ele>3708.3</ele>
        <time>2022-09-11T17:31:55Z</time>
      </trkpt>
      <trkpt lat="-11.5346640" lon="-76.6174780">
        <ele>3706.7</ele>
        <time>2022-09-11T17:31:58Z</time>
      </trkpt>
      <trkpt lat="-11.5347580" lon="-76.6176850">
        <ele>3705.4</ele>
        <time>2022-09-11T17:32:01Z</time>
      </trkpt>
      <trkpt lat="-11.5347270" lon="-76.6179020">
        <ele>3704.1</ele>
        <time>2022-09-11T17:32:05Z</time>
      </trkpt>
      <trkpt lat="-11.5347310" lon="-76.6179680">
        <ele>3703.8</ele>
        <time>2022-09-11T17:32:06Z</time>
      </trkpt>
      <trkpt lat="-11.5347300" lon="-76.6181100">
        <ele>3702.9</ele>
        <time>2022-09-11T17:32:08Z</time>
      </trkpt>
      <trkpt lat="-11.5347020" lon="-76.6183260">
        <ele>3701.7</ele>
        <time>2022-09-11T17:32:11Z</time>
      </trkpt>
      <trkpt lat="-11.5347000" lon="-76.6184750">
        <ele>3700.8</ele>
        <time>2022-09-11T17:32:13Z</time>
      </trkpt>
      <trkpt lat="-11.5347480" lon="-76.6186960">
        <ele>3699.5</ele>
        <time>2022-09-11T17:32:16Z</time>
      </trkpt>
      <trkpt lat="-11.5347710" lon="-76.6188540">
        <ele>3698.6</ele>
        <time>2022-09-11T17:32:18Z</time>
      </trkpt>
      <trkpt lat="-11.5347740" lon="-76.6190700">
        <ele>3697.4</ele>
        <time>2022-09-11T17:32:21Z</time>
      </trkpt>
      <trkpt lat="-11.5347930" lon="-76.6191320">
        <ele>3697.0</ele>
        <time>2022-09-11T17:32:22Z</time>
      </trkpt>
      <trkpt lat="-11.5348090" lon="-76.6192000">
        <ele>3696.6</ele>
        <time>2022-09-11T17:32:23Z</time>
      </trkpt>
      <trkpt lat="-11.5347890" lon="-76.6194150">
        <ele>3695.4</ele>
        <time>2022-09-11T17:32:26Z</time>
      </trkpt>
      <trkpt lat="-11.5347620" lon="-76.6196410">
        <ele>3694.1</ele>
        <time>2022-09-11T17:32:29Z</time>
      </trkpt>
      <trkpt lat="-11.5346900" lon="-76.6198660">
        <ele>3692.7</ele>
        <time>2022-09-11T17:32:32Z</time>
      </trkpt>
      <trkpt lat="-11.5346560" lon="-76.6200130">
        <ele>3691.8</ele>
        <time>2022-09-11T17:32:34Z</time>
      </trkpt>
      <trkpt lat="-11.5346870" lon="-76.6202410">
        <ele>3690.5</ele>
        <time>2022-09-11T17:32:37Z</time>
      </trkpt>
      <trkpt lat="-11.5347150" lon="-76.6203200">
        <ele>3690.0</ele>
        <time>2022-09-11T17:32:38Z</time>
      </trkpt>
      <trkpt lat="-11.5348200" lon="-76.6205410">
        <ele>3688.6</ele>
        <time>2022-09-11T17:32:41Z</time>
      </trkpt>
      <trkpt lat="-11.5350210" lon="-76.6206500">
        <ele>3687.3</ele>
        <time>2022-09-11T17:32:44Z</time>
      </trkpt>
      <trkpt lat="-11.5352620" lon="-76.6207430">
        <ele>3685.8</ele>
        <time>2022-09-11T17:32:47Z</time>
      </trkpt>
      <trkpt lat="-11.5353400" lon="-76.6207890">
        <ele>3685.2</ele>
        <time>2022-09-11T17:32:48Z</time>
      </trkpt>
      <trkpt lat="-11.5354990" lon="-76.6208810">
        <ele>3684.2</ele>
        <time>2022-09-11T17:32:50Z</time>
      </trkpt>
      <trkpt lat="-11.5357120" lon="-76.6210130">
        <ele>3682.7</ele>
        <time>2022-09-11T17:32:53Z</time>
      </trkpt>
      <trkpt lat="-11.5358760" lon="-76.6211210">
        <ele>3681.5</ele>
        <time>2022-09-11T17:32:57Z</time>
      </trkpt>
      <trkpt lat="-11.5359520" lon="-76.6211450">
        <ele>3680.9</ele>
        <time>2022-09-11T17:32:59Z</time>
      </trkpt>
      <trkpt lat="-11.5360700" lon="-76.6212040">
        <ele>3680.0</ele>
        <time>2022-09-11T17:33:02Z</time>
      </trkpt>
      <trkpt lat="-11.5361520" lon="-76.6212460">
        <ele>3679.3</ele>
        <time>2022-09-11T17:33:04Z</time>
      </trkpt>
      <trkpt lat="-11.5362830" lon="-76.6214480">
        <ele>3677.4</ele>
        <time>2022-09-11T17:33:08Z</time>
      </trkpt>
      <trkpt lat="-11.5363850" lon="-76.6216420">
        <ele>3675.4</ele>
        <time>2022-09-11T17:33:11Z</time>
      </trkpt>
      <trkpt lat="-11.5365040" lon="-76.6218400">
        <ele>3673.4</ele>
        <time>2022-09-11T17:33:14Z</time>
      </trkpt>
      <trkpt lat="-11.5366200" lon="-76.6220530">
        <ele>3672.3</ele>
        <time>2022-09-11T17:33:17Z</time>
      </trkpt>
      <trkpt lat="-11.5367580" lon="-76.6222610">
        <ele>3671.3</ele>
        <time>2022-09-11T17:33:20Z</time>
      </trkpt>
      <trkpt lat="-11.5368080" lon="-76.6223240">
        <ele>3670.9</ele>
        <time>2022-09-11T17:33:21Z</time>
      </trkpt>
      <trkpt lat="-11.5370260" lon="-76.6223950">
        <ele>3668.8</ele>
        <time>2022-09-11T17:33:24Z</time>
      </trkpt>
      <trkpt lat="-11.5371890" lon="-76.6224050">
        <ele>3667.2</ele>
        <time>2022-09-11T17:33:26Z</time>
      </trkpt>
      <trkpt lat="-11.5374370" lon="-76.6224090">
        <ele>3664.9</ele>
        <time>2022-09-11T17:33:29Z</time>
      </trkpt>
      <trkpt lat="-11.5376770" lon="-76.6224250">
        <ele>3663.3</ele>
        <time>2022-09-11T17:33:32Z</time>
      </trkpt>
      <trkpt lat="-11.5379310" lon="-76.6224230">
        <ele>3661.6</ele>
        <time>2022-09-11T17:33:35Z</time>
      </trkpt>
      <trkpt lat="-11.5380150" lon="-76.6224090">
        <ele>3661.1</ele>
        <time>2022-09-11T17:33:36Z</time>
      </trkpt>
      <trkpt lat="-11.5382540" lon="-76.6223260">
        <ele>3659.9</ele>
        <time>2022-09-11T17:33:39Z</time>
      </trkpt>
      <trkpt lat="-11.5385100" lon="-76.6222570">
        <ele>3658.6</ele>
        <time>2022-09-11T17:33:42Z</time>
      </trkpt>
      <trkpt lat="-11.5386890" lon="-76.6222450">
        <ele>3657.6</ele>
        <time>2022-09-11T17:33:44Z</time>
      </trkpt>
      <trkpt lat="-11.5389490" lon="-76.6222990">
        <ele>3656.5</ele>
        <time>2022-09-11T17:33:47Z</time>
      </trkpt>
      <trkpt lat="-11.5391720" lon="-76.6223680">
        <ele>3654.8</ele>
        <time>2022-09-11T17:33:50Z</time>
      </trkpt>
      <trkpt lat="-11.5392180" lon="-76.6224080">
        <ele>3654.1</ele>
        <time>2022-09-11T17:33:52Z</time>
      </trkpt>
      <trkpt lat="-11.5392000" lon="-76.6224680">
        <ele>3654.0</ele>
        <time>2022-09-11T17:33:57Z</time>
      </trkpt>
      <trkpt lat="-11.5390800" lon="-76.6224200">
        <ele>3653.8</ele>
        <time>2022-09-11T17:44:10Z</time>
      </trkpt>
      <trkpt lat="-11.5390620" lon="-76.6224170">
        <ele>3653.8</ele>
        <time>2022-09-11T17:44:11Z</time>
      </trkpt>
      <trkpt lat="-11.5388800" lon="-76.6223620">
        <ele>3653.5</ele>
        <time>2022-09-11T17:44:18Z</time>
      </trkpt>
      <trkpt lat="-11.5387250" lon="-76.6223430">
        <ele>3653.2</ele>
        <time>2022-09-11T17:44:23Z</time>
      </trkpt>
      <trkpt lat="-11.5386150" lon="-76.6223430">
        <ele>3652.9</ele>
        <time>2022-09-11T17:44:26Z</time>
      </trkpt>
      <trkpt lat="-11.5384180" lon="-76.6224010">
        <ele>3652.2</ele>
        <time>2022-09-11T17:44:31Z</time>
      </trkpt>
      <trkpt lat="-11.5382310" lon="-76.6224800">
        <ele>3651.3</ele>
        <time>2022-09-11T17:44:35Z</time>
      </trkpt>
      <trkpt lat="-11.5380210" lon="-76.6225690">
        <ele>3650.4</ele>
        <time>2022-09-11T17:44:39Z</time>
      </trkpt>
      <trkpt lat="-11.5378560" lon="-76.6226220">
        <ele>3649.6</ele>
        <time>2022-09-11T17:44:42Z</time>
      </trkpt>
      <trkpt lat="-11.5376760" lon="-76.6226630">
        <ele>3648.7</ele>
        <time>2022-09-11T17:44:45Z</time>
      </trkpt>
      <trkpt lat="-11.5374810" lon="-76.6226980">
        <ele>3647.9</ele>
        <time>2022-09-11T17:44:48Z</time>
      </trkpt>
      <trkpt lat="-11.5372890" lon="-76.6227400">
        <ele>3647.2</ele>
        <time>2022-09-11T17:44:51Z</time>
      </trkpt>
      <trkpt lat="-11.5370960" lon="-76.6228280">
        <ele>3646.6</ele>
        <time>2022-09-11T17:44:55Z</time>
      </trkpt>
      <trkpt lat="-11.5369310" lon="-76.6229280">
        <ele>3645.8</ele>
        <time>2022-09-11T17:44:59Z</time>
      </trkpt>
      <trkpt lat="-11.5367550" lon="-76.6229770">
        <ele>3644.7</ele>
        <time>2022-09-11T17:45:04Z</time>
      </trkpt>
      <trkpt lat="-11.5366390" lon="-76.6229620">
        <ele>3643.9</ele>
        <time>2022-09-11T17:45:07Z</time>
      </trkpt>
      <trkpt lat="-11.5365480" lon="-76.6229310">
        <ele>3643.3</ele>
        <time>2022-09-11T17:45:09Z</time>
      </trkpt>
      <trkpt lat="-11.5363800" lon="-76.6228520">
        <ele>3642.1</ele>
        <time>2022-09-11T17:45:12Z</time>
      </trkpt>
      <trkpt lat="-11.5361730" lon="-76.6227660">
        <ele>3640.8</ele>
        <time>2022-09-11T17:45:15Z</time>
      </trkpt>
      <trkpt lat="-11.5360290" lon="-76.6226930">
        <ele>3640.0</ele>
        <time>2022-09-11T17:45:17Z</time>
      </trkpt>
      <trkpt lat="-11.5358260" lon="-76.6225230">
        <ele>3638.8</ele>
        <time>2022-09-11T17:45:20Z</time>
      </trkpt>
      <trkpt lat="-11.5357610" lon="-76.6224570">
        <ele>3638.4</ele>
        <time>2022-09-11T17:45:21Z</time>
      </trkpt>
      <trkpt lat="-11.5356290" lon="-76.6223370">
        <ele>3637.7</ele>
        <time>2022-09-11T17:45:23Z</time>
      </trkpt>
      <trkpt lat="-11.5354010" lon="-76.6223030">
        <ele>3636.9</ele>
        <time>2022-09-11T17:45:26Z</time>
      </trkpt>
      <trkpt lat="-11.5353220" lon="-76.6223290">
        <ele>3636.5</ele>
        <time>2022-09-11T17:45:27Z</time>
      </trkpt>
      <trkpt lat="-11.5352390" lon="-76.6223500">
        <ele>3636.2</ele>
        <time>2022-09-11T17:45:28Z</time>
      </trkpt>
      <trkpt lat="-11.5349700" lon="-76.6223790">
        <ele>3635.1</ele>
        <time>2022-09-11T17:45:31Z</time>
      </trkpt>
      <trkpt lat="-11.5348770" lon="-76.6223960">
        <ele>3634.8</ele>
        <time>2022-09-11T17:45:32Z</time>
      </trkpt>
      <trkpt lat="-11.5346980" lon="-76.6224580">
        <ele>3634.1</ele>
        <time>2022-09-11T17:45:34Z</time>
      </trkpt>
      <trkpt lat="-11.5345370" lon="-76.6225260">
        <ele>3633.1</ele>
        <time>2022-09-11T17:45:36Z</time>
      </trkpt>
      <trkpt lat="-11.5342790" lon="-76.6225090">
        <ele>3631.4</ele>
        <time>2022-09-11T17:45:39Z</time>
      </trkpt>
      <trkpt lat="-11.5341170" lon="-76.6224270">
        <ele>3630.0</ele>
        <time>2022-09-11T17:45:41Z</time>
      </trkpt>
      <trkpt lat="-11.5339870" lon="-76.6222950">
        <ele>3628.6</ele>
        <time>2022-09-11T17:45:43Z</time>
      </trkpt>
      <trkpt lat="-11.5339120" lon="-76.6221170">
        <ele>3627.1</ele>
        <time>2022-09-11T17:45:45Z</time>
      </trkpt>
      <trkpt lat="-11.5338620" lon="-76.6219280">
        <ele>3625.6</ele>
        <time>2022-09-11T17:45:47Z</time>
      </trkpt>
      <trkpt lat="-11.5337690" lon="-76.6217610">
        <ele>3624.6</ele>
        <time>2022-09-11T17:45:49Z</time>
      </trkpt>
      <trkpt lat="-11.5336300" lon="-76.6216220">
        <ele>3623.8</ele>
        <time>2022-09-11T17:45:51Z</time>
      </trkpt>
      <trkpt lat="-11.5335520" lon="-76.6215590">
        <ele>3623.5</ele>
        <time>2022-09-11T17:45:52Z</time>
      </trkpt>
      <trkpt lat="-11.5334010" lon="-76.6214300">
        <ele>3622.9</ele>
        <time>2022-09-11T17:45:54Z</time>
      </trkpt>
      <trkpt lat="-11.5332920" lon="-76.6212750">
        <ele>3622.3</ele>
        <time>2022-09-11T17:45:56Z</time>
      </trkpt>
      <trkpt lat="-11.5332600" lon="-76.6210960">
        <ele>3621.1</ele>
        <time>2022-09-11T17:45:58Z</time>
      </trkpt>
      <trkpt lat="-11.5333200" lon="-76.6209000">
        <ele>3619.8</ele>
        <time>2022-09-11T17:46:00Z</time>
      </trkpt>
      <trkpt lat="-11.5333610" lon="-76.6207990">
        <ele>3619.2</ele>
        <time>2022-09-11T17:46:01Z</time>
      </trkpt>
      <trkpt lat="-11.5334400" lon="-76.6205940">
        <ele>3618.0</ele>
        <time>2022-09-11T17:46:03Z</time>
      </trkpt>
      <trkpt lat="-11.5334960" lon="-76.6203960">
        <ele>3617.1</ele>
        <time>2022-09-11T17:46:05Z</time>
      </trkpt>
      <trkpt lat="-11.5334580" lon="-76.6202150">
        <ele>3616.3</ele>
        <time>2022-09-11T17:46:07Z</time>
      </trkpt>
      <trkpt lat="-11.5333170" lon="-76.6200960">
        <ele>3615.6</ele>
        <time>2022-09-11T17:46:09Z</time>
      </trkpt>
      <trkpt lat="-11.5331480" lon="-76.6200080">
        <ele>3614.6</ele>
        <time>2022-09-11T17:46:11Z</time>
      </trkpt>
      <trkpt lat="-11.5329700" lon="-76.6199190">
        <ele>3613.5</ele>
        <time>2022-09-11T17:46:13Z</time>
      </trkpt>
      <trkpt lat="-11.5327890" lon="-76.6198190">
        <ele>3612.3</ele>
        <time>2022-09-11T17:46:15Z</time>
      </trkpt>
      <trkpt lat="-11.5326970" lon="-76.6197740">
        <ele>3611.8</ele>
        <time>2022-09-11T17:46:16Z</time>
      </trkpt>
      <trkpt lat="-11.5325200" lon="-76.6197070">
        <ele>3610.7</ele>
        <time>2022-09-11T17:46:18Z</time>
      </trkpt>
      <trkpt lat="-11.5323620" lon="-76.6195470">
        <ele>3609.4</ele>
        <time>2022-09-11T17:46:21Z</time>
      </trkpt>
      <trkpt lat="-11.5323420" lon="-76.6193280">
        <ele>3608.2</ele>
        <time>2022-09-11T17:46:24Z</time>
      </trkpt>
      <trkpt lat="-11.5324660" lon="-76.6191350">
        <ele>3606.8</ele>
        <time>2022-09-11T17:46:27Z</time>
      </trkpt>
      <trkpt lat="-11.5325250" lon="-76.6190730">
        <ele>3606.3</ele>
        <time>2022-09-11T17:46:28Z</time>
      </trkpt>
      <trkpt lat="-11.5326760" lon="-76.6188640">
        <ele>3604.8</ele>
        <time>2022-09-11T17:46:31Z</time>
      </trkpt>
      <trkpt lat="-11.5327020" lon="-76.6186380">
        <ele>3603.5</ele>
        <time>2022-09-11T17:46:34Z</time>
      </trkpt>
      <trkpt lat="-11.5325720" lon="-76.6184520">
        <ele>3602.2</ele>
        <time>2022-09-11T17:46:37Z</time>
      </trkpt>
      <trkpt lat="-11.5323820" lon="-76.6183170">
        <ele>3600.8</ele>
        <time>2022-09-11T17:46:40Z</time>
      </trkpt>
      <trkpt lat="-11.5322290" lon="-76.6182510">
        <ele>3599.9</ele>
        <time>2022-09-11T17:46:42Z</time>
      </trkpt>
      <trkpt lat="-11.5321620" lon="-76.6182100">
        <ele>3599.4</ele>
        <time>2022-09-11T17:46:43Z</time>
      </trkpt>
      <trkpt lat="-11.5320010" lon="-76.6180420">
        <ele>3598.1</ele>
        <time>2022-09-11T17:46:46Z</time>
      </trkpt>
      <trkpt lat="-11.5319260" lon="-76.6178500">
        <ele>3596.9</ele>
        <time>2022-09-11T17:46:49Z</time>
      </trkpt>
      <trkpt lat="-11.5320100" lon="-76.6176620">
        <ele>3595.7</ele>
        <time>2022-09-11T17:46:52Z</time>
      </trkpt>
      <trkpt lat="-11.5320510" lon="-76.6175970">
        <ele>3595.2</ele>
        <time>2022-09-11T17:46:53Z</time>
      </trkpt>
      <trkpt lat="-11.5321270" lon="-76.6174680">
        <ele>3594.4</ele>
        <time>2022-09-11T17:46:55Z</time>
      </trkpt>
      <trkpt lat="-11.5321390" lon="-76.6172350">
        <ele>3593.1</ele>
        <time>2022-09-11T17:46:59Z</time>
      </trkpt>
      <trkpt lat="-11.5320330" lon="-76.6171750">
        <ele>3592.4</ele>
        <time>2022-09-11T17:47:04Z</time>
      </trkpt>
      <trkpt lat="-11.5320330" lon="-76.6171680">
        <ele>3592.3</ele>
        <time>2022-09-11T17:47:06Z</time>
      </trkpt>
      <trkpt lat="-11.5319640" lon="-76.6171890">
        <ele>3591.9</ele>
        <time>2022-09-11T17:47:17Z</time>
      </trkpt>
      <trkpt lat="-11.5317530" lon="-76.6172420">
        <ele>3590.6</ele>
        <time>2022-09-11T17:47:23Z</time>
      </trkpt>
      <trkpt lat="-11.5315810" lon="-76.6172720">
        <ele>3589.5</ele>
        <time>2022-09-11T17:47:26Z</time>
      </trkpt>
      <trkpt lat="-11.5313500" lon="-76.6173430">
        <ele>3588.2</ele>
        <time>2022-09-11T17:47:30Z</time>
      </trkpt>
      <trkpt lat="-11.5311800" lon="-76.6174600">
        <ele>3587.0</ele>
        <time>2022-09-11T17:47:33Z</time>
      </trkpt>
      <trkpt lat="-11.5311270" lon="-76.6175140">
        <ele>3586.5</ele>
        <time>2022-09-11T17:47:34Z</time>
      </trkpt>
      <trkpt lat="-11.5309610" lon="-76.6177020">
        <ele>3585.1</ele>
        <time>2022-09-11T17:47:37Z</time>
      </trkpt>
      <trkpt lat="-11.5308970" lon="-76.6177680">
        <ele>3584.5</ele>
        <time>2022-09-11T17:47:38Z</time>
      </trkpt>
      <trkpt lat="-11.5307550" lon="-76.6178870">
        <ele>3583.5</ele>
        <time>2022-09-11T17:47:40Z</time>
      </trkpt>
      <trkpt lat="-11.5305950" lon="-76.6179930">
        <ele>3582.3</ele>
        <time>2022-09-11T17:47:42Z</time>
      </trkpt>
      <trkpt lat="-11.5305110" lon="-76.6180430">
        <ele>3581.8</ele>
        <time>2022-09-11T17:47:43Z</time>
      </trkpt>
      <trkpt lat="-11.5303460" lon="-76.6181450">
        <ele>3580.7</ele>
        <time>2022-09-11T17:47:45Z</time>
      </trkpt>
      <trkpt lat="-11.5301820" lon="-76.6182540">
        <ele>3579.5</ele>
        <time>2022-09-11T17:47:47Z</time>
      </trkpt>
      <trkpt lat="-11.5300060" lon="-76.6183490">
        <ele>3578.3</ele>
        <time>2022-09-11T17:47:49Z</time>
      </trkpt>
      <trkpt lat="-11.5298170" lon="-76.6184250">
        <ele>3577.1</ele>
        <time>2022-09-11T17:47:51Z</time>
      </trkpt>
      <trkpt lat="-11.5296270" lon="-76.6184970">
        <ele>3575.9</ele>
        <time>2022-09-11T17:47:53Z</time>
      </trkpt>
      <trkpt lat="-11.5294430" lon="-76.6185770">
        <ele>3574.7</ele>
        <time>2022-09-11T17:47:55Z</time>
      </trkpt>
      <trkpt lat="-11.5293550" lon="-76.6186270">
        <ele>3574.1</ele>
        <time>2022-09-11T17:47:56Z</time>
      </trkpt>
      <trkpt lat="-11.5291950" lon="-76.6187430">
        <ele>3573.0</ele>
        <time>2022-09-11T17:47:58Z</time>
      </trkpt>
      <trkpt lat="-11.5290410" lon="-76.6188560">
        <ele>3571.9</ele>
        <time>2022-09-11T17:48:00Z</time>
      </trkpt>
      <trkpt lat="-11.5288700" lon="-76.6189380">
        <ele>3570.8</ele>
        <time>2022-09-11T17:48:02Z</time>
      </trkpt>
      <trkpt lat="-11.5286930" lon="-76.6189980">
        <ele>3569.7</ele>
        <time>2022-09-11T17:48:04Z</time>
      </trkpt>
      <trkpt lat="-11.5285120" lon="-76.6190240">
        <ele>3568.6</ele>
        <time>2022-09-11T17:48:06Z</time>
      </trkpt>
      <trkpt lat="-11.5283290" lon="-76.6190340">
        <ele>3567.5</ele>
        <time>2022-09-11T17:48:08Z</time>
      </trkpt>
      <trkpt lat="-11.5281410" lon="-76.6190520">
        <ele>3566.4</ele>
        <time>2022-09-11T17:48:10Z</time>
      </trkpt>
      <trkpt lat="-11.5279580" lon="-76.6190800">
        <ele>3565.4</ele>
        <time>2022-09-11T17:48:12Z</time>
      </trkpt>
      <trkpt lat="-11.5278750" lon="-76.6190830">
        <ele>3564.9</ele>
        <time>2022-09-11T17:48:13Z</time>
      </trkpt>
      <trkpt lat="-11.5276370" lon="-76.6190390">
        <ele>3563.4</ele>
        <time>2022-09-11T17:48:16Z</time>
      </trkpt>
      <trkpt lat="-11.5274850" lon="-76.6189820">
        <ele>3562.5</ele>
        <time>2022-09-11T17:48:18Z</time>
      </trkpt>
      <trkpt lat="-11.5272750" lon="-76.6188350">
        <ele>3561.0</ele>
        <time>2022-09-11T17:48:21Z</time>
      </trkpt>
      <trkpt lat="-11.5271260" lon="-76.6187360">
        <ele>3559.8</ele>
        <time>2022-09-11T17:48:23Z</time>
      </trkpt>
      <trkpt lat="-11.5268880" lon="-76.6186510">
        <ele>3558.0</ele>
        <time>2022-09-11T17:48:26Z</time>
      </trkpt>
      <trkpt lat="-11.5266360" lon="-76.6186620">
        <ele>3556.2</ele>
        <time>2022-09-11T17:48:29Z</time>
      </trkpt>
      <trkpt lat="-11.5264690" lon="-76.6187400">
        <ele>3555.2</ele>
        <time>2022-09-11T17:48:31Z</time>
      </trkpt>
      <trkpt lat="-11.5263110" lon="-76.6188420">
        <ele>3554.5</ele>
        <time>2022-09-11T17:48:33Z</time>
      </trkpt>
      <trkpt lat="-11.5261570" lon="-76.6189230">
        <ele>3553.8</ele>
        <time>2022-09-11T17:48:35Z</time>
      </trkpt>
      <trkpt lat="-11.5259150" lon="-76.6189580">
        <ele>3552.5</ele>
        <time>2022-09-11T17:48:38Z</time>
      </trkpt>
      <trkpt lat="-11.5256580" lon="-76.6189210">
        <ele>3550.7</ele>
        <time>2022-09-11T17:48:41Z</time>
      </trkpt>
      <trkpt lat="-11.5255710" lon="-76.6188960">
        <ele>3550.1</ele>
        <time>2022-09-11T17:48:42Z</time>
      </trkpt>
      <trkpt lat="-11.5253910" lon="-76.6188550">
        <ele>3548.7</ele>
        <time>2022-09-11T17:48:44Z</time>
      </trkpt>
      <trkpt lat="-11.5251990" lon="-76.6188320">
        <ele>3547.3</ele>
        <time>2022-09-11T17:48:46Z</time>
      </trkpt>
      <trkpt lat="-11.5249990" lon="-76.6188240">
        <ele>3545.8</ele>
        <time>2022-09-11T17:48:48Z</time>
      </trkpt>
      <trkpt lat="-11.5248980" lon="-76.6188120">
        <ele>3544.9</ele>
        <time>2022-09-11T17:48:49Z</time>
      </trkpt>
      <trkpt lat="-11.5246970" lon="-76.6187660">
        <ele>3543.0</ele>
        <time>2022-09-11T17:48:51Z</time>
      </trkpt>
      <trkpt lat="-11.5246020" lon="-76.6187340">
        <ele>3542.1</ele>
        <time>2022-09-11T17:48:52Z</time>
      </trkpt>
      <trkpt lat="-11.5244230" lon="-76.6186470">
        <ele>3540.6</ele>
        <time>2022-09-11T17:48:54Z</time>
      </trkpt>
      <trkpt lat="-11.5242540" lon="-76.6185330">
        <ele>3538.8</ele>
        <time>2022-09-11T17:48:56Z</time>
      </trkpt>
      <trkpt lat="-11.5240830" lon="-76.6184150">
        <ele>3536.7</ele>
        <time>2022-09-11T17:48:58Z</time>
      </trkpt>
      <trkpt lat="-11.5239170" lon="-76.6183170">
        <ele>3534.8</ele>
        <time>2022-09-11T17:49:00Z</time>
      </trkpt>
      <trkpt lat="-11.5237840" lon="-76.6182210">
        <ele>3533.1</ele>
        <time>2022-09-11T17:49:02Z</time>
      </trkpt>
      <trkpt lat="-11.5236140" lon="-76.6180310">
        <ele>3530.6</ele>
        <time>2022-09-11T17:49:05Z</time>
      </trkpt>
      <trkpt lat="-11.5234470" lon="-76.6179380">
        <ele>3529.2</ele>
        <time>2022-09-11T17:49:07Z</time>
      </trkpt>
      <trkpt lat="-11.5232470" lon="-76.6178890">
        <ele>3527.8</ele>
        <time>2022-09-11T17:49:09Z</time>
      </trkpt>
      <trkpt lat="-11.5230530" lon="-76.6178660">
        <ele>3526.6</ele>
        <time>2022-09-11T17:49:11Z</time>
      </trkpt>
      <trkpt lat="-11.5228810" lon="-76.6178310">
        <ele>3525.4</ele>
        <time>2022-09-11T17:49:13Z</time>
      </trkpt>
      <trkpt lat="-11.5226640" lon="-76.6176970">
        <ele>3523.2</ele>
        <time>2022-09-11T17:49:16Z</time>
      </trkpt>
      <trkpt lat="-11.5224680" lon="-76.6175200">
        <ele>3521.0</ele>
        <time>2022-09-11T17:49:19Z</time>
      </trkpt>
      <trkpt lat="-11.5223010" lon="-76.6174490">
        <ele>3519.7</ele>
        <time>2022-09-11T17:49:21Z</time>
      </trkpt>
      <trkpt lat="-11.5222230" lon="-76.6174200">
        <ele>3519.2</ele>
        <time>2022-09-11T17:49:22Z</time>
      </trkpt>
      <trkpt lat="-11.5221520" lon="-76.6173840">
        <ele>3518.6</ele>
        <time>2022-09-11T17:49:23Z</time>
      </trkpt>
      <trkpt lat="-11.5219790" lon="-76.6172270">
        <ele>3516.8</ele>
        <time>2022-09-11T17:49:26Z</time>
      </trkpt>
      <trkpt lat="-11.5218030" lon="-76.6171870">
        <ele>3515.7</ele>
        <time>2022-09-11T17:49:29Z</time>
      </trkpt>
      <trkpt lat="-11.5216790" lon="-76.6173290">
        <ele>3514.8</ele>
        <time>2022-09-11T17:49:32Z</time>
      </trkpt>
      <trkpt lat="-11.5216660" lon="-76.6175110">
        <ele>3513.9</ele>
        <time>2022-09-11T17:49:35Z</time>
      </trkpt>
      <trkpt lat="-11.5217480" lon="-76.6176950">
        <ele>3512.7</ele>
        <time>2022-09-11T17:49:38Z</time>
      </trkpt>
      <trkpt lat="-11.5217850" lon="-76.6177540">
        <ele>3512.2</ele>
        <time>2022-09-11T17:49:39Z</time>
      </trkpt>
      <trkpt lat="-11.5218750" lon="-76.6178680">
        <ele>3511.3</ele>
        <time>2022-09-11T17:49:41Z</time>
      </trkpt>
      <trkpt lat="-11.5220330" lon="-76.6180240">
        <ele>3510.0</ele>
        <time>2022-09-11T17:49:44Z</time>
      </trkpt>
      <trkpt lat="-11.5220810" lon="-76.6180820">
        <ele>3509.5</ele>
        <time>2022-09-11T17:49:45Z</time>
      </trkpt>
      <trkpt lat="-11.5221870" lon="-76.6182750">
        <ele>3507.8</ele>
        <time>2022-09-11T17:49:48Z</time>
      </trkpt>
      <trkpt lat="-11.5222090" lon="-76.6184860">
        <ele>3505.7</ele>
        <time>2022-09-11T17:49:51Z</time>
      </trkpt>
      <trkpt lat="-11.5222030" lon="-76.6186130">
        <ele>3504.6</ele>
        <time>2022-09-11T17:49:53Z</time>
      </trkpt>
      <trkpt lat="-11.5220520" lon="-76.6186750">
        <ele>3503.0</ele>
        <time>2022-09-11T17:49:57Z</time>
      </trkpt>
      <trkpt lat="-11.5219440" lon="-76.6185240">
        <ele>3501.4</ele>
        <time>2022-09-11T17:50:00Z</time>
      </trkpt>
      <trkpt lat="-11.5218150" lon="-76.6183250">
        <ele>3499.8</ele>
        <time>2022-09-11T17:50:03Z</time>
      </trkpt>
      <trkpt lat="-11.5216740" lon="-76.6180900">
        <ele>3498.5</ele>
        <time>2022-09-11T17:50:06Z</time>
      </trkpt>
      <trkpt lat="-11.5216390" lon="-76.6180030">
        <ele>3498.4</ele>
        <time>2022-09-11T17:50:07Z</time>
      </trkpt>
      <trkpt lat="-11.5215350" lon="-76.6177840">
        <ele>3498.9</ele>
        <time>2022-09-11T17:50:10Z</time>
      </trkpt>
      <trkpt lat="-11.5213630" lon="-76.6178010">
        <ele>3496.8</ele>
        <time>2022-09-11T17:50:14Z</time>
      </trkpt>
      <trkpt lat="-11.5213270" lon="-76.6178390">
        <ele>3495.9</ele>
        <time>2022-09-11T17:50:15Z</time>
      </trkpt>
      <trkpt lat="-11.5212970" lon="-76.6178780">
        <ele>3495.1</ele>
        <time>2022-09-11T17:50:16Z</time>
      </trkpt>
      <trkpt lat="-11.5212530" lon="-76.6179870">
        <ele>3495.2</ele>
        <time>2022-09-11T17:50:19Z</time>
      </trkpt>
      <trkpt lat="-11.5212350" lon="-76.6180890">
        <ele>3495.4</ele>
        <time>2022-09-11T17:50:22Z</time>
      </trkpt>
      <trkpt lat="-11.5212250" lon="-76.6181520">
        <ele>3495.5</ele>
        <time>2022-09-11T17:50:24Z</time>
      </trkpt>
      <trkpt lat="-11.5212080" lon="-76.6182070">
        <ele>3495.6</ele>
        <time>2022-09-11T17:50:26Z</time>
      </trkpt>
      <trkpt lat="-11.5211850" lon="-76.6182570">
        <ele>3495.7</ele>
        <time>2022-09-11T17:50:28Z</time>
      </trkpt>
      <trkpt lat="-11.5211670" lon="-76.6183280">
        <ele>3495.7</ele>
        <time>2022-09-11T17:50:31Z</time>
      </trkpt>
      <trkpt lat="-11.5211710" lon="-76.6183780">
        <ele>3495.7</ele>
        <time>2022-09-11T17:50:33Z</time>
      </trkpt>
      <trkpt lat="-11.5212070" lon="-76.6184900">
        <ele>3496.1</ele>
        <time>2022-09-11T17:50:37Z</time>
      </trkpt>
      <trkpt lat="-11.5212680" lon="-76.6186150">
        <ele>3496.4</ele>
        <time>2022-09-11T17:50:42Z</time>
      </trkpt>
      <trkpt lat="-11.5213440" lon="-76.6187250">
        <ele>3496.7</ele>
        <time>2022-09-11T17:50:48Z</time>
      </trkpt>
      <trkpt lat="-11.5214300" lon="-76.6188650">
        <ele>3497.5</ele>
        <time>2022-09-11T17:50:55Z</time>
      </trkpt>
      <trkpt lat="-11.5214910" lon="-76.6190430">
        <ele>3498.2</ele>
        <time>2022-09-11T17:51:03Z</time>
      </trkpt>
      <trkpt lat="-11.5215920" lon="-76.6192180">
        <ele>3499.0</ele>
        <time>2022-09-11T17:51:12Z</time>
      </trkpt>
      <trkpt lat="-11.5217530" lon="-76.6193400">
        <ele>3499.8</ele>
        <time>2022-09-11T17:51:21Z</time>
      </trkpt>
      <trkpt lat="-11.5218740" lon="-76.6194970">
        <ele>3500.6</ele>
        <time>2022-09-11T17:51:30Z</time>
      </trkpt>
      <trkpt lat="-11.5218770" lon="-76.6196810">
        <ele>3500.8</ele>
        <time>2022-09-11T17:51:39Z</time>
      </trkpt>
      <trkpt lat="-11.5218820" lon="-76.6198770">
        <ele>3501.0</ele>
        <time>2022-09-11T17:51:48Z</time>
      </trkpt>
      <trkpt lat="-11.5219240" lon="-76.6200710">
        <ele>3501.6</ele>
        <time>2022-09-11T17:51:57Z</time>
      </trkpt>
      <trkpt lat="-11.5219040" lon="-76.6202750">
        <ele>3502.5</ele>
        <time>2022-09-11T17:52:06Z</time>
      </trkpt>
      <trkpt lat="-11.5218480" lon="-76.6204630">
        <ele>3503.4</ele>
        <time>2022-09-11T17:52:14Z</time>
      </trkpt>
      <trkpt lat="-11.5218010" lon="-76.6206450">
        <ele>3503.9</ele>
        <time>2022-09-11T17:52:21Z</time>
      </trkpt>
      <trkpt lat="-11.5217740" lon="-76.6208410">
        <ele>3504.4</ele>
        <time>2022-09-11T17:52:28Z</time>
      </trkpt>
      <trkpt lat="-11.5217660" lon="-76.6210430">
        <ele>3505.0</ele>
        <time>2022-09-11T17:52:35Z</time>
      </trkpt>
      <trkpt lat="-11.5217600" lon="-76.6212370">
        <ele>3505.9</ele>
        <time>2022-09-11T17:52:42Z</time>
      </trkpt>
      <trkpt lat="-11.5217280" lon="-76.6214220">
        <ele>3506.2</ele>
        <time>2022-09-11T17:52:49Z</time>
      </trkpt>
      <trkpt lat="-11.5216680" lon="-76.6216070">
        <ele>3506.2</ele>
        <time>2022-09-11T17:52:55Z</time>
      </trkpt>
      <trkpt lat="-11.5216480" lon="-76.6218030">
        <ele>3506.6</ele>
        <time>2022-09-11T17:53:00Z</time>
      </trkpt>
      <trkpt lat="-11.5216950" lon="-76.6219900">
        <ele>3506.6</ele>
        <time>2022-09-11T17:53:05Z</time>
      </trkpt>
      <trkpt lat="-11.5217940" lon="-76.6221540">
        <ele>3506.9</ele>
        <time>2022-09-11T17:53:10Z</time>
      </trkpt>
      <trkpt lat="-11.5219190" lon="-76.6222570">
        <ele>3507.2</ele>
        <time>2022-09-11T17:53:14Z</time>
      </trkpt>
      <trkpt lat="-11.5221100" lon="-76.6223440">
        <ele>3507.6</ele>
        <time>2022-09-11T17:53:19Z</time>
      </trkpt>
      <trkpt lat="-11.5223000" lon="-76.6224350">
        <ele>3507.7</ele>
        <time>2022-09-11T17:53:24Z</time>
      </trkpt>
      <trkpt lat="-11.5224570" lon="-76.6225290">
        <ele>3508.0</ele>
        <time>2022-09-11T17:53:28Z</time>
      </trkpt>
      <trkpt lat="-11.5226300" lon="-76.6226380">
        <ele>3508.2</ele>
        <time>2022-09-11T17:53:32Z</time>
      </trkpt>
      <trkpt lat="-11.5228030" lon="-76.6227650">
        <ele>3508.7</ele>
        <time>2022-09-11T17:53:36Z</time>
      </trkpt>
      <trkpt lat="-11.5229600" lon="-76.6228980">
        <ele>3509.0</ele>
        <time>2022-09-11T17:53:40Z</time>
      </trkpt>
      <trkpt lat="-11.5230760" lon="-76.6230460">
        <ele>3508.9</ele>
        <time>2022-09-11T17:53:44Z</time>
      </trkpt>
      <trkpt lat="-11.5231750" lon="-76.6232160">
        <ele>3509.5</ele>
        <time>2022-09-11T17:53:48Z</time>
      </trkpt>
      <trkpt lat="-11.5232330" lon="-76.6232980">
        <ele>3509.7</ele>
        <time>2022-09-11T17:53:50Z</time>
      </trkpt>
      <trkpt lat="-11.5233940" lon="-76.6234110">
        <ele>3509.7</ele>
        <time>2022-09-11T17:53:54Z</time>
      </trkpt>
      <trkpt lat="-11.5234830" lon="-76.6234590">
        <ele>3510.1</ele>
        <time>2022-09-11T17:53:56Z</time>
      </trkpt>
      <trkpt lat="-11.5236440" lon="-76.6235770">
        <ele>3510.6</ele>
        <time>2022-09-11T17:54:00Z</time>
      </trkpt>
      <trkpt lat="-11.5237640" lon="-76.6237410">
        <ele>3510.9</ele>
        <time>2022-09-11T17:54:04Z</time>
      </trkpt>
      <trkpt lat="-11.5237820" lon="-76.6239360">
        <ele>3511.0</ele>
        <time>2022-09-11T17:54:08Z</time>
      </trkpt>
      <trkpt lat="-11.5237670" lon="-76.6239810">
        <ele>3511.0</ele>
        <time>2022-09-11T17:54:09Z</time>
      </trkpt>
      <trkpt lat="-11.5237010" lon="-76.6241600">
        <ele>3511.1</ele>
        <time>2022-09-11T17:54:13Z</time>
      </trkpt>
      <trkpt lat="-11.5236670" lon="-76.6242460">
        <ele>3511.4</ele>
        <time>2022-09-11T17:54:15Z</time>
      </trkpt>
      <trkpt lat="-11.5236230" lon="-76.6244330">
        <ele>3511.8</ele>
        <time>2022-09-11T17:54:19Z</time>
      </trkpt>
      <trkpt lat="-11.5235620" lon="-76.6246570">
        <ele>3511.8</ele>
        <time>2022-09-11T17:54:23Z</time>
      </trkpt>
      <trkpt lat="-11.5235080" lon="-76.6248340">
        <ele>3511.6</ele>
        <time>2022-09-11T17:54:26Z</time>
      </trkpt>
      <trkpt lat="-11.5234630" lon="-76.6250150">
        <ele>3511.8</ele>
        <time>2022-09-11T17:54:29Z</time>
      </trkpt>
      <trkpt lat="-11.5234340" lon="-76.6252390">
        <ele>3512.5</ele>
        <time>2022-09-11T17:54:33Z</time>
      </trkpt>
      <trkpt lat="-11.5233940" lon="-76.6254360">
        <ele>3512.9</ele>
        <time>2022-09-11T17:54:37Z</time>
      </trkpt>
      <trkpt lat="-11.5233780" lon="-76.6254800">
        <ele>3513.0</ele>
        <time>2022-09-11T17:54:38Z</time>
      </trkpt>
      <trkpt lat="-11.5232960" lon="-76.6256520">
        <ele>3513.2</ele>
        <time>2022-09-11T17:54:42Z</time>
      </trkpt>
      <trkpt lat="-11.5232180" lon="-76.6258270">
        <ele>3513.3</ele>
        <time>2022-09-11T17:54:46Z</time>
      </trkpt>
      <trkpt lat="-11.5231610" lon="-76.6260170">
        <ele>3513.4</ele>
        <time>2022-09-11T17:54:50Z</time>
      </trkpt>
      <trkpt lat="-11.5231320" lon="-76.6262090">
        <ele>3513.7</ele>
        <time>2022-09-11T17:54:54Z</time>
      </trkpt>
      <trkpt lat="-11.5231120" lon="-76.6264260">
        <ele>3514.1</ele>
        <time>2022-09-11T17:54:59Z</time>
      </trkpt>
      <trkpt lat="-11.5231020" lon="-76.6266320">
        <ele>3514.4</ele>
        <time>2022-09-11T17:55:04Z</time>
      </trkpt>
      <trkpt lat="-11.5231980" lon="-76.6267690">
        <ele>3514.7</ele>
        <time>2022-09-11T17:55:08Z</time>
      </trkpt>
      <trkpt lat="-11.5233680" lon="-76.6268880">
        <ele>3515.2</ele>
        <time>2022-09-11T17:55:14Z</time>
      </trkpt>
      <trkpt lat="-11.5235090" lon="-76.6270030">
        <ele>3515.5</ele>
        <time>2022-09-11T17:55:20Z</time>
      </trkpt>
      <trkpt lat="-11.5235900" lon="-76.6271820">
        <ele>3515.9</ele>
        <time>2022-09-11T17:55:26Z</time>
      </trkpt>
      <trkpt lat="-11.5236170" lon="-76.6273880">
        <ele>3516.4</ele>
        <time>2022-09-11T17:55:32Z</time>
      </trkpt>
      <trkpt lat="-11.5236850" lon="-76.6275930">
        <ele>3517.0</ele>
        <time>2022-09-11T17:55:38Z</time>
      </trkpt>
      <trkpt lat="-11.5238050" lon="-76.6277690">
        <ele>3518.2</ele>
        <time>2022-09-11T17:55:44Z</time>
      </trkpt>
      <trkpt lat="-11.5239370" lon="-76.6279170">
        <ele>3519.1</ele>
        <time>2022-09-11T17:55:50Z</time>
      </trkpt>
      <trkpt lat="-11.5240420" lon="-76.6280860">
        <ele>3519.9</ele>
        <time>2022-09-11T17:55:56Z</time>
      </trkpt>
      <trkpt lat="-11.5241210" lon="-76.6282780">
        <ele>3520.4</ele>
        <time>2022-09-11T17:56:02Z</time>
      </trkpt>
      <trkpt lat="-11.5242020" lon="-76.6284520">
        <ele>3520.8</ele>
        <time>2022-09-11T17:56:08Z</time>
      </trkpt>
      <trkpt lat="-11.5242690" lon="-76.6286260">
        <ele>3521.2</ele>
        <time>2022-09-11T17:56:14Z</time>
      </trkpt>
      <trkpt lat="-11.5242900" lon="-76.6288360">
        <ele>3521.6</ele>
        <time>2022-09-11T17:56:21Z</time>
      </trkpt>
      <trkpt lat="-11.5242830" lon="-76.6290290">
        <ele>3521.9</ele>
        <time>2022-09-11T17:56:27Z</time>
      </trkpt>
      <trkpt lat="-11.5242630" lon="-76.6292390">
        <ele>3522.2</ele>
        <time>2022-09-11T17:56:34Z</time>
      </trkpt>
      <trkpt lat="-11.5242250" lon="-76.6294370">
        <ele>3522.5</ele>
        <time>2022-09-11T17:56:40Z</time>
      </trkpt>
      <trkpt lat="-11.5241710" lon="-76.6296370">
        <ele>3522.7</ele>
        <time>2022-09-11T17:56:47Z</time>
      </trkpt>
      <trkpt lat="-11.5239950" lon="-76.6297200">
        <ele>3523.0</ele>
        <time>2022-09-11T17:56:53Z</time>
      </trkpt>
      <trkpt lat="-11.5238320" lon="-76.6298390">
        <ele>3523.5</ele>
        <time>2022-09-11T17:56:58Z</time>
      </trkpt>
      <trkpt lat="-11.5236870" lon="-76.6299660">
        <ele>3523.9</ele>
        <time>2022-09-11T17:57:03Z</time>
      </trkpt>
      <trkpt lat="-11.5235330" lon="-76.6300620">
        <ele>3524.3</ele>
        <time>2022-09-11T17:57:08Z</time>
      </trkpt>
      <trkpt lat="-11.5233730" lon="-76.6301490">
        <ele>3524.7</ele>
        <time>2022-09-11T17:57:13Z</time>
      </trkpt>
      <trkpt lat="-11.5232070" lon="-76.6302300">
        <ele>3525.2</ele>
        <time>2022-09-11T17:57:18Z</time>
      </trkpt>
      <trkpt lat="-11.5230120" lon="-76.6303220">
        <ele>3525.7</ele>
        <time>2022-09-11T17:57:24Z</time>
      </trkpt>
      <trkpt lat="-11.5228450" lon="-76.6304610">
        <ele>3526.0</ele>
        <time>2022-09-11T17:57:30Z</time>
      </trkpt>
      <trkpt lat="-11.5227410" lon="-76.6306470">
        <ele>3526.2</ele>
        <time>2022-09-11T17:57:36Z</time>
      </trkpt>
      <trkpt lat="-11.5226940" lon="-76.6308400">
        <ele>3526.2</ele>
        <time>2022-09-11T17:57:41Z</time>
      </trkpt>
      <trkpt lat="-11.5227040" lon="-76.6309220">
        <ele>3526.1</ele>
        <time>2022-09-11T17:57:43Z</time>
      </trkpt>
      <trkpt lat="-11.5228030" lon="-76.6310590">
        <ele>3526.1</ele>
        <time>2022-09-11T17:57:47Z</time>
      </trkpt>
      <trkpt lat="-11.5229720" lon="-76.6311990">
        <ele>3526.2</ele>
        <time>2022-09-11T17:57:52Z</time>
      </trkpt>
      <trkpt lat="-11.5230710" lon="-76.6312800">
        <ele>3526.5</ele>
        <time>2022-09-11T17:57:55Z</time>
      </trkpt>
      <trkpt lat="-11.5231860" lon="-76.6314480">
        <ele>3526.9</ele>
        <time>2022-09-11T17:58:00Z</time>
      </trkpt>
      <trkpt lat="-11.5233100" lon="-76.6316190">
        <ele>3527.2</ele>
        <time>2022-09-11T17:58:05Z</time>
      </trkpt>
      <trkpt lat="-11.5234940" lon="-76.6317360">
        <ele>3527.8</ele>
        <time>2022-09-11T17:58:10Z</time>
      </trkpt>
      <trkpt lat="-11.5236960" lon="-76.6318040">
        <ele>3528.8</ele>
        <time>2022-09-11T17:58:15Z</time>
      </trkpt>
      <trkpt lat="-11.5238990" lon="-76.6318980">
        <ele>3529.9</ele>
        <time>2022-09-11T17:58:20Z</time>
      </trkpt>
      <trkpt lat="-11.5239350" lon="-76.6319240">
        <ele>3530.1</ele>
        <time>2022-09-11T17:58:21Z</time>
      </trkpt>
      <trkpt lat="-11.5240950" lon="-76.6320750">
        <ele>3531.0</ele>
        <time>2022-09-11T17:58:26Z</time>
      </trkpt>
      <trkpt lat="-11.5242150" lon="-76.6322250">
        <ele>3531.5</ele>
        <time>2022-09-11T17:58:31Z</time>
      </trkpt>
      <trkpt lat="-11.5242360" lon="-76.6324150">
        <ele>3531.9</ele>
        <time>2022-09-11T17:58:37Z</time>
      </trkpt>
      <trkpt lat="-11.5241870" lon="-76.6326150">
        <ele>3532.1</ele>
        <time>2022-09-11T17:58:45Z</time>
      </trkpt>
      <trkpt lat="-11.5241570" lon="-76.6328280">
        <ele>3531.8</ele>
        <time>2022-09-11T17:58:53Z</time>
      </trkpt>
      <trkpt lat="-11.5241480" lon="-76.6330220">
        <ele>3531.0</ele>
        <time>2022-09-11T17:58:58Z</time>
      </trkpt>
      <trkpt lat="-11.5241530" lon="-76.6331100">
        <ele>3530.7</ele>
        <time>2022-09-11T17:59:00Z</time>
      </trkpt>
      <trkpt lat="-11.5241890" lon="-76.6333110">
        <ele>3530.2</ele>
        <time>2022-09-11T17:59:04Z</time>
      </trkpt>
      <trkpt lat="-11.5242120" lon="-76.6335250">
        <ele>3529.9</ele>
        <time>2022-09-11T17:59:08Z</time>
      </trkpt>
      <trkpt lat="-11.5242410" lon="-76.6337260">
        <ele>3530.0</ele>
        <time>2022-09-11T17:59:12Z</time>
      </trkpt>
      <trkpt lat="-11.5242780" lon="-76.6339320">
        <ele>3530.1</ele>
        <time>2022-09-11T17:59:16Z</time>
      </trkpt>
      <trkpt lat="-11.5243390" lon="-76.6341110">
        <ele>3530.0</ele>
        <time>2022-09-11T17:59:20Z</time>
      </trkpt>
      <trkpt lat="-11.5243600" lon="-76.6343110">
        <ele>3530.0</ele>
        <time>2022-09-11T17:59:24Z</time>
      </trkpt>
      <trkpt lat="-11.5243540" lon="-76.6343650">
        <ele>3530.0</ele>
        <time>2022-09-11T17:59:25Z</time>
      </trkpt>
      <trkpt lat="-11.5243520" lon="-76.6345210">
        <ele>3529.9</ele>
        <time>2022-09-11T17:59:28Z</time>
      </trkpt>
      <trkpt lat="-11.5244260" lon="-76.6347360">
        <ele>3529.7</ele>
        <time>2022-09-11T17:59:32Z</time>
      </trkpt>
      <trkpt lat="-11.5244600" lon="-76.6349300">
        <ele>3530.0</ele>
        <time>2022-09-11T17:59:35Z</time>
      </trkpt>
      <trkpt lat="-11.5244740" lon="-76.6350610">
        <ele>3530.4</ele>
        <time>2022-09-11T17:59:37Z</time>
      </trkpt>
      <trkpt lat="-11.5243740" lon="-76.6352550">
        <ele>3530.9</ele>
        <time>2022-09-11T17:59:41Z</time>
      </trkpt>
      <trkpt lat="-11.5243050" lon="-76.6353550">
        <ele>3531.0</ele>
        <time>2022-09-11T17:59:43Z</time>
      </trkpt>
      <trkpt lat="-11.5242290" lon="-76.6355720">
        <ele>3531.3</ele>
        <time>2022-09-11T17:59:47Z</time>
      </trkpt>
      <trkpt lat="-11.5241960" lon="-76.6357930">
        <ele>3531.4</ele>
        <time>2022-09-11T17:59:51Z</time>
      </trkpt>
      <trkpt lat="-11.5241970" lon="-76.6358490">
        <ele>3531.4</ele>
        <time>2022-09-11T17:59:52Z</time>
      </trkpt>
      <trkpt lat="-11.5242850" lon="-76.6360530">
        <ele>3530.6</ele>
        <time>2022-09-11T17:59:56Z</time>
      </trkpt>
      <trkpt lat="-11.5243180" lon="-76.6361030">
        <ele>3530.3</ele>
        <time>2022-09-11T17:59:57Z</time>
      </trkpt>
      <trkpt lat="-11.5244170" lon="-76.6362830">
        <ele>3529.7</ele>
        <time>2022-09-11T18:00:00Z</time>
      </trkpt>
      <trkpt lat="-11.5245020" lon="-76.6364720">
        <ele>3529.7</ele>
        <time>2022-09-11T18:00:03Z</time>
      </trkpt>
      <trkpt lat="-11.5245810" lon="-76.6366550">
        <ele>3529.9</ele>
        <time>2022-09-11T18:00:06Z</time>
      </trkpt>
      <trkpt lat="-11.5246620" lon="-76.6368310">
        <ele>3530.1</ele>
        <time>2022-09-11T18:00:09Z</time>
      </trkpt>
      <trkpt lat="-11.5246790" lon="-76.6368930">
        <ele>3530.2</ele>
        <time>2022-09-11T18:00:10Z</time>
      </trkpt>
      <trkpt lat="-11.5246750" lon="-76.6370810">
        <ele>3530.5</ele>
        <time>2022-09-11T18:00:13Z</time>
      </trkpt>
      <trkpt lat="-11.5246400" lon="-76.6372040">
        <ele>3530.8</ele>
        <time>2022-09-11T18:00:15Z</time>
      </trkpt>
      <trkpt lat="-11.5246160" lon="-76.6372600">
        <ele>3530.9</ele>
        <time>2022-09-11T18:00:16Z</time>
      </trkpt>
      <trkpt lat="-11.5245120" lon="-76.6374270">
        <ele>3530.9</ele>
        <time>2022-09-11T18:00:19Z</time>
      </trkpt>
      <trkpt lat="-11.5244820" lon="-76.6374790">
        <ele>3530.9</ele>
        <time>2022-09-11T18:00:20Z</time>
      </trkpt>
      <trkpt lat="-11.5243900" lon="-76.6376920">
        <ele>3530.9</ele>
        <time>2022-09-11T18:00:24Z</time>
      </trkpt>
      <trkpt lat="-11.5243100" lon="-76.6378670">
        <ele>3530.6</ele>
        <time>2022-09-11T18:00:27Z</time>
      </trkpt>
      <trkpt lat="-11.5242340" lon="-76.6380430">
        <ele>3530.5</ele>
        <time>2022-09-11T18:00:30Z</time>
      </trkpt>
      <trkpt lat="-11.5242010" lon="-76.6382280">
        <ele>3530.4</ele>
        <time>2022-09-11T18:00:33Z</time>
      </trkpt>
      <trkpt lat="-11.5241970" lon="-76.6384190">
        <ele>3530.4</ele>
        <time>2022-09-11T18:00:36Z</time>
      </trkpt>
      <trkpt lat="-11.5242040" lon="-76.6386570">
        <ele>3530.8</ele>
        <time>2022-09-11T18:00:40Z</time>
      </trkpt>
      <trkpt lat="-11.5241910" lon="-76.6387150">
        <ele>3530.9</ele>
        <time>2022-09-11T18:00:41Z</time>
      </trkpt>
      <trkpt lat="-11.5240880" lon="-76.6389210">
        <ele>3530.7</ele>
        <time>2022-09-11T18:00:45Z</time>
      </trkpt>
      <trkpt lat="-11.5240720" lon="-76.6391070">
        <ele>3530.3</ele>
        <time>2022-09-11T18:00:48Z</time>
      </trkpt>
      <trkpt lat="-11.5241300" lon="-76.6393000">
        <ele>3530.4</ele>
        <time>2022-09-11T18:00:51Z</time>
      </trkpt>
      <trkpt lat="-11.5241260" lon="-76.6394990">
        <ele>3530.5</ele>
        <time>2022-09-11T18:00:54Z</time>
      </trkpt>
      <trkpt lat="-11.5240630" lon="-76.6396930">
        <ele>3530.6</ele>
        <time>2022-09-11T18:00:57Z</time>
      </trkpt>
      <trkpt lat="-11.5239960" lon="-76.6398030">
        <ele>3530.5</ele>
        <time>2022-09-11T18:00:59Z</time>
      </trkpt>
      <trkpt lat="-11.5239010" lon="-76.6399700">
        <ele>3530.4</ele>
        <time>2022-09-11T18:01:02Z</time>
      </trkpt>
      <trkpt lat="-11.5238140" lon="-76.6401640">
        <ele>3530.2</ele>
        <time>2022-09-11T18:01:05Z</time>
      </trkpt>
      <trkpt lat="-11.5237340" lon="-76.6403540">
        <ele>3529.6</ele>
        <time>2022-09-11T18:01:08Z</time>
      </trkpt>
      <trkpt lat="-11.5236850" lon="-76.6405570">
        <ele>3529.5</ele>
        <time>2022-09-11T18:01:11Z</time>
      </trkpt>
      <trkpt lat="-11.5236700" lon="-76.6407640">
        <ele>3529.3</ele>
        <time>2022-09-11T18:01:14Z</time>
      </trkpt>
      <trkpt lat="-11.5236460" lon="-76.6409710">
        <ele>3529.1</ele>
        <time>2022-09-11T18:01:17Z</time>
      </trkpt>
      <trkpt lat="-11.5235940" lon="-76.6411690">
        <ele>3528.8</ele>
        <time>2022-09-11T18:01:20Z</time>
      </trkpt>
      <trkpt lat="-11.5235360" lon="-76.6413500">
        <ele>3528.3</ele>
        <time>2022-09-11T18:01:23Z</time>
      </trkpt>
      <trkpt lat="-11.5234220" lon="-76.6415210">
        <ele>3527.7</ele>
        <time>2022-09-11T18:01:26Z</time>
      </trkpt>
      <trkpt lat="-11.5233790" lon="-76.6415710">
        <ele>3527.5</ele>
        <time>2022-09-11T18:01:27Z</time>
      </trkpt>
      <trkpt lat="-11.5233080" lon="-76.6416780">
        <ele>3526.9</ele>
        <time>2022-09-11T18:01:29Z</time>
      </trkpt>
      <trkpt lat="-11.5232550" lon="-76.6418790">
        <ele>3525.5</ele>
        <time>2022-09-11T18:01:32Z</time>
      </trkpt>
      <trkpt lat="-11.5231380" lon="-76.6420700">
        <ele>3523.5</ele>
        <time>2022-09-11T18:01:35Z</time>
      </trkpt>
      <trkpt lat="-11.5230830" lon="-76.6421250">
        <ele>3522.9</ele>
        <time>2022-09-11T18:01:36Z</time>
      </trkpt>
      <trkpt lat="-11.5229130" lon="-76.6423230">
        <ele>3520.6</ele>
        <time>2022-09-11T18:01:39Z</time>
      </trkpt>
      <trkpt lat="-11.5228690" lon="-76.6423980">
        <ele>3519.7</ele>
        <time>2022-09-11T18:01:40Z</time>
      </trkpt>
      <trkpt lat="-11.5228220" lon="-76.6425810">
        <ele>3517.7</ele>
        <time>2022-09-11T18:01:42Z</time>
      </trkpt>
      <trkpt lat="-11.5228130" lon="-76.6427810">
        <ele>3515.6</ele>
        <time>2022-09-11T18:01:44Z</time>
      </trkpt>
      <trkpt lat="-11.5228150" lon="-76.6428860">
        <ele>3514.5</ele>
        <time>2022-09-11T18:01:45Z</time>
      </trkpt>
      <trkpt lat="-11.5228170" lon="-76.6431170">
        <ele>3512.1</ele>
        <time>2022-09-11T18:01:47Z</time>
      </trkpt>
      <trkpt lat="-11.5227980" lon="-76.6433540">
        <ele>3509.9</ele>
        <time>2022-09-11T18:01:49Z</time>
      </trkpt>
      <trkpt lat="-11.5227800" lon="-76.6435960">
        <ele>3507.6</ele>
        <time>2022-09-11T18:01:51Z</time>
      </trkpt>
      <trkpt lat="-11.5227640" lon="-76.6438480">
        <ele>3505.1</ele>
        <time>2022-09-11T18:01:53Z</time>
      </trkpt>
      <trkpt lat="-11.5227520" lon="-76.6441100">
        <ele>3502.7</ele>
        <time>2022-09-11T18:01:55Z</time>
      </trkpt>
      <trkpt lat="-11.5227240" lon="-76.6443770">
        <ele>3500.3</ele>
        <time>2022-09-11T18:01:57Z</time>
      </trkpt>
      <trkpt lat="-11.5226790" lon="-76.6446250">
        <ele>3498.0</ele>
        <time>2022-09-11T18:01:59Z</time>
      </trkpt>
      <trkpt lat="-11.5226620" lon="-76.6448260">
        <ele>3496.0</ele>
        <time>2022-09-11T18:02:01Z</time>
      </trkpt>
      <trkpt lat="-11.5227860" lon="-76.6450690">
        <ele>3494.3</ele>
        <time>2022-09-11T18:02:04Z</time>
      </trkpt>
      <trkpt lat="-11.5229340" lon="-76.6451760">
        <ele>3492.2</ele>
        <time>2022-09-11T18:02:06Z</time>
      </trkpt>
      <trkpt lat="-11.5230080" lon="-76.6452200">
        <ele>3491.1</ele>
        <time>2022-09-11T18:02:07Z</time>
      </trkpt>
      <trkpt lat="-11.5230690" lon="-76.6452720">
        <ele>3489.9</ele>
        <time>2022-09-11T18:02:08Z</time>
      </trkpt>
      <trkpt lat="-11.5231400" lon="-76.6454660">
        <ele>3487.5</ele>
        <time>2022-09-11T18:02:11Z</time>
      </trkpt>
      <trkpt lat="-11.5230710" lon="-76.6455820">
        <ele>3485.6</ele>
        <time>2022-09-11T18:02:14Z</time>
      </trkpt>
      <trkpt lat="-11.5230220" lon="-76.6456590">
        <ele>3484.2</ele>
        <time>2022-09-11T18:02:20Z</time>
      </trkpt>
      <trkpt lat="-11.5230170" lon="-76.6457470">
        <ele>3482.9</ele>
        <time>2022-09-11T18:18:18Z</time>
      </trkpt>
      <trkpt lat="-11.5230180" lon="-76.6457750">
        <ele>3482.5</ele>
        <time>2022-09-11T18:18:19Z</time>
      </trkpt>
      <trkpt lat="-11.5230110" lon="-76.6458530">
        <ele>3481.5</ele>
        <time>2022-09-11T18:18:21Z</time>
      </trkpt>
      <trkpt lat="-11.5229800" lon="-76.6460610">
        <ele>3482.8</ele>
        <time>2022-09-11T18:18:26Z</time>
      </trkpt>
      <trkpt lat="-11.5229510" lon="-76.6461780">
        <ele>3484.0</ele>
        <time>2022-09-11T18:18:29Z</time>
      </trkpt>
      <trkpt lat="-11.5229250" lon="-76.6463080">
        <ele>3485.3</ele>
        <time>2022-09-11T18:18:32Z</time>
      </trkpt>
      <trkpt lat="-11.5229070" lon="-76.6463930">
        <ele>3486.1</ele>
        <time>2022-09-11T18:18:34Z</time>
      </trkpt>
      <trkpt lat="-11.5229000" lon="-76.6464800">
        <ele>3487.0</ele>
        <time>2022-09-11T18:18:36Z</time>
      </trkpt>
      <trkpt lat="-11.5229250" lon="-76.6466450">
        <ele>3488.6</ele>
        <time>2022-09-11T18:18:41Z</time>
      </trkpt>
      <trkpt lat="-11.5229900" lon="-76.6467840">
        <ele>3490.1</ele>
        <time>2022-09-11T18:18:46Z</time>
      </trkpt>
      <trkpt lat="-11.5230180" lon="-76.6468640">
        <ele>3491.0</ele>
        <time>2022-09-11T18:18:49Z</time>
      </trkpt>
      <trkpt lat="-11.5230390" lon="-76.6469080">
        <ele>3491.5</ele>
        <time>2022-09-11T18:18:52Z</time>
      </trkpt>
      <trkpt lat="-11.5230560" lon="-76.6469200">
        <ele>3491.7</ele>
        <time>2022-09-11T18:18:54Z</time>
      </trkpt>
      <trkpt lat="-11.5230810" lon="-76.6469750">
        <ele>3492.3</ele>
        <time>2022-09-11T18:18:57Z</time>
      </trkpt>
      <trkpt lat="-11.5230750" lon="-76.6471420">
        <ele>3493.9</ele>
        <time>2022-09-11T18:19:03Z</time>
      </trkpt>
      <trkpt lat="-11.5230260" lon="-76.6473450">
        <ele>3496.0</ele>
        <time>2022-09-11T18:19:10Z</time>
      </trkpt>
      <trkpt lat="-11.5229550" lon="-76.6475110">
        <ele>3497.8</ele>
        <time>2022-09-11T18:19:17Z</time>
      </trkpt>
      <trkpt lat="-11.5228810" lon="-76.6476320">
        <ele>3499.2</ele>
        <time>2022-09-11T18:19:24Z</time>
      </trkpt>
      <trkpt lat="-11.5228360" lon="-76.6477080">
        <ele>3500.1</ele>
        <time>2022-09-11T18:19:30Z</time>
      </trkpt>
      <trkpt lat="-11.5228670" lon="-76.6478600">
        <ele>3501.6</ele>
        <time>2022-09-11T18:19:40Z</time>
      </trkpt>
      <trkpt lat="-11.5230170" lon="-76.6477900">
        <ele>3503.2</ele>
        <time>2022-09-11T18:19:53Z</time>
      </trkpt>
      <trkpt lat="-11.5231770" lon="-76.6476940">
        <ele>3505.1</ele>
        <time>2022-09-11T18:20:07Z</time>
      </trkpt>
      <trkpt lat="-11.5233360" lon="-76.6475650">
        <ele>3507.2</ele>
        <time>2022-09-11T18:20:19Z</time>
      </trkpt>
      <trkpt lat="-11.5233880" lon="-76.6473930">
        <ele>3508.9</ele>
        <time>2022-09-11T18:20:27Z</time>
      </trkpt>
      <trkpt lat="-11.5233610" lon="-76.6472070">
        <ele>3510.8</ele>
        <time>2022-09-11T18:20:38Z</time>
      </trkpt>
      <trkpt lat="-11.5234080" lon="-76.6470150">
        <ele>3512.7</ele>
        <time>2022-09-11T18:20:49Z</time>
      </trkpt>
      <trkpt lat="-11.5233950" lon="-76.6468290">
        <ele>3514.6</ele>
        <time>2022-09-11T18:20:58Z</time>
      </trkpt>
      <trkpt lat="-11.5233770" lon="-76.6466330">
        <ele>3516.5</ele>
        <time>2022-09-11T18:21:08Z</time>
      </trkpt>
      <trkpt lat="-11.5234050" lon="-76.6465730">
        <ele>3517.2</ele>
        <time>2022-09-11T18:21:12Z</time>
      </trkpt>
      <trkpt lat="-11.5234600" lon="-76.6465630">
        <ele>3517.7</ele>
        <time>2022-09-11T18:21:16Z</time>
      </trkpt>
      <trkpt lat="-11.5234810" lon="-76.6465780">
        <ele>3518.0</ele>
        <time>2022-09-11T18:21:18Z</time>
      </trkpt>
      <trkpt lat="-11.5235690" lon="-76.6467450">
        <ele>3519.9</ele>
        <time>2022-09-11T18:21:32Z</time>
      </trkpt>
      <trkpt lat="-11.5236280" lon="-76.6469240">
        <ele>3521.7</ele>
        <time>2022-09-11T18:21:45Z</time>
      </trkpt>
      <trkpt lat="-11.5236510" lon="-76.6471070">
        <ele>3523.6</ele>
        <time>2022-09-11T18:21:55Z</time>
      </trkpt>
      <trkpt lat="-11.5236980" lon="-76.6472990">
        <ele>3525.5</ele>
        <time>2022-09-11T18:22:04Z</time>
      </trkpt>
      <trkpt lat="-11.5237270" lon="-76.6474840">
        <ele>3527.4</ele>
        <time>2022-09-11T18:22:13Z</time>
      </trkpt>
      <trkpt lat="-11.5238090" lon="-76.6476480">
        <ele>3529.2</ele>
        <time>2022-09-11T18:22:22Z</time>
      </trkpt>
      <trkpt lat="-11.5238840" lon="-76.6478040">
        <ele>3530.9</ele>
        <time>2022-09-11T18:22:34Z</time>
      </trkpt>
      <trkpt lat="-11.5238830" lon="-76.6479000">
        <ele>3531.8</ele>
        <time>2022-09-11T18:22:41Z</time>
      </trkpt>
      <trkpt lat="-11.5239040" lon="-76.6480280">
        <ele>3533.1</ele>
        <time>2022-09-11T18:22:50Z</time>
      </trkpt>
      <trkpt lat="-11.5239550" lon="-76.6481570">
        <ele>3534.5</ele>
        <time>2022-09-11T18:23:00Z</time>
      </trkpt>
      <trkpt lat="-11.5240370" lon="-76.6481340">
        <ele>3535.3</ele>
        <time>2022-09-11T18:23:09Z</time>
      </trkpt>
      <trkpt lat="-11.5240690" lon="-76.6479440">
        <ele>3537.2</ele>
        <time>2022-09-11T18:23:20Z</time>
      </trkpt>
      <trkpt lat="-11.5241450" lon="-76.6477940">
        <ele>3538.9</ele>
        <time>2022-09-11T18:23:30Z</time>
      </trkpt>
      <trkpt lat="-11.5241840" lon="-76.6478910">
        <ele>3539.9</ele>
        <time>2022-09-11T18:23:38Z</time>
      </trkpt>
      <trkpt lat="-11.5241700" lon="-76.6480910">
        <ele>3541.9</ele>
        <time>2022-09-11T18:23:48Z</time>
      </trkpt>
      <trkpt lat="-11.5242340" lon="-76.6482630">
        <ele>3543.7</ele>
        <time>2022-09-11T18:23:58Z</time>
      </trkpt>
      <trkpt lat="-11.5242840" lon="-76.6484380">
        <ele>3545.5</ele>
        <time>2022-09-11T18:24:09Z</time>
      </trkpt>
      <trkpt lat="-11.5242540" lon="-76.6486060">
        <ele>3547.2</ele>
        <time>2022-09-11T18:24:23Z</time>
      </trkpt>
      <trkpt lat="-11.5243820" lon="-76.6485880">
        <ele>3548.5</ele>
        <time>2022-09-11T18:24:33Z</time>
      </trkpt>
      <trkpt lat="-11.5244970" lon="-76.6484440">
        <ele>3550.3</ele>
        <time>2022-09-11T18:24:46Z</time>
      </trkpt>
      <trkpt lat="-11.5245090" lon="-76.6482590">
        <ele>3552.2</ele>
        <time>2022-09-11T18:24:59Z</time>
      </trkpt>
      <trkpt lat="-11.5244960" lon="-76.6480790">
        <ele>3554.0</ele>
        <time>2022-09-11T18:25:12Z</time>
      </trkpt>
      <trkpt lat="-11.5245130" lon="-76.6478880">
        <ele>3555.8</ele>
        <time>2022-09-11T18:25:28Z</time>
      </trkpt>
      <trkpt lat="-11.5245870" lon="-76.6477220">
        <ele>3557.6</ele>
        <time>2022-09-11T18:25:42Z</time>
      </trkpt>
      <trkpt lat="-11.5247590" lon="-76.6476460">
        <ele>3559.5</ele>
        <time>2022-09-11T18:25:56Z</time>
      </trkpt>
      <trkpt lat="-11.5248920" lon="-76.6475260">
        <ele>3561.3</ele>
        <time>2022-09-11T18:26:09Z</time>
      </trkpt>
      <trkpt lat="-11.5249200" lon="-76.6473270">
        <ele>3563.3</ele>
        <time>2022-09-11T18:26:22Z</time>
      </trkpt>
      <trkpt lat="-11.5248970" lon="-76.6471290">
        <ele>3565.3</ele>
        <time>2022-09-11T18:26:34Z</time>
      </trkpt>
      <trkpt lat="-11.5249020" lon="-76.6469290">
        <ele>3567.2</ele>
        <time>2022-09-11T18:26:45Z</time>
      </trkpt>
      <trkpt lat="-11.5249700" lon="-76.6467530">
        <ele>3569.1</ele>
        <time>2022-09-11T18:26:55Z</time>
      </trkpt>
      <trkpt lat="-11.5249900" lon="-76.6465640">
        <ele>3571.0</ele>
        <time>2022-09-11T18:27:06Z</time>
      </trkpt>
      <trkpt lat="-11.5250630" lon="-76.6463950">
        <ele>3572.9</ele>
        <time>2022-09-11T18:27:17Z</time>
      </trkpt>
      <trkpt lat="-11.5251890" lon="-76.6462560">
        <ele>3574.9</ele>
        <time>2022-09-11T18:27:29Z</time>
      </trkpt>
      <trkpt lat="-11.5253190" lon="-76.6461280">
        <ele>3576.9</ele>
        <time>2022-09-11T18:27:42Z</time>
      </trkpt>
      <trkpt lat="-11.5254020" lon="-76.6459580">
        <ele>3578.7</ele>
        <time>2022-09-11T18:27:55Z</time>
      </trkpt>
      <trkpt lat="-11.5254080" lon="-76.6457710">
        <ele>3580.3</ele>
        <time>2022-09-11T18:28:07Z</time>
      </trkpt>
      <trkpt lat="-11.5253880" lon="-76.6455800">
        <ele>3581.8</ele>
        <time>2022-09-11T18:28:18Z</time>
      </trkpt>
      <trkpt lat="-11.5254710" lon="-76.6454020">
        <ele>3583.6</ele>
        <time>2022-09-11T18:28:27Z</time>
      </trkpt>
      <trkpt lat="-11.5255420" lon="-76.6452150">
        <ele>3585.6</ele>
        <time>2022-09-11T18:28:37Z</time>
      </trkpt>
      <trkpt lat="-11.5255330" lon="-76.6450320">
        <ele>3587.3</ele>
        <time>2022-09-11T18:28:47Z</time>
      </trkpt>
      <trkpt lat="-11.5254770" lon="-76.6448490">
        <ele>3588.9</ele>
        <time>2022-09-11T18:28:58Z</time>
      </trkpt>
      <trkpt lat="-11.5254740" lon="-76.6447200">
        <ele>3589.9</ele>
        <time>2022-09-11T18:29:02Z</time>
      </trkpt>
      <trkpt lat="-11.5255710" lon="-76.6445660">
        <ele>3591.4</ele>
        <time>2022-09-11T18:29:07Z</time>
      </trkpt>
      <trkpt lat="-11.5255000" lon="-76.6444580">
        <ele>3592.6</ele>
        <time>2022-09-11T18:29:13Z</time>
      </trkpt>
      <trkpt lat="-11.5253320" lon="-76.6443640">
        <ele>3594.5</ele>
        <time>2022-09-11T18:29:23Z</time>
      </trkpt>
      <trkpt lat="-11.5251630" lon="-76.6442750">
        <ele>3596.9</ele>
        <time>2022-09-11T18:29:34Z</time>
      </trkpt>
      <trkpt lat="-11.5250540" lon="-76.6441200">
        <ele>3599.0</ele>
        <time>2022-09-11T18:29:45Z</time>
      </trkpt>
      <trkpt lat="-11.5248940" lon="-76.6440100">
        <ele>3601.2</ele>
        <time>2022-09-11T18:29:58Z</time>
      </trkpt>
      <trkpt lat="-11.5247500" lon="-76.6438870">
        <ele>3603.6</ele>
        <time>2022-09-11T18:30:13Z</time>
      </trkpt>
      <trkpt lat="-11.5246580" lon="-76.6436860">
        <ele>3606.4</ele>
        <time>2022-09-11T18:30:32Z</time>
      </trkpt>
      <trkpt lat="-11.5246440" lon="-76.6436400">
        <ele>3607.1</ele>
        <time>2022-09-11T18:30:36Z</time>
      </trkpt>
      <trkpt lat="-11.5245990" lon="-76.6434560">
        <ele>3609.6</ele>
        <time>2022-09-11T18:30:52Z</time>
      </trkpt>
      <trkpt lat="-11.5246140" lon="-76.6433380">
        <ele>3611.1</ele>
        <time>2022-09-11T18:31:04Z</time>
      </trkpt>
      <trkpt lat="-11.5250840" lon="-76.6428780">
        <ele>3619.2</ele>
        <time>2022-09-11T18:42:15Z</time>
      </trkpt>
      <trkpt lat="-11.5250870" lon="-76.6428640">
        <ele>3619.4</ele>
        <time>2022-09-11T18:42:16Z</time>
      </trkpt>
      <trkpt lat="-11.5251280" lon="-76.6427950">
        <ele>3620.4</ele>
        <time>2022-09-11T18:42:22Z</time>
      </trkpt>
      <trkpt lat="-11.5251540" lon="-76.6427540">
        <ele>3620.9</ele>
        <time>2022-09-11T18:42:26Z</time>
      </trkpt>
      <trkpt lat="-11.5251630" lon="-76.6427430">
        <ele>3621.1</ele>
        <time>2022-09-11T18:42:27Z</time>
      </trkpt>
      <trkpt lat="-11.5251870" lon="-76.6427000">
        <ele>3621.7</ele>
        <time>2022-09-11T18:42:31Z</time>
      </trkpt>
      <trkpt lat="-11.5252100" lon="-76.6426550">
        <ele>3622.3</ele>
        <time>2022-09-11T18:42:35Z</time>
      </trkpt>
      <trkpt lat="-11.5252310" lon="-76.6426040">
        <ele>3622.9</ele>
        <time>2022-09-11T18:42:40Z</time>
      </trkpt>
      <trkpt lat="-11.5252400" lon="-76.6425340">
        <ele>3623.6</ele>
        <time>2022-09-11T18:42:46Z</time>
      </trkpt>
      <trkpt lat="-11.5252310" lon="-76.6424070">
        <ele>3625.0</ele>
        <time>2022-09-11T18:42:56Z</time>
      </trkpt>
      <trkpt lat="-11.5252390" lon="-76.6422910">
        <ele>3626.2</ele>
        <time>2022-09-11T18:43:05Z</time>
      </trkpt>
      <trkpt lat="-11.5252340" lon="-76.6421400">
        <ele>3627.7</ele>
        <time>2022-09-11T18:43:17Z</time>
      </trkpt>
      <trkpt lat="-11.5251500" lon="-76.6419670">
        <ele>3629.6</ele>
        <time>2022-09-11T18:43:30Z</time>
      </trkpt>
      <trkpt lat="-11.5250630" lon="-76.6418020">
        <ele>3631.7</ele>
        <time>2022-09-11T18:43:41Z</time>
      </trkpt>
      <trkpt lat="-11.5250460" lon="-76.6416050">
        <ele>3634.1</ele>
        <time>2022-09-11T18:43:54Z</time>
      </trkpt>
      <trkpt lat="-11.5251490" lon="-76.6415170">
        <ele>3635.7</ele>
        <time>2022-09-11T18:44:08Z</time>
      </trkpt>
      <trkpt lat="-11.5251590" lon="-76.6415370">
        <ele>3635.9</ele>
        <time>2022-09-11T18:44:10Z</time>
      </trkpt>
      <trkpt lat="-11.5251650" lon="-76.6416000">
        <ele>3636.5</ele>
        <time>2022-09-11T18:44:15Z</time>
      </trkpt>
      <trkpt lat="-11.5252300" lon="-76.6417800">
        <ele>3638.2</ele>
        <time>2022-09-11T18:44:30Z</time>
      </trkpt>
      <trkpt lat="-11.5253270" lon="-76.6419500">
        <ele>3640.0</ele>
        <time>2022-09-11T18:44:42Z</time>
      </trkpt>
      <trkpt lat="-11.5254190" lon="-76.6421170">
        <ele>3641.6</ele>
        <time>2022-09-11T18:44:54Z</time>
      </trkpt>
      <trkpt lat="-11.5254980" lon="-76.6422830">
        <ele>3643.0</ele>
        <time>2022-09-11T18:45:04Z</time>
      </trkpt>
      <trkpt lat="-11.5255510" lon="-76.6424610">
        <ele>3644.3</ele>
        <time>2022-09-11T18:45:11Z</time>
      </trkpt>
      <trkpt lat="-11.5256030" lon="-76.6426450">
        <ele>3645.5</ele>
        <time>2022-09-11T18:45:16Z</time>
      </trkpt>
      <trkpt lat="-11.5256540" lon="-76.6428340">
        <ele>3647.0</ele>
        <time>2022-09-11T18:45:21Z</time>
      </trkpt>
      <trkpt lat="-11.5257480" lon="-76.6430050">
        <ele>3649.0</ele>
        <time>2022-09-11T18:45:29Z</time>
      </trkpt>
      <trkpt lat="-11.5258940" lon="-76.6431310">
        <ele>3651.0</ele>
        <time>2022-09-11T18:45:39Z</time>
      </trkpt>
      <trkpt lat="-11.5260510" lon="-76.6432240">
        <ele>3652.7</ele>
        <time>2022-09-11T18:45:52Z</time>
      </trkpt>
      <trkpt lat="-11.5262290" lon="-76.6432720">
        <ele>3654.0</ele>
        <time>2022-09-11T18:46:04Z</time>
      </trkpt>
      <trkpt lat="-11.5264120" lon="-76.6433260">
        <ele>3655.7</ele>
        <time>2022-09-11T18:46:17Z</time>
      </trkpt>
      <trkpt lat="-11.5265220" lon="-76.6433250">
        <ele>3656.8</ele>
        <time>2022-09-11T18:46:24Z</time>
      </trkpt>
      <trkpt lat="-11.5267190" lon="-76.6433190">
        <ele>3658.7</ele>
        <time>2022-09-11T18:46:37Z</time>
      </trkpt>
      <trkpt lat="-11.5268580" lon="-76.6432830">
        <ele>3660.2</ele>
        <time>2022-09-11T18:46:49Z</time>
      </trkpt>
      <trkpt lat="-11.5268830" lon="-76.6432700">
        <ele>3660.4</ele>
        <time>2022-09-11T18:48:13Z</time>
      </trkpt>
      <trkpt lat="-11.5269040" lon="-76.6432640">
        <ele>3660.7</ele>
        <time>2022-09-11T18:48:14Z</time>
      </trkpt>
      <trkpt lat="-11.5269780" lon="-76.6432520">
        <ele>3661.4</ele>
        <time>2022-09-11T18:48:17Z</time>
      </trkpt>
      <trkpt lat="-11.5270540" lon="-76.6432480">
        <ele>3662.2</ele>
        <time>2022-09-11T18:48:20Z</time>
      </trkpt>
      <trkpt lat="-11.5271230" lon="-76.6432500">
        <ele>3662.8</ele>
        <time>2022-09-11T18:48:23Z</time>
      </trkpt>
      <trkpt lat="-11.5271820" lon="-76.6432660">
        <ele>3663.3</ele>
        <time>2022-09-11T18:48:26Z</time>
      </trkpt>
      <trkpt lat="-11.5272150" lon="-76.6432800">
        <ele>3663.7</ele>
        <time>2022-09-11T18:48:28Z</time>
      </trkpt>
      <trkpt lat="-11.5272470" lon="-76.6432910">
        <ele>3664.1</ele>
        <time>2022-09-11T18:48:30Z</time>
      </trkpt>
      <trkpt lat="-11.5272920" lon="-76.6433170">
        <ele>3664.6</ele>
        <time>2022-09-11T18:48:33Z</time>
      </trkpt>
      <trkpt lat="-11.5273410" lon="-76.6433500">
        <ele>3665.3</ele>
        <time>2022-09-11T18:48:37Z</time>
      </trkpt>
      <trkpt lat="-11.5273850" lon="-76.6433940">
        <ele>3666.0</ele>
        <time>2022-09-11T18:48:41Z</time>
      </trkpt>
      <trkpt lat="-11.5274300" lon="-76.6434720">
        <ele>3666.9</ele>
        <time>2022-09-11T18:48:47Z</time>
      </trkpt>
      <trkpt lat="-11.5274680" lon="-76.6435570">
        <ele>3668.0</ele>
        <time>2022-09-11T18:48:54Z</time>
      </trkpt>
      <trkpt lat="-11.5275070" lon="-76.6436670">
        <ele>3669.2</ele>
        <time>2022-09-11T18:49:03Z</time>
      </trkpt>
      <trkpt lat="-11.5275120" lon="-76.6438310">
        <ele>3671.0</ele>
        <time>2022-09-11T18:49:16Z</time>
      </trkpt>
      <trkpt lat="-11.5275140" lon="-76.6438640">
        <ele>3671.3</ele>
        <time>2022-09-11T18:49:20Z</time>
      </trkpt>
      <trkpt lat="-11.5274940" lon="-76.6440330">
        <ele>3673.2</ele>
        <time>2022-09-11T18:49:35Z</time>
      </trkpt>
      <trkpt lat="-11.5274820" lon="-76.6442190">
        <ele>3675.2</ele>
        <time>2022-09-11T18:49:51Z</time>
      </trkpt>
      <trkpt lat="-11.5275420" lon="-76.6443840">
        <ele>3677.1</ele>
        <time>2022-09-11T18:50:05Z</time>
      </trkpt>
      <trkpt lat="-11.5275930" lon="-76.6445610">
        <ele>3679.1</ele>
        <time>2022-09-11T18:50:21Z</time>
      </trkpt>
      <trkpt lat="-11.5276940" lon="-76.6447200">
        <ele>3681.1</ele>
        <time>2022-09-11T18:50:39Z</time>
      </trkpt>
      <trkpt lat="-11.5277960" lon="-76.6448830">
        <ele>3683.2</ele>
        <time>2022-09-11T18:50:56Z</time>
      </trkpt>
      <trkpt lat="-11.5278770" lon="-76.6450350">
        <ele>3685.1</ele>
        <time>2022-09-11T18:51:13Z</time>
      </trkpt>
      <trkpt lat="-11.5279950" lon="-76.6448990">
        <ele>3687.1</ele>
        <time>2022-09-11T18:51:31Z</time>
      </trkpt>
      <trkpt lat="-11.5280810" lon="-76.6447360">
        <ele>3689.1</ele>
        <time>2022-09-11T18:51:47Z</time>
      </trkpt>
      <trkpt lat="-11.5281150" lon="-76.6445520">
        <ele>3691.1</ele>
        <time>2022-09-11T18:52:01Z</time>
      </trkpt>
      <trkpt lat="-11.5281980" lon="-76.6443780">
        <ele>3693.2</ele>
        <time>2022-09-11T18:52:17Z</time>
      </trkpt>
      <trkpt lat="-11.5282450" lon="-76.6441930">
        <ele>3695.2</ele>
        <time>2022-09-11T18:52:34Z</time>
      </trkpt>
      <trkpt lat="-11.5283250" lon="-76.6440250">
        <ele>3697.2</ele>
        <time>2022-09-11T18:52:51Z</time>
      </trkpt>
      <trkpt lat="-11.5284680" lon="-76.6439060">
        <ele>3699.3</ele>
        <time>2022-09-11T18:53:08Z</time>
      </trkpt>
      <trkpt lat="-11.5285550" lon="-76.6437430">
        <ele>3701.3</ele>
        <time>2022-09-11T18:53:24Z</time>
      </trkpt>
      <trkpt lat="-11.5286180" lon="-76.6435690">
        <ele>3703.3</ele>
        <time>2022-09-11T18:53:40Z</time>
      </trkpt>
      <trkpt lat="-11.5286980" lon="-76.6434870">
        <ele>3704.5</ele>
        <time>2022-09-11T18:53:50Z</time>
      </trkpt>
      <trkpt lat="-11.5288280" lon="-76.6433410">
        <ele>3706.7</ele>
        <time>2022-09-11T18:54:03Z</time>
      </trkpt>
      <trkpt lat="-11.5288990" lon="-76.6431670">
        <ele>3708.7</ele>
        <time>2022-09-11T18:54:15Z</time>
      </trkpt>
      <trkpt lat="-11.5289130" lon="-76.6430600">
        <ele>3709.9</ele>
        <time>2022-09-11T18:54:24Z</time>
      </trkpt>
      <trkpt lat="-11.5289800" lon="-76.6430170">
        <ele>3710.7</ele>
        <time>2022-09-11T18:54:31Z</time>
      </trkpt>
      <trkpt lat="-11.5290030" lon="-76.6430150">
        <ele>3711.0</ele>
        <time>2022-09-11T18:54:33Z</time>
      </trkpt>
      <trkpt lat="-11.5290660" lon="-76.6430160">
        <ele>3711.7</ele>
        <time>2022-09-11T18:54:38Z</time>
      </trkpt>
      <trkpt lat="-11.5292470" lon="-76.6430370">
        <ele>3713.7</ele>
        <time>2022-09-11T18:54:51Z</time>
      </trkpt>
      <trkpt lat="-11.5294350" lon="-76.6429920">
        <ele>3715.8</ele>
        <time>2022-09-11T18:55:03Z</time>
      </trkpt>
      <trkpt lat="-11.5296140" lon="-76.6429740">
        <ele>3717.8</ele>
        <time>2022-09-11T18:55:16Z</time>
      </trkpt>
      <trkpt lat="-11.5296340" lon="-76.6429760">
        <ele>3718.0</ele>
        <time>2022-09-11T18:55:18Z</time>
      </trkpt>
      <trkpt lat="-11.5297390" lon="-76.6430190">
        <ele>3719.3</ele>
        <time>2022-09-11T18:55:28Z</time>
      </trkpt>
      <trkpt lat="-11.5299070" lon="-76.6431180">
        <ele>3721.4</ele>
        <time>2022-09-11T18:55:40Z</time>
      </trkpt>
      <trkpt lat="-11.5300860" lon="-76.6431840">
        <ele>3723.5</ele>
        <time>2022-09-11T18:55:51Z</time>
      </trkpt>
      <trkpt lat="-11.5302530" lon="-76.6432860">
        <ele>3725.7</ele>
        <time>2022-09-11T18:56:04Z</time>
      </trkpt>
      <trkpt lat="-11.5303300" lon="-76.6433760">
        <ele>3726.9</ele>
        <time>2022-09-11T18:56:13Z</time>
      </trkpt>
      <trkpt lat="-11.5304870" lon="-76.6434790">
        <ele>3729.0</ele>
        <time>2022-09-11T18:56:28Z</time>
      </trkpt>
      <trkpt lat="-11.5305350" lon="-76.6434960">
        <ele>3729.6</ele>
        <time>2022-09-11T18:56:34Z</time>
      </trkpt>
      <trkpt lat="-11.5305930" lon="-76.6435410">
        <ele>3730.4</ele>
        <time>2022-09-11T19:02:10Z</time>
      </trkpt>
      <trkpt lat="-11.5306060" lon="-76.6435490">
        <ele>3730.5</ele>
        <time>2022-09-11T19:02:11Z</time>
      </trkpt>
      <trkpt lat="-11.5306450" lon="-76.6435740">
        <ele>3731.0</ele>
        <time>2022-09-11T19:02:14Z</time>
      </trkpt>
      <trkpt lat="-11.5306770" lon="-76.6435990">
        <ele>3731.5</ele>
        <time>2022-09-11T19:02:17Z</time>
      </trkpt>
      <trkpt lat="-11.5307330" lon="-76.6436270">
        <ele>3732.2</ele>
        <time>2022-09-11T19:02:22Z</time>
      </trkpt>
      <trkpt lat="-11.5308140" lon="-76.6436700">
        <ele>3733.2</ele>
        <time>2022-09-11T19:02:29Z</time>
      </trkpt>
      <trkpt lat="-11.5308350" lon="-76.6436800">
        <ele>3733.4</ele>
        <time>2022-09-11T19:02:31Z</time>
      </trkpt>
      <trkpt lat="-11.5309310" lon="-76.6437530">
        <ele>3734.8</ele>
        <time>2022-09-11T19:02:41Z</time>
      </trkpt>
      <trkpt lat="-11.5309710" lon="-76.6437980">
        <ele>3735.4</ele>
        <time>2022-09-11T19:02:46Z</time>
      </trkpt>
      <trkpt lat="-11.5309930" lon="-76.6438260">
        <ele>3735.8</ele>
        <time>2022-09-11T19:02:49Z</time>
      </trkpt>
      <trkpt lat="-11.5310030" lon="-76.6438530">
        <ele>3736.1</ele>
        <time>2022-09-11T19:02:52Z</time>
      </trkpt>
      <trkpt lat="-11.5311090" lon="-76.6439870">
        <ele>3738.0</ele>
        <time>2022-09-11T19:03:06Z</time>
      </trkpt>
      <trkpt lat="-11.5312420" lon="-76.6441110">
        <ele>3740.0</ele>
        <time>2022-09-11T19:03:19Z</time>
      </trkpt>
      <trkpt lat="-11.5313140" lon="-76.6441660">
        <ele>3740.9</ele>
        <time>2022-09-11T19:03:25Z</time>
      </trkpt>
      <trkpt lat="-11.5314050" lon="-76.6443380">
        <ele>3743.1</ele>
        <time>2022-09-11T19:03:37Z</time>
      </trkpt>
      <trkpt lat="-11.5315030" lon="-76.6445050">
        <ele>3745.2</ele>
        <time>2022-09-11T19:03:50Z</time>
      </trkpt>
      <trkpt lat="-11.5316380" lon="-76.6446270">
        <ele>3747.1</ele>
        <time>2022-09-11T19:04:02Z</time>
      </trkpt>
      <trkpt lat="-11.5318100" lon="-76.6445970">
        <ele>3749.1</ele>
        <time>2022-09-11T19:04:14Z</time>
      </trkpt>
      <trkpt lat="-11.5319480" lon="-76.6445700">
        <ele>3750.6</ele>
        <time>2022-09-11T19:04:23Z</time>
      </trkpt>
      <trkpt lat="-11.5321270" lon="-76.6446280">
        <ele>3752.7</ele>
        <time>2022-09-11T19:04:35Z</time>
      </trkpt>
      <trkpt lat="-11.5322880" lon="-76.6445510">
        <ele>3754.6</ele>
        <time>2022-09-11T19:04:47Z</time>
      </trkpt>
      <trkpt lat="-11.5324360" lon="-76.6444240">
        <ele>3756.8</ele>
        <time>2022-09-11T19:05:00Z</time>
      </trkpt>
      <trkpt lat="-11.5326210" lon="-76.6444480">
        <ele>3757.8</ele>
        <time>2022-09-11T19:05:12Z</time>
      </trkpt>
      <trkpt lat="-11.5327950" lon="-76.6443700">
        <ele>3757.4</ele>
        <time>2022-09-11T19:05:23Z</time>
      </trkpt>
      <trkpt lat="-11.5329090" lon="-76.6442230">
        <ele>3757.0</ele>
        <time>2022-09-11T19:05:35Z</time>
      </trkpt>
      <trkpt lat="-11.5330030" lon="-76.6440710">
        <ele>3756.6</ele>
        <time>2022-09-11T19:05:47Z</time>
      </trkpt>
      <trkpt lat="-11.5330430" lon="-76.6439960">
        <ele>3756.4</ele>
        <time>2022-09-11T19:05:56Z</time>
      </trkpt>
      <trkpt lat="-11.5330570" lon="-76.6439650">
        <ele>3756.4</ele>
        <time>2022-09-11T19:06:16Z</time>
      </trkpt>
      <trkpt lat="-11.5331240" lon="-76.6438930">
        <ele>3756.1</ele>
        <time>2022-09-11T19:06:22Z</time>
      </trkpt>
      <trkpt lat="-11.5331300" lon="-76.6438860">
        <ele>3756.1</ele>
        <time>2022-09-11T19:06:24Z</time>
      </trkpt>
      <trkpt lat="-11.5331980" lon="-76.6439230">
        <ele>3756.0</ele>
        <time>2022-09-11T19:25:05Z</time>
      </trkpt>
      <trkpt lat="-11.5332200" lon="-76.6439340">
        <ele>3755.9</ele>
        <time>2022-09-11T19:25:06Z</time>
      </trkpt>
      <trkpt lat="-11.5332680" lon="-76.6439580">
        <ele>3755.8</ele>
        <time>2022-09-11T19:25:08Z</time>
      </trkpt>
      <trkpt lat="-11.5333250" lon="-76.6439750">
        <ele>3755.7</ele>
        <time>2022-09-11T19:25:10Z</time>
      </trkpt>
      <trkpt lat="-11.5333870" lon="-76.6439840">
        <ele>3755.5</ele>
        <time>2022-09-11T19:25:12Z</time>
      </trkpt>
      <trkpt lat="-11.5335630" lon="-76.6440560">
        <ele>3755.1</ele>
        <time>2022-09-11T19:25:17Z</time>
      </trkpt>
      <trkpt lat="-11.5335900" lon="-76.6440890">
        <ele>3755.0</ele>
        <time>2022-09-11T19:25:18Z</time>
      </trkpt>
      <trkpt lat="-11.5337450" lon="-76.6441850">
        <ele>3754.6</ele>
        <time>2022-09-11T19:25:23Z</time>
      </trkpt>
      <trkpt lat="-11.5338480" lon="-76.6441900">
        <ele>3754.4</ele>
        <time>2022-09-11T19:25:26Z</time>
      </trkpt>
      <trkpt lat="-11.5340150" lon="-76.6442460">
        <ele>3754.0</ele>
        <time>2022-09-11T19:25:31Z</time>
      </trkpt>
      <trkpt lat="-11.5341880" lon="-76.6443250">
        <ele>3753.6</ele>
        <time>2022-09-11T19:25:36Z</time>
      </trkpt>
      <trkpt lat="-11.5342970" lon="-76.6443700">
        <ele>3753.4</ele>
        <time>2022-09-11T19:25:39Z</time>
      </trkpt>
      <trkpt lat="-11.5344990" lon="-76.6444650">
        <ele>3752.9</ele>
        <time>2022-09-11T19:25:44Z</time>
      </trkpt>
      <trkpt lat="-11.5345830" lon="-76.6446540">
        <ele>3752.4</ele>
        <time>2022-09-11T19:25:48Z</time>
      </trkpt>
      <trkpt lat="-11.5346490" lon="-76.6448370">
        <ele>3752.0</ele>
        <time>2022-09-11T19:25:51Z</time>
      </trkpt>
      <trkpt lat="-11.5347180" lon="-76.6450590">
        <ele>3751.5</ele>
        <time>2022-09-11T19:25:55Z</time>
      </trkpt>
      <trkpt lat="-11.5348720" lon="-76.6451980">
        <ele>3751.1</ele>
        <time>2022-09-11T19:25:59Z</time>
      </trkpt>
      <trkpt lat="-11.5349700" lon="-76.6452850">
        <ele>3750.8</ele>
        <time>2022-09-11T19:26:01Z</time>
      </trkpt>
      <trkpt lat="-11.5351510" lon="-76.6453670">
        <ele>3750.4</ele>
        <time>2022-09-11T19:26:04Z</time>
      </trkpt>
      <trkpt lat="-11.5353710" lon="-76.6454140">
        <ele>3749.9</ele>
        <time>2022-09-11T19:26:07Z</time>
      </trkpt>
      <trkpt lat="-11.5355230" lon="-76.6454430">
        <ele>3749.6</ele>
        <time>2022-09-11T19:26:09Z</time>
      </trkpt>
      <trkpt lat="-11.5357100" lon="-76.6455570">
        <ele>3749.1</ele>
        <time>2022-09-11T19:26:12Z</time>
      </trkpt>
      <trkpt lat="-11.5358690" lon="-76.6456940">
        <ele>3748.6</ele>
        <time>2022-09-11T19:26:15Z</time>
      </trkpt>
      <trkpt lat="-11.5360030" lon="-76.6458450">
        <ele>3748.2</ele>
        <time>2022-09-11T19:26:18Z</time>
      </trkpt>
      <trkpt lat="-11.5361340" lon="-76.6460250">
        <ele>3747.7</ele>
        <time>2022-09-11T19:26:22Z</time>
      </trkpt>
      <trkpt lat="-11.5363030" lon="-76.6461670">
        <ele>3747.2</ele>
        <time>2022-09-11T19:26:27Z</time>
      </trkpt>
      <trkpt lat="-11.5364680" lon="-76.6463070">
        <ele>3746.8</ele>
        <time>2022-09-11T19:26:32Z</time>
      </trkpt>
      <trkpt lat="-11.5365430" lon="-76.6464160">
        <ele>3746.5</ele>
        <time>2022-09-11T19:26:35Z</time>
      </trkpt>
      <trkpt lat="-11.5366120" lon="-76.6466030">
        <ele>3746.1</ele>
        <time>2022-09-11T19:26:40Z</time>
      </trkpt>
      <trkpt lat="-11.5366570" lon="-76.6467910">
        <ele>3745.7</ele>
        <time>2022-09-11T19:26:45Z</time>
      </trkpt>
      <trkpt lat="-11.5366890" lon="-76.6469810">
        <ele>3745.3</ele>
        <time>2022-09-11T19:26:51Z</time>
      </trkpt>
      <trkpt lat="-11.5367390" lon="-76.6471450">
        <ele>3744.9</ele>
        <time>2022-09-11T19:26:57Z</time>
      </trkpt>
      <trkpt lat="-11.5368760" lon="-76.6472810">
        <ele>3744.5</ele>
        <time>2022-09-11T19:27:04Z</time>
      </trkpt>
      <trkpt lat="-11.5370080" lon="-76.6474300">
        <ele>3744.0</ele>
        <time>2022-09-11T19:27:13Z</time>
      </trkpt>
      <trkpt lat="-11.5371570" lon="-76.6475360">
        <ele>3743.7</ele>
        <time>2022-09-11T19:27:18Z</time>
      </trkpt>
      <trkpt lat="-11.5372660" lon="-76.6476510">
        <ele>3743.3</ele>
        <time>2022-09-11T19:27:21Z</time>
      </trkpt>
      <trkpt lat="-11.5374290" lon="-76.6477400">
        <ele>3742.9</ele>
        <time>2022-09-11T19:27:25Z</time>
      </trkpt>
      <trkpt lat="-11.5376030" lon="-76.6478150">
        <ele>3742.5</ele>
        <time>2022-09-11T19:27:29Z</time>
      </trkpt>
      <trkpt lat="-11.5377260" lon="-76.6478980">
        <ele>3742.2</ele>
        <time>2022-09-11T19:27:32Z</time>
      </trkpt>
      <trkpt lat="-11.5378280" lon="-76.6480880">
        <ele>3741.7</ele>
        <time>2022-09-11T19:27:37Z</time>
      </trkpt>
      <trkpt lat="-11.5379130" lon="-76.6481520">
        <ele>3741.5</ele>
        <time>2022-09-11T19:27:39Z</time>
      </trkpt>
      <trkpt lat="-11.5381090" lon="-76.6482940">
        <ele>3741.0</ele>
        <time>2022-09-11T19:27:43Z</time>
      </trkpt>
      <trkpt lat="-11.5382800" lon="-76.6483930">
        <ele>3740.5</ele>
        <time>2022-09-11T19:27:46Z</time>
      </trkpt>
      <trkpt lat="-11.5383750" lon="-76.6484670">
        <ele>3740.3</ele>
        <time>2022-09-11T19:27:48Z</time>
      </trkpt>
      <trkpt lat="-11.5385500" lon="-76.6486120">
        <ele>3739.4</ele>
        <time>2022-09-11T19:27:52Z</time>
      </trkpt>
      <trkpt lat="-11.5387320" lon="-76.6486590">
        <ele>3737.9</ele>
        <time>2022-09-11T19:27:55Z</time>
      </trkpt>
      <trkpt lat="-11.5387880" lon="-76.6486740">
        <ele>3737.5</ele>
        <time>2022-09-11T19:27:56Z</time>
      </trkpt>
      <trkpt lat="-11.5389430" lon="-76.6488380">
        <ele>3735.7</ele>
        <time>2022-09-11T19:28:00Z</time>
      </trkpt>
      <trkpt lat="-11.5389440" lon="-76.6489750">
        <ele>3734.7</ele>
        <time>2022-09-11T19:28:02Z</time>
      </trkpt>
      <trkpt lat="-11.5389480" lon="-76.6491980">
        <ele>3733.0</ele>
        <time>2022-09-11T19:28:05Z</time>
      </trkpt>
      <trkpt lat="-11.5390150" lon="-76.6494110">
        <ele>3731.3</ele>
        <time>2022-09-11T19:28:08Z</time>
      </trkpt>
      <trkpt lat="-11.5390870" lon="-76.6496160">
        <ele>3729.7</ele>
        <time>2022-09-11T19:28:11Z</time>
      </trkpt>
      <trkpt lat="-11.5392250" lon="-76.6497740">
        <ele>3728.1</ele>
        <time>2022-09-11T19:28:14Z</time>
      </trkpt>
      <trkpt lat="-11.5394010" lon="-76.6498700">
        <ele>3726.5</ele>
        <time>2022-09-11T19:28:17Z</time>
      </trkpt>
      <trkpt lat="-11.5396230" lon="-76.6499300">
        <ele>3724.7</ele>
        <time>2022-09-11T19:28:21Z</time>
      </trkpt>
      <trkpt lat="-11.5398080" lon="-76.6500120">
        <ele>3723.2</ele>
        <time>2022-09-11T19:28:24Z</time>
      </trkpt>
      <trkpt lat="-11.5399040" lon="-76.6501130">
        <ele>3722.1</ele>
        <time>2022-09-11T19:28:26Z</time>
      </trkpt>
      <trkpt lat="-11.5400000" lon="-76.6502070">
        <ele>3721.1</ele>
        <time>2022-09-11T19:28:28Z</time>
      </trkpt>
      <trkpt lat="-11.5401480" lon="-76.6503180">
        <ele>3719.7</ele>
        <time>2022-09-11T19:28:31Z</time>
      </trkpt>
      <trkpt lat="-11.5402280" lon="-76.6504070">
        <ele>3718.7</ele>
        <time>2022-09-11T19:28:33Z</time>
      </trkpt>
      <trkpt lat="-11.5402710" lon="-76.6504510">
        <ele>3718.3</ele>
        <time>2022-09-11T19:28:34Z</time>
      </trkpt>
      <trkpt lat="-11.5404430" lon="-76.6505830">
        <ele>3716.6</ele>
        <time>2022-09-11T19:28:37Z</time>
      </trkpt>
      <trkpt lat="-11.5406260" lon="-76.6507160">
        <ele>3714.9</ele>
        <time>2022-09-11T19:28:40Z</time>
      </trkpt>
      <trkpt lat="-11.5406810" lon="-76.6507630">
        <ele>3714.3</ele>
        <time>2022-09-11T19:28:41Z</time>
      </trkpt>
      <trkpt lat="-11.5407710" lon="-76.6509360">
        <ele>3712.8</ele>
        <time>2022-09-11T19:28:44Z</time>
      </trkpt>
      <trkpt lat="-11.5407650" lon="-76.6511360">
        <ele>3711.3</ele>
        <time>2022-09-11T19:28:47Z</time>
      </trkpt>
      <trkpt lat="-11.5407500" lon="-76.6512040">
        <ele>3710.8</ele>
        <time>2022-09-11T19:28:48Z</time>
      </trkpt>
      <trkpt lat="-11.5407440" lon="-76.6512740">
        <ele>3710.3</ele>
        <time>2022-09-11T19:28:49Z</time>
      </trkpt>
      <trkpt lat="-11.5408180" lon="-76.6514620">
        <ele>3708.7</ele>
        <time>2022-09-11T19:28:52Z</time>
      </trkpt>
      <trkpt lat="-11.5409110" lon="-76.6515660">
        <ele>3707.6</ele>
        <time>2022-09-11T19:28:54Z</time>
      </trkpt>
      <trkpt lat="-11.5410510" lon="-76.6517340">
        <ele>3706.0</ele>
        <time>2022-09-11T19:28:57Z</time>
      </trkpt>
      <trkpt lat="-11.5411930" lon="-76.6519200">
        <ele>3704.2</ele>
        <time>2022-09-11T19:29:00Z</time>
      </trkpt>
      <trkpt lat="-11.5412730" lon="-76.6521220">
        <ele>3702.5</ele>
        <time>2022-09-11T19:29:03Z</time>
      </trkpt>
      <trkpt lat="-11.5413800" lon="-76.6523020">
        <ele>3700.9</ele>
        <time>2022-09-11T19:29:06Z</time>
      </trkpt>
      <trkpt lat="-11.5414240" lon="-76.6523410">
        <ele>3700.5</ele>
        <time>2022-09-11T19:29:07Z</time>
      </trkpt>
      <trkpt lat="-11.5415740" lon="-76.6523880">
        <ele>3699.3</ele>
        <time>2022-09-11T19:29:13Z</time>
      </trkpt>
      <trkpt lat="-11.5416600" lon="-76.6523410">
        <ele>3699.0</ele>
        <time>2022-09-11T19:29:50Z</time>
      </trkpt>
      <trkpt lat="-11.5416720" lon="-76.6523360">
        <ele>3698.9</ele>
        <time>2022-09-11T19:29:51Z</time>
      </trkpt>
      <trkpt lat="-11.5417220" lon="-76.6523000">
        <ele>3698.7</ele>
        <time>2022-09-11T19:29:55Z</time>
      </trkpt>
      <trkpt lat="-11.5419070" lon="-76.6522270">
        <ele>3697.8</ele>
        <time>2022-09-11T19:30:04Z</time>
      </trkpt>
      <trkpt lat="-11.5421230" lon="-76.6522140">
        <ele>3696.8</ele>
        <time>2022-09-11T19:30:11Z</time>
      </trkpt>
      <trkpt lat="-11.5423290" lon="-76.6522270">
        <ele>3695.9</ele>
        <time>2022-09-11T19:30:16Z</time>
      </trkpt>
      <trkpt lat="-11.5425490" lon="-76.6522670">
        <ele>3694.9</ele>
        <time>2022-09-11T19:30:20Z</time>
      </trkpt>
      <trkpt lat="-11.5426090" lon="-76.6522700">
        <ele>3694.7</ele>
        <time>2022-09-11T19:30:21Z</time>
      </trkpt>
      <trkpt lat="-11.5427800" lon="-76.6522390">
        <ele>3693.9</ele>
        <time>2022-09-11T19:30:24Z</time>
      </trkpt>
      <trkpt lat="-11.5429460" lon="-76.6522310">
        <ele>3693.2</ele>
        <time>2022-09-11T19:30:27Z</time>
      </trkpt>
      <trkpt lat="-11.5430920" lon="-76.6522450">
        <ele>3692.5</ele>
        <time>2022-09-11T19:30:30Z</time>
      </trkpt>
      <trkpt lat="-11.5432420" lon="-76.6523690">
        <ele>3691.6</ele>
        <time>2022-09-11T19:30:34Z</time>
      </trkpt>
      <trkpt lat="-11.5433280" lon="-76.6525780">
        <ele>3690.7</ele>
        <time>2022-09-11T19:30:38Z</time>
      </trkpt>
      <trkpt lat="-11.5433460" lon="-76.6526330">
        <ele>3690.4</ele>
        <time>2022-09-11T19:30:39Z</time>
      </trkpt>
      <trkpt lat="-11.5433600" lon="-76.6526890">
        <ele>3690.2</ele>
        <time>2022-09-11T19:30:40Z</time>
      </trkpt>
      <trkpt lat="-11.5433890" lon="-76.6528020">
        <ele>3689.7</ele>
        <time>2022-09-11T19:30:42Z</time>
      </trkpt>
      <trkpt lat="-11.5435260" lon="-76.6529750">
        <ele>3688.7</ele>
        <time>2022-09-11T19:30:46Z</time>
      </trkpt>
      <trkpt lat="-11.5436650" lon="-76.6531000">
        <ele>3687.9</ele>
        <time>2022-09-11T19:30:49Z</time>
      </trkpt>
      <trkpt lat="-11.5438650" lon="-76.6532150">
        <ele>3686.8</ele>
        <time>2022-09-11T19:30:53Z</time>
      </trkpt>
      <trkpt lat="-11.5439170" lon="-76.6532310">
        <ele>3686.6</ele>
        <time>2022-09-11T19:30:54Z</time>
      </trkpt>
      <trkpt lat="-11.5441040" lon="-76.6531910">
        <ele>3685.8</ele>
        <time>2022-09-11T19:30:58Z</time>
      </trkpt>
      <trkpt lat="-11.5442120" lon="-76.6530990">
        <ele>3685.1</ele>
        <time>2022-09-11T19:31:01Z</time>
      </trkpt>
      <trkpt lat="-11.5443820" lon="-76.6530140">
        <ele>3684.3</ele>
        <time>2022-09-11T19:31:06Z</time>
      </trkpt>
      <trkpt lat="-11.5444920" lon="-76.6529890">
        <ele>3683.8</ele>
        <time>2022-09-11T19:31:09Z</time>
      </trkpt>
      <trkpt lat="-11.5445890" lon="-76.6529770">
        <ele>3683.4</ele>
        <time>2022-09-11T19:31:12Z</time>
      </trkpt>
      <trkpt lat="-11.5446500" lon="-76.6529770">
        <ele>3683.1</ele>
        <time>2022-09-11T19:31:14Z</time>
      </trkpt>
      <trkpt lat="-11.5447130" lon="-76.6529820">
        <ele>3682.8</ele>
        <time>2022-09-11T19:31:16Z</time>
      </trkpt>
      <trkpt lat="-11.5447950" lon="-76.6529880">
        <ele>3682.4</ele>
        <time>2022-09-11T19:31:19Z</time>
      </trkpt>
      <trkpt lat="-11.5449020" lon="-76.6530170">
        <ele>3682.0</ele>
        <time>2022-09-11T19:31:23Z</time>
      </trkpt>
      <trkpt lat="-11.5449710" lon="-76.6530570">
        <ele>3681.6</ele>
        <time>2022-09-11T19:31:25Z</time>
      </trkpt>
      <trkpt lat="-11.5451170" lon="-76.6532060">
        <ele>3680.7</ele>
        <time>2022-09-11T19:31:29Z</time>
      </trkpt>
      <trkpt lat="-11.5451780" lon="-76.6533070">
        <ele>3680.2</ele>
        <time>2022-09-11T19:31:31Z</time>
      </trkpt>
      <trkpt lat="-11.5452400" lon="-76.6535030">
        <ele>3679.3</ele>
        <time>2022-09-11T19:31:34Z</time>
      </trkpt>
      <trkpt lat="-11.5452640" lon="-76.6535650">
        <ele>3679.0</ele>
        <time>2022-09-11T19:31:35Z</time>
      </trkpt>
      <trkpt lat="-11.5454560" lon="-76.6536950">
        <ele>3678.0</ele>
        <time>2022-09-11T19:31:39Z</time>
      </trkpt>
      <trkpt lat="-11.5456450" lon="-76.6537310">
        <ele>3677.1</ele>
        <time>2022-09-11T19:31:42Z</time>
      </trkpt>
      <trkpt lat="-11.5457730" lon="-76.6537370">
        <ele>3676.5</ele>
        <time>2022-09-11T19:31:44Z</time>
      </trkpt>
      <trkpt lat="-11.5459710" lon="-76.6536820">
        <ele>3675.6</ele>
        <time>2022-09-11T19:31:47Z</time>
      </trkpt>
      <trkpt lat="-11.5460380" lon="-76.6536650">
        <ele>3675.3</ele>
        <time>2022-09-11T19:31:48Z</time>
      </trkpt>
      <trkpt lat="-11.5462270" lon="-76.6536780">
        <ele>3674.5</ele>
        <time>2022-09-11T19:31:51Z</time>
      </trkpt>
      <trkpt lat="-11.5463360" lon="-76.6537450">
        <ele>3673.9</ele>
        <time>2022-09-11T19:31:53Z</time>
      </trkpt>
      <trkpt lat="-11.5465020" lon="-76.6538640">
        <ele>3673.0</ele>
        <time>2022-09-11T19:31:56Z</time>
      </trkpt>
      <trkpt lat="-11.5466060" lon="-76.6539310">
        <ele>3672.5</ele>
        <time>2022-09-11T19:31:58Z</time>
      </trkpt>
      <trkpt lat="-11.5468060" lon="-76.6539270">
        <ele>3671.6</ele>
        <time>2022-09-11T19:32:02Z</time>
      </trkpt>
      <trkpt lat="-11.5468490" lon="-76.6539210">
        <ele>3671.4</ele>
        <time>2022-09-11T19:32:03Z</time>
      </trkpt>
      <trkpt lat="-11.5470490" lon="-76.6539480">
        <ele>3670.5</ele>
        <time>2022-09-11T19:32:08Z</time>
      </trkpt>
      <trkpt lat="-11.5470920" lon="-76.6539520">
        <ele>3670.3</ele>
        <time>2022-09-11T19:32:09Z</time>
      </trkpt>
      <trkpt lat="-11.5472430" lon="-76.6538620">
        <ele>3669.5</ele>
        <time>2022-09-11T19:32:13Z</time>
      </trkpt>
      <trkpt lat="-11.5473130" lon="-76.6538050">
        <ele>3669.1</ele>
        <time>2022-09-11T19:32:15Z</time>
      </trkpt>
      <trkpt lat="-11.5475040" lon="-76.6537560">
        <ele>3668.3</ele>
        <time>2022-09-11T19:32:20Z</time>
      </trkpt>
      <trkpt lat="-11.5477040" lon="-76.6537200">
        <ele>3667.4</ele>
        <time>2022-09-11T19:32:25Z</time>
      </trkpt>
      <trkpt lat="-11.5478840" lon="-76.6536690">
        <ele>3666.5</ele>
        <time>2022-09-11T19:32:30Z</time>
      </trkpt>
      <trkpt lat="-11.5480500" lon="-76.6535870">
        <ele>3665.7</ele>
        <time>2022-09-11T19:32:41Z</time>
      </trkpt>
      <trkpt lat="-11.5480600" lon="-76.6535890">
        <ele>3665.7</ele>
        <time>2022-09-11T19:32:43Z</time>
      </trkpt>
      <trkpt lat="-11.5481260" lon="-76.6536270">
        <ele>3665.3</ele>
        <time>2022-09-11T19:33:15Z</time>
      </trkpt>
      <trkpt lat="-11.5481450" lon="-76.6536360">
        <ele>3665.2</ele>
        <time>2022-09-11T19:33:16Z</time>
      </trkpt>
      <trkpt lat="-11.5481960" lon="-76.6536780">
        <ele>3665.0</ele>
        <time>2022-09-11T19:33:19Z</time>
      </trkpt>
      <trkpt lat="-11.5482460" lon="-76.6537690">
        <ele>3664.5</ele>
        <time>2022-09-11T19:33:22Z</time>
      </trkpt>
      <trkpt lat="-11.5482880" lon="-76.6539150">
        <ele>3663.8</ele>
        <time>2022-09-11T19:33:25Z</time>
      </trkpt>
      <trkpt lat="-11.5484100" lon="-76.6540640">
        <ele>3663.0</ele>
        <time>2022-09-11T19:33:28Z</time>
      </trkpt>
      <trkpt lat="-11.5484800" lon="-76.6541870">
        <ele>3661.8</ele>
        <time>2022-09-11T19:33:30Z</time>
      </trkpt>
      <trkpt lat="-11.5485520" lon="-76.6543170">
        <ele>3661.1</ele>
        <time>2022-09-11T19:33:32Z</time>
      </trkpt>
      <trkpt lat="-11.5487290" lon="-76.6543840">
        <ele>3660.4</ele>
        <time>2022-09-11T19:33:35Z</time>
      </trkpt>
      <trkpt lat="-11.5487910" lon="-76.6543870">
        <ele>3660.3</ele>
        <time>2022-09-11T19:33:36Z</time>
      </trkpt>
      <trkpt lat="-11.5490200" lon="-76.6544200">
        <ele>3660.2</ele>
        <time>2022-09-11T19:33:40Z</time>
      </trkpt>
      <trkpt lat="-11.5491540" lon="-76.6544470">
        <ele>3660.3</ele>
        <time>2022-09-11T19:33:43Z</time>
      </trkpt>
      <trkpt lat="-11.5492360" lon="-76.6544600">
        <ele>3660.4</ele>
        <time>2022-09-11T19:33:45Z</time>
      </trkpt>
      <trkpt lat="-11.5493490" lon="-76.6544830">
        <ele>3660.6</ele>
        <time>2022-09-11T19:33:48Z</time>
      </trkpt>
      <trkpt lat="-11.5494510" lon="-76.6545040">
        <ele>3660.6</ele>
        <time>2022-09-11T19:33:51Z</time>
      </trkpt>
      <trkpt lat="-11.5495120" lon="-76.6545230">
        <ele>3660.7</ele>
        <time>2022-09-11T19:33:53Z</time>
      </trkpt>
      <trkpt lat="-11.5495760" lon="-76.6545450">
        <ele>3660.7</ele>
        <time>2022-09-11T19:33:55Z</time>
      </trkpt>
      <trkpt lat="-11.5496740" lon="-76.6545780">
        <ele>3660.9</ele>
        <time>2022-09-11T19:33:58Z</time>
      </trkpt>
      <trkpt lat="-11.5497390" lon="-76.6545840">
        <ele>3660.9</ele>
        <time>2022-09-11T19:34:00Z</time>
      </trkpt>
      <trkpt lat="-11.5498180" lon="-76.6545940">
        <ele>3660.9</ele>
        <time>2022-09-11T19:34:03Z</time>
      </trkpt>
      <trkpt lat="-11.5499640" lon="-76.6545960">
        <ele>3660.3</ele>
        <time>2022-09-11T19:34:09Z</time>
      </trkpt>
      <trkpt lat="-11.5501470" lon="-76.6546290">
        <ele>3659.4</ele>
        <time>2022-09-11T19:34:14Z</time>
      </trkpt>
      <trkpt lat="-11.5502740" lon="-76.6546890">
        <ele>3658.6</ele>
        <time>2022-09-11T19:34:17Z</time>
      </trkpt>
      <trkpt lat="-11.5505080" lon="-76.6547220">
        <ele>3657.7</ele>
        <time>2022-09-11T19:34:21Z</time>
      </trkpt>
      <trkpt lat="-11.5506780" lon="-76.6547290">
        <ele>3657.7</ele>
        <time>2022-09-11T19:34:24Z</time>
      </trkpt>
      <trkpt lat="-11.5508640" lon="-76.6548210">
        <ele>3657.3</ele>
        <time>2022-09-11T19:34:29Z</time>
      </trkpt>
      <trkpt lat="-11.5509930" lon="-76.6549800">
        <ele>3656.5</ele>
        <time>2022-09-11T19:34:33Z</time>
      </trkpt>
      <trkpt lat="-11.5511290" lon="-76.6551700">
        <ele>3655.7</ele>
        <time>2022-09-11T19:34:37Z</time>
      </trkpt>
      <trkpt lat="-11.5511660" lon="-76.6552130">
        <ele>3655.5</ele>
        <time>2022-09-11T19:34:38Z</time>
      </trkpt>
      <trkpt lat="-11.5513120" lon="-76.6553950">
        <ele>3654.6</ele>
        <time>2022-09-11T19:34:42Z</time>
      </trkpt>
      <trkpt lat="-11.5513420" lon="-76.6554490">
        <ele>3654.4</ele>
        <time>2022-09-11T19:34:43Z</time>
      </trkpt>
      <trkpt lat="-11.5514370" lon="-76.6556260">
        <ele>3653.8</ele>
        <time>2022-09-11T19:34:46Z</time>
      </trkpt>
      <trkpt lat="-11.5515270" lon="-76.6558060">
        <ele>3653.3</ele>
        <time>2022-09-11T19:34:49Z</time>
      </trkpt>
      <trkpt lat="-11.5516390" lon="-76.6559680">
        <ele>3652.6</ele>
        <time>2022-09-11T19:34:52Z</time>
      </trkpt>
      <trkpt lat="-11.5517660" lon="-76.6561310">
        <ele>3651.9</ele>
        <time>2022-09-11T19:34:55Z</time>
      </trkpt>
      <trkpt lat="-11.5518900" lon="-76.6562900">
        <ele>3651.4</ele>
        <time>2022-09-11T19:34:58Z</time>
      </trkpt>
      <trkpt lat="-11.5520310" lon="-76.6564130">
        <ele>3650.9</ele>
        <time>2022-09-11T19:35:01Z</time>
      </trkpt>
      <trkpt lat="-11.5521810" lon="-76.6565180">
        <ele>3650.5</ele>
        <time>2022-09-11T19:35:04Z</time>
      </trkpt>
      <trkpt lat="-11.5523820" lon="-76.6566230">
        <ele>3650.0</ele>
        <time>2022-09-11T19:35:08Z</time>
      </trkpt>
      <trkpt lat="-11.5525970" lon="-76.6567280">
        <ele>3649.3</ele>
        <time>2022-09-11T19:35:12Z</time>
      </trkpt>
      <trkpt lat="-11.5528240" lon="-76.6567920">
        <ele>3648.5</ele>
        <time>2022-09-11T19:35:16Z</time>
      </trkpt>
      <trkpt lat="-11.5529980" lon="-76.6568330">
        <ele>3647.6</ele>
        <time>2022-09-11T19:35:19Z</time>
      </trkpt>
      <trkpt lat="-11.5532030" lon="-76.6568290">
        <ele>3646.4</ele>
        <time>2022-09-11T19:35:22Z</time>
      </trkpt>
      <trkpt lat="-11.5533570" lon="-76.6568360">
        <ele>3645.9</ele>
        <time>2022-09-11T19:35:24Z</time>
      </trkpt>
      <trkpt lat="-11.5535700" lon="-76.6568980">
        <ele>3645.4</ele>
        <time>2022-09-11T19:35:27Z</time>
      </trkpt>
      <trkpt lat="-11.5537470" lon="-76.6569570">
        <ele>3644.9</ele>
        <time>2022-09-11T19:35:30Z</time>
      </trkpt>
      <trkpt lat="-11.5538060" lon="-76.6569690">
        <ele>3644.6</ele>
        <time>2022-09-11T19:35:31Z</time>
      </trkpt>
      <trkpt lat="-11.5539930" lon="-76.6570120">
        <ele>3643.6</ele>
        <time>2022-09-11T19:35:34Z</time>
      </trkpt>
      <trkpt lat="-11.5541830" lon="-76.6570680">
        <ele>3643.1</ele>
        <time>2022-09-11T19:35:37Z</time>
      </trkpt>
      <trkpt lat="-11.5543840" lon="-76.6571350">
        <ele>3643.1</ele>
        <time>2022-09-11T19:35:41Z</time>
      </trkpt>
      <trkpt lat="-11.5545800" lon="-76.6571780">
        <ele>3643.1</ele>
        <time>2022-09-11T19:35:47Z</time>
      </trkpt>
      <trkpt lat="-11.5547680" lon="-76.6571820">
        <ele>3642.8</ele>
        <time>2022-09-11T19:35:53Z</time>
      </trkpt>
      <trkpt lat="-11.5549180" lon="-76.6571940">
        <ele>3642.7</ele>
        <time>2022-09-11T19:35:58Z</time>
      </trkpt>
      <trkpt lat="-11.5551090" lon="-76.6572100">
        <ele>3642.5</ele>
        <time>2022-09-11T19:36:05Z</time>
      </trkpt>
      <trkpt lat="-11.5552820" lon="-76.6572170">
        <ele>3642.5</ele>
        <time>2022-09-11T19:36:11Z</time>
      </trkpt>
      <trkpt lat="-11.5554220" lon="-76.6572120">
        <ele>3642.6</ele>
        <time>2022-09-11T19:36:17Z</time>
      </trkpt>
      <trkpt lat="-11.5555970" lon="-76.6572120">
        <ele>3642.9</ele>
        <time>2022-09-11T19:36:25Z</time>
      </trkpt>
      <trkpt lat="-11.5557790" lon="-76.6571640">
        <ele>3643.3</ele>
        <time>2022-09-11T19:36:36Z</time>
      </trkpt>
      <trkpt lat="-11.5559670" lon="-76.6572080">
        <ele>3643.0</ele>
        <time>2022-09-11T19:36:46Z</time>
      </trkpt>
      <trkpt lat="-11.5561510" lon="-76.6572300">
        <ele>3643.4</ele>
        <time>2022-09-11T19:36:52Z</time>
      </trkpt>
      <trkpt lat="-11.5563620" lon="-76.6572340">
        <ele>3643.8</ele>
        <time>2022-09-11T19:36:59Z</time>
      </trkpt>
      <trkpt lat="-11.5565440" lon="-76.6572010">
        <ele>3644.2</ele>
        <time>2022-09-11T19:37:05Z</time>
      </trkpt>
      <trkpt lat="-11.5567310" lon="-76.6571710">
        <ele>3644.6</ele>
        <time>2022-09-11T19:37:13Z</time>
      </trkpt>
      <trkpt lat="-11.5569130" lon="-76.6571890">
        <ele>3645.0</ele>
        <time>2022-09-11T19:37:21Z</time>
      </trkpt>
      <trkpt lat="-11.5571050" lon="-76.6572010">
        <ele>3645.4</ele>
        <time>2022-09-11T19:37:30Z</time>
      </trkpt>
      <trkpt lat="-11.5572960" lon="-76.6572000">
        <ele>3645.8</ele>
        <time>2022-09-11T19:37:40Z</time>
      </trkpt>
      <trkpt lat="-11.5574600" lon="-76.6571790">
        <ele>3646.1</ele>
        <time>2022-09-11T19:37:55Z</time>
      </trkpt>
      <trkpt lat="-11.5574960" lon="-76.6572530">
        <ele>3646.3</ele>
        <time>2022-09-11T19:41:23Z</time>
      </trkpt>
      <trkpt lat="-11.5575100" lon="-76.6572730">
        <ele>3646.3</ele>
        <time>2022-09-11T19:41:24Z</time>
      </trkpt>
      <trkpt lat="-11.5575460" lon="-76.6573230">
        <ele>3646.5</ele>
        <time>2022-09-11T19:41:26Z</time>
      </trkpt>
      <trkpt lat="-11.5576100" lon="-76.6574130">
        <ele>3646.7</ele>
        <time>2022-09-11T19:41:29Z</time>
      </trkpt>
      <trkpt lat="-11.5576830" lon="-76.6574960">
        <ele>3646.9</ele>
        <time>2022-09-11T19:41:32Z</time>
      </trkpt>
      <trkpt lat="-11.5577770" lon="-76.6575440">
        <ele>3647.1</ele>
        <time>2022-09-11T19:41:35Z</time>
      </trkpt>
      <trkpt lat="-11.5578440" lon="-76.6575740">
        <ele>3647.3</ele>
        <time>2022-09-11T19:41:37Z</time>
      </trkpt>
      <trkpt lat="-11.5578720" lon="-76.6575900">
        <ele>3647.3</ele>
        <time>2022-09-11T19:41:38Z</time>
      </trkpt>
      <trkpt lat="-11.5579270" lon="-76.6576250">
        <ele>3647.5</ele>
        <time>2022-09-11T19:41:40Z</time>
      </trkpt>
      <trkpt lat="-11.5580400" lon="-76.6576640">
        <ele>3647.7</ele>
        <time>2022-09-11T19:41:43Z</time>
      </trkpt>
      <trkpt lat="-11.5582110" lon="-76.6576750">
        <ele>3648.1</ele>
        <time>2022-09-11T19:41:47Z</time>
      </trkpt>
      <trkpt lat="-11.5584170" lon="-76.6577310">
        <ele>3648.5</ele>
        <time>2022-09-11T19:41:53Z</time>
      </trkpt>
      <trkpt lat="-11.5586210" lon="-76.6578480">
        <ele>3649.0</ele>
        <time>2022-09-11T19:41:58Z</time>
      </trkpt>
      <trkpt lat="-11.5587050" lon="-76.6579220">
        <ele>3649.2</ele>
        <time>2022-09-11T19:42:00Z</time>
      </trkpt>
      <trkpt lat="-11.5589310" lon="-76.6579840">
        <ele>3649.7</ele>
        <time>2022-09-11T19:42:04Z</time>
      </trkpt>
      <trkpt lat="-11.5590030" lon="-76.6579800">
        <ele>3649.9</ele>
        <time>2022-09-11T19:42:05Z</time>
      </trkpt>
      <trkpt lat="-11.5591330" lon="-76.6579850">
        <ele>3650.1</ele>
        <time>2022-09-11T19:42:07Z</time>
      </trkpt>
      <trkpt lat="-11.5593160" lon="-76.6580460">
        <ele>3650.5</ele>
        <time>2022-09-11T19:42:10Z</time>
      </trkpt>
      <trkpt lat="-11.5595120" lon="-76.6581320">
        <ele>3651.0</ele>
        <time>2022-09-11T19:42:13Z</time>
      </trkpt>
      <trkpt lat="-11.5595800" lon="-76.6581530">
        <ele>3651.1</ele>
        <time>2022-09-11T19:42:14Z</time>
      </trkpt>
      <trkpt lat="-11.5597750" lon="-76.6581410">
        <ele>3651.5</ele>
        <time>2022-09-11T19:42:17Z</time>
      </trkpt>
      <trkpt lat="-11.5599730" lon="-76.6581360">
        <ele>3651.9</ele>
        <time>2022-09-11T19:42:20Z</time>
      </trkpt>
      <trkpt lat="-11.5600440" lon="-76.6581500">
        <ele>3652.1</ele>
        <time>2022-09-11T19:42:21Z</time>
      </trkpt>
      <trkpt lat="-11.5601970" lon="-76.6581630">
        <ele>3652.4</ele>
        <time>2022-09-11T19:42:23Z</time>
      </trkpt>
      <trkpt lat="-11.5604130" lon="-76.6581360">
        <ele>3652.9</ele>
        <time>2022-09-11T19:42:26Z</time>
      </trkpt>
      <trkpt lat="-11.5606120" lon="-76.6581110">
        <ele>3653.3</ele>
        <time>2022-09-11T19:42:29Z</time>
      </trkpt>
      <trkpt lat="-11.5606770" lon="-76.6581070">
        <ele>3653.4</ele>
        <time>2022-09-11T19:42:30Z</time>
      </trkpt>
      <trkpt lat="-11.5608590" lon="-76.6581220">
        <ele>3653.8</ele>
        <time>2022-09-11T19:42:33Z</time>
      </trkpt>
      <trkpt lat="-11.5609190" lon="-76.6581150">
        <ele>3653.9</ele>
        <time>2022-09-11T19:42:34Z</time>
      </trkpt>
      <trkpt lat="-11.5611000" lon="-76.6580860">
        <ele>3654.3</ele>
        <time>2022-09-11T19:42:37Z</time>
      </trkpt>
      <trkpt lat="-11.5611580" lon="-76.6580650">
        <ele>3654.4</ele>
        <time>2022-09-11T19:42:38Z</time>
      </trkpt>
      <trkpt lat="-11.5613360" lon="-76.6579590">
        <ele>3654.9</ele>
        <time>2022-09-11T19:42:41Z</time>
      </trkpt>
      <trkpt lat="-11.5614040" lon="-76.6579290">
        <ele>3655.0</ele>
        <time>2022-09-11T19:42:42Z</time>
      </trkpt>
      <trkpt lat="-11.5614680" lon="-76.6579100">
        <ele>3655.2</ele>
        <time>2022-09-11T19:42:43Z</time>
      </trkpt>
      <trkpt lat="-11.5616640" lon="-76.6579270">
        <ele>3655.6</ele>
        <time>2022-09-11T19:42:47Z</time>
      </trkpt>
      <trkpt lat="-11.5617080" lon="-76.6579310">
        <ele>3655.6</ele>
        <time>2022-09-11T19:42:48Z</time>
      </trkpt>
      <trkpt lat="-11.5619050" lon="-76.6579740">
        <ele>3656.1</ele>
        <time>2022-09-11T19:42:53Z</time>
      </trkpt>
      <trkpt lat="-11.5620480" lon="-76.6580700">
        <ele>3656.4</ele>
        <time>2022-09-11T19:42:57Z</time>
      </trkpt>
      <trkpt lat="-11.5622220" lon="-76.6581370">
        <ele>3656.8</ele>
        <time>2022-09-11T19:43:01Z</time>
      </trkpt>
      <trkpt lat="-11.5623060" lon="-76.6581730">
        <ele>3657.0</ele>
        <time>2022-09-11T19:43:03Z</time>
      </trkpt>
      <trkpt lat="-11.5625310" lon="-76.6581190">
        <ele>3657.5</ele>
        <time>2022-09-11T19:43:07Z</time>
      </trkpt>
      <trkpt lat="-11.5625890" lon="-76.6580930">
        <ele>3657.6</ele>
        <time>2022-09-11T19:43:08Z</time>
      </trkpt>
      <trkpt lat="-11.5627480" lon="-76.6579770">
        <ele>3658.0</ele>
        <time>2022-09-11T19:43:11Z</time>
      </trkpt>
      <trkpt lat="-11.5629280" lon="-76.6579170">
        <ele>3658.4</ele>
        <time>2022-09-11T19:43:14Z</time>
      </trkpt>
      <trkpt lat="-11.5631720" lon="-76.6578350">
        <ele>3658.9</ele>
        <time>2022-09-11T19:43:17Z</time>
      </trkpt>
      <trkpt lat="-11.5633270" lon="-76.6577680">
        <ele>3659.3</ele>
        <time>2022-09-11T19:43:19Z</time>
      </trkpt>
      <trkpt lat="-11.5634940" lon="-76.6576520">
        <ele>3659.7</ele>
        <time>2022-09-11T19:43:22Z</time>
      </trkpt>
      <trkpt lat="-11.5635350" lon="-76.6576310">
        <ele>3659.8</ele>
        <time>2022-09-11T19:43:23Z</time>
      </trkpt>
      <trkpt lat="-11.5636830" lon="-76.6575140">
        <ele>3660.2</ele>
        <time>2022-09-11T19:43:32Z</time>
      </trkpt>
      <trkpt lat="-11.5638070" lon="-76.6573870">
        <ele>3660.6</ele>
        <time>2022-09-11T19:43:42Z</time>
      </trkpt>
      <trkpt lat="-11.5639420" lon="-76.6572460">
        <ele>3661.0</ele>
        <time>2022-09-11T19:43:53Z</time>
      </trkpt>
      <trkpt lat="-11.5641250" lon="-76.6571910">
        <ele>3662.1</ele>
        <time>2022-09-11T19:44:04Z</time>
      </trkpt>
      <trkpt lat="-11.5643210" lon="-76.6571770">
        <ele>3663.3</ele>
        <time>2022-09-11T19:44:18Z</time>
      </trkpt>
      <trkpt lat="-11.5645100" lon="-76.6571670">
        <ele>3664.5</ele>
        <time>2022-09-11T19:44:31Z</time>
      </trkpt>
      <trkpt lat="-11.5646980" lon="-76.6572070">
        <ele>3665.7</ele>
        <time>2022-09-11T19:44:47Z</time>
      </trkpt>
      <trkpt lat="-11.5648780" lon="-76.6572340">
        <ele>3666.8</ele>
        <time>2022-09-11T19:45:05Z</time>
      </trkpt>
      <trkpt lat="-11.5649280" lon="-76.6572390">
        <ele>3667.1</ele>
        <time>2022-09-11T19:45:12Z</time>
      </trkpt>
      <trkpt lat="-11.5649550" lon="-76.6572510">
        <ele>3667.3</ele>
        <time>2022-09-11T19:45:55Z</time>
      </trkpt>
      <trkpt lat="-11.5649750" lon="-76.6572530">
        <ele>3667.4</ele>
        <time>2022-09-11T19:45:56Z</time>
      </trkpt>
      <trkpt lat="-11.5651690" lon="-76.6572630">
        <ele>3668.6</ele>
        <time>2022-09-11T19:46:04Z</time>
      </trkpt>
      <trkpt lat="-11.5652600" lon="-76.6572450">
        <ele>3669.2</ele>
        <time>2022-09-11T19:46:08Z</time>
      </trkpt>
      <trkpt lat="-11.5653200" lon="-76.6572190">
        <ele>3669.6</ele>
        <time>2022-09-11T19:46:11Z</time>
      </trkpt>
      <trkpt lat="-11.5654070" lon="-76.6571660">
        <ele>3670.2</ele>
        <time>2022-09-11T19:46:16Z</time>
      </trkpt>
      <trkpt lat="-11.5654760" lon="-76.6571250">
        <ele>3670.7</ele>
        <time>2022-09-11T19:46:21Z</time>
      </trkpt>
      <trkpt lat="-11.5655240" lon="-76.6570760">
        <ele>3671.1</ele>
        <time>2022-09-11T19:46:27Z</time>
      </trkpt>
      <trkpt lat="-11.5655330" lon="-76.6570650">
        <ele>3671.2</ele>
        <time>2022-09-11T19:46:30Z</time>
      </trkpt>
      <trkpt lat="-11.5655570" lon="-76.6570390">
        <ele>3671.4</ele>
        <time>2022-09-11T19:48:12Z</time>
      </trkpt>
      <trkpt lat="-11.5655680" lon="-76.6570250">
        <ele>3671.5</ele>
        <time>2022-09-11T19:48:13Z</time>
      </trkpt>
      <trkpt lat="-11.5656340" lon="-76.6569100">
        <ele>3672.3</ele>
        <time>2022-09-11T19:48:20Z</time>
      </trkpt>
      <trkpt lat="-11.5656570" lon="-76.6568490">
        <ele>3672.7</ele>
        <time>2022-09-11T19:48:24Z</time>
      </trkpt>
      <trkpt lat="-11.5656980" lon="-76.6568310">
        <ele>3673.0</ele>
        <time>2022-09-11T19:48:27Z</time>
      </trkpt>
      <trkpt lat="-11.5657350" lon="-76.6568320">
        <ele>3674.1</ele>
        <time>2022-09-11T19:48:30Z</time>
      </trkpt>
      <trkpt lat="-11.5657520" lon="-76.6568550">
        <ele>3675.2</ele>
        <time>2022-09-11T19:48:33Z</time>
      </trkpt>
      <trkpt lat="-11.5657610" lon="-76.6568810">
        <ele>3676.4</ele>
        <time>2022-09-11T19:48:36Z</time>
      </trkpt>
      <trkpt lat="-11.5657810" lon="-76.6569260">
        <ele>3677.5</ele>
        <time>2022-09-11T19:48:40Z</time>
      </trkpt>
      <trkpt lat="-11.5657800" lon="-76.6569850">
        <ele>3686.6</ele>
        <time>2022-09-11T19:48:45Z</time>
      </trkpt>
      <trkpt lat="-11.5657900" lon="-76.6569920">
        <ele>3687.7</ele>
        <time>2022-09-11T19:48:48Z</time>
      </trkpt>
      <trkpt lat="-11.5658000" lon="-76.6569620">
        <ele>3688.9</ele>
        <time>2022-09-11T19:48:51Z</time>
      </trkpt>
      <trkpt lat="-11.5657930" lon="-76.6568490">
        <ele>3682.0</ele>
        <time>2022-09-11T19:48:56Z</time>
      </trkpt>
      <trkpt lat="-11.5657800" lon="-76.6568040">
        <ele>3683.1</ele>
        <time>2022-09-11T19:48:58Z</time>
      </trkpt>
      <trkpt lat="-11.5657280" lon="-76.6567670">
        <ele>3684.2</ele>
        <time>2022-09-11T19:49:01Z</time>
      </trkpt>
      <trkpt lat="-11.5657260" lon="-76.6568190">
        <ele>3685.1</ele>
        <time>2022-09-11T19:49:10Z</time>
      </trkpt>
      <trkpt lat="-11.5657530" lon="-76.6568010">
        <ele>3685.7</ele>
        <time>2022-09-11T19:49:12Z</time>
      </trkpt>
      <trkpt lat="-11.5658050" lon="-76.6568600">
        <ele>3687.1</ele>
        <time>2022-09-11T19:49:17Z</time>
      </trkpt>
      <trkpt lat="-11.5658240" lon="-76.6570530">
        <ele>3690.7</ele>
        <time>2022-09-11T19:49:28Z</time>
      </trkpt>
      <trkpt lat="-11.5658240" lon="-76.6571430">
        <ele>3692.3</ele>
        <time>2022-09-11T19:49:34Z</time>
      </trkpt>
      <trkpt lat="-11.5658300" lon="-76.6572010">
        <ele>3693.4</ele>
        <time>2022-09-11T19:49:39Z</time>
      </trkpt>
      <trkpt lat="-11.5658490" lon="-76.6572990">
        <ele>3695.1</ele>
        <time>2022-09-11T19:49:49Z</time>
      </trkpt>
      <trkpt lat="-11.5658590" lon="-76.6574910">
        <ele>3698.1</ele>
        <time>2022-09-11T19:50:08Z</time>
      </trkpt>
      <trkpt lat="-11.5658950" lon="-76.6576670">
        <ele>3701.3</ele>
        <time>2022-09-11T19:50:22Z</time>
      </trkpt>
      <trkpt lat="-11.5659700" lon="-76.6578350">
        <ele>3701.6</ele>
        <time>2022-09-11T19:50:41Z</time>
      </trkpt>
      <trkpt lat="-11.5659650" lon="-76.6578680">
        <ele>3701.6</ele>
        <time>2022-09-11T19:50:45Z</time>
      </trkpt>
      <trkpt lat="-11.5659580" lon="-76.6579650">
        <ele>3701.7</ele>
        <time>2022-09-11T19:51:16Z</time>
      </trkpt>
      <trkpt lat="-11.5659560" lon="-76.6579450">
        <ele>3701.7</ele>
        <time>2022-09-11T19:51:17Z</time>
      </trkpt>
      <trkpt lat="-11.5659800" lon="-76.6577390">
        <ele>3701.8</ele>
        <time>2022-09-11T19:51:23Z</time>
      </trkpt>
      <trkpt lat="-11.5659910" lon="-76.6576650">
        <ele>3701.9</ele>
        <time>2022-09-11T19:51:28Z</time>
      </trkpt>
      <trkpt lat="-11.5659720" lon="-76.6578530">
        <ele>3702.1</ele>
        <time>2022-09-11T19:51:47Z</time>
      </trkpt>
      <trkpt lat="-11.5659690" lon="-76.6578690">
        <ele>3702.1</ele>
        <time>2022-09-11T19:51:48Z</time>
      </trkpt>
      <trkpt lat="-11.5659600" lon="-76.6580500">
        <ele>3702.4</ele>
        <time>2022-09-11T19:51:57Z</time>
      </trkpt>
      <trkpt lat="-11.5659650" lon="-76.6580590">
        <ele>3702.4</ele>
        <time>2022-09-11T19:51:59Z</time>
      </trkpt>
      <trkpt lat="-11.5659420" lon="-76.6579890">
        <ele>3702.5</ele>
        <time>2022-09-11T19:52:30Z</time>
      </trkpt>
      <trkpt lat="-11.5659410" lon="-76.6579660">
        <ele>3702.5</ele>
        <time>2022-09-11T19:52:31Z</time>
      </trkpt>
      <trkpt lat="-11.5659610" lon="-76.6578970">
        <ele>3702.6</ele>
        <time>2022-09-11T19:52:35Z</time>
      </trkpt>
      <trkpt lat="-11.5659660" lon="-76.6578950">
        <ele>3702.6</ele>
        <time>2022-09-11T19:52:36Z</time>
      </trkpt>
      <trkpt lat="-11.5659510" lon="-76.6578430">
        <ele>3702.6</ele>
        <time>2022-09-11T20:04:25Z</time>
      </trkpt>
      <trkpt lat="-11.5659520" lon="-76.6578560">
        <ele>3702.6</ele>
        <time>2022-09-11T20:04:26Z</time>
      </trkpt>
      <trkpt lat="-11.5659480" lon="-76.6578610">
        <ele>3702.6</ele>
        <time>2022-09-11T20:04:28Z</time>
      </trkpt>
      <trkpt lat="-11.5659390" lon="-76.6579470">
        <ele>3702.7</ele>
        <time>2022-09-11T20:04:36Z</time>
      </trkpt>
      <trkpt lat="-11.5659330" lon="-76.6580790">
        <ele>3702.7</ele>
        <time>2022-09-11T20:04:42Z</time>
      </trkpt>
      <trkpt lat="-11.5659200" lon="-76.6581650">
        <ele>3702.8</ele>
        <time>2022-09-11T20:04:47Z</time>
      </trkpt>
      <trkpt lat="-11.5659420" lon="-76.6582390">
        <ele>3702.8</ele>
        <time>2022-09-11T20:04:52Z</time>
      </trkpt>
      <trkpt lat="-11.5659640" lon="-76.6583380">
        <ele>3703.0</ele>
        <time>2022-09-11T20:04:59Z</time>
      </trkpt>
      <trkpt lat="-11.5659430" lon="-76.6584310">
        <ele>3703.4</ele>
        <time>2022-09-11T20:05:07Z</time>
      </trkpt>
      <trkpt lat="-11.5659450" lon="-76.6584400">
        <ele>3703.4</ele>
        <time>2022-09-11T20:05:08Z</time>
      </trkpt>
      <trkpt lat="-11.5659340" lon="-76.6583660">
        <ele>3703.1</ele>
        <time>2022-09-11T20:05:15Z</time>
      </trkpt>
      <trkpt lat="-11.5659000" lon="-76.6581640">
        <ele>3702.7</ele>
        <time>2022-09-11T20:05:20Z</time>
      </trkpt>
      <trkpt lat="-11.5659050" lon="-76.6579970">
        <ele>3702.3</ele>
        <time>2022-09-11T20:05:26Z</time>
      </trkpt>
      <trkpt lat="-11.5659130" lon="-76.6577900">
        <ele>3701.7</ele>
        <time>2022-09-11T20:13:56Z</time>
      </trkpt>
      <trkpt lat="-11.5659060" lon="-76.6577710">
        <ele>3701.7</ele>
        <time>2022-09-11T20:13:57Z</time>
      </trkpt>
      <trkpt lat="-11.5658240" lon="-76.6576330">
        <ele>3701.1</ele>
        <time>2022-09-11T20:14:05Z</time>
      </trkpt>
      <trkpt lat="-11.5657380" lon="-76.6574680">
        <ele>3697.6</ele>
        <time>2022-09-11T20:14:13Z</time>
      </trkpt>
      <trkpt lat="-11.5657360" lon="-76.6573710">
        <ele>3695.5</ele>
        <time>2022-09-11T20:14:18Z</time>
      </trkpt>
      <trkpt lat="-11.5657280" lon="-76.6571610">
        <ele>3690.3</ele>
        <time>2022-09-11T20:14:24Z</time>
      </trkpt>
      <trkpt lat="-11.5657210" lon="-76.6569740">
        <ele>3685.5</ele>
        <time>2022-09-11T20:14:27Z</time>
      </trkpt>
      <trkpt lat="-11.5657540" lon="-76.6567790">
        <ele>3680.7</ele>
        <time>2022-09-11T20:14:31Z</time>
      </trkpt>
      <trkpt lat="-11.5657420" lon="-76.6567160">
        <ele>3679.3</ele>
        <time>2022-09-11T20:14:35Z</time>
      </trkpt>
      <trkpt lat="-11.5656870" lon="-76.6565430">
        <ele>3675.2</ele>
        <time>2022-09-11T20:14:44Z</time>
      </trkpt>
      <trkpt lat="-11.5656880" lon="-76.6565340">
        <ele>3674.6</ele>
        <time>2022-09-11T20:14:47Z</time>
      </trkpt>
      <trkpt lat="-11.5657080" lon="-76.6566090">
        <ele>3674.5</ele>
        <time>2022-09-11T20:14:53Z</time>
      </trkpt>
      <trkpt lat="-11.5657550" lon="-76.6566850">
        <ele>3674.3</ele>
        <time>2022-09-11T20:14:57Z</time>
      </trkpt>
      <trkpt lat="-11.5658170" lon="-76.6566590">
        <ele>3674.2</ele>
        <time>2022-09-11T20:15:04Z</time>
      </trkpt>
      <trkpt lat="-11.5657950" lon="-76.6566390">
        <ele>3674.2</ele>
        <time>2022-09-11T20:15:08Z</time>
      </trkpt>
      <trkpt lat="-11.5657890" lon="-76.6566380">
        <ele>3674.2</ele>
        <time>2022-09-11T20:15:10Z</time>
      </trkpt>
      <trkpt lat="-11.5657690" lon="-76.6567020">
        <ele>3666.7</ele>
        <time>2022-09-11T20:16:23Z</time>
      </trkpt>
      <trkpt lat="-11.5657660" lon="-76.6566770">
        <ele>3666.5</ele>
        <time>2022-09-11T20:17:10Z</time>
      </trkpt>
      <trkpt lat="-11.5657610" lon="-76.6566730">
        <ele>3665.9</ele>
        <time>2022-09-11T20:17:11Z</time>
      </trkpt>
      <trkpt lat="-11.5657580" lon="-76.6566670">
        <ele>3665.7</ele>
        <time>2022-09-11T20:17:12Z</time>
      </trkpt>
      <trkpt lat="-11.5657590" lon="-76.6566620">
        <ele>3665.5</ele>
        <time>2022-09-11T20:17:13Z</time>
      </trkpt>
      <trkpt lat="-11.5657650" lon="-76.6566480">
        <ele>3665.3</ele>
        <time>2022-09-11T20:17:14Z</time>
      </trkpt>
      <trkpt lat="-11.5657600" lon="-76.6566540">
        <ele>3665.1</ele>
        <time>2022-09-11T20:17:15Z</time>
      </trkpt>
      <trkpt lat="-11.5657620" lon="-76.6566420">
        <ele>3664.9</ele>
        <time>2022-09-11T20:17:16Z</time>
      </trkpt>
      <trkpt lat="-11.5657610" lon="-76.6566390">
        <ele>3664.7</ele>
        <time>2022-09-11T20:17:17Z</time>
      </trkpt>
      <trkpt lat="-11.5657610" lon="-76.6566380">
        <ele>3664.5</ele>
        <time>2022-09-11T20:17:18Z</time>
      </trkpt>
      <trkpt lat="-11.5657620" lon="-76.6566380">
        <ele>3664.3</ele>
        <time>2022-09-11T20:17:19Z</time>
      </trkpt>
      <trkpt lat="-11.5657620" lon="-76.6566380">
        <ele>3664.1</ele>
        <time>2022-09-11T20:17:20Z</time>
      </trkpt>
      <trkpt lat="-11.5657620" lon="-76.6566380">
        <ele>3664.0</ele>
        <time>2022-09-11T20:17:21Z</time>
      </trkpt>
      <trkpt lat="-11.5657620" lon="-76.6566370">
        <ele>3663.8</ele>
        <time>2022-09-11T20:17:22Z</time>
      </trkpt>
      <trkpt lat="-11.5657610" lon="-76.6566370">
        <ele>3663.6</ele>
        <time>2022-09-11T20:17:24Z</time>
      </trkpt>
      <trkpt lat="-11.5657610" lon="-76.6566370">
        <ele>3663.4</ele>
        <time>2022-09-11T20:17:25Z</time>
      </trkpt>
      <trkpt lat="-11.5657610" lon="-76.6566360">
        <ele>3663.2</ele>
        <time>2022-09-11T20:17:26Z</time>
      </trkpt>
      <trkpt lat="-11.5657610" lon="-76.6566360">
        <ele>3663.0</ele>
        <time>2022-09-11T20:17:27Z</time>
      </trkpt>
      <trkpt lat="-11.5657620" lon="-76.6566360">
        <ele>3662.8</ele>
        <time>2022-09-11T20:17:28Z</time>
      </trkpt>
      <trkpt lat="-11.5657630" lon="-76.6566350">
        <ele>3662.6</ele>
        <time>2022-09-11T20:17:30Z</time>
      </trkpt>
      <trkpt lat="-11.5657640" lon="-76.6566360">
        <ele>3662.4</ele>
        <time>2022-09-11T20:17:31Z</time>
      </trkpt>
      <trkpt lat="-11.5657660" lon="-76.6566360">
        <ele>3661.5</ele>
        <time>2022-09-11T20:17:32Z</time>
      </trkpt>
      <trkpt lat="-11.5657700" lon="-76.6566330">
        <ele>3661.3</ele>
        <time>2022-09-11T20:17:34Z</time>
      </trkpt>
      <trkpt lat="-11.5657320" lon="-76.6566330">
        <ele>3661.9</ele>
        <time>2022-09-11T20:18:07Z</time>
      </trkpt>
      <trkpt lat="-11.5657180" lon="-76.6566300">
        <ele>3662.2</ele>
        <time>2022-09-11T20:18:08Z</time>
      </trkpt>
      <trkpt lat="-11.5656960" lon="-76.6566140">
        <ele>3662.0</ele>
        <time>2022-09-11T20:18:10Z</time>
      </trkpt>
      <trkpt lat="-11.5656800" lon="-76.6565840">
        <ele>3663.0</ele>
        <time>2022-09-11T20:18:11Z</time>
      </trkpt>
      <trkpt lat="-11.5656740" lon="-76.6565640">
        <ele>3662.8</ele>
        <time>2022-09-11T20:18:12Z</time>
      </trkpt>
      <trkpt lat="-11.5656720" lon="-76.6565450">
        <ele>3663.3</ele>
        <time>2022-09-11T20:18:14Z</time>
      </trkpt>
      <trkpt lat="-11.5656670" lon="-76.6565180">
        <ele>3663.2</ele>
        <time>2022-09-11T20:18:15Z</time>
      </trkpt>
      <trkpt lat="-11.5656630" lon="-76.6565060">
        <ele>3663.0</ele>
        <time>2022-09-11T20:18:16Z</time>
      </trkpt>
      <trkpt lat="-11.5656510" lon="-76.6564880">
        <ele>3663.7</ele>
        <time>2022-09-11T20:18:17Z</time>
      </trkpt>
      <trkpt lat="-11.5656290" lon="-76.6564570">
        <ele>3664.7</ele>
        <time>2022-09-11T20:18:19Z</time>
      </trkpt>
      <trkpt lat="-11.5656160" lon="-76.6564370">
        <ele>3664.5</ele>
        <time>2022-09-11T20:18:21Z</time>
      </trkpt>
      <trkpt lat="-11.5655900" lon="-76.6564160">
        <ele>3664.9</ele>
        <time>2022-09-11T20:18:22Z</time>
      </trkpt>
      <trkpt lat="-11.5655810" lon="-76.6564100">
        <ele>3664.8</ele>
        <time>2022-09-11T20:18:23Z</time>
      </trkpt>
      <trkpt lat="-11.5655470" lon="-76.6563880">
        <ele>3664.3</ele>
        <time>2022-09-11T20:18:25Z</time>
      </trkpt>
      <trkpt lat="-11.5655190" lon="-76.6563710">
        <ele>3664.5</ele>
        <time>2022-09-11T20:18:26Z</time>
      </trkpt>
      <trkpt lat="-11.5655020" lon="-76.6563600">
        <ele>3663.8</ele>
        <time>2022-09-11T20:18:27Z</time>
      </trkpt>
      <trkpt lat="-11.5654780" lon="-76.6563380">
        <ele>3663.6</ele>
        <time>2022-09-11T20:18:29Z</time>
      </trkpt>
      <trkpt lat="-11.5654570" lon="-76.6563200">
        <ele>3662.7</ele>
        <time>2022-09-11T20:18:30Z</time>
      </trkpt>
      <trkpt lat="-11.5654480" lon="-76.6563130">
        <ele>3662.5</ele>
        <time>2022-09-11T20:18:31Z</time>
      </trkpt>
      <trkpt lat="-11.5654330" lon="-76.6562850">
        <ele>3662.0</ele>
        <time>2022-09-11T20:18:33Z</time>
      </trkpt>
      <trkpt lat="-11.5654290" lon="-76.6562540">
        <ele>3660.7</ele>
        <time>2022-09-11T20:18:34Z</time>
      </trkpt>
      <trkpt lat="-11.5654320" lon="-76.6562290">
        <ele>3661.2</ele>
        <time>2022-09-11T20:18:35Z</time>
      </trkpt>
      <trkpt lat="-11.5654410" lon="-76.6561960">
        <ele>3660.6</ele>
        <time>2022-09-11T20:18:37Z</time>
      </trkpt>
      <trkpt lat="-11.5654580" lon="-76.6561690">
        <ele>3660.4</ele>
        <time>2022-09-11T20:18:38Z</time>
      </trkpt>
      <trkpt lat="-11.5654680" lon="-76.6561590">
        <ele>3660.1</ele>
        <time>2022-09-11T20:18:39Z</time>
      </trkpt>
      <trkpt lat="-11.5655030" lon="-76.6561480">
        <ele>3660.3</ele>
        <time>2022-09-11T20:18:40Z</time>
      </trkpt>
      <trkpt lat="-11.5655120" lon="-76.6561470">
        <ele>3660.1</ele>
        <time>2022-09-11T20:18:41Z</time>
      </trkpt>
      <trkpt lat="-11.5655410" lon="-76.6561560">
        <ele>3660.1</ele>
        <time>2022-09-11T20:18:43Z</time>
      </trkpt>
      <trkpt lat="-11.5655510" lon="-76.6561600">
        <ele>3659.9</ele>
        <time>2022-09-11T20:18:44Z</time>
      </trkpt>
      <trkpt lat="-11.5655870" lon="-76.6561800">
        <ele>3660.4</ele>
        <time>2022-09-11T20:18:45Z</time>
      </trkpt>
      <trkpt lat="-11.5655990" lon="-76.6561870">
        <ele>3660.0</ele>
        <time>2022-09-11T20:18:46Z</time>
      </trkpt>
      <trkpt lat="-11.5656300" lon="-76.6562090">
        <ele>3660.7</ele>
        <time>2022-09-11T20:18:47Z</time>
      </trkpt>
      <trkpt lat="-11.5656620" lon="-76.6562660">
        <ele>3661.0</ele>
        <time>2022-09-11T20:18:48Z</time>
      </trkpt>
      <trkpt lat="-11.5656930" lon="-76.6563110">
        <ele>3660.8</ele>
        <time>2022-09-11T20:18:49Z</time>
      </trkpt>
      <trkpt lat="-11.5657230" lon="-76.6563620">
        <ele>3660.5</ele>
        <time>2022-09-11T20:18:50Z</time>
      </trkpt>
      <trkpt lat="-11.5657480" lon="-76.6564160">
        <ele>3659.0</ele>
        <time>2022-09-11T20:18:51Z</time>
      </trkpt>
      <trkpt lat="-11.5657700" lon="-76.6564690">
        <ele>3656.0</ele>
        <time>2022-09-11T20:18:52Z</time>
      </trkpt>
      <trkpt lat="-11.5657930" lon="-76.6565170">
        <ele>3654.8</ele>
        <time>2022-09-11T20:18:53Z</time>
      </trkpt>
      <trkpt lat="-11.5658200" lon="-76.6565590">
        <ele>3652.9</ele>
        <time>2022-09-11T20:18:54Z</time>
      </trkpt>
      <trkpt lat="-11.5658590" lon="-76.6565950">
        <ele>3651.5</ele>
        <time>2022-09-11T20:18:55Z</time>
      </trkpt>
      <trkpt lat="-11.5659100" lon="-76.6566260">
        <ele>3650.3</ele>
        <time>2022-09-11T20:18:56Z</time>
      </trkpt>
      <trkpt lat="-11.5659610" lon="-76.6566570">
        <ele>3650.1</ele>
        <time>2022-09-11T20:18:57Z</time>
      </trkpt>
      <trkpt lat="-11.5660120" lon="-76.6566950">
        <ele>3650.9</ele>
        <time>2022-09-11T20:18:58Z</time>
      </trkpt>
      <trkpt lat="-11.5660550" lon="-76.6567280">
        <ele>3652.4</ele>
        <time>2022-09-11T20:18:59Z</time>
      </trkpt>
      <trkpt lat="-11.5660900" lon="-76.6567530">
        <ele>3651.6</ele>
        <time>2022-09-11T20:19:00Z</time>
      </trkpt>
      <trkpt lat="-11.5661330" lon="-76.6567780">
        <ele>3653.4</ele>
        <time>2022-09-11T20:19:01Z</time>
      </trkpt>
      <trkpt lat="-11.5661800" lon="-76.6568110">
        <ele>3655.1</ele>
        <time>2022-09-11T20:19:02Z</time>
      </trkpt>
      <trkpt lat="-11.5662250" lon="-76.6568480">
        <ele>3657.0</ele>
        <time>2022-09-11T20:19:03Z</time>
      </trkpt>
      <trkpt lat="-11.5662630" lon="-76.6568900">
        <ele>3658.6</ele>
        <time>2022-09-11T20:19:04Z</time>
      </trkpt>
      <trkpt lat="-11.5662960" lon="-76.6569330">
        <ele>3660.1</ele>
        <time>2022-09-11T20:19:05Z</time>
      </trkpt>
      <trkpt lat="-11.5663330" lon="-76.6569710">
        <ele>3659.1</ele>
        <time>2022-09-11T20:19:06Z</time>
      </trkpt>
      <trkpt lat="-11.5663750" lon="-76.6570110">
        <ele>3660.0</ele>
        <time>2022-09-11T20:19:07Z</time>
      </trkpt>
      <trkpt lat="-11.5664180" lon="-76.6570550">
        <ele>3660.5</ele>
        <time>2022-09-11T20:19:08Z</time>
      </trkpt>
      <trkpt lat="-11.5664620" lon="-76.6570940">
        <ele>3660.5</ele>
        <time>2022-09-11T20:19:09Z</time>
      </trkpt>
      <trkpt lat="-11.5665050" lon="-76.6571270">
        <ele>3660.2</ele>
        <time>2022-09-11T20:19:10Z</time>
      </trkpt>
      <trkpt lat="-11.5665540" lon="-76.6571460">
        <ele>3657.6</ele>
        <time>2022-09-11T20:19:11Z</time>
      </trkpt>
      <trkpt lat="-11.5666050" lon="-76.6571570">
        <ele>3656.7</ele>
        <time>2022-09-11T20:19:12Z</time>
      </trkpt>
      <trkpt lat="-11.5666550" lon="-76.6571650">
        <ele>3650.6</ele>
        <time>2022-09-11T20:19:13Z</time>
      </trkpt>
      <trkpt lat="-11.5667030" lon="-76.6571660">
        <ele>3647.3</ele>
        <time>2022-09-11T20:19:14Z</time>
      </trkpt>
      <trkpt lat="-11.5667460" lon="-76.6571650">
        <ele>3644.1</ele>
        <time>2022-09-11T20:19:15Z</time>
      </trkpt>
      <trkpt lat="-11.5667760" lon="-76.6571670">
        <ele>3641.1</ele>
        <time>2022-09-11T20:19:16Z</time>
      </trkpt>
      <trkpt lat="-11.5668130" lon="-76.6571830">
        <ele>3640.9</ele>
        <time>2022-09-11T20:19:17Z</time>
      </trkpt>
      <trkpt lat="-11.5668260" lon="-76.6571900">
        <ele>3638.2</ele>
        <time>2022-09-11T20:19:18Z</time>
      </trkpt>
      <trkpt lat="-11.5668720" lon="-76.6572180">
        <ele>3637.9</ele>
        <time>2022-09-11T20:19:19Z</time>
      </trkpt>
      <trkpt lat="-11.5669280" lon="-76.6572430">
        <ele>3638.6</ele>
        <time>2022-09-11T20:19:20Z</time>
      </trkpt>
      <trkpt lat="-11.5669890" lon="-76.6572690">
        <ele>3638.0</ele>
        <time>2022-09-11T20:19:21Z</time>
      </trkpt>
      <trkpt lat="-11.5670510" lon="-76.6573030">
        <ele>3637.4</ele>
        <time>2022-09-11T20:19:22Z</time>
      </trkpt>
      <trkpt lat="-11.5671140" lon="-76.6573350">
        <ele>3636.7</ele>
        <time>2022-09-11T20:19:23Z</time>
      </trkpt>
      <trkpt lat="-11.5671690" lon="-76.6573600">
        <ele>3636.1</ele>
        <time>2022-09-11T20:19:24Z</time>
      </trkpt>
      <trkpt lat="-11.5672110" lon="-76.6573830">
        <ele>3635.7</ele>
        <time>2022-09-11T20:19:25Z</time>
      </trkpt>
      <trkpt lat="-11.5672410" lon="-76.6574100">
        <ele>3635.3</ele>
        <time>2022-09-11T20:19:26Z</time>
      </trkpt>
      <trkpt lat="-11.5672880" lon="-76.6574410">
        <ele>3634.8</ele>
        <time>2022-09-11T20:19:27Z</time>
      </trkpt>
      <trkpt lat="-11.5673460" lon="-76.6574720">
        <ele>3634.2</ele>
        <time>2022-09-11T20:19:28Z</time>
      </trkpt>
      <trkpt lat="-11.5674000" lon="-76.6575000">
        <ele>3633.6</ele>
        <time>2022-09-11T20:19:29Z</time>
      </trkpt>
      <trkpt lat="-11.5674480" lon="-76.6575220">
        <ele>3633.2</ele>
        <time>2022-09-11T20:19:30Z</time>
      </trkpt>
      <trkpt lat="-11.5674990" lon="-76.6575410">
        <ele>3632.6</ele>
        <time>2022-09-11T20:19:31Z</time>
      </trkpt>
      <trkpt lat="-11.5675510" lon="-76.6575580">
        <ele>3632.1</ele>
        <time>2022-09-11T20:19:32Z</time>
      </trkpt>
      <trkpt lat="-11.5676060" lon="-76.6575720">
        <ele>3631.6</ele>
        <time>2022-09-11T20:19:33Z</time>
      </trkpt>
      <trkpt lat="-11.5676560" lon="-76.6575850">
        <ele>3631.1</ele>
        <time>2022-09-11T20:19:34Z</time>
      </trkpt>
      <trkpt lat="-11.5677030" lon="-76.6575990">
        <ele>3630.7</ele>
        <time>2022-09-11T20:19:35Z</time>
      </trkpt>
      <trkpt lat="-11.5677330" lon="-76.6576190">
        <ele>3630.3</ele>
        <time>2022-09-11T20:19:36Z</time>
      </trkpt>
      <trkpt lat="-11.5677510" lon="-76.6576280">
        <ele>3630.2</ele>
        <time>2022-09-11T20:19:37Z</time>
      </trkpt>
      <trkpt lat="-11.5677990" lon="-76.6576570">
        <ele>3629.6</ele>
        <time>2022-09-11T20:19:39Z</time>
      </trkpt>
      <trkpt lat="-11.5678230" lon="-76.6576720">
        <ele>3629.4</ele>
        <time>2022-09-11T20:19:40Z</time>
      </trkpt>
      <trkpt lat="-11.5678770" lon="-76.6576920">
        <ele>3628.8</ele>
        <time>2022-09-11T20:19:42Z</time>
      </trkpt>
      <trkpt lat="-11.5679580" lon="-76.6577210">
        <ele>3628.1</ele>
        <time>2022-09-11T20:19:43Z</time>
      </trkpt>
      <trkpt lat="-11.5680060" lon="-76.6577360">
        <ele>3627.6</ele>
        <time>2022-09-11T20:19:44Z</time>
      </trkpt>
      <trkpt lat="-11.5680560" lon="-76.6577470">
        <ele>3627.1</ele>
        <time>2022-09-11T20:19:45Z</time>
      </trkpt>
      <trkpt lat="-11.5681080" lon="-76.6577570">
        <ele>3626.6</ele>
        <time>2022-09-11T20:19:46Z</time>
      </trkpt>
      <trkpt lat="-11.5681590" lon="-76.6577700">
        <ele>3626.1</ele>
        <time>2022-09-11T20:19:47Z</time>
      </trkpt>
      <trkpt lat="-11.5682130" lon="-76.6577810">
        <ele>3625.6</ele>
        <time>2022-09-11T20:19:48Z</time>
      </trkpt>
      <trkpt lat="-11.5682690" lon="-76.6577820">
        <ele>3625.1</ele>
        <time>2022-09-11T20:19:49Z</time>
      </trkpt>
      <trkpt lat="-11.5683270" lon="-76.6577790">
        <ele>3624.6</ele>
        <time>2022-09-11T20:19:50Z</time>
      </trkpt>
      <trkpt lat="-11.5683930" lon="-76.6577650">
        <ele>3623.9</ele>
        <time>2022-09-11T20:19:51Z</time>
      </trkpt>
      <trkpt lat="-11.5684600" lon="-76.6577380">
        <ele>3623.3</ele>
        <time>2022-09-11T20:19:52Z</time>
      </trkpt>
      <trkpt lat="-11.5685170" lon="-76.6576990">
        <ele>3622.6</ele>
        <time>2022-09-11T20:19:53Z</time>
      </trkpt>
      <trkpt lat="-11.5685630" lon="-76.6576670">
        <ele>3622.1</ele>
        <time>2022-09-11T20:19:54Z</time>
      </trkpt>
      <trkpt lat="-11.5686080" lon="-76.6576500">
        <ele>3621.7</ele>
        <time>2022-09-11T20:19:55Z</time>
      </trkpt>
      <trkpt lat="-11.5686570" lon="-76.6576400">
        <ele>3621.2</ele>
        <time>2022-09-11T20:19:56Z</time>
      </trkpt>
      <trkpt lat="-11.5687020" lon="-76.6576330">
        <ele>3620.8</ele>
        <time>2022-09-11T20:19:57Z</time>
      </trkpt>
      <trkpt lat="-11.5687390" lon="-76.6576360">
        <ele>3620.4</ele>
        <time>2022-09-11T20:19:58Z</time>
      </trkpt>
      <trkpt lat="-11.5687510" lon="-76.6576370">
        <ele>3620.3</ele>
        <time>2022-09-11T20:19:59Z</time>
      </trkpt>
      <trkpt lat="-11.5687860" lon="-76.6576360">
        <ele>3620.0</ele>
        <time>2022-09-11T20:20:00Z</time>
      </trkpt>
      <trkpt lat="-11.5687970" lon="-76.6576350">
        <ele>3619.9</ele>
        <time>2022-09-11T20:20:01Z</time>
      </trkpt>
      <trkpt lat="-11.5688310" lon="-76.6576310">
        <ele>3619.6</ele>
        <time>2022-09-11T20:20:02Z</time>
      </trkpt>
      <trkpt lat="-11.5688450" lon="-76.6576280">
        <ele>3619.4</ele>
        <time>2022-09-11T20:20:03Z</time>
      </trkpt>
      <trkpt lat="-11.5688670" lon="-76.6576360">
        <ele>3619.2</ele>
        <time>2022-09-11T20:20:04Z</time>
      </trkpt>
      <trkpt lat="-11.5688760" lon="-76.6575960">
        <ele>3618.8</ele>
        <time>2022-09-11T20:20:06Z</time>
      </trkpt>
      <trkpt lat="-11.5688620" lon="-76.6575590">
        <ele>3618.5</ele>
        <time>2022-09-11T20:20:07Z</time>
      </trkpt>
      <trkpt lat="-11.5688310" lon="-76.6575350">
        <ele>3618.1</ele>
        <time>2022-09-11T20:20:08Z</time>
      </trkpt>
      <trkpt lat="-11.5687700" lon="-76.6574700">
        <ele>3617.3</ele>
        <time>2022-09-11T20:20:09Z</time>
      </trkpt>
      <trkpt lat="-11.5687250" lon="-76.6574420">
        <ele>3616.8</ele>
        <time>2022-09-11T20:20:11Z</time>
      </trkpt>
      <trkpt lat="-11.5687040" lon="-76.6574030">
        <ele>3616.4</ele>
        <time>2022-09-11T20:20:12Z</time>
      </trkpt>
      <trkpt lat="-11.5686810" lon="-76.6573650">
        <ele>3616.0</ele>
        <time>2022-09-11T20:20:13Z</time>
      </trkpt>
      <trkpt lat="-11.5686980" lon="-76.6573300">
        <ele>3615.6</ele>
        <time>2022-09-11T20:20:14Z</time>
      </trkpt>
      <trkpt lat="-11.5687270" lon="-76.6573080">
        <ele>3615.3</ele>
        <time>2022-09-11T20:20:15Z</time>
      </trkpt>
      <trkpt lat="-11.5687810" lon="-76.6572980">
        <ele>3614.8</ele>
        <time>2022-09-11T20:20:17Z</time>
      </trkpt>
      <trkpt lat="-11.5688340" lon="-76.6573270">
        <ele>3614.2</ele>
        <time>2022-09-11T20:20:18Z</time>
      </trkpt>
      <trkpt lat="-11.5688970" lon="-76.6573560">
        <ele>3609.9</ele>
        <time>2022-09-11T20:20:19Z</time>
      </trkpt>
      <trkpt lat="-11.5689560" lon="-76.6573850">
        <ele>3607.0</ele>
        <time>2022-09-11T20:20:20Z</time>
      </trkpt>
      <trkpt lat="-11.5690020" lon="-76.6574160">
        <ele>3603.2</ele>
        <time>2022-09-11T20:20:21Z</time>
      </trkpt>
      <trkpt lat="-11.5690320" lon="-76.6574520">
        <ele>3598.9</ele>
        <time>2022-09-11T20:20:22Z</time>
      </trkpt>
      <trkpt lat="-11.5690490" lon="-76.6575010">
        <ele>3598.4</ele>
        <time>2022-09-11T20:20:23Z</time>
      </trkpt>
      <trkpt lat="-11.5690590" lon="-76.6575610">
        <ele>3597.7</ele>
        <time>2022-09-11T20:20:24Z</time>
      </trkpt>
      <trkpt lat="-11.5690840" lon="-76.6576210">
        <ele>3597.0</ele>
        <time>2022-09-11T20:20:25Z</time>
      </trkpt>
      <trkpt lat="-11.5691190" lon="-76.6576790">
        <ele>3596.2</ele>
        <time>2022-09-11T20:20:26Z</time>
      </trkpt>
      <trkpt lat="-11.5691650" lon="-76.6577310">
        <ele>3595.5</ele>
        <time>2022-09-11T20:20:27Z</time>
      </trkpt>
      <trkpt lat="-11.5692190" lon="-76.6577750">
        <ele>3594.7</ele>
        <time>2022-09-11T20:20:28Z</time>
      </trkpt>
      <trkpt lat="-11.5692780" lon="-76.6578110">
        <ele>3594.0</ele>
        <time>2022-09-11T20:20:29Z</time>
      </trkpt>
      <trkpt lat="-11.5693430" lon="-76.6578360">
        <ele>3593.2</ele>
        <time>2022-09-11T20:20:30Z</time>
      </trkpt>
      <trkpt lat="-11.5694070" lon="-76.6578630">
        <ele>3592.4</ele>
        <time>2022-09-11T20:20:31Z</time>
      </trkpt>
      <trkpt lat="-11.5694630" lon="-76.6579010">
        <ele>3591.7</ele>
        <time>2022-09-11T20:20:32Z</time>
      </trkpt>
      <trkpt lat="-11.5695190" lon="-76.6579310">
        <ele>3591.0</ele>
        <time>2022-09-11T20:20:33Z</time>
      </trkpt>
      <trkpt lat="-11.5695830" lon="-76.6579500">
        <ele>3590.2</ele>
        <time>2022-09-11T20:20:34Z</time>
      </trkpt>
      <trkpt lat="-11.5696540" lon="-76.6579590">
        <ele>3589.4</ele>
        <time>2022-09-11T20:20:35Z</time>
      </trkpt>
      <trkpt lat="-11.5697310" lon="-76.6579570">
        <ele>3588.6</ele>
        <time>2022-09-11T20:20:36Z</time>
      </trkpt>
      <trkpt lat="-11.5698080" lon="-76.6579480">
        <ele>3587.7</ele>
        <time>2022-09-11T20:20:37Z</time>
      </trkpt>
      <trkpt lat="-11.5698800" lon="-76.6579360">
        <ele>3586.9</ele>
        <time>2022-09-11T20:20:38Z</time>
      </trkpt>
      <trkpt lat="-11.5699540" lon="-76.6579310">
        <ele>3586.1</ele>
        <time>2022-09-11T20:20:39Z</time>
      </trkpt>
      <trkpt lat="-11.5700300" lon="-76.6579330">
        <ele>3585.3</ele>
        <time>2022-09-11T20:20:40Z</time>
      </trkpt>
      <trkpt lat="-11.5701050" lon="-76.6579280">
        <ele>3584.4</ele>
        <time>2022-09-11T20:20:41Z</time>
      </trkpt>
      <trkpt lat="-11.5701740" lon="-76.6579140">
        <ele>3583.6</ele>
        <time>2022-09-11T20:20:42Z</time>
      </trkpt>
      <trkpt lat="-11.5702460" lon="-76.6578960">
        <ele>3582.8</ele>
        <time>2022-09-11T20:20:43Z</time>
      </trkpt>
      <trkpt lat="-11.5703280" lon="-76.6578720">
        <ele>3581.9</ele>
        <time>2022-09-11T20:20:44Z</time>
      </trkpt>
      <trkpt lat="-11.5704140" lon="-76.6578490">
        <ele>3580.9</ele>
        <time>2022-09-11T20:20:45Z</time>
      </trkpt>
      <trkpt lat="-11.5705010" lon="-76.6578260">
        <ele>3579.9</ele>
        <time>2022-09-11T20:20:46Z</time>
      </trkpt>
      <trkpt lat="-11.5705860" lon="-76.6578020">
        <ele>3578.9</ele>
        <time>2022-09-11T20:20:47Z</time>
      </trkpt>
      <trkpt lat="-11.5706630" lon="-76.6577790">
        <ele>3578.0</ele>
        <time>2022-09-11T20:20:48Z</time>
      </trkpt>
      <trkpt lat="-11.5707280" lon="-76.6577570">
        <ele>3577.3</ele>
        <time>2022-09-11T20:20:49Z</time>
      </trkpt>
      <trkpt lat="-11.5707840" lon="-76.6577370">
        <ele>3576.6</ele>
        <time>2022-09-11T20:20:50Z</time>
      </trkpt>
      <trkpt lat="-11.5708340" lon="-76.6577140">
        <ele>3576.0</ele>
        <time>2022-09-11T20:20:51Z</time>
      </trkpt>
      <trkpt lat="-11.5708850" lon="-76.6576830">
        <ele>3575.4</ele>
        <time>2022-09-11T20:20:52Z</time>
      </trkpt>
      <trkpt lat="-11.5709340" lon="-76.6576490">
        <ele>3574.7</ele>
        <time>2022-09-11T20:20:53Z</time>
      </trkpt>
      <trkpt lat="-11.5709820" lon="-76.6576130">
        <ele>3574.0</ele>
        <time>2022-09-11T20:20:54Z</time>
      </trkpt>
      <trkpt lat="-11.5710320" lon="-76.6575820">
        <ele>3573.4</ele>
        <time>2022-09-11T20:20:55Z</time>
      </trkpt>
      <trkpt lat="-11.5710950" lon="-76.6575680">
        <ele>3572.7</ele>
        <time>2022-09-11T20:20:56Z</time>
      </trkpt>
      <trkpt lat="-11.5711660" lon="-76.6575650">
        <ele>3571.9</ele>
        <time>2022-09-11T20:20:57Z</time>
      </trkpt>
      <trkpt lat="-11.5712330" lon="-76.6575610">
        <ele>3571.1</ele>
        <time>2022-09-11T20:20:58Z</time>
      </trkpt>
      <trkpt lat="-11.5713020" lon="-76.6575600">
        <ele>3570.4</ele>
        <time>2022-09-11T20:20:59Z</time>
      </trkpt>
      <trkpt lat="-11.5713730" lon="-76.6575660">
        <ele>3569.6</ele>
        <time>2022-09-11T20:21:00Z</time>
      </trkpt>
      <trkpt lat="-11.5714450" lon="-76.6575770">
        <ele>3568.8</ele>
        <time>2022-09-11T20:21:01Z</time>
      </trkpt>
      <trkpt lat="-11.5715260" lon="-76.6575860">
        <ele>3567.9</ele>
        <time>2022-09-11T20:21:02Z</time>
      </trkpt>
      <trkpt lat="-11.5716090" lon="-76.6575890">
        <ele>3567.0</ele>
        <time>2022-09-11T20:21:03Z</time>
      </trkpt>
      <trkpt lat="-11.5716880" lon="-76.6575860">
        <ele>3566.1</ele>
        <time>2022-09-11T20:21:04Z</time>
      </trkpt>
      <trkpt lat="-11.5717570" lon="-76.6575800">
        <ele>3565.9</ele>
        <time>2022-09-11T20:21:05Z</time>
      </trkpt>
      <trkpt lat="-11.5718290" lon="-76.6575820">
        <ele>3565.8</ele>
        <time>2022-09-11T20:21:06Z</time>
      </trkpt>
      <trkpt lat="-11.5719050" lon="-76.6575820">
        <ele>3565.6</ele>
        <time>2022-09-11T20:21:07Z</time>
      </trkpt>
      <trkpt lat="-11.5719820" lon="-76.6575830">
        <ele>3565.5</ele>
        <time>2022-09-11T20:21:08Z</time>
      </trkpt>
      <trkpt lat="-11.5720640" lon="-76.6575910">
        <ele>3565.3</ele>
        <time>2022-09-11T20:21:09Z</time>
      </trkpt>
      <trkpt lat="-11.5721460" lon="-76.6576010">
        <ele>3565.2</ele>
        <time>2022-09-11T20:21:10Z</time>
      </trkpt>
      <trkpt lat="-11.5722260" lon="-76.6576040">
        <ele>3565.1</ele>
        <time>2022-09-11T20:21:11Z</time>
      </trkpt>
      <trkpt lat="-11.5723050" lon="-76.6576070">
        <ele>3564.9</ele>
        <time>2022-09-11T20:21:12Z</time>
      </trkpt>
      <trkpt lat="-11.5723880" lon="-76.6576050">
        <ele>3564.8</ele>
        <time>2022-09-11T20:21:13Z</time>
      </trkpt>
      <trkpt lat="-11.5724660" lon="-76.6575980">
        <ele>3564.6</ele>
        <time>2022-09-11T20:21:14Z</time>
      </trkpt>
      <trkpt lat="-11.5725520" lon="-76.6575930">
        <ele>3564.5</ele>
        <time>2022-09-11T20:21:15Z</time>
      </trkpt>
      <trkpt lat="-11.5726460" lon="-76.6575950">
        <ele>3564.3</ele>
        <time>2022-09-11T20:21:16Z</time>
      </trkpt>
      <trkpt lat="-11.5727370" lon="-76.6575960">
        <ele>3564.2</ele>
        <time>2022-09-11T20:21:17Z</time>
      </trkpt>
      <trkpt lat="-11.5728220" lon="-76.6575990">
        <ele>3564.0</ele>
        <time>2022-09-11T20:21:18Z</time>
      </trkpt>
      <trkpt lat="-11.5729050" lon="-76.6576040">
        <ele>3563.9</ele>
        <time>2022-09-11T20:21:19Z</time>
      </trkpt>
      <trkpt lat="-11.5729760" lon="-76.6576200">
        <ele>3563.7</ele>
        <time>2022-09-11T20:21:20Z</time>
      </trkpt>
      <trkpt lat="-11.5730300" lon="-76.6576400">
        <ele>3563.6</ele>
        <time>2022-09-11T20:21:21Z</time>
      </trkpt>
      <trkpt lat="-11.5730770" lon="-76.6576700">
        <ele>3563.5</ele>
        <time>2022-09-11T20:21:22Z</time>
      </trkpt>
      <trkpt lat="-11.5731230" lon="-76.6577020">
        <ele>3563.4</ele>
        <time>2022-09-11T20:21:23Z</time>
      </trkpt>
      <trkpt lat="-11.5731630" lon="-76.6577190">
        <ele>3563.4</ele>
        <time>2022-09-11T20:21:24Z</time>
      </trkpt>
      <trkpt lat="-11.5731950" lon="-76.6577040">
        <ele>3563.3</ele>
        <time>2022-09-11T20:21:25Z</time>
      </trkpt>
      <trkpt lat="-11.5732090" lon="-76.6576950">
        <ele>3563.3</ele>
        <time>2022-09-11T20:21:26Z</time>
      </trkpt>
      <trkpt lat="-11.5732230" lon="-76.6576670">
        <ele>3563.2</ele>
        <time>2022-09-11T20:21:27Z</time>
      </trkpt>
      <trkpt lat="-11.5732190" lon="-76.6576360">
        <ele>3563.2</ele>
        <time>2022-09-11T20:21:28Z</time>
      </trkpt>
      <trkpt lat="-11.5731950" lon="-76.6576020">
        <ele>3563.3</ele>
        <time>2022-09-11T20:21:29Z</time>
      </trkpt>
      <trkpt lat="-11.5731530" lon="-76.6575690">
        <ele>3563.3</ele>
        <time>2022-09-11T20:21:30Z</time>
      </trkpt>
      <trkpt lat="-11.5731100" lon="-76.6575430">
        <ele>3563.4</ele>
        <time>2022-09-11T20:21:31Z</time>
      </trkpt>
      <trkpt lat="-11.5730760" lon="-76.6575240">
        <ele>3563.5</ele>
        <time>2022-09-11T20:21:32Z</time>
      </trkpt>
      <trkpt lat="-11.5730510" lon="-76.6575120">
        <ele>3563.5</ele>
        <time>2022-09-11T20:21:33Z</time>
      </trkpt>
      <trkpt lat="-11.5730400" lon="-76.6575060">
        <ele>3563.5</ele>
        <time>2022-09-11T20:21:34Z</time>
      </trkpt>
      <trkpt lat="-11.5730150" lon="-76.6574890">
        <ele>3563.6</ele>
        <time>2022-09-11T20:21:35Z</time>
      </trkpt>
      <trkpt lat="-11.5729860" lon="-76.6574760">
        <ele>3563.6</ele>
        <time>2022-09-11T20:21:36Z</time>
      </trkpt>
      <trkpt lat="-11.5729510" lon="-76.6574690">
        <ele>3563.7</ele>
        <time>2022-09-11T20:21:37Z</time>
      </trkpt>
      <trkpt lat="-11.5729150" lon="-76.6574650">
        <ele>3563.7</ele>
        <time>2022-09-11T20:21:38Z</time>
      </trkpt>
      <trkpt lat="-11.5728770" lon="-76.6574600">
        <ele>3563.8</ele>
        <time>2022-09-11T20:21:39Z</time>
      </trkpt>
      <trkpt lat="-11.5728330" lon="-76.6574520">
        <ele>3563.9</ele>
        <time>2022-09-11T20:21:40Z</time>
      </trkpt>
      <trkpt lat="-11.5727850" lon="-76.6574440">
        <ele>3563.9</ele>
        <time>2022-09-11T20:21:41Z</time>
      </trkpt>
      <trkpt lat="-11.5727380" lon="-76.6574430">
        <ele>3564.0</ele>
        <time>2022-09-11T20:21:42Z</time>
      </trkpt>
      <trkpt lat="-11.5727040" lon="-76.6574470">
        <ele>3564.1</ele>
        <time>2022-09-11T20:21:43Z</time>
      </trkpt>
      <trkpt lat="-11.5726690" lon="-76.6574540">
        <ele>3564.1</ele>
        <time>2022-09-11T20:21:44Z</time>
      </trkpt>
      <trkpt lat="-11.5726380" lon="-76.6574530">
        <ele>3564.2</ele>
        <time>2022-09-11T20:21:45Z</time>
      </trkpt>
      <trkpt lat="-11.5726180" lon="-76.6574340">
        <ele>3564.2</ele>
        <time>2022-09-11T20:21:46Z</time>
      </trkpt>
      <trkpt lat="-11.5726110" lon="-76.6574020">
        <ele>3564.3</ele>
        <time>2022-09-11T20:21:47Z</time>
      </trkpt>
      <trkpt lat="-11.5726250" lon="-76.6573670">
        <ele>3564.3</ele>
        <time>2022-09-11T20:21:48Z</time>
      </trkpt>
      <trkpt lat="-11.5726330" lon="-76.6573540">
        <ele>3564.3</ele>
        <time>2022-09-11T20:21:49Z</time>
      </trkpt>
      <trkpt lat="-11.5726620" lon="-76.6573400">
        <ele>3564.3</ele>
        <time>2022-09-11T20:21:50Z</time>
      </trkpt>
      <trkpt lat="-11.5727070" lon="-76.6573460">
        <ele>3564.2</ele>
        <time>2022-09-11T20:21:51Z</time>
      </trkpt>
      <trkpt lat="-11.5727670" lon="-76.6573530">
        <ele>3564.1</ele>
        <time>2022-09-11T20:21:52Z</time>
      </trkpt>
      <trkpt lat="-11.5728270" lon="-76.6573510">
        <ele>3564.0</ele>
        <time>2022-09-11T20:21:53Z</time>
      </trkpt>
      <trkpt lat="-11.5728830" lon="-76.6573520">
        <ele>3563.9</ele>
        <time>2022-09-11T20:21:54Z</time>
      </trkpt>
      <trkpt lat="-11.5729370" lon="-76.6573560">
        <ele>3563.8</ele>
        <time>2022-09-11T20:21:55Z</time>
      </trkpt>
      <trkpt lat="-11.5729900" lon="-76.6573530">
        <ele>3563.7</ele>
        <time>2022-09-11T20:21:56Z</time>
      </trkpt>
      <trkpt lat="-11.5730440" lon="-76.6573430">
        <ele>3564.1</ele>
        <time>2022-09-11T20:21:57Z</time>
      </trkpt>
      <trkpt lat="-11.5731020" lon="-76.6573340">
        <ele>3563.6</ele>
        <time>2022-09-11T20:21:58Z</time>
      </trkpt>
      <trkpt lat="-11.5731570" lon="-76.6573340">
        <ele>3562.8</ele>
        <time>2022-09-11T20:21:59Z</time>
      </trkpt>
      <trkpt lat="-11.5732070" lon="-76.6573370">
        <ele>3561.7</ele>
        <time>2022-09-11T20:22:00Z</time>
      </trkpt>
      <trkpt lat="-11.5732330" lon="-76.6573600">
        <ele>3560.2</ele>
        <time>2022-09-11T20:22:01Z</time>
      </trkpt>
      <trkpt lat="-11.5732760" lon="-76.6573980">
        <ele>3560.8</ele>
        <time>2022-09-11T20:22:02Z</time>
      </trkpt>
      <trkpt lat="-11.5733180" lon="-76.6574390">
        <ele>3561.0</ele>
        <time>2022-09-11T20:22:03Z</time>
      </trkpt>
      <trkpt lat="-11.5733580" lon="-76.6574880">
        <ele>3560.9</ele>
        <time>2022-09-11T20:22:04Z</time>
      </trkpt>
      <trkpt lat="-11.5733980" lon="-76.6575350">
        <ele>3562.1</ele>
        <time>2022-09-11T20:22:05Z</time>
      </trkpt>
      <trkpt lat="-11.5734510" lon="-76.6575720">
        <ele>3559.9</ele>
        <time>2022-09-11T20:22:06Z</time>
      </trkpt>
      <trkpt lat="-11.5735100" lon="-76.6576100">
        <ele>3559.7</ele>
        <time>2022-09-11T20:22:07Z</time>
      </trkpt>
      <trkpt lat="-11.5735630" lon="-76.6576580">
        <ele>3559.6</ele>
        <time>2022-09-11T20:22:08Z</time>
      </trkpt>
      <trkpt lat="-11.5736210" lon="-76.6577040">
        <ele>3559.5</ele>
        <time>2022-09-11T20:22:09Z</time>
      </trkpt>
      <trkpt lat="-11.5736900" lon="-76.6577400">
        <ele>3559.3</ele>
        <time>2022-09-11T20:22:10Z</time>
      </trkpt>
      <trkpt lat="-11.5737700" lon="-76.6577710">
        <ele>3559.2</ele>
        <time>2022-09-11T20:22:11Z</time>
      </trkpt>
      <trkpt lat="-11.5738580" lon="-76.6578030">
        <ele>3559.0</ele>
        <time>2022-09-11T20:22:12Z</time>
      </trkpt>
      <trkpt lat="-11.5739540" lon="-76.6578390">
        <ele>3558.8</ele>
        <time>2022-09-11T20:22:13Z</time>
      </trkpt>
      <trkpt lat="-11.5740510" lon="-76.6578750">
        <ele>3558.6</ele>
        <time>2022-09-11T20:22:14Z</time>
      </trkpt>
      <trkpt lat="-11.5741460" lon="-76.6579040">
        <ele>3558.4</ele>
        <time>2022-09-11T20:22:15Z</time>
      </trkpt>
      <trkpt lat="-11.5742250" lon="-76.6579330">
        <ele>3558.3</ele>
        <time>2022-09-11T20:22:16Z</time>
      </trkpt>
      <trkpt lat="-11.5742890" lon="-76.6579770">
        <ele>3558.1</ele>
        <time>2022-09-11T20:22:17Z</time>
      </trkpt>
      <trkpt lat="-11.5743530" lon="-76.6580280">
        <ele>3558.0</ele>
        <time>2022-09-11T20:22:18Z</time>
      </trkpt>
      <trkpt lat="-11.5744270" lon="-76.6580710">
        <ele>3557.8</ele>
        <time>2022-09-11T20:22:19Z</time>
      </trkpt>
      <trkpt lat="-11.5745000" lon="-76.6581100">
        <ele>3557.7</ele>
        <time>2022-09-11T20:22:20Z</time>
      </trkpt>
      <trkpt lat="-11.5745660" lon="-76.6581580">
        <ele>3557.5</ele>
        <time>2022-09-11T20:22:21Z</time>
      </trkpt>
      <trkpt lat="-11.5746240" lon="-76.6582120">
        <ele>3557.4</ele>
        <time>2022-09-11T20:22:22Z</time>
      </trkpt>
      <trkpt lat="-11.5746860" lon="-76.6582660">
        <ele>3557.2</ele>
        <time>2022-09-11T20:22:23Z</time>
      </trkpt>
      <trkpt lat="-11.5747450" lon="-76.6583170">
        <ele>3557.1</ele>
        <time>2022-09-11T20:22:24Z</time>
      </trkpt>
      <trkpt lat="-11.5747930" lon="-76.6583770">
        <ele>3557.0</ele>
        <time>2022-09-11T20:22:25Z</time>
      </trkpt>
      <trkpt lat="-11.5748280" lon="-76.6584380">
        <ele>3556.8</ele>
        <time>2022-09-11T20:22:26Z</time>
      </trkpt>
      <trkpt lat="-11.5748580" lon="-76.6584970">
        <ele>3556.7</ele>
        <time>2022-09-11T20:22:27Z</time>
      </trkpt>
      <trkpt lat="-11.5748730" lon="-76.6585580">
        <ele>3556.6</ele>
        <time>2022-09-11T20:22:28Z</time>
      </trkpt>
      <trkpt lat="-11.5748760" lon="-76.6586200">
        <ele>3556.5</ele>
        <time>2022-09-11T20:22:29Z</time>
      </trkpt>
      <trkpt lat="-11.5748720" lon="-76.6586780">
        <ele>3556.4</ele>
        <time>2022-09-11T20:22:30Z</time>
      </trkpt>
      <trkpt lat="-11.5748760" lon="-76.6587420">
        <ele>3556.3</ele>
        <time>2022-09-11T20:22:31Z</time>
      </trkpt>
      <trkpt lat="-11.5749000" lon="-76.6588040">
        <ele>3556.2</ele>
        <time>2022-09-11T20:22:32Z</time>
      </trkpt>
      <trkpt lat="-11.5749380" lon="-76.6588590">
        <ele>3556.0</ele>
        <time>2022-09-11T20:22:33Z</time>
      </trkpt>
      <trkpt lat="-11.5749740" lon="-76.6589090">
        <ele>3555.9</ele>
        <time>2022-09-11T20:22:34Z</time>
      </trkpt>
      <trkpt lat="-11.5749990" lon="-76.6589610">
        <ele>3555.8</ele>
        <time>2022-09-11T20:22:35Z</time>
      </trkpt>
      <trkpt lat="-11.5750070" lon="-76.6590170">
        <ele>3555.7</ele>
        <time>2022-09-11T20:22:36Z</time>
      </trkpt>
      <trkpt lat="-11.5750130" lon="-76.6590760">
        <ele>3555.6</ele>
        <time>2022-09-11T20:22:37Z</time>
      </trkpt>
      <trkpt lat="-11.5750250" lon="-76.6591380">
        <ele>3555.5</ele>
        <time>2022-09-11T20:22:38Z</time>
      </trkpt>
      <trkpt lat="-11.5750520" lon="-76.6591950">
        <ele>3555.4</ele>
        <time>2022-09-11T20:22:39Z</time>
      </trkpt>
      <trkpt lat="-11.5750850" lon="-76.6592430">
        <ele>3555.3</ele>
        <time>2022-09-11T20:22:40Z</time>
      </trkpt>
      <trkpt lat="-11.5751160" lon="-76.6592850">
        <ele>3555.2</ele>
        <time>2022-09-11T20:22:41Z</time>
      </trkpt>
      <trkpt lat="-11.5751500" lon="-76.6593260">
        <ele>3555.1</ele>
        <time>2022-09-11T20:22:42Z</time>
      </trkpt>
      <trkpt lat="-11.5751850" lon="-76.6593690">
        <ele>3555.0</ele>
        <time>2022-09-11T20:22:43Z</time>
      </trkpt>
      <trkpt lat="-11.5752170" lon="-76.6594160">
        <ele>3554.9</ele>
        <time>2022-09-11T20:22:44Z</time>
      </trkpt>
      <trkpt lat="-11.5752530" lon="-76.6594590">
        <ele>3554.8</ele>
        <time>2022-09-11T20:22:45Z</time>
      </trkpt>
      <trkpt lat="-11.5752920" lon="-76.6594950">
        <ele>3554.7</ele>
        <time>2022-09-11T20:22:46Z</time>
      </trkpt>
      <trkpt lat="-11.5753340" lon="-76.6595240">
        <ele>3554.6</ele>
        <time>2022-09-11T20:22:47Z</time>
      </trkpt>
      <trkpt lat="-11.5753790" lon="-76.6595530">
        <ele>3554.5</ele>
        <time>2022-09-11T20:22:48Z</time>
      </trkpt>
      <trkpt lat="-11.5754290" lon="-76.6595760">
        <ele>3554.4</ele>
        <time>2022-09-11T20:22:49Z</time>
      </trkpt>
      <trkpt lat="-11.5754830" lon="-76.6595980">
        <ele>3554.3</ele>
        <time>2022-09-11T20:22:50Z</time>
      </trkpt>
      <trkpt lat="-11.5755340" lon="-76.6596300">
        <ele>3554.2</ele>
        <time>2022-09-11T20:22:51Z</time>
      </trkpt>
      <trkpt lat="-11.5755890" lon="-76.6596640">
        <ele>3554.1</ele>
        <time>2022-09-11T20:22:52Z</time>
      </trkpt>
      <trkpt lat="-11.5756460" lon="-76.6596970">
        <ele>3553.9</ele>
        <time>2022-09-11T20:22:53Z</time>
      </trkpt>
      <trkpt lat="-11.5757030" lon="-76.6597290">
        <ele>3553.8</ele>
        <time>2022-09-11T20:22:54Z</time>
      </trkpt>
      <trkpt lat="-11.5757550" lon="-76.6597540">
        <ele>3553.7</ele>
        <time>2022-09-11T20:22:55Z</time>
      </trkpt>
      <trkpt lat="-11.5757980" lon="-76.6597720">
        <ele>3553.6</ele>
        <time>2022-09-11T20:22:56Z</time>
      </trkpt>
      <trkpt lat="-11.5758400" lon="-76.6597930">
        <ele>3553.6</ele>
        <time>2022-09-11T20:22:57Z</time>
      </trkpt>
      <trkpt lat="-11.5758850" lon="-76.6598190">
        <ele>3553.5</ele>
        <time>2022-09-11T20:22:58Z</time>
      </trkpt>
      <trkpt lat="-11.5759340" lon="-76.6598520">
        <ele>3553.3</ele>
        <time>2022-09-11T20:22:59Z</time>
      </trkpt>
      <trkpt lat="-11.5759830" lon="-76.6598860">
        <ele>3553.2</ele>
        <time>2022-09-11T20:23:00Z</time>
      </trkpt>
      <trkpt lat="-11.5760340" lon="-76.6599210">
        <ele>3553.1</ele>
        <time>2022-09-11T20:23:01Z</time>
      </trkpt>
      <trkpt lat="-11.5760860" lon="-76.6599560">
        <ele>3553.0</ele>
        <time>2022-09-11T20:23:02Z</time>
      </trkpt>
      <trkpt lat="-11.5761360" lon="-76.6599900">
        <ele>3552.9</ele>
        <time>2022-09-11T20:23:03Z</time>
      </trkpt>
      <trkpt lat="-11.5761860" lon="-76.6600300">
        <ele>3552.8</ele>
        <time>2022-09-11T20:23:04Z</time>
      </trkpt>
      <trkpt lat="-11.5762370" lon="-76.6600730">
        <ele>3552.7</ele>
        <time>2022-09-11T20:23:05Z</time>
      </trkpt>
      <trkpt lat="-11.5762860" lon="-76.6601130">
        <ele>3552.6</ele>
        <time>2022-09-11T20:23:06Z</time>
      </trkpt>
      <trkpt lat="-11.5763310" lon="-76.6601470">
        <ele>3552.4</ele>
        <time>2022-09-11T20:23:07Z</time>
      </trkpt>
      <trkpt lat="-11.5763720" lon="-76.6601830">
        <ele>3552.4</ele>
        <time>2022-09-11T20:23:08Z</time>
      </trkpt>
      <trkpt lat="-11.5764110" lon="-76.6602270">
        <ele>3552.2</ele>
        <time>2022-09-11T20:23:09Z</time>
      </trkpt>
      <trkpt lat="-11.5764470" lon="-76.6602740">
        <ele>3552.1</ele>
        <time>2022-09-11T20:23:10Z</time>
      </trkpt>
      <trkpt lat="-11.5764820" lon="-76.6603210">
        <ele>3552.0</ele>
        <time>2022-09-11T20:23:11Z</time>
      </trkpt>
      <trkpt lat="-11.5765200" lon="-76.6603710">
        <ele>3551.9</ele>
        <time>2022-09-11T20:23:12Z</time>
      </trkpt>
      <trkpt lat="-11.5765520" lon="-76.6604240">
        <ele>3551.8</ele>
        <time>2022-09-11T20:23:13Z</time>
      </trkpt>
      <trkpt lat="-11.5765810" lon="-76.6604750">
        <ele>3551.7</ele>
        <time>2022-09-11T20:23:14Z</time>
      </trkpt>
      <trkpt lat="-11.5766080" lon="-76.6605230">
        <ele>3551.6</ele>
        <time>2022-09-11T20:23:15Z</time>
      </trkpt>
      <trkpt lat="-11.5766320" lon="-76.6605690">
        <ele>3551.5</ele>
        <time>2022-09-11T20:23:16Z</time>
      </trkpt>
      <trkpt lat="-11.5766570" lon="-76.6606150">
        <ele>3551.4</ele>
        <time>2022-09-11T20:23:17Z</time>
      </trkpt>
      <trkpt lat="-11.5766780" lon="-76.6606560">
        <ele>3551.3</ele>
        <time>2022-09-11T20:23:18Z</time>
      </trkpt>
      <trkpt lat="-11.5766950" lon="-76.6606840">
        <ele>3551.3</ele>
        <time>2022-09-11T20:23:19Z</time>
      </trkpt>
      <trkpt lat="-11.5767150" lon="-76.6607180">
        <ele>3551.2</ele>
        <time>2022-09-11T20:23:20Z</time>
      </trkpt>
      <trkpt lat="-11.5767300" lon="-76.6607460">
        <ele>3551.1</ele>
        <time>2022-09-11T20:23:21Z</time>
      </trkpt>
      <trkpt lat="-11.5767460" lon="-76.6607730">
        <ele>3551.1</ele>
        <time>2022-09-11T20:23:22Z</time>
      </trkpt>
      <trkpt lat="-11.5767640" lon="-76.6608000">
        <ele>3551.0</ele>
        <time>2022-09-11T20:23:23Z</time>
      </trkpt>
      <trkpt lat="-11.5767910" lon="-76.6608340">
        <ele>3551.0</ele>
        <time>2022-09-11T20:23:24Z</time>
      </trkpt>
      <trkpt lat="-11.5768190" lon="-76.6608650">
        <ele>3550.9</ele>
        <time>2022-09-11T20:23:25Z</time>
      </trkpt>
      <trkpt lat="-11.5768400" lon="-76.6608980">
        <ele>3550.8</ele>
        <time>2022-09-11T20:23:26Z</time>
      </trkpt>
      <trkpt lat="-11.5768710" lon="-76.6609360">
        <ele>3550.7</ele>
        <time>2022-09-11T20:23:28Z</time>
      </trkpt>
      <trkpt lat="-11.5769150" lon="-76.6609750">
        <ele>3550.6</ele>
        <time>2022-09-11T20:23:29Z</time>
      </trkpt>
      <trkpt lat="-11.5769590" lon="-76.6610040">
        <ele>3550.5</ele>
        <time>2022-09-11T20:23:30Z</time>
      </trkpt>
      <trkpt lat="-11.5769960" lon="-76.6610310">
        <ele>3550.4</ele>
        <time>2022-09-11T20:23:31Z</time>
      </trkpt>
      <trkpt lat="-11.5770360" lon="-76.6610690">
        <ele>3550.3</ele>
        <time>2022-09-11T20:23:33Z</time>
      </trkpt>
      <trkpt lat="-11.5770710" lon="-76.6611200">
        <ele>3550.2</ele>
        <time>2022-09-11T20:23:34Z</time>
      </trkpt>
      <trkpt lat="-11.5770990" lon="-76.6611910">
        <ele>3550.1</ele>
        <time>2022-09-11T20:23:36Z</time>
      </trkpt>
      <trkpt lat="-11.5771040" lon="-76.6612310">
        <ele>3550.0</ele>
        <time>2022-09-11T20:23:37Z</time>
      </trkpt>
      <trkpt lat="-11.5771010" lon="-76.6612730">
        <ele>3549.9</ele>
        <time>2022-09-11T20:23:38Z</time>
      </trkpt>
      <trkpt lat="-11.5770990" lon="-76.6613100">
        <ele>3549.8</ele>
        <time>2022-09-11T20:23:39Z</time>
      </trkpt>
      <trkpt lat="-11.5770990" lon="-76.6613610">
        <ele>3549.7</ele>
        <time>2022-09-11T20:23:41Z</time>
      </trkpt>
      <trkpt lat="-11.5771000" lon="-76.6614140">
        <ele>3549.6</ele>
        <time>2022-09-11T20:23:42Z</time>
      </trkpt>
      <trkpt lat="-11.5771010" lon="-76.6614500">
        <ele>3549.5</ele>
        <time>2022-09-11T20:23:43Z</time>
      </trkpt>
      <trkpt lat="-11.5770960" lon="-76.6614970">
        <ele>3549.4</ele>
        <time>2022-09-11T20:23:45Z</time>
      </trkpt>
      <trkpt lat="-11.5770960" lon="-76.6615410">
        <ele>3549.3</ele>
        <time>2022-09-11T20:23:46Z</time>
      </trkpt>
      <trkpt lat="-11.5770980" lon="-76.6615830">
        <ele>3549.3</ele>
        <time>2022-09-11T20:23:47Z</time>
      </trkpt>
      <trkpt lat="-11.5771020" lon="-76.6616520">
        <ele>3549.1</ele>
        <time>2022-09-11T20:23:48Z</time>
      </trkpt>
      <trkpt lat="-11.5771100" lon="-76.6617110">
        <ele>3549.0</ele>
        <time>2022-09-11T20:23:50Z</time>
      </trkpt>
      <trkpt lat="-11.5771090" lon="-76.6617730">
        <ele>3548.8</ele>
        <time>2022-09-11T20:23:51Z</time>
      </trkpt>
      <trkpt lat="-11.5770990" lon="-76.6618350">
        <ele>3548.7</ele>
        <time>2022-09-11T20:23:52Z</time>
      </trkpt>
      <trkpt lat="-11.5770950" lon="-76.6618840">
        <ele>3548.6</ele>
        <time>2022-09-11T20:23:53Z</time>
      </trkpt>
      <trkpt lat="-11.5770860" lon="-76.6619310">
        <ele>3548.5</ele>
        <time>2022-09-11T20:23:54Z</time>
      </trkpt>
      <trkpt lat="-11.5770810" lon="-76.6619540">
        <ele>3548.5</ele>
        <time>2022-09-11T20:23:55Z</time>
      </trkpt>
      <trkpt lat="-11.5770820" lon="-76.6620020">
        <ele>3548.4</ele>
        <time>2022-09-11T20:23:56Z</time>
      </trkpt>
      <trkpt lat="-11.5770840" lon="-76.6620490">
        <ele>3548.3</ele>
        <time>2022-09-11T20:23:57Z</time>
      </trkpt>
      <trkpt lat="-11.5770860" lon="-76.6620890">
        <ele>3548.2</ele>
        <time>2022-09-11T20:23:58Z</time>
      </trkpt>
      <trkpt lat="-11.5770920" lon="-76.6621390">
        <ele>3548.1</ele>
        <time>2022-09-11T20:23:59Z</time>
      </trkpt>
      <trkpt lat="-11.5771020" lon="-76.6621940">
        <ele>3547.9</ele>
        <time>2022-09-11T20:24:01Z</time>
      </trkpt>
      <trkpt lat="-11.5771070" lon="-76.6622590">
        <ele>3547.8</ele>
        <time>2022-09-11T20:24:02Z</time>
      </trkpt>
      <trkpt lat="-11.5771220" lon="-76.6623240">
        <ele>3547.7</ele>
        <time>2022-09-11T20:24:03Z</time>
      </trkpt>
      <trkpt lat="-11.5771250" lon="-76.6623690">
        <ele>3547.6</ele>
        <time>2022-09-11T20:24:04Z</time>
      </trkpt>
      <trkpt lat="-11.5771420" lon="-76.6624190">
        <ele>3547.5</ele>
        <time>2022-09-11T20:24:05Z</time>
      </trkpt>
      <trkpt lat="-11.5771500" lon="-76.6624460">
        <ele>3547.4</ele>
        <time>2022-09-11T20:24:06Z</time>
      </trkpt>
      <trkpt lat="-11.5771680" lon="-76.6624890">
        <ele>3547.3</ele>
        <time>2022-09-11T20:24:07Z</time>
      </trkpt>
      <trkpt lat="-11.5771740" lon="-76.6625170">
        <ele>3547.2</ele>
        <time>2022-09-11T20:24:08Z</time>
      </trkpt>
      <trkpt lat="-11.5771970" lon="-76.6625670">
        <ele>3547.1</ele>
        <time>2022-09-11T20:24:10Z</time>
      </trkpt>
      <trkpt lat="-11.5772450" lon="-76.6626020">
        <ele>3547.0</ele>
        <time>2022-09-11T20:24:11Z</time>
      </trkpt>
      <trkpt lat="-11.5772850" lon="-76.6626540">
        <ele>3546.9</ele>
        <time>2022-09-11T20:24:12Z</time>
      </trkpt>
      <trkpt lat="-11.5773220" lon="-76.6627040">
        <ele>3546.7</ele>
        <time>2022-09-11T20:24:14Z</time>
      </trkpt>
      <trkpt lat="-11.5773430" lon="-76.6627410">
        <ele>3546.6</ele>
        <time>2022-09-11T20:24:15Z</time>
      </trkpt>
      <trkpt lat="-11.5773520" lon="-76.6627760">
        <ele>3546.6</ele>
        <time>2022-09-11T20:24:16Z</time>
      </trkpt>
      <trkpt lat="-11.5773540" lon="-76.6627880">
        <ele>3546.5</ele>
        <time>2022-09-11T20:24:17Z</time>
      </trkpt>
      <trkpt lat="-11.5773490" lon="-76.6628320">
        <ele>3546.4</ele>
        <time>2022-09-11T20:24:19Z</time>
      </trkpt>
      <trkpt lat="-11.5773500" lon="-76.6628780">
        <ele>3546.3</ele>
        <time>2022-09-11T20:24:21Z</time>
      </trkpt>
      <trkpt lat="-11.5773600" lon="-76.6629070">
        <ele>3546.3</ele>
        <time>2022-09-11T20:24:22Z</time>
      </trkpt>
      <trkpt lat="-11.5773730" lon="-76.6629490">
        <ele>3546.2</ele>
        <time>2022-09-11T20:24:23Z</time>
      </trkpt>
      <trkpt lat="-11.5773980" lon="-76.6630060">
        <ele>3546.0</ele>
        <time>2022-09-11T20:24:25Z</time>
      </trkpt>
      <trkpt lat="-11.5774140" lon="-76.6630330">
        <ele>3546.0</ele>
        <time>2022-09-11T20:24:27Z</time>
      </trkpt>
      <trkpt lat="-11.5774350" lon="-76.6630590">
        <ele>3545.9</ele>
        <time>2022-09-11T20:24:28Z</time>
      </trkpt>
      <trkpt lat="-11.5774540" lon="-76.6630850">
        <ele>3545.8</ele>
        <time>2022-09-11T20:24:29Z</time>
      </trkpt>
      <trkpt lat="-11.5774710" lon="-76.6631070">
        <ele>3545.8</ele>
        <time>2022-09-11T20:24:30Z</time>
      </trkpt>
      <trkpt lat="-11.5774890" lon="-76.6631320">
        <ele>3545.7</ele>
        <time>2022-09-11T20:24:31Z</time>
      </trkpt>
      <trkpt lat="-11.5774950" lon="-76.6631410">
        <ele>3545.7</ele>
        <time>2022-09-11T20:24:32Z</time>
      </trkpt>
      <trkpt lat="-11.5775070" lon="-76.6631620">
        <ele>3545.6</ele>
        <time>2022-09-11T20:24:33Z</time>
      </trkpt>
      <trkpt lat="-11.5775220" lon="-76.6631930">
        <ele>3545.6</ele>
        <time>2022-09-11T20:24:35Z</time>
      </trkpt>
      <trkpt lat="-11.5775310" lon="-76.6632240">
        <ele>3545.5</ele>
        <time>2022-09-11T20:24:36Z</time>
      </trkpt>
      <trkpt lat="-11.5775360" lon="-76.6632340">
        <ele>3545.5</ele>
        <time>2022-09-11T20:24:37Z</time>
      </trkpt>
      <trkpt lat="-11.5775500" lon="-76.6632600">
        <ele>3545.4</ele>
        <time>2022-09-11T20:24:38Z</time>
      </trkpt>
      <trkpt lat="-11.5775680" lon="-76.6633000">
        <ele>3545.3</ele>
        <time>2022-09-11T20:24:40Z</time>
      </trkpt>
      <trkpt lat="-11.5775820" lon="-76.6633240">
        <ele>3545.3</ele>
        <time>2022-09-11T20:24:41Z</time>
      </trkpt>
      <trkpt lat="-11.5776030" lon="-76.6633500">
        <ele>3545.2</ele>
        <time>2022-09-11T20:24:42Z</time>
      </trkpt>
      <trkpt lat="-11.5776090" lon="-76.6633590">
        <ele>3545.2</ele>
        <time>2022-09-11T20:24:43Z</time>
      </trkpt>
      <trkpt lat="-11.5776430" lon="-76.6633910">
        <ele>3545.1</ele>
        <time>2022-09-11T20:24:45Z</time>
      </trkpt>
      <trkpt lat="-11.5776690" lon="-76.6634070">
        <ele>3545.0</ele>
        <time>2022-09-11T20:24:46Z</time>
      </trkpt>
      <trkpt lat="-11.5776770" lon="-76.6634100">
        <ele>3545.0</ele>
        <time>2022-09-11T20:24:47Z</time>
      </trkpt>
      <trkpt lat="-11.5777030" lon="-76.6634260">
        <ele>3544.9</ele>
        <time>2022-09-11T20:24:48Z</time>
      </trkpt>
      <trkpt lat="-11.5777120" lon="-76.6634300">
        <ele>3544.9</ele>
        <time>2022-09-11T20:24:49Z</time>
      </trkpt>
      <trkpt lat="-11.5777460" lon="-76.6634440">
        <ele>3544.8</ele>
        <time>2022-09-11T20:24:50Z</time>
      </trkpt>
      <trkpt lat="-11.5777560" lon="-76.6634500">
        <ele>3544.8</ele>
        <time>2022-09-11T20:24:51Z</time>
      </trkpt>
      <trkpt lat="-11.5777810" lon="-76.6634650">
        <ele>3544.7</ele>
        <time>2022-09-11T20:24:52Z</time>
      </trkpt>
      <trkpt lat="-11.5777880" lon="-76.6634700">
        <ele>3544.7</ele>
        <time>2022-09-11T20:24:53Z</time>
      </trkpt>
      <trkpt lat="-11.5778010" lon="-76.6634790">
        <ele>3544.7</ele>
        <time>2022-09-11T20:24:54Z</time>
      </trkpt>
      <trkpt lat="-11.5778230" lon="-76.6634990">
        <ele>3544.6</ele>
        <time>2022-09-11T20:24:56Z</time>
      </trkpt>
      <trkpt lat="-11.5778420" lon="-76.6635190">
        <ele>3544.5</ele>
        <time>2022-09-11T20:24:57Z</time>
      </trkpt>
      <trkpt lat="-11.5778510" lon="-76.6635260">
        <ele>3544.5</ele>
        <time>2022-09-11T20:24:58Z</time>
      </trkpt>
      <trkpt lat="-11.5778710" lon="-76.6635460">
        <ele>3544.5</ele>
        <time>2022-09-11T20:24:59Z</time>
      </trkpt>
      <trkpt lat="-11.5779020" lon="-76.6635650">
        <ele>3544.4</ele>
        <time>2022-09-11T20:25:00Z</time>
      </trkpt>
      <trkpt lat="-11.5779150" lon="-76.6635710">
        <ele>3544.4</ele>
        <time>2022-09-11T20:25:01Z</time>
      </trkpt>
      <trkpt lat="-11.5779440" lon="-76.6635890">
        <ele>3544.3</ele>
        <time>2022-09-11T20:25:02Z</time>
      </trkpt>
      <trkpt lat="-11.5779510" lon="-76.6635930">
        <ele>3544.3</ele>
        <time>2022-09-11T20:25:03Z</time>
      </trkpt>
      <trkpt lat="-11.5779600" lon="-76.6636030">
        <ele>3544.2</ele>
        <time>2022-09-11T20:25:04Z</time>
      </trkpt>
      <trkpt lat="-11.5779750" lon="-76.6636160">
        <ele>3544.2</ele>
        <time>2022-09-11T20:25:05Z</time>
      </trkpt>
      <trkpt lat="-11.5779980" lon="-76.6636330">
        <ele>3544.1</ele>
        <time>2022-09-11T20:25:06Z</time>
      </trkpt>
      <trkpt lat="-11.5780180" lon="-76.6636510">
        <ele>3544.1</ele>
        <time>2022-09-11T20:25:07Z</time>
      </trkpt>
      <trkpt lat="-11.5780410" lon="-76.6636720">
        <ele>3544.0</ele>
        <time>2022-09-11T20:25:08Z</time>
      </trkpt>
      <trkpt lat="-11.5780620" lon="-76.6636950">
        <ele>3543.9</ele>
        <time>2022-09-11T20:25:09Z</time>
      </trkpt>
      <trkpt lat="-11.5780790" lon="-76.6637230">
        <ele>3543.9</ele>
        <time>2022-09-11T20:25:11Z</time>
      </trkpt>
      <trkpt lat="-11.5780940" lon="-76.6637480">
        <ele>3543.8</ele>
        <time>2022-09-11T20:25:12Z</time>
      </trkpt>
      <trkpt lat="-11.5781090" lon="-76.6637740">
        <ele>3543.7</ele>
        <time>2022-09-11T20:25:13Z</time>
      </trkpt>
      <trkpt lat="-11.5781260" lon="-76.6638060">
        <ele>3543.7</ele>
        <time>2022-09-11T20:25:14Z</time>
      </trkpt>
      <trkpt lat="-11.5781320" lon="-76.6638180">
        <ele>3543.6</ele>
        <time>2022-09-11T20:25:15Z</time>
      </trkpt>
      <trkpt lat="-11.5781420" lon="-76.6638510">
        <ele>3543.6</ele>
        <time>2022-09-11T20:25:16Z</time>
      </trkpt>
      <trkpt lat="-11.5781600" lon="-76.6638900">
        <ele>3543.5</ele>
        <time>2022-09-11T20:25:18Z</time>
      </trkpt>
      <trkpt lat="-11.5781820" lon="-76.6639270">
        <ele>3543.4</ele>
        <time>2022-09-11T20:25:19Z</time>
      </trkpt>
      <trkpt lat="-11.5782020" lon="-76.6639520">
        <ele>3543.3</ele>
        <time>2022-09-11T20:25:20Z</time>
      </trkpt>
      <trkpt lat="-11.5782060" lon="-76.6639590">
        <ele>3543.3</ele>
        <time>2022-09-11T20:25:21Z</time>
      </trkpt>
      <trkpt lat="-11.5782220" lon="-76.6639880">
        <ele>3543.2</ele>
        <time>2022-09-11T20:25:23Z</time>
      </trkpt>
      <trkpt lat="-11.5782350" lon="-76.6640180">
        <ele>3543.2</ele>
        <time>2022-09-11T20:25:24Z</time>
      </trkpt>
      <trkpt lat="-11.5782450" lon="-76.6640440">
        <ele>3543.1</ele>
        <time>2022-09-11T20:25:25Z</time>
      </trkpt>
      <trkpt lat="-11.5782600" lon="-76.6640750">
        <ele>3543.0</ele>
        <time>2022-09-11T20:25:26Z</time>
      </trkpt>
      <trkpt lat="-11.5782660" lon="-76.6640850">
        <ele>3543.0</ele>
        <time>2022-09-11T20:25:27Z</time>
      </trkpt>
      <trkpt lat="-11.5782910" lon="-76.6641140">
        <ele>3542.9</ele>
        <time>2022-09-11T20:25:28Z</time>
      </trkpt>
      <trkpt lat="-11.5782990" lon="-76.6641240">
        <ele>3542.9</ele>
        <time>2022-09-11T20:25:29Z</time>
      </trkpt>
      <trkpt lat="-11.5783260" lon="-76.6641590">
        <ele>3542.8</ele>
        <time>2022-09-11T20:25:31Z</time>
      </trkpt>
      <trkpt lat="-11.5783360" lon="-76.6641700">
        <ele>3542.8</ele>
        <time>2022-09-11T20:25:32Z</time>
      </trkpt>
      <trkpt lat="-11.5783450" lon="-76.6641800">
        <ele>3542.7</ele>
        <time>2022-09-11T20:25:33Z</time>
      </trkpt>
      <trkpt lat="-11.5783610" lon="-76.6642040">
        <ele>3542.7</ele>
        <time>2022-09-11T20:25:34Z</time>
      </trkpt>
      <trkpt lat="-11.5783660" lon="-76.6642110">
        <ele>3542.7</ele>
        <time>2022-09-11T20:25:35Z</time>
      </trkpt>
      <trkpt lat="-11.5783900" lon="-76.6642390">
        <ele>3542.6</ele>
        <time>2022-09-11T20:25:36Z</time>
      </trkpt>
      <trkpt lat="-11.5784010" lon="-76.6642510">
        <ele>3542.5</ele>
        <time>2022-09-11T20:25:37Z</time>
      </trkpt>
      <trkpt lat="-11.5784220" lon="-76.6642770">
        <ele>3542.5</ele>
        <time>2022-09-11T20:25:38Z</time>
      </trkpt>
      <trkpt lat="-11.5784420" lon="-76.6643040">
        <ele>3542.4</ele>
        <time>2022-09-11T20:25:39Z</time>
      </trkpt>
      <trkpt lat="-11.5784610" lon="-76.6643380">
        <ele>3542.3</ele>
        <time>2022-09-11T20:25:40Z</time>
      </trkpt>
      <trkpt lat="-11.5784810" lon="-76.6643720">
        <ele>3542.2</ele>
        <time>2022-09-11T20:25:41Z</time>
      </trkpt>
      <trkpt lat="-11.5785040" lon="-76.6644090">
        <ele>3542.1</ele>
        <time>2022-09-11T20:25:42Z</time>
      </trkpt>
      <trkpt lat="-11.5785300" lon="-76.6644430">
        <ele>3542.0</ele>
        <time>2022-09-11T20:25:43Z</time>
      </trkpt>
      <trkpt lat="-11.5785690" lon="-76.6644900">
        <ele>3541.9</ele>
        <time>2022-09-11T20:25:45Z</time>
      </trkpt>
      <trkpt lat="-11.5785940" lon="-76.6645260">
        <ele>3541.8</ele>
        <time>2022-09-11T20:25:46Z</time>
      </trkpt>
      <trkpt lat="-11.5786040" lon="-76.6645650">
        <ele>3541.7</ele>
        <time>2022-09-11T20:25:47Z</time>
      </trkpt>
      <trkpt lat="-11.5786290" lon="-76.6646320">
        <ele>3541.6</ele>
        <time>2022-09-11T20:25:49Z</time>
      </trkpt>
      <trkpt lat="-11.5786490" lon="-76.6646990">
        <ele>3541.4</ele>
        <time>2022-09-11T20:25:50Z</time>
      </trkpt>
      <trkpt lat="-11.5786660" lon="-76.6647480">
        <ele>3541.3</ele>
        <time>2022-09-11T20:25:51Z</time>
      </trkpt>
      <trkpt lat="-11.5786850" lon="-76.6647990">
        <ele>3541.2</ele>
        <time>2022-09-11T20:25:52Z</time>
      </trkpt>
      <trkpt lat="-11.5787070" lon="-76.6648460">
        <ele>3541.1</ele>
        <time>2022-09-11T20:25:53Z</time>
      </trkpt>
      <trkpt lat="-11.5787370" lon="-76.6648890">
        <ele>3541.0</ele>
        <time>2022-09-11T20:25:54Z</time>
      </trkpt>
      <trkpt lat="-11.5787710" lon="-76.6649280">
        <ele>3540.9</ele>
        <time>2022-09-11T20:25:55Z</time>
      </trkpt>
      <trkpt lat="-11.5788000" lon="-76.6649670">
        <ele>3540.8</ele>
        <time>2022-09-11T20:25:56Z</time>
      </trkpt>
      <trkpt lat="-11.5788300" lon="-76.6650090">
        <ele>3540.7</ele>
        <time>2022-09-11T20:25:57Z</time>
      </trkpt>
      <trkpt lat="-11.5788570" lon="-76.6650520">
        <ele>3540.5</ele>
        <time>2022-09-11T20:25:58Z</time>
      </trkpt>
      <trkpt lat="-11.5788830" lon="-76.6650930">
        <ele>3540.4</ele>
        <time>2022-09-11T20:25:59Z</time>
      </trkpt>
      <trkpt lat="-11.5789140" lon="-76.6651420">
        <ele>3540.3</ele>
        <time>2022-09-11T20:26:00Z</time>
      </trkpt>
      <trkpt lat="-11.5789340" lon="-76.6651730">
        <ele>3540.2</ele>
        <time>2022-09-11T20:26:01Z</time>
      </trkpt>
      <trkpt lat="-11.5789740" lon="-76.6652180">
        <ele>3540.1</ele>
        <time>2022-09-11T20:26:02Z</time>
      </trkpt>
      <trkpt lat="-11.5790200" lon="-76.6652660">
        <ele>3540.0</ele>
        <time>2022-09-11T20:26:03Z</time>
      </trkpt>
      <trkpt lat="-11.5790660" lon="-76.6653220">
        <ele>3539.8</ele>
        <time>2022-09-11T20:26:04Z</time>
      </trkpt>
      <trkpt lat="-11.5791140" lon="-76.6653840">
        <ele>3539.6</ele>
        <time>2022-09-11T20:26:05Z</time>
      </trkpt>
      <trkpt lat="-11.5791680" lon="-76.6654380">
        <ele>3539.5</ele>
        <time>2022-09-11T20:26:06Z</time>
      </trkpt>
      <trkpt lat="-11.5792290" lon="-76.6654810">
        <ele>3539.3</ele>
        <time>2022-09-11T20:26:07Z</time>
      </trkpt>
      <trkpt lat="-11.5792890" lon="-76.6655180">
        <ele>3539.2</ele>
        <time>2022-09-11T20:26:08Z</time>
      </trkpt>
      <trkpt lat="-11.5793440" lon="-76.6655590">
        <ele>3539.0</ele>
        <time>2022-09-11T20:26:09Z</time>
      </trkpt>
      <trkpt lat="-11.5793880" lon="-76.6656030">
        <ele>3538.9</ele>
        <time>2022-09-11T20:26:10Z</time>
      </trkpt>
      <trkpt lat="-11.5794240" lon="-76.6656480">
        <ele>3538.8</ele>
        <time>2022-09-11T20:26:11Z</time>
      </trkpt>
      <trkpt lat="-11.5794570" lon="-76.6656910">
        <ele>3538.7</ele>
        <time>2022-09-11T20:26:12Z</time>
      </trkpt>
      <trkpt lat="-11.5794930" lon="-76.6657260">
        <ele>3538.5</ele>
        <time>2022-09-11T20:26:13Z</time>
      </trkpt>
      <trkpt lat="-11.5795320" lon="-76.6657540">
        <ele>3538.4</ele>
        <time>2022-09-11T20:26:14Z</time>
      </trkpt>
      <trkpt lat="-11.5795660" lon="-76.6657800">
        <ele>3538.4</ele>
        <time>2022-09-11T20:26:15Z</time>
      </trkpt>
      <trkpt lat="-11.5795830" lon="-76.6658110">
        <ele>3538.4</ele>
        <time>2022-09-11T20:26:16Z</time>
      </trkpt>
      <trkpt lat="-11.5795960" lon="-76.6658520">
        <ele>3538.4</ele>
        <time>2022-09-11T20:26:17Z</time>
      </trkpt>
      <trkpt lat="-11.5796170" lon="-76.6659000">
        <ele>3537.4</ele>
        <time>2022-09-11T20:26:18Z</time>
      </trkpt>
      <trkpt lat="-11.5796490" lon="-76.6659430">
        <ele>3537.4</ele>
        <time>2022-09-11T20:26:19Z</time>
      </trkpt>
      <trkpt lat="-11.5796850" lon="-76.6659840">
        <ele>3537.4</ele>
        <time>2022-09-11T20:26:20Z</time>
      </trkpt>
      <trkpt lat="-11.5797160" lon="-76.6660300">
        <ele>3537.4</ele>
        <time>2022-09-11T20:26:21Z</time>
      </trkpt>
      <trkpt lat="-11.5797490" lon="-76.6660810">
        <ele>3536.4</ele>
        <time>2022-09-11T20:26:22Z</time>
      </trkpt>
      <trkpt lat="-11.5797770" lon="-76.6661340">
        <ele>3536.4</ele>
        <time>2022-09-11T20:26:23Z</time>
      </trkpt>
      <trkpt lat="-11.5797860" lon="-76.6661900">
        <ele>3536.4</ele>
        <time>2022-09-11T20:26:24Z</time>
      </trkpt>
      <trkpt lat="-11.5797890" lon="-76.6662390">
        <ele>3538.4</ele>
        <time>2022-09-11T20:26:25Z</time>
      </trkpt>
      <trkpt lat="-11.5797850" lon="-76.6662710">
        <ele>3538.4</ele>
        <time>2022-09-11T20:26:26Z</time>
      </trkpt>
      <trkpt lat="-11.5797500" lon="-76.6662950">
        <ele>3535.4</ele>
        <time>2022-09-11T20:26:27Z</time>
      </trkpt>
      <trkpt lat="-11.5797030" lon="-76.6663030">
        <ele>3535.4</ele>
        <time>2022-09-11T20:26:29Z</time>
      </trkpt>
      <trkpt lat="-11.5796260" lon="-76.6662190">
        <ele>3535.4</ele>
        <time>2022-09-11T20:26:30Z</time>
      </trkpt>
      <trkpt lat="-11.5795780" lon="-76.6661830">
        <ele>3536.4</ele>
        <time>2022-09-11T20:26:31Z</time>
      </trkpt>
      <trkpt lat="-11.5795300" lon="-76.6661550">
        <ele>3536.5</ele>
        <time>2022-09-11T20:26:32Z</time>
      </trkpt>
      <trkpt lat="-11.5794890" lon="-76.6661370">
        <ele>3536.5</ele>
        <time>2022-09-11T20:26:33Z</time>
      </trkpt>
      <trkpt lat="-11.5794740" lon="-76.6661360">
        <ele>3536.5</ele>
        <time>2022-09-11T20:26:34Z</time>
      </trkpt>
      <trkpt lat="-11.5794590" lon="-76.6661390">
        <ele>3536.5</ele>
        <time>2022-09-11T20:26:35Z</time>
      </trkpt>
      <trkpt lat="-11.5794440" lon="-76.6661640">
        <ele>3536.5</ele>
        <time>2022-09-11T20:26:36Z</time>
      </trkpt>
      <trkpt lat="-11.5794310" lon="-76.6661830">
        <ele>3536.5</ele>
        <time>2022-09-11T20:26:37Z</time>
      </trkpt>
      <trkpt lat="-11.5794220" lon="-76.6661870">
        <ele>3536.5</ele>
        <time>2022-09-11T20:26:38Z</time>
      </trkpt>
      <trkpt lat="-11.5794280" lon="-76.6661750">
        <ele>3536.4</ele>
        <time>2022-09-11T20:26:39Z</time>
      </trkpt>
      <trkpt lat="-11.5794320" lon="-76.6661730">
        <ele>3536.4</ele>
        <time>2022-09-11T20:26:40Z</time>
      </trkpt>
      <trkpt lat="-11.5794330" lon="-76.6661720">
        <ele>3536.4</ele>
        <time>2022-09-11T20:26:41Z</time>
      </trkpt>
      <trkpt lat="-11.5794340" lon="-76.6661710">
        <ele>3536.4</ele>
        <time>2022-09-11T20:26:42Z</time>
      </trkpt>
      <trkpt lat="-11.5794350" lon="-76.6661700">
        <ele>3536.4</ele>
        <time>2022-09-11T20:26:43Z</time>
      </trkpt>
      <trkpt lat="-11.5794350" lon="-76.6661690">
        <ele>3536.4</ele>
        <time>2022-09-11T20:26:44Z</time>
      </trkpt>
      <trkpt lat="-11.5794360" lon="-76.6661680">
        <ele>3536.4</ele>
        <time>2022-09-11T20:26:45Z</time>
      </trkpt>
      <trkpt lat="-11.5794390" lon="-76.6661640">
        <ele>3536.4</ele>
        <time>2022-09-11T20:26:47Z</time>
      </trkpt>
      <trkpt lat="-11.5794410" lon="-76.6661630">
        <ele>3536.4</ele>
        <time>2022-09-11T20:26:48Z</time>
      </trkpt>
      <trkpt lat="-11.5794400" lon="-76.6661650">
        <ele>3536.4</ele>
        <time>2022-09-11T20:26:49Z</time>
      </trkpt>
      <trkpt lat="-11.5794380" lon="-76.6661700">
        <ele>3536.4</ele>
        <time>2022-09-11T20:26:50Z</time>
      </trkpt>
      <trkpt lat="-11.5794360" lon="-76.6661740">
        <ele>3536.4</ele>
        <time>2022-09-11T20:26:51Z</time>
      </trkpt>
      <trkpt lat="-11.5794340" lon="-76.6661780">
        <ele>3536.4</ele>
        <time>2022-09-11T20:26:52Z</time>
      </trkpt>
      <trkpt lat="-11.5794330" lon="-76.6661800">
        <ele>3536.4</ele>
        <time>2022-09-11T20:26:53Z</time>
      </trkpt>
      <trkpt lat="-11.5794310" lon="-76.6661820">
        <ele>3536.4</ele>
        <time>2022-09-11T20:26:54Z</time>
      </trkpt>
      <trkpt lat="-11.5794300" lon="-76.6661830">
        <ele>3536.4</ele>
        <time>2022-09-11T20:26:55Z</time>
      </trkpt>
      <trkpt lat="-11.5794280" lon="-76.6661840">
        <ele>3536.3</ele>
        <time>2022-09-11T20:26:56Z</time>
      </trkpt>
      <trkpt lat="-11.5794270" lon="-76.6661850">
        <ele>3536.3</ele>
        <time>2022-09-11T20:26:57Z</time>
      </trkpt>
      <trkpt lat="-11.5794260" lon="-76.6661860">
        <ele>3536.3</ele>
        <time>2022-09-11T20:26:58Z</time>
      </trkpt>
      <trkpt lat="-11.5794230" lon="-76.6661880">
        <ele>3536.3</ele>
        <time>2022-09-11T20:26:59Z</time>
      </trkpt>
      <trkpt lat="-11.5794480" lon="-76.6662210">
        <ele>3536.2</ele>
        <time>2022-09-11T20:29:57Z</time>
      </trkpt>
      <trkpt lat="-11.5794570" lon="-76.6662320">
        <ele>3536.2</ele>
        <time>2022-09-11T20:29:58Z</time>
      </trkpt>
      <trkpt lat="-11.5794650" lon="-76.6662430">
        <ele>3536.2</ele>
        <time>2022-09-11T20:29:59Z</time>
      </trkpt>
      <trkpt lat="-11.5794850" lon="-76.6662780">
        <ele>3536.1</ele>
        <time>2022-09-11T20:30:00Z</time>
      </trkpt>
      <trkpt lat="-11.5795100" lon="-76.6663210">
        <ele>3536.0</ele>
        <time>2022-09-11T20:30:01Z</time>
      </trkpt>
      <trkpt lat="-11.5795340" lon="-76.6663670">
        <ele>3535.9</ele>
        <time>2022-09-11T20:30:02Z</time>
      </trkpt>
      <trkpt lat="-11.5795560" lon="-76.6664100">
        <ele>3535.8</ele>
        <time>2022-09-11T20:30:03Z</time>
      </trkpt>
      <trkpt lat="-11.5795650" lon="-76.6664410">
        <ele>3535.7</ele>
        <time>2022-09-11T20:30:04Z</time>
      </trkpt>
      <trkpt lat="-11.5795830" lon="-76.6664760">
        <ele>3535.7</ele>
        <time>2022-09-11T20:30:05Z</time>
      </trkpt>
      <trkpt lat="-11.5796120" lon="-76.6665260">
        <ele>3535.5</ele>
        <time>2022-09-11T20:30:06Z</time>
      </trkpt>
      <trkpt lat="-11.5796390" lon="-76.6665640">
        <ele>3535.4</ele>
        <time>2022-09-11T20:30:07Z</time>
      </trkpt>
      <trkpt lat="-11.5796650" lon="-76.6665920">
        <ele>3535.4</ele>
        <time>2022-09-11T20:30:08Z</time>
      </trkpt>
      <trkpt lat="-11.5797000" lon="-76.6666310">
        <ele>3535.3</ele>
        <time>2022-09-11T20:30:09Z</time>
      </trkpt>
      <trkpt lat="-11.5797300" lon="-76.6666680">
        <ele>3535.2</ele>
        <time>2022-09-11T20:30:10Z</time>
      </trkpt>
      <trkpt lat="-11.5797540" lon="-76.6667060">
        <ele>3535.1</ele>
        <time>2022-09-11T20:30:11Z</time>
      </trkpt>
      <trkpt lat="-11.5797810" lon="-76.6667500">
        <ele>3535.0</ele>
        <time>2022-09-11T20:30:12Z</time>
      </trkpt>
      <trkpt lat="-11.5798110" lon="-76.6667900">
        <ele>3534.9</ele>
        <time>2022-09-11T20:30:13Z</time>
      </trkpt>
      <trkpt lat="-11.5798440" lon="-76.6668220">
        <ele>3534.8</ele>
        <time>2022-09-11T20:30:14Z</time>
      </trkpt>
      <trkpt lat="-11.5798830" lon="-76.6668480">
        <ele>3534.7</ele>
        <time>2022-09-11T20:30:15Z</time>
      </trkpt>
      <trkpt lat="-11.5799250" lon="-76.6668730">
        <ele>3534.6</ele>
        <time>2022-09-11T20:30:16Z</time>
      </trkpt>
      <trkpt lat="-11.5799720" lon="-76.6668980">
        <ele>3534.5</ele>
        <time>2022-09-11T20:30:17Z</time>
      </trkpt>
      <trkpt lat="-11.5800230" lon="-76.6669250">
        <ele>3534.3</ele>
        <time>2022-09-11T20:30:18Z</time>
      </trkpt>
      <trkpt lat="-11.5800760" lon="-76.6669560">
        <ele>3534.2</ele>
        <time>2022-09-11T20:30:19Z</time>
      </trkpt>
      <trkpt lat="-11.5801320" lon="-76.6669880">
        <ele>3534.1</ele>
        <time>2022-09-11T20:30:20Z</time>
      </trkpt>
      <trkpt lat="-11.5801870" lon="-76.6670170">
        <ele>3534.0</ele>
        <time>2022-09-11T20:30:21Z</time>
      </trkpt>
      <trkpt lat="-11.5802450" lon="-76.6670440">
        <ele>3533.8</ele>
        <time>2022-09-11T20:30:22Z</time>
      </trkpt>
      <trkpt lat="-11.5803060" lon="-76.6670680">
        <ele>3533.7</ele>
        <time>2022-09-11T20:30:23Z</time>
      </trkpt>
      <trkpt lat="-11.5803630" lon="-76.6670870">
        <ele>3533.6</ele>
        <time>2022-09-11T20:30:24Z</time>
      </trkpt>
      <trkpt lat="-11.5804140" lon="-76.6671130">
        <ele>3533.4</ele>
        <time>2022-09-11T20:30:25Z</time>
      </trkpt>
      <trkpt lat="-11.5804580" lon="-76.6671530">
        <ele>3533.3</ele>
        <time>2022-09-11T20:30:26Z</time>
      </trkpt>
      <trkpt lat="-11.5804880" lon="-76.6672080">
        <ele>3533.2</ele>
        <time>2022-09-11T20:30:27Z</time>
      </trkpt>
      <trkpt lat="-11.5805120" lon="-76.6672720">
        <ele>3533.1</ele>
        <time>2022-09-11T20:30:28Z</time>
      </trkpt>
      <trkpt lat="-11.5805450" lon="-76.6673380">
        <ele>3532.9</ele>
        <time>2022-09-11T20:30:29Z</time>
      </trkpt>
      <trkpt lat="-11.5805870" lon="-76.6674060">
        <ele>3532.7</ele>
        <time>2022-09-11T20:30:30Z</time>
      </trkpt>
      <trkpt lat="-11.5806350" lon="-76.6674790">
        <ele>3532.6</ele>
        <time>2022-09-11T20:30:31Z</time>
      </trkpt>
      <trkpt lat="-11.5806900" lon="-76.6675540">
        <ele>3532.4</ele>
        <time>2022-09-11T20:30:32Z</time>
      </trkpt>
      <trkpt lat="-11.5807430" lon="-76.6676270">
        <ele>3532.2</ele>
        <time>2022-09-11T20:30:33Z</time>
      </trkpt>
      <trkpt lat="-11.5807910" lon="-76.6676940">
        <ele>3532.0</ele>
        <time>2022-09-11T20:30:34Z</time>
      </trkpt>
      <trkpt lat="-11.5808380" lon="-76.6677520">
        <ele>3531.9</ele>
        <time>2022-09-11T20:30:35Z</time>
      </trkpt>
      <trkpt lat="-11.5808890" lon="-76.6678030">
        <ele>3531.7</ele>
        <time>2022-09-11T20:30:36Z</time>
      </trkpt>
      <trkpt lat="-11.5809400" lon="-76.6678540">
        <ele>3531.6</ele>
        <time>2022-09-11T20:30:37Z</time>
      </trkpt>
      <trkpt lat="-11.5809890" lon="-76.6679000">
        <ele>3531.4</ele>
        <time>2022-09-11T20:30:38Z</time>
      </trkpt>
      <trkpt lat="-11.5810400" lon="-76.6679470">
        <ele>3531.3</ele>
        <time>2022-09-11T20:30:39Z</time>
      </trkpt>
      <trkpt lat="-11.5810940" lon="-76.6679950">
        <ele>3531.1</ele>
        <time>2022-09-11T20:30:40Z</time>
      </trkpt>
      <trkpt lat="-11.5811430" lon="-76.6680410">
        <ele>3531.0</ele>
        <time>2022-09-11T20:30:41Z</time>
      </trkpt>
      <trkpt lat="-11.5811940" lon="-76.6680870">
        <ele>3530.3</ele>
        <time>2022-09-11T20:30:42Z</time>
      </trkpt>
      <trkpt lat="-11.5812530" lon="-76.6681270">
        <ele>3529.5</ele>
        <time>2022-09-11T20:30:43Z</time>
      </trkpt>
      <trkpt lat="-11.5813190" lon="-76.6681620">
        <ele>3528.7</ele>
        <time>2022-09-11T20:30:44Z</time>
      </trkpt>
      <trkpt lat="-11.5813860" lon="-76.6681990">
        <ele>3527.9</ele>
        <time>2022-09-11T20:30:45Z</time>
      </trkpt>
      <trkpt lat="-11.5814460" lon="-76.6682370">
        <ele>3527.1</ele>
        <time>2022-09-11T20:30:46Z</time>
      </trkpt>
      <trkpt lat="-11.5814960" lon="-76.6682730">
        <ele>3526.5</ele>
        <time>2022-09-11T20:30:47Z</time>
      </trkpt>
      <trkpt lat="-11.5815350" lon="-76.6683110">
        <ele>3525.9</ele>
        <time>2022-09-11T20:30:48Z</time>
      </trkpt>
      <trkpt lat="-11.5815540" lon="-76.6683570">
        <ele>3525.4</ele>
        <time>2022-09-11T20:30:49Z</time>
      </trkpt>
      <trkpt lat="-11.5815670" lon="-76.6684110">
        <ele>3524.8</ele>
        <time>2022-09-11T20:30:50Z</time>
      </trkpt>
      <trkpt lat="-11.5816090" lon="-76.6685110">
        <ele>3523.6</ele>
        <time>2022-09-11T20:30:52Z</time>
      </trkpt>
      <trkpt lat="-11.5816420" lon="-76.6685540">
        <ele>3523.0</ele>
        <time>2022-09-11T20:30:53Z</time>
      </trkpt>
      <trkpt lat="-11.5816760" lon="-76.6686010">
        <ele>3522.4</ele>
        <time>2022-09-11T20:30:54Z</time>
      </trkpt>
      <trkpt lat="-11.5817130" lon="-76.6686490">
        <ele>3521.8</ele>
        <time>2022-09-11T20:30:55Z</time>
      </trkpt>
      <trkpt lat="-11.5817570" lon="-76.6686890">
        <ele>3521.1</ele>
        <time>2022-09-11T20:30:56Z</time>
      </trkpt>
      <trkpt lat="-11.5818060" lon="-76.6687280">
        <ele>3520.5</ele>
        <time>2022-09-11T20:30:57Z</time>
      </trkpt>
      <trkpt lat="-11.5818530" lon="-76.6687710">
        <ele>3519.8</ele>
        <time>2022-09-11T20:30:58Z</time>
      </trkpt>
      <trkpt lat="-11.5818920" lon="-76.6688200">
        <ele>3519.1</ele>
        <time>2022-09-11T20:30:59Z</time>
      </trkpt>
      <trkpt lat="-11.5819270" lon="-76.6688700">
        <ele>3518.5</ele>
        <time>2022-09-11T20:31:00Z</time>
      </trkpt>
      <trkpt lat="-11.5819720" lon="-76.6689190">
        <ele>3517.8</ele>
        <time>2022-09-11T20:31:01Z</time>
      </trkpt>
      <trkpt lat="-11.5820280" lon="-76.6689610">
        <ele>3517.0</ele>
        <time>2022-09-11T20:31:02Z</time>
      </trkpt>
      <trkpt lat="-11.5820940" lon="-76.6690010">
        <ele>3516.2</ele>
        <time>2022-09-11T20:31:03Z</time>
      </trkpt>
      <trkpt lat="-11.5821600" lon="-76.6690370">
        <ele>3515.4</ele>
        <time>2022-09-11T20:31:04Z</time>
      </trkpt>
      <trkpt lat="-11.5822180" lon="-76.6690740">
        <ele>3514.6</ele>
        <time>2022-09-11T20:31:05Z</time>
      </trkpt>
      <trkpt lat="-11.5822700" lon="-76.6691130">
        <ele>3513.9</ele>
        <time>2022-09-11T20:31:06Z</time>
      </trkpt>
      <trkpt lat="-11.5823230" lon="-76.6691510">
        <ele>3513.2</ele>
        <time>2022-09-11T20:31:07Z</time>
      </trkpt>
      <trkpt lat="-11.5823800" lon="-76.6691880">
        <ele>3512.5</ele>
        <time>2022-09-11T20:31:08Z</time>
      </trkpt>
      <trkpt lat="-11.5824400" lon="-76.6692260">
        <ele>3511.8</ele>
        <time>2022-09-11T20:31:09Z</time>
      </trkpt>
      <trkpt lat="-11.5825090" lon="-76.6692630">
        <ele>3510.9</ele>
        <time>2022-09-11T20:31:10Z</time>
      </trkpt>
      <trkpt lat="-11.5825790" lon="-76.6693020">
        <ele>3510.1</ele>
        <time>2022-09-11T20:31:11Z</time>
      </trkpt>
      <trkpt lat="-11.5826520" lon="-76.6693450">
        <ele>3509.1</ele>
        <time>2022-09-11T20:31:12Z</time>
      </trkpt>
      <trkpt lat="-11.5827260" lon="-76.6693930">
        <ele>3508.2</ele>
        <time>2022-09-11T20:31:13Z</time>
      </trkpt>
      <trkpt lat="-11.5828000" lon="-76.6694410">
        <ele>3507.3</ele>
        <time>2022-09-11T20:31:14Z</time>
      </trkpt>
      <trkpt lat="-11.5828690" lon="-76.6694880">
        <ele>3506.4</ele>
        <time>2022-09-11T20:31:15Z</time>
      </trkpt>
      <trkpt lat="-11.5829380" lon="-76.6695380">
        <ele>3505.4</ele>
        <time>2022-09-11T20:31:16Z</time>
      </trkpt>
      <trkpt lat="-11.5830030" lon="-76.6695960">
        <ele>3504.5</ele>
        <time>2022-09-11T20:31:17Z</time>
      </trkpt>
      <trkpt lat="-11.5830650" lon="-76.6696540">
        <ele>3503.6</ele>
        <time>2022-09-11T20:31:18Z</time>
      </trkpt>
      <trkpt lat="-11.5831300" lon="-76.6697040">
        <ele>3502.7</ele>
        <time>2022-09-11T20:31:19Z</time>
      </trkpt>
      <trkpt lat="-11.5831960" lon="-76.6697480">
        <ele>3501.9</ele>
        <time>2022-09-11T20:31:20Z</time>
      </trkpt>
      <trkpt lat="-11.5832490" lon="-76.6697880">
        <ele>3501.2</ele>
        <time>2022-09-11T20:31:21Z</time>
      </trkpt>
      <trkpt lat="-11.5832880" lon="-76.6698250">
        <ele>3500.6</ele>
        <time>2022-09-11T20:31:22Z</time>
      </trkpt>
      <trkpt lat="-11.5833130" lon="-76.6698710">
        <ele>3500.0</ele>
        <time>2022-09-11T20:31:23Z</time>
      </trkpt>
      <trkpt lat="-11.5833300" lon="-76.6699330">
        <ele>3499.4</ele>
        <time>2022-09-11T20:31:24Z</time>
      </trkpt>
      <trkpt lat="-11.5833460" lon="-76.6699990">
        <ele>3498.6</ele>
        <time>2022-09-11T20:31:25Z</time>
      </trkpt>
      <trkpt lat="-11.5833520" lon="-76.6700650">
        <ele>3497.9</ele>
        <time>2022-09-11T20:31:26Z</time>
      </trkpt>
      <trkpt lat="-11.5833550" lon="-76.6701340">
        <ele>3497.2</ele>
        <time>2022-09-11T20:31:27Z</time>
      </trkpt>
      <trkpt lat="-11.5833660" lon="-76.6702070">
        <ele>3496.4</ele>
        <time>2022-09-11T20:31:28Z</time>
      </trkpt>
      <trkpt lat="-11.5833740" lon="-76.6702850">
        <ele>3495.6</ele>
        <time>2022-09-11T20:31:29Z</time>
      </trkpt>
      <trkpt lat="-11.5833710" lon="-76.6703630">
        <ele>3494.8</ele>
        <time>2022-09-11T20:31:30Z</time>
      </trkpt>
      <trkpt lat="-11.5833630" lon="-76.6704380">
        <ele>3494.0</ele>
        <time>2022-09-11T20:31:31Z</time>
      </trkpt>
      <trkpt lat="-11.5833490" lon="-76.6705100">
        <ele>3493.2</ele>
        <time>2022-09-11T20:31:32Z</time>
      </trkpt>
      <trkpt lat="-11.5833330" lon="-76.6705770">
        <ele>3492.5</ele>
        <time>2022-09-11T20:31:33Z</time>
      </trkpt>
      <trkpt lat="-11.5833190" lon="-76.6706310">
        <ele>3491.9</ele>
        <time>2022-09-11T20:31:34Z</time>
      </trkpt>
      <trkpt lat="-11.5833000" lon="-76.6706640">
        <ele>3491.5</ele>
        <time>2022-09-11T20:31:35Z</time>
      </trkpt>
      <trkpt lat="-11.5832710" lon="-76.6706750">
        <ele>3491.2</ele>
        <time>2022-09-11T20:31:36Z</time>
      </trkpt>
      <trkpt lat="-11.5832300" lon="-76.6706880">
        <ele>3490.7</ele>
        <time>2022-09-11T20:31:37Z</time>
      </trkpt>
      <trkpt lat="-11.5831790" lon="-76.6706910">
        <ele>3490.1</ele>
        <time>2022-09-11T20:31:38Z</time>
      </trkpt>
      <trkpt lat="-11.5831250" lon="-76.6706800">
        <ele>3489.5</ele>
        <time>2022-09-11T20:31:39Z</time>
      </trkpt>
      <trkpt lat="-11.5830740" lon="-76.6706860">
        <ele>3489.0</ele>
        <time>2022-09-11T20:31:40Z</time>
      </trkpt>
      <trkpt lat="-11.5830330" lon="-76.6707210">
        <ele>3488.4</ele>
        <time>2022-09-11T20:31:41Z</time>
      </trkpt>
      <trkpt lat="-11.5830080" lon="-76.6707600">
        <ele>3487.9</ele>
        <time>2022-09-11T20:31:42Z</time>
      </trkpt>
      <trkpt lat="-11.5829940" lon="-76.6707890">
        <ele>3487.6</ele>
        <time>2022-09-11T20:31:43Z</time>
      </trkpt>
      <trkpt lat="-11.5829740" lon="-76.6708120">
        <ele>3487.3</ele>
        <time>2022-09-11T20:31:44Z</time>
      </trkpt>
      <trkpt lat="-11.5829400" lon="-76.6708230">
        <ele>3486.9</ele>
        <time>2022-09-11T20:31:45Z</time>
      </trkpt>
      <trkpt lat="-11.5829130" lon="-76.6708110">
        <ele>3486.6</ele>
        <time>2022-09-11T20:31:46Z</time>
      </trkpt>
      <trkpt lat="-11.5828890" lon="-76.6707920">
        <ele>3486.2</ele>
        <time>2022-09-11T20:31:47Z</time>
      </trkpt>
      <trkpt lat="-11.5828740" lon="-76.6707660">
        <ele>3485.9</ele>
        <time>2022-09-11T20:31:48Z</time>
      </trkpt>
      <trkpt lat="-11.5828710" lon="-76.6707350">
        <ele>3485.6</ele>
        <time>2022-09-11T20:31:49Z</time>
      </trkpt>
      <trkpt lat="-11.5828720" lon="-76.6707270">
        <ele>3485.5</ele>
        <time>2022-09-11T20:31:50Z</time>
      </trkpt>
      <trkpt lat="-11.5828820" lon="-76.6706900">
        <ele>3485.1</ele>
        <time>2022-09-11T20:31:51Z</time>
      </trkpt>
      <trkpt lat="-11.5829070" lon="-76.6706460">
        <ele>3484.5</ele>
        <time>2022-09-11T20:31:52Z</time>
      </trkpt>
      <trkpt lat="-11.5829200" lon="-76.6706270">
        <ele>3484.3</ele>
        <time>2022-09-11T20:31:53Z</time>
      </trkpt>
      <trkpt lat="-11.5829470" lon="-76.6705950">
        <ele>3483.9</ele>
        <time>2022-09-11T20:31:54Z</time>
      </trkpt>
      <trkpt lat="-11.5829660" lon="-76.6705640">
        <ele>3483.5</ele>
        <time>2022-09-11T20:31:55Z</time>
      </trkpt>
      <trkpt lat="-11.5829800" lon="-76.6705330">
        <ele>3483.1</ele>
        <time>2022-09-11T20:31:56Z</time>
      </trkpt>
      <trkpt lat="-11.5829870" lon="-76.6704990">
        <ele>3482.7</ele>
        <time>2022-09-11T20:31:57Z</time>
      </trkpt>
      <trkpt lat="-11.5829820" lon="-76.6704610">
        <ele>3482.3</ele>
        <time>2022-09-11T20:31:58Z</time>
      </trkpt>
      <trkpt lat="-11.5829610" lon="-76.6704130">
        <ele>3481.8</ele>
        <time>2022-09-11T20:31:59Z</time>
      </trkpt>
      <trkpt lat="-11.5829310" lon="-76.6703720">
        <ele>3481.2</ele>
        <time>2022-09-11T20:32:00Z</time>
      </trkpt>
      <trkpt lat="-11.5829090" lon="-76.6703530">
        <ele>3480.9</ele>
        <time>2022-09-11T20:32:01Z</time>
      </trkpt>
      <trkpt lat="-11.5828720" lon="-76.6703170">
        <ele>3480.4</ele>
        <time>2022-09-11T20:32:02Z</time>
      </trkpt>
      <trkpt lat="-11.5828420" lon="-76.6702880">
        <ele>3479.9</ele>
        <time>2022-09-11T20:32:03Z</time>
      </trkpt>
      <trkpt lat="-11.5828150" lon="-76.6702490">
        <ele>3479.4</ele>
        <time>2022-09-11T20:32:04Z</time>
      </trkpt>
      <trkpt lat="-11.5827910" lon="-76.6702110">
        <ele>3479.0</ele>
        <time>2022-09-11T20:32:05Z</time>
      </trkpt>
      <trkpt lat="-11.5827510" lon="-76.6701650">
        <ele>3478.3</ele>
        <time>2022-09-11T20:32:06Z</time>
      </trkpt>
      <trkpt lat="-11.5827100" lon="-76.6701250">
        <ele>3477.7</ele>
        <time>2022-09-11T20:32:07Z</time>
      </trkpt>
      <trkpt lat="-11.5826660" lon="-76.6700890">
        <ele>3477.1</ele>
        <time>2022-09-11T20:32:08Z</time>
      </trkpt>
      <trkpt lat="-11.5826180" lon="-76.6700510">
        <ele>3476.4</ele>
        <time>2022-09-11T20:32:09Z</time>
      </trkpt>
      <trkpt lat="-11.5825650" lon="-76.6700100">
        <ele>3475.7</ele>
        <time>2022-09-11T20:32:10Z</time>
      </trkpt>
      <trkpt lat="-11.5825050" lon="-76.6699690">
        <ele>3474.9</ele>
        <time>2022-09-11T20:32:11Z</time>
      </trkpt>
      <trkpt lat="-11.5824380" lon="-76.6699350">
        <ele>3474.1</ele>
        <time>2022-09-11T20:32:12Z</time>
      </trkpt>
      <trkpt lat="-11.5823630" lon="-76.6699060">
        <ele>3473.3</ele>
        <time>2022-09-11T20:32:13Z</time>
      </trkpt>
      <trkpt lat="-11.5822880" lon="-76.6698770">
        <ele>3472.4</ele>
        <time>2022-09-11T20:32:14Z</time>
      </trkpt>
      <trkpt lat="-11.5822180" lon="-76.6698370">
        <ele>3471.5</ele>
        <time>2022-09-11T20:32:15Z</time>
      </trkpt>
      <trkpt lat="-11.5821540" lon="-76.6697910">
        <ele>3470.7</ele>
        <time>2022-09-11T20:32:16Z</time>
      </trkpt>
      <trkpt lat="-11.5820880" lon="-76.6697380">
        <ele>3469.8</ele>
        <time>2022-09-11T20:32:17Z</time>
      </trkpt>
      <trkpt lat="-11.5820120" lon="-76.6696920">
        <ele>3468.8</ele>
        <time>2022-09-11T20:32:18Z</time>
      </trkpt>
      <trkpt lat="-11.5819330" lon="-76.6696530">
        <ele>3467.9</ele>
        <time>2022-09-11T20:32:19Z</time>
      </trkpt>
      <trkpt lat="-11.5818500" lon="-76.6696220">
        <ele>3466.9</ele>
        <time>2022-09-11T20:32:20Z</time>
      </trkpt>
      <trkpt lat="-11.5817670" lon="-76.6695940">
        <ele>3466.0</ele>
        <time>2022-09-11T20:32:21Z</time>
      </trkpt>
      <trkpt lat="-11.5816890" lon="-76.6695590">
        <ele>3465.1</ele>
        <time>2022-09-11T20:32:22Z</time>
      </trkpt>
      <trkpt lat="-11.5816210" lon="-76.6695070">
        <ele>3464.1</ele>
        <time>2022-09-11T20:32:23Z</time>
      </trkpt>
      <trkpt lat="-11.5815700" lon="-76.6694560">
        <ele>3463.4</ele>
        <time>2022-09-11T20:32:24Z</time>
      </trkpt>
      <trkpt lat="-11.5815320" lon="-76.6694130">
        <ele>3462.8</ele>
        <time>2022-09-11T20:32:25Z</time>
      </trkpt>
      <trkpt lat="-11.5815010" lon="-76.6693810">
        <ele>3462.3</ele>
        <time>2022-09-11T20:32:26Z</time>
      </trkpt>
      <trkpt lat="-11.5814730" lon="-76.6693630">
        <ele>3461.9</ele>
        <time>2022-09-11T20:32:27Z</time>
      </trkpt>
      <trkpt lat="-11.5814580" lon="-76.6693670">
        <ele>3461.8</ele>
        <time>2022-09-11T20:32:28Z</time>
      </trkpt>
      <trkpt lat="-11.5814420" lon="-76.6693790">
        <ele>3461.6</ele>
        <time>2022-09-11T20:32:29Z</time>
      </trkpt>
      <trkpt lat="-11.5814410" lon="-76.6694150">
        <ele>3461.2</ele>
        <time>2022-09-11T20:32:30Z</time>
      </trkpt>
      <trkpt lat="-11.5814440" lon="-76.6694310">
        <ele>3461.0</ele>
        <time>2022-09-11T20:32:31Z</time>
      </trkpt>
      <trkpt lat="-11.5814710" lon="-76.6694740">
        <ele>3460.5</ele>
        <time>2022-09-11T20:32:32Z</time>
      </trkpt>
      <trkpt lat="-11.5815040" lon="-76.6695260">
        <ele>3461.3</ele>
        <time>2022-09-11T20:32:33Z</time>
      </trkpt>
      <trkpt lat="-11.5815470" lon="-76.6695810">
        <ele>3462.1</ele>
        <time>2022-09-11T20:32:34Z</time>
      </trkpt>
      <trkpt lat="-11.5815980" lon="-76.6696380">
        <ele>3463.0</ele>
        <time>2022-09-11T20:32:35Z</time>
      </trkpt>
      <trkpt lat="-11.5816540" lon="-76.6696970">
        <ele>3463.9</ele>
        <time>2022-09-11T20:32:36Z</time>
      </trkpt>
      <trkpt lat="-11.5817130" lon="-76.6697580">
        <ele>3464.8</ele>
        <time>2022-09-11T20:32:37Z</time>
      </trkpt>
      <trkpt lat="-11.5817780" lon="-76.6698170">
        <ele>3465.8</ele>
        <time>2022-09-11T20:32:38Z</time>
      </trkpt>
      <trkpt lat="-11.5818470" lon="-76.6698750">
        <ele>3466.9</ele>
        <time>2022-09-11T20:32:39Z</time>
      </trkpt>
      <trkpt lat="-11.5819140" lon="-76.6699350">
        <ele>3467.9</ele>
        <time>2022-09-11T20:32:40Z</time>
      </trkpt>
      <trkpt lat="-11.5819770" lon="-76.6699880">
        <ele>3468.8</ele>
        <time>2022-09-11T20:32:41Z</time>
      </trkpt>
      <trkpt lat="-11.5820340" lon="-76.6700370">
        <ele>3469.7</ele>
        <time>2022-09-11T20:32:42Z</time>
      </trkpt>
      <trkpt lat="-11.5820820" lon="-76.6700920">
        <ele>3469.4</ele>
        <time>2022-09-11T20:32:43Z</time>
      </trkpt>
      <trkpt lat="-11.5821210" lon="-76.6701570">
        <ele>3472.2</ele>
        <time>2022-09-11T20:32:44Z</time>
      </trkpt>
      <trkpt lat="-11.5821490" lon="-76.6702270">
        <ele>3472.0</ele>
        <time>2022-09-11T20:32:45Z</time>
      </trkpt>
      <trkpt lat="-11.5821730" lon="-76.6702850">
        <ele>3471.7</ele>
        <time>2022-09-11T20:32:46Z</time>
      </trkpt>
      <trkpt lat="-11.5821910" lon="-76.6703240">
        <ele>3469.5</ele>
        <time>2022-09-11T20:32:47Z</time>
      </trkpt>
      <trkpt lat="-11.5821910" lon="-76.6703560">
        <ele>3469.2</ele>
        <time>2022-09-11T20:32:48Z</time>
      </trkpt>
      <trkpt lat="-11.5821890" lon="-76.6703760">
        <ele>3469.0</ele>
        <time>2022-09-11T20:32:49Z</time>
      </trkpt>
      <trkpt lat="-11.5821670" lon="-76.6704000">
        <ele>3468.7</ele>
        <time>2022-09-11T20:32:50Z</time>
      </trkpt>
      <trkpt lat="-11.5821580" lon="-76.6704030">
        <ele>3468.5</ele>
        <time>2022-09-11T20:32:51Z</time>
      </trkpt>
      <trkpt lat="-11.5821290" lon="-76.6703870">
        <ele>3468.2</ele>
        <time>2022-09-11T20:32:52Z</time>
      </trkpt>
      <trkpt lat="-11.5821210" lon="-76.6703760">
        <ele>3468.0</ele>
        <time>2022-09-11T20:32:53Z</time>
      </trkpt>
      <trkpt lat="-11.5821020" lon="-76.6703400">
        <ele>3455.7</ele>
        <time>2022-09-11T20:32:54Z</time>
      </trkpt>
      <trkpt lat="-11.5820860" lon="-76.6702950">
        <ele>3458.5</ele>
        <time>2022-09-11T20:32:55Z</time>
      </trkpt>
      <trkpt lat="-11.5820620" lon="-76.6702490">
        <ele>3458.2</ele>
        <time>2022-09-11T20:32:56Z</time>
      </trkpt>
      <trkpt lat="-11.5820300" lon="-76.6702020">
        <ele>3458.0</ele>
        <time>2022-09-11T20:32:57Z</time>
      </trkpt>
      <trkpt lat="-11.5819920" lon="-76.6701610">
        <ele>3457.7</ele>
        <time>2022-09-11T20:32:58Z</time>
      </trkpt>
      <trkpt lat="-11.5819450" lon="-76.6701290">
        <ele>3457.5</ele>
        <time>2022-09-11T20:32:59Z</time>
      </trkpt>
      <trkpt lat="-11.5818870" lon="-76.6700970">
        <ele>3457.3</ele>
        <time>2022-09-11T20:33:00Z</time>
      </trkpt>
      <trkpt lat="-11.5818270" lon="-76.6700690">
        <ele>3457.0</ele>
        <time>2022-09-11T20:33:01Z</time>
      </trkpt>
      <trkpt lat="-11.5817620" lon="-76.6700520">
        <ele>3453.8</ele>
        <time>2022-09-11T20:33:02Z</time>
      </trkpt>
      <trkpt lat="-11.5816980" lon="-76.6700280">
        <ele>3453.5</ele>
        <time>2022-09-11T20:33:03Z</time>
      </trkpt>
      <trkpt lat="-11.5816340" lon="-76.6700030">
        <ele>3453.3</ele>
        <time>2022-09-11T20:33:04Z</time>
      </trkpt>
      <trkpt lat="-11.5815750" lon="-76.6699740">
        <ele>3454.0</ele>
        <time>2022-09-11T20:33:05Z</time>
      </trkpt>
      <trkpt lat="-11.5815180" lon="-76.6699370">
        <ele>3453.8</ele>
        <time>2022-09-11T20:33:06Z</time>
      </trkpt>
      <trkpt lat="-11.5814670" lon="-76.6699020">
        <ele>3453.5</ele>
        <time>2022-09-11T20:33:07Z</time>
      </trkpt>
      <trkpt lat="-11.5814270" lon="-76.6698730">
        <ele>3445.3</ele>
        <time>2022-09-11T20:33:08Z</time>
      </trkpt>
      <trkpt lat="-11.5813960" lon="-76.6698630">
        <ele>3445.0</ele>
        <time>2022-09-11T20:33:09Z</time>
      </trkpt>
      <trkpt lat="-11.5813840" lon="-76.6698660">
        <ele>3444.8</ele>
        <time>2022-09-11T20:33:10Z</time>
      </trkpt>
      <trkpt lat="-11.5813610" lon="-76.6698870">
        <ele>3444.5</ele>
        <time>2022-09-11T20:33:11Z</time>
      </trkpt>
      <trkpt lat="-11.5813510" lon="-76.6699220">
        <ele>3444.3</ele>
        <time>2022-09-11T20:33:12Z</time>
      </trkpt>
      <trkpt lat="-11.5813640" lon="-76.6699540">
        <ele>3444.0</ele>
        <time>2022-09-11T20:33:13Z</time>
      </trkpt>
      <trkpt lat="-11.5813870" lon="-76.6699740">
        <ele>3443.8</ele>
        <time>2022-09-11T20:33:14Z</time>
      </trkpt>
      <trkpt lat="-11.5814340" lon="-76.6700160">
        <ele>3441.6</ele>
        <time>2022-09-11T20:33:15Z</time>
      </trkpt>
      <trkpt lat="-11.5814780" lon="-76.6700580">
        <ele>3447.3</ele>
        <time>2022-09-11T20:33:16Z</time>
      </trkpt>
      <trkpt lat="-11.5815120" lon="-76.6700940">
        <ele>3447.1</ele>
        <time>2022-09-11T20:33:17Z</time>
      </trkpt>
      <trkpt lat="-11.5815370" lon="-76.6701230">
        <ele>3446.8</ele>
        <time>2022-09-11T20:33:18Z</time>
      </trkpt>
      <trkpt lat="-11.5815460" lon="-76.6701340">
        <ele>3446.6</ele>
        <time>2022-09-11T20:33:19Z</time>
      </trkpt>
      <trkpt lat="-11.5815660" lon="-76.6701570">
        <ele>3440.3</ele>
        <time>2022-09-11T20:33:20Z</time>
      </trkpt>
      <trkpt lat="-11.5815720" lon="-76.6701650">
        <ele>3440.1</ele>
        <time>2022-09-11T20:33:21Z</time>
      </trkpt>
      <trkpt lat="-11.5815810" lon="-76.6701850">
        <ele>3439.8</ele>
        <time>2022-09-11T20:33:22Z</time>
      </trkpt>
      <trkpt lat="-11.5815820" lon="-76.6701940">
        <ele>3439.6</ele>
        <time>2022-09-11T20:33:23Z</time>
      </trkpt>
      <trkpt lat="-11.5815840" lon="-76.6702030">
        <ele>3439.3</ele>
        <time>2022-09-11T20:33:24Z</time>
      </trkpt>
      <trkpt lat="-11.5815820" lon="-76.6702140">
        <ele>3439.1</ele>
        <time>2022-09-11T20:33:25Z</time>
      </trkpt>
      <trkpt lat="-11.5815820" lon="-76.6702150">
        <ele>3438.8</ele>
        <time>2022-09-11T20:33:26Z</time>
      </trkpt>
      <trkpt lat="-11.5815820" lon="-76.6702150">
        <ele>3438.6</ele>
        <time>2022-09-11T20:33:27Z</time>
      </trkpt>
      <trkpt lat="-11.5815800" lon="-76.6702130">
        <ele>3438.3</ele>
        <time>2022-09-11T20:33:28Z</time>
      </trkpt>
      <trkpt lat="-11.5815780" lon="-76.6702110">
        <ele>3438.1</ele>
        <time>2022-09-11T20:33:29Z</time>
      </trkpt>
      <trkpt lat="-11.5815750" lon="-76.6702090">
        <ele>3437.9</ele>
        <time>2022-09-11T20:33:30Z</time>
      </trkpt>
      <trkpt lat="-11.5815720" lon="-76.6702070">
        <ele>3437.6</ele>
        <time>2022-09-11T20:33:31Z</time>
      </trkpt>
      <trkpt lat="-11.5815700" lon="-76.6702050">
        <ele>3437.4</ele>
        <time>2022-09-11T20:33:32Z</time>
      </trkpt>
      <trkpt lat="-11.5815700" lon="-76.6702040">
        <ele>3437.1</ele>
        <time>2022-09-11T20:33:33Z</time>
      </trkpt>
      <trkpt lat="-11.5815700" lon="-76.6702040">
        <ele>3436.9</ele>
        <time>2022-09-11T20:33:34Z</time>
      </trkpt>
      <trkpt lat="-11.5815700" lon="-76.6702040">
        <ele>3436.6</ele>
        <time>2022-09-11T20:33:35Z</time>
      </trkpt>
      <trkpt lat="-11.5815710" lon="-76.6702050">
        <ele>3436.4</ele>
        <time>2022-09-11T20:33:36Z</time>
      </trkpt>
      <trkpt lat="-11.5815710" lon="-76.6702050">
        <ele>3436.1</ele>
        <time>2022-09-11T20:33:37Z</time>
      </trkpt>
      <trkpt lat="-11.5815720" lon="-76.6702050">
        <ele>3435.9</ele>
        <time>2022-09-11T20:33:38Z</time>
      </trkpt>
      <trkpt lat="-11.5815710" lon="-76.6702050">
        <ele>3435.6</ele>
        <time>2022-09-11T20:33:39Z</time>
      </trkpt>
      <trkpt lat="-11.5816060" lon="-76.6702250">
        <ele>3435.4</ele>
        <time>2022-09-11T20:34:11Z</time>
      </trkpt>
      <trkpt lat="-11.5816270" lon="-76.6702510">
        <ele>3437.1</ele>
        <time>2022-09-11T20:34:12Z</time>
      </trkpt>
      <trkpt lat="-11.5816460" lon="-76.6702790">
        <ele>3436.9</ele>
        <time>2022-09-11T20:34:13Z</time>
      </trkpt>
      <trkpt lat="-11.5816720" lon="-76.6703140">
        <ele>3436.6</ele>
        <time>2022-09-11T20:34:14Z</time>
      </trkpt>
      <trkpt lat="-11.5816920" lon="-76.6703400">
        <ele>3429.4</ele>
        <time>2022-09-11T20:34:15Z</time>
      </trkpt>
      <trkpt lat="-11.5817010" lon="-76.6703550">
        <ele>3429.2</ele>
        <time>2022-09-11T20:34:16Z</time>
      </trkpt>
      <trkpt lat="-11.5817060" lon="-76.6703660">
        <ele>3428.9</ele>
        <time>2022-09-11T20:34:17Z</time>
      </trkpt>
      <trkpt lat="-11.5817200" lon="-76.6703960">
        <ele>3428.7</ele>
        <time>2022-09-11T20:34:19Z</time>
      </trkpt>
      <trkpt lat="-11.5817280" lon="-76.6704110">
        <ele>3428.4</ele>
        <time>2022-09-11T20:34:20Z</time>
      </trkpt>
      <trkpt lat="-11.5817320" lon="-76.6704190">
        <ele>3428.2</ele>
        <time>2022-09-11T20:34:21Z</time>
      </trkpt>
      <trkpt lat="-11.5817420" lon="-76.6704340">
        <ele>3427.9</ele>
        <time>2022-09-11T20:34:23Z</time>
      </trkpt>
      <trkpt lat="-11.5817630" lon="-76.6704570">
        <ele>3427.7</ele>
        <time>2022-09-11T20:34:25Z</time>
      </trkpt>
      <trkpt lat="-11.5817700" lon="-76.6704630">
        <ele>3427.4</ele>
        <time>2022-09-11T20:34:26Z</time>
      </trkpt>
      <trkpt lat="-11.5817950" lon="-76.6704870">
        <ele>3432.2</ele>
        <time>2022-09-11T20:34:27Z</time>
      </trkpt>
      <trkpt lat="-11.5818030" lon="-76.6704950">
        <ele>3429.9</ele>
        <time>2022-09-11T20:34:28Z</time>
      </trkpt>
      <trkpt lat="-11.5818200" lon="-76.6705180">
        <ele>3429.7</ele>
        <time>2022-09-11T20:34:29Z</time>
      </trkpt>
      <trkpt lat="-11.5818320" lon="-76.6705450">
        <ele>3429.4</ele>
        <time>2022-09-11T20:34:30Z</time>
      </trkpt>
      <trkpt lat="-11.5818420" lon="-76.6705840">
        <ele>3429.2</ele>
        <time>2022-09-11T20:34:31Z</time>
      </trkpt>
      <trkpt lat="-11.5818490" lon="-76.6706440">
        <ele>3428.9</ele>
        <time>2022-09-11T20:34:33Z</time>
      </trkpt>
      <trkpt lat="-11.5818420" lon="-76.6707020">
        <ele>3429.7</ele>
        <time>2022-09-11T20:34:34Z</time>
      </trkpt>
      <trkpt lat="-11.5818350" lon="-76.6707350">
        <ele>3429.5</ele>
        <time>2022-09-11T20:34:35Z</time>
      </trkpt>
      <trkpt lat="-11.5818170" lon="-76.6707640">
        <ele>3429.2</ele>
        <time>2022-09-11T20:34:36Z</time>
      </trkpt>
      <trkpt lat="-11.5818110" lon="-76.6707700">
        <ele>3429.0</ele>
        <time>2022-09-11T20:34:37Z</time>
      </trkpt>
      <trkpt lat="-11.5818070" lon="-76.6707710">
        <ele>3428.7</ele>
        <time>2022-09-11T20:34:38Z</time>
      </trkpt>
      <trkpt lat="-11.5818060" lon="-76.6707680">
        <ele>3428.5</ele>
        <time>2022-09-11T20:34:39Z</time>
      </trkpt>
      <trkpt lat="-11.5818060" lon="-76.6707650">
        <ele>3428.2</ele>
        <time>2022-09-11T20:34:40Z</time>
      </trkpt>
      <trkpt lat="-11.5818040" lon="-76.6707640">
        <ele>3428.0</ele>
        <time>2022-09-11T20:34:42Z</time>
      </trkpt>
      <trkpt lat="-11.5818030" lon="-76.6707620">
        <ele>3427.7</ele>
        <time>2022-09-11T20:34:43Z</time>
      </trkpt>
      <trkpt lat="-11.5818040" lon="-76.6707570">
        <ele>3427.5</ele>
        <time>2022-09-11T20:34:44Z</time>
      </trkpt>
      <trkpt lat="-11.5818070" lon="-76.6707540">
        <ele>3427.2</ele>
        <time>2022-09-11T20:34:45Z</time>
      </trkpt>
      <trkpt lat="-11.5818090" lon="-76.6707520">
        <ele>3427.0</ele>
        <time>2022-09-11T20:34:46Z</time>
      </trkpt>
      <trkpt lat="-11.5818100" lon="-76.6707510">
        <ele>3426.7</ele>
        <time>2022-09-11T20:34:47Z</time>
      </trkpt>
      <trkpt lat="-11.5818050" lon="-76.6707490">
        <ele>3426.5</ele>
        <time>2022-09-11T20:34:49Z</time>
      </trkpt>
      <trkpt lat="-11.5818030" lon="-76.6707500">
        <ele>3426.2</ele>
        <time>2022-09-11T20:34:50Z</time>
      </trkpt>
      <trkpt lat="-11.5818020" lon="-76.6707500">
        <ele>3426.0</ele>
        <time>2022-09-11T20:34:51Z</time>
      </trkpt>
      <trkpt lat="-11.5817980" lon="-76.6707490">
        <ele>3425.8</ele>
        <time>2022-09-11T20:34:52Z</time>
      </trkpt>
      <trkpt lat="-11.5817870" lon="-76.6707480">
        <ele>3425.5</ele>
        <time>2022-09-11T20:34:53Z</time>
      </trkpt>
      <trkpt lat="-11.5817780" lon="-76.6707450">
        <ele>3417.3</ele>
        <time>2022-09-11T20:34:54Z</time>
      </trkpt>
      <trkpt lat="-11.5817610" lon="-76.6707420">
        <ele>3417.0</ele>
        <time>2022-09-11T20:34:55Z</time>
      </trkpt>
      <trkpt lat="-11.5817320" lon="-76.6707330">
        <ele>3416.8</ele>
        <time>2022-09-11T20:34:57Z</time>
      </trkpt>
      <trkpt lat="-11.5817070" lon="-76.6707110">
        <ele>3416.5</ele>
        <time>2022-09-11T20:34:58Z</time>
      </trkpt>
      <trkpt lat="-11.5816690" lon="-76.6706420">
        <ele>3416.3</ele>
        <time>2022-09-11T20:35:00Z</time>
      </trkpt>
      <trkpt lat="-11.5816310" lon="-76.6705920">
        <ele>3416.0</ele>
        <time>2022-09-11T20:35:02Z</time>
      </trkpt>
      <trkpt lat="-11.5815940" lon="-76.6705620">
        <ele>3412.8</ele>
        <time>2022-09-11T20:35:03Z</time>
      </trkpt>
      <trkpt lat="-11.5815570" lon="-76.6705450">
        <ele>3412.5</ele>
        <time>2022-09-11T20:35:04Z</time>
      </trkpt>
      <trkpt lat="-11.5815150" lon="-76.6705330">
        <ele>3412.3</ele>
        <time>2022-09-11T20:35:05Z</time>
      </trkpt>
      <trkpt lat="-11.5814790" lon="-76.6705210">
        <ele>3412.0</ele>
        <time>2022-09-11T20:35:06Z</time>
      </trkpt>
      <trkpt lat="-11.5814290" lon="-76.6704960">
        <ele>3411.3</ele>
        <time>2022-09-11T20:35:08Z</time>
      </trkpt>
      <trkpt lat="-11.5813570" lon="-76.6704530">
        <ele>3410.1</ele>
        <time>2022-09-11T20:35:09Z</time>
      </trkpt>
      <trkpt lat="-11.5813190" lon="-76.6704250">
        <ele>3409.5</ele>
        <time>2022-09-11T20:35:10Z</time>
      </trkpt>
      <trkpt lat="-11.5812990" lon="-76.6704130">
        <ele>3409.2</ele>
        <time>2022-09-11T20:35:11Z</time>
      </trkpt>
      <trkpt lat="-11.5812680" lon="-76.6703860">
        <ele>3408.6</ele>
        <time>2022-09-11T20:35:12Z</time>
      </trkpt>
      <trkpt lat="-11.5812230" lon="-76.6703530">
        <ele>3407.9</ele>
        <time>2022-09-11T20:35:13Z</time>
      </trkpt>
      <trkpt lat="-11.5811800" lon="-76.6703280">
        <ele>3407.2</ele>
        <time>2022-09-11T20:35:14Z</time>
      </trkpt>
      <trkpt lat="-11.5811400" lon="-76.6703040">
        <ele>3406.6</ele>
        <time>2022-09-11T20:35:15Z</time>
      </trkpt>
      <trkpt lat="-11.5811130" lon="-76.6702950">
        <ele>3406.2</ele>
        <time>2022-09-11T20:35:16Z</time>
      </trkpt>
      <trkpt lat="-11.5810560" lon="-76.6702720">
        <ele>3405.3</ele>
        <time>2022-09-11T20:35:17Z</time>
      </trkpt>
      <trkpt lat="-11.5810070" lon="-76.6702540">
        <ele>3404.6</ele>
        <time>2022-09-11T20:35:18Z</time>
      </trkpt>
      <trkpt lat="-11.5809630" lon="-76.6702350">
        <ele>3404.0</ele>
        <time>2022-09-11T20:35:19Z</time>
      </trkpt>
      <trkpt lat="-11.5809240" lon="-76.6702130">
        <ele>3403.4</ele>
        <time>2022-09-11T20:35:20Z</time>
      </trkpt>
      <trkpt lat="-11.5809000" lon="-76.6701860">
        <ele>3402.9</ele>
        <time>2022-09-11T20:35:21Z</time>
      </trkpt>
      <trkpt lat="-11.5808630" lon="-76.6701460">
        <ele>3402.1</ele>
        <time>2022-09-11T20:35:22Z</time>
      </trkpt>
      <trkpt lat="-11.5808290" lon="-76.6701040">
        <ele>3401.4</ele>
        <time>2022-09-11T20:35:23Z</time>
      </trkpt>
      <trkpt lat="-11.5807960" lon="-76.6700660">
        <ele>3400.7</ele>
        <time>2022-09-11T20:35:24Z</time>
      </trkpt>
      <trkpt lat="-11.5807670" lon="-76.6700260">
        <ele>3400.1</ele>
        <time>2022-09-11T20:35:25Z</time>
      </trkpt>
      <trkpt lat="-11.5807430" lon="-76.6699850">
        <ele>3399.4</ele>
        <time>2022-09-11T20:35:26Z</time>
      </trkpt>
      <trkpt lat="-11.5807180" lon="-76.6699440">
        <ele>3398.8</ele>
        <time>2022-09-11T20:35:27Z</time>
      </trkpt>
      <trkpt lat="-11.5807230" lon="-76.6699020">
        <ele>3398.2</ele>
        <time>2022-09-11T20:35:28Z</time>
      </trkpt>
      <trkpt lat="-11.5807280" lon="-76.6698830">
        <ele>3397.9</ele>
        <time>2022-09-11T20:35:29Z</time>
      </trkpt>
      <trkpt lat="-11.5807260" lon="-76.6698410">
        <ele>3397.4</ele>
        <time>2022-09-11T20:35:30Z</time>
      </trkpt>
      <trkpt lat="-11.5807280" lon="-76.6698040">
        <ele>3396.9</ele>
        <time>2022-09-11T20:35:31Z</time>
      </trkpt>
      <trkpt lat="-11.5807150" lon="-76.6697580">
        <ele>3396.3</ele>
        <time>2022-09-11T20:35:32Z</time>
      </trkpt>
      <trkpt lat="-11.5806870" lon="-76.6697190">
        <ele>3395.6</ele>
        <time>2022-09-11T20:35:34Z</time>
      </trkpt>
      <trkpt lat="-11.5806400" lon="-76.6697160">
        <ele>3395.0</ele>
        <time>2022-09-11T20:35:35Z</time>
      </trkpt>
      <trkpt lat="-11.5806100" lon="-76.6697400">
        <ele>3394.4</ele>
        <time>2022-09-11T20:35:36Z</time>
      </trkpt>
      <trkpt lat="-11.5805930" lon="-76.6697760">
        <ele>3393.9</ele>
        <time>2022-09-11T20:35:37Z</time>
      </trkpt>
      <trkpt lat="-11.5805910" lon="-76.6697880">
        <ele>3393.7</ele>
        <time>2022-09-11T20:35:38Z</time>
      </trkpt>
      <trkpt lat="-11.5805900" lon="-76.6698290">
        <ele>3393.2</ele>
        <time>2022-09-11T20:35:40Z</time>
      </trkpt>
      <trkpt lat="-11.5805920" lon="-76.6698460">
        <ele>3393.0</ele>
        <time>2022-09-11T20:35:41Z</time>
      </trkpt>
      <trkpt lat="-11.5805980" lon="-76.6698750">
        <ele>3392.6</ele>
        <time>2022-09-11T20:35:42Z</time>
      </trkpt>
      <trkpt lat="-11.5805990" lon="-76.6698870">
        <ele>3392.4</ele>
        <time>2022-09-11T20:35:43Z</time>
      </trkpt>
      <trkpt lat="-11.5806000" lon="-76.6699230">
        <ele>3391.9</ele>
        <time>2022-09-11T20:35:44Z</time>
      </trkpt>
      <trkpt lat="-11.5806000" lon="-76.6699360">
        <ele>3391.7</ele>
        <time>2022-09-11T20:35:45Z</time>
      </trkpt>
      <trkpt lat="-11.5806040" lon="-76.6699640">
        <ele>3391.4</ele>
        <time>2022-09-11T20:35:46Z</time>
      </trkpt>
      <trkpt lat="-11.5806080" lon="-76.6700060">
        <ele>3390.8</ele>
        <time>2022-09-11T20:35:47Z</time>
      </trkpt>
      <trkpt lat="-11.5806090" lon="-76.6700240">
        <ele>3390.6</ele>
        <time>2022-09-11T20:35:48Z</time>
      </trkpt>
      <trkpt lat="-11.5806140" lon="-76.6700600">
        <ele>3390.1</ele>
        <time>2022-09-11T20:35:49Z</time>
      </trkpt>
      <trkpt lat="-11.5806150" lon="-76.6701000">
        <ele>3389.5</ele>
        <time>2022-09-11T20:35:50Z</time>
      </trkpt>
      <trkpt lat="-11.5806120" lon="-76.6701500">
        <ele>3388.9</ele>
        <time>2022-09-11T20:35:52Z</time>
      </trkpt>
      <trkpt lat="-11.5806160" lon="-76.6701900">
        <ele>3388.3</ele>
        <time>2022-09-11T20:35:53Z</time>
      </trkpt>
      <trkpt lat="-11.5806140" lon="-76.6702300">
        <ele>3387.8</ele>
        <time>2022-09-11T20:35:54Z</time>
      </trkpt>
      <trkpt lat="-11.5806200" lon="-76.6702640">
        <ele>3387.3</ele>
        <time>2022-09-11T20:35:55Z</time>
      </trkpt>
      <trkpt lat="-11.5806280" lon="-76.6703160">
        <ele>3386.6</ele>
        <time>2022-09-11T20:35:57Z</time>
      </trkpt>
      <trkpt lat="-11.5806330" lon="-76.6703680">
        <ele>3385.9</ele>
        <time>2022-09-11T20:35:58Z</time>
      </trkpt>
      <trkpt lat="-11.5806590" lon="-76.6704470">
        <ele>3384.8</ele>
        <time>2022-09-11T20:35:59Z</time>
      </trkpt>
      <trkpt lat="-11.5806870" lon="-76.6704920">
        <ele>3384.1</ele>
        <time>2022-09-11T20:36:00Z</time>
      </trkpt>
      <trkpt lat="-11.5807230" lon="-76.6705350">
        <ele>3383.3</ele>
        <time>2022-09-11T20:36:01Z</time>
      </trkpt>
      <trkpt lat="-11.5807620" lon="-76.6705790">
        <ele>3382.6</ele>
        <time>2022-09-11T20:36:02Z</time>
      </trkpt>
      <trkpt lat="-11.5807990" lon="-76.6706280">
        <ele>3381.7</ele>
        <time>2022-09-11T20:36:03Z</time>
      </trkpt>
      <trkpt lat="-11.5808340" lon="-76.6706840">
        <ele>3380.8</ele>
        <time>2022-09-11T20:36:04Z</time>
      </trkpt>
      <trkpt lat="-11.5808680" lon="-76.6707410">
        <ele>3379.9</ele>
        <time>2022-09-11T20:36:05Z</time>
      </trkpt>
      <trkpt lat="-11.5809070" lon="-76.6707940">
        <ele>3379.1</ele>
        <time>2022-09-11T20:36:06Z</time>
      </trkpt>
      <trkpt lat="-11.5809560" lon="-76.6708390">
        <ele>3378.2</ele>
        <time>2022-09-11T20:36:07Z</time>
      </trkpt>
      <trkpt lat="-11.5810020" lon="-76.6708820">
        <ele>3377.3</ele>
        <time>2022-09-11T20:36:08Z</time>
      </trkpt>
      <trkpt lat="-11.5810350" lon="-76.6709260">
        <ele>3376.6</ele>
        <time>2022-09-11T20:36:09Z</time>
      </trkpt>
      <trkpt lat="-11.5810560" lon="-76.6709750">
        <ele>3375.8</ele>
        <time>2022-09-11T20:36:10Z</time>
      </trkpt>
      <trkpt lat="-11.5810550" lon="-76.6710290">
        <ele>3375.1</ele>
        <time>2022-09-11T20:36:11Z</time>
      </trkpt>
      <trkpt lat="-11.5810390" lon="-76.6710830">
        <ele>3374.4</ele>
        <time>2022-09-11T20:36:12Z</time>
      </trkpt>
      <trkpt lat="-11.5810110" lon="-76.6711360">
        <ele>3373.6</ele>
        <time>2022-09-11T20:36:13Z</time>
      </trkpt>
      <trkpt lat="-11.5809720" lon="-76.6711840">
        <ele>3372.7</ele>
        <time>2022-09-11T20:36:14Z</time>
      </trkpt>
      <trkpt lat="-11.5809410" lon="-76.6712240">
        <ele>3372.0</ele>
        <time>2022-09-11T20:36:15Z</time>
      </trkpt>
      <trkpt lat="-11.5809190" lon="-76.6712480">
        <ele>3371.6</ele>
        <time>2022-09-11T20:36:16Z</time>
      </trkpt>
      <trkpt lat="-11.5809000" lon="-76.6712720">
        <ele>3371.2</ele>
        <time>2022-09-11T20:36:17Z</time>
      </trkpt>
      <trkpt lat="-11.5808860" lon="-76.6713050">
        <ele>3370.7</ele>
        <time>2022-09-11T20:36:18Z</time>
      </trkpt>
      <trkpt lat="-11.5808830" lon="-76.6713130">
        <ele>3370.6</ele>
        <time>2022-09-11T20:36:19Z</time>
      </trkpt>
      <trkpt lat="-11.5808780" lon="-76.6713270">
        <ele>3370.4</ele>
        <time>2022-09-11T20:36:20Z</time>
      </trkpt>
      <trkpt lat="-11.5808790" lon="-76.6713310">
        <ele>3370.3</ele>
        <time>2022-09-11T20:36:21Z</time>
      </trkpt>
      <trkpt lat="-11.5808800" lon="-76.6713360">
        <ele>3370.3</ele>
        <time>2022-09-11T20:36:22Z</time>
      </trkpt>
      <trkpt lat="-11.5808810" lon="-76.6713400">
        <ele>3370.2</ele>
        <time>2022-09-11T20:36:23Z</time>
      </trkpt>
      <trkpt lat="-11.5808820" lon="-76.6713440">
        <ele>3370.2</ele>
        <time>2022-09-11T20:36:24Z</time>
      </trkpt>
      <trkpt lat="-11.5808830" lon="-76.6713490">
        <ele>3370.1</ele>
        <time>2022-09-11T20:36:25Z</time>
      </trkpt>
      <trkpt lat="-11.5808840" lon="-76.6713530">
        <ele>3370.0</ele>
        <time>2022-09-11T20:36:26Z</time>
      </trkpt>
      <trkpt lat="-11.5808850" lon="-76.6713580">
        <ele>3370.0</ele>
        <time>2022-09-11T20:36:27Z</time>
      </trkpt>
      <trkpt lat="-11.5808860" lon="-76.6713620">
        <ele>3370.0</ele>
        <time>2022-09-11T20:36:28Z</time>
      </trkpt>
      <trkpt lat="-11.5808860" lon="-76.6713670">
        <ele>3370.0</ele>
        <time>2022-09-11T20:36:29Z</time>
      </trkpt>
      <trkpt lat="-11.5808870" lon="-76.6713710">
        <ele>3369.9</ele>
        <time>2022-09-11T20:36:30Z</time>
      </trkpt>
      <trkpt lat="-11.5808880" lon="-76.6713760">
        <ele>3369.9</ele>
        <time>2022-09-11T20:36:31Z</time>
      </trkpt>
      <trkpt lat="-11.5808890" lon="-76.6713800">
        <ele>3369.9</ele>
        <time>2022-09-11T20:36:32Z</time>
      </trkpt>
      <trkpt lat="-11.5808900" lon="-76.6713850">
        <ele>3369.9</ele>
        <time>2022-09-11T20:36:33Z</time>
      </trkpt>
      <trkpt lat="-11.5808910" lon="-76.6713890">
        <ele>3369.9</ele>
        <time>2022-09-11T20:36:34Z</time>
      </trkpt>
      <trkpt lat="-11.5808920" lon="-76.6713940">
        <ele>3369.9</ele>
        <time>2022-09-11T20:36:35Z</time>
      </trkpt>
      <trkpt lat="-11.5808930" lon="-76.6713980">
        <ele>3369.9</ele>
        <time>2022-09-11T20:38:28Z</time>
      </trkpt>
      <trkpt lat="-11.5808940" lon="-76.6714030">
        <ele>3369.9</ele>
        <time>2022-09-11T20:38:29Z</time>
      </trkpt>
      <trkpt lat="-11.5808950" lon="-76.6714070">
        <ele>3369.9</ele>
        <time>2022-09-11T20:38:30Z</time>
      </trkpt>
      <trkpt lat="-11.5808970" lon="-76.6714470">
        <ele>3369.8</ele>
        <time>2022-09-11T20:38:31Z</time>
      </trkpt>
      <trkpt lat="-11.5809060" lon="-76.6714880">
        <ele>3369.7</ele>
        <time>2022-09-11T20:38:32Z</time>
      </trkpt>
      <trkpt lat="-11.5809180" lon="-76.6715400">
        <ele>3369.7</ele>
        <time>2022-09-11T20:38:33Z</time>
      </trkpt>
      <trkpt lat="-11.5809340" lon="-76.6715940">
        <ele>3369.6</ele>
        <time>2022-09-11T20:38:34Z</time>
      </trkpt>
      <trkpt lat="-11.5809600" lon="-76.6716490">
        <ele>3369.5</ele>
        <time>2022-09-11T20:38:35Z</time>
      </trkpt>
      <trkpt lat="-11.5809910" lon="-76.6717070">
        <ele>3369.4</ele>
        <time>2022-09-11T20:38:36Z</time>
      </trkpt>
      <trkpt lat="-11.5810260" lon="-76.6717670">
        <ele>3369.3</ele>
        <time>2022-09-11T20:38:37Z</time>
      </trkpt>
      <trkpt lat="-11.5810660" lon="-76.6718260">
        <ele>3369.2</ele>
        <time>2022-09-11T20:38:38Z</time>
      </trkpt>
      <trkpt lat="-11.5811100" lon="-76.6718840">
        <ele>3369.1</ele>
        <time>2022-09-11T20:38:39Z</time>
      </trkpt>
      <trkpt lat="-11.5811520" lon="-76.6719390">
        <ele>3369.1</ele>
        <time>2022-09-11T20:38:40Z</time>
      </trkpt>
      <trkpt lat="-11.5811850" lon="-76.6719960">
        <ele>3369.1</ele>
        <time>2022-09-11T20:38:41Z</time>
      </trkpt>
      <trkpt lat="-11.5812070" lon="-76.6720590">
        <ele>3369.0</ele>
        <time>2022-09-11T20:38:42Z</time>
      </trkpt>
      <trkpt lat="-11.5812180" lon="-76.6721250">
        <ele>3369.0</ele>
        <time>2022-09-11T20:38:43Z</time>
      </trkpt>
      <trkpt lat="-11.5812190" lon="-76.6721870">
        <ele>3369.0</ele>
        <time>2022-09-11T20:38:44Z</time>
      </trkpt>
      <trkpt lat="-11.5812090" lon="-76.6722460">
        <ele>3368.9</ele>
        <time>2022-09-11T20:38:45Z</time>
      </trkpt>
      <trkpt lat="-11.5811900" lon="-76.6723040">
        <ele>3368.9</ele>
        <time>2022-09-11T20:38:46Z</time>
      </trkpt>
      <trkpt lat="-11.5811660" lon="-76.6723590">
        <ele>3368.9</ele>
        <time>2022-09-11T20:38:47Z</time>
      </trkpt>
      <trkpt lat="-11.5811390" lon="-76.6724080">
        <ele>3368.9</ele>
        <time>2022-09-11T20:38:48Z</time>
      </trkpt>
      <trkpt lat="-11.5811140" lon="-76.6724550">
        <ele>3368.9</ele>
        <time>2022-09-11T20:38:49Z</time>
      </trkpt>
      <trkpt lat="-11.5810950" lon="-76.6725000">
        <ele>3368.9</ele>
        <time>2022-09-11T20:38:50Z</time>
      </trkpt>
      <trkpt lat="-11.5810850" lon="-76.6725420">
        <ele>3368.9</ele>
        <time>2022-09-11T20:38:51Z</time>
      </trkpt>
      <trkpt lat="-11.5810880" lon="-76.6725700">
        <ele>3368.8</ele>
        <time>2022-09-11T20:38:52Z</time>
      </trkpt>
      <trkpt lat="-11.5810960" lon="-76.6726170">
        <ele>3368.8</ele>
        <time>2022-09-11T20:38:53Z</time>
      </trkpt>
      <trkpt lat="-11.5811130" lon="-76.6726550">
        <ele>3368.7</ele>
        <time>2022-09-11T20:38:54Z</time>
      </trkpt>
      <trkpt lat="-11.5811260" lon="-76.6726860">
        <ele>3368.6</ele>
        <time>2022-09-11T20:38:55Z</time>
      </trkpt>
      <trkpt lat="-11.5811440" lon="-76.6727150">
        <ele>3368.5</ele>
        <time>2022-09-11T20:38:56Z</time>
      </trkpt>
      <trkpt lat="-11.5811520" lon="-76.6727260">
        <ele>3368.5</ele>
        <time>2022-09-11T20:38:57Z</time>
      </trkpt>
      <trkpt lat="-11.5811760" lon="-76.6727560">
        <ele>3368.4</ele>
        <time>2022-09-11T20:38:58Z</time>
      </trkpt>
      <trkpt lat="-11.5811840" lon="-76.6727660">
        <ele>3368.4</ele>
        <time>2022-09-11T20:38:59Z</time>
      </trkpt>
      <trkpt lat="-11.5812150" lon="-76.6727960">
        <ele>3368.3</ele>
        <time>2022-09-11T20:39:00Z</time>
      </trkpt>
      <trkpt lat="-11.5812290" lon="-76.6728090">
        <ele>3368.3</ele>
        <time>2022-09-11T20:39:01Z</time>
      </trkpt>
      <trkpt lat="-11.5812570" lon="-76.6728350">
        <ele>3368.2</ele>
        <time>2022-09-11T20:39:02Z</time>
      </trkpt>
      <trkpt lat="-11.5812840" lon="-76.6728590">
        <ele>3368.2</ele>
        <time>2022-09-11T20:39:03Z</time>
      </trkpt>
      <trkpt lat="-11.5813120" lon="-76.6728800">
        <ele>3368.1</ele>
        <time>2022-09-11T20:39:04Z</time>
      </trkpt>
      <trkpt lat="-11.5813390" lon="-76.6729010">
        <ele>3368.1</ele>
        <time>2022-09-11T20:39:05Z</time>
      </trkpt>
      <trkpt lat="-11.5813720" lon="-76.6729270">
        <ele>3368.1</ele>
        <time>2022-09-11T20:39:06Z</time>
      </trkpt>
      <trkpt lat="-11.5814020" lon="-76.6729510">
        <ele>3368.1</ele>
        <time>2022-09-11T20:39:07Z</time>
      </trkpt>
      <trkpt lat="-11.5814360" lon="-76.6729710">
        <ele>3368.1</ele>
        <time>2022-09-11T20:39:08Z</time>
      </trkpt>
      <trkpt lat="-11.5814690" lon="-76.6729900">
        <ele>3368.1</ele>
        <time>2022-09-11T20:39:09Z</time>
      </trkpt>
      <trkpt lat="-11.5814830" lon="-76.6729990">
        <ele>3368.1</ele>
        <time>2022-09-11T20:39:10Z</time>
      </trkpt>
      <trkpt lat="-11.5815080" lon="-76.6730150">
        <ele>3368.1</ele>
        <time>2022-09-11T20:39:11Z</time>
      </trkpt>
      <trkpt lat="-11.5815330" lon="-76.6730380">
        <ele>3368.0</ele>
        <time>2022-09-11T20:39:12Z</time>
      </trkpt>
      <trkpt lat="-11.5815420" lon="-76.6730480">
        <ele>3368.0</ele>
        <time>2022-09-11T20:39:13Z</time>
      </trkpt>
      <trkpt lat="-11.5815600" lon="-76.6730740">
        <ele>3368.0</ele>
        <time>2022-09-11T20:39:14Z</time>
      </trkpt>
      <trkpt lat="-11.5815720" lon="-76.6731010">
        <ele>3368.0</ele>
        <time>2022-09-11T20:39:15Z</time>
      </trkpt>
      <trkpt lat="-11.5815810" lon="-76.6731290">
        <ele>3367.9</ele>
        <time>2022-09-11T20:39:16Z</time>
      </trkpt>
      <trkpt lat="-11.5815910" lon="-76.6731580">
        <ele>3367.9</ele>
        <time>2022-09-11T20:39:17Z</time>
      </trkpt>
      <trkpt lat="-11.5816010" lon="-76.6731920">
        <ele>3367.7</ele>
        <time>2022-09-11T20:39:18Z</time>
      </trkpt>
      <trkpt lat="-11.5816030" lon="-76.6732030">
        <ele>3367.6</ele>
        <time>2022-09-11T20:39:19Z</time>
      </trkpt>
      <trkpt lat="-11.5815960" lon="-76.6732380">
        <ele>3367.4</ele>
        <time>2022-09-11T20:39:20Z</time>
      </trkpt>
      <trkpt lat="-11.5815920" lon="-76.6732480">
        <ele>3367.3</ele>
        <time>2022-09-11T20:39:21Z</time>
      </trkpt>
      <trkpt lat="-11.5815780" lon="-76.6732790">
        <ele>3367.1</ele>
        <time>2022-09-11T20:39:22Z</time>
      </trkpt>
      <trkpt lat="-11.5815730" lon="-76.6732930">
        <ele>3367.0</ele>
        <time>2022-09-11T20:39:23Z</time>
      </trkpt>
      <trkpt lat="-11.5815780" lon="-76.6733290">
        <ele>3366.7</ele>
        <time>2022-09-11T20:39:24Z</time>
      </trkpt>
      <trkpt lat="-11.5815830" lon="-76.6733430">
        <ele>3366.6</ele>
        <time>2022-09-11T20:39:25Z</time>
      </trkpt>
      <trkpt lat="-11.5816020" lon="-76.6733690">
        <ele>3366.4</ele>
        <time>2022-09-11T20:39:26Z</time>
      </trkpt>
      <trkpt lat="-11.5816330" lon="-76.6733900">
        <ele>3366.2</ele>
        <time>2022-09-11T20:39:27Z</time>
      </trkpt>
      <trkpt lat="-11.5816440" lon="-76.6733960">
        <ele>3366.1</ele>
        <time>2022-09-11T20:39:28Z</time>
      </trkpt>
      <trkpt lat="-11.5816720" lon="-76.6734200">
        <ele>3365.8</ele>
        <time>2022-09-11T20:39:29Z</time>
      </trkpt>
      <trkpt lat="-11.5816820" lon="-76.6734300">
        <ele>3365.7</ele>
        <time>2022-09-11T20:39:30Z</time>
      </trkpt>
      <trkpt lat="-11.5817060" lon="-76.6734580">
        <ele>3365.5</ele>
        <time>2022-09-11T20:39:31Z</time>
      </trkpt>
      <trkpt lat="-11.5817170" lon="-76.6734690">
        <ele>3365.4</ele>
        <time>2022-09-11T20:39:32Z</time>
      </trkpt>
      <trkpt lat="-11.5817440" lon="-76.6734900">
        <ele>3365.2</ele>
        <time>2022-09-11T20:39:33Z</time>
      </trkpt>
      <trkpt lat="-11.5817540" lon="-76.6734980">
        <ele>3365.1</ele>
        <time>2022-09-11T20:39:34Z</time>
      </trkpt>
      <trkpt lat="-11.5817840" lon="-76.6735250">
        <ele>3365.2</ele>
        <time>2022-09-11T20:39:35Z</time>
      </trkpt>
      <trkpt lat="-11.5817950" lon="-76.6735360">
        <ele>3365.2</ele>
        <time>2022-09-11T20:39:36Z</time>
      </trkpt>
      <trkpt lat="-11.5818240" lon="-76.6735650">
        <ele>3365.3</ele>
        <time>2022-09-11T20:39:37Z</time>
      </trkpt>
      <trkpt lat="-11.5818360" lon="-76.6735770">
        <ele>3365.3</ele>
        <time>2022-09-11T20:39:38Z</time>
      </trkpt>
      <trkpt lat="-11.5818630" lon="-76.6736060">
        <ele>3365.4</ele>
        <time>2022-09-11T20:39:39Z</time>
      </trkpt>
      <trkpt lat="-11.5818770" lon="-76.6736200">
        <ele>3365.4</ele>
        <time>2022-09-11T20:39:40Z</time>
      </trkpt>
      <trkpt lat="-11.5818910" lon="-76.6736450">
        <ele>3365.5</ele>
        <time>2022-09-11T20:39:41Z</time>
      </trkpt>
      <trkpt lat="-11.5819110" lon="-76.6736820">
        <ele>3365.6</ele>
        <time>2022-09-11T20:39:42Z</time>
      </trkpt>
      <trkpt lat="-11.5819290" lon="-76.6737100">
        <ele>3365.7</ele>
        <time>2022-09-11T20:39:43Z</time>
      </trkpt>
      <trkpt lat="-11.5819510" lon="-76.6737380">
        <ele>3365.7</ele>
        <time>2022-09-11T20:39:44Z</time>
      </trkpt>
      <trkpt lat="-11.5819710" lon="-76.6737570">
        <ele>3365.8</ele>
        <time>2022-09-11T20:39:45Z</time>
      </trkpt>
      <trkpt lat="-11.5819960" lon="-76.6737900">
        <ele>3365.9</ele>
        <time>2022-09-11T20:39:46Z</time>
      </trkpt>
      <trkpt lat="-11.5820050" lon="-76.6738040">
        <ele>3365.9</ele>
        <time>2022-09-11T20:39:47Z</time>
      </trkpt>
      <trkpt lat="-11.5820300" lon="-76.6738340">
        <ele>3366.0</ele>
        <time>2022-09-11T20:39:48Z</time>
      </trkpt>
      <trkpt lat="-11.5820400" lon="-76.6738470">
        <ele>3366.1</ele>
        <time>2022-09-11T20:39:49Z</time>
      </trkpt>
      <trkpt lat="-11.5820600" lon="-76.6738730">
        <ele>3366.1</ele>
        <time>2022-09-11T20:39:50Z</time>
      </trkpt>
      <trkpt lat="-11.5820830" lon="-76.6738970">
        <ele>3366.2</ele>
        <time>2022-09-11T20:39:51Z</time>
      </trkpt>
      <trkpt lat="-11.5821110" lon="-76.6739190">
        <ele>3366.3</ele>
        <time>2022-09-11T20:39:52Z</time>
      </trkpt>
      <trkpt lat="-11.5821330" lon="-76.6739350">
        <ele>3366.3</ele>
        <time>2022-09-11T20:39:53Z</time>
      </trkpt>
      <trkpt lat="-11.5821580" lon="-76.6739560">
        <ele>3366.4</ele>
        <time>2022-09-11T20:39:54Z</time>
      </trkpt>
      <trkpt lat="-11.5821920" lon="-76.6739700">
        <ele>3366.5</ele>
        <time>2022-09-11T20:39:55Z</time>
      </trkpt>
      <trkpt lat="-11.5822080" lon="-76.6739760">
        <ele>3366.5</ele>
        <time>2022-09-11T20:39:56Z</time>
      </trkpt>
      <trkpt lat="-11.5822340" lon="-76.6739870">
        <ele>3366.6</ele>
        <time>2022-09-11T20:39:57Z</time>
      </trkpt>
      <trkpt lat="-11.5822620" lon="-76.6739950">
        <ele>3366.6</ele>
        <time>2022-09-11T20:39:58Z</time>
      </trkpt>
      <trkpt lat="-11.5822970" lon="-76.6739960">
        <ele>3366.7</ele>
        <time>2022-09-11T20:39:59Z</time>
      </trkpt>
      <trkpt lat="-11.5823090" lon="-76.6739960">
        <ele>3366.7</ele>
        <time>2022-09-11T20:40:00Z</time>
      </trkpt>
      <trkpt lat="-11.5823390" lon="-76.6739940">
        <ele>3366.8</ele>
        <time>2022-09-11T20:40:01Z</time>
      </trkpt>
      <trkpt lat="-11.5823480" lon="-76.6739920">
        <ele>3366.8</ele>
        <time>2022-09-11T20:40:02Z</time>
      </trkpt>
      <trkpt lat="-11.5823750" lon="-76.6739850">
        <ele>3366.9</ele>
        <time>2022-09-11T20:40:03Z</time>
      </trkpt>
      <trkpt lat="-11.5824040" lon="-76.6739770">
        <ele>3367.0</ele>
        <time>2022-09-11T20:40:04Z</time>
      </trkpt>
      <trkpt lat="-11.5824160" lon="-76.6739740">
        <ele>3367.0</ele>
        <time>2022-09-11T20:40:05Z</time>
      </trkpt>
      <trkpt lat="-11.5824520" lon="-76.6739610">
        <ele>3367.1</ele>
        <time>2022-09-11T20:40:07Z</time>
      </trkpt>
      <trkpt lat="-11.5824630" lon="-76.6739560">
        <ele>3367.1</ele>
        <time>2022-09-11T20:40:08Z</time>
      </trkpt>
      <trkpt lat="-11.5824920" lon="-76.6739390">
        <ele>3367.2</ele>
        <time>2022-09-11T20:40:09Z</time>
      </trkpt>
      <trkpt lat="-11.5825050" lon="-76.6739340">
        <ele>3367.2</ele>
        <time>2022-09-11T20:40:10Z</time>
      </trkpt>
      <trkpt lat="-11.5825330" lon="-76.6739260">
        <ele>3367.3</ele>
        <time>2022-09-11T20:40:11Z</time>
      </trkpt>
      <trkpt lat="-11.5825410" lon="-76.6739240">
        <ele>3367.3</ele>
        <time>2022-09-11T20:40:12Z</time>
      </trkpt>
      <trkpt lat="-11.5825470" lon="-76.6739240">
        <ele>3367.3</ele>
        <time>2022-09-11T20:40:13Z</time>
      </trkpt>
      <trkpt lat="-11.5825590" lon="-76.6739260">
        <ele>3367.3</ele>
        <time>2022-09-11T20:40:14Z</time>
      </trkpt>
      <trkpt lat="-11.5825740" lon="-76.6739230">
        <ele>3367.4</ele>
        <time>2022-09-11T20:40:16Z</time>
      </trkpt>
      <trkpt lat="-11.5825940" lon="-76.6739180">
        <ele>3367.4</ele>
        <time>2022-09-11T20:40:17Z</time>
      </trkpt>
      <trkpt lat="-11.5826020" lon="-76.6739160">
        <ele>3367.4</ele>
        <time>2022-09-11T20:40:18Z</time>
      </trkpt>
      <trkpt lat="-11.5826200" lon="-76.6739110">
        <ele>3367.5</ele>
        <time>2022-09-11T20:40:20Z</time>
      </trkpt>
      <trkpt lat="-11.5826330" lon="-76.6739130">
        <ele>3367.5</ele>
        <time>2022-09-11T20:40:21Z</time>
      </trkpt>
      <trkpt lat="-11.5826470" lon="-76.6739210">
        <ele>3367.5</ele>
        <time>2022-09-11T20:40:22Z</time>
      </trkpt>
      <trkpt lat="-11.5826650" lon="-76.6739330">
        <ele>3367.6</ele>
        <time>2022-09-11T20:40:24Z</time>
      </trkpt>
      <trkpt lat="-11.5826790" lon="-76.6739400">
        <ele>3367.6</ele>
        <time>2022-09-11T20:40:25Z</time>
      </trkpt>
      <trkpt lat="-11.5826950" lon="-76.6739400">
        <ele>3367.6</ele>
        <time>2022-09-11T20:40:26Z</time>
      </trkpt>
      <trkpt lat="-11.5827120" lon="-76.6739450">
        <ele>3367.7</ele>
        <time>2022-09-11T20:40:27Z</time>
      </trkpt>
      <trkpt lat="-11.5827270" lon="-76.6739500">
        <ele>3367.7</ele>
        <time>2022-09-11T20:40:28Z</time>
      </trkpt>
      <trkpt lat="-11.5827570" lon="-76.6739600">
        <ele>3367.8</ele>
        <time>2022-09-11T20:40:29Z</time>
      </trkpt>
      <trkpt lat="-11.5827670" lon="-76.6739650">
        <ele>3367.8</ele>
        <time>2022-09-11T20:40:30Z</time>
      </trkpt>
      <trkpt lat="-11.5827880" lon="-76.6739720">
        <ele>3367.8</ele>
        <time>2022-09-11T20:40:31Z</time>
      </trkpt>
      <trkpt lat="-11.5828100" lon="-76.6739730">
        <ele>3367.9</ele>
        <time>2022-09-11T20:40:33Z</time>
      </trkpt>
      <trkpt lat="-11.5828410" lon="-76.6739750">
        <ele>3368.0</ele>
        <time>2022-09-11T20:40:34Z</time>
      </trkpt>
      <trkpt lat="-11.5828500" lon="-76.6739750">
        <ele>3368.0</ele>
        <time>2022-09-11T20:40:35Z</time>
      </trkpt>
      <trkpt lat="-11.5828630" lon="-76.6739710">
        <ele>3368.0</ele>
        <time>2022-09-11T20:40:36Z</time>
      </trkpt>
      <trkpt lat="-11.5828790" lon="-76.6739690">
        <ele>3368.0</ele>
        <time>2022-09-11T20:40:38Z</time>
      </trkpt>
      <trkpt lat="-11.5828960" lon="-76.6739690">
        <ele>3368.1</ele>
        <time>2022-09-11T20:40:39Z</time>
      </trkpt>
      <trkpt lat="-11.5829100" lon="-76.6739730">
        <ele>3368.1</ele>
        <time>2022-09-11T20:40:40Z</time>
      </trkpt>
      <trkpt lat="-11.5829240" lon="-76.6739780">
        <ele>3368.1</ele>
        <time>2022-09-11T20:40:41Z</time>
      </trkpt>
      <trkpt lat="-11.5829460" lon="-76.6739850">
        <ele>3368.2</ele>
        <time>2022-09-11T20:40:43Z</time>
      </trkpt>
      <trkpt lat="-11.5829470" lon="-76.6739850">
        <ele>3368.2</ele>
        <time>2022-09-11T20:40:44Z</time>
      </trkpt>
      <trkpt lat="-11.5829370" lon="-76.6739840">
        <ele>3368.2</ele>
        <time>2022-09-11T20:40:45Z</time>
      </trkpt>
      <trkpt lat="-11.5829280" lon="-76.6739820">
        <ele>3368.1</ele>
        <time>2022-09-11T20:40:46Z</time>
      </trkpt>
      <trkpt lat="-11.5829180" lon="-76.6739800">
        <ele>3368.1</ele>
        <time>2022-09-11T20:40:47Z</time>
      </trkpt>
      <trkpt lat="-11.5829080" lon="-76.6739780">
        <ele>3368.1</ele>
        <time>2022-09-11T20:40:48Z</time>
      </trkpt>
      <trkpt lat="-11.5828990" lon="-76.6739760">
        <ele>3368.1</ele>
        <time>2022-09-11T20:40:49Z</time>
      </trkpt>
      <trkpt lat="-11.5828890" lon="-76.6739740">
        <ele>3368.1</ele>
        <time>2022-09-11T20:40:50Z</time>
      </trkpt>
      <trkpt lat="-11.5828800" lon="-76.6739730">
        <ele>3368.0</ele>
        <time>2022-09-11T20:40:51Z</time>
      </trkpt>
      <trkpt lat="-11.5828700" lon="-76.6739710">
        <ele>3368.0</ele>
        <time>2022-09-11T20:40:52Z</time>
      </trkpt>
      <trkpt lat="-11.5828600" lon="-76.6739690">
        <ele>3368.0</ele>
        <time>2022-09-11T20:40:54Z</time>
      </trkpt>
      <trkpt lat="-11.5828510" lon="-76.6739670">
        <ele>3368.0</ele>
        <time>2022-09-11T20:40:59Z</time>
      </trkpt>
      <trkpt lat="-11.5828410" lon="-76.6739650">
        <ele>3367.9</ele>
        <time>2022-09-11T20:41:01Z</time>
      </trkpt>
      <trkpt lat="-11.5828320" lon="-76.6739630">
        <ele>3367.9</ele>
        <time>2022-09-11T20:41:02Z</time>
      </trkpt>
      <trkpt lat="-11.5827930" lon="-76.6739570">
        <ele>3367.8</ele>
        <time>2022-09-11T20:41:04Z</time>
      </trkpt>
      <trkpt lat="-11.5827330" lon="-76.6739460">
        <ele>3367.7</ele>
        <time>2022-09-11T20:41:05Z</time>
      </trkpt>
      <trkpt lat="-11.5826790" lon="-76.6739310">
        <ele>3367.6</ele>
        <time>2022-09-11T20:41:06Z</time>
      </trkpt>
      <trkpt lat="-11.5826220" lon="-76.6739180">
        <ele>3367.4</ele>
        <time>2022-09-11T20:41:08Z</time>
      </trkpt>
      <trkpt lat="-11.5825790" lon="-76.6739050">
        <ele>3367.3</ele>
        <time>2022-09-11T20:41:09Z</time>
      </trkpt>
      <trkpt lat="-11.5825390" lon="-76.6739040">
        <ele>3367.3</ele>
        <time>2022-09-11T20:41:10Z</time>
      </trkpt>
      <trkpt lat="-11.5825050" lon="-76.6739140">
        <ele>3367.2</ele>
        <time>2022-09-11T20:41:11Z</time>
      </trkpt>
      <trkpt lat="-11.5824720" lon="-76.6739230">
        <ele>3367.1</ele>
        <time>2022-09-11T20:41:12Z</time>
      </trkpt>
      <trkpt lat="-11.5824180" lon="-76.6739400">
        <ele>3367.0</ele>
        <time>2022-09-11T20:41:13Z</time>
      </trkpt>
      <trkpt lat="-11.5823700" lon="-76.6739530">
        <ele>3366.9</ele>
        <time>2022-09-11T20:41:14Z</time>
      </trkpt>
      <trkpt lat="-11.5823200" lon="-76.6739610">
        <ele>3366.7</ele>
        <time>2022-09-11T20:41:15Z</time>
      </trkpt>
      <trkpt lat="-11.5822720" lon="-76.6739690">
        <ele>3366.6</ele>
        <time>2022-09-11T20:41:16Z</time>
      </trkpt>
      <trkpt lat="-11.5822390" lon="-76.6739330">
        <ele>3366.5</ele>
        <time>2022-09-11T20:41:18Z</time>
      </trkpt>
      <trkpt lat="-11.5821900" lon="-76.6739170">
        <ele>3366.4</ele>
        <time>2022-09-11T20:41:19Z</time>
      </trkpt>
      <trkpt lat="-11.5821440" lon="-76.6738860">
        <ele>3366.3</ele>
        <time>2022-09-11T20:41:20Z</time>
      </trkpt>
      <trkpt lat="-11.5821080" lon="-76.6738600">
        <ele>3366.2</ele>
        <time>2022-09-11T20:41:21Z</time>
      </trkpt>
      <trkpt lat="-11.5820760" lon="-76.6738350">
        <ele>3366.1</ele>
        <time>2022-09-11T20:41:22Z</time>
      </trkpt>
      <trkpt lat="-11.5820550" lon="-76.6738150">
        <ele>3366.0</ele>
        <time>2022-09-11T20:41:23Z</time>
      </trkpt>
      <trkpt lat="-11.5820270" lon="-76.6737880">
        <ele>3365.9</ele>
        <time>2022-09-11T20:41:24Z</time>
      </trkpt>
      <trkpt lat="-11.5820060" lon="-76.6737560">
        <ele>3365.9</ele>
        <time>2022-09-11T20:41:26Z</time>
      </trkpt>
      <trkpt lat="-11.5819820" lon="-76.6737300">
        <ele>3365.8</ele>
        <time>2022-09-11T20:41:27Z</time>
      </trkpt>
      <trkpt lat="-11.5819550" lon="-76.6737080">
        <ele>3365.7</ele>
        <time>2022-09-11T20:41:28Z</time>
      </trkpt>
      <trkpt lat="-11.5819090" lon="-76.6736560">
        <ele>3365.6</ele>
        <time>2022-09-11T20:41:30Z</time>
      </trkpt>
      <trkpt lat="-11.5818900" lon="-76.6736300">
        <ele>3365.5</ele>
        <time>2022-09-11T20:41:31Z</time>
      </trkpt>
      <trkpt lat="-11.5818610" lon="-76.6735940">
        <ele>3365.4</ele>
        <time>2022-09-11T20:41:33Z</time>
      </trkpt>
      <trkpt lat="-11.5818540" lon="-76.6735810">
        <ele>3365.3</ele>
        <time>2022-09-11T20:41:34Z</time>
      </trkpt>
      <trkpt lat="-11.5818470" lon="-76.6735690">
        <ele>3365.3</ele>
        <time>2022-09-11T20:41:35Z</time>
      </trkpt>
      <trkpt lat="-11.5818320" lon="-76.6735510">
        <ele>3365.3</ele>
        <time>2022-09-11T20:41:36Z</time>
      </trkpt>
      <trkpt lat="-11.5818230" lon="-76.6735470">
        <ele>3365.2</ele>
        <time>2022-09-11T20:41:37Z</time>
      </trkpt>
      <trkpt lat="-11.5818140" lon="-76.6735420">
        <ele>3365.2</ele>
        <time>2022-09-11T20:41:38Z</time>
      </trkpt>
      <trkpt lat="-11.5817930" lon="-76.6735210">
        <ele>3365.2</ele>
        <time>2022-09-11T20:41:39Z</time>
      </trkpt>
      <trkpt lat="-11.5817860" lon="-76.6735130">
        <ele>3365.1</ele>
        <time>2022-09-11T20:41:40Z</time>
      </trkpt>
      <trkpt lat="-11.5817700" lon="-76.6734900">
        <ele>3365.1</ele>
        <time>2022-09-11T20:41:41Z</time>
      </trkpt>
      <trkpt lat="-11.5817410" lon="-76.6734480">
        <ele>3365.4</ele>
        <time>2022-09-11T20:41:43Z</time>
      </trkpt>
      <trkpt lat="-11.5817300" lon="-76.6734290">
        <ele>3365.6</ele>
        <time>2022-09-11T20:41:44Z</time>
      </trkpt>
      <trkpt lat="-11.5817190" lon="-76.6734100">
        <ele>3365.8</ele>
        <time>2022-09-11T20:41:45Z</time>
      </trkpt>
      <trkpt lat="-11.5817030" lon="-76.6733780">
        <ele>3366.0</ele>
        <time>2022-09-11T20:41:46Z</time>
      </trkpt>
      <trkpt lat="-11.5816830" lon="-76.6733420">
        <ele>3366.4</ele>
        <time>2022-09-11T20:41:48Z</time>
      </trkpt>
      <trkpt lat="-11.5816660" lon="-76.6733160">
        <ele>3366.6</ele>
        <time>2022-09-11T20:41:49Z</time>
      </trkpt>
      <trkpt lat="-11.5816440" lon="-76.6732740">
        <ele>3366.9</ele>
        <time>2022-09-11T20:41:50Z</time>
      </trkpt>
      <trkpt lat="-11.5816360" lon="-76.6732360">
        <ele>3367.2</ele>
        <time>2022-09-11T20:41:51Z</time>
      </trkpt>
      <trkpt lat="-11.5816310" lon="-76.6732010">
        <ele>3367.5</ele>
        <time>2022-09-11T20:41:52Z</time>
      </trkpt>
      <trkpt lat="-11.5816250" lon="-76.6731730">
        <ele>3367.7</ele>
        <time>2022-09-11T20:41:53Z</time>
      </trkpt>
      <trkpt lat="-11.5816130" lon="-76.6731480">
        <ele>3367.9</ele>
        <time>2022-09-11T20:41:55Z</time>
      </trkpt>
      <trkpt lat="-11.5816000" lon="-76.6731320">
        <ele>3367.9</ele>
        <time>2022-09-11T20:41:56Z</time>
      </trkpt>
      <trkpt lat="-11.5815930" lon="-76.6731230">
        <ele>3367.9</ele>
        <time>2022-09-11T20:41:57Z</time>
      </trkpt>
      <trkpt lat="-11.5815910" lon="-76.6731130">
        <ele>3368.0</ele>
        <time>2022-09-11T20:41:58Z</time>
      </trkpt>
      <trkpt lat="-11.5815790" lon="-76.6730990">
        <ele>3368.0</ele>
        <time>2022-09-11T20:42:00Z</time>
      </trkpt>
      <trkpt lat="-11.5815720" lon="-76.6730960">
        <ele>3368.0</ele>
        <time>2022-09-11T20:42:01Z</time>
      </trkpt>
      <trkpt lat="-11.5815690" lon="-76.6730970">
        <ele>3368.0</ele>
        <time>2022-09-11T20:42:02Z</time>
      </trkpt>
      <trkpt lat="-11.5815720" lon="-76.6731000">
        <ele>3368.0</ele>
        <time>2022-09-11T20:42:04Z</time>
      </trkpt>
      <trkpt lat="-11.5815720" lon="-76.6731000">
        <ele>3368.0</ele>
        <time>2022-09-11T20:42:05Z</time>
      </trkpt>
      <trkpt lat="-11.5815720" lon="-76.6730990">
        <ele>3368.0</ele>
        <time>2022-09-11T20:42:06Z</time>
      </trkpt>
      <trkpt lat="-11.5815730" lon="-76.6730980">
        <ele>3368.0</ele>
        <time>2022-09-11T20:42:07Z</time>
      </trkpt>
      <trkpt lat="-11.5815730" lon="-76.6730980">
        <ele>3368.0</ele>
        <time>2022-09-11T20:42:08Z</time>
      </trkpt>
      <trkpt lat="-11.5815730" lon="-76.6730970">
        <ele>3368.0</ele>
        <time>2022-09-11T20:42:09Z</time>
      </trkpt>
      <trkpt lat="-11.5815740" lon="-76.6730970">
        <ele>3368.0</ele>
        <time>2022-09-11T20:42:10Z</time>
      </trkpt>
      <trkpt lat="-11.5815740" lon="-76.6730970">
        <ele>3368.0</ele>
        <time>2022-09-11T20:42:11Z</time>
      </trkpt>
      <trkpt lat="-11.5815950" lon="-76.6730570">
        <ele>3368.0</ele>
        <time>2022-09-11T20:42:30Z</time>
      </trkpt>
      <trkpt lat="-11.5815910" lon="-76.6730390">
        <ele>3368.1</ele>
        <time>2022-09-11T20:42:32Z</time>
      </trkpt>
      <trkpt lat="-11.5815790" lon="-76.6730250">
        <ele>3368.1</ele>
        <time>2022-09-11T20:42:33Z</time>
      </trkpt>
      <trkpt lat="-11.5815550" lon="-76.6730030">
        <ele>3368.1</ele>
        <time>2022-09-11T20:42:34Z</time>
      </trkpt>
      <trkpt lat="-11.5815420" lon="-76.6729900">
        <ele>3368.1</ele>
        <time>2022-09-11T20:42:36Z</time>
      </trkpt>
      <trkpt lat="-11.5815290" lon="-76.6729770">
        <ele>3368.1</ele>
        <time>2022-09-11T20:42:37Z</time>
      </trkpt>
      <trkpt lat="-11.5815160" lon="-76.6729640">
        <ele>3368.1</ele>
        <time>2022-09-11T20:42:38Z</time>
      </trkpt>
      <trkpt lat="-11.5814890" lon="-76.6729380">
        <ele>3368.1</ele>
        <time>2022-09-11T20:42:39Z</time>
      </trkpt>
      <trkpt lat="-11.5814780" lon="-76.6729280">
        <ele>3368.1</ele>
        <time>2022-09-11T20:42:40Z</time>
      </trkpt>
      <trkpt lat="-11.5814480" lon="-76.6728980">
        <ele>3368.1</ele>
        <time>2022-09-11T20:42:42Z</time>
      </trkpt>
      <trkpt lat="-11.5814120" lon="-76.6728700">
        <ele>3368.1</ele>
        <time>2022-09-11T20:42:43Z</time>
      </trkpt>
      <trkpt lat="-11.5813910" lon="-76.6728500">
        <ele>3368.2</ele>
        <time>2022-09-11T20:42:44Z</time>
      </trkpt>
      <trkpt lat="-11.5813690" lon="-76.6728280">
        <ele>3368.2</ele>
        <time>2022-09-11T20:42:45Z</time>
      </trkpt>
      <trkpt lat="-11.5813420" lon="-76.6728020">
        <ele>3368.2</ele>
        <time>2022-09-11T20:42:46Z</time>
      </trkpt>
      <trkpt lat="-11.5813090" lon="-76.6727720">
        <ele>3368.3</ele>
        <time>2022-09-11T20:42:47Z</time>
      </trkpt>
      <trkpt lat="-11.5812840" lon="-76.6727550">
        <ele>3368.4</ele>
        <time>2022-09-11T20:42:48Z</time>
      </trkpt>
      <trkpt lat="-11.5812540" lon="-76.6727350">
        <ele>3368.4</ele>
        <time>2022-09-11T20:42:50Z</time>
      </trkpt>
      <trkpt lat="-11.5812300" lon="-76.6727140">
        <ele>3368.5</ele>
        <time>2022-09-11T20:42:51Z</time>
      </trkpt>
      <trkpt lat="-11.5812100" lon="-76.6726940">
        <ele>3368.6</ele>
        <time>2022-09-11T20:42:52Z</time>
      </trkpt>
      <trkpt lat="-11.5811900" lon="-76.6726650">
        <ele>3368.7</ele>
        <time>2022-09-11T20:42:53Z</time>
      </trkpt>
      <trkpt lat="-11.5811860" lon="-76.6726570">
        <ele>3368.7</ele>
        <time>2022-09-11T20:42:54Z</time>
      </trkpt>
      <trkpt lat="-11.5811790" lon="-76.6726410">
        <ele>3368.7</ele>
        <time>2022-09-11T20:42:55Z</time>
      </trkpt>
      <trkpt lat="-11.5811720" lon="-76.6726280">
        <ele>3368.7</ele>
        <time>2022-09-11T20:42:56Z</time>
      </trkpt>
      <trkpt lat="-11.5811550" lon="-76.6726100">
        <ele>3368.8</ele>
        <time>2022-09-11T20:42:57Z</time>
      </trkpt>
      <trkpt lat="-11.5811490" lon="-76.6726000">
        <ele>3368.8</ele>
        <time>2022-09-11T20:42:59Z</time>
      </trkpt>
      <trkpt lat="-11.5811420" lon="-76.6725900">
        <ele>3368.8</ele>
        <time>2022-09-11T20:43:00Z</time>
      </trkpt>
      <trkpt lat="-11.5811350" lon="-76.6725810">
        <ele>3368.8</ele>
        <time>2022-09-11T20:43:01Z</time>
      </trkpt>
      <trkpt lat="-11.5811280" lon="-76.6725710">
        <ele>3368.8</ele>
        <time>2022-09-11T20:43:02Z</time>
      </trkpt>
      <trkpt lat="-11.5811230" lon="-76.6725620">
        <ele>3368.8</ele>
        <time>2022-09-11T20:43:03Z</time>
      </trkpt>
      <trkpt lat="-11.5811220" lon="-76.6725430">
        <ele>3368.9</ele>
        <time>2022-09-11T20:43:05Z</time>
      </trkpt>
      <trkpt lat="-11.5811230" lon="-76.6725290">
        <ele>3368.9</ele>
        <time>2022-09-11T20:43:06Z</time>
      </trkpt>
      <trkpt lat="-11.5811240" lon="-76.6725150">
        <ele>3368.9</ele>
        <time>2022-09-11T20:43:07Z</time>
      </trkpt>
      <trkpt lat="-11.5811230" lon="-76.6725040">
        <ele>3368.9</ele>
        <time>2022-09-11T20:43:08Z</time>
      </trkpt>
      <trkpt lat="-11.5811230" lon="-76.6724920">
        <ele>3368.9</ele>
        <time>2022-09-11T20:43:09Z</time>
      </trkpt>
      <trkpt lat="-11.5811250" lon="-76.6724720">
        <ele>3368.9</ele>
        <time>2022-09-11T20:43:11Z</time>
      </trkpt>
      <trkpt lat="-11.5811260" lon="-76.6724590">
        <ele>3368.9</ele>
        <time>2022-09-11T20:43:12Z</time>
      </trkpt>
      <trkpt lat="-11.5811300" lon="-76.6724500">
        <ele>3368.9</ele>
        <time>2022-09-11T20:43:13Z</time>
      </trkpt>
      <trkpt lat="-11.5811350" lon="-76.6724390">
        <ele>3368.9</ele>
        <time>2022-09-11T20:43:15Z</time>
      </trkpt>
      <trkpt lat="-11.5811390" lon="-76.6724320">
        <ele>3368.9</ele>
        <time>2022-09-11T20:43:16Z</time>
      </trkpt>
      <trkpt lat="-11.5811440" lon="-76.6724240">
        <ele>3368.9</ele>
        <time>2022-09-11T20:43:17Z</time>
      </trkpt>
      <trkpt lat="-11.5811460" lon="-76.6724180">
        <ele>3368.9</ele>
        <time>2022-09-11T20:43:18Z</time>
      </trkpt>
      <trkpt lat="-11.5811490" lon="-76.6724120">
        <ele>3368.9</ele>
        <time>2022-09-11T20:43:19Z</time>
      </trkpt>
      <trkpt lat="-11.5811610" lon="-76.6723960">
        <ele>3368.9</ele>
        <time>2022-09-11T20:43:20Z</time>
      </trkpt>
      <trkpt lat="-11.5811650" lon="-76.6723880">
        <ele>3368.9</ele>
        <time>2022-09-11T20:43:21Z</time>
      </trkpt>
      <trkpt lat="-11.5811690" lon="-76.6723800">
        <ele>3368.9</ele>
        <time>2022-09-11T20:43:23Z</time>
      </trkpt>
      <trkpt lat="-11.5811740" lon="-76.6723710">
        <ele>3368.9</ele>
        <time>2022-09-11T20:43:24Z</time>
      </trkpt>
      <trkpt lat="-11.5811780" lon="-76.6723630">
        <ele>3368.9</ele>
        <time>2022-09-11T20:43:25Z</time>
      </trkpt>
      <trkpt lat="-11.5811820" lon="-76.6723550">
        <ele>3368.9</ele>
        <time>2022-09-11T20:43:26Z</time>
      </trkpt>
      <trkpt lat="-11.5811900" lon="-76.6723410">
        <ele>3368.9</ele>
        <time>2022-09-11T20:43:28Z</time>
      </trkpt>
      <trkpt lat="-11.5811930" lon="-76.6723280">
        <ele>3368.9</ele>
        <time>2022-09-11T20:43:29Z</time>
      </trkpt>
      <trkpt lat="-11.5811960" lon="-76.6723170">
        <ele>3368.9</ele>
        <time>2022-09-11T20:43:30Z</time>
      </trkpt>
      <trkpt lat="-11.5812010" lon="-76.6723010">
        <ele>3368.9</ele>
        <time>2022-09-11T20:43:32Z</time>
      </trkpt>
      <trkpt lat="-11.5812060" lon="-76.6722900">
        <ele>3368.9</ele>
        <time>2022-09-11T20:43:33Z</time>
      </trkpt>
      <trkpt lat="-11.5812140" lon="-76.6722790">
        <ele>3368.9</ele>
        <time>2022-09-11T20:43:34Z</time>
      </trkpt>
      <trkpt lat="-11.5812170" lon="-76.6722710">
        <ele>3368.9</ele>
        <time>2022-09-11T20:43:35Z</time>
      </trkpt>
      <trkpt lat="-11.5812170" lon="-76.6722550">
        <ele>3368.9</ele>
        <time>2022-09-11T20:43:37Z</time>
      </trkpt>
      <trkpt lat="-11.5812200" lon="-76.6722390">
        <ele>3369.0</ele>
        <time>2022-09-11T20:43:38Z</time>
      </trkpt>
      <trkpt lat="-11.5812180" lon="-76.6722150">
        <ele>3369.0</ele>
        <time>2022-09-11T20:43:40Z</time>
      </trkpt>
      <trkpt lat="-11.5812170" lon="-76.6722090">
        <ele>3369.0</ele>
        <time>2022-09-11T20:43:41Z</time>
      </trkpt>
      <trkpt lat="-11.5812160" lon="-76.6722020">
        <ele>3369.0</ele>
        <time>2022-09-11T20:43:42Z</time>
      </trkpt>
      <trkpt lat="-11.5812190" lon="-76.6721930">
        <ele>3369.0</ele>
        <time>2022-09-11T20:43:43Z</time>
      </trkpt>
      <trkpt lat="-11.5812240" lon="-76.6721770">
        <ele>3369.0</ele>
        <time>2022-09-11T20:43:45Z</time>
      </trkpt>
      <trkpt lat="-11.5812270" lon="-76.6721670">
        <ele>3369.0</ele>
        <time>2022-09-11T20:43:46Z</time>
      </trkpt>
      <trkpt lat="-11.5812260" lon="-76.6721550">
        <ele>3369.0</ele>
        <time>2022-09-11T20:43:47Z</time>
      </trkpt>
      <trkpt lat="-11.5812260" lon="-76.6721450">
        <ele>3369.0</ele>
        <time>2022-09-11T20:43:48Z</time>
      </trkpt>
      <trkpt lat="-11.5812260" lon="-76.6721350">
        <ele>3369.0</ele>
        <time>2022-09-11T20:43:49Z</time>
      </trkpt>
      <trkpt lat="-11.5812240" lon="-76.6721170">
        <ele>3369.0</ele>
        <time>2022-09-11T20:43:51Z</time>
      </trkpt>
      <trkpt lat="-11.5812230" lon="-76.6721080">
        <ele>3369.0</ele>
        <time>2022-09-11T20:43:52Z</time>
      </trkpt>
      <trkpt lat="-11.5812230" lon="-76.6721030">
        <ele>3369.0</ele>
        <time>2022-09-11T20:43:53Z</time>
      </trkpt>
      <trkpt lat="-11.5812190" lon="-76.6720800">
        <ele>3369.0</ele>
        <time>2022-09-11T20:43:54Z</time>
      </trkpt>
      <trkpt lat="-11.5812160" lon="-76.6720690">
        <ele>3369.0</ele>
        <time>2022-09-11T20:43:56Z</time>
      </trkpt>
      <trkpt lat="-11.5812130" lon="-76.6720570">
        <ele>3369.0</ele>
        <time>2022-09-11T20:43:58Z</time>
      </trkpt>
      <trkpt lat="-11.5812100" lon="-76.6720460">
        <ele>3369.1</ele>
        <time>2022-09-11T20:43:59Z</time>
      </trkpt>
      <trkpt lat="-11.5812070" lon="-76.6720340">
        <ele>3369.1</ele>
        <time>2022-09-11T20:44:00Z</time>
      </trkpt>
      <trkpt lat="-11.5812050" lon="-76.6720190">
        <ele>3369.1</ele>
        <time>2022-09-11T20:44:01Z</time>
      </trkpt>
      <trkpt lat="-11.5811950" lon="-76.6720050">
        <ele>3369.1</ele>
        <time>2022-09-11T20:44:02Z</time>
      </trkpt>
      <trkpt lat="-11.5811840" lon="-76.6719960">
        <ele>3369.1</ele>
        <time>2022-09-11T20:44:03Z</time>
      </trkpt>
      <trkpt lat="-11.5811770" lon="-76.6719820">
        <ele>3369.1</ele>
        <time>2022-09-11T20:44:04Z</time>
      </trkpt>
      <trkpt lat="-11.5811710" lon="-76.6719660">
        <ele>3369.1</ele>
        <time>2022-09-11T20:44:05Z</time>
      </trkpt>
      <trkpt lat="-11.5811670" lon="-76.6719540">
        <ele>3369.1</ele>
        <time>2022-09-11T20:44:06Z</time>
      </trkpt>
      <trkpt lat="-11.5811550" lon="-76.6719370">
        <ele>3369.1</ele>
        <time>2022-09-11T20:44:07Z</time>
      </trkpt>
      <trkpt lat="-11.5811500" lon="-76.6719300">
        <ele>3369.1</ele>
        <time>2022-09-11T20:44:08Z</time>
      </trkpt>
      <trkpt lat="-11.5811450" lon="-76.6719220">
        <ele>3369.1</ele>
        <time>2022-09-11T20:44:09Z</time>
      </trkpt>
      <trkpt lat="-11.5811360" lon="-76.6719110">
        <ele>3369.1</ele>
        <time>2022-09-11T20:44:10Z</time>
      </trkpt>
      <trkpt lat="-11.5811180" lon="-76.6718920">
        <ele>3369.1</ele>
        <time>2022-09-11T20:44:12Z</time>
      </trkpt>
      <trkpt lat="-11.5811040" lon="-76.6718780">
        <ele>3369.2</ele>
        <time>2022-09-11T20:44:13Z</time>
      </trkpt>
      <trkpt lat="-11.5810960" lon="-76.6718650">
        <ele>3369.2</ele>
        <time>2022-09-11T20:44:14Z</time>
      </trkpt>
      <trkpt lat="-11.5810870" lon="-76.6718450">
        <ele>3369.2</ele>
        <time>2022-09-11T20:44:15Z</time>
      </trkpt>
      <trkpt lat="-11.5810740" lon="-76.6718230">
        <ele>3369.2</ele>
        <time>2022-09-11T20:44:17Z</time>
      </trkpt>
      <trkpt lat="-11.5810570" lon="-76.6717950">
        <ele>3369.3</ele>
        <time>2022-09-11T20:44:18Z</time>
      </trkpt>
      <trkpt lat="-11.5810500" lon="-76.6717850">
        <ele>3369.3</ele>
        <time>2022-09-11T20:44:19Z</time>
      </trkpt>
      <trkpt lat="-11.5810270" lon="-76.6717490">
        <ele>3369.3</ele>
        <time>2022-09-11T20:44:21Z</time>
      </trkpt>
      <trkpt lat="-11.5810210" lon="-76.6717360">
        <ele>3369.4</ele>
        <time>2022-09-11T20:44:22Z</time>
      </trkpt>
      <trkpt lat="-11.5810140" lon="-76.6717240">
        <ele>3369.4</ele>
        <time>2022-09-11T20:44:23Z</time>
      </trkpt>
      <trkpt lat="-11.5810100" lon="-76.6717070">
        <ele>3369.4</ele>
        <time>2022-09-11T20:44:25Z</time>
      </trkpt>
      <trkpt lat="-11.5810060" lon="-76.6716950">
        <ele>3369.4</ele>
        <time>2022-09-11T20:44:26Z</time>
      </trkpt>
      <trkpt lat="-11.5810030" lon="-76.6716790">
        <ele>3369.4</ele>
        <time>2022-09-11T20:44:27Z</time>
      </trkpt>
      <trkpt lat="-11.5809960" lon="-76.6716630">
        <ele>3369.5</ele>
        <time>2022-09-11T20:44:28Z</time>
      </trkpt>
      <trkpt lat="-11.5809840" lon="-76.6716430">
        <ele>3369.5</ele>
        <time>2022-09-11T20:44:30Z</time>
      </trkpt>
      <trkpt lat="-11.5809790" lon="-76.6716320">
        <ele>3369.5</ele>
        <time>2022-09-11T20:44:31Z</time>
      </trkpt>
      <trkpt lat="-11.5809750" lon="-76.6716160">
        <ele>3369.5</ele>
        <time>2022-09-11T20:44:32Z</time>
      </trkpt>
      <trkpt lat="-11.5809690" lon="-76.6716010">
        <ele>3369.6</ele>
        <time>2022-09-11T20:44:33Z</time>
      </trkpt>
      <trkpt lat="-11.5809680" lon="-76.6715880">
        <ele>3369.6</ele>
        <time>2022-09-11T20:44:34Z</time>
      </trkpt>
      <trkpt lat="-11.5809640" lon="-76.6715730">
        <ele>3369.6</ele>
        <time>2022-09-11T20:44:35Z</time>
      </trkpt>
      <trkpt lat="-11.5809580" lon="-76.6715590">
        <ele>3369.6</ele>
        <time>2022-09-11T20:44:36Z</time>
      </trkpt>
      <trkpt lat="-11.5809530" lon="-76.6715390">
        <ele>3369.7</ele>
        <time>2022-09-11T20:44:38Z</time>
      </trkpt>
      <trkpt lat="-11.5809460" lon="-76.6715250">
        <ele>3369.7</ele>
        <time>2022-09-11T20:44:39Z</time>
      </trkpt>
      <trkpt lat="-11.5809430" lon="-76.6715110">
        <ele>3369.7</ele>
        <time>2022-09-11T20:44:40Z</time>
      </trkpt>
      <trkpt lat="-11.5809410" lon="-76.6714970">
        <ele>3369.7</ele>
        <time>2022-09-11T20:44:42Z</time>
      </trkpt>
      <trkpt lat="-11.5809400" lon="-76.6714780">
        <ele>3369.8</ele>
        <time>2022-09-11T20:44:43Z</time>
      </trkpt>
      <trkpt lat="-11.5809380" lon="-76.6714620">
        <ele>3369.8</ele>
        <time>2022-09-11T20:44:44Z</time>
      </trkpt>
      <trkpt lat="-11.5809320" lon="-76.6714500">
        <ele>3369.8</ele>
        <time>2022-09-11T20:44:45Z</time>
      </trkpt>
      <trkpt lat="-11.5809260" lon="-76.6714370">
        <ele>3369.8</ele>
        <time>2022-09-11T20:44:47Z</time>
      </trkpt>
      <trkpt lat="-11.5809250" lon="-76.6714180">
        <ele>3369.9</ele>
        <time>2022-09-11T20:44:48Z</time>
      </trkpt>
      <trkpt lat="-11.5809240" lon="-76.6714090">
        <ele>3369.9</ele>
        <time>2022-09-11T20:44:49Z</time>
      </trkpt>
      <trkpt lat="-11.5809230" lon="-76.6714030">
        <ele>3369.9</ele>
        <time>2022-09-11T20:44:50Z</time>
      </trkpt>
      <trkpt lat="-11.5809220" lon="-76.6713940">
        <ele>3369.9</ele>
        <time>2022-09-11T20:44:51Z</time>
      </trkpt>
      <trkpt lat="-11.5809210" lon="-76.6713840">
        <ele>3369.9</ele>
        <time>2022-09-11T20:44:52Z</time>
      </trkpt>
      <trkpt lat="-11.5809180" lon="-76.6713750">
        <ele>3370.0</ele>
        <time>2022-09-11T20:44:53Z</time>
      </trkpt>
      <trkpt lat="-11.5809180" lon="-76.6713670">
        <ele>3370.0</ele>
        <time>2022-09-11T20:44:54Z</time>
      </trkpt>
      <trkpt lat="-11.5809170" lon="-76.6713610">
        <ele>3370.0</ele>
        <time>2022-09-11T20:44:55Z</time>
      </trkpt>
      <trkpt lat="-11.5809160" lon="-76.6713540">
        <ele>3370.0</ele>
        <time>2022-09-11T20:44:56Z</time>
      </trkpt>
      <trkpt lat="-11.5809180" lon="-76.6713370">
        <ele>3370.2</ele>
        <time>2022-09-11T20:44:58Z</time>
      </trkpt>
      <trkpt lat="-11.5809200" lon="-76.6713210">
        <ele>3370.3</ele>
        <time>2022-09-11T20:45:00Z</time>
      </trkpt>
      <trkpt lat="-11.5809210" lon="-76.6713110">
        <ele>3370.3</ele>
        <time>2022-09-11T20:45:01Z</time>
      </trkpt>
      <trkpt lat="-11.5809200" lon="-76.6713030">
        <ele>3370.4</ele>
        <time>2022-09-11T20:45:02Z</time>
      </trkpt>
      <trkpt lat="-11.5809190" lon="-76.6712940">
        <ele>3370.4</ele>
        <time>2022-09-11T20:45:04Z</time>
      </trkpt>
      <trkpt lat="-11.5809180" lon="-76.6712930">
        <ele>3370.4</ele>
        <time>2022-09-11T20:45:05Z</time>
      </trkpt>
      <trkpt lat="-11.5809160" lon="-76.6712920">
        <ele>3370.5</ele>
        <time>2022-09-11T20:45:06Z</time>
      </trkpt>
      <trkpt lat="-11.5809150" lon="-76.6712930">
        <ele>3370.5</ele>
        <time>2022-09-11T20:45:07Z</time>
      </trkpt>
      <trkpt lat="-11.5809150" lon="-76.6712940">
        <ele>3370.5</ele>
        <time>2022-09-11T20:45:08Z</time>
      </trkpt>
      <trkpt lat="-11.5809150" lon="-76.6712940">
        <ele>3370.5</ele>
        <time>2022-09-11T20:45:09Z</time>
      </trkpt>
      <trkpt lat="-11.5809140" lon="-76.6712940">
        <ele>3370.5</ele>
        <time>2022-09-11T20:45:10Z</time>
      </trkpt>
      <trkpt lat="-11.5809130" lon="-76.6712930">
        <ele>3370.5</ele>
        <time>2022-09-11T20:45:11Z</time>
      </trkpt>
      <trkpt lat="-11.5809120" lon="-76.6712930">
        <ele>3370.5</ele>
        <time>2022-09-11T20:45:12Z</time>
      </trkpt>
      <trkpt lat="-11.5809110" lon="-76.6712910">
        <ele>3370.5</ele>
        <time>2022-09-11T20:45:13Z</time>
      </trkpt>
      <trkpt lat="-11.5809110" lon="-76.6712890">
        <ele>3370.5</ele>
        <time>2022-09-11T20:45:14Z</time>
      </trkpt>
      <trkpt lat="-11.5809110" lon="-76.6712870">
        <ele>3370.5</ele>
        <time>2022-09-11T20:45:15Z</time>
      </trkpt>
      <trkpt lat="-11.5809190" lon="-76.6712460">
        <ele>3370.8</ele>
        <time>2022-09-11T20:49:59Z</time>
      </trkpt>
      <trkpt lat="-11.5809200" lon="-76.6712390">
        <ele>3370.8</ele>
        <time>2022-09-11T20:50:00Z</time>
      </trkpt>
      <trkpt lat="-11.5809220" lon="-76.6712320">
        <ele>3370.9</ele>
        <time>2022-09-11T20:50:01Z</time>
      </trkpt>
      <trkpt lat="-11.5809250" lon="-76.6712220">
        <ele>3371.0</ele>
        <time>2022-09-11T20:50:03Z</time>
      </trkpt>
      <trkpt lat="-11.5809270" lon="-76.6712150">
        <ele>3371.0</ele>
        <time>2022-09-11T20:50:04Z</time>
      </trkpt>
      <trkpt lat="-11.5809300" lon="-76.6712030">
        <ele>3371.1</ele>
        <time>2022-09-11T20:50:05Z</time>
      </trkpt>
      <trkpt lat="-11.5809300" lon="-76.6711890">
        <ele>3371.2</ele>
        <time>2022-09-11T20:50:07Z</time>
      </trkpt>
      <trkpt lat="-11.5809280" lon="-76.6711870">
        <ele>3371.2</ele>
        <time>2022-09-11T20:50:08Z</time>
      </trkpt>
      <trkpt lat="-11.5809280" lon="-76.6711820">
        <ele>3371.2</ele>
        <time>2022-09-11T20:50:09Z</time>
      </trkpt>
      <trkpt lat="-11.5809280" lon="-76.6711800">
        <ele>3371.2</ele>
        <time>2022-09-11T20:50:10Z</time>
      </trkpt>
      <trkpt lat="-11.5809280" lon="-76.6711810">
        <ele>3371.2</ele>
        <time>2022-09-11T20:50:11Z</time>
      </trkpt>
      <trkpt lat="-11.5809290" lon="-76.6711810">
        <ele>3371.3</ele>
        <time>2022-09-11T20:50:12Z</time>
      </trkpt>
      <trkpt lat="-11.5809300" lon="-76.6711810">
        <ele>3371.3</ele>
        <time>2022-09-11T20:50:13Z</time>
      </trkpt>
      <trkpt lat="-11.5809320" lon="-76.6711800">
        <ele>3371.3</ele>
        <time>2022-09-11T20:50:14Z</time>
      </trkpt>
      <trkpt lat="-11.5809350" lon="-76.6711770">
        <ele>3371.3</ele>
        <time>2022-09-11T20:50:15Z</time>
      </trkpt>
      <trkpt lat="-11.5809400" lon="-76.6711720">
        <ele>3371.3</ele>
        <time>2022-09-11T20:50:16Z</time>
      </trkpt>
      <trkpt lat="-11.5809460" lon="-76.6711660">
        <ele>3371.4</ele>
        <time>2022-09-11T20:50:17Z</time>
      </trkpt>
      <trkpt lat="-11.5809530" lon="-76.6711600">
        <ele>3371.5</ele>
        <time>2022-09-11T20:50:18Z</time>
      </trkpt>
      <trkpt lat="-11.5809580" lon="-76.6711540">
        <ele>3371.5</ele>
        <time>2022-09-11T20:50:19Z</time>
      </trkpt>
      <trkpt lat="-11.5809630" lon="-76.6711480">
        <ele>3371.6</ele>
        <time>2022-09-11T20:50:20Z</time>
      </trkpt>
      <trkpt lat="-11.5809670" lon="-76.6711410">
        <ele>3371.6</ele>
        <time>2022-09-11T20:50:21Z</time>
      </trkpt>
      <trkpt lat="-11.5809720" lon="-76.6711350">
        <ele>3371.7</ele>
        <time>2022-09-11T20:50:22Z</time>
      </trkpt>
      <trkpt lat="-11.5809790" lon="-76.6711260">
        <ele>3371.7</ele>
        <time>2022-09-11T20:50:23Z</time>
      </trkpt>
      <trkpt lat="-11.5809830" lon="-76.6711210">
        <ele>3371.8</ele>
        <time>2022-09-11T20:50:24Z</time>
      </trkpt>
      <trkpt lat="-11.5809880" lon="-76.6711130">
        <ele>3371.8</ele>
        <time>2022-09-11T20:50:25Z</time>
      </trkpt>
      <trkpt lat="-11.5809890" lon="-76.6711030">
        <ele>3371.9</ele>
        <time>2022-09-11T20:50:26Z</time>
      </trkpt>
      <trkpt lat="-11.5809890" lon="-76.6710890">
        <ele>3372.0</ele>
        <time>2022-09-11T20:50:27Z</time>
      </trkpt>
      <trkpt lat="-11.5809930" lon="-76.6710690">
        <ele>3372.1</ele>
        <time>2022-09-11T20:50:29Z</time>
      </trkpt>
      <trkpt lat="-11.5809940" lon="-76.6710570">
        <ele>3372.2</ele>
        <time>2022-09-11T20:50:30Z</time>
      </trkpt>
      <trkpt lat="-11.5809930" lon="-76.6710480">
        <ele>3372.3</ele>
        <time>2022-09-11T20:50:31Z</time>
      </trkpt>
      <trkpt lat="-11.5809870" lon="-76.6710570">
        <ele>3372.3</ele>
        <time>2022-09-11T20:50:32Z</time>
      </trkpt>
      <trkpt lat="-11.5809860" lon="-76.6710590">
        <ele>3372.3</ele>
        <time>2022-09-11T20:50:33Z</time>
      </trkpt>
      <trkpt lat="-11.5809860" lon="-76.6710610">
        <ele>3372.4</ele>
        <time>2022-09-11T20:50:34Z</time>
      </trkpt>
      <trkpt lat="-11.5809860" lon="-76.6710620">
        <ele>3372.4</ele>
        <time>2022-09-11T20:50:35Z</time>
      </trkpt>
      <trkpt lat="-11.5809860" lon="-76.6710620">
        <ele>3372.4</ele>
        <time>2022-09-11T20:50:36Z</time>
      </trkpt>
      <trkpt lat="-11.5809860" lon="-76.6710620">
        <ele>3372.4</ele>
        <time>2022-09-11T20:50:37Z</time>
      </trkpt>
      <trkpt lat="-11.5809860" lon="-76.6710620">
        <ele>3372.4</ele>
        <time>2022-09-11T20:50:38Z</time>
      </trkpt>
      <trkpt lat="-11.5809870" lon="-76.6710630">
        <ele>3372.4</ele>
        <time>2022-09-11T20:50:39Z</time>
      </trkpt>
      <trkpt lat="-11.5809870" lon="-76.6710620">
        <ele>3372.4</ele>
        <time>2022-09-11T20:50:40Z</time>
      </trkpt>
      <trkpt lat="-11.5809990" lon="-76.6710360">
        <ele>3372.6</ele>
        <time>2022-09-11T20:50:46Z</time>
      </trkpt>
      <trkpt lat="-11.5810070" lon="-76.6710040">
        <ele>3372.8</ele>
        <time>2022-09-11T20:50:47Z</time>
      </trkpt>
      <trkpt lat="-11.5810180" lon="-76.6709700">
        <ele>3373.0</ele>
        <time>2022-09-11T20:50:48Z</time>
      </trkpt>
      <trkpt lat="-11.5810060" lon="-76.6709410">
        <ele>3373.2</ele>
        <time>2022-09-11T20:50:49Z</time>
      </trkpt>
      <trkpt lat="-11.5809860" lon="-76.6709070">
        <ele>3373.5</ele>
        <time>2022-09-11T20:50:51Z</time>
      </trkpt>
      <trkpt lat="-11.5809800" lon="-76.6708730">
        <ele>3373.7</ele>
        <time>2022-09-11T20:50:52Z</time>
      </trkpt>
      <trkpt lat="-11.5809680" lon="-76.6708610">
        <ele>3373.8</ele>
        <time>2022-09-11T20:50:53Z</time>
      </trkpt>
      <trkpt lat="-11.5809620" lon="-76.6708230">
        <ele>3374.0</ele>
        <time>2022-09-11T20:50:54Z</time>
      </trkpt>
      <trkpt lat="-11.5809400" lon="-76.6707900">
        <ele>3374.3</ele>
        <time>2022-09-11T20:50:55Z</time>
      </trkpt>
      <trkpt lat="-11.5809110" lon="-76.6707600">
        <ele>3374.6</ele>
        <time>2022-09-11T20:50:56Z</time>
      </trkpt>
      <trkpt lat="-11.5808930" lon="-76.6707290">
        <ele>3374.8</ele>
        <time>2022-09-11T20:50:57Z</time>
      </trkpt>
      <trkpt lat="-11.5808840" lon="-76.6706850">
        <ele>3375.1</ele>
        <time>2022-09-11T20:50:58Z</time>
      </trkpt>
      <trkpt lat="-11.5808480" lon="-76.6706230">
        <ele>3375.5</ele>
        <time>2022-09-11T20:51:00Z</time>
      </trkpt>
      <trkpt lat="-11.5807950" lon="-76.6705650">
        <ele>3376.0</ele>
        <time>2022-09-11T20:51:01Z</time>
      </trkpt>
      <trkpt lat="-11.5807540" lon="-76.6705260">
        <ele>3376.4</ele>
        <time>2022-09-11T20:51:02Z</time>
      </trkpt>
      <trkpt lat="-11.5806330" lon="-76.6705190">
        <ele>3377.2</ele>
        <time>2022-09-11T20:51:03Z</time>
      </trkpt>
      <trkpt lat="-11.5805540" lon="-76.6705160">
        <ele>3377.7</ele>
        <time>2022-09-11T20:51:04Z</time>
      </trkpt>
      <trkpt lat="-11.5804860" lon="-76.6705000">
        <ele>3378.2</ele>
        <time>2022-09-11T20:51:06Z</time>
      </trkpt>
      <trkpt lat="-11.5804400" lon="-76.6704870">
        <ele>3378.5</ele>
        <time>2022-09-11T20:51:07Z</time>
      </trkpt>
      <trkpt lat="-11.5804070" lon="-76.6704770">
        <ele>3378.7</ele>
        <time>2022-09-11T20:51:08Z</time>
      </trkpt>
      <trkpt lat="-11.5803830" lon="-76.6704550">
        <ele>3378.9</ele>
        <time>2022-09-11T20:51:09Z</time>
      </trkpt>
      <trkpt lat="-11.5803600" lon="-76.6704290">
        <ele>3379.1</ele>
        <time>2022-09-11T20:51:10Z</time>
      </trkpt>
      <trkpt lat="-11.5803520" lon="-76.6704200">
        <ele>3379.2</ele>
        <time>2022-09-11T20:51:11Z</time>
      </trkpt>
      <trkpt lat="-11.5803360" lon="-76.6703720">
        <ele>3379.5</ele>
        <time>2022-09-11T20:51:13Z</time>
      </trkpt>
      <trkpt lat="-11.5803360" lon="-76.6703530">
        <ele>3379.7</ele>
        <time>2022-09-11T20:51:14Z</time>
      </trkpt>
      <trkpt lat="-11.5803350" lon="-76.6703340">
        <ele>3379.8</ele>
        <time>2022-09-11T20:51:15Z</time>
      </trkpt>
      <trkpt lat="-11.5803590" lon="-76.6702930">
        <ele>3380.1</ele>
        <time>2022-09-11T20:51:17Z</time>
      </trkpt>
      <trkpt lat="-11.5803890" lon="-76.6702550">
        <ele>3380.4</ele>
        <time>2022-09-11T20:51:19Z</time>
      </trkpt>
      <trkpt lat="-11.5803990" lon="-76.6702430">
        <ele>3380.5</ele>
        <time>2022-09-11T20:51:20Z</time>
      </trkpt>
      <trkpt lat="-11.5804090" lon="-76.6702300">
        <ele>3380.6</ele>
        <time>2022-09-11T20:51:21Z</time>
      </trkpt>
      <trkpt lat="-11.5804210" lon="-76.6702010">
        <ele>3380.8</ele>
        <time>2022-09-11T20:51:22Z</time>
      </trkpt>
      <trkpt lat="-11.5804340" lon="-76.6701580">
        <ele>3381.1</ele>
        <time>2022-09-11T20:51:24Z</time>
      </trkpt>
      <trkpt lat="-11.5804400" lon="-76.6701450">
        <ele>3381.2</ele>
        <time>2022-09-11T20:51:25Z</time>
      </trkpt>
      <trkpt lat="-11.5804450" lon="-76.6701310">
        <ele>3381.3</ele>
        <time>2022-09-11T20:51:26Z</time>
      </trkpt>
      <trkpt lat="-11.5804390" lon="-76.6700900">
        <ele>3381.6</ele>
        <time>2022-09-11T20:51:28Z</time>
      </trkpt>
      <trkpt lat="-11.5804380" lon="-76.6700740">
        <ele>3381.7</ele>
        <time>2022-09-11T20:51:29Z</time>
      </trkpt>
      <trkpt lat="-11.5804330" lon="-76.6700420">
        <ele>3381.9</ele>
        <time>2022-09-11T20:51:30Z</time>
      </trkpt>
      <trkpt lat="-11.5804250" lon="-76.6699930">
        <ele>3382.2</ele>
        <time>2022-09-11T20:51:32Z</time>
      </trkpt>
      <trkpt lat="-11.5804240" lon="-76.6699760">
        <ele>3382.3</ele>
        <time>2022-09-11T20:51:33Z</time>
      </trkpt>
      <trkpt lat="-11.5804220" lon="-76.6699580">
        <ele>3382.4</ele>
        <time>2022-09-11T20:51:34Z</time>
      </trkpt>
      <trkpt lat="-11.5804150" lon="-76.6699210">
        <ele>3382.6</ele>
        <time>2022-09-11T20:51:35Z</time>
      </trkpt>
      <trkpt lat="-11.5804120" lon="-76.6699080">
        <ele>3382.7</ele>
        <time>2022-09-11T20:51:36Z</time>
      </trkpt>
      <trkpt lat="-11.5804050" lon="-76.6698790">
        <ele>3382.9</ele>
        <time>2022-09-11T20:51:37Z</time>
      </trkpt>
      <trkpt lat="-11.5804020" lon="-76.6698690">
        <ele>3383.0</ele>
        <time>2022-09-11T20:51:38Z</time>
      </trkpt>
      <trkpt lat="-11.5803990" lon="-76.6698510">
        <ele>3383.1</ele>
        <time>2022-09-11T20:51:39Z</time>
      </trkpt>
      <trkpt lat="-11.5803910" lon="-76.6698270">
        <ele>3383.3</ele>
        <time>2022-09-11T20:51:41Z</time>
      </trkpt>
      <trkpt lat="-11.5803870" lon="-76.6698100">
        <ele>3383.4</ele>
        <time>2022-09-11T20:51:42Z</time>
      </trkpt>
      <trkpt lat="-11.5803850" lon="-76.6697910">
        <ele>3383.5</ele>
        <time>2022-09-11T20:51:43Z</time>
      </trkpt>
      <trkpt lat="-11.5803820" lon="-76.6697730">
        <ele>3383.6</ele>
        <time>2022-09-11T20:51:44Z</time>
      </trkpt>
      <trkpt lat="-11.5803770" lon="-76.6697490">
        <ele>3383.8</ele>
        <time>2022-09-11T20:51:46Z</time>
      </trkpt>
      <trkpt lat="-11.5803700" lon="-76.6697220">
        <ele>3384.0</ele>
        <time>2022-09-11T20:51:47Z</time>
      </trkpt>
      <trkpt lat="-11.5803510" lon="-76.6696640">
        <ele>3384.3</ele>
        <time>2022-09-11T20:51:48Z</time>
      </trkpt>
      <trkpt lat="-11.5803490" lon="-76.6696570">
        <ele>3384.4</ele>
        <time>2022-09-11T20:51:49Z</time>
      </trkpt>
      <trkpt lat="-11.5803460" lon="-76.6696490">
        <ele>3384.4</ele>
        <time>2022-09-11T20:51:50Z</time>
      </trkpt>
      <trkpt lat="-11.5803400" lon="-76.6696280">
        <ele>3384.6</ele>
        <time>2022-09-11T20:51:52Z</time>
      </trkpt>
      <trkpt lat="-11.5803380" lon="-76.6696130">
        <ele>3384.7</ele>
        <time>2022-09-11T20:51:53Z</time>
      </trkpt>
      <trkpt lat="-11.5803360" lon="-76.6696000">
        <ele>3384.8</ele>
        <time>2022-09-11T20:51:54Z</time>
      </trkpt>
      <trkpt lat="-11.5803340" lon="-76.6695850">
        <ele>3384.9</ele>
        <time>2022-09-11T20:51:55Z</time>
      </trkpt>
      <trkpt lat="-11.5803260" lon="-76.6695480">
        <ele>3385.1</ele>
        <time>2022-09-11T20:51:57Z</time>
      </trkpt>
      <trkpt lat="-11.5803150" lon="-76.6695190">
        <ele>3385.3</ele>
        <time>2022-09-11T20:51:58Z</time>
      </trkpt>
      <trkpt lat="-11.5803130" lon="-76.6695100">
        <ele>3385.4</ele>
        <time>2022-09-11T20:51:59Z</time>
      </trkpt>
      <trkpt lat="-11.5802950" lon="-76.6694620">
        <ele>3385.7</ele>
        <time>2022-09-11T20:52:00Z</time>
      </trkpt>
      <trkpt lat="-11.5802830" lon="-76.6694390">
        <ele>3385.9</ele>
        <time>2022-09-11T20:52:01Z</time>
      </trkpt>
      <trkpt lat="-11.5802660" lon="-76.6694080">
        <ele>3386.1</ele>
        <time>2022-09-11T20:52:02Z</time>
      </trkpt>
      <trkpt lat="-11.5802600" lon="-76.6693920">
        <ele>3386.2</ele>
        <time>2022-09-11T20:52:03Z</time>
      </trkpt>
      <trkpt lat="-11.5802630" lon="-76.6693890">
        <ele>3386.2</ele>
        <time>2022-09-11T20:52:05Z</time>
      </trkpt>
      <trkpt lat="-11.5802560" lon="-76.6693810">
        <ele>3386.3</ele>
        <time>2022-09-11T20:52:06Z</time>
      </trkpt>
      <trkpt lat="-11.5802370" lon="-76.6693510">
        <ele>3386.5</ele>
        <time>2022-09-11T20:52:07Z</time>
      </trkpt>
      <trkpt lat="-11.5802280" lon="-76.6693380">
        <ele>3386.6</ele>
        <time>2022-09-11T20:52:08Z</time>
      </trkpt>
      <trkpt lat="-11.5802080" lon="-76.6693160">
        <ele>3386.8</ele>
        <time>2022-09-11T20:52:09Z</time>
      </trkpt>
      <trkpt lat="-11.5801860" lon="-76.6692890">
        <ele>3387.0</ele>
        <time>2022-09-11T20:52:11Z</time>
      </trkpt>
      <trkpt lat="-11.5801560" lon="-76.6692570">
        <ele>3387.3</ele>
        <time>2022-09-11T20:52:12Z</time>
      </trkpt>
      <trkpt lat="-11.5801440" lon="-76.6692260">
        <ele>3387.5</ele>
        <time>2022-09-11T20:52:13Z</time>
      </trkpt>
      <trkpt lat="-11.5801220" lon="-76.6691960">
        <ele>3387.8</ele>
        <time>2022-09-11T20:52:14Z</time>
      </trkpt>
      <trkpt lat="-11.5800980" lon="-76.6691690">
        <ele>3388.0</ele>
        <time>2022-09-11T20:52:16Z</time>
      </trkpt>
      <trkpt lat="-11.5800750" lon="-76.6691440">
        <ele>3388.2</ele>
        <time>2022-09-11T20:52:17Z</time>
      </trkpt>
      <trkpt lat="-11.5800530" lon="-76.6691130">
        <ele>3388.5</ele>
        <time>2022-09-11T20:52:18Z</time>
      </trkpt>
      <trkpt lat="-11.5800370" lon="-76.6690870">
        <ele>3388.7</ele>
        <time>2022-09-11T20:52:19Z</time>
      </trkpt>
      <trkpt lat="-11.5800140" lon="-76.6690580">
        <ele>3388.9</ele>
        <time>2022-09-11T20:52:20Z</time>
      </trkpt>
      <trkpt lat="-11.5799810" lon="-76.6690220">
        <ele>3389.2</ele>
        <time>2022-09-11T20:52:21Z</time>
      </trkpt>
      <trkpt lat="-11.5799510" lon="-76.6689880">
        <ele>3389.5</ele>
        <time>2022-09-11T20:52:22Z</time>
      </trkpt>
      <trkpt lat="-11.5799200" lon="-76.6689600">
        <ele>3389.8</ele>
        <time>2022-09-11T20:52:23Z</time>
      </trkpt>
      <trkpt lat="-11.5798780" lon="-76.6689260">
        <ele>3390.1</ele>
        <time>2022-09-11T20:52:24Z</time>
      </trkpt>
      <trkpt lat="-11.5798490" lon="-76.6688990">
        <ele>3390.4</ele>
        <time>2022-09-11T20:52:25Z</time>
      </trkpt>
      <trkpt lat="-11.5798240" lon="-76.6688700">
        <ele>3390.6</ele>
        <time>2022-09-11T20:52:26Z</time>
      </trkpt>
      <trkpt lat="-11.5798020" lon="-76.6688450">
        <ele>3390.9</ele>
        <time>2022-09-11T20:52:27Z</time>
      </trkpt>
      <trkpt lat="-11.5797760" lon="-76.6688180">
        <ele>3391.1</ele>
        <time>2022-09-11T20:52:28Z</time>
      </trkpt>
      <trkpt lat="-11.5797420" lon="-76.6687940">
        <ele>3391.4</ele>
        <time>2022-09-11T20:52:29Z</time>
      </trkpt>
      <trkpt lat="-11.5797090" lon="-76.6687780">
        <ele>3391.6</ele>
        <time>2022-09-11T20:52:30Z</time>
      </trkpt>
      <trkpt lat="-11.5796710" lon="-76.6687670">
        <ele>3391.9</ele>
        <time>2022-09-11T20:52:31Z</time>
      </trkpt>
      <trkpt lat="-11.5796280" lon="-76.6687530">
        <ele>3392.2</ele>
        <time>2022-09-11T20:52:32Z</time>
      </trkpt>
      <trkpt lat="-11.5795860" lon="-76.6687410">
        <ele>3392.4</ele>
        <time>2022-09-11T20:52:34Z</time>
      </trkpt>
      <trkpt lat="-11.5795400" lon="-76.6687350">
        <ele>3392.7</ele>
        <time>2022-09-11T20:52:35Z</time>
      </trkpt>
      <trkpt lat="-11.5795070" lon="-76.6687300">
        <ele>3393.0</ele>
        <time>2022-09-11T20:52:36Z</time>
      </trkpt>
      <trkpt lat="-11.5794700" lon="-76.6687150">
        <ele>3393.2</ele>
        <time>2022-09-11T20:52:37Z</time>
      </trkpt>
      <trkpt lat="-11.5794440" lon="-76.6687030">
        <ele>3393.4</ele>
        <time>2022-09-11T20:52:38Z</time>
      </trkpt>
      <trkpt lat="-11.5794180" lon="-76.6686850">
        <ele>3393.6</ele>
        <time>2022-09-11T20:52:40Z</time>
      </trkpt>
      <trkpt lat="-11.5793770" lon="-76.6686660">
        <ele>3393.9</ele>
        <time>2022-09-11T20:52:41Z</time>
      </trkpt>
      <trkpt lat="-11.5793330" lon="-76.6686470">
        <ele>3394.2</ele>
        <time>2022-09-11T20:52:42Z</time>
      </trkpt>
      <trkpt lat="-11.5793030" lon="-76.6686290">
        <ele>3394.4</ele>
        <time>2022-09-11T20:52:43Z</time>
      </trkpt>
      <trkpt lat="-11.5792760" lon="-76.6686130">
        <ele>3394.6</ele>
        <time>2022-09-11T20:52:44Z</time>
      </trkpt>
      <trkpt lat="-11.5792330" lon="-76.6685930">
        <ele>3395.0</ele>
        <time>2022-09-11T20:52:46Z</time>
      </trkpt>
      <trkpt lat="-11.5791960" lon="-76.6685750">
        <ele>3395.2</ele>
        <time>2022-09-11T20:52:47Z</time>
      </trkpt>
      <trkpt lat="-11.5791660" lon="-76.6685600">
        <ele>3395.4</ele>
        <time>2022-09-11T20:52:48Z</time>
      </trkpt>
      <trkpt lat="-11.5791340" lon="-76.6685440">
        <ele>3395.7</ele>
        <time>2022-09-11T20:52:49Z</time>
      </trkpt>
      <trkpt lat="-11.5790960" lon="-76.6685300">
        <ele>3395.9</ele>
        <time>2022-09-11T20:52:50Z</time>
      </trkpt>
      <trkpt lat="-11.5790800" lon="-76.6685240">
        <ele>3396.0</ele>
        <time>2022-09-11T20:52:51Z</time>
      </trkpt>
      <trkpt lat="-11.5790430" lon="-76.6685110">
        <ele>3396.3</ele>
        <time>2022-09-11T20:52:52Z</time>
      </trkpt>
      <trkpt lat="-11.5790160" lon="-76.6685030">
        <ele>3396.5</ele>
        <time>2022-09-11T20:52:53Z</time>
      </trkpt>
      <trkpt lat="-11.5789880" lon="-76.6684920">
        <ele>3396.7</ele>
        <time>2022-09-11T20:52:54Z</time>
      </trkpt>
      <trkpt lat="-11.5789600" lon="-76.6684790">
        <ele>3397.0</ele>
        <time>2022-09-11T20:52:55Z</time>
      </trkpt>
      <trkpt lat="-11.5789380" lon="-76.6684650">
        <ele>3397.1</ele>
        <time>2022-09-11T20:52:56Z</time>
      </trkpt>
      <trkpt lat="-11.5789010" lon="-76.6684500">
        <ele>3397.3</ele>
        <time>2022-09-11T20:52:58Z</time>
      </trkpt>
      <trkpt lat="-11.5788550" lon="-76.6684290">
        <ele>3397.5</ele>
        <time>2022-09-11T20:52:59Z</time>
      </trkpt>
      <trkpt lat="-11.5788230" lon="-76.6684040">
        <ele>3397.6</ele>
        <time>2022-09-11T20:53:00Z</time>
      </trkpt>
      <trkpt lat="-11.5788110" lon="-76.6683950">
        <ele>3397.6</ele>
        <time>2022-09-11T20:53:01Z</time>
      </trkpt>
      <trkpt lat="-11.5787880" lon="-76.6683810">
        <ele>3397.7</ele>
        <time>2022-09-11T20:53:02Z</time>
      </trkpt>
      <trkpt lat="-11.5787530" lon="-76.6683720">
        <ele>3397.8</ele>
        <time>2022-09-11T20:53:03Z</time>
      </trkpt>
      <trkpt lat="-11.5787410" lon="-76.6683710">
        <ele>3397.8</ele>
        <time>2022-09-11T20:53:04Z</time>
      </trkpt>
      <trkpt lat="-11.5787120" lon="-76.6683710">
        <ele>3397.8</ele>
        <time>2022-09-11T20:53:05Z</time>
      </trkpt>
      <trkpt lat="-11.5786830" lon="-76.6683690">
        <ele>3397.8</ele>
        <time>2022-09-11T20:53:06Z</time>
      </trkpt>
      <trkpt lat="-11.5786290" lon="-76.6683520">
        <ele>3397.9</ele>
        <time>2022-09-11T20:53:08Z</time>
      </trkpt>
      <trkpt lat="-11.5785850" lon="-76.6683340">
        <ele>3397.9</ele>
        <time>2022-09-11T20:53:09Z</time>
      </trkpt>
      <trkpt lat="-11.5785600" lon="-76.6683100">
        <ele>3397.9</ele>
        <time>2022-09-11T20:53:10Z</time>
      </trkpt>
      <trkpt lat="-11.5785370" lon="-76.6682930">
        <ele>3397.9</ele>
        <time>2022-09-11T20:53:11Z</time>
      </trkpt>
      <trkpt lat="-11.5785050" lon="-76.6682770">
        <ele>3398.0</ele>
        <time>2022-09-11T20:53:12Z</time>
      </trkpt>
      <trkpt lat="-11.5784740" lon="-76.6682570">
        <ele>3398.1</ele>
        <time>2022-09-11T20:53:13Z</time>
      </trkpt>
      <trkpt lat="-11.5784380" lon="-76.6682330">
        <ele>3398.2</ele>
        <time>2022-09-11T20:53:14Z</time>
      </trkpt>
      <trkpt lat="-11.5783950" lon="-76.6682090">
        <ele>3398.3</ele>
        <time>2022-09-11T20:53:15Z</time>
      </trkpt>
      <trkpt lat="-11.5783510" lon="-76.6681940">
        <ele>3398.4</ele>
        <time>2022-09-11T20:53:16Z</time>
      </trkpt>
      <trkpt lat="-11.5783020" lon="-76.6681820">
        <ele>3398.5</ele>
        <time>2022-09-11T20:53:18Z</time>
      </trkpt>
      <trkpt lat="-11.5782490" lon="-76.6681640">
        <ele>3398.6</ele>
        <time>2022-09-11T20:53:19Z</time>
      </trkpt>
      <trkpt lat="-11.5781930" lon="-76.6681580">
        <ele>3398.8</ele>
        <time>2022-09-11T20:53:20Z</time>
      </trkpt>
      <trkpt lat="-11.5781410" lon="-76.6681690">
        <ele>3398.8</ele>
        <time>2022-09-11T20:53:22Z</time>
      </trkpt>
      <trkpt lat="-11.5780950" lon="-76.6681730">
        <ele>3398.8</ele>
        <time>2022-09-11T20:53:23Z</time>
      </trkpt>
      <trkpt lat="-11.5780450" lon="-76.6681740">
        <ele>3398.8</ele>
        <time>2022-09-11T20:53:24Z</time>
      </trkpt>
      <trkpt lat="-11.5779980" lon="-76.6681710">
        <ele>3398.8</ele>
        <time>2022-09-11T20:53:25Z</time>
      </trkpt>
      <trkpt lat="-11.5779220" lon="-76.6681550">
        <ele>3398.9</ele>
        <time>2022-09-11T20:53:26Z</time>
      </trkpt>
      <trkpt lat="-11.5778600" lon="-76.6681360">
        <ele>3399.0</ele>
        <time>2022-09-11T20:53:27Z</time>
      </trkpt>
      <trkpt lat="-11.5778000" lon="-76.6681370">
        <ele>3399.2</ele>
        <time>2022-09-11T20:53:28Z</time>
      </trkpt>
      <trkpt lat="-11.5777470" lon="-76.6681410">
        <ele>3399.3</ele>
        <time>2022-09-11T20:53:29Z</time>
      </trkpt>
      <trkpt lat="-11.5777030" lon="-76.6681350">
        <ele>3399.4</ele>
        <time>2022-09-11T20:53:30Z</time>
      </trkpt>
      <trkpt lat="-11.5776690" lon="-76.6681070">
        <ele>3399.5</ele>
        <time>2022-09-11T20:53:31Z</time>
      </trkpt>
      <trkpt lat="-11.5776540" lon="-76.6680970">
        <ele>3399.5</ele>
        <time>2022-09-11T20:53:32Z</time>
      </trkpt>
      <trkpt lat="-11.5776360" lon="-76.6680000">
        <ele>3399.8</ele>
        <time>2022-09-11T20:53:34Z</time>
      </trkpt>
      <trkpt lat="-11.5776310" lon="-76.6679510">
        <ele>3399.9</ele>
        <time>2022-09-11T20:53:35Z</time>
      </trkpt>
      <trkpt lat="-11.5776260" lon="-76.6679080">
        <ele>3399.9</ele>
        <time>2022-09-11T20:53:36Z</time>
      </trkpt>
      <trkpt lat="-11.5776190" lon="-76.6678620">
        <ele>3400.0</ele>
        <time>2022-09-11T20:53:37Z</time>
      </trkpt>
      <trkpt lat="-11.5776100" lon="-76.6678170">
        <ele>3400.1</ele>
        <time>2022-09-11T20:53:38Z</time>
      </trkpt>
      <trkpt lat="-11.5776000" lon="-76.6677680">
        <ele>3400.2</ele>
        <time>2022-09-11T20:53:39Z</time>
      </trkpt>
      <trkpt lat="-11.5775900" lon="-76.6677170">
        <ele>3400.3</ele>
        <time>2022-09-11T20:53:40Z</time>
      </trkpt>
      <trkpt lat="-11.5775870" lon="-76.6676860">
        <ele>3400.4</ele>
        <time>2022-09-11T20:53:41Z</time>
      </trkpt>
      <trkpt lat="-11.5775670" lon="-76.6676140">
        <ele>3400.6</ele>
        <time>2022-09-11T20:53:43Z</time>
      </trkpt>
      <trkpt lat="-11.5775650" lon="-76.6675760">
        <ele>3400.7</ele>
        <time>2022-09-11T20:53:44Z</time>
      </trkpt>
      <trkpt lat="-11.5775580" lon="-76.6675260">
        <ele>3400.8</ele>
        <time>2022-09-11T20:53:45Z</time>
      </trkpt>
      <trkpt lat="-11.5775520" lon="-76.6674940">
        <ele>3400.9</ele>
        <time>2022-09-11T20:53:46Z</time>
      </trkpt>
      <trkpt lat="-11.5775530" lon="-76.6674810">
        <ele>3401.0</ele>
        <time>2022-09-11T20:53:47Z</time>
      </trkpt>
      <trkpt lat="-11.5775640" lon="-76.6674540">
        <ele>3401.1</ele>
        <time>2022-09-11T20:53:48Z</time>
      </trkpt>
      <trkpt lat="-11.5775780" lon="-76.6674230">
        <ele>3401.2</ele>
        <time>2022-09-11T20:53:49Z</time>
      </trkpt>
      <trkpt lat="-11.5775820" lon="-76.6673700">
        <ele>3401.3</ele>
        <time>2022-09-11T20:53:51Z</time>
      </trkpt>
      <trkpt lat="-11.5775710" lon="-76.6673230">
        <ele>3401.5</ele>
        <time>2022-09-11T20:53:52Z</time>
      </trkpt>
      <trkpt lat="-11.5775530" lon="-76.6672820">
        <ele>3401.6</ele>
        <time>2022-09-11T20:53:54Z</time>
      </trkpt>
      <trkpt lat="-11.5775180" lon="-76.6672130">
        <ele>3401.8</ele>
        <time>2022-09-11T20:53:55Z</time>
      </trkpt>
      <trkpt lat="-11.5774940" lon="-76.6671760">
        <ele>3401.8</ele>
        <time>2022-09-11T20:53:57Z</time>
      </trkpt>
      <trkpt lat="-11.5774680" lon="-76.6671420">
        <ele>3401.8</ele>
        <time>2022-09-11T20:53:58Z</time>
      </trkpt>
      <trkpt lat="-11.5774460" lon="-76.6671100">
        <ele>3401.8</ele>
        <time>2022-09-11T20:53:59Z</time>
      </trkpt>
      <trkpt lat="-11.5774280" lon="-76.6670780">
        <ele>3401.8</ele>
        <time>2022-09-11T20:54:00Z</time>
      </trkpt>
      <trkpt lat="-11.5774150" lon="-76.6670470">
        <ele>3401.9</ele>
        <time>2022-09-11T20:54:01Z</time>
      </trkpt>
      <trkpt lat="-11.5774030" lon="-76.6670210">
        <ele>3401.9</ele>
        <time>2022-09-11T20:54:02Z</time>
      </trkpt>
      <trkpt lat="-11.5773880" lon="-76.6669910">
        <ele>3401.9</ele>
        <time>2022-09-11T20:54:03Z</time>
      </trkpt>
      <trkpt lat="-11.5773710" lon="-76.6669590">
        <ele>3402.0</ele>
        <time>2022-09-11T20:54:04Z</time>
      </trkpt>
      <trkpt lat="-11.5773470" lon="-76.6669210">
        <ele>3402.0</ele>
        <time>2022-09-11T20:54:05Z</time>
      </trkpt>
      <trkpt lat="-11.5773160" lon="-76.6668760">
        <ele>3402.1</ele>
        <time>2022-09-11T20:54:07Z</time>
      </trkpt>
      <trkpt lat="-11.5772950" lon="-76.6668390">
        <ele>3402.2</ele>
        <time>2022-09-11T20:54:08Z</time>
      </trkpt>
      <trkpt lat="-11.5772640" lon="-76.6667570">
        <ele>3402.2</ele>
        <time>2022-09-11T20:54:09Z</time>
      </trkpt>
      <trkpt lat="-11.5772410" lon="-76.6667130">
        <ele>3402.2</ele>
        <time>2022-09-11T20:54:10Z</time>
      </trkpt>
      <trkpt lat="-11.5772080" lon="-76.6666690">
        <ele>3402.2</ele>
        <time>2022-09-11T20:54:11Z</time>
      </trkpt>
      <trkpt lat="-11.5771690" lon="-76.6666230">
        <ele>3402.3</ele>
        <time>2022-09-11T20:54:12Z</time>
      </trkpt>
      <trkpt lat="-11.5771270" lon="-76.6665780">
        <ele>3402.3</ele>
        <time>2022-09-11T20:54:13Z</time>
      </trkpt>
      <trkpt lat="-11.5770840" lon="-76.6665350">
        <ele>3402.4</ele>
        <time>2022-09-11T20:54:14Z</time>
      </trkpt>
      <trkpt lat="-11.5770370" lon="-76.6664980">
        <ele>3402.3</ele>
        <time>2022-09-11T20:54:15Z</time>
      </trkpt>
      <trkpt lat="-11.5769830" lon="-76.6664670">
        <ele>3402.3</ele>
        <time>2022-09-11T20:54:16Z</time>
      </trkpt>
      <trkpt lat="-11.5769240" lon="-76.6664360">
        <ele>3402.3</ele>
        <time>2022-09-11T20:54:17Z</time>
      </trkpt>
      <trkpt lat="-11.5768580" lon="-76.6664040">
        <ele>3402.2</ele>
        <time>2022-09-11T20:54:18Z</time>
      </trkpt>
      <trkpt lat="-11.5767870" lon="-76.6663770">
        <ele>3402.2</ele>
        <time>2022-09-11T20:54:19Z</time>
      </trkpt>
      <trkpt lat="-11.5767140" lon="-76.6663520">
        <ele>3402.3</ele>
        <time>2022-09-11T20:54:20Z</time>
      </trkpt>
      <trkpt lat="-11.5766400" lon="-76.6663350">
        <ele>3402.5</ele>
        <time>2022-09-11T20:54:21Z</time>
      </trkpt>
      <trkpt lat="-11.5765770" lon="-76.6663150">
        <ele>3402.7</ele>
        <time>2022-09-11T20:54:22Z</time>
      </trkpt>
      <trkpt lat="-11.5765270" lon="-76.6662870">
        <ele>3402.8</ele>
        <time>2022-09-11T20:54:23Z</time>
      </trkpt>
      <trkpt lat="-11.5764860" lon="-76.6662510">
        <ele>3402.9</ele>
        <time>2022-09-11T20:54:24Z</time>
      </trkpt>
      <trkpt lat="-11.5764430" lon="-76.6662100">
        <ele>3403.0</ele>
        <time>2022-09-11T20:54:25Z</time>
      </trkpt>
      <trkpt lat="-11.5763930" lon="-76.6661740">
        <ele>3403.1</ele>
        <time>2022-09-11T20:54:26Z</time>
      </trkpt>
      <trkpt lat="-11.5763300" lon="-76.6661550">
        <ele>3403.2</ele>
        <time>2022-09-11T20:54:27Z</time>
      </trkpt>
      <trkpt lat="-11.5762620" lon="-76.6661560">
        <ele>3403.2</ele>
        <time>2022-09-11T20:54:28Z</time>
      </trkpt>
      <trkpt lat="-11.5761950" lon="-76.6661590">
        <ele>3403.3</ele>
        <time>2022-09-11T20:54:29Z</time>
      </trkpt>
      <trkpt lat="-11.5761320" lon="-76.6661600">
        <ele>3403.3</ele>
        <time>2022-09-11T20:54:30Z</time>
      </trkpt>
      <trkpt lat="-11.5760710" lon="-76.6661580">
        <ele>3403.4</ele>
        <time>2022-09-11T20:54:31Z</time>
      </trkpt>
      <trkpt lat="-11.5760170" lon="-76.6661470">
        <ele>3403.5</ele>
        <time>2022-09-11T20:54:32Z</time>
      </trkpt>
      <trkpt lat="-11.5759660" lon="-76.6661290">
        <ele>3403.7</ele>
        <time>2022-09-11T20:54:33Z</time>
      </trkpt>
      <trkpt lat="-11.5759130" lon="-76.6661110">
        <ele>3403.9</ele>
        <time>2022-09-11T20:54:34Z</time>
      </trkpt>
      <trkpt lat="-11.5758590" lon="-76.6660940">
        <ele>3404.1</ele>
        <time>2022-09-11T20:54:35Z</time>
      </trkpt>
      <trkpt lat="-11.5758070" lon="-76.6660790">
        <ele>3404.4</ele>
        <time>2022-09-11T20:54:36Z</time>
      </trkpt>
      <trkpt lat="-11.5757580" lon="-76.6660650">
        <ele>3404.5</ele>
        <time>2022-09-11T20:54:37Z</time>
      </trkpt>
      <trkpt lat="-11.5757090" lon="-76.6660570">
        <ele>3404.7</ele>
        <time>2022-09-11T20:54:38Z</time>
      </trkpt>
      <trkpt lat="-11.5756610" lon="-76.6660540">
        <ele>3404.8</ele>
        <time>2022-09-11T20:54:39Z</time>
      </trkpt>
      <trkpt lat="-11.5756100" lon="-76.6660580">
        <ele>3405.0</ele>
        <time>2022-09-11T20:54:40Z</time>
      </trkpt>
      <trkpt lat="-11.5755620" lon="-76.6660650">
        <ele>3405.2</ele>
        <time>2022-09-11T20:54:41Z</time>
      </trkpt>
      <trkpt lat="-11.5755210" lon="-76.6660720">
        <ele>3405.3</ele>
        <time>2022-09-11T20:54:42Z</time>
      </trkpt>
      <trkpt lat="-11.5754890" lon="-76.6660820">
        <ele>3405.5</ele>
        <time>2022-09-11T20:54:43Z</time>
      </trkpt>
      <trkpt lat="-11.5754530" lon="-76.6660910">
        <ele>3405.7</ele>
        <time>2022-09-11T20:54:44Z</time>
      </trkpt>
      <trkpt lat="-11.5754200" lon="-76.6660970">
        <ele>3405.9</ele>
        <time>2022-09-11T20:54:45Z</time>
      </trkpt>
      <trkpt lat="-11.5753840" lon="-76.6661040">
        <ele>3406.1</ele>
        <time>2022-09-11T20:54:46Z</time>
      </trkpt>
      <trkpt lat="-11.5753560" lon="-76.6661120">
        <ele>3406.3</ele>
        <time>2022-09-11T20:54:47Z</time>
      </trkpt>
      <trkpt lat="-11.5753320" lon="-76.6661190">
        <ele>3406.5</ele>
        <time>2022-09-11T20:54:48Z</time>
      </trkpt>
      <trkpt lat="-11.5753250" lon="-76.6661420">
        <ele>3406.6</ele>
        <time>2022-09-11T20:54:50Z</time>
      </trkpt>
      <trkpt lat="-11.5752650" lon="-76.6661380">
        <ele>3407.0</ele>
        <time>2022-09-11T20:54:51Z</time>
      </trkpt>
      <trkpt lat="-11.5752270" lon="-76.6661340">
        <ele>3407.2</ele>
        <time>2022-09-11T20:54:52Z</time>
      </trkpt>
      <trkpt lat="-11.5751960" lon="-76.6661270">
        <ele>3407.4</ele>
        <time>2022-09-11T20:54:53Z</time>
      </trkpt>
      <trkpt lat="-11.5751570" lon="-76.6661250">
        <ele>3407.6</ele>
        <time>2022-09-11T20:54:55Z</time>
      </trkpt>
      <trkpt lat="-11.5751280" lon="-76.6661200">
        <ele>3407.8</ele>
        <time>2022-09-11T20:54:56Z</time>
      </trkpt>
      <trkpt lat="-11.5750900" lon="-76.6661100">
        <ele>3408.0</ele>
        <time>2022-09-11T20:54:57Z</time>
      </trkpt>
      <trkpt lat="-11.5750790" lon="-76.6661050">
        <ele>3408.1</ele>
        <time>2022-09-11T20:54:58Z</time>
      </trkpt>
      <trkpt lat="-11.5750550" lon="-76.6661010">
        <ele>3408.2</ele>
        <time>2022-09-11T20:54:59Z</time>
      </trkpt>
      <trkpt lat="-11.5750240" lon="-76.6660950">
        <ele>3408.4</ele>
        <time>2022-09-11T20:55:01Z</time>
      </trkpt>
      <trkpt lat="-11.5750070" lon="-76.6660900">
        <ele>3408.5</ele>
        <time>2022-09-11T20:55:02Z</time>
      </trkpt>
      <trkpt lat="-11.5749920" lon="-76.6660850">
        <ele>3408.6</ele>
        <time>2022-09-11T20:55:03Z</time>
      </trkpt>
      <trkpt lat="-11.5749790" lon="-76.6660760">
        <ele>3408.7</ele>
        <time>2022-09-11T20:55:04Z</time>
      </trkpt>
      <trkpt lat="-11.5749560" lon="-76.6660630">
        <ele>3408.9</ele>
        <time>2022-09-11T20:55:06Z</time>
      </trkpt>
      <trkpt lat="-11.5749300" lon="-76.6660480">
        <ele>3409.1</ele>
        <time>2022-09-11T20:55:07Z</time>
      </trkpt>
      <trkpt lat="-11.5749230" lon="-76.6660440">
        <ele>3409.1</ele>
        <time>2022-09-11T20:55:08Z</time>
      </trkpt>
      <trkpt lat="-11.5749040" lon="-76.6660230">
        <ele>3409.2</ele>
        <time>2022-09-11T20:55:09Z</time>
      </trkpt>
      <trkpt lat="-11.5748970" lon="-76.6660170">
        <ele>3409.3</ele>
        <time>2022-09-11T20:55:10Z</time>
      </trkpt>
      <trkpt lat="-11.5748780" lon="-76.6659900">
        <ele>3409.4</ele>
        <time>2022-09-11T20:55:12Z</time>
      </trkpt>
      <trkpt lat="-11.5748720" lon="-76.6659780">
        <ele>3409.5</ele>
        <time>2022-09-11T20:55:13Z</time>
      </trkpt>
      <trkpt lat="-11.5748650" lon="-76.6659560">
        <ele>3409.6</ele>
        <time>2022-09-11T20:55:14Z</time>
      </trkpt>
      <trkpt lat="-11.5748610" lon="-76.6659440">
        <ele>3409.7</ele>
        <time>2022-09-11T20:55:15Z</time>
      </trkpt>
      <trkpt lat="-11.5748580" lon="-76.6659320">
        <ele>3409.8</ele>
        <time>2022-09-11T20:55:17Z</time>
      </trkpt>
      <trkpt lat="-11.5748550" lon="-76.6659200">
        <ele>3409.8</ele>
        <time>2022-09-11T20:55:18Z</time>
      </trkpt>
      <trkpt lat="-11.5748520" lon="-76.6659080">
        <ele>3409.9</ele>
        <time>2022-09-11T20:55:19Z</time>
      </trkpt>
      <trkpt lat="-11.5748430" lon="-76.6658850">
        <ele>3410.0</ele>
        <time>2022-09-11T20:55:20Z</time>
      </trkpt>
      <trkpt lat="-11.5748410" lon="-76.6658770">
        <ele>3410.0</ele>
        <time>2022-09-11T20:55:21Z</time>
      </trkpt>
      <trkpt lat="-11.5748380" lon="-76.6658680">
        <ele>3410.1</ele>
        <time>2022-09-11T20:55:22Z</time>
      </trkpt>
      <trkpt lat="-11.5748350" lon="-76.6658540">
        <ele>3410.1</ele>
        <time>2022-09-11T20:55:23Z</time>
      </trkpt>
      <trkpt lat="-11.5748250" lon="-76.6658260">
        <ele>3410.2</ele>
        <time>2022-09-11T20:55:25Z</time>
      </trkpt>
      <trkpt lat="-11.5748200" lon="-76.6658160">
        <ele>3410.3</ele>
        <time>2022-09-11T20:55:26Z</time>
      </trkpt>
      <trkpt lat="-11.5748160" lon="-76.6658000">
        <ele>3410.3</ele>
        <time>2022-09-11T20:55:27Z</time>
      </trkpt>
      <trkpt lat="-11.5748120" lon="-76.6657740">
        <ele>3410.4</ele>
        <time>2022-09-11T20:55:28Z</time>
      </trkpt>
      <trkpt lat="-11.5748080" lon="-76.6657570">
        <ele>3410.5</ele>
        <time>2022-09-11T20:55:30Z</time>
      </trkpt>
      <trkpt lat="-11.5748050" lon="-76.6657400">
        <ele>3410.5</ele>
        <time>2022-09-11T20:55:31Z</time>
      </trkpt>
      <trkpt lat="-11.5748010" lon="-76.6657230">
        <ele>3410.5</ele>
        <time>2022-09-11T20:55:32Z</time>
      </trkpt>
      <trkpt lat="-11.5748010" lon="-76.6656930">
        <ele>3410.6</ele>
        <time>2022-09-11T20:55:34Z</time>
      </trkpt>
      <trkpt lat="-11.5748020" lon="-76.6656850">
        <ele>3410.6</ele>
        <time>2022-09-11T20:55:35Z</time>
      </trkpt>
      <trkpt lat="-11.5748040" lon="-76.6656510">
        <ele>3410.7</ele>
        <time>2022-09-11T20:55:36Z</time>
      </trkpt>
      <trkpt lat="-11.5748030" lon="-76.6656370">
        <ele>3410.8</ele>
        <time>2022-09-11T20:55:37Z</time>
      </trkpt>
      <trkpt lat="-11.5748040" lon="-76.6656170">
        <ele>3410.8</ele>
        <time>2022-09-11T20:55:38Z</time>
      </trkpt>
      <trkpt lat="-11.5748030" lon="-76.6655900">
        <ele>3410.9</ele>
        <time>2022-09-11T20:55:40Z</time>
      </trkpt>
      <trkpt lat="-11.5748040" lon="-76.6655580">
        <ele>3411.0</ele>
        <time>2022-09-11T20:55:41Z</time>
      </trkpt>
      <trkpt lat="-11.5748020" lon="-76.6655430">
        <ele>3411.1</ele>
        <time>2022-09-11T20:55:42Z</time>
      </trkpt>
      <trkpt lat="-11.5748020" lon="-76.6655230">
        <ele>3411.1</ele>
        <time>2022-09-11T20:55:43Z</time>
      </trkpt>
      <trkpt lat="-11.5748020" lon="-76.6655030">
        <ele>3411.2</ele>
        <time>2022-09-11T20:55:45Z</time>
      </trkpt>
      <trkpt lat="-11.5747990" lon="-76.6654650">
        <ele>3411.3</ele>
        <time>2022-09-11T20:55:46Z</time>
      </trkpt>
      <trkpt lat="-11.5747970" lon="-76.6654460">
        <ele>3411.4</ele>
        <time>2022-09-11T20:55:47Z</time>
      </trkpt>
      <trkpt lat="-11.5747910" lon="-76.6653960">
        <ele>3411.7</ele>
        <time>2022-09-11T20:55:49Z</time>
      </trkpt>
      <trkpt lat="-11.5747900" lon="-76.6653810">
        <ele>3411.8</ele>
        <time>2022-09-11T20:55:50Z</time>
      </trkpt>
      <trkpt lat="-11.5747890" lon="-76.6653650">
        <ele>3411.9</ele>
        <time>2022-09-11T20:55:51Z</time>
      </trkpt>
      <trkpt lat="-11.5747870" lon="-76.6653470">
        <ele>3412.0</ele>
        <time>2022-09-11T20:55:52Z</time>
      </trkpt>
      <trkpt lat="-11.5747810" lon="-76.6653330">
        <ele>3412.1</ele>
        <time>2022-09-11T20:55:53Z</time>
      </trkpt>
      <trkpt lat="-11.5747740" lon="-76.6653180">
        <ele>3412.2</ele>
        <time>2022-09-11T20:55:54Z</time>
      </trkpt>
      <trkpt lat="-11.5747690" lon="-76.6653040">
        <ele>3412.3</ele>
        <time>2022-09-11T20:55:55Z</time>
      </trkpt>
      <trkpt lat="-11.5747640" lon="-76.6652750">
        <ele>3412.6</ele>
        <time>2022-09-11T20:55:57Z</time>
      </trkpt>
      <trkpt lat="-11.5747630" lon="-76.6652660">
        <ele>3412.6</ele>
        <time>2022-09-11T20:55:58Z</time>
      </trkpt>
      <trkpt lat="-11.5747540" lon="-76.6652380">
        <ele>3412.9</ele>
        <time>2022-09-11T20:56:00Z</time>
      </trkpt>
      <trkpt lat="-11.5747510" lon="-76.6652290">
        <ele>3412.9</ele>
        <time>2022-09-11T20:56:01Z</time>
      </trkpt>
      <trkpt lat="-11.5747420" lon="-76.6652100">
        <ele>3413.1</ele>
        <time>2022-09-11T20:56:02Z</time>
      </trkpt>
      <trkpt lat="-11.5747400" lon="-76.6652020">
        <ele>3413.2</ele>
        <time>2022-09-11T20:56:04Z</time>
      </trkpt>
      <trkpt lat="-11.5747370" lon="-76.6651950">
        <ele>3413.2</ele>
        <time>2022-09-11T20:56:05Z</time>
      </trkpt>
      <trkpt lat="-11.5747310" lon="-76.6651830">
        <ele>3413.3</ele>
        <time>2022-09-11T20:56:06Z</time>
      </trkpt>
      <trkpt lat="-11.5747230" lon="-76.6651700">
        <ele>3413.5</ele>
        <time>2022-09-11T20:56:07Z</time>
      </trkpt>
      <trkpt lat="-11.5747190" lon="-76.6651580">
        <ele>3413.6</ele>
        <time>2022-09-11T20:56:08Z</time>
      </trkpt>
      <trkpt lat="-11.5747090" lon="-76.6651400">
        <ele>3413.7</ele>
        <time>2022-09-11T20:56:10Z</time>
      </trkpt>
      <trkpt lat="-11.5746980" lon="-76.6651230">
        <ele>3413.9</ele>
        <time>2022-09-11T20:56:11Z</time>
      </trkpt>
      <trkpt lat="-11.5746900" lon="-76.6651050">
        <ele>3414.0</ele>
        <time>2022-09-11T20:56:13Z</time>
      </trkpt>
      <trkpt lat="-11.5746770" lon="-76.6650870">
        <ele>3414.2</ele>
        <time>2022-09-11T20:56:14Z</time>
      </trkpt>
      <trkpt lat="-11.5746720" lon="-76.6650810">
        <ele>3414.2</ele>
        <time>2022-09-11T20:56:15Z</time>
      </trkpt>
      <trkpt lat="-11.5746670" lon="-76.6650750">
        <ele>3414.3</ele>
        <time>2022-09-11T20:56:16Z</time>
      </trkpt>
      <trkpt lat="-11.5746620" lon="-76.6650690">
        <ele>3414.4</ele>
        <time>2022-09-11T20:56:17Z</time>
      </trkpt>
      <trkpt lat="-11.5746560" lon="-76.6650600">
        <ele>3414.5</ele>
        <time>2022-09-11T20:56:18Z</time>
      </trkpt>
      <trkpt lat="-11.5746490" lon="-76.6650380">
        <ele>3414.6</ele>
        <time>2022-09-11T20:56:20Z</time>
      </trkpt>
      <trkpt lat="-11.5746380" lon="-76.6650150">
        <ele>3414.9</ele>
        <time>2022-09-11T20:56:22Z</time>
      </trkpt>
      <trkpt lat="-11.5746330" lon="-76.6650070">
        <ele>3414.9</ele>
        <time>2022-09-11T20:56:23Z</time>
      </trkpt>
      <trkpt lat="-11.5746220" lon="-76.6649900">
        <ele>3415.1</ele>
        <time>2022-09-11T20:56:24Z</time>
      </trkpt>
      <trkpt lat="-11.5746150" lon="-76.6649800">
        <ele>3415.2</ele>
        <time>2022-09-11T20:56:25Z</time>
      </trkpt>
      <trkpt lat="-11.5746040" lon="-76.6649650">
        <ele>3415.4</ele>
        <time>2022-09-11T20:56:27Z</time>
      </trkpt>
      <trkpt lat="-11.5745980" lon="-76.6649530">
        <ele>3415.5</ele>
        <time>2022-09-11T20:56:28Z</time>
      </trkpt>
      <trkpt lat="-11.5745900" lon="-76.6649400">
        <ele>3415.6</ele>
        <time>2022-09-11T20:56:29Z</time>
      </trkpt>
      <trkpt lat="-11.5745820" lon="-76.6649300">
        <ele>3415.7</ele>
        <time>2022-09-11T20:56:30Z</time>
      </trkpt>
      <trkpt lat="-11.5745710" lon="-76.6649110">
        <ele>3415.9</ele>
        <time>2022-09-11T20:56:31Z</time>
      </trkpt>
      <trkpt lat="-11.5745680" lon="-76.6649030">
        <ele>3415.9</ele>
        <time>2022-09-11T20:56:33Z</time>
      </trkpt>
      <trkpt lat="-11.5745640" lon="-76.6648950">
        <ele>3416.0</ele>
        <time>2022-09-11T20:56:34Z</time>
      </trkpt>
      <trkpt lat="-11.5745610" lon="-76.6648820">
        <ele>3416.1</ele>
        <time>2022-09-11T20:56:35Z</time>
      </trkpt>
      <trkpt lat="-11.5745590" lon="-76.6648680">
        <ele>3416.1</ele>
        <time>2022-09-11T20:56:36Z</time>
      </trkpt>
      <trkpt lat="-11.5745540" lon="-76.6648480">
        <ele>3416.2</ele>
        <time>2022-09-11T20:56:37Z</time>
      </trkpt>
      <trkpt lat="-11.5745520" lon="-76.6648400">
        <ele>3416.3</ele>
        <time>2022-09-11T20:56:38Z</time>
      </trkpt>
      <trkpt lat="-11.5745500" lon="-76.6648310">
        <ele>3416.3</ele>
        <time>2022-09-11T20:56:39Z</time>
      </trkpt>
      <trkpt lat="-11.5745470" lon="-76.6648170">
        <ele>3416.4</ele>
        <time>2022-09-11T20:56:41Z</time>
      </trkpt>
      <trkpt lat="-11.5745450" lon="-76.6648030">
        <ele>3416.5</ele>
        <time>2022-09-11T20:56:42Z</time>
      </trkpt>
      <trkpt lat="-11.5745410" lon="-76.6647810">
        <ele>3416.6</ele>
        <time>2022-09-11T20:56:43Z</time>
      </trkpt>
      <trkpt lat="-11.5745400" lon="-76.6647720">
        <ele>3416.6</ele>
        <time>2022-09-11T20:56:44Z</time>
      </trkpt>
      <trkpt lat="-11.5745390" lon="-76.6647630">
        <ele>3416.7</ele>
        <time>2022-09-11T20:56:45Z</time>
      </trkpt>
      <trkpt lat="-11.5745370" lon="-76.6647460">
        <ele>3416.8</ele>
        <time>2022-09-11T20:56:47Z</time>
      </trkpt>
      <trkpt lat="-11.5745330" lon="-76.6647330">
        <ele>3416.8</ele>
        <time>2022-09-11T20:56:48Z</time>
      </trkpt>
      <trkpt lat="-11.5745260" lon="-76.6647200">
        <ele>3416.9</ele>
        <time>2022-09-11T20:56:49Z</time>
      </trkpt>
      <trkpt lat="-11.5745230" lon="-76.6647070">
        <ele>3417.0</ele>
        <time>2022-09-11T20:56:50Z</time>
      </trkpt>
      <trkpt lat="-11.5745110" lon="-76.6646850">
        <ele>3417.1</ele>
        <time>2022-09-11T20:56:51Z</time>
      </trkpt>
      <trkpt lat="-11.5745050" lon="-76.6646770">
        <ele>3417.2</ele>
        <time>2022-09-11T20:56:52Z</time>
      </trkpt>
      <trkpt lat="-11.5744980" lon="-76.6646700">
        <ele>3417.2</ele>
        <time>2022-09-11T20:56:53Z</time>
      </trkpt>
      <trkpt lat="-11.5744790" lon="-76.6646490">
        <ele>3417.4</ele>
        <time>2022-09-11T20:56:55Z</time>
      </trkpt>
      <trkpt lat="-11.5744720" lon="-76.6646420">
        <ele>3417.4</ele>
        <time>2022-09-11T20:56:56Z</time>
      </trkpt>
      <trkpt lat="-11.5744630" lon="-76.6646300">
        <ele>3417.5</ele>
        <time>2022-09-11T20:56:58Z</time>
      </trkpt>
      <trkpt lat="-11.5744520" lon="-76.6646140">
        <ele>3417.7</ele>
        <time>2022-09-11T20:56:59Z</time>
      </trkpt>
      <trkpt lat="-11.5744420" lon="-76.6646040">
        <ele>3417.7</ele>
        <time>2022-09-11T20:57:00Z</time>
      </trkpt>
      <trkpt lat="-11.5744330" lon="-76.6645930">
        <ele>3417.8</ele>
        <time>2022-09-11T20:57:01Z</time>
      </trkpt>
      <trkpt lat="-11.5744200" lon="-76.6645830">
        <ele>3417.9</ele>
        <time>2022-09-11T20:57:02Z</time>
      </trkpt>
      <trkpt lat="-11.5744070" lon="-76.6645730">
        <ele>3418.0</ele>
        <time>2022-09-11T20:57:04Z</time>
      </trkpt>
      <trkpt lat="-11.5743960" lon="-76.6645630">
        <ele>3418.1</ele>
        <time>2022-09-11T20:57:05Z</time>
      </trkpt>
      <trkpt lat="-11.5743840" lon="-76.6645520">
        <ele>3418.2</ele>
        <time>2022-09-11T20:57:06Z</time>
      </trkpt>
      <trkpt lat="-11.5743740" lon="-76.6645440">
        <ele>3418.3</ele>
        <time>2022-09-11T20:57:07Z</time>
      </trkpt>
      <trkpt lat="-11.5743600" lon="-76.6645350">
        <ele>3418.4</ele>
        <time>2022-09-11T20:57:08Z</time>
      </trkpt>
      <trkpt lat="-11.5743480" lon="-76.6645270">
        <ele>3418.5</ele>
        <time>2022-09-11T20:57:09Z</time>
      </trkpt>
      <trkpt lat="-11.5743360" lon="-76.6645170">
        <ele>3418.6</ele>
        <time>2022-09-11T20:57:10Z</time>
      </trkpt>
      <trkpt lat="-11.5743280" lon="-76.6645110">
        <ele>3418.7</ele>
        <time>2022-09-11T20:57:11Z</time>
      </trkpt>
      <trkpt lat="-11.5743090" lon="-76.6644960">
        <ele>3418.8</ele>
        <time>2022-09-11T20:57:13Z</time>
      </trkpt>
      <trkpt lat="-11.5742970" lon="-76.6644880">
        <ele>3418.9</ele>
        <time>2022-09-11T20:57:14Z</time>
      </trkpt>
      <trkpt lat="-11.5742830" lon="-76.6644760">
        <ele>3419.0</ele>
        <time>2022-09-11T20:57:15Z</time>
      </trkpt>
      <trkpt lat="-11.5742700" lon="-76.6644670">
        <ele>3419.1</ele>
        <time>2022-09-11T20:57:16Z</time>
      </trkpt>
      <trkpt lat="-11.5742580" lon="-76.6644620">
        <ele>3419.2</ele>
        <time>2022-09-11T20:57:17Z</time>
      </trkpt>
      <trkpt lat="-11.5742450" lon="-76.6644540">
        <ele>3419.3</ele>
        <time>2022-09-11T20:57:18Z</time>
      </trkpt>
      <trkpt lat="-11.5742340" lon="-76.6644440">
        <ele>3419.4</ele>
        <time>2022-09-11T20:57:19Z</time>
      </trkpt>
      <trkpt lat="-11.5742210" lon="-76.6644300">
        <ele>3419.5</ele>
        <time>2022-09-11T20:57:20Z</time>
      </trkpt>
      <trkpt lat="-11.5742070" lon="-76.6644210">
        <ele>3419.6</ele>
        <time>2022-09-11T20:57:21Z</time>
      </trkpt>
      <trkpt lat="-11.5741810" lon="-76.6644090">
        <ele>3419.8</ele>
        <time>2022-09-11T20:57:23Z</time>
      </trkpt>
      <trkpt lat="-11.5741740" lon="-76.6644050">
        <ele>3419.8</ele>
        <time>2022-09-11T20:57:24Z</time>
      </trkpt>
      <trkpt lat="-11.5741610" lon="-76.6644010">
        <ele>3419.9</ele>
        <time>2022-09-11T20:57:25Z</time>
      </trkpt>
      <trkpt lat="-11.5741450" lon="-76.6643970">
        <ele>3420.0</ele>
        <time>2022-09-11T20:57:26Z</time>
      </trkpt>
      <trkpt lat="-11.5741300" lon="-76.6643910">
        <ele>3420.1</ele>
        <time>2022-09-11T20:57:27Z</time>
      </trkpt>
      <trkpt lat="-11.5741170" lon="-76.6643830">
        <ele>3420.2</ele>
        <time>2022-09-11T20:57:28Z</time>
      </trkpt>
      <trkpt lat="-11.5741070" lon="-76.6643770">
        <ele>3420.3</ele>
        <time>2022-09-11T20:57:29Z</time>
      </trkpt>
      <trkpt lat="-11.5740930" lon="-76.6643690">
        <ele>3420.4</ele>
        <time>2022-09-11T20:57:30Z</time>
      </trkpt>
      <trkpt lat="-11.5740810" lon="-76.6643600">
        <ele>3420.4</ele>
        <time>2022-09-11T20:57:31Z</time>
      </trkpt>
      <trkpt lat="-11.5740720" lon="-76.6643490">
        <ele>3420.5</ele>
        <time>2022-09-11T20:57:32Z</time>
      </trkpt>
      <trkpt lat="-11.5740640" lon="-76.6643370">
        <ele>3420.6</ele>
        <time>2022-09-11T20:57:33Z</time>
      </trkpt>
      <trkpt lat="-11.5740580" lon="-76.6643260">
        <ele>3420.7</ele>
        <time>2022-09-11T20:57:34Z</time>
      </trkpt>
      <trkpt lat="-11.5740420" lon="-76.6643010">
        <ele>3420.8</ele>
        <time>2022-09-11T20:57:36Z</time>
      </trkpt>
      <trkpt lat="-11.5740380" lon="-76.6642880">
        <ele>3420.9</ele>
        <time>2022-09-11T20:57:37Z</time>
      </trkpt>
      <trkpt lat="-11.5740360" lon="-76.6642760">
        <ele>3421.0</ele>
        <time>2022-09-11T20:57:38Z</time>
      </trkpt>
      <trkpt lat="-11.5740310" lon="-76.6642560">
        <ele>3421.1</ele>
        <time>2022-09-11T20:57:40Z</time>
      </trkpt>
      <trkpt lat="-11.5740280" lon="-76.6642420">
        <ele>3421.2</ele>
        <time>2022-09-11T20:57:41Z</time>
      </trkpt>
      <trkpt lat="-11.5740230" lon="-76.6642280">
        <ele>3421.3</ele>
        <time>2022-09-11T20:57:42Z</time>
      </trkpt>
      <trkpt lat="-11.5740130" lon="-76.6642080">
        <ele>3421.4</ele>
        <time>2022-09-11T20:57:43Z</time>
      </trkpt>
      <trkpt lat="-11.5740070" lon="-76.6641990">
        <ele>3421.4</ele>
        <time>2022-09-11T20:57:44Z</time>
      </trkpt>
      <trkpt lat="-11.5739990" lon="-76.6641880">
        <ele>3421.5</ele>
        <time>2022-09-11T20:57:45Z</time>
      </trkpt>
      <trkpt lat="-11.5739890" lon="-76.6641760">
        <ele>3421.6</ele>
        <time>2022-09-11T20:57:46Z</time>
      </trkpt>
      <trkpt lat="-11.5739750" lon="-76.6641640">
        <ele>3421.7</ele>
        <time>2022-09-11T20:57:47Z</time>
      </trkpt>
      <trkpt lat="-11.5739630" lon="-76.6641570">
        <ele>3421.8</ele>
        <time>2022-09-11T20:57:48Z</time>
      </trkpt>
      <trkpt lat="-11.5739490" lon="-76.6641420">
        <ele>3421.9</ele>
        <time>2022-09-11T20:57:49Z</time>
      </trkpt>
      <trkpt lat="-11.5739320" lon="-76.6641250">
        <ele>3422.0</ele>
        <time>2022-09-11T20:57:51Z</time>
      </trkpt>
      <trkpt lat="-11.5739180" lon="-76.6641120">
        <ele>3422.1</ele>
        <time>2022-09-11T20:57:52Z</time>
      </trkpt>
      <trkpt lat="-11.5739050" lon="-76.6641030">
        <ele>3422.2</ele>
        <time>2022-09-11T20:57:53Z</time>
      </trkpt>
      <trkpt lat="-11.5738730" lon="-76.6640890">
        <ele>3422.4</ele>
        <time>2022-09-11T20:57:55Z</time>
      </trkpt>
      <trkpt lat="-11.5738650" lon="-76.6640850">
        <ele>3422.5</ele>
        <time>2022-09-11T20:57:56Z</time>
      </trkpt>
      <trkpt lat="-11.5738540" lon="-76.6640760">
        <ele>3422.6</ele>
        <time>2022-09-11T20:57:57Z</time>
      </trkpt>
      <trkpt lat="-11.5738390" lon="-76.6640660">
        <ele>3422.7</ele>
        <time>2022-09-11T20:57:58Z</time>
      </trkpt>
      <trkpt lat="-11.5738130" lon="-76.6640510">
        <ele>3422.8</ele>
        <time>2022-09-11T20:58:00Z</time>
      </trkpt>
      <trkpt lat="-11.5738050" lon="-76.6640460">
        <ele>3422.9</ele>
        <time>2022-09-11T20:58:01Z</time>
      </trkpt>
      <trkpt lat="-11.5737920" lon="-76.6640410">
        <ele>3423.0</ele>
        <time>2022-09-11T20:58:02Z</time>
      </trkpt>
      <trkpt lat="-11.5737770" lon="-76.6640370">
        <ele>3423.0</ele>
        <time>2022-09-11T20:58:03Z</time>
      </trkpt>
      <trkpt lat="-11.5737620" lon="-76.6640340">
        <ele>3423.1</ele>
        <time>2022-09-11T20:58:04Z</time>
      </trkpt>
      <trkpt lat="-11.5737410" lon="-76.6640310">
        <ele>3423.2</ele>
        <time>2022-09-11T20:58:06Z</time>
      </trkpt>
      <trkpt lat="-11.5737290" lon="-76.6640310">
        <ele>3423.3</ele>
        <time>2022-09-11T20:58:07Z</time>
      </trkpt>
      <trkpt lat="-11.5737160" lon="-76.6640270">
        <ele>3423.4</ele>
        <time>2022-09-11T20:58:08Z</time>
      </trkpt>
      <trkpt lat="-11.5736980" lon="-76.6640230">
        <ele>3423.5</ele>
        <time>2022-09-11T20:58:10Z</time>
      </trkpt>
      <trkpt lat="-11.5736690" lon="-76.6640150">
        <ele>3423.7</ele>
        <time>2022-09-11T20:58:11Z</time>
      </trkpt>
      <trkpt lat="-11.5736620" lon="-76.6640120">
        <ele>3423.7</ele>
        <time>2022-09-11T20:58:12Z</time>
      </trkpt>
      <trkpt lat="-11.5736470" lon="-76.6640020">
        <ele>3423.8</ele>
        <time>2022-09-11T20:58:14Z</time>
      </trkpt>
      <trkpt lat="-11.5736320" lon="-76.6639980">
        <ele>3423.9</ele>
        <time>2022-09-11T20:58:15Z</time>
      </trkpt>
      <trkpt lat="-11.5736070" lon="-76.6640010">
        <ele>3424.1</ele>
        <time>2022-09-11T20:58:16Z</time>
      </trkpt>
      <trkpt lat="-11.5735860" lon="-76.6640000">
        <ele>3424.2</ele>
        <time>2022-09-11T20:58:18Z</time>
      </trkpt>
      <trkpt lat="-11.5735550" lon="-76.6639980">
        <ele>3424.4</ele>
        <time>2022-09-11T20:58:19Z</time>
      </trkpt>
      <trkpt lat="-11.5735470" lon="-76.6639970">
        <ele>3424.4</ele>
        <time>2022-09-11T20:58:20Z</time>
      </trkpt>
      <trkpt lat="-11.5735190" lon="-76.6639990">
        <ele>3424.6</ele>
        <time>2022-09-11T20:58:21Z</time>
      </trkpt>
      <trkpt lat="-11.5735030" lon="-76.6639990">
        <ele>3424.7</ele>
        <time>2022-09-11T20:58:23Z</time>
      </trkpt>
      <trkpt lat="-11.5734880" lon="-76.6639990">
        <ele>3424.7</ele>
        <time>2022-09-11T20:58:24Z</time>
      </trkpt>
      <trkpt lat="-11.5734730" lon="-76.6639990">
        <ele>3424.8</ele>
        <time>2022-09-11T20:58:25Z</time>
      </trkpt>
      <trkpt lat="-11.5734440" lon="-76.6639980">
        <ele>3425.0</ele>
        <time>2022-09-11T20:58:26Z</time>
      </trkpt>
      <trkpt lat="-11.5734290" lon="-76.6639960">
        <ele>3425.1</ele>
        <time>2022-09-11T20:58:28Z</time>
      </trkpt>
      <trkpt lat="-11.5734150" lon="-76.6639950">
        <ele>3425.2</ele>
        <time>2022-09-11T20:58:29Z</time>
      </trkpt>
      <trkpt lat="-11.5734000" lon="-76.6639930">
        <ele>3425.3</ele>
        <time>2022-09-11T20:58:30Z</time>
      </trkpt>
      <trkpt lat="-11.5733670" lon="-76.6639850">
        <ele>3425.4</ele>
        <time>2022-09-11T20:58:32Z</time>
      </trkpt>
      <trkpt lat="-11.5733580" lon="-76.6639830">
        <ele>3425.5</ele>
        <time>2022-09-11T20:58:33Z</time>
      </trkpt>
      <trkpt lat="-11.5733280" lon="-76.6639750">
        <ele>3425.6</ele>
        <time>2022-09-11T20:58:34Z</time>
      </trkpt>
      <trkpt lat="-11.5733210" lon="-76.6639720">
        <ele>3425.7</ele>
        <time>2022-09-11T20:58:35Z</time>
      </trkpt>
      <trkpt lat="-11.5733070" lon="-76.6639670">
        <ele>3425.7</ele>
        <time>2022-09-11T20:58:36Z</time>
      </trkpt>
      <trkpt lat="-11.5732930" lon="-76.6639610">
        <ele>3425.8</ele>
        <time>2022-09-11T20:58:37Z</time>
      </trkpt>
      <trkpt lat="-11.5732650" lon="-76.6639470">
        <ele>3425.9</ele>
        <time>2022-09-11T20:58:38Z</time>
      </trkpt>
      <trkpt lat="-11.5732560" lon="-76.6639420">
        <ele>3426.0</ele>
        <time>2022-09-11T20:58:39Z</time>
      </trkpt>
      <trkpt lat="-11.5732220" lon="-76.6639230">
        <ele>3426.1</ele>
        <time>2022-09-11T20:58:41Z</time>
      </trkpt>
      <trkpt lat="-11.5732090" lon="-76.6639180">
        <ele>3426.1</ele>
        <time>2022-09-11T20:58:42Z</time>
      </trkpt>
      <trkpt lat="-11.5731890" lon="-76.6639090">
        <ele>3426.2</ele>
        <time>2022-09-11T20:58:43Z</time>
      </trkpt>
      <trkpt lat="-11.5731590" lon="-76.6638990">
        <ele>3426.3</ele>
        <time>2022-09-11T20:58:45Z</time>
      </trkpt>
      <trkpt lat="-11.5731350" lon="-76.6638890">
        <ele>3426.4</ele>
        <time>2022-09-11T20:58:46Z</time>
      </trkpt>
      <trkpt lat="-11.5730780" lon="-76.6638820">
        <ele>3426.5</ele>
        <time>2022-09-11T20:58:48Z</time>
      </trkpt>
      <trkpt lat="-11.5730510" lon="-76.6638770">
        <ele>3426.6</ele>
        <time>2022-09-11T20:58:50Z</time>
      </trkpt>
      <trkpt lat="-11.5730180" lon="-76.6638800">
        <ele>3426.7</ele>
        <time>2022-09-11T20:58:51Z</time>
      </trkpt>
      <trkpt lat="-11.5730100" lon="-76.6638820">
        <ele>3426.7</ele>
        <time>2022-09-11T20:58:52Z</time>
      </trkpt>
      <trkpt lat="-11.5729920" lon="-76.6638830">
        <ele>3426.8</ele>
        <time>2022-09-11T20:58:53Z</time>
      </trkpt>
      <trkpt lat="-11.5729620" lon="-76.6638850">
        <ele>3426.9</ele>
        <time>2022-09-11T20:58:55Z</time>
      </trkpt>
      <trkpt lat="-11.5729300" lon="-76.6638860">
        <ele>3427.0</ele>
        <time>2022-09-11T20:58:56Z</time>
      </trkpt>
      <trkpt lat="-11.5729200" lon="-76.6638880">
        <ele>3427.0</ele>
        <time>2022-09-11T20:58:57Z</time>
      </trkpt>
      <trkpt lat="-11.5728860" lon="-76.6639000">
        <ele>3427.1</ele>
        <time>2022-09-11T20:58:59Z</time>
      </trkpt>
      <trkpt lat="-11.5728680" lon="-76.6639050">
        <ele>3427.2</ele>
        <time>2022-09-11T20:59:00Z</time>
      </trkpt>
      <trkpt lat="-11.5728430" lon="-76.6639160">
        <ele>3427.3</ele>
        <time>2022-09-11T20:59:02Z</time>
      </trkpt>
      <trkpt lat="-11.5728120" lon="-76.6639280">
        <ele>3427.4</ele>
        <time>2022-09-11T20:59:03Z</time>
      </trkpt>
      <trkpt lat="-11.5727990" lon="-76.6639300">
        <ele>3427.4</ele>
        <time>2022-09-11T20:59:04Z</time>
      </trkpt>
      <trkpt lat="-11.5727700" lon="-76.6639290">
        <ele>3427.5</ele>
        <time>2022-09-11T20:59:06Z</time>
      </trkpt>
      <trkpt lat="-11.5727620" lon="-76.6639310">
        <ele>3427.6</ele>
        <time>2022-09-11T20:59:07Z</time>
      </trkpt>
      <trkpt lat="-11.5727260" lon="-76.6639380">
        <ele>3427.7</ele>
        <time>2022-09-11T20:59:08Z</time>
      </trkpt>
      <trkpt lat="-11.5727140" lon="-76.6639430">
        <ele>3427.7</ele>
        <time>2022-09-11T20:59:09Z</time>
      </trkpt>
      <trkpt lat="-11.5726860" lon="-76.6639590">
        <ele>3427.8</ele>
        <time>2022-09-11T20:59:11Z</time>
      </trkpt>
      <trkpt lat="-11.5726680" lon="-76.6639680">
        <ele>3427.9</ele>
        <time>2022-09-11T20:59:12Z</time>
      </trkpt>
      <trkpt lat="-11.5726380" lon="-76.6639820">
        <ele>3428.0</ele>
        <time>2022-09-11T20:59:14Z</time>
      </trkpt>
      <trkpt lat="-11.5726090" lon="-76.6640010">
        <ele>3428.1</ele>
        <time>2022-09-11T20:59:15Z</time>
      </trkpt>
      <trkpt lat="-11.5725800" lon="-76.6640280">
        <ele>3428.1</ele>
        <time>2022-09-11T20:59:16Z</time>
      </trkpt>
      <trkpt lat="-11.5725690" lon="-76.6640390">
        <ele>3428.1</ele>
        <time>2022-09-11T20:59:17Z</time>
      </trkpt>
      <trkpt lat="-11.5725520" lon="-76.6640610">
        <ele>3428.1</ele>
        <time>2022-09-11T20:59:18Z</time>
      </trkpt>
      <trkpt lat="-11.5725350" lon="-76.6640850">
        <ele>3428.1</ele>
        <time>2022-09-11T20:59:19Z</time>
      </trkpt>
      <trkpt lat="-11.5725290" lon="-76.6640920">
        <ele>3428.0</ele>
        <time>2022-09-11T20:59:20Z</time>
      </trkpt>
      <trkpt lat="-11.5724970" lon="-76.6641180">
        <ele>3427.9</ele>
        <time>2022-09-11T20:59:21Z</time>
      </trkpt>
      <trkpt lat="-11.5724840" lon="-76.6641270">
        <ele>3427.8</ele>
        <time>2022-09-11T20:59:22Z</time>
      </trkpt>
      <trkpt lat="-11.5724320" lon="-76.6641550">
        <ele>3427.5</ele>
        <time>2022-09-11T20:59:24Z</time>
      </trkpt>
      <trkpt lat="-11.5723940" lon="-76.6641660">
        <ele>3427.3</ele>
        <time>2022-09-11T20:59:25Z</time>
      </trkpt>
      <trkpt lat="-11.5723810" lon="-76.6641680">
        <ele>3427.2</ele>
        <time>2022-09-11T20:59:26Z</time>
      </trkpt>
      <trkpt lat="-11.5723410" lon="-76.6641830">
        <ele>3427.0</ele>
        <time>2022-09-11T20:59:28Z</time>
      </trkpt>
      <trkpt lat="-11.5722990" lon="-76.6642020">
        <ele>3426.7</ele>
        <time>2022-09-11T20:59:29Z</time>
      </trkpt>
      <trkpt lat="-11.5722450" lon="-76.6642150">
        <ele>3426.3</ele>
        <time>2022-09-11T20:59:30Z</time>
      </trkpt>
      <trkpt lat="-11.5721680" lon="-76.6642410">
        <ele>3425.7</ele>
        <time>2022-09-11T20:59:31Z</time>
      </trkpt>
      <trkpt lat="-11.5721170" lon="-76.6642360">
        <ele>3425.3</ele>
        <time>2022-09-11T20:59:32Z</time>
      </trkpt>
      <trkpt lat="-11.5720660" lon="-76.6642250">
        <ele>3424.9</ele>
        <time>2022-09-11T20:59:33Z</time>
      </trkpt>
      <trkpt lat="-11.5720140" lon="-76.6642130">
        <ele>3424.4</ele>
        <time>2022-09-11T20:59:34Z</time>
      </trkpt>
      <trkpt lat="-11.5719630" lon="-76.6642010">
        <ele>3424.0</ele>
        <time>2022-09-11T20:59:35Z</time>
      </trkpt>
      <trkpt lat="-11.5719080" lon="-76.6641920">
        <ele>3423.5</ele>
        <time>2022-09-11T20:59:36Z</time>
      </trkpt>
      <trkpt lat="-11.5718470" lon="-76.6641920">
        <ele>3423.1</ele>
        <time>2022-09-11T20:59:37Z</time>
      </trkpt>
      <trkpt lat="-11.5717770" lon="-76.6642070">
        <ele>3422.6</ele>
        <time>2022-09-11T20:59:38Z</time>
      </trkpt>
      <trkpt lat="-11.5716980" lon="-76.6642340">
        <ele>3422.0</ele>
        <time>2022-09-11T20:59:39Z</time>
      </trkpt>
      <trkpt lat="-11.5716170" lon="-76.6642660">
        <ele>3421.3</ele>
        <time>2022-09-11T20:59:40Z</time>
      </trkpt>
      <trkpt lat="-11.5715330" lon="-76.6642960">
        <ele>3420.7</ele>
        <time>2022-09-11T20:59:41Z</time>
      </trkpt>
      <trkpt lat="-11.5714450" lon="-76.6643020">
        <ele>3420.1</ele>
        <time>2022-09-11T20:59:42Z</time>
      </trkpt>
      <trkpt lat="-11.5713570" lon="-76.6642880">
        <ele>3419.6</ele>
        <time>2022-09-11T20:59:43Z</time>
      </trkpt>
      <trkpt lat="-11.5712720" lon="-76.6642790">
        <ele>3419.0</ele>
        <time>2022-09-11T20:59:44Z</time>
      </trkpt>
      <trkpt lat="-11.5711860" lon="-76.6642900">
        <ele>3418.4</ele>
        <time>2022-09-11T20:59:45Z</time>
      </trkpt>
      <trkpt lat="-11.5711070" lon="-76.6643090">
        <ele>3417.8</ele>
        <time>2022-09-11T20:59:46Z</time>
      </trkpt>
      <trkpt lat="-11.5710340" lon="-76.6643180">
        <ele>3417.4</ele>
        <time>2022-09-11T20:59:47Z</time>
      </trkpt>
      <trkpt lat="-11.5709550" lon="-76.6643090">
        <ele>3417.1</ele>
        <time>2022-09-11T20:59:48Z</time>
      </trkpt>
      <trkpt lat="-11.5708790" lon="-76.6642950">
        <ele>3416.7</ele>
        <time>2022-09-11T20:59:49Z</time>
      </trkpt>
      <trkpt lat="-11.5708080" lon="-76.6642950">
        <ele>3416.3</ele>
        <time>2022-09-11T20:59:50Z</time>
      </trkpt>
      <trkpt lat="-11.5707490" lon="-76.6643170">
        <ele>3416.0</ele>
        <time>2022-09-11T20:59:51Z</time>
      </trkpt>
      <trkpt lat="-11.5707050" lon="-76.6643410">
        <ele>3415.7</ele>
        <time>2022-09-11T20:59:52Z</time>
      </trkpt>
      <trkpt lat="-11.5706730" lon="-76.6643270">
        <ele>3415.4</ele>
        <time>2022-09-11T20:59:53Z</time>
      </trkpt>
      <trkpt lat="-11.5706550" lon="-76.6643170">
        <ele>3415.3</ele>
        <time>2022-09-11T20:59:54Z</time>
      </trkpt>
      <trkpt lat="-11.5706350" lon="-76.6642780">
        <ele>3415.0</ele>
        <time>2022-09-11T20:59:55Z</time>
      </trkpt>
      <trkpt lat="-11.5706290" lon="-76.6642300">
        <ele>3414.7</ele>
        <time>2022-09-11T20:59:56Z</time>
      </trkpt>
      <trkpt lat="-11.5706230" lon="-76.6641760">
        <ele>3414.4</ele>
        <time>2022-09-11T20:59:57Z</time>
      </trkpt>
      <trkpt lat="-11.5706240" lon="-76.6641140">
        <ele>3414.0</ele>
        <time>2022-09-11T20:59:58Z</time>
      </trkpt>
      <trkpt lat="-11.5706270" lon="-76.6640490">
        <ele>3413.6</ele>
        <time>2022-09-11T20:59:59Z</time>
      </trkpt>
      <trkpt lat="-11.5706350" lon="-76.6639880">
        <ele>3413.2</ele>
        <time>2022-09-11T21:00:00Z</time>
      </trkpt>
      <trkpt lat="-11.5706390" lon="-76.6639250">
        <ele>3412.7</ele>
        <time>2022-09-11T21:00:01Z</time>
      </trkpt>
      <trkpt lat="-11.5706290" lon="-76.6638580">
        <ele>3412.3</ele>
        <time>2022-09-11T21:00:02Z</time>
      </trkpt>
      <trkpt lat="-11.5706070" lon="-76.6637910">
        <ele>3411.9</ele>
        <time>2022-09-11T21:00:03Z</time>
      </trkpt>
      <trkpt lat="-11.5705770" lon="-76.6637280">
        <ele>3411.5</ele>
        <time>2022-09-11T21:00:04Z</time>
      </trkpt>
      <trkpt lat="-11.5705490" lon="-76.6636670">
        <ele>3411.1</ele>
        <time>2022-09-11T21:00:05Z</time>
      </trkpt>
      <trkpt lat="-11.5705320" lon="-76.6636010">
        <ele>3410.7</ele>
        <time>2022-09-11T21:00:06Z</time>
      </trkpt>
      <trkpt lat="-11.5705270" lon="-76.6635240">
        <ele>3410.2</ele>
        <time>2022-09-11T21:00:07Z</time>
      </trkpt>
      <trkpt lat="-11.5705260" lon="-76.6634460">
        <ele>3409.7</ele>
        <time>2022-09-11T21:00:08Z</time>
      </trkpt>
      <trkpt lat="-11.5705140" lon="-76.6633740">
        <ele>3409.3</ele>
        <time>2022-09-11T21:00:09Z</time>
      </trkpt>
      <trkpt lat="-11.5704840" lon="-76.6633240">
        <ele>3408.9</ele>
        <time>2022-09-11T21:00:10Z</time>
      </trkpt>
      <trkpt lat="-11.5704380" lon="-76.6632870">
        <ele>3408.4</ele>
        <time>2022-09-11T21:00:11Z</time>
      </trkpt>
      <trkpt lat="-11.5703940" lon="-76.6632440">
        <ele>3407.9</ele>
        <time>2022-09-11T21:00:12Z</time>
      </trkpt>
      <trkpt lat="-11.5703580" lon="-76.6631940">
        <ele>3407.5</ele>
        <time>2022-09-11T21:00:13Z</time>
      </trkpt>
      <trkpt lat="-11.5703170" lon="-76.6631400">
        <ele>3407.0</ele>
        <time>2022-09-11T21:00:14Z</time>
      </trkpt>
      <trkpt lat="-11.5702650" lon="-76.6630950">
        <ele>3406.5</ele>
        <time>2022-09-11T21:00:15Z</time>
      </trkpt>
      <trkpt lat="-11.5702020" lon="-76.6630590">
        <ele>3406.0</ele>
        <time>2022-09-11T21:00:16Z</time>
      </trkpt>
      <trkpt lat="-11.5701480" lon="-76.6630260">
        <ele>3405.7</ele>
        <time>2022-09-11T21:00:17Z</time>
      </trkpt>
      <trkpt lat="-11.5701130" lon="-76.6629850">
        <ele>3405.4</ele>
        <time>2022-09-11T21:00:18Z</time>
      </trkpt>
      <trkpt lat="-11.5700860" lon="-76.6629300">
        <ele>3405.1</ele>
        <time>2022-09-11T21:00:19Z</time>
      </trkpt>
      <trkpt lat="-11.5700570" lon="-76.6628750">
        <ele>3404.7</ele>
        <time>2022-09-11T21:00:20Z</time>
      </trkpt>
      <trkpt lat="-11.5700110" lon="-76.6628340">
        <ele>3404.3</ele>
        <time>2022-09-11T21:00:21Z</time>
      </trkpt>
      <trkpt lat="-11.5699510" lon="-76.6628190">
        <ele>3403.7</ele>
        <time>2022-09-11T21:00:22Z</time>
      </trkpt>
      <trkpt lat="-11.5698840" lon="-76.6628200">
        <ele>3403.2</ele>
        <time>2022-09-11T21:00:23Z</time>
      </trkpt>
      <trkpt lat="-11.5698090" lon="-76.6628250">
        <ele>3402.5</ele>
        <time>2022-09-11T21:00:24Z</time>
      </trkpt>
      <trkpt lat="-11.5697330" lon="-76.6628320">
        <ele>3401.9</ele>
        <time>2022-09-11T21:00:25Z</time>
      </trkpt>
      <trkpt lat="-11.5696640" lon="-76.6628430">
        <ele>3401.3</ele>
        <time>2022-09-11T21:00:26Z</time>
      </trkpt>
      <trkpt lat="-11.5696030" lon="-76.6628670">
        <ele>3400.8</ele>
        <time>2022-09-11T21:00:27Z</time>
      </trkpt>
      <trkpt lat="-11.5695540" lon="-76.6629080">
        <ele>3400.3</ele>
        <time>2022-09-11T21:00:28Z</time>
      </trkpt>
      <trkpt lat="-11.5695110" lon="-76.6629450">
        <ele>3400.0</ele>
        <time>2022-09-11T21:00:29Z</time>
      </trkpt>
      <trkpt lat="-11.5694580" lon="-76.6629700">
        <ele>3399.6</ele>
        <time>2022-09-11T21:00:30Z</time>
      </trkpt>
      <trkpt lat="-11.5693950" lon="-76.6629900">
        <ele>3399.1</ele>
        <time>2022-09-11T21:00:31Z</time>
      </trkpt>
      <trkpt lat="-11.5693370" lon="-76.6630140">
        <ele>3398.6</ele>
        <time>2022-09-11T21:00:32Z</time>
      </trkpt>
      <trkpt lat="-11.5692880" lon="-76.6630520">
        <ele>3398.3</ele>
        <time>2022-09-11T21:00:33Z</time>
      </trkpt>
      <trkpt lat="-11.5692430" lon="-76.6631030">
        <ele>3397.9</ele>
        <time>2022-09-11T21:00:34Z</time>
      </trkpt>
      <trkpt lat="-11.5692100" lon="-76.6631610">
        <ele>3397.5</ele>
        <time>2022-09-11T21:00:35Z</time>
      </trkpt>
      <trkpt lat="-11.5691740" lon="-76.6632220">
        <ele>3397.2</ele>
        <time>2022-09-11T21:00:36Z</time>
      </trkpt>
      <trkpt lat="-11.5691290" lon="-76.6632820">
        <ele>3396.9</ele>
        <time>2022-09-11T21:00:37Z</time>
      </trkpt>
      <trkpt lat="-11.5690940" lon="-76.6633210">
        <ele>3396.8</ele>
        <time>2022-09-11T21:00:38Z</time>
      </trkpt>
      <trkpt lat="-11.5690830" lon="-76.6633330">
        <ele>3396.7</ele>
        <time>2022-09-11T21:00:39Z</time>
      </trkpt>
      <trkpt lat="-11.5690790" lon="-76.6633280">
        <ele>3396.7</ele>
        <time>2022-09-11T21:00:40Z</time>
      </trkpt>
      <trkpt lat="-11.5690740" lon="-76.6633250">
        <ele>3396.7</ele>
        <time>2022-09-11T21:00:41Z</time>
      </trkpt>
      <trkpt lat="-11.5690620" lon="-76.6633310">
        <ele>3396.7</ele>
        <time>2022-09-11T21:00:42Z</time>
      </trkpt>
      <trkpt lat="-11.5690490" lon="-76.6633300">
        <ele>3396.7</ele>
        <time>2022-09-11T21:00:43Z</time>
      </trkpt>
      <trkpt lat="-11.5690340" lon="-76.6633370">
        <ele>3396.7</ele>
        <time>2022-09-11T21:00:44Z</time>
      </trkpt>
      <trkpt lat="-11.5690180" lon="-76.6633500">
        <ele>3396.7</ele>
        <time>2022-09-11T21:00:45Z</time>
      </trkpt>
      <trkpt lat="-11.5690090" lon="-76.6633600">
        <ele>3396.6</ele>
        <time>2022-09-11T21:00:46Z</time>
      </trkpt>
      <trkpt lat="-11.5689770" lon="-76.6633770">
        <ele>3396.6</ele>
        <time>2022-09-11T21:00:48Z</time>
      </trkpt>
      <trkpt lat="-11.5689440" lon="-76.6633810">
        <ele>3396.5</ele>
        <time>2022-09-11T21:00:49Z</time>
      </trkpt>
      <trkpt lat="-11.5689340" lon="-76.6633830">
        <ele>3396.5</ele>
        <time>2022-09-11T21:00:50Z</time>
      </trkpt>
      <trkpt lat="-11.5688990" lon="-76.6633860">
        <ele>3396.4</ele>
        <time>2022-09-11T21:00:51Z</time>
      </trkpt>
      <trkpt lat="-11.5688860" lon="-76.6633850">
        <ele>3396.4</ele>
        <time>2022-09-11T21:00:52Z</time>
      </trkpt>
      <trkpt lat="-11.5688540" lon="-76.6633960">
        <ele>3396.2</ele>
        <time>2022-09-11T21:00:53Z</time>
      </trkpt>
      <trkpt lat="-11.5688450" lon="-76.6634000">
        <ele>3396.2</ele>
        <time>2022-09-11T21:00:54Z</time>
      </trkpt>
      <trkpt lat="-11.5688030" lon="-76.6634100">
        <ele>3396.0</ele>
        <time>2022-09-11T21:00:56Z</time>
      </trkpt>
      <trkpt lat="-11.5687700" lon="-76.6634160">
        <ele>3395.9</ele>
        <time>2022-09-11T21:00:57Z</time>
      </trkpt>
      <trkpt lat="-11.5687350" lon="-76.6634120">
        <ele>3395.8</ele>
        <time>2022-09-11T21:00:58Z</time>
      </trkpt>
      <trkpt lat="-11.5686890" lon="-76.6634090">
        <ele>3395.6</ele>
        <time>2022-09-11T21:01:00Z</time>
      </trkpt>
      <trkpt lat="-11.5686460" lon="-76.6634100">
        <ele>3395.4</ele>
        <time>2022-09-11T21:01:01Z</time>
      </trkpt>
      <trkpt lat="-11.5686160" lon="-76.6634140">
        <ele>3395.2</ele>
        <time>2022-09-11T21:01:02Z</time>
      </trkpt>
      <trkpt lat="-11.5685830" lon="-76.6634320">
        <ele>3395.0</ele>
        <time>2022-09-11T21:01:03Z</time>
      </trkpt>
      <trkpt lat="-11.5685540" lon="-76.6634470">
        <ele>3394.8</ele>
        <time>2022-09-11T21:01:04Z</time>
      </trkpt>
      <trkpt lat="-11.5685180" lon="-76.6634700">
        <ele>3394.6</ele>
        <time>2022-09-11T21:01:06Z</time>
      </trkpt>
      <trkpt lat="-11.5684960" lon="-76.6635080">
        <ele>3394.3</ele>
        <time>2022-09-11T21:01:07Z</time>
      </trkpt>
      <trkpt lat="-11.5684780" lon="-76.6635600">
        <ele>3393.9</ele>
        <time>2022-09-11T21:01:08Z</time>
      </trkpt>
      <trkpt lat="-11.5684450" lon="-76.6636500">
        <ele>3393.3</ele>
        <time>2022-09-11T21:01:09Z</time>
      </trkpt>
      <trkpt lat="-11.5684150" lon="-76.6636990">
        <ele>3393.0</ele>
        <time>2022-09-11T21:01:10Z</time>
      </trkpt>
      <trkpt lat="-11.5683920" lon="-76.6637450">
        <ele>3392.7</ele>
        <time>2022-09-11T21:01:11Z</time>
      </trkpt>
      <trkpt lat="-11.5683710" lon="-76.6637970">
        <ele>3392.4</ele>
        <time>2022-09-11T21:01:12Z</time>
      </trkpt>
      <trkpt lat="-11.5683470" lon="-76.6638550">
        <ele>3392.2</ele>
        <time>2022-09-11T21:01:13Z</time>
      </trkpt>
      <trkpt lat="-11.5683220" lon="-76.6639060">
        <ele>3392.0</ele>
        <time>2022-09-11T21:01:14Z</time>
      </trkpt>
      <trkpt lat="-11.5682980" lon="-76.6639460">
        <ele>3391.9</ele>
        <time>2022-09-11T21:01:15Z</time>
      </trkpt>
      <trkpt lat="-11.5682810" lon="-76.6639820">
        <ele>3391.8</ele>
        <time>2022-09-11T21:01:16Z</time>
      </trkpt>
      <trkpt lat="-11.5682690" lon="-76.6640100">
        <ele>3391.7</ele>
        <time>2022-09-11T21:01:17Z</time>
      </trkpt>
      <trkpt lat="-11.5682490" lon="-76.6640410">
        <ele>3391.6</ele>
        <time>2022-09-11T21:01:18Z</time>
      </trkpt>
      <trkpt lat="-11.5682090" lon="-76.6640440">
        <ele>3391.5</ele>
        <time>2022-09-11T21:01:19Z</time>
      </trkpt>
      <trkpt lat="-11.5681900" lon="-76.6640390">
        <ele>3391.5</ele>
        <time>2022-09-11T21:01:20Z</time>
      </trkpt>
      <trkpt lat="-11.5681540" lon="-76.6640400">
        <ele>3391.4</ele>
        <time>2022-09-11T21:01:21Z</time>
      </trkpt>
      <trkpt lat="-11.5681440" lon="-76.6640410">
        <ele>3391.4</ele>
        <time>2022-09-11T21:01:22Z</time>
      </trkpt>
      <trkpt lat="-11.5681130" lon="-76.6640400">
        <ele>3391.4</ele>
        <time>2022-09-11T21:01:23Z</time>
      </trkpt>
      <trkpt lat="-11.5680790" lon="-76.6640370">
        <ele>3391.3</ele>
        <time>2022-09-11T21:01:24Z</time>
      </trkpt>
      <trkpt lat="-11.5680680" lon="-76.6640360">
        <ele>3391.3</ele>
        <time>2022-09-11T21:01:25Z</time>
      </trkpt>
      <trkpt lat="-11.5680330" lon="-76.6640400">
        <ele>3391.2</ele>
        <time>2022-09-11T21:01:26Z</time>
      </trkpt>
      <trkpt lat="-11.5680210" lon="-76.6640410">
        <ele>3391.2</ele>
        <time>2022-09-11T21:01:27Z</time>
      </trkpt>
      <trkpt lat="-11.5679880" lon="-76.6640460">
        <ele>3391.1</ele>
        <time>2022-09-11T21:01:28Z</time>
      </trkpt>
      <trkpt lat="-11.5679770" lon="-76.6640490">
        <ele>3391.1</ele>
        <time>2022-09-11T21:01:29Z</time>
      </trkpt>
      <trkpt lat="-11.5679470" lon="-76.6640530">
        <ele>3391.0</ele>
        <time>2022-09-11T21:01:30Z</time>
      </trkpt>
      <trkpt lat="-11.5679380" lon="-76.6640530">
        <ele>3391.0</ele>
        <time>2022-09-11T21:01:31Z</time>
      </trkpt>
      <trkpt lat="-11.5679090" lon="-76.6640550">
        <ele>3390.9</ele>
        <time>2022-09-11T21:01:32Z</time>
      </trkpt>
      <trkpt lat="-11.5678970" lon="-76.6640550">
        <ele>3390.8</ele>
        <time>2022-09-11T21:01:33Z</time>
      </trkpt>
      <trkpt lat="-11.5678620" lon="-76.6640520">
        <ele>3390.7</ele>
        <time>2022-09-11T21:01:34Z</time>
      </trkpt>
      <trkpt lat="-11.5678510" lon="-76.6640500">
        <ele>3390.7</ele>
        <time>2022-09-11T21:01:35Z</time>
      </trkpt>
      <trkpt lat="-11.5678160" lon="-76.6640490">
        <ele>3390.6</ele>
        <time>2022-09-11T21:01:36Z</time>
      </trkpt>
      <trkpt lat="-11.5678060" lon="-76.6640490">
        <ele>3390.5</ele>
        <time>2022-09-11T21:01:37Z</time>
      </trkpt>
      <trkpt lat="-11.5677740" lon="-76.6640430">
        <ele>3390.4</ele>
        <time>2022-09-11T21:01:38Z</time>
      </trkpt>
      <trkpt lat="-11.5677640" lon="-76.6640410">
        <ele>3390.4</ele>
        <time>2022-09-11T21:01:39Z</time>
      </trkpt>
      <trkpt lat="-11.5677280" lon="-76.6640270">
        <ele>3390.2</ele>
        <time>2022-09-11T21:01:40Z</time>
      </trkpt>
      <trkpt lat="-11.5677170" lon="-76.6640210">
        <ele>3390.2</ele>
        <time>2022-09-11T21:01:41Z</time>
      </trkpt>
      <trkpt lat="-11.5676910" lon="-76.6640050">
        <ele>3390.1</ele>
        <time>2022-09-11T21:01:42Z</time>
      </trkpt>
      <trkpt lat="-11.5676840" lon="-76.6640000">
        <ele>3390.0</ele>
        <time>2022-09-11T21:01:43Z</time>
      </trkpt>
      <trkpt lat="-11.5676610" lon="-76.6639850">
        <ele>3389.9</ele>
        <time>2022-09-11T21:01:44Z</time>
      </trkpt>
      <trkpt lat="-11.5676530" lon="-76.6639810">
        <ele>3389.9</ele>
        <time>2022-09-11T21:01:45Z</time>
      </trkpt>
      <trkpt lat="-11.5676230" lon="-76.6639760">
        <ele>3389.8</ele>
        <time>2022-09-11T21:01:46Z</time>
      </trkpt>
      <trkpt lat="-11.5675920" lon="-76.6639740">
        <ele>3389.6</ele>
        <time>2022-09-11T21:01:47Z</time>
      </trkpt>
      <trkpt lat="-11.5675530" lon="-76.6639750">
        <ele>3389.4</ele>
        <time>2022-09-11T21:01:48Z</time>
      </trkpt>
      <trkpt lat="-11.5675010" lon="-76.6639610">
        <ele>3389.1</ele>
        <time>2022-09-11T21:01:50Z</time>
      </trkpt>
      <trkpt lat="-11.5674560" lon="-76.6639400">
        <ele>3388.7</ele>
        <time>2022-09-11T21:01:51Z</time>
      </trkpt>
      <trkpt lat="-11.5674070" lon="-76.6639310">
        <ele>3388.4</ele>
        <time>2022-09-11T21:01:52Z</time>
      </trkpt>
      <trkpt lat="-11.5673250" lon="-76.6639060">
        <ele>3387.7</ele>
        <time>2022-09-11T21:01:53Z</time>
      </trkpt>
      <trkpt lat="-11.5672740" lon="-76.6638800">
        <ele>3387.4</ele>
        <time>2022-09-11T21:01:54Z</time>
      </trkpt>
      <trkpt lat="-11.5672240" lon="-76.6638480">
        <ele>3386.9</ele>
        <time>2022-09-11T21:01:55Z</time>
      </trkpt>
      <trkpt lat="-11.5671730" lon="-76.6638370">
        <ele>3386.5</ele>
        <time>2022-09-11T21:01:56Z</time>
      </trkpt>
      <trkpt lat="-11.5671200" lon="-76.6638430">
        <ele>3386.2</ele>
        <time>2022-09-11T21:01:57Z</time>
      </trkpt>
      <trkpt lat="-11.5670640" lon="-76.6638520">
        <ele>3385.9</ele>
        <time>2022-09-11T21:01:58Z</time>
      </trkpt>
      <trkpt lat="-11.5670120" lon="-76.6638640">
        <ele>3385.6</ele>
        <time>2022-09-11T21:01:59Z</time>
      </trkpt>
      <trkpt lat="-11.5669680" lon="-76.6638880">
        <ele>3385.3</ele>
        <time>2022-09-11T21:02:00Z</time>
      </trkpt>
      <trkpt lat="-11.5669280" lon="-76.6639160">
        <ele>3384.9</ele>
        <time>2022-09-11T21:02:01Z</time>
      </trkpt>
      <trkpt lat="-11.5669180" lon="-76.6639580">
        <ele>3384.6</ele>
        <time>2022-09-11T21:02:02Z</time>
      </trkpt>
      <trkpt lat="-11.5669070" lon="-76.6640060">
        <ele>3384.2</ele>
        <time>2022-09-11T21:02:03Z</time>
      </trkpt>
      <trkpt lat="-11.5668920" lon="-76.6640590">
        <ele>3383.8</ele>
        <time>2022-09-11T21:02:04Z</time>
      </trkpt>
      <trkpt lat="-11.5668750" lon="-76.6641090">
        <ele>3383.4</ele>
        <time>2022-09-11T21:02:05Z</time>
      </trkpt>
      <trkpt lat="-11.5668560" lon="-76.6641510">
        <ele>3383.0</ele>
        <time>2022-09-11T21:02:06Z</time>
      </trkpt>
      <trkpt lat="-11.5667950" lon="-76.6641610">
        <ele>3382.5</ele>
        <time>2022-09-11T21:02:07Z</time>
      </trkpt>
      <trkpt lat="-11.5667600" lon="-76.6641670">
        <ele>3382.2</ele>
        <time>2022-09-11T21:02:08Z</time>
      </trkpt>
      <trkpt lat="-11.5666940" lon="-76.6641740">
        <ele>3381.8</ele>
        <time>2022-09-11T21:02:09Z</time>
      </trkpt>
      <trkpt lat="-11.5666320" lon="-76.6641880">
        <ele>3381.5</ele>
        <time>2022-09-11T21:02:10Z</time>
      </trkpt>
      <trkpt lat="-11.5665710" lon="-76.6642170">
        <ele>3381.2</ele>
        <time>2022-09-11T21:02:11Z</time>
      </trkpt>
      <trkpt lat="-11.5665220" lon="-76.6642550">
        <ele>3380.9</ele>
        <time>2022-09-11T21:02:12Z</time>
      </trkpt>
      <trkpt lat="-11.5664780" lon="-76.6642910">
        <ele>3380.7</ele>
        <time>2022-09-11T21:02:13Z</time>
      </trkpt>
      <trkpt lat="-11.5664370" lon="-76.6643230">
        <ele>3380.4</ele>
        <time>2022-09-11T21:02:14Z</time>
      </trkpt>
      <trkpt lat="-11.5663920" lon="-76.6643510">
        <ele>3380.1</ele>
        <time>2022-09-11T21:02:15Z</time>
      </trkpt>
      <trkpt lat="-11.5663470" lon="-76.6643790">
        <ele>3379.8</ele>
        <time>2022-09-11T21:02:16Z</time>
      </trkpt>
      <trkpt lat="-11.5662980" lon="-76.6644060">
        <ele>3379.4</ele>
        <time>2022-09-11T21:02:17Z</time>
      </trkpt>
      <trkpt lat="-11.5662450" lon="-76.6644310">
        <ele>3379.0</ele>
        <time>2022-09-11T21:02:18Z</time>
      </trkpt>
      <trkpt lat="-11.5661950" lon="-76.6644580">
        <ele>3378.7</ele>
        <time>2022-09-11T21:02:19Z</time>
      </trkpt>
      <trkpt lat="-11.5661450" lon="-76.6644820">
        <ele>3378.4</ele>
        <time>2022-09-11T21:02:20Z</time>
      </trkpt>
      <trkpt lat="-11.5661000" lon="-76.6644960">
        <ele>3378.2</ele>
        <time>2022-09-11T21:02:21Z</time>
      </trkpt>
      <trkpt lat="-11.5660660" lon="-76.6645030">
        <ele>3378.0</ele>
        <time>2022-09-11T21:02:22Z</time>
      </trkpt>
      <trkpt lat="-11.5660370" lon="-76.6645040">
        <ele>3377.9</ele>
        <time>2022-09-11T21:02:23Z</time>
      </trkpt>
      <trkpt lat="-11.5659960" lon="-76.6644990">
        <ele>3377.7</ele>
        <time>2022-09-11T21:02:24Z</time>
      </trkpt>
      <trkpt lat="-11.5659620" lon="-76.6644990">
        <ele>3377.5</ele>
        <time>2022-09-11T21:02:25Z</time>
      </trkpt>
      <trkpt lat="-11.5659260" lon="-76.6645060">
        <ele>3377.3</ele>
        <time>2022-09-11T21:02:26Z</time>
      </trkpt>
      <trkpt lat="-11.5659080" lon="-76.6645210">
        <ele>3377.2</ele>
        <time>2022-09-11T21:02:27Z</time>
      </trkpt>
      <trkpt lat="-11.5659090" lon="-76.6645380">
        <ele>3377.1</ele>
        <time>2022-09-11T21:02:29Z</time>
      </trkpt>
      <trkpt lat="-11.5659060" lon="-76.6645830">
        <ele>3376.9</ele>
        <time>2022-09-11T21:02:30Z</time>
      </trkpt>
      <trkpt lat="-11.5659120" lon="-76.6646190">
        <ele>3376.8</ele>
        <time>2022-09-11T21:02:31Z</time>
      </trkpt>
      <trkpt lat="-11.5659110" lon="-76.6646570">
        <ele>3376.6</ele>
        <time>2022-09-11T21:02:32Z</time>
      </trkpt>
      <trkpt lat="-11.5659180" lon="-76.6646960">
        <ele>3376.4</ele>
        <time>2022-09-11T21:02:33Z</time>
      </trkpt>
      <trkpt lat="-11.5659370" lon="-76.6647260">
        <ele>3376.3</ele>
        <time>2022-09-11T21:02:34Z</time>
      </trkpt>
      <trkpt lat="-11.5659570" lon="-76.6647550">
        <ele>3376.1</ele>
        <time>2022-09-11T21:02:35Z</time>
      </trkpt>
      <trkpt lat="-11.5659890" lon="-76.6647990">
        <ele>3375.8</ele>
        <time>2022-09-11T21:02:37Z</time>
      </trkpt>
      <trkpt lat="-11.5660470" lon="-76.6648660">
        <ele>3375.2</ele>
        <time>2022-09-11T21:02:38Z</time>
      </trkpt>
      <trkpt lat="-11.5660880" lon="-76.6649070">
        <ele>3374.8</ele>
        <time>2022-09-11T21:02:39Z</time>
      </trkpt>
      <trkpt lat="-11.5661330" lon="-76.6649490">
        <ele>3374.3</ele>
        <time>2022-09-11T21:02:40Z</time>
      </trkpt>
      <trkpt lat="-11.5661820" lon="-76.6649930">
        <ele>3374.0</ele>
        <time>2022-09-11T21:02:41Z</time>
      </trkpt>
      <trkpt lat="-11.5662350" lon="-76.6650370">
        <ele>3373.6</ele>
        <time>2022-09-11T21:02:42Z</time>
      </trkpt>
      <trkpt lat="-11.5662850" lon="-76.6650800">
        <ele>3373.3</ele>
        <time>2022-09-11T21:02:43Z</time>
      </trkpt>
      <trkpt lat="-11.5663250" lon="-76.6651200">
        <ele>3373.1</ele>
        <time>2022-09-11T21:02:44Z</time>
      </trkpt>
      <trkpt lat="-11.5663570" lon="-76.6651570">
        <ele>3371.4</ele>
        <time>2022-09-11T21:02:45Z</time>
      </trkpt>
      <trkpt lat="-11.5663610" lon="-76.6651880">
        <ele>3371.2</ele>
        <time>2022-09-11T21:02:46Z</time>
      </trkpt>
      <trkpt lat="-11.5663570" lon="-76.6651970">
        <ele>3371.2</ele>
        <time>2022-09-11T21:02:47Z</time>
      </trkpt>
      <trkpt lat="-11.5663290" lon="-76.6652620">
        <ele>3370.9</ele>
        <time>2022-09-11T21:02:48Z</time>
      </trkpt>
      <trkpt lat="-11.5663100" lon="-76.6653150">
        <ele>3370.6</ele>
        <time>2022-09-11T21:02:49Z</time>
      </trkpt>
      <trkpt lat="-11.5662940" lon="-76.6653650">
        <ele>3370.4</ele>
        <time>2022-09-11T21:02:50Z</time>
      </trkpt>
      <trkpt lat="-11.5662820" lon="-76.6654170">
        <ele>3370.2</ele>
        <time>2022-09-11T21:02:51Z</time>
      </trkpt>
      <trkpt lat="-11.5662760" lon="-76.6654680">
        <ele>3370.0</ele>
        <time>2022-09-11T21:02:52Z</time>
      </trkpt>
      <trkpt lat="-11.5662800" lon="-76.6655220">
        <ele>3369.7</ele>
        <time>2022-09-11T21:02:53Z</time>
      </trkpt>
      <trkpt lat="-11.5662910" lon="-76.6655750">
        <ele>3369.5</ele>
        <time>2022-09-11T21:02:54Z</time>
      </trkpt>
      <trkpt lat="-11.5663090" lon="-76.6656280">
        <ele>3369.3</ele>
        <time>2022-09-11T21:02:55Z</time>
      </trkpt>
      <trkpt lat="-11.5663240" lon="-76.6656760">
        <ele>3369.0</ele>
        <time>2022-09-11T21:02:56Z</time>
      </trkpt>
      <trkpt lat="-11.5663340" lon="-76.6657230">
        <ele>3368.8</ele>
        <time>2022-09-11T21:02:57Z</time>
      </trkpt>
      <trkpt lat="-11.5663330" lon="-76.6657670">
        <ele>3368.6</ele>
        <time>2022-09-11T21:02:58Z</time>
      </trkpt>
      <trkpt lat="-11.5663120" lon="-76.6658070">
        <ele>3368.4</ele>
        <time>2022-09-11T21:02:59Z</time>
      </trkpt>
      <trkpt lat="-11.5662900" lon="-76.6658320">
        <ele>3368.2</ele>
        <time>2022-09-11T21:03:00Z</time>
      </trkpt>
      <trkpt lat="-11.5662550" lon="-76.6658520">
        <ele>3368.0</ele>
        <time>2022-09-11T21:03:01Z</time>
      </trkpt>
      <trkpt lat="-11.5662150" lon="-76.6658540">
        <ele>3367.7</ele>
        <time>2022-09-11T21:03:02Z</time>
      </trkpt>
      <trkpt lat="-11.5661750" lon="-76.6658380">
        <ele>3367.4</ele>
        <time>2022-09-11T21:03:03Z</time>
      </trkpt>
      <trkpt lat="-11.5661410" lon="-76.6658300">
        <ele>3367.1</ele>
        <time>2022-09-11T21:03:04Z</time>
      </trkpt>
      <trkpt lat="-11.5660880" lon="-76.6658400">
        <ele>3366.7</ele>
        <time>2022-09-11T21:03:05Z</time>
      </trkpt>
      <trkpt lat="-11.5660420" lon="-76.6658450">
        <ele>3366.4</ele>
        <time>2022-09-11T21:03:06Z</time>
      </trkpt>
      <trkpt lat="-11.5659960" lon="-76.6658500">
        <ele>3366.0</ele>
        <time>2022-09-11T21:03:07Z</time>
      </trkpt>
      <trkpt lat="-11.5659560" lon="-76.6658660">
        <ele>3365.6</ele>
        <time>2022-09-11T21:03:08Z</time>
      </trkpt>
      <trkpt lat="-11.5659060" lon="-76.6658860">
        <ele>3365.2</ele>
        <time>2022-09-11T21:03:09Z</time>
      </trkpt>
      <trkpt lat="-11.5658520" lon="-76.6658960">
        <ele>3364.8</ele>
        <time>2022-09-11T21:03:10Z</time>
      </trkpt>
      <trkpt lat="-11.5657940" lon="-76.6659080">
        <ele>3364.3</ele>
        <time>2022-09-11T21:03:11Z</time>
      </trkpt>
      <trkpt lat="-11.5657320" lon="-76.6659290">
        <ele>3363.8</ele>
        <time>2022-09-11T21:03:12Z</time>
      </trkpt>
      <trkpt lat="-11.5656730" lon="-76.6659630">
        <ele>3363.3</ele>
        <time>2022-09-11T21:03:13Z</time>
      </trkpt>
      <trkpt lat="-11.5656200" lon="-76.6660080">
        <ele>3362.9</ele>
        <time>2022-09-11T21:03:14Z</time>
      </trkpt>
      <trkpt lat="-11.5655740" lon="-76.6660670">
        <ele>3362.5</ele>
        <time>2022-09-11T21:03:15Z</time>
      </trkpt>
      <trkpt lat="-11.5655390" lon="-76.6661390">
        <ele>3362.1</ele>
        <time>2022-09-11T21:03:16Z</time>
      </trkpt>
      <trkpt lat="-11.5655200" lon="-76.6662150">
        <ele>3361.7</ele>
        <time>2022-09-11T21:03:17Z</time>
      </trkpt>
      <trkpt lat="-11.5655160" lon="-76.6662840">
        <ele>3361.3</ele>
        <time>2022-09-11T21:03:18Z</time>
      </trkpt>
      <trkpt lat="-11.5655090" lon="-76.6663320">
        <ele>3360.9</ele>
        <time>2022-09-11T21:03:19Z</time>
      </trkpt>
      <trkpt lat="-11.5654890" lon="-76.6663680">
        <ele>3360.6</ele>
        <time>2022-09-11T21:03:20Z</time>
      </trkpt>
      <trkpt lat="-11.5654380" lon="-76.6663950">
        <ele>3360.2</ele>
        <time>2022-09-11T21:03:21Z</time>
      </trkpt>
      <trkpt lat="-11.5653830" lon="-76.6664060">
        <ele>3359.9</ele>
        <time>2022-09-11T21:03:22Z</time>
      </trkpt>
      <trkpt lat="-11.5653320" lon="-76.6664220">
        <ele>3359.5</ele>
        <time>2022-09-11T21:03:23Z</time>
      </trkpt>
      <trkpt lat="-11.5652830" lon="-76.6664380">
        <ele>3359.1</ele>
        <time>2022-09-11T21:03:24Z</time>
      </trkpt>
      <trkpt lat="-11.5652320" lon="-76.6664580">
        <ele>3358.7</ele>
        <time>2022-09-11T21:03:25Z</time>
      </trkpt>
      <trkpt lat="-11.5651780" lon="-76.6664790">
        <ele>3358.3</ele>
        <time>2022-09-11T21:03:26Z</time>
      </trkpt>
      <trkpt lat="-11.5651260" lon="-76.6664880">
        <ele>3357.9</ele>
        <time>2022-09-11T21:03:27Z</time>
      </trkpt>
      <trkpt lat="-11.5650790" lon="-76.6664880">
        <ele>3357.7</ele>
        <time>2022-09-11T21:03:28Z</time>
      </trkpt>
      <trkpt lat="-11.5650300" lon="-76.6665040">
        <ele>3357.5</ele>
        <time>2022-09-11T21:03:29Z</time>
      </trkpt>
      <trkpt lat="-11.5649880" lon="-76.6665430">
        <ele>3357.2</ele>
        <time>2022-09-11T21:03:30Z</time>
      </trkpt>
      <trkpt lat="-11.5649560" lon="-76.6665890">
        <ele>3357.0</ele>
        <time>2022-09-11T21:03:31Z</time>
      </trkpt>
      <trkpt lat="-11.5649250" lon="-76.6666370">
        <ele>3356.7</ele>
        <time>2022-09-11T21:03:32Z</time>
      </trkpt>
      <trkpt lat="-11.5648930" lon="-76.6666840">
        <ele>3356.4</ele>
        <time>2022-09-11T21:03:33Z</time>
      </trkpt>
      <trkpt lat="-11.5648620" lon="-76.6667300">
        <ele>3356.1</ele>
        <time>2022-09-11T21:03:34Z</time>
      </trkpt>
      <trkpt lat="-11.5648330" lon="-76.6667730">
        <ele>3355.8</ele>
        <time>2022-09-11T21:03:35Z</time>
      </trkpt>
      <trkpt lat="-11.5648100" lon="-76.6668100">
        <ele>3355.5</ele>
        <time>2022-09-11T21:03:36Z</time>
      </trkpt>
      <trkpt lat="-11.5647880" lon="-76.6668310">
        <ele>3355.3</ele>
        <time>2022-09-11T21:03:37Z</time>
      </trkpt>
      <trkpt lat="-11.5647460" lon="-76.6668590">
        <ele>3354.9</ele>
        <time>2022-09-11T21:03:38Z</time>
      </trkpt>
      <trkpt lat="-11.5647100" lon="-76.6668770">
        <ele>3354.6</ele>
        <time>2022-09-11T21:03:39Z</time>
      </trkpt>
      <trkpt lat="-11.5646660" lon="-76.6669060">
        <ele>3354.1</ele>
        <time>2022-09-11T21:03:40Z</time>
      </trkpt>
      <trkpt lat="-11.5646160" lon="-76.6669350">
        <ele>3353.7</ele>
        <time>2022-09-11T21:03:41Z</time>
      </trkpt>
      <trkpt lat="-11.5645690" lon="-76.6669680">
        <ele>3353.3</ele>
        <time>2022-09-11T21:03:42Z</time>
      </trkpt>
      <trkpt lat="-11.5645290" lon="-76.6670200">
        <ele>3352.9</ele>
        <time>2022-09-11T21:03:43Z</time>
      </trkpt>
      <trkpt lat="-11.5644940" lon="-76.6670800">
        <ele>3352.5</ele>
        <time>2022-09-11T21:03:44Z</time>
      </trkpt>
      <trkpt lat="-11.5644560" lon="-76.6671320">
        <ele>3352.2</ele>
        <time>2022-09-11T21:03:45Z</time>
      </trkpt>
      <trkpt lat="-11.5643940" lon="-76.6671650">
        <ele>3351.8</ele>
        <time>2022-09-11T21:03:46Z</time>
      </trkpt>
      <trkpt lat="-11.5643220" lon="-76.6671850">
        <ele>3351.3</ele>
        <time>2022-09-11T21:03:47Z</time>
      </trkpt>
      <trkpt lat="-11.5642490" lon="-76.6671900">
        <ele>3350.7</ele>
        <time>2022-09-11T21:03:48Z</time>
      </trkpt>
      <trkpt lat="-11.5641840" lon="-76.6671750">
        <ele>3350.3</ele>
        <time>2022-09-11T21:03:49Z</time>
      </trkpt>
      <trkpt lat="-11.5641250" lon="-76.6671440">
        <ele>3349.7</ele>
        <time>2022-09-11T21:03:50Z</time>
      </trkpt>
      <trkpt lat="-11.5640750" lon="-76.6670970">
        <ele>3349.2</ele>
        <time>2022-09-11T21:03:51Z</time>
      </trkpt>
      <trkpt lat="-11.5640300" lon="-76.6670460">
        <ele>3348.6</ele>
        <time>2022-09-11T21:03:52Z</time>
      </trkpt>
      <trkpt lat="-11.5639750" lon="-76.6670000">
        <ele>3348.1</ele>
        <time>2022-09-11T21:03:53Z</time>
      </trkpt>
      <trkpt lat="-11.5639100" lon="-76.6669700">
        <ele>3347.5</ele>
        <time>2022-09-11T21:03:54Z</time>
      </trkpt>
      <trkpt lat="-11.5638410" lon="-76.6669670">
        <ele>3346.9</ele>
        <time>2022-09-11T21:03:55Z</time>
      </trkpt>
      <trkpt lat="-11.5637760" lon="-76.6669890">
        <ele>3346.4</ele>
        <time>2022-09-11T21:03:56Z</time>
      </trkpt>
      <trkpt lat="-11.5637250" lon="-76.6670260">
        <ele>3345.9</ele>
        <time>2022-09-11T21:03:57Z</time>
      </trkpt>
      <trkpt lat="-11.5636860" lon="-76.6670540">
        <ele>3345.5</ele>
        <time>2022-09-11T21:03:58Z</time>
      </trkpt>
      <trkpt lat="-11.5636350" lon="-76.6670650">
        <ele>3345.1</ele>
        <time>2022-09-11T21:03:59Z</time>
      </trkpt>
      <trkpt lat="-11.5635690" lon="-76.6670560">
        <ele>3344.7</ele>
        <time>2022-09-11T21:04:00Z</time>
      </trkpt>
      <trkpt lat="-11.5634960" lon="-76.6670410">
        <ele>3344.1</ele>
        <time>2022-09-11T21:04:01Z</time>
      </trkpt>
      <trkpt lat="-11.5634270" lon="-76.6670360">
        <ele>3343.5</ele>
        <time>2022-09-11T21:04:02Z</time>
      </trkpt>
      <trkpt lat="-11.5633680" lon="-76.6670550">
        <ele>3342.9</ele>
        <time>2022-09-11T21:04:03Z</time>
      </trkpt>
      <trkpt lat="-11.5633240" lon="-76.6670920">
        <ele>3342.4</ele>
        <time>2022-09-11T21:04:04Z</time>
      </trkpt>
      <trkpt lat="-11.5632880" lon="-76.6671270">
        <ele>3342.0</ele>
        <time>2022-09-11T21:04:05Z</time>
      </trkpt>
      <trkpt lat="-11.5632480" lon="-76.6671520">
        <ele>3341.7</ele>
        <time>2022-09-11T21:04:06Z</time>
      </trkpt>
      <trkpt lat="-11.5631930" lon="-76.6671610">
        <ele>3341.3</ele>
        <time>2022-09-11T21:04:07Z</time>
      </trkpt>
      <trkpt lat="-11.5631230" lon="-76.6671540">
        <ele>3340.8</ele>
        <time>2022-09-11T21:04:08Z</time>
      </trkpt>
      <trkpt lat="-11.5630480" lon="-76.6671410">
        <ele>3340.3</ele>
        <time>2022-09-11T21:04:09Z</time>
      </trkpt>
      <trkpt lat="-11.5629730" lon="-76.6671270">
        <ele>3339.9</ele>
        <time>2022-09-11T21:04:10Z</time>
      </trkpt>
      <trkpt lat="-11.5629000" lon="-76.6671150">
        <ele>3339.5</ele>
        <time>2022-09-11T21:04:11Z</time>
      </trkpt>
      <trkpt lat="-11.5628290" lon="-76.6671000">
        <ele>3339.0</ele>
        <time>2022-09-11T21:04:12Z</time>
      </trkpt>
      <trkpt lat="-11.5627600" lon="-76.6670840">
        <ele>3338.4</ele>
        <time>2022-09-11T21:04:13Z</time>
      </trkpt>
      <trkpt lat="-11.5627030" lon="-76.6670650">
        <ele>3338.0</ele>
        <time>2022-09-11T21:04:14Z</time>
      </trkpt>
      <trkpt lat="-11.5626570" lon="-76.6670460">
        <ele>3337.7</ele>
        <time>2022-09-11T21:04:15Z</time>
      </trkpt>
      <trkpt lat="-11.5626230" lon="-76.6670380">
        <ele>3337.5</ele>
        <time>2022-09-11T21:04:16Z</time>
      </trkpt>
      <trkpt lat="-11.5625840" lon="-76.6670470">
        <ele>3337.2</ele>
        <time>2022-09-11T21:04:17Z</time>
      </trkpt>
      <trkpt lat="-11.5625450" lon="-76.6670760">
        <ele>3336.9</ele>
        <time>2022-09-11T21:04:18Z</time>
      </trkpt>
      <trkpt lat="-11.5625240" lon="-76.6671200">
        <ele>3336.5</ele>
        <time>2022-09-11T21:04:19Z</time>
      </trkpt>
      <trkpt lat="-11.5625180" lon="-76.6671690">
        <ele>3336.2</ele>
        <time>2022-09-11T21:04:20Z</time>
      </trkpt>
      <trkpt lat="-11.5625190" lon="-76.6672070">
        <ele>3335.9</ele>
        <time>2022-09-11T21:04:21Z</time>
      </trkpt>
      <trkpt lat="-11.5625150" lon="-76.6672590">
        <ele>3335.5</ele>
        <time>2022-09-11T21:04:22Z</time>
      </trkpt>
      <trkpt lat="-11.5625130" lon="-76.6672920">
        <ele>3335.3</ele>
        <time>2022-09-11T21:04:23Z</time>
      </trkpt>
      <trkpt lat="-11.5624860" lon="-76.6673410">
        <ele>3334.9</ele>
        <time>2022-09-11T21:04:24Z</time>
      </trkpt>
      <trkpt lat="-11.5624580" lon="-76.6673920">
        <ele>3334.4</ele>
        <time>2022-09-11T21:04:25Z</time>
      </trkpt>
      <trkpt lat="-11.5624200" lon="-76.6674420">
        <ele>3334.0</ele>
        <time>2022-09-11T21:04:26Z</time>
      </trkpt>
      <trkpt lat="-11.5623860" lon="-76.6674980">
        <ele>3333.6</ele>
        <time>2022-09-11T21:04:27Z</time>
      </trkpt>
      <trkpt lat="-11.5623490" lon="-76.6675590">
        <ele>3333.1</ele>
        <time>2022-09-11T21:04:28Z</time>
      </trkpt>
      <trkpt lat="-11.5623160" lon="-76.6676180">
        <ele>3332.7</ele>
        <time>2022-09-11T21:04:29Z</time>
      </trkpt>
      <trkpt lat="-11.5622930" lon="-76.6676840">
        <ele>3332.2</ele>
        <time>2022-09-11T21:04:30Z</time>
      </trkpt>
      <trkpt lat="-11.5622840" lon="-76.6677620">
        <ele>3331.8</ele>
        <time>2022-09-11T21:04:31Z</time>
      </trkpt>
      <trkpt lat="-11.5622700" lon="-76.6678330">
        <ele>3331.5</ele>
        <time>2022-09-11T21:04:32Z</time>
      </trkpt>
      <trkpt lat="-11.5622530" lon="-76.6678970">
        <ele>3331.1</ele>
        <time>2022-09-11T21:04:33Z</time>
      </trkpt>
      <trkpt lat="-11.5622340" lon="-76.6679450">
        <ele>3330.8</ele>
        <time>2022-09-11T21:04:34Z</time>
      </trkpt>
      <trkpt lat="-11.5622190" lon="-76.6679730">
        <ele>3330.5</ele>
        <time>2022-09-11T21:04:35Z</time>
      </trkpt>
      <trkpt lat="-11.5621770" lon="-76.6679900">
        <ele>3330.2</ele>
        <time>2022-09-11T21:04:36Z</time>
      </trkpt>
      <trkpt lat="-11.5621580" lon="-76.6679960">
        <ele>3330.0</ele>
        <time>2022-09-11T21:04:37Z</time>
      </trkpt>
      <trkpt lat="-11.5621100" lon="-76.6680110">
        <ele>3329.6</ele>
        <time>2022-09-11T21:04:38Z</time>
      </trkpt>
      <trkpt lat="-11.5620780" lon="-76.6680490">
        <ele>3329.3</ele>
        <time>2022-09-11T21:04:39Z</time>
      </trkpt>
      <trkpt lat="-11.5620550" lon="-76.6680950">
        <ele>3329.0</ele>
        <time>2022-09-11T21:04:40Z</time>
      </trkpt>
      <trkpt lat="-11.5620340" lon="-76.6681480">
        <ele>3328.7</ele>
        <time>2022-09-11T21:04:41Z</time>
      </trkpt>
      <trkpt lat="-11.5620120" lon="-76.6682050">
        <ele>3328.2</ele>
        <time>2022-09-11T21:04:42Z</time>
      </trkpt>
      <trkpt lat="-11.5619830" lon="-76.6682600">
        <ele>3327.8</ele>
        <time>2022-09-11T21:04:43Z</time>
      </trkpt>
      <trkpt lat="-11.5619510" lon="-76.6683130">
        <ele>3327.4</ele>
        <time>2022-09-11T21:04:44Z</time>
      </trkpt>
      <trkpt lat="-11.5619440" lon="-76.6683670">
        <ele>3327.1</ele>
        <time>2022-09-11T21:04:45Z</time>
      </trkpt>
      <trkpt lat="-11.5619390" lon="-76.6684290">
        <ele>3326.8</ele>
        <time>2022-09-11T21:04:46Z</time>
      </trkpt>
      <trkpt lat="-11.5619370" lon="-76.6684880">
        <ele>3326.5</ele>
        <time>2022-09-11T21:04:47Z</time>
      </trkpt>
      <trkpt lat="-11.5619420" lon="-76.6685490">
        <ele>3326.3</ele>
        <time>2022-09-11T21:04:48Z</time>
      </trkpt>
      <trkpt lat="-11.5619580" lon="-76.6686100">
        <ele>3326.0</ele>
        <time>2022-09-11T21:04:49Z</time>
      </trkpt>
      <trkpt lat="-11.5619910" lon="-76.6686650">
        <ele>3325.7</ele>
        <time>2022-09-11T21:04:50Z</time>
      </trkpt>
      <trkpt lat="-11.5620300" lon="-76.6687140">
        <ele>3325.4</ele>
        <time>2022-09-11T21:04:51Z</time>
      </trkpt>
      <trkpt lat="-11.5620670" lon="-76.6687580">
        <ele>3324.9</ele>
        <time>2022-09-11T21:04:52Z</time>
      </trkpt>
      <trkpt lat="-11.5620940" lon="-76.6688010">
        <ele>3324.5</ele>
        <time>2022-09-11T21:04:53Z</time>
      </trkpt>
      <trkpt lat="-11.5620970" lon="-76.6688290">
        <ele>3324.3</ele>
        <time>2022-09-11T21:04:54Z</time>
      </trkpt>
      <trkpt lat="-11.5620930" lon="-76.6688680">
        <ele>3324.0</ele>
        <time>2022-09-11T21:04:55Z</time>
      </trkpt>
      <trkpt lat="-11.5620720" lon="-76.6689080">
        <ele>3323.6</ele>
        <time>2022-09-11T21:04:56Z</time>
      </trkpt>
      <trkpt lat="-11.5620430" lon="-76.6689640">
        <ele>3323.0</ele>
        <time>2022-09-11T21:04:57Z</time>
      </trkpt>
      <trkpt lat="-11.5620230" lon="-76.6690350">
        <ele>3322.5</ele>
        <time>2022-09-11T21:04:58Z</time>
      </trkpt>
      <trkpt lat="-11.5620150" lon="-76.6691050">
        <ele>3322.0</ele>
        <time>2022-09-11T21:04:59Z</time>
      </trkpt>
      <trkpt lat="-11.5620050" lon="-76.6691710">
        <ele>3321.6</ele>
        <time>2022-09-11T21:05:00Z</time>
      </trkpt>
      <trkpt lat="-11.5619970" lon="-76.6692320">
        <ele>3321.1</ele>
        <time>2022-09-11T21:05:01Z</time>
      </trkpt>
      <trkpt lat="-11.5620100" lon="-76.6692890">
        <ele>3320.6</ele>
        <time>2022-09-11T21:05:02Z</time>
      </trkpt>
      <trkpt lat="-11.5620370" lon="-76.6693400">
        <ele>3320.2</ele>
        <time>2022-09-11T21:05:03Z</time>
      </trkpt>
      <trkpt lat="-11.5620760" lon="-76.6693860">
        <ele>3319.9</ele>
        <time>2022-09-11T21:05:04Z</time>
      </trkpt>
      <trkpt lat="-11.5621160" lon="-76.6694330">
        <ele>3319.5</ele>
        <time>2022-09-11T21:05:05Z</time>
      </trkpt>
      <trkpt lat="-11.5621420" lon="-76.6694860">
        <ele>3319.2</ele>
        <time>2022-09-11T21:05:06Z</time>
      </trkpt>
      <trkpt lat="-11.5621620" lon="-76.6695420">
        <ele>3318.9</ele>
        <time>2022-09-11T21:05:07Z</time>
      </trkpt>
      <trkpt lat="-11.5621740" lon="-76.6696030">
        <ele>3318.5</ele>
        <time>2022-09-11T21:05:08Z</time>
      </trkpt>
      <trkpt lat="-11.5621850" lon="-76.6696680">
        <ele>3318.0</ele>
        <time>2022-09-11T21:05:09Z</time>
      </trkpt>
      <trkpt lat="-11.5621870" lon="-76.6697340">
        <ele>3317.5</ele>
        <time>2022-09-11T21:05:10Z</time>
      </trkpt>
      <trkpt lat="-11.5621880" lon="-76.6698000">
        <ele>3317.1</ele>
        <time>2022-09-11T21:05:11Z</time>
      </trkpt>
      <trkpt lat="-11.5621860" lon="-76.6698660">
        <ele>3316.7</ele>
        <time>2022-09-11T21:05:12Z</time>
      </trkpt>
      <trkpt lat="-11.5621900" lon="-76.6699420">
        <ele>3316.3</ele>
        <time>2022-09-11T21:05:13Z</time>
      </trkpt>
      <trkpt lat="-11.5621880" lon="-76.6700160">
        <ele>3315.9</ele>
        <time>2022-09-11T21:05:14Z</time>
      </trkpt>
      <trkpt lat="-11.5621880" lon="-76.6700880">
        <ele>3315.6</ele>
        <time>2022-09-11T21:05:15Z</time>
      </trkpt>
      <trkpt lat="-11.5621920" lon="-76.6701540">
        <ele>3315.3</ele>
        <time>2022-09-11T21:05:16Z</time>
      </trkpt>
      <trkpt lat="-11.5621930" lon="-76.6702190">
        <ele>3315.1</ele>
        <time>2022-09-11T21:05:17Z</time>
      </trkpt>
      <trkpt lat="-11.5621950" lon="-76.6702820">
        <ele>3315.0</ele>
        <time>2022-09-11T21:05:18Z</time>
      </trkpt>
      <trkpt lat="-11.5622030" lon="-76.6703390">
        <ele>3315.0</ele>
        <time>2022-09-11T21:05:19Z</time>
      </trkpt>
      <trkpt lat="-11.5622080" lon="-76.6703960">
        <ele>3314.9</ele>
        <time>2022-09-11T21:05:20Z</time>
      </trkpt>
      <trkpt lat="-11.5622190" lon="-76.6704480">
        <ele>3315.0</ele>
        <time>2022-09-11T21:05:21Z</time>
      </trkpt>
      <trkpt lat="-11.5622500" lon="-76.6704920">
        <ele>3315.0</ele>
        <time>2022-09-11T21:05:22Z</time>
      </trkpt>
      <trkpt lat="-11.5622890" lon="-76.6705310">
        <ele>3315.4</ele>
        <time>2022-09-11T21:05:23Z</time>
      </trkpt>
      <trkpt lat="-11.5623260" lon="-76.6705690">
        <ele>3315.4</ele>
        <time>2022-09-11T21:05:24Z</time>
      </trkpt>
      <trkpt lat="-11.5623540" lon="-76.6706110">
        <ele>3315.4</ele>
        <time>2022-09-11T21:05:25Z</time>
      </trkpt>
      <trkpt lat="-11.5623700" lon="-76.6706590">
        <ele>3315.4</ele>
        <time>2022-09-11T21:05:26Z</time>
      </trkpt>
      <trkpt lat="-11.5623710" lon="-76.6707050">
        <ele>3315.3</ele>
        <time>2022-09-11T21:05:27Z</time>
      </trkpt>
      <trkpt lat="-11.5623610" lon="-76.6707390">
        <ele>3315.3</ele>
        <time>2022-09-11T21:05:28Z</time>
      </trkpt>
      <trkpt lat="-11.5623430" lon="-76.6707650">
        <ele>3315.2</ele>
        <time>2022-09-11T21:05:29Z</time>
      </trkpt>
      <trkpt lat="-11.5623150" lon="-76.6707850">
        <ele>3315.2</ele>
        <time>2022-09-11T21:05:30Z</time>
      </trkpt>
      <trkpt lat="-11.5622680" lon="-76.6708090">
        <ele>3315.1</ele>
        <time>2022-09-11T21:05:31Z</time>
      </trkpt>
      <trkpt lat="-11.5622150" lon="-76.6708300">
        <ele>3314.9</ele>
        <time>2022-09-11T21:05:32Z</time>
      </trkpt>
      <trkpt lat="-11.5621600" lon="-76.6708550">
        <ele>3314.7</ele>
        <time>2022-09-11T21:05:33Z</time>
      </trkpt>
      <trkpt lat="-11.5621070" lon="-76.6708930">
        <ele>3314.5</ele>
        <time>2022-09-11T21:05:34Z</time>
      </trkpt>
      <trkpt lat="-11.5620540" lon="-76.6709250">
        <ele>3314.4</ele>
        <time>2022-09-11T21:05:35Z</time>
      </trkpt>
      <trkpt lat="-11.5619980" lon="-76.6709550">
        <ele>3314.2</ele>
        <time>2022-09-11T21:05:36Z</time>
      </trkpt>
      <trkpt lat="-11.5619450" lon="-76.6709900">
        <ele>3314.0</ele>
        <time>2022-09-11T21:05:37Z</time>
      </trkpt>
      <trkpt lat="-11.5618930" lon="-76.6710280">
        <ele>3313.7</ele>
        <time>2022-09-11T21:05:38Z</time>
      </trkpt>
      <trkpt lat="-11.5618470" lon="-76.6710630">
        <ele>3313.5</ele>
        <time>2022-09-11T21:05:39Z</time>
      </trkpt>
      <trkpt lat="-11.5618010" lon="-76.6710900">
        <ele>3313.3</ele>
        <time>2022-09-11T21:05:40Z</time>
      </trkpt>
      <trkpt lat="-11.5617480" lon="-76.6711010">
        <ele>3313.2</ele>
        <time>2022-09-11T21:05:41Z</time>
      </trkpt>
      <trkpt lat="-11.5616920" lon="-76.6711060">
        <ele>3313.1</ele>
        <time>2022-09-11T21:05:42Z</time>
      </trkpt>
      <trkpt lat="-11.5616340" lon="-76.6711210">
        <ele>3313.0</ele>
        <time>2022-09-11T21:05:43Z</time>
      </trkpt>
      <trkpt lat="-11.5615730" lon="-76.6711430">
        <ele>3312.9</ele>
        <time>2022-09-11T21:05:44Z</time>
      </trkpt>
      <trkpt lat="-11.5615150" lon="-76.6711700">
        <ele>3312.7</ele>
        <time>2022-09-11T21:05:45Z</time>
      </trkpt>
      <trkpt lat="-11.5614600" lon="-76.6712110">
        <ele>3312.6</ele>
        <time>2022-09-11T21:05:46Z</time>
      </trkpt>
      <trkpt lat="-11.5614150" lon="-76.6712650">
        <ele>3312.6</ele>
        <time>2022-09-11T21:05:47Z</time>
      </trkpt>
      <trkpt lat="-11.5613810" lon="-76.6713330">
        <ele>3312.7</ele>
        <time>2022-09-11T21:05:48Z</time>
      </trkpt>
      <trkpt lat="-11.5613570" lon="-76.6714010">
        <ele>3312.8</ele>
        <time>2022-09-11T21:05:49Z</time>
      </trkpt>
      <trkpt lat="-11.5613370" lon="-76.6714590">
        <ele>3312.9</ele>
        <time>2022-09-11T21:05:50Z</time>
      </trkpt>
      <trkpt lat="-11.5613150" lon="-76.6715130">
        <ele>3312.9</ele>
        <time>2022-09-11T21:05:51Z</time>
      </trkpt>
      <trkpt lat="-11.5612900" lon="-76.6715670">
        <ele>3312.9</ele>
        <time>2022-09-11T21:05:52Z</time>
      </trkpt>
      <trkpt lat="-11.5612650" lon="-76.6716190">
        <ele>3312.9</ele>
        <time>2022-09-11T21:05:53Z</time>
      </trkpt>
      <trkpt lat="-11.5612430" lon="-76.6716780">
        <ele>3312.9</ele>
        <time>2022-09-11T21:05:54Z</time>
      </trkpt>
      <trkpt lat="-11.5612220" lon="-76.6717460">
        <ele>3313.0</ele>
        <time>2022-09-11T21:05:55Z</time>
      </trkpt>
      <trkpt lat="-11.5612020" lon="-76.6718130">
        <ele>3313.1</ele>
        <time>2022-09-11T21:05:56Z</time>
      </trkpt>
      <trkpt lat="-11.5611880" lon="-76.6718760">
        <ele>3313.1</ele>
        <time>2022-09-11T21:05:57Z</time>
      </trkpt>
      <trkpt lat="-11.5611910" lon="-76.6719410">
        <ele>3313.1</ele>
        <time>2022-09-11T21:05:58Z</time>
      </trkpt>
      <trkpt lat="-11.5612010" lon="-76.6720020">
        <ele>3313.0</ele>
        <time>2022-09-11T21:05:59Z</time>
      </trkpt>
      <trkpt lat="-11.5612070" lon="-76.6720590">
        <ele>3312.9</ele>
        <time>2022-09-11T21:06:00Z</time>
      </trkpt>
      <trkpt lat="-11.5611970" lon="-76.6721090">
        <ele>3312.9</ele>
        <time>2022-09-11T21:06:01Z</time>
      </trkpt>
      <trkpt lat="-11.5611690" lon="-76.6721510">
        <ele>3312.9</ele>
        <time>2022-09-11T21:06:02Z</time>
      </trkpt>
      <trkpt lat="-11.5611280" lon="-76.6721890">
        <ele>3312.9</ele>
        <time>2022-09-11T21:06:03Z</time>
      </trkpt>
      <trkpt lat="-11.5610930" lon="-76.6722340">
        <ele>3312.9</ele>
        <time>2022-09-11T21:06:04Z</time>
      </trkpt>
      <trkpt lat="-11.5610740" lon="-76.6722890">
        <ele>3312.9</ele>
        <time>2022-09-11T21:06:05Z</time>
      </trkpt>
      <trkpt lat="-11.5610630" lon="-76.6723300">
        <ele>3312.9</ele>
        <time>2022-09-11T21:06:06Z</time>
      </trkpt>
      <trkpt lat="-11.5610420" lon="-76.6723490">
        <ele>3312.9</ele>
        <time>2022-09-11T21:06:07Z</time>
      </trkpt>
      <trkpt lat="-11.5610070" lon="-76.6723600">
        <ele>3312.8</ele>
        <time>2022-09-11T21:06:08Z</time>
      </trkpt>
      <trkpt lat="-11.5609600" lon="-76.6723600">
        <ele>3312.7</ele>
        <time>2022-09-11T21:06:09Z</time>
      </trkpt>
      <trkpt lat="-11.5609140" lon="-76.6723500">
        <ele>3312.6</ele>
        <time>2022-09-11T21:06:10Z</time>
      </trkpt>
      <trkpt lat="-11.5608670" lon="-76.6723430">
        <ele>3312.5</ele>
        <time>2022-09-11T21:06:11Z</time>
      </trkpt>
      <trkpt lat="-11.5608230" lon="-76.6723520">
        <ele>3312.4</ele>
        <time>2022-09-11T21:06:12Z</time>
      </trkpt>
      <trkpt lat="-11.5607840" lon="-76.6723700">
        <ele>3312.3</ele>
        <time>2022-09-11T21:06:13Z</time>
      </trkpt>
      <trkpt lat="-11.5607550" lon="-76.6723890">
        <ele>3312.2</ele>
        <time>2022-09-11T21:06:14Z</time>
      </trkpt>
      <trkpt lat="-11.5607160" lon="-76.6724190">
        <ele>3312.2</ele>
        <time>2022-09-11T21:06:15Z</time>
      </trkpt>
      <trkpt lat="-11.5606880" lon="-76.6724480">
        <ele>3312.1</ele>
        <time>2022-09-11T21:06:16Z</time>
      </trkpt>
      <trkpt lat="-11.5606570" lon="-76.6724690">
        <ele>3312.0</ele>
        <time>2022-09-11T21:06:17Z</time>
      </trkpt>
      <trkpt lat="-11.5606200" lon="-76.6724780">
        <ele>3311.9</ele>
        <time>2022-09-11T21:06:18Z</time>
      </trkpt>
      <trkpt lat="-11.5605720" lon="-76.6724600">
        <ele>3311.7</ele>
        <time>2022-09-11T21:06:19Z</time>
      </trkpt>
      <trkpt lat="-11.5605190" lon="-76.6724350">
        <ele>3311.5</ele>
        <time>2022-09-11T21:06:20Z</time>
      </trkpt>
      <trkpt lat="-11.5604620" lon="-76.6724140">
        <ele>3311.3</ele>
        <time>2022-09-11T21:06:21Z</time>
      </trkpt>
      <trkpt lat="-11.5603990" lon="-76.6724040">
        <ele>3311.0</ele>
        <time>2022-09-11T21:06:22Z</time>
      </trkpt>
      <trkpt lat="-11.5603380" lon="-76.6724130">
        <ele>3310.8</ele>
        <time>2022-09-11T21:06:23Z</time>
      </trkpt>
      <trkpt lat="-11.5602790" lon="-76.6724330">
        <ele>3310.6</ele>
        <time>2022-09-11T21:06:24Z</time>
      </trkpt>
      <trkpt lat="-11.5602240" lon="-76.6724590">
        <ele>3310.4</ele>
        <time>2022-09-11T21:06:25Z</time>
      </trkpt>
      <trkpt lat="-11.5601680" lon="-76.6724920">
        <ele>3310.1</ele>
        <time>2022-09-11T21:06:26Z</time>
      </trkpt>
      <trkpt lat="-11.5601150" lon="-76.6725310">
        <ele>3309.8</ele>
        <time>2022-09-11T21:06:27Z</time>
      </trkpt>
      <trkpt lat="-11.5600620" lon="-76.6725810">
        <ele>3309.4</ele>
        <time>2022-09-11T21:06:28Z</time>
      </trkpt>
      <trkpt lat="-11.5600230" lon="-76.6726330">
        <ele>3308.9</ele>
        <time>2022-09-11T21:06:29Z</time>
      </trkpt>
      <trkpt lat="-11.5599990" lon="-76.6726790">
        <ele>3308.4</ele>
        <time>2022-09-11T21:06:30Z</time>
      </trkpt>
      <trkpt lat="-11.5599860" lon="-76.6727160">
        <ele>3308.0</ele>
        <time>2022-09-11T21:06:31Z</time>
      </trkpt>
      <trkpt lat="-11.5599790" lon="-76.6727520">
        <ele>3307.7</ele>
        <time>2022-09-11T21:06:32Z</time>
      </trkpt>
      <trkpt lat="-11.5599740" lon="-76.6728050">
        <ele>3307.4</ele>
        <time>2022-09-11T21:06:33Z</time>
      </trkpt>
      <trkpt lat="-11.5599690" lon="-76.6728610">
        <ele>3307.1</ele>
        <time>2022-09-11T21:06:34Z</time>
      </trkpt>
      <trkpt lat="-11.5599620" lon="-76.6729190">
        <ele>3307.0</ele>
        <time>2022-09-11T21:06:35Z</time>
      </trkpt>
      <trkpt lat="-11.5599770" lon="-76.6729870">
        <ele>3306.9</ele>
        <time>2022-09-11T21:06:36Z</time>
      </trkpt>
      <trkpt lat="-11.5600060" lon="-76.6730640">
        <ele>3307.1</ele>
        <time>2022-09-11T21:06:37Z</time>
      </trkpt>
      <trkpt lat="-11.5600320" lon="-76.6731360">
        <ele>3307.4</ele>
        <time>2022-09-11T21:06:38Z</time>
      </trkpt>
      <trkpt lat="-11.5600500" lon="-76.6731980">
        <ele>3307.8</ele>
        <time>2022-09-11T21:06:39Z</time>
      </trkpt>
      <trkpt lat="-11.5600690" lon="-76.6732490">
        <ele>3308.3</ele>
        <time>2022-09-11T21:06:40Z</time>
      </trkpt>
      <trkpt lat="-11.5600830" lon="-76.6732790">
        <ele>3308.5</ele>
        <time>2022-09-11T21:06:41Z</time>
      </trkpt>
      <trkpt lat="-11.5600990" lon="-76.6733100">
        <ele>3308.8</ele>
        <time>2022-09-11T21:06:42Z</time>
      </trkpt>
      <trkpt lat="-11.5601150" lon="-76.6733440">
        <ele>3309.1</ele>
        <time>2022-09-11T21:06:43Z</time>
      </trkpt>
      <trkpt lat="-11.5601300" lon="-76.6733790">
        <ele>3309.5</ele>
        <time>2022-09-11T21:06:44Z</time>
      </trkpt>
      <trkpt lat="-11.5601410" lon="-76.6734130">
        <ele>3309.9</ele>
        <time>2022-09-11T21:06:45Z</time>
      </trkpt>
      <trkpt lat="-11.5601420" lon="-76.6734430">
        <ele>3310.2</ele>
        <time>2022-09-11T21:06:46Z</time>
      </trkpt>
      <trkpt lat="-11.5601390" lon="-76.6734720">
        <ele>3310.5</ele>
        <time>2022-09-11T21:06:47Z</time>
      </trkpt>
      <trkpt lat="-11.5601270" lon="-76.6734990">
        <ele>3310.8</ele>
        <time>2022-09-11T21:06:48Z</time>
      </trkpt>
      <trkpt lat="-11.5601070" lon="-76.6735220">
        <ele>3311.1</ele>
        <time>2022-09-11T21:06:49Z</time>
      </trkpt>
      <trkpt lat="-11.5600990" lon="-76.6735300">
        <ele>3311.2</ele>
        <time>2022-09-11T21:06:50Z</time>
      </trkpt>
      <trkpt lat="-11.5600730" lon="-76.6735440">
        <ele>3311.5</ele>
        <time>2022-09-11T21:06:51Z</time>
      </trkpt>
      <trkpt lat="-11.5600640" lon="-76.6735480">
        <ele>3311.5</ele>
        <time>2022-09-11T21:06:52Z</time>
      </trkpt>
      <trkpt lat="-11.5600310" lon="-76.6735630">
        <ele>3311.8</ele>
        <time>2022-09-11T21:06:53Z</time>
      </trkpt>
      <trkpt lat="-11.5600190" lon="-76.6735690">
        <ele>3311.9</ele>
        <time>2022-09-11T21:06:54Z</time>
      </trkpt>
      <trkpt lat="-11.5599890" lon="-76.6735720">
        <ele>3312.1</ele>
        <time>2022-09-11T21:06:55Z</time>
      </trkpt>
      <trkpt lat="-11.5599790" lon="-76.6735720">
        <ele>3312.2</ele>
        <time>2022-09-11T21:06:56Z</time>
      </trkpt>
      <trkpt lat="-11.5599420" lon="-76.6735740">
        <ele>3312.4</ele>
        <time>2022-09-11T21:06:57Z</time>
      </trkpt>
      <trkpt lat="-11.5599290" lon="-76.6735750">
        <ele>3312.5</ele>
        <time>2022-09-11T21:06:58Z</time>
      </trkpt>
      <trkpt lat="-11.5598950" lon="-76.6735830">
        <ele>3312.7</ele>
        <time>2022-09-11T21:06:59Z</time>
      </trkpt>
      <trkpt lat="-11.5598840" lon="-76.6735860">
        <ele>3312.8</ele>
        <time>2022-09-11T21:07:00Z</time>
      </trkpt>
      <trkpt lat="-11.5598550" lon="-76.6735950">
        <ele>3313.0</ele>
        <time>2022-09-11T21:07:01Z</time>
      </trkpt>
      <trkpt lat="-11.5598440" lon="-76.6735980">
        <ele>3313.1</ele>
        <time>2022-09-11T21:07:02Z</time>
      </trkpt>
      <trkpt lat="-11.5598260" lon="-76.6736040">
        <ele>3313.3</ele>
        <time>2022-09-11T21:07:03Z</time>
      </trkpt>
      <trkpt lat="-11.5598100" lon="-76.6736100">
        <ele>3313.4</ele>
        <time>2022-09-11T21:07:04Z</time>
      </trkpt>
      <trkpt lat="-11.5597990" lon="-76.6736130">
        <ele>3313.5</ele>
        <time>2022-09-11T21:07:05Z</time>
      </trkpt>
      <trkpt lat="-11.5597890" lon="-76.6736170">
        <ele>3313.5</ele>
        <time>2022-09-11T21:07:06Z</time>
      </trkpt>
      <trkpt lat="-11.5597770" lon="-76.6736220">
        <ele>3313.6</ele>
        <time>2022-09-11T21:07:07Z</time>
      </trkpt>
      <trkpt lat="-11.5597590" lon="-76.6736230">
        <ele>3313.8</ele>
        <time>2022-09-11T21:07:08Z</time>
      </trkpt>
      <trkpt lat="-11.5597490" lon="-76.6736220">
        <ele>3313.9</ele>
        <time>2022-09-11T21:07:09Z</time>
      </trkpt>
      <trkpt lat="-11.5597400" lon="-76.6736200">
        <ele>3313.9</ele>
        <time>2022-09-11T21:07:10Z</time>
      </trkpt>
      <trkpt lat="-11.5597220" lon="-76.6736130">
        <ele>3314.1</ele>
        <time>2022-09-11T21:07:11Z</time>
      </trkpt>
      <trkpt lat="-11.5597140" lon="-76.6736110">
        <ele>3314.2</ele>
        <time>2022-09-11T21:07:12Z</time>
      </trkpt>
      <trkpt lat="-11.5597060" lon="-76.6736080">
        <ele>3314.2</ele>
        <time>2022-09-11T21:07:13Z</time>
      </trkpt>
      <trkpt lat="-11.5596940" lon="-76.6736010">
        <ele>3314.4</ele>
        <time>2022-09-11T21:07:14Z</time>
      </trkpt>
      <trkpt lat="-11.5596860" lon="-76.6735940">
        <ele>3314.5</ele>
        <time>2022-09-11T21:07:15Z</time>
      </trkpt>
      <trkpt lat="-11.5596760" lon="-76.6735890">
        <ele>3314.6</ele>
        <time>2022-09-11T21:07:16Z</time>
      </trkpt>
      <trkpt lat="-11.5596640" lon="-76.6735850">
        <ele>3314.7</ele>
        <time>2022-09-11T21:07:17Z</time>
      </trkpt>
      <trkpt lat="-11.5596570" lon="-76.6735820">
        <ele>3314.8</ele>
        <time>2022-09-11T21:07:18Z</time>
      </trkpt>
      <trkpt lat="-11.5596470" lon="-76.6735750">
        <ele>3314.9</ele>
        <time>2022-09-11T21:07:19Z</time>
      </trkpt>
      <trkpt lat="-11.5596380" lon="-76.6735700">
        <ele>3315.0</ele>
        <time>2022-09-11T21:07:20Z</time>
      </trkpt>
      <trkpt lat="-11.5596270" lon="-76.6735650">
        <ele>3315.1</ele>
        <time>2022-09-11T21:07:21Z</time>
      </trkpt>
      <trkpt lat="-11.5596190" lon="-76.6735590">
        <ele>3315.2</ele>
        <time>2022-09-11T21:07:22Z</time>
      </trkpt>
      <trkpt lat="-11.5596090" lon="-76.6735530">
        <ele>3315.3</ele>
        <time>2022-09-11T21:07:23Z</time>
      </trkpt>
      <trkpt lat="-11.5596000" lon="-76.6735500">
        <ele>3315.4</ele>
        <time>2022-09-11T21:07:24Z</time>
      </trkpt>
      <trkpt lat="-11.5595890" lon="-76.6735470">
        <ele>3315.5</ele>
        <time>2022-09-11T21:07:25Z</time>
      </trkpt>
      <trkpt lat="-11.5595810" lon="-76.6735460">
        <ele>3315.6</ele>
        <time>2022-09-11T21:07:26Z</time>
      </trkpt>
      <trkpt lat="-11.5595710" lon="-76.6735450">
        <ele>3315.7</ele>
        <time>2022-09-11T21:07:27Z</time>
      </trkpt>
      <trkpt lat="-11.5595600" lon="-76.6735430">
        <ele>3315.8</ele>
        <time>2022-09-11T21:07:28Z</time>
      </trkpt>
      <trkpt lat="-11.5595510" lon="-76.6735410">
        <ele>3315.9</ele>
        <time>2022-09-11T21:07:29Z</time>
      </trkpt>
      <trkpt lat="-11.5595410" lon="-76.6735370">
        <ele>3316.0</ele>
        <time>2022-09-11T21:07:30Z</time>
      </trkpt>
      <trkpt lat="-11.5595310" lon="-76.6735330">
        <ele>3316.1</ele>
        <time>2022-09-11T21:07:31Z</time>
      </trkpt>
      <trkpt lat="-11.5595210" lon="-76.6735330">
        <ele>3316.1</ele>
        <time>2022-09-11T21:07:32Z</time>
      </trkpt>
      <trkpt lat="-11.5595080" lon="-76.6735330">
        <ele>3316.3</ele>
        <time>2022-09-11T21:07:33Z</time>
      </trkpt>
      <trkpt lat="-11.5594960" lon="-76.6735310">
        <ele>3316.3</ele>
        <time>2022-09-11T21:07:34Z</time>
      </trkpt>
      <trkpt lat="-11.5594820" lon="-76.6735300">
        <ele>3316.4</ele>
        <time>2022-09-11T21:07:35Z</time>
      </trkpt>
      <trkpt lat="-11.5594680" lon="-76.6735280">
        <ele>3316.5</ele>
        <time>2022-09-11T21:07:36Z</time>
      </trkpt>
      <trkpt lat="-11.5594590" lon="-76.6735270">
        <ele>3316.6</ele>
        <time>2022-09-11T21:07:37Z</time>
      </trkpt>
      <trkpt lat="-11.5594480" lon="-76.6735230">
        <ele>3316.7</ele>
        <time>2022-09-11T21:07:38Z</time>
      </trkpt>
      <trkpt lat="-11.5594380" lon="-76.6735210">
        <ele>3316.7</ele>
        <time>2022-09-11T21:07:39Z</time>
      </trkpt>
      <trkpt lat="-11.5594070" lon="-76.6735210">
        <ele>3316.9</ele>
        <time>2022-09-11T21:07:40Z</time>
      </trkpt>
      <trkpt lat="-11.5593960" lon="-76.6735220">
        <ele>3316.9</ele>
        <time>2022-09-11T21:07:41Z</time>
      </trkpt>
      <trkpt lat="-11.5593830" lon="-76.6735230">
        <ele>3317.0</ele>
        <time>2022-09-11T21:07:42Z</time>
      </trkpt>
      <trkpt lat="-11.5593610" lon="-76.6735250">
        <ele>3317.1</ele>
        <time>2022-09-11T21:07:43Z</time>
      </trkpt>
      <trkpt lat="-11.5593390" lon="-76.6735260">
        <ele>3317.1</ele>
        <time>2022-09-11T21:07:44Z</time>
      </trkpt>
      <trkpt lat="-11.5593130" lon="-76.6735280">
        <ele>3317.2</ele>
        <time>2022-09-11T21:07:46Z</time>
      </trkpt>
      <trkpt lat="-11.5592810" lon="-76.6735420">
        <ele>3317.4</ele>
        <time>2022-09-11T21:07:47Z</time>
      </trkpt>
      <trkpt lat="-11.5592560" lon="-76.6735580">
        <ele>3317.5</ele>
        <time>2022-09-11T21:07:48Z</time>
      </trkpt>
      <trkpt lat="-11.5592110" lon="-76.6735770">
        <ele>3317.6</ele>
        <time>2022-09-11T21:07:50Z</time>
      </trkpt>
      <trkpt lat="-11.5591780" lon="-76.6735950">
        <ele>3317.8</ele>
        <time>2022-09-11T21:07:51Z</time>
      </trkpt>
      <trkpt lat="-11.5591690" lon="-76.6736010">
        <ele>3317.8</ele>
        <time>2022-09-11T21:07:52Z</time>
      </trkpt>
      <trkpt lat="-11.5591340" lon="-76.6736210">
        <ele>3318.1</ele>
        <time>2022-09-11T21:07:54Z</time>
      </trkpt>
      <trkpt lat="-11.5591220" lon="-76.6736260">
        <ele>3318.1</ele>
        <time>2022-09-11T21:07:55Z</time>
      </trkpt>
      <trkpt lat="-11.5590970" lon="-76.6736430">
        <ele>3318.3</ele>
        <time>2022-09-11T21:07:56Z</time>
      </trkpt>
      <trkpt lat="-11.5590730" lon="-76.6736730">
        <ele>3318.6</ele>
        <time>2022-09-11T21:07:58Z</time>
      </trkpt>
      <trkpt lat="-11.5590650" lon="-76.6736910">
        <ele>3318.8</ele>
        <time>2022-09-11T21:07:59Z</time>
      </trkpt>
      <trkpt lat="-11.5590600" lon="-76.6737070">
        <ele>3318.9</ele>
        <time>2022-09-11T21:08:00Z</time>
      </trkpt>
      <trkpt lat="-11.5590460" lon="-76.6737360">
        <ele>3319.1</ele>
        <time>2022-09-11T21:08:01Z</time>
      </trkpt>
      <trkpt lat="-11.5590420" lon="-76.6737450">
        <ele>3319.2</ele>
        <time>2022-09-11T21:08:02Z</time>
      </trkpt>
      <trkpt lat="-11.5590350" lon="-76.6737710">
        <ele>3319.4</ele>
        <time>2022-09-11T21:08:03Z</time>
      </trkpt>
      <trkpt lat="-11.5590330" lon="-76.6737810">
        <ele>3319.4</ele>
        <time>2022-09-11T21:08:04Z</time>
      </trkpt>
      <trkpt lat="-11.5590270" lon="-76.6738090">
        <ele>3319.6</ele>
        <time>2022-09-11T21:08:05Z</time>
      </trkpt>
      <trkpt lat="-11.5590240" lon="-76.6738170">
        <ele>3319.6</ele>
        <time>2022-09-11T21:08:06Z</time>
      </trkpt>
      <trkpt lat="-11.5590070" lon="-76.6738380">
        <ele>3319.7</ele>
        <time>2022-09-11T21:08:07Z</time>
      </trkpt>
      <trkpt lat="-11.5589970" lon="-76.6738580">
        <ele>3319.8</ele>
        <time>2022-09-11T21:08:09Z</time>
      </trkpt>
      <trkpt lat="-11.5589800" lon="-76.6738810">
        <ele>3319.9</ele>
        <time>2022-09-11T21:08:10Z</time>
      </trkpt>
      <trkpt lat="-11.5589590" lon="-76.6739060">
        <ele>3319.9</ele>
        <time>2022-09-11T21:08:11Z</time>
      </trkpt>
      <trkpt lat="-11.5589280" lon="-76.6739300">
        <ele>3319.9</ele>
        <time>2022-09-11T21:08:12Z</time>
      </trkpt>
      <trkpt lat="-11.5588840" lon="-76.6739970">
        <ele>3319.9</ele>
        <time>2022-09-11T21:08:14Z</time>
      </trkpt>
      <trkpt lat="-11.5588720" lon="-76.6740440">
        <ele>3319.8</ele>
        <time>2022-09-11T21:08:15Z</time>
      </trkpt>
      <trkpt lat="-11.5588670" lon="-76.6740870">
        <ele>3319.7</ele>
        <time>2022-09-11T21:08:16Z</time>
      </trkpt>
      <trkpt lat="-11.5588800" lon="-76.6741530">
        <ele>3319.5</ele>
        <time>2022-09-11T21:08:17Z</time>
      </trkpt>
      <trkpt lat="-11.5588820" lon="-76.6742090">
        <ele>3319.4</ele>
        <time>2022-09-11T21:08:18Z</time>
      </trkpt>
      <trkpt lat="-11.5588650" lon="-76.6742640">
        <ele>3319.3</ele>
        <time>2022-09-11T21:08:19Z</time>
      </trkpt>
      <trkpt lat="-11.5588410" lon="-76.6743180">
        <ele>3319.2</ele>
        <time>2022-09-11T21:08:20Z</time>
      </trkpt>
      <trkpt lat="-11.5588040" lon="-76.6743610">
        <ele>3319.2</ele>
        <time>2022-09-11T21:08:21Z</time>
      </trkpt>
      <trkpt lat="-11.5587520" lon="-76.6743860">
        <ele>3319.2</ele>
        <time>2022-09-11T21:08:22Z</time>
      </trkpt>
      <trkpt lat="-11.5587050" lon="-76.6743990">
        <ele>3319.2</ele>
        <time>2022-09-11T21:08:23Z</time>
      </trkpt>
      <trkpt lat="-11.5586580" lon="-76.6744100">
        <ele>3319.3</ele>
        <time>2022-09-11T21:08:24Z</time>
      </trkpt>
      <trkpt lat="-11.5586130" lon="-76.6744170">
        <ele>3319.4</ele>
        <time>2022-09-11T21:08:25Z</time>
      </trkpt>
      <trkpt lat="-11.5585880" lon="-76.6744270">
        <ele>3319.4</ele>
        <time>2022-09-11T21:08:26Z</time>
      </trkpt>
      <trkpt lat="-11.5585270" lon="-76.6744360">
        <ele>3319.6</ele>
        <time>2022-09-11T21:08:28Z</time>
      </trkpt>
      <trkpt lat="-11.5584790" lon="-76.6744480">
        <ele>3319.8</ele>
        <time>2022-09-11T21:08:29Z</time>
      </trkpt>
      <trkpt lat="-11.5584330" lon="-76.6744600">
        <ele>3320.0</ele>
        <time>2022-09-11T21:08:30Z</time>
      </trkpt>
      <trkpt lat="-11.5583850" lon="-76.6745050">
        <ele>3320.3</ele>
        <time>2022-09-11T21:08:31Z</time>
      </trkpt>
      <trkpt lat="-11.5583720" lon="-76.6745310">
        <ele>3320.5</ele>
        <time>2022-09-11T21:08:32Z</time>
      </trkpt>
      <trkpt lat="-11.5583200" lon="-76.6745810">
        <ele>3320.9</ele>
        <time>2022-09-11T21:08:34Z</time>
      </trkpt>
      <trkpt lat="-11.5582950" lon="-76.6745900">
        <ele>3321.0</ele>
        <time>2022-09-11T21:08:35Z</time>
      </trkpt>
      <trkpt lat="-11.5582520" lon="-76.6745940">
        <ele>3321.2</ele>
        <time>2022-09-11T21:08:37Z</time>
      </trkpt>
      <trkpt lat="-11.5582120" lon="-76.6746120">
        <ele>3321.4</ele>
        <time>2022-09-11T21:08:38Z</time>
      </trkpt>
      <trkpt lat="-11.5581830" lon="-76.6746270">
        <ele>3321.5</ele>
        <time>2022-09-11T21:08:39Z</time>
      </trkpt>
      <trkpt lat="-11.5581430" lon="-76.6746540">
        <ele>3321.6</ele>
        <time>2022-09-11T21:08:40Z</time>
      </trkpt>
      <trkpt lat="-11.5581180" lon="-76.6746770">
        <ele>3321.7</ele>
        <time>2022-09-11T21:08:42Z</time>
      </trkpt>
      <trkpt lat="-11.5580930" lon="-76.6746960">
        <ele>3321.8</ele>
        <time>2022-09-11T21:08:43Z</time>
      </trkpt>
      <trkpt lat="-11.5580710" lon="-76.6747240">
        <ele>3321.9</ele>
        <time>2022-09-11T21:08:44Z</time>
      </trkpt>
      <trkpt lat="-11.5580480" lon="-76.6747540">
        <ele>3322.0</ele>
        <time>2022-09-11T21:08:45Z</time>
      </trkpt>
      <trkpt lat="-11.5580290" lon="-76.6747890">
        <ele>3322.0</ele>
        <time>2022-09-11T21:08:46Z</time>
      </trkpt>
      <trkpt lat="-11.5580150" lon="-76.6748230">
        <ele>3322.0</ele>
        <time>2022-09-11T21:08:47Z</time>
      </trkpt>
      <trkpt lat="-11.5580020" lon="-76.6748590">
        <ele>3322.0</ele>
        <time>2022-09-11T21:08:48Z</time>
      </trkpt>
      <trkpt lat="-11.5579920" lon="-76.6748940">
        <ele>3322.0</ele>
        <time>2022-09-11T21:08:49Z</time>
      </trkpt>
      <trkpt lat="-11.5579890" lon="-76.6749490">
        <ele>3321.9</ele>
        <time>2022-09-11T21:08:50Z</time>
      </trkpt>
      <trkpt lat="-11.5580110" lon="-76.6750430">
        <ele>3321.7</ele>
        <time>2022-09-11T21:08:52Z</time>
      </trkpt>
      <trkpt lat="-11.5580170" lon="-76.6750950">
        <ele>3321.6</ele>
        <time>2022-09-11T21:08:53Z</time>
      </trkpt>
      <trkpt lat="-11.5580210" lon="-76.6751500">
        <ele>3321.5</ele>
        <time>2022-09-11T21:08:54Z</time>
      </trkpt>
      <trkpt lat="-11.5580280" lon="-76.6752070">
        <ele>3321.4</ele>
        <time>2022-09-11T21:08:55Z</time>
      </trkpt>
      <trkpt lat="-11.5580340" lon="-76.6752680">
        <ele>3321.2</ele>
        <time>2022-09-11T21:08:56Z</time>
      </trkpt>
      <trkpt lat="-11.5580320" lon="-76.6753300">
        <ele>3321.0</ele>
        <time>2022-09-11T21:08:57Z</time>
      </trkpt>
      <trkpt lat="-11.5580300" lon="-76.6753940">
        <ele>3320.8</ele>
        <time>2022-09-11T21:08:58Z</time>
      </trkpt>
      <trkpt lat="-11.5580180" lon="-76.6754560">
        <ele>3320.7</ele>
        <time>2022-09-11T21:08:59Z</time>
      </trkpt>
      <trkpt lat="-11.5579950" lon="-76.6755180">
        <ele>3320.7</ele>
        <time>2022-09-11T21:09:00Z</time>
      </trkpt>
      <trkpt lat="-11.5579650" lon="-76.6755720">
        <ele>3320.7</ele>
        <time>2022-09-11T21:09:01Z</time>
      </trkpt>
      <trkpt lat="-11.5579320" lon="-76.6756240">
        <ele>3320.8</ele>
        <time>2022-09-11T21:09:02Z</time>
      </trkpt>
      <trkpt lat="-11.5578950" lon="-76.6756700">
        <ele>3320.8</ele>
        <time>2022-09-11T21:09:03Z</time>
      </trkpt>
      <trkpt lat="-11.5578570" lon="-76.6757150">
        <ele>3320.9</ele>
        <time>2022-09-11T21:09:04Z</time>
      </trkpt>
      <trkpt lat="-11.5578180" lon="-76.6757580">
        <ele>3321.0</ele>
        <time>2022-09-11T21:09:05Z</time>
      </trkpt>
      <trkpt lat="-11.5577750" lon="-76.6757940">
        <ele>3321.1</ele>
        <time>2022-09-11T21:09:06Z</time>
      </trkpt>
      <trkpt lat="-11.5577390" lon="-76.6758300">
        <ele>3321.2</ele>
        <time>2022-09-11T21:09:07Z</time>
      </trkpt>
      <trkpt lat="-11.5577030" lon="-76.6758720">
        <ele>3321.3</ele>
        <time>2022-09-11T21:09:08Z</time>
      </trkpt>
      <trkpt lat="-11.5576720" lon="-76.6759220">
        <ele>3321.4</ele>
        <time>2022-09-11T21:09:09Z</time>
      </trkpt>
      <trkpt lat="-11.5576390" lon="-76.6759660">
        <ele>3321.5</ele>
        <time>2022-09-11T21:09:10Z</time>
      </trkpt>
      <trkpt lat="-11.5576030" lon="-76.6760020">
        <ele>3321.5</ele>
        <time>2022-09-11T21:09:11Z</time>
      </trkpt>
      <trkpt lat="-11.5575630" lon="-76.6760380">
        <ele>3321.6</ele>
        <time>2022-09-11T21:09:12Z</time>
      </trkpt>
      <trkpt lat="-11.5575120" lon="-76.6760590">
        <ele>3321.6</ele>
        <time>2022-09-11T21:09:13Z</time>
      </trkpt>
      <trkpt lat="-11.5574570" lon="-76.6760610">
        <ele>3321.6</ele>
        <time>2022-09-11T21:09:14Z</time>
      </trkpt>
      <trkpt lat="-11.5574040" lon="-76.6760590">
        <ele>3321.5</ele>
        <time>2022-09-11T21:09:15Z</time>
      </trkpt>
      <trkpt lat="-11.5573540" lon="-76.6760570">
        <ele>3321.3</ele>
        <time>2022-09-11T21:09:16Z</time>
      </trkpt>
      <trkpt lat="-11.5572980" lon="-76.6760600">
        <ele>3321.2</ele>
        <time>2022-09-11T21:09:17Z</time>
      </trkpt>
      <trkpt lat="-11.5572410" lon="-76.6760690">
        <ele>3321.1</ele>
        <time>2022-09-11T21:09:18Z</time>
      </trkpt>
      <trkpt lat="-11.5571890" lon="-76.6760970">
        <ele>3321.0</ele>
        <time>2022-09-11T21:09:19Z</time>
      </trkpt>
      <trkpt lat="-11.5571410" lon="-76.6761340">
        <ele>3321.0</ele>
        <time>2022-09-11T21:09:20Z</time>
      </trkpt>
      <trkpt lat="-11.5570950" lon="-76.6761700">
        <ele>3320.5</ele>
        <time>2022-09-11T21:09:21Z</time>
      </trkpt>
      <trkpt lat="-11.5570560" lon="-76.6762160">
        <ele>3320.0</ele>
        <time>2022-09-11T21:09:22Z</time>
      </trkpt>
      <trkpt lat="-11.5570220" lon="-76.6762650">
        <ele>3319.6</ele>
        <time>2022-09-11T21:09:23Z</time>
      </trkpt>
      <trkpt lat="-11.5569870" lon="-76.6763100">
        <ele>3319.1</ele>
        <time>2022-09-11T21:09:24Z</time>
      </trkpt>
      <trkpt lat="-11.5569660" lon="-76.6763600">
        <ele>3318.7</ele>
        <time>2022-09-11T21:09:25Z</time>
      </trkpt>
      <trkpt lat="-11.5569380" lon="-76.6764110">
        <ele>3318.2</ele>
        <time>2022-09-11T21:09:26Z</time>
      </trkpt>
      <trkpt lat="-11.5569100" lon="-76.6764530">
        <ele>3317.8</ele>
        <time>2022-09-11T21:09:27Z</time>
      </trkpt>
      <trkpt lat="-11.5568760" lon="-76.6764920">
        <ele>3317.4</ele>
        <time>2022-09-11T21:09:28Z</time>
      </trkpt>
      <trkpt lat="-11.5568380" lon="-76.6765350">
        <ele>3317.0</ele>
        <time>2022-09-11T21:09:29Z</time>
      </trkpt>
      <trkpt lat="-11.5568080" lon="-76.6765850">
        <ele>3316.5</ele>
        <time>2022-09-11T21:09:30Z</time>
      </trkpt>
      <trkpt lat="-11.5567920" lon="-76.6766400">
        <ele>3316.1</ele>
        <time>2022-09-11T21:09:31Z</time>
      </trkpt>
      <trkpt lat="-11.5567840" lon="-76.6767070">
        <ele>3315.5</ele>
        <time>2022-09-11T21:09:32Z</time>
      </trkpt>
      <trkpt lat="-11.5567830" lon="-76.6767700">
        <ele>3315.0</ele>
        <time>2022-09-11T21:09:33Z</time>
      </trkpt>
      <trkpt lat="-11.5567900" lon="-76.6768370">
        <ele>3314.5</ele>
        <time>2022-09-11T21:09:34Z</time>
      </trkpt>
      <trkpt lat="-11.5567900" lon="-76.6768980">
        <ele>3314.0</ele>
        <time>2022-09-11T21:09:35Z</time>
      </trkpt>
      <trkpt lat="-11.5567710" lon="-76.6769520">
        <ele>3313.6</ele>
        <time>2022-09-11T21:09:36Z</time>
      </trkpt>
      <trkpt lat="-11.5567410" lon="-76.6769920">
        <ele>3313.2</ele>
        <time>2022-09-11T21:09:37Z</time>
      </trkpt>
      <trkpt lat="-11.5567030" lon="-76.6770210">
        <ele>3312.8</ele>
        <time>2022-09-11T21:09:38Z</time>
      </trkpt>
      <trkpt lat="-11.5566590" lon="-76.6770380">
        <ele>3312.4</ele>
        <time>2022-09-11T21:09:39Z</time>
      </trkpt>
      <trkpt lat="-11.5566100" lon="-76.6770500">
        <ele>3312.0</ele>
        <time>2022-09-11T21:09:40Z</time>
      </trkpt>
      <trkpt lat="-11.5565590" lon="-76.6770650">
        <ele>3311.6</ele>
        <time>2022-09-11T21:09:41Z</time>
      </trkpt>
      <trkpt lat="-11.5565010" lon="-76.6770850">
        <ele>3311.1</ele>
        <time>2022-09-11T21:09:42Z</time>
      </trkpt>
      <trkpt lat="-11.5564470" lon="-76.6771100">
        <ele>3310.6</ele>
        <time>2022-09-11T21:09:43Z</time>
      </trkpt>
      <trkpt lat="-11.5563960" lon="-76.6771400">
        <ele>3310.1</ele>
        <time>2022-09-11T21:09:44Z</time>
      </trkpt>
      <trkpt lat="-11.5563430" lon="-76.6771690">
        <ele>3309.6</ele>
        <time>2022-09-11T21:09:45Z</time>
      </trkpt>
      <trkpt lat="-11.5562880" lon="-76.6771950">
        <ele>3309.2</ele>
        <time>2022-09-11T21:09:46Z</time>
      </trkpt>
      <trkpt lat="-11.5562300" lon="-76.6772240">
        <ele>3308.6</ele>
        <time>2022-09-11T21:09:47Z</time>
      </trkpt>
      <trkpt lat="-11.5561810" lon="-76.6772460">
        <ele>3308.2</ele>
        <time>2022-09-11T21:09:48Z</time>
      </trkpt>
      <trkpt lat="-11.5561310" lon="-76.6772730">
        <ele>3307.8</ele>
        <time>2022-09-11T21:09:49Z</time>
      </trkpt>
      <trkpt lat="-11.5560850" lon="-76.6773140">
        <ele>3307.3</ele>
        <time>2022-09-11T21:09:50Z</time>
      </trkpt>
      <trkpt lat="-11.5560470" lon="-76.6773610">
        <ele>3306.8</ele>
        <time>2022-09-11T21:09:51Z</time>
      </trkpt>
      <trkpt lat="-11.5560130" lon="-76.6774130">
        <ele>3306.3</ele>
        <time>2022-09-11T21:09:52Z</time>
      </trkpt>
      <trkpt lat="-11.5559860" lon="-76.6774690">
        <ele>3305.8</ele>
        <time>2022-09-11T21:09:53Z</time>
      </trkpt>
      <trkpt lat="-11.5559710" lon="-76.6775300">
        <ele>3305.3</ele>
        <time>2022-09-11T21:09:54Z</time>
      </trkpt>
      <trkpt lat="-11.5559790" lon="-76.6775960">
        <ele>3304.8</ele>
        <time>2022-09-11T21:09:55Z</time>
      </trkpt>
      <trkpt lat="-11.5560040" lon="-76.6776580">
        <ele>3304.3</ele>
        <time>2022-09-11T21:09:56Z</time>
      </trkpt>
      <trkpt lat="-11.5560300" lon="-76.6777200">
        <ele>3303.7</ele>
        <time>2022-09-11T21:09:57Z</time>
      </trkpt>
      <trkpt lat="-11.5560640" lon="-76.6777820">
        <ele>3303.2</ele>
        <time>2022-09-11T21:09:58Z</time>
      </trkpt>
      <trkpt lat="-11.5560950" lon="-76.6778440">
        <ele>3302.6</ele>
        <time>2022-09-11T21:09:59Z</time>
      </trkpt>
      <trkpt lat="-11.5561280" lon="-76.6779120">
        <ele>3302.0</ele>
        <time>2022-09-11T21:10:00Z</time>
      </trkpt>
      <trkpt lat="-11.5561640" lon="-76.6779860">
        <ele>3301.4</ele>
        <time>2022-09-11T21:10:01Z</time>
      </trkpt>
      <trkpt lat="-11.5561910" lon="-76.6780620">
        <ele>3300.7</ele>
        <time>2022-09-11T21:10:02Z</time>
      </trkpt>
      <trkpt lat="-11.5562160" lon="-76.6781370">
        <ele>3300.1</ele>
        <time>2022-09-11T21:10:03Z</time>
      </trkpt>
      <trkpt lat="-11.5562370" lon="-76.6782040">
        <ele>3299.6</ele>
        <time>2022-09-11T21:10:04Z</time>
      </trkpt>
      <trkpt lat="-11.5562470" lon="-76.6782660">
        <ele>3299.1</ele>
        <time>2022-09-11T21:10:05Z</time>
      </trkpt>
      <trkpt lat="-11.5562320" lon="-76.6783300">
        <ele>3298.5</ele>
        <time>2022-09-11T21:10:06Z</time>
      </trkpt>
      <trkpt lat="-11.5562090" lon="-76.6783940">
        <ele>3298.0</ele>
        <time>2022-09-11T21:10:07Z</time>
      </trkpt>
      <trkpt lat="-11.5561920" lon="-76.6784560">
        <ele>3297.5</ele>
        <time>2022-09-11T21:10:08Z</time>
      </trkpt>
      <trkpt lat="-11.5561810" lon="-76.6785210">
        <ele>3297.0</ele>
        <time>2022-09-11T21:10:09Z</time>
      </trkpt>
      <trkpt lat="-11.5561740" lon="-76.6785850">
        <ele>3296.5</ele>
        <time>2022-09-11T21:10:10Z</time>
      </trkpt>
      <trkpt lat="-11.5561700" lon="-76.6786470">
        <ele>3296.0</ele>
        <time>2022-09-11T21:10:11Z</time>
      </trkpt>
      <trkpt lat="-11.5561720" lon="-76.6787050">
        <ele>3295.5</ele>
        <time>2022-09-11T21:10:12Z</time>
      </trkpt>
      <trkpt lat="-11.5561740" lon="-76.6787590">
        <ele>3295.1</ele>
        <time>2022-09-11T21:10:13Z</time>
      </trkpt>
      <trkpt lat="-11.5561750" lon="-76.6788120">
        <ele>3294.7</ele>
        <time>2022-09-11T21:10:14Z</time>
      </trkpt>
      <trkpt lat="-11.5561670" lon="-76.6788630">
        <ele>3294.3</ele>
        <time>2022-09-11T21:10:15Z</time>
      </trkpt>
      <trkpt lat="-11.5561480" lon="-76.6789170">
        <ele>3293.8</ele>
        <time>2022-09-11T21:10:16Z</time>
      </trkpt>
      <trkpt lat="-11.5561130" lon="-76.6789590">
        <ele>3293.4</ele>
        <time>2022-09-11T21:10:17Z</time>
      </trkpt>
      <trkpt lat="-11.5560670" lon="-76.6789900">
        <ele>3292.9</ele>
        <time>2022-09-11T21:10:18Z</time>
      </trkpt>
      <trkpt lat="-11.5560180" lon="-76.6790110">
        <ele>3292.5</ele>
        <time>2022-09-11T21:10:19Z</time>
      </trkpt>
      <trkpt lat="-11.5559630" lon="-76.6790260">
        <ele>3292.1</ele>
        <time>2022-09-11T21:10:20Z</time>
      </trkpt>
      <trkpt lat="-11.5559020" lon="-76.6790430">
        <ele>3291.6</ele>
        <time>2022-09-11T21:10:21Z</time>
      </trkpt>
      <trkpt lat="-11.5558390" lon="-76.6790620">
        <ele>3291.0</ele>
        <time>2022-09-11T21:10:22Z</time>
      </trkpt>
      <trkpt lat="-11.5557800" lon="-76.6790900">
        <ele>3290.5</ele>
        <time>2022-09-11T21:10:23Z</time>
      </trkpt>
      <trkpt lat="-11.5557280" lon="-76.6791350">
        <ele>3290.0</ele>
        <time>2022-09-11T21:10:24Z</time>
      </trkpt>
      <trkpt lat="-11.5556880" lon="-76.6791950">
        <ele>3289.4</ele>
        <time>2022-09-11T21:10:25Z</time>
      </trkpt>
      <trkpt lat="-11.5556580" lon="-76.6792630">
        <ele>3288.8</ele>
        <time>2022-09-11T21:10:26Z</time>
      </trkpt>
      <trkpt lat="-11.5556390" lon="-76.6793400">
        <ele>3288.2</ele>
        <time>2022-09-11T21:10:27Z</time>
      </trkpt>
      <trkpt lat="-11.5556360" lon="-76.6794160">
        <ele>3287.6</ele>
        <time>2022-09-11T21:10:28Z</time>
      </trkpt>
      <trkpt lat="-11.5556400" lon="-76.6794910">
        <ele>3287.0</ele>
        <time>2022-09-11T21:10:29Z</time>
      </trkpt>
      <trkpt lat="-11.5556430" lon="-76.6795660">
        <ele>3286.4</ele>
        <time>2022-09-11T21:10:30Z</time>
      </trkpt>
      <trkpt lat="-11.5556560" lon="-76.6796420">
        <ele>3285.8</ele>
        <time>2022-09-11T21:10:31Z</time>
      </trkpt>
      <trkpt lat="-11.5556820" lon="-76.6797150">
        <ele>3285.2</ele>
        <time>2022-09-11T21:10:32Z</time>
      </trkpt>
      <trkpt lat="-11.5557070" lon="-76.6797830">
        <ele>3284.6</ele>
        <time>2022-09-11T21:10:33Z</time>
      </trkpt>
      <trkpt lat="-11.5557270" lon="-76.6798470">
        <ele>3284.1</ele>
        <time>2022-09-11T21:10:34Z</time>
      </trkpt>
      <trkpt lat="-11.5557400" lon="-76.6799000">
        <ele>3283.6</ele>
        <time>2022-09-11T21:10:35Z</time>
      </trkpt>
      <trkpt lat="-11.5557550" lon="-76.6799520">
        <ele>3283.2</ele>
        <time>2022-09-11T21:10:36Z</time>
      </trkpt>
      <trkpt lat="-11.5557680" lon="-76.6800100">
        <ele>3282.7</ele>
        <time>2022-09-11T21:10:37Z</time>
      </trkpt>
      <trkpt lat="-11.5557750" lon="-76.6800710">
        <ele>3282.3</ele>
        <time>2022-09-11T21:10:38Z</time>
      </trkpt>
      <trkpt lat="-11.5557840" lon="-76.6801350">
        <ele>3281.8</ele>
        <time>2022-09-11T21:10:39Z</time>
      </trkpt>
      <trkpt lat="-11.5557930" lon="-76.6801960">
        <ele>3281.3</ele>
        <time>2022-09-11T21:10:40Z</time>
      </trkpt>
      <trkpt lat="-11.5558070" lon="-76.6802560">
        <ele>3280.8</ele>
        <time>2022-09-11T21:10:41Z</time>
      </trkpt>
      <trkpt lat="-11.5558210" lon="-76.6803180">
        <ele>3280.3</ele>
        <time>2022-09-11T21:10:42Z</time>
      </trkpt>
      <trkpt lat="-11.5558340" lon="-76.6803830">
        <ele>3279.8</ele>
        <time>2022-09-11T21:10:43Z</time>
      </trkpt>
      <trkpt lat="-11.5558440" lon="-76.6804490">
        <ele>3279.2</ele>
        <time>2022-09-11T21:10:44Z</time>
      </trkpt>
      <trkpt lat="-11.5558520" lon="-76.6805150">
        <ele>3278.7</ele>
        <time>2022-09-11T21:10:45Z</time>
      </trkpt>
      <trkpt lat="-11.5558640" lon="-76.6805820">
        <ele>3278.2</ele>
        <time>2022-09-11T21:10:46Z</time>
      </trkpt>
      <trkpt lat="-11.5558800" lon="-76.6806520">
        <ele>3277.6</ele>
        <time>2022-09-11T21:10:47Z</time>
      </trkpt>
      <trkpt lat="-11.5558870" lon="-76.6807240">
        <ele>3277.0</ele>
        <time>2022-09-11T21:10:48Z</time>
      </trkpt>
      <trkpt lat="-11.5558840" lon="-76.6807980">
        <ele>3276.5</ele>
        <time>2022-09-11T21:10:49Z</time>
      </trkpt>
      <trkpt lat="-11.5558880" lon="-76.6808690">
        <ele>3275.9</ele>
        <time>2022-09-11T21:10:50Z</time>
      </trkpt>
      <trkpt lat="-11.5559010" lon="-76.6809360">
        <ele>3275.4</ele>
        <time>2022-09-11T21:10:51Z</time>
      </trkpt>
      <trkpt lat="-11.5559300" lon="-76.6809980">
        <ele>3274.8</ele>
        <time>2022-09-11T21:10:52Z</time>
      </trkpt>
      <trkpt lat="-11.5559720" lon="-76.6810540">
        <ele>3274.3</ele>
        <time>2022-09-11T21:10:53Z</time>
      </trkpt>
      <trkpt lat="-11.5560170" lon="-76.6811110">
        <ele>3273.7</ele>
        <time>2022-09-11T21:10:54Z</time>
      </trkpt>
      <trkpt lat="-11.5560600" lon="-76.6811710">
        <ele>3273.1</ele>
        <time>2022-09-11T21:10:55Z</time>
      </trkpt>
      <trkpt lat="-11.5561000" lon="-76.6812340">
        <ele>3272.5</ele>
        <time>2022-09-11T21:10:56Z</time>
      </trkpt>
      <trkpt lat="-11.5561440" lon="-76.6812970">
        <ele>3271.9</ele>
        <time>2022-09-11T21:10:57Z</time>
      </trkpt>
      <trkpt lat="-11.5561880" lon="-76.6813600">
        <ele>3271.3</ele>
        <time>2022-09-11T21:10:58Z</time>
      </trkpt>
      <trkpt lat="-11.5562290" lon="-76.6814230">
        <ele>3270.7</ele>
        <time>2022-09-11T21:10:59Z</time>
      </trkpt>
      <trkpt lat="-11.5562630" lon="-76.6814930">
        <ele>3270.1</ele>
        <time>2022-09-11T21:11:00Z</time>
      </trkpt>
      <trkpt lat="-11.5562900" lon="-76.6815670">
        <ele>3269.5</ele>
        <time>2022-09-11T21:11:01Z</time>
      </trkpt>
      <trkpt lat="-11.5563100" lon="-76.6816430">
        <ele>3268.8</ele>
        <time>2022-09-11T21:11:02Z</time>
      </trkpt>
      <trkpt lat="-11.5563210" lon="-76.6817140">
        <ele>3268.3</ele>
        <time>2022-09-11T21:11:03Z</time>
      </trkpt>
      <trkpt lat="-11.5563290" lon="-76.6817850">
        <ele>3267.7</ele>
        <time>2022-09-11T21:11:04Z</time>
      </trkpt>
      <trkpt lat="-11.5563410" lon="-76.6818590">
        <ele>3267.1</ele>
        <time>2022-09-11T21:11:05Z</time>
      </trkpt>
      <trkpt lat="-11.5563700" lon="-76.6819300">
        <ele>3266.5</ele>
        <time>2022-09-11T21:11:06Z</time>
      </trkpt>
      <trkpt lat="-11.5564210" lon="-76.6819970">
        <ele>3265.8</ele>
        <time>2022-09-11T21:11:07Z</time>
      </trkpt>
      <trkpt lat="-11.5564820" lon="-76.6820640">
        <ele>3265.1</ele>
        <time>2022-09-11T21:11:08Z</time>
      </trkpt>
      <trkpt lat="-11.5565380" lon="-76.6821360">
        <ele>3264.4</ele>
        <time>2022-09-11T21:11:09Z</time>
      </trkpt>
      <trkpt lat="-11.5565800" lon="-76.6822160">
        <ele>3263.7</ele>
        <time>2022-09-11T21:11:10Z</time>
      </trkpt>
      <trkpt lat="-11.5566140" lon="-76.6822910">
        <ele>3263.0</ele>
        <time>2022-09-11T21:11:11Z</time>
      </trkpt>
      <trkpt lat="-11.5566410" lon="-76.6823610">
        <ele>3262.4</ele>
        <time>2022-09-11T21:11:12Z</time>
      </trkpt>
      <trkpt lat="-11.5566740" lon="-76.6824380">
        <ele>3261.8</ele>
        <time>2022-09-11T21:11:13Z</time>
      </trkpt>
      <trkpt lat="-11.5567170" lon="-76.6825160">
        <ele>3261.1</ele>
        <time>2022-09-11T21:11:14Z</time>
      </trkpt>
      <trkpt lat="-11.5567620" lon="-76.6825910">
        <ele>3260.4</ele>
        <time>2022-09-11T21:11:15Z</time>
      </trkpt>
      <trkpt lat="-11.5568030" lon="-76.6826680">
        <ele>3259.7</ele>
        <time>2022-09-11T21:11:16Z</time>
      </trkpt>
      <trkpt lat="-11.5568350" lon="-76.6827430">
        <ele>3259.1</ele>
        <time>2022-09-11T21:11:17Z</time>
      </trkpt>
      <trkpt lat="-11.5568640" lon="-76.6828060">
        <ele>3258.5</ele>
        <time>2022-09-11T21:11:18Z</time>
      </trkpt>
      <trkpt lat="-11.5568880" lon="-76.6828610">
        <ele>3258.0</ele>
        <time>2022-09-11T21:11:19Z</time>
      </trkpt>
      <trkpt lat="-11.5569060" lon="-76.6829160">
        <ele>3257.6</ele>
        <time>2022-09-11T21:11:20Z</time>
      </trkpt>
      <trkpt lat="-11.5569290" lon="-76.6829710">
        <ele>3257.1</ele>
        <time>2022-09-11T21:11:21Z</time>
      </trkpt>
      <trkpt lat="-11.5569650" lon="-76.6830220">
        <ele>3256.6</ele>
        <time>2022-09-11T21:11:22Z</time>
      </trkpt>
      <trkpt lat="-11.5570150" lon="-76.6830650">
        <ele>3256.1</ele>
        <time>2022-09-11T21:11:23Z</time>
      </trkpt>
      <trkpt lat="-11.5570690" lon="-76.6831020">
        <ele>3255.6</ele>
        <time>2022-09-11T21:11:24Z</time>
      </trkpt>
      <trkpt lat="-11.5571090" lon="-76.6831580">
        <ele>3255.0</ele>
        <time>2022-09-11T21:11:25Z</time>
      </trkpt>
      <trkpt lat="-11.5571340" lon="-76.6832320">
        <ele>3254.4</ele>
        <time>2022-09-11T21:11:26Z</time>
      </trkpt>
      <trkpt lat="-11.5571540" lon="-76.6833100">
        <ele>3253.8</ele>
        <time>2022-09-11T21:11:27Z</time>
      </trkpt>
      <trkpt lat="-11.5571850" lon="-76.6833750">
        <ele>3253.2</ele>
        <time>2022-09-11T21:11:28Z</time>
      </trkpt>
      <trkpt lat="-11.5572370" lon="-76.6834310">
        <ele>3252.6</ele>
        <time>2022-09-11T21:11:29Z</time>
      </trkpt>
      <trkpt lat="-11.5572990" lon="-76.6834870">
        <ele>3251.9</ele>
        <time>2022-09-11T21:11:30Z</time>
      </trkpt>
      <trkpt lat="-11.5573570" lon="-76.6835450">
        <ele>3251.3</ele>
        <time>2022-09-11T21:11:31Z</time>
      </trkpt>
      <trkpt lat="-11.5573970" lon="-76.6836110">
        <ele>3250.7</ele>
        <time>2022-09-11T21:11:32Z</time>
      </trkpt>
      <trkpt lat="-11.5574240" lon="-76.6836810">
        <ele>3250.1</ele>
        <time>2022-09-11T21:11:33Z</time>
      </trkpt>
      <trkpt lat="-11.5574400" lon="-76.6837570">
        <ele>3249.5</ele>
        <time>2022-09-11T21:11:34Z</time>
      </trkpt>
      <trkpt lat="-11.5574320" lon="-76.6838320">
        <ele>3248.9</ele>
        <time>2022-09-11T21:11:35Z</time>
      </trkpt>
      <trkpt lat="-11.5574150" lon="-76.6838920">
        <ele>3248.4</ele>
        <time>2022-09-11T21:11:36Z</time>
      </trkpt>
      <trkpt lat="-11.5573850" lon="-76.6839350">
        <ele>3247.9</ele>
        <time>2022-09-11T21:11:37Z</time>
      </trkpt>
      <trkpt lat="-11.5573410" lon="-76.6839610">
        <ele>3247.9</ele>
        <time>2022-09-11T21:11:38Z</time>
      </trkpt>
      <trkpt lat="-11.5572930" lon="-76.6839810">
        <ele>3247.9</ele>
        <time>2022-09-11T21:11:39Z</time>
      </trkpt>
      <trkpt lat="-11.5572400" lon="-76.6840060">
        <ele>3247.9</ele>
        <time>2022-09-11T21:11:40Z</time>
      </trkpt>
      <trkpt lat="-11.5571810" lon="-76.6840350">
        <ele>3247.8</ele>
        <time>2022-09-11T21:11:41Z</time>
      </trkpt>
      <trkpt lat="-11.5571150" lon="-76.6840670">
        <ele>3247.8</ele>
        <time>2022-09-11T21:11:42Z</time>
      </trkpt>
      <trkpt lat="-11.5570450" lon="-76.6841090">
        <ele>3247.8</ele>
        <time>2022-09-11T21:11:43Z</time>
      </trkpt>
      <trkpt lat="-11.5569880" lon="-76.6841730">
        <ele>3247.7</ele>
        <time>2022-09-11T21:11:44Z</time>
      </trkpt>
      <trkpt lat="-11.5569300" lon="-76.6842440">
        <ele>3247.7</ele>
        <time>2022-09-11T21:11:45Z</time>
      </trkpt>
      <trkpt lat="-11.5568530" lon="-76.6843040">
        <ele>3247.6</ele>
        <time>2022-09-11T21:11:46Z</time>
      </trkpt>
      <trkpt lat="-11.5567700" lon="-76.6843670">
        <ele>3247.6</ele>
        <time>2022-09-11T21:11:47Z</time>
      </trkpt>
      <trkpt lat="-11.5566960" lon="-76.6844380">
        <ele>3247.5</ele>
        <time>2022-09-11T21:11:48Z</time>
      </trkpt>
      <trkpt lat="-11.5566300" lon="-76.6845060">
        <ele>3247.5</ele>
        <time>2022-09-11T21:11:49Z</time>
      </trkpt>
      <trkpt lat="-11.5565580" lon="-76.6845590">
        <ele>3247.5</ele>
        <time>2022-09-11T21:11:50Z</time>
      </trkpt>
      <trkpt lat="-11.5564860" lon="-76.6845910">
        <ele>3247.4</ele>
        <time>2022-09-11T21:11:51Z</time>
      </trkpt>
      <trkpt lat="-11.5564200" lon="-76.6846210">
        <ele>3247.4</ele>
        <time>2022-09-11T21:11:52Z</time>
      </trkpt>
      <trkpt lat="-11.5563570" lon="-76.6846520">
        <ele>3247.4</ele>
        <time>2022-09-11T21:11:53Z</time>
      </trkpt>
      <trkpt lat="-11.5562930" lon="-76.6846800">
        <ele>3247.3</ele>
        <time>2022-09-11T21:11:54Z</time>
      </trkpt>
      <trkpt lat="-11.5562270" lon="-76.6847040">
        <ele>3247.3</ele>
        <time>2022-09-11T21:11:55Z</time>
      </trkpt>
      <trkpt lat="-11.5561650" lon="-76.6847290">
        <ele>3247.3</ele>
        <time>2022-09-11T21:11:56Z</time>
      </trkpt>
      <trkpt lat="-11.5561080" lon="-76.6847610">
        <ele>3247.2</ele>
        <time>2022-09-11T21:11:57Z</time>
      </trkpt>
      <trkpt lat="-11.5560560" lon="-76.6848070">
        <ele>3247.2</ele>
        <time>2022-09-11T21:11:58Z</time>
      </trkpt>
      <trkpt lat="-11.5560050" lon="-76.6848550">
        <ele>3247.2</ele>
        <time>2022-09-11T21:11:59Z</time>
      </trkpt>
      <trkpt lat="-11.5559580" lon="-76.6849060">
        <ele>3247.1</ele>
        <time>2022-09-11T21:12:00Z</time>
      </trkpt>
      <trkpt lat="-11.5559100" lon="-76.6849580">
        <ele>3247.1</ele>
        <time>2022-09-11T21:12:01Z</time>
      </trkpt>
      <trkpt lat="-11.5558540" lon="-76.6850100">
        <ele>3247.1</ele>
        <time>2022-09-11T21:12:02Z</time>
      </trkpt>
      <trkpt lat="-11.5557930" lon="-76.6850670">
        <ele>3246.7</ele>
        <time>2022-09-11T21:12:03Z</time>
      </trkpt>
      <trkpt lat="-11.5557320" lon="-76.6851250">
        <ele>3245.9</ele>
        <time>2022-09-11T21:12:04Z</time>
      </trkpt>
      <trkpt lat="-11.5556790" lon="-76.6851830">
        <ele>3245.2</ele>
        <time>2022-09-11T21:12:05Z</time>
      </trkpt>
      <trkpt lat="-11.5556330" lon="-76.6852400">
        <ele>3244.6</ele>
        <time>2022-09-11T21:12:06Z</time>
      </trkpt>
      <trkpt lat="-11.5555830" lon="-76.6852960">
        <ele>3244.0</ele>
        <time>2022-09-11T21:12:07Z</time>
      </trkpt>
      <trkpt lat="-11.5555320" lon="-76.6853600">
        <ele>3243.3</ele>
        <time>2022-09-11T21:12:08Z</time>
      </trkpt>
      <trkpt lat="-11.5554890" lon="-76.6854270">
        <ele>3242.6</ele>
        <time>2022-09-11T21:12:09Z</time>
      </trkpt>
      <trkpt lat="-11.5554480" lon="-76.6854980">
        <ele>3241.9</ele>
        <time>2022-09-11T21:12:10Z</time>
      </trkpt>
      <trkpt lat="-11.5554060" lon="-76.6855680">
        <ele>3241.2</ele>
        <time>2022-09-11T21:12:11Z</time>
      </trkpt>
      <trkpt lat="-11.5553590" lon="-76.6856370">
        <ele>3240.5</ele>
        <time>2022-09-11T21:12:12Z</time>
      </trkpt>
      <trkpt lat="-11.5553060" lon="-76.6857010">
        <ele>3239.7</ele>
        <time>2022-09-11T21:12:13Z</time>
      </trkpt>
      <trkpt lat="-11.5552520" lon="-76.6857620">
        <ele>3239.0</ele>
        <time>2022-09-11T21:12:14Z</time>
      </trkpt>
      <trkpt lat="-11.5551990" lon="-76.6858220">
        <ele>3238.4</ele>
        <time>2022-09-11T21:12:15Z</time>
      </trkpt>
      <trkpt lat="-11.5551560" lon="-76.6858820">
        <ele>3237.7</ele>
        <time>2022-09-11T21:12:16Z</time>
      </trkpt>
      <trkpt lat="-11.5551240" lon="-76.6859480">
        <ele>3237.1</ele>
        <time>2022-09-11T21:12:17Z</time>
      </trkpt>
      <trkpt lat="-11.5551010" lon="-76.6860170">
        <ele>3236.5</ele>
        <time>2022-09-11T21:12:18Z</time>
      </trkpt>
      <trkpt lat="-11.5550790" lon="-76.6860800">
        <ele>3235.9</ele>
        <time>2022-09-11T21:12:19Z</time>
      </trkpt>
      <trkpt lat="-11.5550450" lon="-76.6861340">
        <ele>3235.4</ele>
        <time>2022-09-11T21:12:20Z</time>
      </trkpt>
      <trkpt lat="-11.5549980" lon="-76.6861850">
        <ele>3234.8</ele>
        <time>2022-09-11T21:12:21Z</time>
      </trkpt>
      <trkpt lat="-11.5549440" lon="-76.6862370">
        <ele>3234.1</ele>
        <time>2022-09-11T21:12:22Z</time>
      </trkpt>
      <trkpt lat="-11.5548820" lon="-76.6862840">
        <ele>3233.4</ele>
        <time>2022-09-11T21:12:23Z</time>
      </trkpt>
      <trkpt lat="-11.5548120" lon="-76.6863330">
        <ele>3232.7</ele>
        <time>2022-09-11T21:12:24Z</time>
      </trkpt>
      <trkpt lat="-11.5547420" lon="-76.6863870">
        <ele>3231.9</ele>
        <time>2022-09-11T21:12:25Z</time>
      </trkpt>
      <trkpt lat="-11.5546730" lon="-76.6864450">
        <ele>3231.2</ele>
        <time>2022-09-11T21:12:26Z</time>
      </trkpt>
      <trkpt lat="-11.5546110" lon="-76.6865050">
        <ele>3230.4</ele>
        <time>2022-09-11T21:12:27Z</time>
      </trkpt>
      <trkpt lat="-11.5545510" lon="-76.6865530">
        <ele>3229.7</ele>
        <time>2022-09-11T21:12:28Z</time>
      </trkpt>
      <trkpt lat="-11.5544860" lon="-76.6865910">
        <ele>3229.1</ele>
        <time>2022-09-11T21:12:29Z</time>
      </trkpt>
      <trkpt lat="-11.5544160" lon="-76.6866280">
        <ele>3228.4</ele>
        <time>2022-09-11T21:12:30Z</time>
      </trkpt>
      <trkpt lat="-11.5543430" lon="-76.6866690">
        <ele>3227.7</ele>
        <time>2022-09-11T21:12:31Z</time>
      </trkpt>
      <trkpt lat="-11.5542700" lon="-76.6867110">
        <ele>3226.9</ele>
        <time>2022-09-11T21:12:32Z</time>
      </trkpt>
      <trkpt lat="-11.5541980" lon="-76.6867520">
        <ele>3226.2</ele>
        <time>2022-09-11T21:12:33Z</time>
      </trkpt>
      <trkpt lat="-11.5541270" lon="-76.6867900">
        <ele>3225.5</ele>
        <time>2022-09-11T21:12:34Z</time>
      </trkpt>
      <trkpt lat="-11.5540620" lon="-76.6868270">
        <ele>3224.9</ele>
        <time>2022-09-11T21:12:35Z</time>
      </trkpt>
      <trkpt lat="-11.5539990" lon="-76.6868570">
        <ele>3224.3</ele>
        <time>2022-09-11T21:12:36Z</time>
      </trkpt>
      <trkpt lat="-11.5539320" lon="-76.6868810">
        <ele>3223.7</ele>
        <time>2022-09-11T21:12:37Z</time>
      </trkpt>
      <trkpt lat="-11.5538620" lon="-76.6869160">
        <ele>3223.0</ele>
        <time>2022-09-11T21:12:38Z</time>
      </trkpt>
      <trkpt lat="-11.5537970" lon="-76.6869660">
        <ele>3222.3</ele>
        <time>2022-09-11T21:12:39Z</time>
      </trkpt>
      <trkpt lat="-11.5537420" lon="-76.6870310">
        <ele>3221.5</ele>
        <time>2022-09-11T21:12:40Z</time>
      </trkpt>
      <trkpt lat="-11.5536950" lon="-76.6871010">
        <ele>3220.8</ele>
        <time>2022-09-11T21:12:41Z</time>
      </trkpt>
      <trkpt lat="-11.5536560" lon="-76.6871690">
        <ele>3220.1</ele>
        <time>2022-09-11T21:12:42Z</time>
      </trkpt>
      <trkpt lat="-11.5536260" lon="-76.6872290">
        <ele>3219.6</ele>
        <time>2022-09-11T21:12:43Z</time>
      </trkpt>
      <trkpt lat="-11.5535990" lon="-76.6872700">
        <ele>3219.1</ele>
        <time>2022-09-11T21:12:44Z</time>
      </trkpt>
      <trkpt lat="-11.5535740" lon="-76.6873010">
        <ele>3218.8</ele>
        <time>2022-09-11T21:12:45Z</time>
      </trkpt>
      <trkpt lat="-11.5535410" lon="-76.6873140">
        <ele>3218.5</ele>
        <time>2022-09-11T21:12:46Z</time>
      </trkpt>
      <trkpt lat="-11.5535230" lon="-76.6873180">
        <ele>3218.3</ele>
        <time>2022-09-11T21:12:47Z</time>
      </trkpt>
      <trkpt lat="-11.5534860" lon="-76.6873140">
        <ele>3218.0</ele>
        <time>2022-09-11T21:12:48Z</time>
      </trkpt>
      <trkpt lat="-11.5534610" lon="-76.6872940">
        <ele>3217.7</ele>
        <time>2022-09-11T21:12:49Z</time>
      </trkpt>
      <trkpt lat="-11.5534500" lon="-76.6872680">
        <ele>3217.5</ele>
        <time>2022-09-11T21:12:50Z</time>
      </trkpt>
      <trkpt lat="-11.5534460" lon="-76.6872290">
        <ele>3217.2</ele>
        <time>2022-09-11T21:12:51Z</time>
      </trkpt>
      <trkpt lat="-11.5534510" lon="-76.6871880">
        <ele>3216.8</ele>
        <time>2022-09-11T21:12:52Z</time>
      </trkpt>
      <trkpt lat="-11.5534750" lon="-76.6871530">
        <ele>3216.4</ele>
        <time>2022-09-11T21:12:53Z</time>
      </trkpt>
      <trkpt lat="-11.5535100" lon="-76.6870910">
        <ele>3215.8</ele>
        <time>2022-09-11T21:12:54Z</time>
      </trkpt>
      <trkpt lat="-11.5535450" lon="-76.6870240">
        <ele>3215.2</ele>
        <time>2022-09-11T21:12:55Z</time>
      </trkpt>
      <trkpt lat="-11.5535820" lon="-76.6869560">
        <ele>3214.5</ele>
        <time>2022-09-11T21:12:56Z</time>
      </trkpt>
      <trkpt lat="-11.5536250" lon="-76.6868940">
        <ele>3213.9</ele>
        <time>2022-09-11T21:12:57Z</time>
      </trkpt>
      <trkpt lat="-11.5536720" lon="-76.6868350">
        <ele>3213.2</ele>
        <time>2022-09-11T21:12:58Z</time>
      </trkpt>
      <trkpt lat="-11.5537270" lon="-76.6867820">
        <ele>3212.6</ele>
        <time>2022-09-11T21:12:59Z</time>
      </trkpt>
      <trkpt lat="-11.5537890" lon="-76.6867250">
        <ele>3211.8</ele>
        <time>2022-09-11T21:13:00Z</time>
      </trkpt>
      <trkpt lat="-11.5538490" lon="-76.6866560">
        <ele>3211.0</ele>
        <time>2022-09-11T21:13:01Z</time>
      </trkpt>
      <trkpt lat="-11.5539130" lon="-76.6865860">
        <ele>3210.2</ele>
        <time>2022-09-11T21:13:02Z</time>
      </trkpt>
      <trkpt lat="-11.5539720" lon="-76.6865080">
        <ele>3209.4</ele>
        <time>2022-09-11T21:13:03Z</time>
      </trkpt>
      <trkpt lat="-11.5540230" lon="-76.6864200">
        <ele>3208.5</ele>
        <time>2022-09-11T21:13:04Z</time>
      </trkpt>
      <trkpt lat="-11.5540680" lon="-76.6863250">
        <ele>3207.6</ele>
        <time>2022-09-11T21:13:05Z</time>
      </trkpt>
      <trkpt lat="-11.5541140" lon="-76.6862270">
        <ele>3206.7</ele>
        <time>2022-09-11T21:13:06Z</time>
      </trkpt>
      <trkpt lat="-11.5541610" lon="-76.6861270">
        <ele>3205.7</ele>
        <time>2022-09-11T21:13:07Z</time>
      </trkpt>
      <trkpt lat="-11.5542170" lon="-76.6860280">
        <ele>3204.8</ele>
        <time>2022-09-11T21:13:08Z</time>
      </trkpt>
      <trkpt lat="-11.5542680" lon="-76.6859260">
        <ele>3203.8</ele>
        <time>2022-09-11T21:13:09Z</time>
      </trkpt>
      <trkpt lat="-11.5543090" lon="-76.6858320">
        <ele>3202.9</ele>
        <time>2022-09-11T21:13:10Z</time>
      </trkpt>
      <trkpt lat="-11.5543470" lon="-76.6857480">
        <ele>3202.1</ele>
        <time>2022-09-11T21:13:11Z</time>
      </trkpt>
      <trkpt lat="-11.5543880" lon="-76.6856720">
        <ele>3201.4</ele>
        <time>2022-09-11T21:13:12Z</time>
      </trkpt>
      <trkpt lat="-11.5544350" lon="-76.6856000">
        <ele>3200.6</ele>
        <time>2022-09-11T21:13:13Z</time>
      </trkpt>
      <trkpt lat="-11.5544710" lon="-76.6855230">
        <ele>3199.9</ele>
        <time>2022-09-11T21:13:14Z</time>
      </trkpt>
      <trkpt lat="-11.5544950" lon="-76.6854410">
        <ele>3199.2</ele>
        <time>2022-09-11T21:13:15Z</time>
      </trkpt>
      <trkpt lat="-11.5545110" lon="-76.6853630">
        <ele>3198.5</ele>
        <time>2022-09-11T21:13:16Z</time>
      </trkpt>
      <trkpt lat="-11.5545230" lon="-76.6852880">
        <ele>3197.8</ele>
        <time>2022-09-11T21:13:17Z</time>
      </trkpt>
      <trkpt lat="-11.5545290" lon="-76.6852190">
        <ele>3197.3</ele>
        <time>2022-09-11T21:13:18Z</time>
      </trkpt>
      <trkpt lat="-11.5545220" lon="-76.6851490">
        <ele>3196.7</ele>
        <time>2022-09-11T21:13:19Z</time>
      </trkpt>
      <trkpt lat="-11.5545150" lon="-76.6850780">
        <ele>3196.0</ele>
        <time>2022-09-11T21:13:20Z</time>
      </trkpt>
      <trkpt lat="-11.5545070" lon="-76.6850080">
        <ele>3195.4</ele>
        <time>2022-09-11T21:13:21Z</time>
      </trkpt>
      <trkpt lat="-11.5544890" lon="-76.6849420">
        <ele>3194.9</ele>
        <time>2022-09-11T21:13:22Z</time>
      </trkpt>
      <trkpt lat="-11.5544640" lon="-76.6848810">
        <ele>3194.3</ele>
        <time>2022-09-11T21:13:23Z</time>
      </trkpt>
      <trkpt lat="-11.5544310" lon="-76.6848260">
        <ele>3193.7</ele>
        <time>2022-09-11T21:13:24Z</time>
      </trkpt>
      <trkpt lat="-11.5543940" lon="-76.6847680">
        <ele>3193.2</ele>
        <time>2022-09-11T21:13:25Z</time>
      </trkpt>
      <trkpt lat="-11.5543470" lon="-76.6847090">
        <ele>3192.5</ele>
        <time>2022-09-11T21:13:26Z</time>
      </trkpt>
      <trkpt lat="-11.5542970" lon="-76.6846540">
        <ele>3191.9</ele>
        <time>2022-09-11T21:13:27Z</time>
      </trkpt>
      <trkpt lat="-11.5542430" lon="-76.6846060">
        <ele>3191.2</ele>
        <time>2022-09-11T21:13:28Z</time>
      </trkpt>
      <trkpt lat="-11.5541890" lon="-76.6845600">
        <ele>3190.6</ele>
        <time>2022-09-11T21:13:29Z</time>
      </trkpt>
      <trkpt lat="-11.5541420" lon="-76.6845120">
        <ele>3190.1</ele>
        <time>2022-09-11T21:13:30Z</time>
      </trkpt>
      <trkpt lat="-11.5540960" lon="-76.6844630">
        <ele>3189.5</ele>
        <time>2022-09-11T21:13:31Z</time>
      </trkpt>
      <trkpt lat="-11.5540490" lon="-76.6844110">
        <ele>3188.9</ele>
        <time>2022-09-11T21:13:32Z</time>
      </trkpt>
      <trkpt lat="-11.5539980" lon="-76.6843530">
        <ele>3188.2</ele>
        <time>2022-09-11T21:13:33Z</time>
      </trkpt>
      <trkpt lat="-11.5539390" lon="-76.6842940">
        <ele>3187.5</ele>
        <time>2022-09-11T21:13:34Z</time>
      </trkpt>
      <trkpt lat="-11.5538800" lon="-76.6842280">
        <ele>3186.7</ele>
        <time>2022-09-11T21:13:35Z</time>
      </trkpt>
      <trkpt lat="-11.5538290" lon="-76.6841540">
        <ele>3185.9</ele>
        <time>2022-09-11T21:13:36Z</time>
      </trkpt>
      <trkpt lat="-11.5537800" lon="-76.6840780">
        <ele>3185.2</ele>
        <time>2022-09-11T21:13:37Z</time>
      </trkpt>
      <trkpt lat="-11.5537220" lon="-76.6840140">
        <ele>3184.4</ele>
        <time>2022-09-11T21:13:38Z</time>
      </trkpt>
      <trkpt lat="-11.5536560" lon="-76.6839630">
        <ele>3183.7</ele>
        <time>2022-09-11T21:13:39Z</time>
      </trkpt>
      <trkpt lat="-11.5535910" lon="-76.6839150">
        <ele>3183.0</ele>
        <time>2022-09-11T21:13:40Z</time>
      </trkpt>
      <trkpt lat="-11.5535300" lon="-76.6838650">
        <ele>3182.3</ele>
        <time>2022-09-11T21:13:41Z</time>
      </trkpt>
      <trkpt lat="-11.5534770" lon="-76.6838130">
        <ele>3181.7</ele>
        <time>2022-09-11T21:13:42Z</time>
      </trkpt>
      <trkpt lat="-11.5534270" lon="-76.6837620">
        <ele>3181.1</ele>
        <time>2022-09-11T21:13:43Z</time>
      </trkpt>
      <trkpt lat="-11.5533730" lon="-76.6837160">
        <ele>3179.4</ele>
        <time>2022-09-11T21:13:44Z</time>
      </trkpt>
      <trkpt lat="-11.5533220" lon="-76.6836750">
        <ele>3174.7</ele>
        <time>2022-09-11T21:13:45Z</time>
      </trkpt>
      <trkpt lat="-11.5532820" lon="-76.6836380">
        <ele>3173.0</ele>
        <time>2022-09-11T21:13:46Z</time>
      </trkpt>
      <trkpt lat="-11.5532570" lon="-76.6836070">
        <ele>3171.3</ele>
        <time>2022-09-11T21:13:47Z</time>
      </trkpt>
      <trkpt lat="-11.5532450" lon="-76.6835790">
        <ele>3169.6</ele>
        <time>2022-09-11T21:13:48Z</time>
      </trkpt>
      <trkpt lat="-11.5532360" lon="-76.6835420">
        <ele>3167.9</ele>
        <time>2022-09-11T21:13:49Z</time>
      </trkpt>
      <trkpt lat="-11.5532300" lon="-76.6835060">
        <ele>3165.2</ele>
        <time>2022-09-11T21:13:50Z</time>
      </trkpt>
      <trkpt lat="-11.5532290" lon="-76.6834700">
        <ele>3163.5</ele>
        <time>2022-09-11T21:13:51Z</time>
      </trkpt>
      <trkpt lat="-11.5532280" lon="-76.6834150">
        <ele>3161.8</ele>
        <time>2022-09-11T21:13:52Z</time>
      </trkpt>
      <trkpt lat="-11.5532220" lon="-76.6833870">
        <ele>3160.1</ele>
        <time>2022-09-11T21:13:53Z</time>
      </trkpt>
      <trkpt lat="-11.5532110" lon="-76.6833600">
        <ele>3158.4</ele>
        <time>2022-09-11T21:13:54Z</time>
      </trkpt>
      <trkpt lat="-11.5531960" lon="-76.6833300">
        <ele>3156.7</ele>
        <time>2022-09-11T21:13:55Z</time>
      </trkpt>
      <trkpt lat="-11.5531780" lon="-76.6832990">
        <ele>3153.0</ele>
        <time>2022-09-11T21:13:56Z</time>
      </trkpt>
      <trkpt lat="-11.5531560" lon="-76.6832620">
        <ele>3153.0</ele>
        <time>2022-09-11T21:13:57Z</time>
      </trkpt>
      <trkpt lat="-11.5531240" lon="-76.6832140">
        <ele>3153.0</ele>
        <time>2022-09-11T21:13:58Z</time>
      </trkpt>
      <trkpt lat="-11.5530910" lon="-76.6831680">
        <ele>3153.0</ele>
        <time>2022-09-11T21:13:59Z</time>
      </trkpt>
      <trkpt lat="-11.5530610" lon="-76.6831220">
        <ele>3153.0</ele>
        <time>2022-09-11T21:14:00Z</time>
      </trkpt>
      <trkpt lat="-11.5530370" lon="-76.6830760">
        <ele>3153.1</ele>
        <time>2022-09-11T21:14:01Z</time>
      </trkpt>
      <trkpt lat="-11.5530190" lon="-76.6830220">
        <ele>3153.4</ele>
        <time>2022-09-11T21:14:02Z</time>
      </trkpt>
      <trkpt lat="-11.5530140" lon="-76.6829710">
        <ele>3153.6</ele>
        <time>2022-09-11T21:14:03Z</time>
      </trkpt>
      <trkpt lat="-11.5530100" lon="-76.6829210">
        <ele>3153.9</ele>
        <time>2022-09-11T21:14:04Z</time>
      </trkpt>
      <trkpt lat="-11.5530020" lon="-76.6828710">
        <ele>3154.2</ele>
        <time>2022-09-11T21:14:05Z</time>
      </trkpt>
      <trkpt lat="-11.5530000" lon="-76.6828420">
        <ele>3154.3</ele>
        <time>2022-09-11T21:14:06Z</time>
      </trkpt>
      <trkpt lat="-11.5529970" lon="-76.6827790">
        <ele>3154.7</ele>
        <time>2022-09-11T21:14:07Z</time>
      </trkpt>
      <trkpt lat="-11.5529890" lon="-76.6827240">
        <ele>3155.0</ele>
        <time>2022-09-11T21:14:08Z</time>
      </trkpt>
      <trkpt lat="-11.5529840" lon="-76.6826760">
        <ele>3155.2</ele>
        <time>2022-09-11T21:14:09Z</time>
      </trkpt>
      <trkpt lat="-11.5529740" lon="-76.6826420">
        <ele>3155.4</ele>
        <time>2022-09-11T21:14:10Z</time>
      </trkpt>
      <trkpt lat="-11.5529490" lon="-76.6825930">
        <ele>3155.7</ele>
        <time>2022-09-11T21:14:11Z</time>
      </trkpt>
      <trkpt lat="-11.5529410" lon="-76.6825590">
        <ele>3155.9</ele>
        <time>2022-09-11T21:14:12Z</time>
      </trkpt>
      <trkpt lat="-11.5529480" lon="-76.6825200">
        <ele>3156.1</ele>
        <time>2022-09-11T21:14:13Z</time>
      </trkpt>
      <trkpt lat="-11.5529520" lon="-76.6824890">
        <ele>3156.3</ele>
        <time>2022-09-11T21:14:14Z</time>
      </trkpt>
      <trkpt lat="-11.5529570" lon="-76.6824610">
        <ele>3156.4</ele>
        <time>2022-09-11T21:14:15Z</time>
      </trkpt>
      <trkpt lat="-11.5529570" lon="-76.6824300">
        <ele>3156.6</ele>
        <time>2022-09-11T21:14:16Z</time>
      </trkpt>
      <trkpt lat="-11.5529500" lon="-76.6823990">
        <ele>3156.8</ele>
        <time>2022-09-11T21:14:17Z</time>
      </trkpt>
      <trkpt lat="-11.5529430" lon="-76.6823640">
        <ele>3157.0</ele>
        <time>2022-09-11T21:14:18Z</time>
      </trkpt>
      <trkpt lat="-11.5529400" lon="-76.6823530">
        <ele>3157.0</ele>
        <time>2022-09-11T21:14:19Z</time>
      </trkpt>
      <trkpt lat="-11.5529280" lon="-76.6823280">
        <ele>3157.2</ele>
        <time>2022-09-11T21:14:20Z</time>
      </trkpt>
      <trkpt lat="-11.5529130" lon="-76.6822990">
        <ele>3157.3</ele>
        <time>2022-09-11T21:14:21Z</time>
      </trkpt>
      <trkpt lat="-11.5529000" lon="-76.6822740">
        <ele>3157.5</ele>
        <time>2022-09-11T21:14:22Z</time>
      </trkpt>
      <trkpt lat="-11.5528800" lon="-76.6822380">
        <ele>3157.7</ele>
        <time>2022-09-11T21:14:23Z</time>
      </trkpt>
      <trkpt lat="-11.5528700" lon="-76.6822220">
        <ele>3157.8</ele>
        <time>2022-09-11T21:14:24Z</time>
      </trkpt>
      <trkpt lat="-11.5528510" lon="-76.6821940">
        <ele>3158.0</ele>
        <time>2022-09-11T21:14:25Z</time>
      </trkpt>
      <trkpt lat="-11.5528330" lon="-76.6821670">
        <ele>3158.2</ele>
        <time>2022-09-11T21:14:26Z</time>
      </trkpt>
      <trkpt lat="-11.5528110" lon="-76.6821330">
        <ele>3158.5</ele>
        <time>2022-09-11T21:14:27Z</time>
      </trkpt>
      <trkpt lat="-11.5527920" lon="-76.6821060">
        <ele>3158.8</ele>
        <time>2022-09-11T21:14:28Z</time>
      </trkpt>
      <trkpt lat="-11.5527680" lon="-76.6820780">
        <ele>3159.1</ele>
        <time>2022-09-11T21:14:29Z</time>
      </trkpt>
      <trkpt lat="-11.5527430" lon="-76.6820570">
        <ele>3159.4</ele>
        <time>2022-09-11T21:14:30Z</time>
      </trkpt>
      <trkpt lat="-11.5527130" lon="-76.6820300">
        <ele>3159.7</ele>
        <time>2022-09-11T21:14:31Z</time>
      </trkpt>
      <trkpt lat="-11.5526940" lon="-76.6820100">
        <ele>3159.9</ele>
        <time>2022-09-11T21:14:32Z</time>
      </trkpt>
      <trkpt lat="-11.5526620" lon="-76.6819760">
        <ele>3160.3</ele>
        <time>2022-09-11T21:14:33Z</time>
      </trkpt>
      <trkpt lat="-11.5526490" lon="-76.6819610">
        <ele>3160.4</ele>
        <time>2022-09-11T21:14:34Z</time>
      </trkpt>
      <trkpt lat="-11.5526280" lon="-76.6819310">
        <ele>3160.7</ele>
        <time>2022-09-11T21:14:35Z</time>
      </trkpt>
      <trkpt lat="-11.5526210" lon="-76.6819190">
        <ele>3160.9</ele>
        <time>2022-09-11T21:14:36Z</time>
      </trkpt>
      <trkpt lat="-11.5526160" lon="-76.6818890">
        <ele>3161.1</ele>
        <time>2022-09-11T21:14:37Z</time>
      </trkpt>
      <trkpt lat="-11.5526170" lon="-76.6818470">
        <ele>3161.4</ele>
        <time>2022-09-11T21:14:38Z</time>
      </trkpt>
      <trkpt lat="-11.5526180" lon="-76.6818320">
        <ele>3161.6</ele>
        <time>2022-09-11T21:14:39Z</time>
      </trkpt>
      <trkpt lat="-11.5526180" lon="-76.6817990">
        <ele>3161.8</ele>
        <time>2022-09-11T21:14:40Z</time>
      </trkpt>
      <trkpt lat="-11.5526180" lon="-76.6817910">
        <ele>3161.9</ele>
        <time>2022-09-11T21:14:41Z</time>
      </trkpt>
      <trkpt lat="-11.5526150" lon="-76.6817620">
        <ele>3162.1</ele>
        <time>2022-09-11T21:14:42Z</time>
      </trkpt>
      <trkpt lat="-11.5526140" lon="-76.6817530">
        <ele>3162.2</ele>
        <time>2022-09-11T21:14:43Z</time>
      </trkpt>
      <trkpt lat="-11.5526160" lon="-76.6817140">
        <ele>3162.5</ele>
        <time>2022-09-11T21:14:44Z</time>
      </trkpt>
      <trkpt lat="-11.5526190" lon="-76.6817010">
        <ele>3162.6</ele>
        <time>2022-09-11T21:14:45Z</time>
      </trkpt>
      <trkpt lat="-11.5526210" lon="-76.6816660">
        <ele>3162.9</ele>
        <time>2022-09-11T21:14:46Z</time>
      </trkpt>
      <trkpt lat="-11.5526220" lon="-76.6816580">
        <ele>3162.9</ele>
        <time>2022-09-11T21:14:47Z</time>
      </trkpt>
      <trkpt lat="-11.5526300" lon="-76.6816210">
        <ele>3163.2</ele>
        <time>2022-09-11T21:14:48Z</time>
      </trkpt>
      <trkpt lat="-11.5526340" lon="-76.6816070">
        <ele>3163.4</ele>
        <time>2022-09-11T21:14:49Z</time>
      </trkpt>
      <trkpt lat="-11.5526410" lon="-76.6815800">
        <ele>3163.6</ele>
        <time>2022-09-11T21:14:50Z</time>
      </trkpt>
      <trkpt lat="-11.5526520" lon="-76.6815450">
        <ele>3163.9</ele>
        <time>2022-09-11T21:14:51Z</time>
      </trkpt>
      <trkpt lat="-11.5526570" lon="-76.6815290">
        <ele>3164.0</ele>
        <time>2022-09-11T21:14:52Z</time>
      </trkpt>
      <trkpt lat="-11.5526660" lon="-76.6815000">
        <ele>3164.3</ele>
        <time>2022-09-11T21:14:53Z</time>
      </trkpt>
      <trkpt lat="-11.5526700" lon="-76.6814710">
        <ele>3164.5</ele>
        <time>2022-09-11T21:14:54Z</time>
      </trkpt>
      <trkpt lat="-11.5526680" lon="-76.6814290">
        <ele>3164.8</ele>
        <time>2022-09-11T21:14:55Z</time>
      </trkpt>
      <trkpt lat="-11.5526670" lon="-76.6814150">
        <ele>3164.9</ele>
        <time>2022-09-11T21:14:56Z</time>
      </trkpt>
      <trkpt lat="-11.5526640" lon="-76.6813840">
        <ele>3165.0</ele>
        <time>2022-09-11T21:14:57Z</time>
      </trkpt>
      <trkpt lat="-11.5526630" lon="-76.6813730">
        <ele>3164.9</ele>
        <time>2022-09-11T21:14:58Z</time>
      </trkpt>
      <trkpt lat="-11.5526640" lon="-76.6813530">
        <ele>3164.8</ele>
        <time>2022-09-11T21:14:59Z</time>
      </trkpt>
      <trkpt lat="-11.5526650" lon="-76.6813420">
        <ele>3164.7</ele>
        <time>2022-09-11T21:15:00Z</time>
      </trkpt>
      <trkpt lat="-11.5526650" lon="-76.6813310">
        <ele>3164.6</ele>
        <time>2022-09-11T21:15:01Z</time>
      </trkpt>
      <trkpt lat="-11.5526630" lon="-76.6813020">
        <ele>3164.4</ele>
        <time>2022-09-11T21:15:02Z</time>
      </trkpt>
      <trkpt lat="-11.5526620" lon="-76.6812940">
        <ele>3164.3</ele>
        <time>2022-09-11T21:15:03Z</time>
      </trkpt>
      <trkpt lat="-11.5526560" lon="-76.6812670">
        <ele>3164.1</ele>
        <time>2022-09-11T21:15:04Z</time>
      </trkpt>
      <trkpt lat="-11.5526530" lon="-76.6812570">
        <ele>3164.1</ele>
        <time>2022-09-11T21:15:05Z</time>
      </trkpt>
      <trkpt lat="-11.5526400" lon="-76.6812250">
        <ele>3163.8</ele>
        <time>2022-09-11T21:15:07Z</time>
      </trkpt>
      <trkpt lat="-11.5526300" lon="-76.6811970">
        <ele>3163.6</ele>
        <time>2022-09-11T21:15:08Z</time>
      </trkpt>
      <trkpt lat="-11.5526190" lon="-76.6811570">
        <ele>3163.3</ele>
        <time>2022-09-11T21:15:09Z</time>
      </trkpt>
      <trkpt lat="-11.5526140" lon="-76.6811450">
        <ele>3163.2</ele>
        <time>2022-09-11T21:15:10Z</time>
      </trkpt>
      <trkpt lat="-11.5525940" lon="-76.6811140">
        <ele>3162.9</ele>
        <time>2022-09-11T21:15:12Z</time>
      </trkpt>
      <trkpt lat="-11.5525890" lon="-76.6811050">
        <ele>3162.8</ele>
        <time>2022-09-11T21:15:13Z</time>
      </trkpt>
      <trkpt lat="-11.5525770" lon="-76.6810740">
        <ele>3162.6</ele>
        <time>2022-09-11T21:15:14Z</time>
      </trkpt>
      <trkpt lat="-11.5525580" lon="-76.6810370">
        <ele>3162.3</ele>
        <time>2022-09-11T21:15:15Z</time>
      </trkpt>
      <trkpt lat="-11.5525460" lon="-76.6810120">
        <ele>3162.1</ele>
        <time>2022-09-11T21:15:16Z</time>
      </trkpt>
      <trkpt lat="-11.5525330" lon="-76.6809800">
        <ele>3161.8</ele>
        <time>2022-09-11T21:15:17Z</time>
      </trkpt>
      <trkpt lat="-11.5525250" lon="-76.6809490">
        <ele>3161.6</ele>
        <time>2022-09-11T21:15:18Z</time>
      </trkpt>
      <trkpt lat="-11.5525170" lon="-76.6809110">
        <ele>3161.3</ele>
        <time>2022-09-11T21:15:19Z</time>
      </trkpt>
      <trkpt lat="-11.5525080" lon="-76.6808780">
        <ele>3161.0</ele>
        <time>2022-09-11T21:15:20Z</time>
      </trkpt>
      <trkpt lat="-11.5524990" lon="-76.6808350">
        <ele>3160.7</ele>
        <time>2022-09-11T21:15:21Z</time>
      </trkpt>
      <trkpt lat="-11.5524960" lon="-76.6807940">
        <ele>3160.4</ele>
        <time>2022-09-11T21:15:22Z</time>
      </trkpt>
      <trkpt lat="-11.5524950" lon="-76.6807500">
        <ele>3160.1</ele>
        <time>2022-09-11T21:15:23Z</time>
      </trkpt>
      <trkpt lat="-11.5524950" lon="-76.6807100">
        <ele>3159.8</ele>
        <time>2022-09-11T21:15:24Z</time>
      </trkpt>
      <trkpt lat="-11.5524950" lon="-76.6806710">
        <ele>3159.5</ele>
        <time>2022-09-11T21:15:25Z</time>
      </trkpt>
      <trkpt lat="-11.5524900" lon="-76.6806320">
        <ele>3159.2</ele>
        <time>2022-09-11T21:15:26Z</time>
      </trkpt>
      <trkpt lat="-11.5524950" lon="-76.6805840">
        <ele>3158.8</ele>
        <time>2022-09-11T21:15:28Z</time>
      </trkpt>
      <trkpt lat="-11.5525020" lon="-76.6805540">
        <ele>3158.6</ele>
        <time>2022-09-11T21:15:29Z</time>
      </trkpt>
      <trkpt lat="-11.5525010" lon="-76.6805480">
        <ele>3158.6</ele>
        <time>2022-09-11T21:15:30Z</time>
      </trkpt>
      <trkpt lat="-11.5525020" lon="-76.6805450">
        <ele>3158.5</ele>
        <time>2022-09-11T21:15:31Z</time>
      </trkpt>
      <trkpt lat="-11.5524950" lon="-76.6805720">
        <ele>3158.3</ele>
        <time>2022-09-11T21:15:32Z</time>
      </trkpt>
      <trkpt lat="-11.5524930" lon="-76.6805790">
        <ele>3158.3</ele>
        <time>2022-09-11T21:15:33Z</time>
      </trkpt>
      <trkpt lat="-11.5524910" lon="-76.6805800">
        <ele>3158.3</ele>
        <time>2022-09-11T21:15:34Z</time>
      </trkpt>
      <trkpt lat="-11.5524870" lon="-76.6805690">
        <ele>3158.2</ele>
        <time>2022-09-11T21:15:35Z</time>
      </trkpt>
      <trkpt lat="-11.5524860" lon="-76.6805610">
        <ele>3158.1</ele>
        <time>2022-09-11T21:15:36Z</time>
      </trkpt>
      <trkpt lat="-11.5524840" lon="-76.6805520">
        <ele>3158.0</ele>
        <time>2022-09-11T21:15:38Z</time>
      </trkpt>
      <trkpt lat="-11.5524830" lon="-76.6805440">
        <ele>3158.0</ele>
        <time>2022-09-11T21:15:39Z</time>
      </trkpt>
      <trkpt lat="-11.5524810" lon="-76.6805350">
        <ele>3157.9</ele>
        <time>2022-09-11T21:15:40Z</time>
      </trkpt>
      <trkpt lat="-11.5524800" lon="-76.6805270">
        <ele>3157.9</ele>
        <time>2022-09-11T21:15:41Z</time>
      </trkpt>
      <trkpt lat="-11.5524780" lon="-76.6805180">
        <ele>3157.8</ele>
        <time>2022-09-11T21:15:42Z</time>
      </trkpt>
      <trkpt lat="-11.5524770" lon="-76.6805100">
        <ele>3157.7</ele>
        <time>2022-09-11T21:15:43Z</time>
      </trkpt>
      <trkpt lat="-11.5524750" lon="-76.6805010">
        <ele>3157.7</ele>
        <time>2022-09-11T21:15:44Z</time>
      </trkpt>
      <trkpt lat="-11.5524740" lon="-76.6804930">
        <ele>3157.6</ele>
        <time>2022-09-11T21:16:11Z</time>
      </trkpt>
      <trkpt lat="-11.5524720" lon="-76.6804840">
        <ele>3157.5</ele>
        <time>2022-09-11T21:16:12Z</time>
      </trkpt>
      <trkpt lat="-11.5524700" lon="-76.6804760">
        <ele>3157.5</ele>
        <time>2022-09-11T21:16:13Z</time>
      </trkpt>
      <trkpt lat="-11.5524620" lon="-76.6804470">
        <ele>3157.3</ele>
        <time>2022-09-11T21:16:14Z</time>
      </trkpt>
      <trkpt lat="-11.5524610" lon="-76.6804370">
        <ele>3157.2</ele>
        <time>2022-09-11T21:16:15Z</time>
      </trkpt>
      <trkpt lat="-11.5524530" lon="-76.6803620">
        <ele>3156.6</ele>
        <time>2022-09-11T21:16:25Z</time>
      </trkpt>
      <trkpt lat="-11.5524520" lon="-76.6803620">
        <ele>3156.6</ele>
        <time>2022-09-11T21:16:26Z</time>
      </trkpt>
      <trkpt lat="-11.5524520" lon="-76.6803620">
        <ele>3156.6</ele>
        <time>2022-09-11T21:16:27Z</time>
      </trkpt>
      <trkpt lat="-11.5524520" lon="-76.6803620">
        <ele>3156.6</ele>
        <time>2022-09-11T21:16:28Z</time>
      </trkpt>
      <trkpt lat="-11.5524510" lon="-76.6803620">
        <ele>3156.6</ele>
        <time>2022-09-11T21:16:29Z</time>
      </trkpt>
      <trkpt lat="-11.5524500" lon="-76.6803610">
        <ele>3156.6</ele>
        <time>2022-09-11T21:16:30Z</time>
      </trkpt>
      <trkpt lat="-11.5524510" lon="-76.6803610">
        <ele>3156.6</ele>
        <time>2022-09-11T21:16:31Z</time>
      </trkpt>
      <trkpt lat="-11.5524500" lon="-76.6803570">
        <ele>3156.6</ele>
        <time>2022-09-11T21:16:41Z</time>
      </trkpt>
      <trkpt lat="-11.5524500" lon="-76.6803560">
        <ele>3156.5</ele>
        <time>2022-09-11T21:16:42Z</time>
      </trkpt>
      <trkpt lat="-11.5524500" lon="-76.6803560">
        <ele>3156.5</ele>
        <time>2022-09-11T21:16:43Z</time>
      </trkpt>
      <trkpt lat="-11.5524500" lon="-76.6803560">
        <ele>3156.5</ele>
        <time>2022-09-11T21:16:44Z</time>
      </trkpt>
      <trkpt lat="-11.5524500" lon="-76.6803560">
        <ele>3156.5</ele>
        <time>2022-09-11T21:16:45Z</time>
      </trkpt>
      <trkpt lat="-11.5524510" lon="-76.6803550">
        <ele>3156.5</ele>
        <time>2022-09-11T21:16:46Z</time>
      </trkpt>
      <trkpt lat="-11.5524530" lon="-76.6803550">
        <ele>3156.5</ele>
        <time>2022-09-11T21:16:47Z</time>
      </trkpt>
      <trkpt lat="-11.5524540" lon="-76.6803560">
        <ele>3156.5</ele>
        <time>2022-09-11T21:16:48Z</time>
      </trkpt>
      <trkpt lat="-11.5524560" lon="-76.6803580">
        <ele>3156.5</ele>
        <time>2022-09-11T21:16:49Z</time>
      </trkpt>
      <trkpt lat="-11.5524580" lon="-76.6803600">
        <ele>3156.5</ele>
        <time>2022-09-11T21:16:50Z</time>
      </trkpt>
      <trkpt lat="-11.5524590" lon="-76.6803620">
        <ele>3156.5</ele>
        <time>2022-09-11T21:16:51Z</time>
      </trkpt>
      <trkpt lat="-11.5524540" lon="-76.6803690">
        <ele>3156.5</ele>
        <time>2022-09-11T21:17:42Z</time>
      </trkpt>
      <trkpt lat="-11.5524520" lon="-76.6803660">
        <ele>3156.5</ele>
        <time>2022-09-11T21:17:43Z</time>
      </trkpt>
      <trkpt lat="-11.5524530" lon="-76.6803630">
        <ele>3156.4</ele>
        <time>2022-09-11T21:17:44Z</time>
      </trkpt>
      <trkpt lat="-11.5524540" lon="-76.6803590">
        <ele>3156.4</ele>
        <time>2022-09-11T21:17:45Z</time>
      </trkpt>
      <trkpt lat="-11.5524550" lon="-76.6803560">
        <ele>3156.4</ele>
        <time>2022-09-11T21:17:46Z</time>
      </trkpt>
      <trkpt lat="-11.5524560" lon="-76.6803530">
        <ele>3156.4</ele>
        <time>2022-09-11T21:17:47Z</time>
      </trkpt>
      <trkpt lat="-11.5524570" lon="-76.6803500">
        <ele>3156.3</ele>
        <time>2022-09-11T21:17:48Z</time>
      </trkpt>
      <trkpt lat="-11.5524580" lon="-76.6803470">
        <ele>3156.3</ele>
        <time>2022-09-11T21:17:49Z</time>
      </trkpt>
      <trkpt lat="-11.5524590" lon="-76.6803430">
        <ele>3156.3</ele>
        <time>2022-09-11T21:17:50Z</time>
      </trkpt>
      <trkpt lat="-11.5524590" lon="-76.6803400">
        <ele>3156.3</ele>
        <time>2022-09-11T21:17:51Z</time>
      </trkpt>
      <trkpt lat="-11.5524600" lon="-76.6803370">
        <ele>3156.2</ele>
        <time>2022-09-11T21:17:52Z</time>
      </trkpt>
      <trkpt lat="-11.5524610" lon="-76.6803340">
        <ele>3156.2</ele>
        <time>2022-09-11T21:23:32Z</time>
      </trkpt>
      <trkpt lat="-11.5524620" lon="-76.6803310">
        <ele>3156.2</ele>
        <time>2022-09-11T21:23:33Z</time>
      </trkpt>
      <trkpt lat="-11.5524630" lon="-76.6803270">
        <ele>3156.1</ele>
        <time>2022-09-11T21:23:34Z</time>
      </trkpt>
      <trkpt lat="-11.5524640" lon="-76.6803240">
        <ele>3156.1</ele>
        <time>2022-09-11T21:23:35Z</time>
      </trkpt>
      <trkpt lat="-11.5524650" lon="-76.6803210">
        <ele>3156.1</ele>
        <time>2022-09-11T21:23:36Z</time>
      </trkpt>
      <trkpt lat="-11.5524660" lon="-76.6803180">
        <ele>3156.1</ele>
        <time>2022-09-11T21:23:37Z</time>
      </trkpt>
      <trkpt lat="-11.5524670" lon="-76.6803140">
        <ele>3156.0</ele>
        <time>2022-09-11T21:23:38Z</time>
      </trkpt>
      <trkpt lat="-11.5524680" lon="-76.6803110">
        <ele>3156.0</ele>
        <time>2022-09-11T21:23:39Z</time>
      </trkpt>
      <trkpt lat="-11.5524690" lon="-76.6803080">
        <ele>3156.0</ele>
        <time>2022-09-11T21:23:40Z</time>
      </trkpt>
      <trkpt lat="-11.5524700" lon="-76.6803050">
        <ele>3156.0</ele>
        <time>2022-09-11T21:23:41Z</time>
      </trkpt>
      <trkpt lat="-11.5524710" lon="-76.6803020">
        <ele>3155.9</ele>
        <time>2022-09-11T21:23:42Z</time>
      </trkpt>
      <trkpt lat="-11.5524720" lon="-76.6802980">
        <ele>3155.9</ele>
        <time>2022-09-11T21:23:43Z</time>
      </trkpt>
      <trkpt lat="-11.5524730" lon="-76.6802950">
        <ele>3155.9</ele>
        <time>2022-09-11T21:24:56Z</time>
      </trkpt>
      <trkpt lat="-11.5524740" lon="-76.6802920">
        <ele>3155.9</ele>
        <time>2022-09-11T21:24:57Z</time>
      </trkpt>
      <trkpt lat="-11.5524750" lon="-76.6802890">
        <ele>3155.8</ele>
        <time>2022-09-11T21:24:58Z</time>
      </trkpt>
      <trkpt lat="-11.5524760" lon="-76.6802860">
        <ele>3155.8</ele>
        <time>2022-09-11T21:24:59Z</time>
      </trkpt>
      <trkpt lat="-11.5524770" lon="-76.6802540">
        <ele>3155.5</ele>
        <time>2022-09-11T21:25:00Z</time>
      </trkpt>
      <trkpt lat="-11.5524780" lon="-76.6802440">
        <ele>3155.5</ele>
        <time>2022-09-11T21:25:01Z</time>
      </trkpt>
      <trkpt lat="-11.5524760" lon="-76.6802140">
        <ele>3155.2</ele>
        <time>2022-09-11T21:25:02Z</time>
      </trkpt>
      <trkpt lat="-11.5524720" lon="-76.6801810">
        <ele>3155.0</ele>
        <time>2022-09-11T21:25:03Z</time>
      </trkpt>
      <trkpt lat="-11.5524570" lon="-76.6801310">
        <ele>3154.5</ele>
        <time>2022-09-11T21:25:05Z</time>
      </trkpt>
      <trkpt lat="-11.5524440" lon="-76.6800950">
        <ele>3154.2</ele>
        <time>2022-09-11T21:25:06Z</time>
      </trkpt>
      <trkpt lat="-11.5524250" lon="-76.6800550">
        <ele>3153.9</ele>
        <time>2022-09-11T21:25:07Z</time>
      </trkpt>
      <trkpt lat="-11.5524010" lon="-76.6800030">
        <ele>3153.4</ele>
        <time>2022-09-11T21:25:08Z</time>
      </trkpt>
      <trkpt lat="-11.5523850" lon="-76.6799680">
        <ele>3153.1</ele>
        <time>2022-09-11T21:25:09Z</time>
      </trkpt>
      <trkpt lat="-11.5523600" lon="-76.6799100">
        <ele>3152.6</ele>
        <time>2022-09-11T21:25:11Z</time>
      </trkpt>
      <trkpt lat="-11.5523340" lon="-76.6798080">
        <ele>3151.7</ele>
        <time>2022-09-11T21:25:12Z</time>
      </trkpt>
      <trkpt lat="-11.5523130" lon="-76.6797500">
        <ele>3151.3</ele>
        <time>2022-09-11T21:25:13Z</time>
      </trkpt>
      <trkpt lat="-11.5522960" lon="-76.6796900">
        <ele>3150.8</ele>
        <time>2022-09-11T21:25:14Z</time>
      </trkpt>
      <trkpt lat="-11.5522900" lon="-76.6796240">
        <ele>3150.2</ele>
        <time>2022-09-11T21:25:15Z</time>
      </trkpt>
      <trkpt lat="-11.5522900" lon="-76.6795550">
        <ele>3149.7</ele>
        <time>2022-09-11T21:25:16Z</time>
      </trkpt>
      <trkpt lat="-11.5522930" lon="-76.6794880">
        <ele>3149.1</ele>
        <time>2022-09-11T21:25:17Z</time>
      </trkpt>
      <trkpt lat="-11.5523050" lon="-76.6794170">
        <ele>3148.6</ele>
        <time>2022-09-11T21:25:18Z</time>
      </trkpt>
      <trkpt lat="-11.5523130" lon="-76.6793500">
        <ele>3148.0</ele>
        <time>2022-09-11T21:25:19Z</time>
      </trkpt>
      <trkpt lat="-11.5523120" lon="-76.6792790">
        <ele>3147.4</ele>
        <time>2022-09-11T21:25:20Z</time>
      </trkpt>
      <trkpt lat="-11.5522850" lon="-76.6792080">
        <ele>3146.8</ele>
        <time>2022-09-11T21:25:21Z</time>
      </trkpt>
      <trkpt lat="-11.5522520" lon="-76.6791360">
        <ele>3146.2</ele>
        <time>2022-09-11T21:25:22Z</time>
      </trkpt>
      <trkpt lat="-11.5522240" lon="-76.6790610">
        <ele>3145.6</ele>
        <time>2022-09-11T21:25:23Z</time>
      </trkpt>
      <trkpt lat="-11.5522080" lon="-76.6789870">
        <ele>3144.9</ele>
        <time>2022-09-11T21:25:24Z</time>
      </trkpt>
      <trkpt lat="-11.5522060" lon="-76.6789060">
        <ele>3144.3</ele>
        <time>2022-09-11T21:25:25Z</time>
      </trkpt>
      <trkpt lat="-11.5522130" lon="-76.6788170">
        <ele>3143.6</ele>
        <time>2022-09-11T21:25:26Z</time>
      </trkpt>
      <trkpt lat="-11.5522230" lon="-76.6787240">
        <ele>3142.8</ele>
        <time>2022-09-11T21:25:27Z</time>
      </trkpt>
      <trkpt lat="-11.5522400" lon="-76.6786290">
        <ele>3142.1</ele>
        <time>2022-09-11T21:25:28Z</time>
      </trkpt>
      <trkpt lat="-11.5522550" lon="-76.6785300">
        <ele>3141.3</ele>
        <time>2022-09-11T21:25:29Z</time>
      </trkpt>
      <trkpt lat="-11.5522670" lon="-76.6784300">
        <ele>3140.4</ele>
        <time>2022-09-11T21:25:30Z</time>
      </trkpt>
      <trkpt lat="-11.5522740" lon="-76.6783290">
        <ele>3139.6</ele>
        <time>2022-09-11T21:25:31Z</time>
      </trkpt>
      <trkpt lat="-11.5522810" lon="-76.6782260">
        <ele>3138.8</ele>
        <time>2022-09-11T21:25:32Z</time>
      </trkpt>
      <trkpt lat="-11.5522820" lon="-76.6781210">
        <ele>3138.0</ele>
        <time>2022-09-11T21:25:33Z</time>
      </trkpt>
      <trkpt lat="-11.5522830" lon="-76.6780180">
        <ele>3137.1</ele>
        <time>2022-09-11T21:25:34Z</time>
      </trkpt>
      <trkpt lat="-11.5522770" lon="-76.6779170">
        <ele>3136.3</ele>
        <time>2022-09-11T21:25:35Z</time>
      </trkpt>
      <trkpt lat="-11.5522660" lon="-76.6778170">
        <ele>3135.5</ele>
        <time>2022-09-11T21:25:36Z</time>
      </trkpt>
      <trkpt lat="-11.5522510" lon="-76.6777180">
        <ele>3134.7</ele>
        <time>2022-09-11T21:25:37Z</time>
      </trkpt>
      <trkpt lat="-11.5522310" lon="-76.6776130">
        <ele>3133.9</ele>
        <time>2022-09-11T21:25:38Z</time>
      </trkpt>
      <trkpt lat="-11.5522040" lon="-76.6775070">
        <ele>3133.0</ele>
        <time>2022-09-11T21:25:39Z</time>
      </trkpt>
      <trkpt lat="-11.5521700" lon="-76.6774060">
        <ele>3132.1</ele>
        <time>2022-09-11T21:25:40Z</time>
      </trkpt>
      <trkpt lat="-11.5521240" lon="-76.6773000">
        <ele>3131.2</ele>
        <time>2022-09-11T21:25:41Z</time>
      </trkpt>
      <trkpt lat="-11.5520750" lon="-76.6771990">
        <ele>3130.3</ele>
        <time>2022-09-11T21:25:42Z</time>
      </trkpt>
      <trkpt lat="-11.5520220" lon="-76.6770930">
        <ele>3129.3</ele>
        <time>2022-09-11T21:25:43Z</time>
      </trkpt>
      <trkpt lat="-11.5519690" lon="-76.6769850">
        <ele>3128.4</ele>
        <time>2022-09-11T21:25:44Z</time>
      </trkpt>
      <trkpt lat="-11.5519200" lon="-76.6768750">
        <ele>3127.4</ele>
        <time>2022-09-11T21:25:45Z</time>
      </trkpt>
      <trkpt lat="-11.5518720" lon="-76.6767630">
        <ele>3126.4</ele>
        <time>2022-09-11T21:25:46Z</time>
      </trkpt>
      <trkpt lat="-11.5518230" lon="-76.6766510">
        <ele>3125.4</ele>
        <time>2022-09-11T21:25:47Z</time>
      </trkpt>
      <trkpt lat="-11.5517690" lon="-76.6765420">
        <ele>3124.5</ele>
        <time>2022-09-11T21:25:48Z</time>
      </trkpt>
      <trkpt lat="-11.5517120" lon="-76.6764360">
        <ele>3123.5</ele>
        <time>2022-09-11T21:25:49Z</time>
      </trkpt>
      <trkpt lat="-11.5516520" lon="-76.6763340">
        <ele>3122.5</ele>
        <time>2022-09-11T21:25:50Z</time>
      </trkpt>
      <trkpt lat="-11.5515890" lon="-76.6762360">
        <ele>3121.6</ele>
        <time>2022-09-11T21:25:51Z</time>
      </trkpt>
      <trkpt lat="-11.5515240" lon="-76.6761440">
        <ele>3120.7</ele>
        <time>2022-09-11T21:25:52Z</time>
      </trkpt>
      <trkpt lat="-11.5514600" lon="-76.6760660">
        <ele>3119.9</ele>
        <time>2022-09-11T21:25:53Z</time>
      </trkpt>
      <trkpt lat="-11.5513910" lon="-76.6759980">
        <ele>3119.1</ele>
        <time>2022-09-11T21:25:54Z</time>
      </trkpt>
      <trkpt lat="-11.5513120" lon="-76.6759400">
        <ele>3118.3</ele>
        <time>2022-09-11T21:25:55Z</time>
      </trkpt>
      <trkpt lat="-11.5512210" lon="-76.6758990">
        <ele>3117.5</ele>
        <time>2022-09-11T21:25:56Z</time>
      </trkpt>
      <trkpt lat="-11.5511240" lon="-76.6758830">
        <ele>3116.7</ele>
        <time>2022-09-11T21:25:57Z</time>
      </trkpt>
      <trkpt lat="-11.5510270" lon="-76.6758850">
        <ele>3115.9</ele>
        <time>2022-09-11T21:25:58Z</time>
      </trkpt>
      <trkpt lat="-11.5509340" lon="-76.6758940">
        <ele>3115.1</ele>
        <time>2022-09-11T21:25:59Z</time>
      </trkpt>
      <trkpt lat="-11.5508370" lon="-76.6759070">
        <ele>3114.3</ele>
        <time>2022-09-11T21:26:00Z</time>
      </trkpt>
      <trkpt lat="-11.5507390" lon="-76.6759090">
        <ele>3113.5</ele>
        <time>2022-09-11T21:26:01Z</time>
      </trkpt>
      <trkpt lat="-11.5506420" lon="-76.6758990">
        <ele>3112.7</ele>
        <time>2022-09-11T21:26:02Z</time>
      </trkpt>
      <trkpt lat="-11.5505500" lon="-76.6758730">
        <ele>3111.9</ele>
        <time>2022-09-11T21:26:03Z</time>
      </trkpt>
      <trkpt lat="-11.5504540" lon="-76.6758450">
        <ele>3111.1</ele>
        <time>2022-09-11T21:26:04Z</time>
      </trkpt>
      <trkpt lat="-11.5503540" lon="-76.6758270">
        <ele>3110.3</ele>
        <time>2022-09-11T21:26:05Z</time>
      </trkpt>
      <trkpt lat="-11.5502460" lon="-76.6758140">
        <ele>3109.4</ele>
        <time>2022-09-11T21:26:06Z</time>
      </trkpt>
      <trkpt lat="-11.5501350" lon="-76.6758050">
        <ele>3108.5</ele>
        <time>2022-09-11T21:26:07Z</time>
      </trkpt>
      <trkpt lat="-11.5500230" lon="-76.6757860">
        <ele>3107.6</ele>
        <time>2022-09-11T21:26:08Z</time>
      </trkpt>
      <trkpt lat="-11.5499130" lon="-76.6757590">
        <ele>3106.6</ele>
        <time>2022-09-11T21:26:09Z</time>
      </trkpt>
      <trkpt lat="-11.5498040" lon="-76.6757290">
        <ele>3105.7</ele>
        <time>2022-09-11T21:26:10Z</time>
      </trkpt>
      <trkpt lat="-11.5497010" lon="-76.6757000">
        <ele>3104.8</ele>
        <time>2022-09-11T21:26:11Z</time>
      </trkpt>
      <trkpt lat="-11.5496080" lon="-76.6756690">
        <ele>3104.0</ele>
        <time>2022-09-11T21:26:12Z</time>
      </trkpt>
      <trkpt lat="-11.5495210" lon="-76.6756420">
        <ele>3103.3</ele>
        <time>2022-09-11T21:26:13Z</time>
      </trkpt>
      <trkpt lat="-11.5494270" lon="-76.6756320">
        <ele>3102.5</ele>
        <time>2022-09-11T21:26:14Z</time>
      </trkpt>
      <trkpt lat="-11.5493320" lon="-76.6756390">
        <ele>3102.0</ele>
        <time>2022-09-11T21:26:15Z</time>
      </trkpt>
      <trkpt lat="-11.5492460" lon="-76.6756610">
        <ele>3101.3</ele>
        <time>2022-09-11T21:26:16Z</time>
      </trkpt>
      <trkpt lat="-11.5491730" lon="-76.6756900">
        <ele>3100.6</ele>
        <time>2022-09-11T21:26:17Z</time>
      </trkpt>
      <trkpt lat="-11.5491050" lon="-76.6757230">
        <ele>3100.0</ele>
        <time>2022-09-11T21:26:18Z</time>
      </trkpt>
      <trkpt lat="-11.5490330" lon="-76.6757580">
        <ele>3099.4</ele>
        <time>2022-09-11T21:26:19Z</time>
      </trkpt>
      <trkpt lat="-11.5489560" lon="-76.6757860">
        <ele>3098.7</ele>
        <time>2022-09-11T21:26:20Z</time>
      </trkpt>
      <trkpt lat="-11.5488790" lon="-76.6758030">
        <ele>3098.0</ele>
        <time>2022-09-11T21:26:21Z</time>
      </trkpt>
      <trkpt lat="-11.5488040" lon="-76.6758040">
        <ele>3097.4</ele>
        <time>2022-09-11T21:26:22Z</time>
      </trkpt>
      <trkpt lat="-11.5487430" lon="-76.6757910">
        <ele>3096.9</ele>
        <time>2022-09-11T21:26:23Z</time>
      </trkpt>
      <trkpt lat="-11.5486930" lon="-76.6757650">
        <ele>3096.5</ele>
        <time>2022-09-11T21:26:24Z</time>
      </trkpt>
      <trkpt lat="-11.5486500" lon="-76.6757280">
        <ele>3096.0</ele>
        <time>2022-09-11T21:26:25Z</time>
      </trkpt>
      <trkpt lat="-11.5486070" lon="-76.6757020">
        <ele>3095.6</ele>
        <time>2022-09-11T21:26:26Z</time>
      </trkpt>
      <trkpt lat="-11.5485650" lon="-76.6757010">
        <ele>3095.2</ele>
        <time>2022-09-11T21:26:27Z</time>
      </trkpt>
      <trkpt lat="-11.5485370" lon="-76.6757200">
        <ele>3095.0</ele>
        <time>2022-09-11T21:26:28Z</time>
      </trkpt>
      <trkpt lat="-11.5485250" lon="-76.6757460">
        <ele>3095.0</ele>
        <time>2022-09-11T21:26:29Z</time>
      </trkpt>
      <trkpt lat="-11.5485290" lon="-76.6757880">
        <ele>3095.3</ele>
        <time>2022-09-11T21:26:30Z</time>
      </trkpt>
      <trkpt lat="-11.5485460" lon="-76.6758260">
        <ele>3095.6</ele>
        <time>2022-09-11T21:26:31Z</time>
      </trkpt>
      <trkpt lat="-11.5485840" lon="-76.6758640">
        <ele>3096.0</ele>
        <time>2022-09-11T21:26:32Z</time>
      </trkpt>
      <trkpt lat="-11.5486320" lon="-76.6758960">
        <ele>3096.4</ele>
        <time>2022-09-11T21:26:33Z</time>
      </trkpt>
      <trkpt lat="-11.5486860" lon="-76.6759240">
        <ele>3096.8</ele>
        <time>2022-09-11T21:26:34Z</time>
      </trkpt>
      <trkpt lat="-11.5487450" lon="-76.6759440">
        <ele>3097.2</ele>
        <time>2022-09-11T21:26:35Z</time>
      </trkpt>
      <trkpt lat="-11.5488090" lon="-76.6759560">
        <ele>3097.7</ele>
        <time>2022-09-11T21:26:36Z</time>
      </trkpt>
      <trkpt lat="-11.5488770" lon="-76.6759610">
        <ele>3098.2</ele>
        <time>2022-09-11T21:26:37Z</time>
      </trkpt>
      <trkpt lat="-11.5489480" lon="-76.6759580">
        <ele>3098.7</ele>
        <time>2022-09-11T21:26:38Z</time>
      </trkpt>
      <trkpt lat="-11.5490220" lon="-76.6759510">
        <ele>3099.2</ele>
        <time>2022-09-11T21:26:39Z</time>
      </trkpt>
      <trkpt lat="-11.5490980" lon="-76.6759410">
        <ele>3099.7</ele>
        <time>2022-09-11T21:26:40Z</time>
      </trkpt>
      <trkpt lat="-11.5491770" lon="-76.6759310">
        <ele>3100.3</ele>
        <time>2022-09-11T21:26:41Z</time>
      </trkpt>
      <trkpt lat="-11.5492560" lon="-76.6759260">
        <ele>3096.8</ele>
        <time>2022-09-11T21:26:42Z</time>
      </trkpt>
      <trkpt lat="-11.5493350" lon="-76.6759310">
        <ele>3094.0</ele>
        <time>2022-09-11T21:26:43Z</time>
      </trkpt>
      <trkpt lat="-11.5494110" lon="-76.6759520">
        <ele>3090.4</ele>
        <time>2022-09-11T21:26:44Z</time>
      </trkpt>
      <trkpt lat="-11.5494790" lon="-76.6759970">
        <ele>3086.5</ele>
        <time>2022-09-11T21:26:45Z</time>
      </trkpt>
      <trkpt lat="-11.5495350" lon="-76.6760610">
        <ele>3085.9</ele>
        <time>2022-09-11T21:26:46Z</time>
      </trkpt>
      <trkpt lat="-11.5495840" lon="-76.6761340">
        <ele>3085.2</ele>
        <time>2022-09-11T21:26:47Z</time>
      </trkpt>
      <trkpt lat="-11.5496360" lon="-76.6762060">
        <ele>3084.5</ele>
        <time>2022-09-11T21:26:48Z</time>
      </trkpt>
      <trkpt lat="-11.5496920" lon="-76.6762730">
        <ele>3083.8</ele>
        <time>2022-09-11T21:26:49Z</time>
      </trkpt>
      <trkpt lat="-11.5497510" lon="-76.6763330">
        <ele>3083.1</ele>
        <time>2022-09-11T21:26:50Z</time>
      </trkpt>
      <trkpt lat="-11.5498150" lon="-76.6763850">
        <ele>3082.5</ele>
        <time>2022-09-11T21:26:51Z</time>
      </trkpt>
      <trkpt lat="-11.5498820" lon="-76.6764280">
        <ele>3081.8</ele>
        <time>2022-09-11T21:26:52Z</time>
      </trkpt>
      <trkpt lat="-11.5499550" lon="-76.6764590">
        <ele>3081.2</ele>
        <time>2022-09-11T21:26:53Z</time>
      </trkpt>
      <trkpt lat="-11.5500260" lon="-76.6764850">
        <ele>3080.6</ele>
        <time>2022-09-11T21:26:54Z</time>
      </trkpt>
      <trkpt lat="-11.5501000" lon="-76.6765120">
        <ele>3080.0</ele>
        <time>2022-09-11T21:26:55Z</time>
      </trkpt>
      <trkpt lat="-11.5501770" lon="-76.6765360">
        <ele>3079.3</ele>
        <time>2022-09-11T21:26:56Z</time>
      </trkpt>
      <trkpt lat="-11.5502540" lon="-76.6765590">
        <ele>3078.7</ele>
        <time>2022-09-11T21:26:57Z</time>
      </trkpt>
      <trkpt lat="-11.5503320" lon="-76.6765830">
        <ele>3078.1</ele>
        <time>2022-09-11T21:26:58Z</time>
      </trkpt>
      <trkpt lat="-11.5504080" lon="-76.6766060">
        <ele>3077.4</ele>
        <time>2022-09-11T21:26:59Z</time>
      </trkpt>
      <trkpt lat="-11.5504840" lon="-76.6766240">
        <ele>3076.8</ele>
        <time>2022-09-11T21:27:00Z</time>
      </trkpt>
      <trkpt lat="-11.5505600" lon="-76.6766420">
        <ele>3076.2</ele>
        <time>2022-09-11T21:27:01Z</time>
      </trkpt>
      <trkpt lat="-11.5506340" lon="-76.6766670">
        <ele>3075.6</ele>
        <time>2022-09-11T21:27:02Z</time>
      </trkpt>
      <trkpt lat="-11.5507020" lon="-76.6766980">
        <ele>3075.0</ele>
        <time>2022-09-11T21:27:03Z</time>
      </trkpt>
      <trkpt lat="-11.5507630" lon="-76.6767390">
        <ele>3074.4</ele>
        <time>2022-09-11T21:27:04Z</time>
      </trkpt>
      <trkpt lat="-11.5508150" lon="-76.6767810">
        <ele>3073.9</ele>
        <time>2022-09-11T21:27:05Z</time>
      </trkpt>
      <trkpt lat="-11.5508630" lon="-76.6768220">
        <ele>3073.4</ele>
        <time>2022-09-11T21:27:06Z</time>
      </trkpt>
      <trkpt lat="-11.5508990" lon="-76.6768590">
        <ele>3072.9</ele>
        <time>2022-09-11T21:27:07Z</time>
      </trkpt>
      <trkpt lat="-11.5509200" lon="-76.6768950">
        <ele>3072.7</ele>
        <time>2022-09-11T21:27:08Z</time>
      </trkpt>
      <trkpt lat="-11.5509170" lon="-76.6769380">
        <ele>3073.0</ele>
        <time>2022-09-11T21:27:09Z</time>
      </trkpt>
      <trkpt lat="-11.5509130" lon="-76.6769580">
        <ele>3073.1</ele>
        <time>2022-09-11T21:27:10Z</time>
      </trkpt>
      <trkpt lat="-11.5508830" lon="-76.6769850">
        <ele>3073.4</ele>
        <time>2022-09-11T21:27:11Z</time>
      </trkpt>
      <trkpt lat="-11.5508480" lon="-76.6769850">
        <ele>3073.6</ele>
        <time>2022-09-11T21:27:12Z</time>
      </trkpt>
      <trkpt lat="-11.5508170" lon="-76.6769710">
        <ele>3073.9</ele>
        <time>2022-09-11T21:27:13Z</time>
      </trkpt>
      <trkpt lat="-11.5507890" lon="-76.6769420">
        <ele>3074.1</ele>
        <time>2022-09-11T21:27:14Z</time>
      </trkpt>
      <trkpt lat="-11.5507460" lon="-76.6768950">
        <ele>3074.6</ele>
        <time>2022-09-11T21:27:15Z</time>
      </trkpt>
      <trkpt lat="-11.5506990" lon="-76.6768550">
        <ele>3075.0</ele>
        <time>2022-09-11T21:27:16Z</time>
      </trkpt>
      <trkpt lat="-11.5506410" lon="-76.6768260">
        <ele>3075.4</ele>
        <time>2022-09-11T21:27:17Z</time>
      </trkpt>
      <trkpt lat="-11.5505770" lon="-76.6768010">
        <ele>3075.9</ele>
        <time>2022-09-11T21:27:18Z</time>
      </trkpt>
      <trkpt lat="-11.5505110" lon="-76.6767830">
        <ele>3076.4</ele>
        <time>2022-09-11T21:27:19Z</time>
      </trkpt>
      <trkpt lat="-11.5504410" lon="-76.6767720">
        <ele>3076.8</ele>
        <time>2022-09-11T21:27:20Z</time>
      </trkpt>
      <trkpt lat="-11.5503700" lon="-76.6767720">
        <ele>3077.3</ele>
        <time>2022-09-11T21:27:21Z</time>
      </trkpt>
      <trkpt lat="-11.5503010" lon="-76.6767730">
        <ele>3077.8</ele>
        <time>2022-09-11T21:27:22Z</time>
      </trkpt>
      <trkpt lat="-11.5502290" lon="-76.6767700">
        <ele>3078.3</ele>
        <time>2022-09-11T21:27:23Z</time>
      </trkpt>
      <trkpt lat="-11.5501520" lon="-76.6767670">
        <ele>3078.8</ele>
        <time>2022-09-11T21:27:24Z</time>
      </trkpt>
      <trkpt lat="-11.5500720" lon="-76.6767560">
        <ele>3079.4</ele>
        <time>2022-09-11T21:27:25Z</time>
      </trkpt>
      <trkpt lat="-11.5499900" lon="-76.6767450">
        <ele>3079.9</ele>
        <time>2022-09-11T21:27:26Z</time>
      </trkpt>
      <trkpt lat="-11.5499070" lon="-76.6767340">
        <ele>3080.5</ele>
        <time>2022-09-11T21:27:27Z</time>
      </trkpt>
      <trkpt lat="-11.5498150" lon="-76.6767360">
        <ele>3070.6</ele>
        <time>2022-09-11T21:27:28Z</time>
      </trkpt>
      <trkpt lat="-11.5497130" lon="-76.6767670">
        <ele>3059.8</ele>
        <time>2022-09-11T21:27:29Z</time>
      </trkpt>
      <trkpt lat="-11.5496110" lon="-76.6768060">
        <ele>3058.9</ele>
        <time>2022-09-11T21:27:30Z</time>
      </trkpt>
      <trkpt lat="-11.5495160" lon="-76.6768360">
        <ele>3058.2</ele>
        <time>2022-09-11T21:27:31Z</time>
      </trkpt>
      <trkpt lat="-11.5494130" lon="-76.6768620">
        <ele>3057.3</ele>
        <time>2022-09-11T21:27:32Z</time>
      </trkpt>
      <trkpt lat="-11.5493100" lon="-76.6768840">
        <ele>3056.5</ele>
        <time>2022-09-11T21:27:33Z</time>
      </trkpt>
      <trkpt lat="-11.5492070" lon="-76.6769000">
        <ele>3055.7</ele>
        <time>2022-09-11T21:27:34Z</time>
      </trkpt>
      <trkpt lat="-11.5491090" lon="-76.6769110">
        <ele>3055.0</ele>
        <time>2022-09-11T21:27:35Z</time>
      </trkpt>
      <trkpt lat="-11.5490250" lon="-76.6769120">
        <ele>3054.3</ele>
        <time>2022-09-11T21:27:36Z</time>
      </trkpt>
      <trkpt lat="-11.5489450" lon="-76.6769020">
        <ele>3053.7</ele>
        <time>2022-09-11T21:27:37Z</time>
      </trkpt>
      <trkpt lat="-11.5488680" lon="-76.6768780">
        <ele>3053.1</ele>
        <time>2022-09-11T21:27:38Z</time>
      </trkpt>
      <trkpt lat="-11.5487990" lon="-76.6768350">
        <ele>3052.5</ele>
        <time>2022-09-11T21:27:39Z</time>
      </trkpt>
      <trkpt lat="-11.5487410" lon="-76.6767780">
        <ele>3051.8</ele>
        <time>2022-09-11T21:27:40Z</time>
      </trkpt>
      <trkpt lat="-11.5486910" lon="-76.6767080">
        <ele>3051.2</ele>
        <time>2022-09-11T21:27:41Z</time>
      </trkpt>
      <trkpt lat="-11.5486470" lon="-76.6766380">
        <ele>3050.6</ele>
        <time>2022-09-11T21:27:42Z</time>
      </trkpt>
      <trkpt lat="-11.5486090" lon="-76.6765730">
        <ele>3050.0</ele>
        <time>2022-09-11T21:27:43Z</time>
      </trkpt>
      <trkpt lat="-11.5485800" lon="-76.6765150">
        <ele>3049.5</ele>
        <time>2022-09-11T21:27:44Z</time>
      </trkpt>
      <trkpt lat="-11.5485470" lon="-76.6764700">
        <ele>3049.1</ele>
        <time>2022-09-11T21:27:45Z</time>
      </trkpt>
      <trkpt lat="-11.5485060" lon="-76.6764490">
        <ele>3048.7</ele>
        <time>2022-09-11T21:27:46Z</time>
      </trkpt>
      <trkpt lat="-11.5484610" lon="-76.6764560">
        <ele>3048.4</ele>
        <time>2022-09-11T21:27:47Z</time>
      </trkpt>
      <trkpt lat="-11.5484370" lon="-76.6764800">
        <ele>3048.1</ele>
        <time>2022-09-11T21:27:48Z</time>
      </trkpt>
      <trkpt lat="-11.5484140" lon="-76.6765210">
        <ele>3047.8</ele>
        <time>2022-09-11T21:27:49Z</time>
      </trkpt>
      <trkpt lat="-11.5484150" lon="-76.6765490">
        <ele>3047.5</ele>
        <time>2022-09-11T21:27:50Z</time>
      </trkpt>
      <trkpt lat="-11.5484280" lon="-76.6765880">
        <ele>3047.2</ele>
        <time>2022-09-11T21:27:51Z</time>
      </trkpt>
      <trkpt lat="-11.5484460" lon="-76.6766190">
        <ele>3047.0</ele>
        <time>2022-09-11T21:27:52Z</time>
      </trkpt>
      <trkpt lat="-11.5484640" lon="-76.6766560">
        <ele>3046.6</ele>
        <time>2022-09-11T21:27:53Z</time>
      </trkpt>
      <trkpt lat="-11.5484930" lon="-76.6767130">
        <ele>3046.2</ele>
        <time>2022-09-11T21:27:54Z</time>
      </trkpt>
      <trkpt lat="-11.5485190" lon="-76.6767630">
        <ele>3045.7</ele>
        <time>2022-09-11T21:27:55Z</time>
      </trkpt>
      <trkpt lat="-11.5485370" lon="-76.6768100">
        <ele>3045.4</ele>
        <time>2022-09-11T21:27:56Z</time>
      </trkpt>
      <trkpt lat="-11.5485580" lon="-76.6768510">
        <ele>3045.0</ele>
        <time>2022-09-11T21:27:57Z</time>
      </trkpt>
      <trkpt lat="-11.5485830" lon="-76.6768910">
        <ele>3044.6</ele>
        <time>2022-09-11T21:27:58Z</time>
      </trkpt>
      <trkpt lat="-11.5486110" lon="-76.6769340">
        <ele>3044.3</ele>
        <time>2022-09-11T21:27:59Z</time>
      </trkpt>
      <trkpt lat="-11.5486360" lon="-76.6769820">
        <ele>3043.9</ele>
        <time>2022-09-11T21:28:00Z</time>
      </trkpt>
      <trkpt lat="-11.5486690" lon="-76.6770300">
        <ele>3043.4</ele>
        <time>2022-09-11T21:28:01Z</time>
      </trkpt>
      <trkpt lat="-11.5487060" lon="-76.6770790">
        <ele>3042.9</ele>
        <time>2022-09-11T21:28:02Z</time>
      </trkpt>
      <trkpt lat="-11.5487490" lon="-76.6771230">
        <ele>3042.5</ele>
        <time>2022-09-11T21:28:03Z</time>
      </trkpt>
      <trkpt lat="-11.5487920" lon="-76.6771690">
        <ele>3042.0</ele>
        <time>2022-09-11T21:28:04Z</time>
      </trkpt>
      <trkpt lat="-11.5488410" lon="-76.6772100">
        <ele>3041.5</ele>
        <time>2022-09-11T21:28:05Z</time>
      </trkpt>
      <trkpt lat="-11.5488930" lon="-76.6772490">
        <ele>3041.0</ele>
        <time>2022-09-11T21:28:06Z</time>
      </trkpt>
      <trkpt lat="-11.5489460" lon="-76.6772920">
        <ele>3040.5</ele>
        <time>2022-09-11T21:28:07Z</time>
      </trkpt>
      <trkpt lat="-11.5490010" lon="-76.6773380">
        <ele>3039.9</ele>
        <time>2022-09-11T21:28:08Z</time>
      </trkpt>
      <trkpt lat="-11.5490610" lon="-76.6773840">
        <ele>3039.4</ele>
        <time>2022-09-11T21:28:09Z</time>
      </trkpt>
      <trkpt lat="-11.5491250" lon="-76.6774200">
        <ele>3038.8</ele>
        <time>2022-09-11T21:28:10Z</time>
      </trkpt>
      <trkpt lat="-11.5491950" lon="-76.6774420">
        <ele>3038.2</ele>
        <time>2022-09-11T21:28:11Z</time>
      </trkpt>
      <trkpt lat="-11.5492740" lon="-76.6774450">
        <ele>3037.6</ele>
        <time>2022-09-11T21:28:12Z</time>
      </trkpt>
      <trkpt lat="-11.5493510" lon="-76.6774390">
        <ele>3037.0</ele>
        <time>2022-09-11T21:28:13Z</time>
      </trkpt>
      <trkpt lat="-11.5494260" lon="-76.6774280">
        <ele>3036.5</ele>
        <time>2022-09-11T21:28:14Z</time>
      </trkpt>
      <trkpt lat="-11.5494990" lon="-76.6774150">
        <ele>3035.9</ele>
        <time>2022-09-11T21:28:15Z</time>
      </trkpt>
      <trkpt lat="-11.5495720" lon="-76.6773980">
        <ele>3035.3</ele>
        <time>2022-09-11T21:28:16Z</time>
      </trkpt>
      <trkpt lat="-11.5496440" lon="-76.6773850">
        <ele>3034.7</ele>
        <time>2022-09-11T21:28:17Z</time>
      </trkpt>
      <trkpt lat="-11.5497110" lon="-76.6773830">
        <ele>3034.2</ele>
        <time>2022-09-11T21:28:18Z</time>
      </trkpt>
      <trkpt lat="-11.5497760" lon="-76.6773870">
        <ele>3033.7</ele>
        <time>2022-09-11T21:28:19Z</time>
      </trkpt>
      <trkpt lat="-11.5498370" lon="-76.6774080">
        <ele>3033.2</ele>
        <time>2022-09-11T21:28:20Z</time>
      </trkpt>
      <trkpt lat="-11.5498840" lon="-76.6774430">
        <ele>3032.8</ele>
        <time>2022-09-11T21:28:21Z</time>
      </trkpt>
      <trkpt lat="-11.5499200" lon="-76.6774810">
        <ele>3032.4</ele>
        <time>2022-09-11T21:28:22Z</time>
      </trkpt>
      <trkpt lat="-11.5499450" lon="-76.6775170">
        <ele>3032.1</ele>
        <time>2022-09-11T21:28:23Z</time>
      </trkpt>
      <trkpt lat="-11.5499510" lon="-76.6775560">
        <ele>3031.8</ele>
        <time>2022-09-11T21:28:24Z</time>
      </trkpt>
      <trkpt lat="-11.5499500" lon="-76.6775700">
        <ele>3030.0</ele>
        <time>2022-09-11T21:28:25Z</time>
      </trkpt>
      <trkpt lat="-11.5499260" lon="-76.6775960">
        <ele>3029.6</ele>
        <time>2022-09-11T21:28:26Z</time>
      </trkpt>
      <trkpt lat="-11.5498790" lon="-76.6776090">
        <ele>3029.1</ele>
        <time>2022-09-11T21:28:27Z</time>
      </trkpt>
      <trkpt lat="-11.5498140" lon="-76.6775990">
        <ele>3028.4</ele>
        <time>2022-09-11T21:28:28Z</time>
      </trkpt>
      <trkpt lat="-11.5497530" lon="-76.6775780">
        <ele>3027.6</ele>
        <time>2022-09-11T21:28:29Z</time>
      </trkpt>
      <trkpt lat="-11.5496850" lon="-76.6775730">
        <ele>3026.8</ele>
        <time>2022-09-11T21:28:30Z</time>
      </trkpt>
      <trkpt lat="-11.5496160" lon="-76.6775800">
        <ele>3026.1</ele>
        <time>2022-09-11T21:28:31Z</time>
      </trkpt>
      <trkpt lat="-11.5495470" lon="-76.6775990">
        <ele>3025.4</ele>
        <time>2022-09-11T21:28:32Z</time>
      </trkpt>
      <trkpt lat="-11.5494800" lon="-76.6776170">
        <ele>3024.7</ele>
        <time>2022-09-11T21:28:33Z</time>
      </trkpt>
      <trkpt lat="-11.5494130" lon="-76.6776320">
        <ele>3024.0</ele>
        <time>2022-09-11T21:28:34Z</time>
      </trkpt>
      <trkpt lat="-11.5493420" lon="-76.6776390">
        <ele>3023.2</ele>
        <time>2022-09-11T21:28:35Z</time>
      </trkpt>
      <trkpt lat="-11.5492680" lon="-76.6776460">
        <ele>3022.5</ele>
        <time>2022-09-11T21:28:36Z</time>
      </trkpt>
      <trkpt lat="-11.5491880" lon="-76.6776460">
        <ele>3021.6</ele>
        <time>2022-09-11T21:28:37Z</time>
      </trkpt>
      <trkpt lat="-11.5491090" lon="-76.6776410">
        <ele>3020.8</ele>
        <time>2022-09-11T21:28:38Z</time>
      </trkpt>
      <trkpt lat="-11.5490290" lon="-76.6776280">
        <ele>3020.0</ele>
        <time>2022-09-11T21:28:39Z</time>
      </trkpt>
      <trkpt lat="-11.5489510" lon="-76.6776010">
        <ele>3019.1</ele>
        <time>2022-09-11T21:28:40Z</time>
      </trkpt>
      <trkpt lat="-11.5488730" lon="-76.6775770">
        <ele>3018.3</ele>
        <time>2022-09-11T21:28:41Z</time>
      </trkpt>
      <trkpt lat="-11.5488010" lon="-76.6775460">
        <ele>3017.6</ele>
        <time>2022-09-11T21:28:42Z</time>
      </trkpt>
      <trkpt lat="-11.5487360" lon="-76.6775080">
        <ele>3017.0</ele>
        <time>2022-09-11T21:28:43Z</time>
      </trkpt>
      <trkpt lat="-11.5486700" lon="-76.6774670">
        <ele>3016.2</ele>
        <time>2022-09-11T21:28:44Z</time>
      </trkpt>
      <trkpt lat="-11.5486100" lon="-76.6774180">
        <ele>3015.3</ele>
        <time>2022-09-11T21:28:45Z</time>
      </trkpt>
      <trkpt lat="-11.5485500" lon="-76.6773670">
        <ele>3014.5</ele>
        <time>2022-09-11T21:28:46Z</time>
      </trkpt>
      <trkpt lat="-11.5484920" lon="-76.6773140">
        <ele>3013.7</ele>
        <time>2022-09-11T21:28:47Z</time>
      </trkpt>
      <trkpt lat="-11.5484330" lon="-76.6772620">
        <ele>3012.9</ele>
        <time>2022-09-11T21:28:48Z</time>
      </trkpt>
      <trkpt lat="-11.5483700" lon="-76.6772140">
        <ele>3012.1</ele>
        <time>2022-09-11T21:28:49Z</time>
      </trkpt>
      <trkpt lat="-11.5482980" lon="-76.6771690">
        <ele>3011.1</ele>
        <time>2022-09-11T21:28:50Z</time>
      </trkpt>
      <trkpt lat="-11.5482180" lon="-76.6771280">
        <ele>3010.1</ele>
        <time>2022-09-11T21:28:51Z</time>
      </trkpt>
      <trkpt lat="-11.5481300" lon="-76.6770910">
        <ele>3009.0</ele>
        <time>2022-09-11T21:28:52Z</time>
      </trkpt>
      <trkpt lat="-11.5480370" lon="-76.6770610">
        <ele>3007.8</ele>
        <time>2022-09-11T21:28:53Z</time>
      </trkpt>
      <trkpt lat="-11.5479430" lon="-76.6770470">
        <ele>3006.8</ele>
        <time>2022-09-11T21:28:54Z</time>
      </trkpt>
      <trkpt lat="-11.5478550" lon="-76.6770410">
        <ele>3005.8</ele>
        <time>2022-09-11T21:28:55Z</time>
      </trkpt>
      <trkpt lat="-11.5477740" lon="-76.6770430">
        <ele>3005.0</ele>
        <time>2022-09-11T21:28:56Z</time>
      </trkpt>
      <trkpt lat="-11.5477010" lon="-76.6770620">
        <ele>3004.2</ele>
        <time>2022-09-11T21:28:57Z</time>
      </trkpt>
      <trkpt lat="-11.5476410" lon="-76.6771000">
        <ele>3003.4</ele>
        <time>2022-09-11T21:28:58Z</time>
      </trkpt>
      <trkpt lat="-11.5475950" lon="-76.6771580">
        <ele>3002.5</ele>
        <time>2022-09-11T21:28:59Z</time>
      </trkpt>
      <trkpt lat="-11.5475580" lon="-76.6772290">
        <ele>3001.5</ele>
        <time>2022-09-11T21:29:00Z</time>
      </trkpt>
      <trkpt lat="-11.5475200" lon="-76.6773080">
        <ele>3000.5</ele>
        <time>2022-09-11T21:29:01Z</time>
      </trkpt>
      <trkpt lat="-11.5474820" lon="-76.6773960">
        <ele>2999.3</ele>
        <time>2022-09-11T21:29:02Z</time>
      </trkpt>
      <trkpt lat="-11.5474460" lon="-76.6774880">
        <ele>2998.1</ele>
        <time>2022-09-11T21:29:03Z</time>
      </trkpt>
      <trkpt lat="-11.5474190" lon="-76.6775820">
        <ele>2996.8</ele>
        <time>2022-09-11T21:29:04Z</time>
      </trkpt>
      <trkpt lat="-11.5473970" lon="-76.6776760">
        <ele>2995.6</ele>
        <time>2022-09-11T21:29:05Z</time>
      </trkpt>
      <trkpt lat="-11.5473710" lon="-76.6777690">
        <ele>2994.5</ele>
        <time>2022-09-11T21:29:06Z</time>
      </trkpt>
      <trkpt lat="-11.5473360" lon="-76.6778550">
        <ele>2993.5</ele>
        <time>2022-09-11T21:29:07Z</time>
      </trkpt>
      <trkpt lat="-11.5472960" lon="-76.6779300">
        <ele>2992.6</ele>
        <time>2022-09-11T21:29:08Z</time>
      </trkpt>
      <trkpt lat="-11.5472510" lon="-76.6779890">
        <ele>2991.7</ele>
        <time>2022-09-11T21:29:09Z</time>
      </trkpt>
      <trkpt lat="-11.5472060" lon="-76.6780350">
        <ele>2990.9</ele>
        <time>2022-09-11T21:29:10Z</time>
      </trkpt>
      <trkpt lat="-11.5471570" lon="-76.6780720">
        <ele>2990.2</ele>
        <time>2022-09-11T21:29:11Z</time>
      </trkpt>
      <trkpt lat="-11.5470940" lon="-76.6781050">
        <ele>2989.4</ele>
        <time>2022-09-11T21:29:12Z</time>
      </trkpt>
      <trkpt lat="-11.5470190" lon="-76.6781300">
        <ele>2988.5</ele>
        <time>2022-09-11T21:29:13Z</time>
      </trkpt>
      <trkpt lat="-11.5469400" lon="-76.6781560">
        <ele>2987.5</ele>
        <time>2022-09-11T21:29:14Z</time>
      </trkpt>
      <trkpt lat="-11.5468640" lon="-76.6781920">
        <ele>2986.7</ele>
        <time>2022-09-11T21:29:15Z</time>
      </trkpt>
      <trkpt lat="-11.5467930" lon="-76.6782440">
        <ele>2985.6</ele>
        <time>2022-09-11T21:29:16Z</time>
      </trkpt>
      <trkpt lat="-11.5467190" lon="-76.6782960">
        <ele>2984.5</ele>
        <time>2022-09-11T21:29:17Z</time>
      </trkpt>
      <trkpt lat="-11.5466400" lon="-76.6783490">
        <ele>2983.3</ele>
        <time>2022-09-11T21:29:18Z</time>
      </trkpt>
      <trkpt lat="-11.5465600" lon="-76.6784070">
        <ele>2982.1</ele>
        <time>2022-09-11T21:29:19Z</time>
      </trkpt>
      <trkpt lat="-11.5464780" lon="-76.6784640">
        <ele>2980.9</ele>
        <time>2022-09-11T21:29:20Z</time>
      </trkpt>
      <trkpt lat="-11.5464020" lon="-76.6785190">
        <ele>2979.7</ele>
        <time>2022-09-11T21:29:21Z</time>
      </trkpt>
      <trkpt lat="-11.5463370" lon="-76.6785700">
        <ele>2978.7</ele>
        <time>2022-09-11T21:29:22Z</time>
      </trkpt>
      <trkpt lat="-11.5462800" lon="-76.6786180">
        <ele>2977.8</ele>
        <time>2022-09-11T21:29:23Z</time>
      </trkpt>
      <trkpt lat="-11.5462230" lon="-76.6786630">
        <ele>2976.8</ele>
        <time>2022-09-11T21:29:24Z</time>
      </trkpt>
      <trkpt lat="-11.5461670" lon="-76.6786980">
        <ele>2976.0</ele>
        <time>2022-09-11T21:29:25Z</time>
      </trkpt>
      <trkpt lat="-11.5461060" lon="-76.6787180">
        <ele>2975.2</ele>
        <time>2022-09-11T21:29:26Z</time>
      </trkpt>
      <trkpt lat="-11.5460350" lon="-76.6787140">
        <ele>2974.3</ele>
        <time>2022-09-11T21:29:27Z</time>
      </trkpt>
      <trkpt lat="-11.5459630" lon="-76.6786860">
        <ele>2973.4</ele>
        <time>2022-09-11T21:29:28Z</time>
      </trkpt>
      <trkpt lat="-11.5458960" lon="-76.6786480">
        <ele>2972.4</ele>
        <time>2022-09-11T21:29:29Z</time>
      </trkpt>
      <trkpt lat="-11.5458330" lon="-76.6786110">
        <ele>2971.5</ele>
        <time>2022-09-11T21:29:30Z</time>
      </trkpt>
      <trkpt lat="-11.5457720" lon="-76.6785600">
        <ele>2970.5</ele>
        <time>2022-09-11T21:29:31Z</time>
      </trkpt>
      <trkpt lat="-11.5457180" lon="-76.6785060">
        <ele>2969.6</ele>
        <time>2022-09-11T21:29:32Z</time>
      </trkpt>
      <trkpt lat="-11.5456710" lon="-76.6784510">
        <ele>2968.7</ele>
        <time>2022-09-11T21:29:33Z</time>
      </trkpt>
      <trkpt lat="-11.5456160" lon="-76.6784040">
        <ele>2967.8</ele>
        <time>2022-09-11T21:29:34Z</time>
      </trkpt>
      <trkpt lat="-11.5455430" lon="-76.6783740">
        <ele>2966.8</ele>
        <time>2022-09-11T21:29:35Z</time>
      </trkpt>
      <trkpt lat="-11.5454640" lon="-76.6783680">
        <ele>2965.8</ele>
        <time>2022-09-11T21:29:36Z</time>
      </trkpt>
      <trkpt lat="-11.5453790" lon="-76.6783780">
        <ele>2964.7</ele>
        <time>2022-09-11T21:29:37Z</time>
      </trkpt>
      <trkpt lat="-11.5452890" lon="-76.6783900">
        <ele>2963.6</ele>
        <time>2022-09-11T21:29:38Z</time>
      </trkpt>
      <trkpt lat="-11.5451930" lon="-76.6783900">
        <ele>2962.4</ele>
        <time>2022-09-11T21:29:39Z</time>
      </trkpt>
      <trkpt lat="-11.5450960" lon="-76.6783840">
        <ele>2961.2</ele>
        <time>2022-09-11T21:29:40Z</time>
      </trkpt>
      <trkpt lat="-11.5449990" lon="-76.6783780">
        <ele>2960.0</ele>
        <time>2022-09-11T21:29:41Z</time>
      </trkpt>
      <trkpt lat="-11.5449040" lon="-76.6783790">
        <ele>2958.8</ele>
        <time>2022-09-11T21:29:42Z</time>
      </trkpt>
      <trkpt lat="-11.5448130" lon="-76.6783920">
        <ele>2957.6</ele>
        <time>2022-09-11T21:29:43Z</time>
      </trkpt>
      <trkpt lat="-11.5447200" lon="-76.6784070">
        <ele>2956.4</ele>
        <time>2022-09-11T21:29:44Z</time>
      </trkpt>
      <trkpt lat="-11.5446210" lon="-76.6784210">
        <ele>2955.2</ele>
        <time>2022-09-11T21:29:45Z</time>
      </trkpt>
      <trkpt lat="-11.5445250" lon="-76.6784300">
        <ele>2954.0</ele>
        <time>2022-09-11T21:29:46Z</time>
      </trkpt>
      <trkpt lat="-11.5444310" lon="-76.6784340">
        <ele>2952.8</ele>
        <time>2022-09-11T21:29:47Z</time>
      </trkpt>
      <trkpt lat="-11.5443380" lon="-76.6784260">
        <ele>2951.6</ele>
        <time>2022-09-11T21:29:48Z</time>
      </trkpt>
      <trkpt lat="-11.5442460" lon="-76.6784110">
        <ele>2950.5</ele>
        <time>2022-09-11T21:29:49Z</time>
      </trkpt>
      <trkpt lat="-11.5441600" lon="-76.6783950">
        <ele>2949.4</ele>
        <time>2022-09-11T21:29:50Z</time>
      </trkpt>
      <trkpt lat="-11.5440780" lon="-76.6783720">
        <ele>2948.3</ele>
        <time>2022-09-11T21:29:51Z</time>
      </trkpt>
      <trkpt lat="-11.5439920" lon="-76.6783590">
        <ele>2947.2</ele>
        <time>2022-09-11T21:29:52Z</time>
      </trkpt>
      <trkpt lat="-11.5439000" lon="-76.6783720">
        <ele>2946.1</ele>
        <time>2022-09-11T21:29:53Z</time>
      </trkpt>
      <trkpt lat="-11.5438090" lon="-76.6784030">
        <ele>2944.9</ele>
        <time>2022-09-11T21:29:54Z</time>
      </trkpt>
      <trkpt lat="-11.5437250" lon="-76.6784450">
        <ele>2943.7</ele>
        <time>2022-09-11T21:29:55Z</time>
      </trkpt>
      <trkpt lat="-11.5436520" lon="-76.6784990">
        <ele>2942.6</ele>
        <time>2022-09-11T21:29:56Z</time>
      </trkpt>
      <trkpt lat="-11.5435880" lon="-76.6785650">
        <ele>2941.4</ele>
        <time>2022-09-11T21:29:57Z</time>
      </trkpt>
      <trkpt lat="-11.5435290" lon="-76.6786360">
        <ele>2940.3</ele>
        <time>2022-09-11T21:29:58Z</time>
      </trkpt>
      <trkpt lat="-11.5434580" lon="-76.6787000">
        <ele>2939.1</ele>
        <time>2022-09-11T21:29:59Z</time>
      </trkpt>
      <trkpt lat="-11.5433750" lon="-76.6787570">
        <ele>2937.9</ele>
        <time>2022-09-11T21:30:00Z</time>
      </trkpt>
      <trkpt lat="-11.5432890" lon="-76.6788100">
        <ele>2936.6</ele>
        <time>2022-09-11T21:30:01Z</time>
      </trkpt>
      <trkpt lat="-11.5432040" lon="-76.6788600">
        <ele>2935.4</ele>
        <time>2022-09-11T21:30:02Z</time>
      </trkpt>
      <trkpt lat="-11.5431230" lon="-76.6789180">
        <ele>2934.1</ele>
        <time>2022-09-11T21:30:03Z</time>
      </trkpt>
      <trkpt lat="-11.5430450" lon="-76.6789830">
        <ele>2932.9</ele>
        <time>2022-09-11T21:30:04Z</time>
      </trkpt>
      <trkpt lat="-11.5429690" lon="-76.6790590">
        <ele>2931.5</ele>
        <time>2022-09-11T21:30:05Z</time>
      </trkpt>
      <trkpt lat="-11.5428990" lon="-76.6791390">
        <ele>2930.2</ele>
        <time>2022-09-11T21:30:06Z</time>
      </trkpt>
      <trkpt lat="-11.5428300" lon="-76.6792180">
        <ele>2928.9</ele>
        <time>2022-09-11T21:30:07Z</time>
      </trkpt>
      <trkpt lat="-11.5427570" lon="-76.6792910">
        <ele>2927.6</ele>
        <time>2022-09-11T21:30:08Z</time>
      </trkpt>
      <trkpt lat="-11.5426840" lon="-76.6793600">
        <ele>2926.4</ele>
        <time>2022-09-11T21:30:09Z</time>
      </trkpt>
      <trkpt lat="-11.5426140" lon="-76.6794260">
        <ele>2925.2</ele>
        <time>2022-09-11T21:30:10Z</time>
      </trkpt>
      <trkpt lat="-11.5425490" lon="-76.6794810">
        <ele>2924.2</ele>
        <time>2022-09-11T21:30:11Z</time>
      </trkpt>
      <trkpt lat="-11.5424900" lon="-76.6795270">
        <ele>2923.2</ele>
        <time>2022-09-11T21:30:12Z</time>
      </trkpt>
      <trkpt lat="-11.5424340" lon="-76.6795680">
        <ele>2922.4</ele>
        <time>2022-09-11T21:30:13Z</time>
      </trkpt>
      <trkpt lat="-11.5423800" lon="-76.6796000">
        <ele>2921.6</ele>
        <time>2022-09-11T21:30:14Z</time>
      </trkpt>
      <trkpt lat="-11.5423210" lon="-76.6796160">
        <ele>2920.8</ele>
        <time>2022-09-11T21:30:15Z</time>
      </trkpt>
      <trkpt lat="-11.5422620" lon="-76.6796130">
        <ele>2920.1</ele>
        <time>2022-09-11T21:30:16Z</time>
      </trkpt>
      <trkpt lat="-11.5422040" lon="-76.6795890">
        <ele>2919.3</ele>
        <time>2022-09-11T21:30:17Z</time>
      </trkpt>
      <trkpt lat="-11.5421530" lon="-76.6795500">
        <ele>2918.5</ele>
        <time>2022-09-11T21:30:18Z</time>
      </trkpt>
      <trkpt lat="-11.5421050" lon="-76.6795040">
        <ele>2917.7</ele>
        <time>2022-09-11T21:30:19Z</time>
      </trkpt>
      <trkpt lat="-11.5420530" lon="-76.6794570">
        <ele>2916.8</ele>
        <time>2022-09-11T21:30:20Z</time>
      </trkpt>
      <trkpt lat="-11.5419980" lon="-76.6794050">
        <ele>2915.9</ele>
        <time>2022-09-11T21:30:21Z</time>
      </trkpt>
      <trkpt lat="-11.5419430" lon="-76.6793520">
        <ele>2914.9</ele>
        <time>2022-09-11T21:30:22Z</time>
      </trkpt>
      <trkpt lat="-11.5418890" lon="-76.6792990">
        <ele>2914.0</ele>
        <time>2022-09-11T21:30:23Z</time>
      </trkpt>
      <trkpt lat="-11.5418320" lon="-76.6792440">
        <ele>2913.0</ele>
        <time>2022-09-11T21:30:24Z</time>
      </trkpt>
      <trkpt lat="-11.5417760" lon="-76.6791840">
        <ele>2912.0</ele>
        <time>2022-09-11T21:30:25Z</time>
      </trkpt>
      <trkpt lat="-11.5417240" lon="-76.6791190">
        <ele>2911.0</ele>
        <time>2022-09-11T21:30:26Z</time>
      </trkpt>
      <trkpt lat="-11.5416740" lon="-76.6790530">
        <ele>2909.9</ele>
        <time>2022-09-11T21:30:27Z</time>
      </trkpt>
      <trkpt lat="-11.5416240" lon="-76.6789880">
        <ele>2908.9</ele>
        <time>2022-09-11T21:30:28Z</time>
      </trkpt>
      <trkpt lat="-11.5415650" lon="-76.6789300">
        <ele>2907.9</ele>
        <time>2022-09-11T21:30:29Z</time>
      </trkpt>
      <trkpt lat="-11.5414960" lon="-76.6788850">
        <ele>2906.9</ele>
        <time>2022-09-11T21:30:30Z</time>
      </trkpt>
      <trkpt lat="-11.5414200" lon="-76.6788490">
        <ele>2905.8</ele>
        <time>2022-09-11T21:30:31Z</time>
      </trkpt>
      <trkpt lat="-11.5413410" lon="-76.6788230">
        <ele>2904.8</ele>
        <time>2022-09-11T21:30:32Z</time>
      </trkpt>
      <trkpt lat="-11.5412680" lon="-76.6787930">
        <ele>2903.8</ele>
        <time>2022-09-11T21:30:33Z</time>
      </trkpt>
      <trkpt lat="-11.5411940" lon="-76.6787560">
        <ele>2902.8</ele>
        <time>2022-09-11T21:30:34Z</time>
      </trkpt>
      <trkpt lat="-11.5411220" lon="-76.6787160">
        <ele>2901.7</ele>
        <time>2022-09-11T21:30:35Z</time>
      </trkpt>
      <trkpt lat="-11.5410620" lon="-76.6786690">
        <ele>2900.8</ele>
        <time>2022-09-11T21:30:36Z</time>
      </trkpt>
      <trkpt lat="-11.5410060" lon="-76.6786050">
        <ele>2899.7</ele>
        <time>2022-09-11T21:30:37Z</time>
      </trkpt>
      <trkpt lat="-11.5409520" lon="-76.6785310">
        <ele>2898.6</ele>
        <time>2022-09-11T21:30:38Z</time>
      </trkpt>
      <trkpt lat="-11.5409000" lon="-76.6784490">
        <ele>2897.4</ele>
        <time>2022-09-11T21:30:39Z</time>
      </trkpt>
      <trkpt lat="-11.5408530" lon="-76.6783690">
        <ele>2896.3</ele>
        <time>2022-09-11T21:30:40Z</time>
      </trkpt>
      <trkpt lat="-11.5407960" lon="-76.6782950">
        <ele>2895.1</ele>
        <time>2022-09-11T21:30:41Z</time>
      </trkpt>
      <trkpt lat="-11.5407250" lon="-76.6782330">
        <ele>2893.9</ele>
        <time>2022-09-11T21:30:42Z</time>
      </trkpt>
      <trkpt lat="-11.5406440" lon="-76.6781750">
        <ele>2892.7</ele>
        <time>2022-09-11T21:30:43Z</time>
      </trkpt>
      <trkpt lat="-11.5405550" lon="-76.6781210">
        <ele>2891.4</ele>
        <time>2022-09-11T21:30:44Z</time>
      </trkpt>
      <trkpt lat="-11.5404640" lon="-76.6780660">
        <ele>2890.1</ele>
        <time>2022-09-11T21:30:45Z</time>
      </trkpt>
      <trkpt lat="-11.5403740" lon="-76.6780120">
        <ele>2888.8</ele>
        <time>2022-09-11T21:30:46Z</time>
      </trkpt>
      <trkpt lat="-11.5402830" lon="-76.6779580">
        <ele>2887.5</ele>
        <time>2022-09-11T21:30:47Z</time>
      </trkpt>
      <trkpt lat="-11.5401940" lon="-76.6779080">
        <ele>2886.2</ele>
        <time>2022-09-11T21:30:48Z</time>
      </trkpt>
      <trkpt lat="-11.5401000" lon="-76.6778630">
        <ele>2884.9</ele>
        <time>2022-09-11T21:30:49Z</time>
      </trkpt>
      <trkpt lat="-11.5400030" lon="-76.6778210">
        <ele>2883.6</ele>
        <time>2022-09-11T21:30:50Z</time>
      </trkpt>
      <trkpt lat="-11.5399090" lon="-76.6777820">
        <ele>2882.3</ele>
        <time>2022-09-11T21:30:51Z</time>
      </trkpt>
      <trkpt lat="-11.5398220" lon="-76.6777480">
        <ele>2881.1</ele>
        <time>2022-09-11T21:30:52Z</time>
      </trkpt>
      <trkpt lat="-11.5397380" lon="-76.6777120">
        <ele>2880.0</ele>
        <time>2022-09-11T21:30:53Z</time>
      </trkpt>
      <trkpt lat="-11.5396520" lon="-76.6776690">
        <ele>2878.8</ele>
        <time>2022-09-11T21:30:54Z</time>
      </trkpt>
      <trkpt lat="-11.5395690" lon="-76.6776150">
        <ele>2877.6</ele>
        <time>2022-09-11T21:30:55Z</time>
      </trkpt>
      <trkpt lat="-11.5394950" lon="-76.6775520">
        <ele>2876.4</ele>
        <time>2022-09-11T21:30:56Z</time>
      </trkpt>
      <trkpt lat="-11.5394240" lon="-76.6774920">
        <ele>2875.2</ele>
        <time>2022-09-11T21:30:57Z</time>
      </trkpt>
      <trkpt lat="-11.5393390" lon="-76.6774500">
        <ele>2874.0</ele>
        <time>2022-09-11T21:30:58Z</time>
      </trkpt>
      <trkpt lat="-11.5392460" lon="-76.6774220">
        <ele>2871.1</ele>
        <time>2022-09-11T21:30:59Z</time>
      </trkpt>
      <trkpt lat="-11.5391590" lon="-76.6773940">
        <ele>2870.0</ele>
        <time>2022-09-11T21:31:00Z</time>
      </trkpt>
      <trkpt lat="-11.5390710" lon="-76.6773620">
        <ele>2868.8</ele>
        <time>2022-09-11T21:31:01Z</time>
      </trkpt>
      <trkpt lat="-11.5389760" lon="-76.6773450">
        <ele>2867.6</ele>
        <time>2022-09-11T21:31:02Z</time>
      </trkpt>
      <trkpt lat="-11.5388780" lon="-76.6773420">
        <ele>2866.3</ele>
        <time>2022-09-11T21:31:03Z</time>
      </trkpt>
      <trkpt lat="-11.5387790" lon="-76.6773320">
        <ele>2865.1</ele>
        <time>2022-09-11T21:31:04Z</time>
      </trkpt>
      <trkpt lat="-11.5386780" lon="-76.6773090">
        <ele>2863.8</ele>
        <time>2022-09-11T21:31:05Z</time>
      </trkpt>
      <trkpt lat="-11.5385800" lon="-76.6772790">
        <ele>2862.5</ele>
        <time>2022-09-11T21:31:06Z</time>
      </trkpt>
      <trkpt lat="-11.5384810" lon="-76.6772510">
        <ele>2861.2</ele>
        <time>2022-09-11T21:31:07Z</time>
      </trkpt>
      <trkpt lat="-11.5383830" lon="-76.6772340">
        <ele>2860.0</ele>
        <time>2022-09-11T21:31:08Z</time>
      </trkpt>
      <trkpt lat="-11.5382850" lon="-76.6772400">
        <ele>2858.8</ele>
        <time>2022-09-11T21:31:09Z</time>
      </trkpt>
      <trkpt lat="-11.5381810" lon="-76.6772480">
        <ele>2857.5</ele>
        <time>2022-09-11T21:31:10Z</time>
      </trkpt>
      <trkpt lat="-11.5380710" lon="-76.6772520">
        <ele>2856.1</ele>
        <time>2022-09-11T21:31:11Z</time>
      </trkpt>
      <trkpt lat="-11.5379600" lon="-76.6772540">
        <ele>2854.7</ele>
        <time>2022-09-11T21:31:12Z</time>
      </trkpt>
      <trkpt lat="-11.5378500" lon="-76.6772500">
        <ele>2853.3</ele>
        <time>2022-09-11T21:31:13Z</time>
      </trkpt>
      <trkpt lat="-11.5377370" lon="-76.6772450">
        <ele>2851.9</ele>
        <time>2022-09-11T21:31:14Z</time>
      </trkpt>
      <trkpt lat="-11.5376240" lon="-76.6772450">
        <ele>2850.5</ele>
        <time>2022-09-11T21:31:15Z</time>
      </trkpt>
      <trkpt lat="-11.5375140" lon="-76.6772480">
        <ele>2849.2</ele>
        <time>2022-09-11T21:31:16Z</time>
      </trkpt>
      <trkpt lat="-11.5374060" lon="-76.6772500">
        <ele>2848.0</ele>
        <time>2022-09-11T21:31:17Z</time>
      </trkpt>
      <trkpt lat="-11.5373000" lon="-76.6772490">
        <ele>2846.8</ele>
        <time>2022-09-11T21:31:18Z</time>
      </trkpt>
      <trkpt lat="-11.5371980" lon="-76.6772430">
        <ele>2845.6</ele>
        <time>2022-09-11T21:31:19Z</time>
      </trkpt>
      <trkpt lat="-11.5371010" lon="-76.6772410">
        <ele>2844.4</ele>
        <time>2022-09-11T21:31:20Z</time>
      </trkpt>
      <trkpt lat="-11.5370130" lon="-76.6772410">
        <ele>2843.3</ele>
        <time>2022-09-11T21:31:21Z</time>
      </trkpt>
      <trkpt lat="-11.5369290" lon="-76.6772470">
        <ele>2842.3</ele>
        <time>2022-09-11T21:31:22Z</time>
      </trkpt>
      <trkpt lat="-11.5368510" lon="-76.6772540">
        <ele>2841.2</ele>
        <time>2022-09-11T21:31:23Z</time>
      </trkpt>
      <trkpt lat="-11.5367850" lon="-76.6772660">
        <ele>2840.3</ele>
        <time>2022-09-11T21:31:24Z</time>
      </trkpt>
      <trkpt lat="-11.5367220" lon="-76.6772790">
        <ele>2839.5</ele>
        <time>2022-09-11T21:31:25Z</time>
      </trkpt>
      <trkpt lat="-11.5366600" lon="-76.6772950">
        <ele>2838.7</ele>
        <time>2022-09-11T21:31:26Z</time>
      </trkpt>
      <trkpt lat="-11.5365940" lon="-76.6773080">
        <ele>2837.8</ele>
        <time>2022-09-11T21:31:27Z</time>
      </trkpt>
      <trkpt lat="-11.5365240" lon="-76.6773180">
        <ele>2836.9</ele>
        <time>2022-09-11T21:31:28Z</time>
      </trkpt>
      <trkpt lat="-11.5364470" lon="-76.6773230">
        <ele>2835.8</ele>
        <time>2022-09-11T21:31:29Z</time>
      </trkpt>
      <trkpt lat="-11.5363690" lon="-76.6773220">
        <ele>2834.7</ele>
        <time>2022-09-11T21:31:30Z</time>
      </trkpt>
      <trkpt lat="-11.5362870" lon="-76.6773220">
        <ele>2833.6</ele>
        <time>2022-09-11T21:31:31Z</time>
      </trkpt>
      <trkpt lat="-11.5362030" lon="-76.6773200">
        <ele>2832.5</ele>
        <time>2022-09-11T21:31:32Z</time>
      </trkpt>
      <trkpt lat="-11.5361200" lon="-76.6773180">
        <ele>2831.4</ele>
        <time>2022-09-11T21:31:33Z</time>
      </trkpt>
      <trkpt lat="-11.5360460" lon="-76.6773140">
        <ele>2830.5</ele>
        <time>2022-09-11T21:31:34Z</time>
      </trkpt>
      <trkpt lat="-11.5359720" lon="-76.6773100">
        <ele>2829.5</ele>
        <time>2022-09-11T21:31:35Z</time>
      </trkpt>
      <trkpt lat="-11.5359000" lon="-76.6773060">
        <ele>2828.7</ele>
        <time>2022-09-11T21:31:36Z</time>
      </trkpt>
      <trkpt lat="-11.5358280" lon="-76.6773040">
        <ele>2827.8</ele>
        <time>2022-09-11T21:31:37Z</time>
      </trkpt>
      <trkpt lat="-11.5357610" lon="-76.6773030">
        <ele>2827.0</ele>
        <time>2022-09-11T21:31:38Z</time>
      </trkpt>
      <trkpt lat="-11.5356970" lon="-76.6773000">
        <ele>2826.2</ele>
        <time>2022-09-11T21:31:39Z</time>
      </trkpt>
      <trkpt lat="-11.5356390" lon="-76.6772910">
        <ele>2825.4</ele>
        <time>2022-09-11T21:31:40Z</time>
      </trkpt>
      <trkpt lat="-11.5355860" lon="-76.6772840">
        <ele>2824.8</ele>
        <time>2022-09-11T21:31:41Z</time>
      </trkpt>
      <trkpt lat="-11.5355320" lon="-76.6772730">
        <ele>2824.1</ele>
        <time>2022-09-11T21:31:42Z</time>
      </trkpt>
      <trkpt lat="-11.5354810" lon="-76.6772620">
        <ele>2823.5</ele>
        <time>2022-09-11T21:31:43Z</time>
      </trkpt>
      <trkpt lat="-11.5354350" lon="-76.6772510">
        <ele>2822.9</ele>
        <time>2022-09-11T21:31:44Z</time>
      </trkpt>
      <trkpt lat="-11.5353900" lon="-76.6772390">
        <ele>2822.3</ele>
        <time>2022-09-11T21:31:45Z</time>
      </trkpt>
      <trkpt lat="-11.5353490" lon="-76.6772250">
        <ele>2821.8</ele>
        <time>2022-09-11T21:31:46Z</time>
      </trkpt>
      <trkpt lat="-11.5353180" lon="-76.6772130">
        <ele>2821.4</ele>
        <time>2022-09-11T21:31:47Z</time>
      </trkpt>
      <trkpt lat="-11.5353080" lon="-76.6772100">
        <ele>2821.2</ele>
        <time>2022-09-11T21:31:48Z</time>
      </trkpt>
      <trkpt lat="-11.5353010" lon="-76.6772060">
        <ele>2821.1</ele>
        <time>2022-09-11T21:31:49Z</time>
      </trkpt>
      <trkpt lat="-11.5353000" lon="-76.6772050">
        <ele>2821.1</ele>
        <time>2022-09-11T21:31:50Z</time>
      </trkpt>
      <trkpt lat="-11.5353010" lon="-76.6772050">
        <ele>2821.1</ele>
        <time>2022-09-11T21:31:51Z</time>
      </trkpt>
      <trkpt lat="-11.5353020" lon="-76.6772060">
        <ele>2821.1</ele>
        <time>2022-09-11T21:31:52Z</time>
      </trkpt>
      <trkpt lat="-11.5353040" lon="-76.6772050">
        <ele>2821.0</ele>
        <time>2022-09-11T21:31:53Z</time>
      </trkpt>
      <trkpt lat="-11.5353060" lon="-76.6772050">
        <ele>2821.0</ele>
        <time>2022-09-11T21:31:54Z</time>
      </trkpt>
      <trkpt lat="-11.5353060" lon="-76.6772040">
        <ele>2821.0</ele>
        <time>2022-09-11T21:31:55Z</time>
      </trkpt>
      <trkpt lat="-11.5353070" lon="-76.6772050">
        <ele>2821.0</ele>
        <time>2022-09-11T21:31:56Z</time>
      </trkpt>
      <trkpt lat="-11.5353070" lon="-76.6772050">
        <ele>2821.0</ele>
        <time>2022-09-11T21:31:57Z</time>
      </trkpt>
      <trkpt lat="-11.5353060" lon="-76.6772050">
        <ele>2821.0</ele>
        <time>2022-09-11T21:31:58Z</time>
      </trkpt>
      <trkpt lat="-11.5353070" lon="-76.6772050">
        <ele>2821.0</ele>
        <time>2022-09-11T21:31:59Z</time>
      </trkpt>
      <trkpt lat="-11.5353070" lon="-76.6772050">
        <ele>2821.0</ele>
        <time>2022-09-11T21:32:00Z</time>
      </trkpt>
      <trkpt lat="-11.5353070" lon="-76.6772050">
        <ele>2821.0</ele>
        <time>2022-09-11T21:32:01Z</time>
      </trkpt>
      <trkpt lat="-11.5352820" lon="-76.6772000">
        <ele>2820.6</ele>
        <time>2022-09-11T21:32:05Z</time>
      </trkpt>
      <trkpt lat="-11.5352730" lon="-76.6771980">
        <ele>2820.5</ele>
        <time>2022-09-11T21:32:06Z</time>
      </trkpt>
      <trkpt lat="-11.5352690" lon="-76.6771970">
        <ele>2820.5</ele>
        <time>2022-09-11T21:32:07Z</time>
      </trkpt>
      <trkpt lat="-11.5352700" lon="-76.6771980">
        <ele>2820.4</ele>
        <time>2022-09-11T21:32:08Z</time>
      </trkpt>
      <trkpt lat="-11.5352720" lon="-76.6771970">
        <ele>2820.4</ele>
        <time>2022-09-11T21:32:09Z</time>
      </trkpt>
      <trkpt lat="-11.5352730" lon="-76.6771970">
        <ele>2820.4</ele>
        <time>2022-09-11T21:32:10Z</time>
      </trkpt>
      <trkpt lat="-11.5352740" lon="-76.6771950">
        <ele>2820.4</ele>
        <time>2022-09-11T21:32:11Z</time>
      </trkpt>
      <trkpt lat="-11.5352740" lon="-76.6771930">
        <ele>2820.3</ele>
        <time>2022-09-11T21:32:12Z</time>
      </trkpt>
      <trkpt lat="-11.5352750" lon="-76.6771920">
        <ele>2820.3</ele>
        <time>2022-09-11T21:32:13Z</time>
      </trkpt>
      <trkpt lat="-11.5352740" lon="-76.6771900">
        <ele>2820.3</ele>
        <time>2022-09-11T21:32:14Z</time>
      </trkpt>
      <trkpt lat="-11.5352740" lon="-76.6771900">
        <ele>2820.3</ele>
        <time>2022-09-11T21:32:15Z</time>
      </trkpt>
      <trkpt lat="-11.5352720" lon="-76.6771890">
        <ele>2820.3</ele>
        <time>2022-09-11T21:32:16Z</time>
      </trkpt>
      <trkpt lat="-11.5352720" lon="-76.6771890">
        <ele>2820.3</ele>
        <time>2022-09-11T21:32:17Z</time>
      </trkpt>
      <trkpt lat="-11.5352730" lon="-76.6771870">
        <ele>2820.2</ele>
        <time>2022-09-11T21:32:18Z</time>
      </trkpt>
      <trkpt lat="-11.5352360" lon="-76.6771720">
        <ele>2819.7</ele>
        <time>2022-09-11T21:36:52Z</time>
      </trkpt>
      <trkpt lat="-11.5352190" lon="-76.6771700">
        <ele>2819.5</ele>
        <time>2022-09-11T21:36:53Z</time>
      </trkpt>
      <trkpt lat="-11.5352050" lon="-76.6771670">
        <ele>2819.4</ele>
        <time>2022-09-11T21:36:54Z</time>
      </trkpt>
      <trkpt lat="-11.5352040" lon="-76.6771660">
        <ele>2819.3</ele>
        <time>2022-09-11T21:36:55Z</time>
      </trkpt>
      <trkpt lat="-11.5352040" lon="-76.6771650">
        <ele>2819.3</ele>
        <time>2022-09-11T21:36:56Z</time>
      </trkpt>
      <trkpt lat="-11.5352050" lon="-76.6771650">
        <ele>2819.3</ele>
        <time>2022-09-11T21:36:57Z</time>
      </trkpt>
      <trkpt lat="-11.5352050" lon="-76.6771650">
        <ele>2819.3</ele>
        <time>2022-09-11T21:36:58Z</time>
      </trkpt>
      <trkpt lat="-11.5352060" lon="-76.6771650">
        <ele>2819.3</ele>
        <time>2022-09-11T21:36:59Z</time>
      </trkpt>
      <trkpt lat="-11.5352030" lon="-76.6771650">
        <ele>2819.3</ele>
        <time>2022-09-11T21:37:00Z</time>
      </trkpt>
      <trkpt lat="-11.5352000" lon="-76.6771680">
        <ele>2819.2</ele>
        <time>2022-09-11T21:37:01Z</time>
      </trkpt>
      <trkpt lat="-11.5351980" lon="-76.6771730">
        <ele>2819.1</ele>
        <time>2022-09-11T21:37:02Z</time>
      </trkpt>
      <trkpt lat="-11.5351950" lon="-76.6771860">
        <ele>2819.0</ele>
        <time>2022-09-11T21:37:03Z</time>
      </trkpt>
      <trkpt lat="-11.5351940" lon="-76.6772000">
        <ele>2818.8</ele>
        <time>2022-09-11T21:37:04Z</time>
      </trkpt>
      <trkpt lat="-11.5351960" lon="-76.6772090">
        <ele>2818.7</ele>
        <time>2022-09-11T21:37:05Z</time>
      </trkpt>
      <trkpt lat="-11.5351990" lon="-76.6772130">
        <ele>2818.6</ele>
        <time>2022-09-11T21:37:06Z</time>
      </trkpt>
      <trkpt lat="-11.5352020" lon="-76.6772160">
        <ele>2818.6</ele>
        <time>2022-09-11T21:37:07Z</time>
      </trkpt>
      <trkpt lat="-11.5352050" lon="-76.6772170">
        <ele>2818.5</ele>
        <time>2022-09-11T21:37:08Z</time>
      </trkpt>
      <trkpt lat="-11.5352050" lon="-76.6772170">
        <ele>2818.5</ele>
        <time>2022-09-11T21:37:09Z</time>
      </trkpt>
      <trkpt lat="-11.5352050" lon="-76.6772140">
        <ele>2818.5</ele>
        <time>2022-09-11T21:37:10Z</time>
      </trkpt>
      <trkpt lat="-11.5352060" lon="-76.6772130">
        <ele>2818.5</ele>
        <time>2022-09-11T21:37:11Z</time>
      </trkpt>
      <trkpt lat="-11.5352060" lon="-76.6772130">
        <ele>2818.5</ele>
        <time>2022-09-11T21:37:12Z</time>
      </trkpt>
      <trkpt lat="-11.5352060" lon="-76.6772140">
        <ele>2818.5</ele>
        <time>2022-09-11T21:37:13Z</time>
      </trkpt>
      <trkpt lat="-11.5352070" lon="-76.6772140">
        <ele>2818.5</ele>
        <time>2022-09-11T21:37:14Z</time>
      </trkpt>
      <trkpt lat="-11.5352080" lon="-76.6772150">
        <ele>2818.5</ele>
        <time>2022-09-11T21:37:15Z</time>
      </trkpt>
      <trkpt lat="-11.5352080" lon="-76.6772170">
        <ele>2818.4</ele>
        <time>2022-09-11T21:37:16Z</time>
      </trkpt>
      <trkpt lat="-11.5352090" lon="-76.6772180">
        <ele>2818.4</ele>
        <time>2022-09-11T21:37:17Z</time>
      </trkpt>
      <trkpt lat="-11.5352090" lon="-76.6772190">
        <ele>2818.4</ele>
        <time>2022-09-11T21:37:18Z</time>
      </trkpt>
      <trkpt lat="-11.5352110" lon="-76.6772230">
        <ele>2818.3</ele>
        <time>2022-09-11T21:40:53Z</time>
      </trkpt>
      <trkpt lat="-11.5352190" lon="-76.6772250">
        <ele>2818.2</ele>
        <time>2022-09-11T21:40:54Z</time>
      </trkpt>
      <trkpt lat="-11.5352260" lon="-76.6772210">
        <ele>2818.1</ele>
        <time>2022-09-11T21:40:55Z</time>
      </trkpt>
      <trkpt lat="-11.5352310" lon="-76.6772120">
        <ele>2818.0</ele>
        <time>2022-09-11T21:40:56Z</time>
      </trkpt>
      <trkpt lat="-11.5352300" lon="-76.6772010">
        <ele>2817.9</ele>
        <time>2022-09-11T21:40:57Z</time>
      </trkpt>
      <trkpt lat="-11.5352230" lon="-76.6771930">
        <ele>2817.8</ele>
        <time>2022-09-11T21:40:58Z</time>
      </trkpt>
      <trkpt lat="-11.5352140" lon="-76.6771870">
        <ele>2817.6</ele>
        <time>2022-09-11T21:40:59Z</time>
      </trkpt>
      <trkpt lat="-11.5352090" lon="-76.6771850">
        <ele>2817.6</ele>
        <time>2022-09-11T21:41:01Z</time>
      </trkpt>
      <trkpt lat="-11.5352070" lon="-76.6771890">
        <ele>2817.5</ele>
        <time>2022-09-11T21:41:03Z</time>
      </trkpt>
      <trkpt lat="-11.5352070" lon="-76.6771890">
        <ele>2817.5</ele>
        <time>2022-09-11T21:41:04Z</time>
      </trkpt>
      <trkpt lat="-11.5352080" lon="-76.6771890">
        <ele>2817.5</ele>
        <time>2022-09-11T21:41:05Z</time>
      </trkpt>
      <trkpt lat="-11.5352080" lon="-76.6771890">
        <ele>2817.5</ele>
        <time>2022-09-11T21:41:06Z</time>
      </trkpt>
      <trkpt lat="-11.5352040" lon="-76.6771890">
        <ele>2817.4</ele>
        <time>2022-09-11T21:41:07Z</time>
      </trkpt>
      <trkpt lat="-11.5352010" lon="-76.6771880">
        <ele>2817.4</ele>
        <time>2022-09-11T21:41:08Z</time>
      </trkpt>
      <trkpt lat="-11.5351750" lon="-76.6771840">
        <ele>2817.1</ele>
        <time>2022-09-11T21:41:09Z</time>
      </trkpt>
      <trkpt lat="-11.5351430" lon="-76.6771820">
        <ele>2816.7</ele>
        <time>2022-09-11T21:41:10Z</time>
      </trkpt>
      <trkpt lat="-11.5351100" lon="-76.6771730">
        <ele>2816.2</ele>
        <time>2022-09-11T21:41:11Z</time>
      </trkpt>
      <trkpt lat="-11.5350640" lon="-76.6771640">
        <ele>2815.6</ele>
        <time>2022-09-11T21:41:13Z</time>
      </trkpt>
      <trkpt lat="-11.5350160" lon="-76.6771580">
        <ele>2815.0</ele>
        <time>2022-09-11T21:41:14Z</time>
      </trkpt>
      <trkpt lat="-11.5349360" lon="-76.6771540">
        <ele>2814.0</ele>
        <time>2022-09-11T21:41:15Z</time>
      </trkpt>
      <trkpt lat="-11.5348850" lon="-76.6771550">
        <ele>2813.4</ele>
        <time>2022-09-11T21:41:16Z</time>
      </trkpt>
      <trkpt lat="-11.5348320" lon="-76.6771580">
        <ele>2812.7</ele>
        <time>2022-09-11T21:41:17Z</time>
      </trkpt>
      <trkpt lat="-11.5347780" lon="-76.6771650">
        <ele>2812.1</ele>
        <time>2022-09-11T21:41:18Z</time>
      </trkpt>
      <trkpt lat="-11.5347240" lon="-76.6771750">
        <ele>2811.3</ele>
        <time>2022-09-11T21:41:19Z</time>
      </trkpt>
      <trkpt lat="-11.5346680" lon="-76.6771870">
        <ele>2810.5</ele>
        <time>2022-09-11T21:41:20Z</time>
      </trkpt>
      <trkpt lat="-11.5346090" lon="-76.6772010">
        <ele>2809.6</ele>
        <time>2022-09-11T21:41:21Z</time>
      </trkpt>
      <trkpt lat="-11.5345490" lon="-76.6772170">
        <ele>2808.8</ele>
        <time>2022-09-11T21:41:22Z</time>
      </trkpt>
      <trkpt lat="-11.5344880" lon="-76.6772340">
        <ele>2808.0</ele>
        <time>2022-09-11T21:41:23Z</time>
      </trkpt>
      <trkpt lat="-11.5344260" lon="-76.6772470">
        <ele>2807.1</ele>
        <time>2022-09-11T21:41:24Z</time>
      </trkpt>
      <trkpt lat="-11.5343640" lon="-76.6772590">
        <ele>2806.3</ele>
        <time>2022-09-11T21:41:25Z</time>
      </trkpt>
      <trkpt lat="-11.5343040" lon="-76.6772710">
        <ele>2805.5</ele>
        <time>2022-09-11T21:41:26Z</time>
      </trkpt>
      <trkpt lat="-11.5342480" lon="-76.6772830">
        <ele>2804.8</ele>
        <time>2022-09-11T21:41:27Z</time>
      </trkpt>
      <trkpt lat="-11.5341940" lon="-76.6772940">
        <ele>2804.1</ele>
        <time>2022-09-11T21:41:28Z</time>
      </trkpt>
      <trkpt lat="-11.5341450" lon="-76.6773010">
        <ele>2803.4</ele>
        <time>2022-09-11T21:41:29Z</time>
      </trkpt>
      <trkpt lat="-11.5340990" lon="-76.6772950">
        <ele>2802.9</ele>
        <time>2022-09-11T21:41:30Z</time>
      </trkpt>
      <trkpt lat="-11.5340570" lon="-76.6772720">
        <ele>2802.3</ele>
        <time>2022-09-11T21:41:31Z</time>
      </trkpt>
      <trkpt lat="-11.5340290" lon="-76.6772340">
        <ele>2801.8</ele>
        <time>2022-09-11T21:41:32Z</time>
      </trkpt>
      <trkpt lat="-11.5340130" lon="-76.6771840">
        <ele>2801.3</ele>
        <time>2022-09-11T21:41:33Z</time>
      </trkpt>
      <trkpt lat="-11.5340120" lon="-76.6771250">
        <ele>2800.7</ele>
        <time>2022-09-11T21:41:34Z</time>
      </trkpt>
      <trkpt lat="-11.5340210" lon="-76.6770640">
        <ele>2800.1</ele>
        <time>2022-09-11T21:41:35Z</time>
      </trkpt>
      <trkpt lat="-11.5340330" lon="-76.6770070">
        <ele>2799.4</ele>
        <time>2022-09-11T21:41:36Z</time>
      </trkpt>
      <trkpt lat="-11.5340420" lon="-76.6769470">
        <ele>2798.6</ele>
        <time>2022-09-11T21:41:37Z</time>
      </trkpt>
      <trkpt lat="-11.5340480" lon="-76.6768850">
        <ele>2797.9</ele>
        <time>2022-09-11T21:41:38Z</time>
      </trkpt>
      <trkpt lat="-11.5340520" lon="-76.6768300">
        <ele>2797.3</ele>
        <time>2022-09-11T21:41:39Z</time>
      </trkpt>
      <trkpt lat="-11.5340530" lon="-76.6767860">
        <ele>2796.7</ele>
        <time>2022-09-11T21:41:40Z</time>
      </trkpt>
      <trkpt lat="-11.5340530" lon="-76.6767490">
        <ele>2796.3</ele>
        <time>2022-09-11T21:41:41Z</time>
      </trkpt>
      <trkpt lat="-11.5340540" lon="-76.6767350">
        <ele>2796.1</ele>
        <time>2022-09-11T21:41:42Z</time>
      </trkpt>
      <trkpt lat="-11.5340590" lon="-76.6767080">
        <ele>2795.8</ele>
        <time>2022-09-11T21:41:43Z</time>
      </trkpt>
      <trkpt lat="-11.5340590" lon="-76.6767030">
        <ele>2795.8</ele>
        <time>2022-09-11T21:41:44Z</time>
      </trkpt>
      <trkpt lat="-11.5340580" lon="-76.6767000">
        <ele>2795.7</ele>
        <time>2022-09-11T21:41:45Z</time>
      </trkpt>
      <trkpt lat="-11.5340570" lon="-76.6767040">
        <ele>2795.7</ele>
        <time>2022-09-11T21:41:46Z</time>
      </trkpt>
      <trkpt lat="-11.5340580" lon="-76.6767060">
        <ele>2795.6</ele>
        <time>2022-09-11T21:41:47Z</time>
      </trkpt>
      <trkpt lat="-11.5340580" lon="-76.6767050">
        <ele>2795.6</ele>
        <time>2022-09-11T21:41:48Z</time>
      </trkpt>
      <trkpt lat="-11.5340570" lon="-76.6767040">
        <ele>2795.6</ele>
        <time>2022-09-11T21:41:49Z</time>
      </trkpt>
      <trkpt lat="-11.5340590" lon="-76.6767050">
        <ele>2795.6</ele>
        <time>2022-09-11T21:41:50Z</time>
      </trkpt>
      <trkpt lat="-11.5340580" lon="-76.6767010">
        <ele>2795.5</ele>
        <time>2022-09-11T21:41:51Z</time>
      </trkpt>
      <trkpt lat="-11.5340410" lon="-76.6766790">
        <ele>2795.2</ele>
        <time>2022-09-11T21:41:53Z</time>
      </trkpt>
      <trkpt lat="-11.5340310" lon="-76.6766350">
        <ele>2794.6</ele>
        <time>2022-09-11T21:41:54Z</time>
      </trkpt>
      <trkpt lat="-11.5340170" lon="-76.6765960">
        <ele>2794.1</ele>
        <time>2022-09-11T21:41:55Z</time>
      </trkpt>
      <trkpt lat="-11.5340030" lon="-76.6765450">
        <ele>2793.4</ele>
        <time>2022-09-11T21:41:56Z</time>
      </trkpt>
      <trkpt lat="-11.5339950" lon="-76.6764960">
        <ele>2792.8</ele>
        <time>2022-09-11T21:41:57Z</time>
      </trkpt>
      <trkpt lat="-11.5339910" lon="-76.6764140">
        <ele>2791.8</ele>
        <time>2022-09-11T21:41:58Z</time>
      </trkpt>
      <trkpt lat="-11.5339870" lon="-76.6763430">
        <ele>2791.0</ele>
        <time>2022-09-11T21:41:59Z</time>
      </trkpt>
      <trkpt lat="-11.5339820" lon="-76.6762680">
        <ele>2790.1</ele>
        <time>2022-09-11T21:42:00Z</time>
      </trkpt>
      <trkpt lat="-11.5339730" lon="-76.6761910">
        <ele>2789.2</ele>
        <time>2022-09-11T21:42:01Z</time>
      </trkpt>
      <trkpt lat="-11.5339640" lon="-76.6761110">
        <ele>2788.2</ele>
        <time>2022-09-11T21:42:02Z</time>
      </trkpt>
      <trkpt lat="-11.5339520" lon="-76.6760300">
        <ele>2787.3</ele>
        <time>2022-09-11T21:42:03Z</time>
      </trkpt>
      <trkpt lat="-11.5339420" lon="-76.6759470">
        <ele>2786.3</ele>
        <time>2022-09-11T21:42:04Z</time>
      </trkpt>
      <trkpt lat="-11.5339320" lon="-76.6758640">
        <ele>2785.3</ele>
        <time>2022-09-11T21:42:05Z</time>
      </trkpt>
      <trkpt lat="-11.5339320" lon="-76.6757790">
        <ele>2784.2</ele>
        <time>2022-09-11T21:42:06Z</time>
      </trkpt>
      <trkpt lat="-11.5339350" lon="-76.6756940">
        <ele>2783.1</ele>
        <time>2022-09-11T21:42:07Z</time>
      </trkpt>
      <trkpt lat="-11.5339450" lon="-76.6756080">
        <ele>2782.1</ele>
        <time>2022-09-11T21:42:08Z</time>
      </trkpt>
      <trkpt lat="-11.5339600" lon="-76.6755210">
        <ele>2781.1</ele>
        <time>2022-09-11T21:42:09Z</time>
      </trkpt>
      <trkpt lat="-11.5339820" lon="-76.6754380">
        <ele>2780.2</ele>
        <time>2022-09-11T21:42:10Z</time>
      </trkpt>
      <trkpt lat="-11.5340080" lon="-76.6753540">
        <ele>2779.2</ele>
        <time>2022-09-11T21:42:11Z</time>
      </trkpt>
      <trkpt lat="-11.5340370" lon="-76.6752700">
        <ele>2778.2</ele>
        <time>2022-09-11T21:42:12Z</time>
      </trkpt>
      <trkpt lat="-11.5340620" lon="-76.6751950">
        <ele>2777.2</ele>
        <time>2022-09-11T21:42:13Z</time>
      </trkpt>
      <trkpt lat="-11.5340870" lon="-76.6751250">
        <ele>2776.2</ele>
        <time>2022-09-11T21:42:14Z</time>
      </trkpt>
      <trkpt lat="-11.5341180" lon="-76.6750600">
        <ele>2775.3</ele>
        <time>2022-09-11T21:42:15Z</time>
      </trkpt>
      <trkpt lat="-11.5341610" lon="-76.6749980">
        <ele>2774.3</ele>
        <time>2022-09-11T21:42:16Z</time>
      </trkpt>
      <trkpt lat="-11.5342120" lon="-76.6749290">
        <ele>2773.3</ele>
        <time>2022-09-11T21:42:17Z</time>
      </trkpt>
      <trkpt lat="-11.5342690" lon="-76.6748690">
        <ele>2772.4</ele>
        <time>2022-09-11T21:42:18Z</time>
      </trkpt>
      <trkpt lat="-11.5343300" lon="-76.6748080">
        <ele>2771.5</ele>
        <time>2022-09-11T21:42:19Z</time>
      </trkpt>
      <trkpt lat="-11.5343860" lon="-76.6747440">
        <ele>2770.5</ele>
        <time>2022-09-11T21:42:20Z</time>
      </trkpt>
      <trkpt lat="-11.5344190" lon="-76.6746670">
        <ele>2769.5</ele>
        <time>2022-09-11T21:42:21Z</time>
      </trkpt>
      <trkpt lat="-11.5344370" lon="-76.6745870">
        <ele>2768.4</ele>
        <time>2022-09-11T21:42:22Z</time>
      </trkpt>
      <trkpt lat="-11.5344470" lon="-76.6745010">
        <ele>2767.4</ele>
        <time>2022-09-11T21:42:23Z</time>
      </trkpt>
      <trkpt lat="-11.5344640" lon="-76.6744160">
        <ele>2766.5</ele>
        <time>2022-09-11T21:42:24Z</time>
      </trkpt>
      <trkpt lat="-11.5344900" lon="-76.6743350">
        <ele>2765.6</ele>
        <time>2022-09-11T21:42:25Z</time>
      </trkpt>
      <trkpt lat="-11.5345280" lon="-76.6742570">
        <ele>2764.4</ele>
        <time>2022-09-11T21:42:26Z</time>
      </trkpt>
      <trkpt lat="-11.5345790" lon="-76.6741790">
        <ele>2763.2</ele>
        <time>2022-09-11T21:42:27Z</time>
      </trkpt>
      <trkpt lat="-11.5346380" lon="-76.6741040">
        <ele>2762.2</ele>
        <time>2022-09-11T21:42:28Z</time>
      </trkpt>
      <trkpt lat="-11.5347020" lon="-76.6740240">
        <ele>2760.9</ele>
        <time>2022-09-11T21:42:29Z</time>
      </trkpt>
      <trkpt lat="-11.5347660" lon="-76.6739450">
        <ele>2759.7</ele>
        <time>2022-09-11T21:42:30Z</time>
      </trkpt>
      <trkpt lat="-11.5348300" lon="-76.6738630">
        <ele>2758.6</ele>
        <time>2022-09-11T21:42:31Z</time>
      </trkpt>
      <trkpt lat="-11.5348890" lon="-76.6737770">
        <ele>2757.8</ele>
        <time>2022-09-11T21:42:32Z</time>
      </trkpt>
      <trkpt lat="-11.5349390" lon="-76.6736840">
        <ele>2757.1</ele>
        <time>2022-09-11T21:42:33Z</time>
      </trkpt>
      <trkpt lat="-11.5349780" lon="-76.6735870">
        <ele>2756.4</ele>
        <time>2022-09-11T21:42:34Z</time>
      </trkpt>
      <trkpt lat="-11.5350110" lon="-76.6734910">
        <ele>2755.5</ele>
        <time>2022-09-11T21:42:35Z</time>
      </trkpt>
      <trkpt lat="-11.5350440" lon="-76.6734000">
        <ele>2754.6</ele>
        <time>2022-09-11T21:42:36Z</time>
      </trkpt>
      <trkpt lat="-11.5350850" lon="-76.6733140">
        <ele>2753.8</ele>
        <time>2022-09-11T21:42:37Z</time>
      </trkpt>
      <trkpt lat="-11.5351310" lon="-76.6732360">
        <ele>2753.0</ele>
        <time>2022-09-11T21:42:38Z</time>
      </trkpt>
      <trkpt lat="-11.5351800" lon="-76.6731590">
        <ele>2752.2</ele>
        <time>2022-09-11T21:42:39Z</time>
      </trkpt>
      <trkpt lat="-11.5352200" lon="-76.6730820">
        <ele>2751.4</ele>
        <time>2022-09-11T21:42:40Z</time>
      </trkpt>
      <trkpt lat="-11.5352500" lon="-76.6729990">
        <ele>2750.6</ele>
        <time>2022-09-11T21:42:41Z</time>
      </trkpt>
      <trkpt lat="-11.5352740" lon="-76.6729130">
        <ele>2749.8</ele>
        <time>2022-09-11T21:42:42Z</time>
      </trkpt>
      <trkpt lat="-11.5352970" lon="-76.6728250">
        <ele>2749.0</ele>
        <time>2022-09-11T21:42:43Z</time>
      </trkpt>
      <trkpt lat="-11.5353200" lon="-76.6727360">
        <ele>2748.2</ele>
        <time>2022-09-11T21:42:44Z</time>
      </trkpt>
      <trkpt lat="-11.5353330" lon="-76.6726450">
        <ele>2747.4</ele>
        <time>2022-09-11T21:42:45Z</time>
      </trkpt>
      <trkpt lat="-11.5353360" lon="-76.6725540">
        <ele>2746.6</ele>
        <time>2022-09-11T21:42:46Z</time>
      </trkpt>
      <trkpt lat="-11.5353340" lon="-76.6724670">
        <ele>2745.8</ele>
        <time>2022-09-11T21:42:47Z</time>
      </trkpt>
      <trkpt lat="-11.5353330" lon="-76.6723880">
        <ele>2745.1</ele>
        <time>2022-09-11T21:42:48Z</time>
      </trkpt>
      <trkpt lat="-11.5353430" lon="-76.6723160">
        <ele>2744.5</ele>
        <time>2022-09-11T21:42:49Z</time>
      </trkpt>
      <trkpt lat="-11.5353680" lon="-76.6722500">
        <ele>2743.8</ele>
        <time>2022-09-11T21:42:50Z</time>
      </trkpt>
      <trkpt lat="-11.5354100" lon="-76.6721920">
        <ele>2743.2</ele>
        <time>2022-09-11T21:42:51Z</time>
      </trkpt>
      <trkpt lat="-11.5354680" lon="-76.6721440">
        <ele>2742.5</ele>
        <time>2022-09-11T21:42:52Z</time>
      </trkpt>
      <trkpt lat="-11.5355360" lon="-76.6720960">
        <ele>2741.7</ele>
        <time>2022-09-11T21:42:53Z</time>
      </trkpt>
      <trkpt lat="-11.5356110" lon="-76.6720530">
        <ele>2740.8</ele>
        <time>2022-09-11T21:42:54Z</time>
      </trkpt>
      <trkpt lat="-11.5356860" lon="-76.6720100">
        <ele>2740.0</ele>
        <time>2022-09-11T21:42:55Z</time>
      </trkpt>
      <trkpt lat="-11.5357540" lon="-76.6719610">
        <ele>2739.2</ele>
        <time>2022-09-11T21:42:56Z</time>
      </trkpt>
      <trkpt lat="-11.5358060" lon="-76.6719100">
        <ele>2738.5</ele>
        <time>2022-09-11T21:42:57Z</time>
      </trkpt>
      <trkpt lat="-11.5358370" lon="-76.6718630">
        <ele>2738.0</ele>
        <time>2022-09-11T21:42:58Z</time>
      </trkpt>
      <trkpt lat="-11.5358510" lon="-76.6718200">
        <ele>2737.5</ele>
        <time>2022-09-11T21:42:59Z</time>
      </trkpt>
      <trkpt lat="-11.5358500" lon="-76.6717920">
        <ele>2737.3</ele>
        <time>2022-09-11T21:43:00Z</time>
      </trkpt>
      <trkpt lat="-11.5358280" lon="-76.6717560">
        <ele>2736.9</ele>
        <time>2022-09-11T21:43:01Z</time>
      </trkpt>
      <trkpt lat="-11.5358170" lon="-76.6717450">
        <ele>2736.8</ele>
        <time>2022-09-11T21:43:02Z</time>
      </trkpt>
      <trkpt lat="-11.5357820" lon="-76.6717230">
        <ele>2736.4</ele>
        <time>2022-09-11T21:43:03Z</time>
      </trkpt>
      <trkpt lat="-11.5357430" lon="-76.6716960">
        <ele>2735.9</ele>
        <time>2022-09-11T21:43:04Z</time>
      </trkpt>
      <trkpt lat="-11.5356920" lon="-76.6716580">
        <ele>2735.3</ele>
        <time>2022-09-11T21:43:05Z</time>
      </trkpt>
      <trkpt lat="-11.5356450" lon="-76.6716120">
        <ele>2734.7</ele>
        <time>2022-09-11T21:43:06Z</time>
      </trkpt>
      <trkpt lat="-11.5356100" lon="-76.6715560">
        <ele>2734.2</ele>
        <time>2022-09-11T21:43:07Z</time>
      </trkpt>
      <trkpt lat="-11.5355860" lon="-76.6714910">
        <ele>2733.5</ele>
        <time>2022-09-11T21:43:08Z</time>
      </trkpt>
      <trkpt lat="-11.5355730" lon="-76.6714170">
        <ele>2732.8</ele>
        <time>2022-09-11T21:43:09Z</time>
      </trkpt>
      <trkpt lat="-11.5355630" lon="-76.6713420">
        <ele>2732.0</ele>
        <time>2022-09-11T21:43:10Z</time>
      </trkpt>
      <trkpt lat="-11.5355600" lon="-76.6712650">
        <ele>2731.2</ele>
        <time>2022-09-11T21:43:11Z</time>
      </trkpt>
      <trkpt lat="-11.5355690" lon="-76.6711900">
        <ele>2730.5</ele>
        <time>2022-09-11T21:43:12Z</time>
      </trkpt>
      <trkpt lat="-11.5355880" lon="-76.6711130">
        <ele>2729.7</ele>
        <time>2022-09-11T21:43:13Z</time>
      </trkpt>
      <trkpt lat="-11.5356150" lon="-76.6710330">
        <ele>2728.8</ele>
        <time>2022-09-11T21:43:14Z</time>
      </trkpt>
      <trkpt lat="-11.5356470" lon="-76.6709470">
        <ele>2727.8</ele>
        <time>2022-09-11T21:43:15Z</time>
      </trkpt>
      <trkpt lat="-11.5356730" lon="-76.6708590">
        <ele>2727.0</ele>
        <time>2022-09-11T21:43:16Z</time>
      </trkpt>
      <trkpt lat="-11.5356850" lon="-76.6707770">
        <ele>2726.1</ele>
        <time>2022-09-11T21:43:17Z</time>
      </trkpt>
      <trkpt lat="-11.5356890" lon="-76.6707050">
        <ele>2725.4</ele>
        <time>2022-09-11T21:43:18Z</time>
      </trkpt>
      <trkpt lat="-11.5356710" lon="-76.6706430">
        <ele>2724.8</ele>
        <time>2022-09-11T21:43:19Z</time>
      </trkpt>
      <trkpt lat="-11.5356330" lon="-76.6705930">
        <ele>2724.1</ele>
        <time>2022-09-11T21:43:20Z</time>
      </trkpt>
      <trkpt lat="-11.5355740" lon="-76.6705530">
        <ele>2723.5</ele>
        <time>2022-09-11T21:43:21Z</time>
      </trkpt>
      <trkpt lat="-11.5355010" lon="-76.6705350">
        <ele>2722.8</ele>
        <time>2022-09-11T21:43:22Z</time>
      </trkpt>
      <trkpt lat="-11.5354250" lon="-76.6705430">
        <ele>2722.0</ele>
        <time>2022-09-11T21:43:23Z</time>
      </trkpt>
      <trkpt lat="-11.5353510" lon="-76.6705650">
        <ele>2721.3</ele>
        <time>2022-09-11T21:43:24Z</time>
      </trkpt>
      <trkpt lat="-11.5352750" lon="-76.6705860">
        <ele>2720.6</ele>
        <time>2022-09-11T21:43:25Z</time>
      </trkpt>
      <trkpt lat="-11.5351920" lon="-76.6705990">
        <ele>2719.8</ele>
        <time>2022-09-11T21:43:26Z</time>
      </trkpt>
      <trkpt lat="-11.5351060" lon="-76.6705910">
        <ele>2719.1</ele>
        <time>2022-09-11T21:43:27Z</time>
      </trkpt>
      <trkpt lat="-11.5350200" lon="-76.6705880">
        <ele>2718.4</ele>
        <time>2022-09-11T21:43:28Z</time>
      </trkpt>
      <trkpt lat="-11.5349400" lon="-76.6706110">
        <ele>2717.6</ele>
        <time>2022-09-11T21:43:29Z</time>
      </trkpt>
      <trkpt lat="-11.5348700" lon="-76.6706570">
        <ele>2716.9</ele>
        <time>2022-09-11T21:43:30Z</time>
      </trkpt>
      <trkpt lat="-11.5348050" lon="-76.6707300">
        <ele>2716.1</ele>
        <time>2022-09-11T21:43:31Z</time>
      </trkpt>
      <trkpt lat="-11.5347330" lon="-76.6707810">
        <ele>2715.3</ele>
        <time>2022-09-11T21:43:32Z</time>
      </trkpt>
      <trkpt lat="-11.5346580" lon="-76.6708260">
        <ele>2714.6</ele>
        <time>2022-09-11T21:43:33Z</time>
      </trkpt>
      <trkpt lat="-11.5345870" lon="-76.6708670">
        <ele>2713.9</ele>
        <time>2022-09-11T21:43:34Z</time>
      </trkpt>
      <trkpt lat="-11.5345180" lon="-76.6709030">
        <ele>2713.1</ele>
        <time>2022-09-11T21:43:35Z</time>
      </trkpt>
      <trkpt lat="-11.5344360" lon="-76.6709290">
        <ele>2712.2</ele>
        <time>2022-09-11T21:43:36Z</time>
      </trkpt>
      <trkpt lat="-11.5343460" lon="-76.6709380">
        <ele>2711.3</ele>
        <time>2022-09-11T21:43:37Z</time>
      </trkpt>
      <trkpt lat="-11.5342550" lon="-76.6709400">
        <ele>2710.5</ele>
        <time>2022-09-11T21:43:38Z</time>
      </trkpt>
      <trkpt lat="-11.5341650" lon="-76.6709500">
        <ele>2709.7</ele>
        <time>2022-09-11T21:43:39Z</time>
      </trkpt>
      <trkpt lat="-11.5340740" lon="-76.6709680">
        <ele>2708.9</ele>
        <time>2022-09-11T21:43:40Z</time>
      </trkpt>
      <trkpt lat="-11.5339800" lon="-76.6709800">
        <ele>2708.1</ele>
        <time>2022-09-11T21:43:41Z</time>
      </trkpt>
      <trkpt lat="-11.5338890" lon="-76.6709760">
        <ele>2707.3</ele>
        <time>2022-09-11T21:43:42Z</time>
      </trkpt>
      <trkpt lat="-11.5338000" lon="-76.6709690">
        <ele>2706.5</ele>
        <time>2022-09-11T21:43:43Z</time>
      </trkpt>
      <trkpt lat="-11.5337150" lon="-76.6709560">
        <ele>2705.8</ele>
        <time>2022-09-11T21:43:44Z</time>
      </trkpt>
      <trkpt lat="-11.5336340" lon="-76.6709530">
        <ele>2705.0</ele>
        <time>2022-09-11T21:43:45Z</time>
      </trkpt>
      <trkpt lat="-11.5335530" lon="-76.6709690">
        <ele>2704.2</ele>
        <time>2022-09-11T21:43:46Z</time>
      </trkpt>
      <trkpt lat="-11.5334850" lon="-76.6709980">
        <ele>2703.6</ele>
        <time>2022-09-11T21:43:47Z</time>
      </trkpt>
      <trkpt lat="-11.5334210" lon="-76.6710460">
        <ele>2702.8</ele>
        <time>2022-09-11T21:43:48Z</time>
      </trkpt>
      <trkpt lat="-11.5333480" lon="-76.6711040">
        <ele>2702.0</ele>
        <time>2022-09-11T21:43:49Z</time>
      </trkpt>
      <trkpt lat="-11.5332680" lon="-76.6711710">
        <ele>2701.0</ele>
        <time>2022-09-11T21:43:50Z</time>
      </trkpt>
      <trkpt lat="-11.5331840" lon="-76.6712370">
        <ele>2699.9</ele>
        <time>2022-09-11T21:43:51Z</time>
      </trkpt>
      <trkpt lat="-11.5331050" lon="-76.6713050">
        <ele>2698.8</ele>
        <time>2022-09-11T21:43:52Z</time>
      </trkpt>
      <trkpt lat="-11.5330330" lon="-76.6713790">
        <ele>2698.0</ele>
        <time>2022-09-11T21:43:53Z</time>
      </trkpt>
      <trkpt lat="-11.5329630" lon="-76.6714440">
        <ele>2697.2</ele>
        <time>2022-09-11T21:43:54Z</time>
      </trkpt>
      <trkpt lat="-11.5328900" lon="-76.6715050">
        <ele>2696.3</ele>
        <time>2022-09-11T21:43:55Z</time>
      </trkpt>
      <trkpt lat="-11.5328140" lon="-76.6715610">
        <ele>2695.5</ele>
        <time>2022-09-11T21:43:56Z</time>
      </trkpt>
      <trkpt lat="-11.5327320" lon="-76.6716030">
        <ele>2694.8</ele>
        <time>2022-09-11T21:43:57Z</time>
      </trkpt>
      <trkpt lat="-11.5326500" lon="-76.6716280">
        <ele>2694.0</ele>
        <time>2022-09-11T21:43:58Z</time>
      </trkpt>
      <trkpt lat="-11.5325670" lon="-76.6716400">
        <ele>2693.2</ele>
        <time>2022-09-11T21:43:59Z</time>
      </trkpt>
      <trkpt lat="-11.5324800" lon="-76.6716420">
        <ele>2692.4</ele>
        <time>2022-09-11T21:44:00Z</time>
      </trkpt>
      <trkpt lat="-11.5323930" lon="-76.6716350">
        <ele>2691.6</ele>
        <time>2022-09-11T21:44:01Z</time>
      </trkpt>
      <trkpt lat="-11.5323090" lon="-76.6716230">
        <ele>2690.9</ele>
        <time>2022-09-11T21:44:02Z</time>
      </trkpt>
      <trkpt lat="-11.5322320" lon="-76.6716040">
        <ele>2690.3</ele>
        <time>2022-09-11T21:44:03Z</time>
      </trkpt>
      <trkpt lat="-11.5321640" lon="-76.6715760">
        <ele>2689.7</ele>
        <time>2022-09-11T21:44:04Z</time>
      </trkpt>
      <trkpt lat="-11.5321080" lon="-76.6715340">
        <ele>2689.0</ele>
        <time>2022-09-11T21:44:05Z</time>
      </trkpt>
      <trkpt lat="-11.5320610" lon="-76.6714810">
        <ele>2688.3</ele>
        <time>2022-09-11T21:44:06Z</time>
      </trkpt>
      <trkpt lat="-11.5320190" lon="-76.6714200">
        <ele>2687.6</ele>
        <time>2022-09-11T21:44:07Z</time>
      </trkpt>
      <trkpt lat="-11.5319810" lon="-76.6713530">
        <ele>2686.8</ele>
        <time>2022-09-11T21:44:08Z</time>
      </trkpt>
      <trkpt lat="-11.5319450" lon="-76.6712770">
        <ele>2686.1</ele>
        <time>2022-09-11T21:44:09Z</time>
      </trkpt>
      <trkpt lat="-11.5319010" lon="-76.6712060">
        <ele>2685.3</ele>
        <time>2022-09-11T21:44:10Z</time>
      </trkpt>
      <trkpt lat="-11.5318390" lon="-76.6711490">
        <ele>2684.5</ele>
        <time>2022-09-11T21:44:11Z</time>
      </trkpt>
      <trkpt lat="-11.5317680" lon="-76.6710900">
        <ele>2683.6</ele>
        <time>2022-09-11T21:44:12Z</time>
      </trkpt>
      <trkpt lat="-11.5316950" lon="-76.6710290">
        <ele>2682.6</ele>
        <time>2022-09-11T21:44:13Z</time>
      </trkpt>
      <trkpt lat="-11.5316190" lon="-76.6709670">
        <ele>2681.8</ele>
        <time>2022-09-11T21:44:14Z</time>
      </trkpt>
      <trkpt lat="-11.5315420" lon="-76.6709100">
        <ele>2680.9</ele>
        <time>2022-09-11T21:44:15Z</time>
      </trkpt>
      <trkpt lat="-11.5314730" lon="-76.6708510">
        <ele>2680.1</ele>
        <time>2022-09-11T21:44:16Z</time>
      </trkpt>
      <trkpt lat="-11.5314120" lon="-76.6707870">
        <ele>2679.5</ele>
        <time>2022-09-11T21:44:17Z</time>
      </trkpt>
      <trkpt lat="-11.5313590" lon="-76.6707220">
        <ele>2679.0</ele>
        <time>2022-09-11T21:44:18Z</time>
      </trkpt>
      <trkpt lat="-11.5313140" lon="-76.6706510">
        <ele>2677.1</ele>
        <time>2022-09-11T21:44:19Z</time>
      </trkpt>
      <trkpt lat="-11.5312850" lon="-76.6705720">
        <ele>2676.5</ele>
        <time>2022-09-11T21:44:20Z</time>
      </trkpt>
      <trkpt lat="-11.5312630" lon="-76.6704870">
        <ele>2675.8</ele>
        <time>2022-09-11T21:44:21Z</time>
      </trkpt>
      <trkpt lat="-11.5312460" lon="-76.6703990">
        <ele>2675.0</ele>
        <time>2022-09-11T21:44:22Z</time>
      </trkpt>
      <trkpt lat="-11.5312290" lon="-76.6703090">
        <ele>2674.2</ele>
        <time>2022-09-11T21:44:23Z</time>
      </trkpt>
      <trkpt lat="-11.5312050" lon="-76.6702220">
        <ele>2673.6</ele>
        <time>2022-09-11T21:44:24Z</time>
      </trkpt>
      <trkpt lat="-11.5311720" lon="-76.6701340">
        <ele>2672.9</ele>
        <time>2022-09-11T21:44:25Z</time>
      </trkpt>
      <trkpt lat="-11.5311320" lon="-76.6700480">
        <ele>2672.3</ele>
        <time>2022-09-11T21:44:26Z</time>
      </trkpt>
      <trkpt lat="-11.5310870" lon="-76.6699680">
        <ele>2671.5</ele>
        <time>2022-09-11T21:44:27Z</time>
      </trkpt>
      <trkpt lat="-11.5310470" lon="-76.6698870">
        <ele>2670.7</ele>
        <time>2022-09-11T21:44:28Z</time>
      </trkpt>
      <trkpt lat="-11.5310050" lon="-76.6698060">
        <ele>2670.1</ele>
        <time>2022-09-11T21:44:29Z</time>
      </trkpt>
      <trkpt lat="-11.5309660" lon="-76.6697220">
        <ele>2669.4</ele>
        <time>2022-09-11T21:44:30Z</time>
      </trkpt>
      <trkpt lat="-11.5309260" lon="-76.6696410">
        <ele>2668.7</ele>
        <time>2022-09-11T21:44:31Z</time>
      </trkpt>
      <trkpt lat="-11.5308800" lon="-76.6695620">
        <ele>2667.9</ele>
        <time>2022-09-11T21:44:32Z</time>
      </trkpt>
      <trkpt lat="-11.5308280" lon="-76.6694900">
        <ele>2667.0</ele>
        <time>2022-09-11T21:44:33Z</time>
      </trkpt>
      <trkpt lat="-11.5307800" lon="-76.6694170">
        <ele>2666.2</ele>
        <time>2022-09-11T21:44:34Z</time>
      </trkpt>
      <trkpt lat="-11.5307400" lon="-76.6693460">
        <ele>2665.3</ele>
        <time>2022-09-11T21:44:35Z</time>
      </trkpt>
      <trkpt lat="-11.5307010" lon="-76.6692920">
        <ele>2664.7</ele>
        <time>2022-09-11T21:44:36Z</time>
      </trkpt>
      <trkpt lat="-11.5306540" lon="-76.6692550">
        <ele>2664.1</ele>
        <time>2022-09-11T21:44:37Z</time>
      </trkpt>
      <trkpt lat="-11.5305960" lon="-76.6692360">
        <ele>2663.6</ele>
        <time>2022-09-11T21:44:38Z</time>
      </trkpt>
      <trkpt lat="-11.5305410" lon="-76.6692360">
        <ele>2663.1</ele>
        <time>2022-09-11T21:44:39Z</time>
      </trkpt>
      <trkpt lat="-11.5304890" lon="-76.6692410">
        <ele>2662.7</ele>
        <time>2022-09-11T21:44:40Z</time>
      </trkpt>
      <trkpt lat="-11.5304470" lon="-76.6692890">
        <ele>2662.2</ele>
        <time>2022-09-11T21:44:41Z</time>
      </trkpt>
      <trkpt lat="-11.5304180" lon="-76.6693750">
        <ele>2661.2</ele>
        <time>2022-09-11T21:44:42Z</time>
      </trkpt>
      <trkpt lat="-11.5303900" lon="-76.6694410">
        <ele>2660.5</ele>
        <time>2022-09-11T21:44:43Z</time>
      </trkpt>
      <trkpt lat="-11.5303610" lon="-76.6695070">
        <ele>2659.7</ele>
        <time>2022-09-11T21:44:44Z</time>
      </trkpt>
      <trkpt lat="-11.5303240" lon="-76.6695700">
        <ele>2659.0</ele>
        <time>2022-09-11T21:44:45Z</time>
      </trkpt>
      <trkpt lat="-11.5302910" lon="-76.6696390">
        <ele>2658.2</ele>
        <time>2022-09-11T21:44:46Z</time>
      </trkpt>
      <trkpt lat="-11.5302620" lon="-76.6697090">
        <ele>2657.4</ele>
        <time>2022-09-11T21:44:47Z</time>
      </trkpt>
      <trkpt lat="-11.5302360" lon="-76.6697800">
        <ele>2656.7</ele>
        <time>2022-09-11T21:44:48Z</time>
      </trkpt>
      <trkpt lat="-11.5302110" lon="-76.6698410">
        <ele>2656.1</ele>
        <time>2022-09-11T21:44:49Z</time>
      </trkpt>
      <trkpt lat="-11.5301820" lon="-76.6698930">
        <ele>2655.5</ele>
        <time>2022-09-11T21:44:50Z</time>
      </trkpt>
      <trkpt lat="-11.5301530" lon="-76.6699360">
        <ele>2655.1</ele>
        <time>2022-09-11T21:44:51Z</time>
      </trkpt>
      <trkpt lat="-11.5301270" lon="-76.6699690">
        <ele>2654.8</ele>
        <time>2022-09-11T21:44:52Z</time>
      </trkpt>
      <trkpt lat="-11.5301060" lon="-76.6699860">
        <ele>2654.6</ele>
        <time>2022-09-11T21:44:53Z</time>
      </trkpt>
      <trkpt lat="-11.5300800" lon="-76.6700040">
        <ele>2654.4</ele>
        <time>2022-09-11T21:44:54Z</time>
      </trkpt>
      <trkpt lat="-11.5300750" lon="-76.6700080">
        <ele>2654.4</ele>
        <time>2022-09-11T21:44:55Z</time>
      </trkpt>
      <trkpt lat="-11.5300620" lon="-76.6700140">
        <ele>2654.3</ele>
        <time>2022-09-11T21:44:56Z</time>
      </trkpt>
      <trkpt lat="-11.5300480" lon="-76.6700250">
        <ele>2654.2</ele>
        <time>2022-09-11T21:44:57Z</time>
      </trkpt>
      <trkpt lat="-11.5300310" lon="-76.6700520">
        <ele>2654.0</ele>
        <time>2022-09-11T21:44:58Z</time>
      </trkpt>
      <trkpt lat="-11.5300260" lon="-76.6700620">
        <ele>2653.9</ele>
        <time>2022-09-11T21:44:59Z</time>
      </trkpt>
      <trkpt lat="-11.5300110" lon="-76.6700870">
        <ele>2653.7</ele>
        <time>2022-09-11T21:45:00Z</time>
      </trkpt>
      <trkpt lat="-11.5299910" lon="-76.6701250">
        <ele>2653.4</ele>
        <time>2022-09-11T21:45:01Z</time>
      </trkpt>
      <trkpt lat="-11.5299750" lon="-76.6701740">
        <ele>2653.0</ele>
        <time>2022-09-11T21:45:02Z</time>
      </trkpt>
      <trkpt lat="-11.5299550" lon="-76.6702290">
        <ele>2652.5</ele>
        <time>2022-09-11T21:45:03Z</time>
      </trkpt>
      <trkpt lat="-11.5299280" lon="-76.6702810">
        <ele>2652.0</ele>
        <time>2022-09-11T21:45:04Z</time>
      </trkpt>
      <trkpt lat="-11.5298970" lon="-76.6703280">
        <ele>2651.5</ele>
        <time>2022-09-11T21:45:05Z</time>
      </trkpt>
      <trkpt lat="-11.5298650" lon="-76.6703770">
        <ele>2651.0</ele>
        <time>2022-09-11T21:45:06Z</time>
      </trkpt>
      <trkpt lat="-11.5298290" lon="-76.6704260">
        <ele>2650.5</ele>
        <time>2022-09-11T21:45:07Z</time>
      </trkpt>
      <trkpt lat="-11.5297970" lon="-76.6704760">
        <ele>2649.9</ele>
        <time>2022-09-11T21:45:08Z</time>
      </trkpt>
      <trkpt lat="-11.5297660" lon="-76.6705340">
        <ele>2649.3</ele>
        <time>2022-09-11T21:45:09Z</time>
      </trkpt>
      <trkpt lat="-11.5297430" lon="-76.6706010">
        <ele>2648.7</ele>
        <time>2022-09-11T21:45:10Z</time>
      </trkpt>
      <trkpt lat="-11.5297300" lon="-76.6706810">
        <ele>2647.9</ele>
        <time>2022-09-11T21:45:11Z</time>
      </trkpt>
      <trkpt lat="-11.5297340" lon="-76.6707670">
        <ele>2647.1</ele>
        <time>2022-09-11T21:45:12Z</time>
      </trkpt>
      <trkpt lat="-11.5297430" lon="-76.6708540">
        <ele>2646.2</ele>
        <time>2022-09-11T21:45:13Z</time>
      </trkpt>
      <trkpt lat="-11.5297370" lon="-76.6709340">
        <ele>2645.4</ele>
        <time>2022-09-11T21:45:14Z</time>
      </trkpt>
      <trkpt lat="-11.5297150" lon="-76.6710130">
        <ele>2644.5</ele>
        <time>2022-09-11T21:45:15Z</time>
      </trkpt>
      <trkpt lat="-11.5296870" lon="-76.6710950">
        <ele>2643.8</ele>
        <time>2022-09-11T21:45:16Z</time>
      </trkpt>
      <trkpt lat="-11.5296410" lon="-76.6711690">
        <ele>2643.1</ele>
        <time>2022-09-11T21:45:17Z</time>
      </trkpt>
      <trkpt lat="-11.5295890" lon="-76.6712360">
        <ele>2642.2</ele>
        <time>2022-09-11T21:45:18Z</time>
      </trkpt>
      <trkpt lat="-11.5295260" lon="-76.6713060">
        <ele>2641.2</ele>
        <time>2022-09-11T21:45:19Z</time>
      </trkpt>
      <trkpt lat="-11.5294650" lon="-76.6713810">
        <ele>2640.1</ele>
        <time>2022-09-11T21:45:20Z</time>
      </trkpt>
      <trkpt lat="-11.5294100" lon="-76.6714570">
        <ele>2639.1</ele>
        <time>2022-09-11T21:45:21Z</time>
      </trkpt>
      <trkpt lat="-11.5293540" lon="-76.6715310">
        <ele>2638.0</ele>
        <time>2022-09-11T21:45:22Z</time>
      </trkpt>
      <trkpt lat="-11.5292850" lon="-76.6715980">
        <ele>2636.9</ele>
        <time>2022-09-11T21:45:23Z</time>
      </trkpt>
      <trkpt lat="-11.5292020" lon="-76.6716600">
        <ele>2635.9</ele>
        <time>2022-09-11T21:45:24Z</time>
      </trkpt>
      <trkpt lat="-11.5291200" lon="-76.6717240">
        <ele>2634.9</ele>
        <time>2022-09-11T21:45:25Z</time>
      </trkpt>
      <trkpt lat="-11.5290380" lon="-76.6717840">
        <ele>2634.0</ele>
        <time>2022-09-11T21:45:26Z</time>
      </trkpt>
      <trkpt lat="-11.5289570" lon="-76.6718380">
        <ele>2633.1</ele>
        <time>2022-09-11T21:45:27Z</time>
      </trkpt>
      <trkpt lat="-11.5288810" lon="-76.6718820">
        <ele>2632.2</ele>
        <time>2022-09-11T21:45:28Z</time>
      </trkpt>
      <trkpt lat="-11.5288120" lon="-76.6719240">
        <ele>2631.5</ele>
        <time>2022-09-11T21:45:29Z</time>
      </trkpt>
      <trkpt lat="-11.5287560" lon="-76.6719900">
        <ele>2630.7</ele>
        <time>2022-09-11T21:45:30Z</time>
      </trkpt>
      <trkpt lat="-11.5287190" lon="-76.6720750">
        <ele>2629.8</ele>
        <time>2022-09-11T21:45:31Z</time>
      </trkpt>
      <trkpt lat="-11.5286990" lon="-76.6721720">
        <ele>2628.9</ele>
        <time>2022-09-11T21:45:32Z</time>
      </trkpt>
      <trkpt lat="-11.5286940" lon="-76.6722710">
        <ele>2628.1</ele>
        <time>2022-09-11T21:45:33Z</time>
      </trkpt>
      <trkpt lat="-11.5286940" lon="-76.6723630">
        <ele>2627.4</ele>
        <time>2022-09-11T21:45:34Z</time>
      </trkpt>
      <trkpt lat="-11.5286730" lon="-76.6724500">
        <ele>2626.6</ele>
        <time>2022-09-11T21:45:35Z</time>
      </trkpt>
      <trkpt lat="-11.5286440" lon="-76.6725340">
        <ele>2625.8</ele>
        <time>2022-09-11T21:45:36Z</time>
      </trkpt>
      <trkpt lat="-11.5286050" lon="-76.6726140">
        <ele>2624.9</ele>
        <time>2022-09-11T21:45:37Z</time>
      </trkpt>
      <trkpt lat="-11.5285590" lon="-76.6726910">
        <ele>2623.9</ele>
        <time>2022-09-11T21:45:38Z</time>
      </trkpt>
      <trkpt lat="-11.5285110" lon="-76.6727660">
        <ele>2622.9</ele>
        <time>2022-09-11T21:45:39Z</time>
      </trkpt>
      <trkpt lat="-11.5284620" lon="-76.6728420">
        <ele>2622.1</ele>
        <time>2022-09-11T21:45:40Z</time>
      </trkpt>
      <trkpt lat="-11.5284090" lon="-76.6729130">
        <ele>2621.3</ele>
        <time>2022-09-11T21:45:41Z</time>
      </trkpt>
      <trkpt lat="-11.5283420" lon="-76.6729720">
        <ele>2620.5</ele>
        <time>2022-09-11T21:45:42Z</time>
      </trkpt>
      <trkpt lat="-11.5282670" lon="-76.6730190">
        <ele>2619.8</ele>
        <time>2022-09-11T21:45:43Z</time>
      </trkpt>
      <trkpt lat="-11.5281890" lon="-76.6730530">
        <ele>2619.1</ele>
        <time>2022-09-11T21:45:44Z</time>
      </trkpt>
      <trkpt lat="-11.5281090" lon="-76.6730650">
        <ele>2618.4</ele>
        <time>2022-09-11T21:45:45Z</time>
      </trkpt>
      <trkpt lat="-11.5280300" lon="-76.6730750">
        <ele>2617.6</ele>
        <time>2022-09-11T21:45:46Z</time>
      </trkpt>
      <trkpt lat="-11.5279550" lon="-76.6731000">
        <ele>2616.8</ele>
        <time>2022-09-11T21:45:47Z</time>
      </trkpt>
      <trkpt lat="-11.5278870" lon="-76.6731400">
        <ele>2615.9</ele>
        <time>2022-09-11T21:45:48Z</time>
      </trkpt>
      <trkpt lat="-11.5278210" lon="-76.6731950">
        <ele>2615.1</ele>
        <time>2022-09-11T21:45:49Z</time>
      </trkpt>
      <trkpt lat="-11.5277520" lon="-76.6732460">
        <ele>2614.2</ele>
        <time>2022-09-11T21:45:50Z</time>
      </trkpt>
      <trkpt lat="-11.5276760" lon="-76.6732910">
        <ele>2613.4</ele>
        <time>2022-09-11T21:45:51Z</time>
      </trkpt>
      <trkpt lat="-11.5275960" lon="-76.6733180">
        <ele>2612.6</ele>
        <time>2022-09-11T21:45:52Z</time>
      </trkpt>
      <trkpt lat="-11.5275120" lon="-76.6733280">
        <ele>2611.9</ele>
        <time>2022-09-11T21:45:53Z</time>
      </trkpt>
      <trkpt lat="-11.5274270" lon="-76.6733270">
        <ele>2611.3</ele>
        <time>2022-09-11T21:45:54Z</time>
      </trkpt>
      <trkpt lat="-11.5273460" lon="-76.6733370">
        <ele>2610.6</ele>
        <time>2022-09-11T21:45:55Z</time>
      </trkpt>
      <trkpt lat="-11.5272750" lon="-76.6733600">
        <ele>2609.9</ele>
        <time>2022-09-11T21:45:56Z</time>
      </trkpt>
      <trkpt lat="-11.5272180" lon="-76.6734210">
        <ele>2609.1</ele>
        <time>2022-09-11T21:45:57Z</time>
      </trkpt>
      <trkpt lat="-11.5271750" lon="-76.6735010">
        <ele>2608.3</ele>
        <time>2022-09-11T21:45:58Z</time>
      </trkpt>
      <trkpt lat="-11.5271420" lon="-76.6735890">
        <ele>2607.4</ele>
        <time>2022-09-11T21:45:59Z</time>
      </trkpt>
      <trkpt lat="-11.5271100" lon="-76.6736790">
        <ele>2606.3</ele>
        <time>2022-09-11T21:46:00Z</time>
      </trkpt>
      <trkpt lat="-11.5270800" lon="-76.6737670">
        <ele>2605.3</ele>
        <time>2022-09-11T21:46:01Z</time>
      </trkpt>
      <trkpt lat="-11.5270580" lon="-76.6738590">
        <ele>2604.3</ele>
        <time>2022-09-11T21:46:02Z</time>
      </trkpt>
      <trkpt lat="-11.5270430" lon="-76.6739540">
        <ele>2603.3</ele>
        <time>2022-09-11T21:46:03Z</time>
      </trkpt>
      <trkpt lat="-11.5270360" lon="-76.6740490">
        <ele>2602.4</ele>
        <time>2022-09-11T21:46:04Z</time>
      </trkpt>
      <trkpt lat="-11.5270290" lon="-76.6741380">
        <ele>2601.4</ele>
        <time>2022-09-11T21:46:05Z</time>
      </trkpt>
      <trkpt lat="-11.5270130" lon="-76.6742290">
        <ele>2600.5</ele>
        <time>2022-09-11T21:46:06Z</time>
      </trkpt>
      <trkpt lat="-11.5269820" lon="-76.6743170">
        <ele>2599.6</ele>
        <time>2022-09-11T21:46:07Z</time>
      </trkpt>
      <trkpt lat="-11.5269210" lon="-76.6743990">
        <ele>2598.7</ele>
        <time>2022-09-11T21:46:08Z</time>
      </trkpt>
      <trkpt lat="-11.5268550" lon="-76.6744760">
        <ele>2597.9</ele>
        <time>2022-09-11T21:46:09Z</time>
      </trkpt>
      <trkpt lat="-11.5267880" lon="-76.6745530">
        <ele>2597.2</ele>
        <time>2022-09-11T21:46:10Z</time>
      </trkpt>
      <trkpt lat="-11.5267280" lon="-76.6746310">
        <ele>2596.2</ele>
        <time>2022-09-11T21:46:11Z</time>
      </trkpt>
      <trkpt lat="-11.5266720" lon="-76.6747140">
        <ele>2595.3</ele>
        <time>2022-09-11T21:46:12Z</time>
      </trkpt>
      <trkpt lat="-11.5266110" lon="-76.6747980">
        <ele>2594.3</ele>
        <time>2022-09-11T21:46:13Z</time>
      </trkpt>
      <trkpt lat="-11.5265470" lon="-76.6748810">
        <ele>2593.7</ele>
        <time>2022-09-11T21:46:14Z</time>
      </trkpt>
      <trkpt lat="-11.5264800" lon="-76.6749610">
        <ele>2593.1</ele>
        <time>2022-09-11T21:46:15Z</time>
      </trkpt>
      <trkpt lat="-11.5264060" lon="-76.6750350">
        <ele>2592.3</ele>
        <time>2022-09-11T21:46:16Z</time>
      </trkpt>
      <trkpt lat="-11.5263280" lon="-76.6751120">
        <ele>2591.5</ele>
        <time>2022-09-11T21:46:17Z</time>
      </trkpt>
      <trkpt lat="-11.5262530" lon="-76.6751990">
        <ele>2590.7</ele>
        <time>2022-09-11T21:46:18Z</time>
      </trkpt>
      <trkpt lat="-11.5261830" lon="-76.6752930">
        <ele>2590.0</ele>
        <time>2022-09-11T21:46:19Z</time>
      </trkpt>
      <trkpt lat="-11.5261190" lon="-76.6753890">
        <ele>2589.2</ele>
        <time>2022-09-11T21:46:20Z</time>
      </trkpt>
      <trkpt lat="-11.5260660" lon="-76.6754950">
        <ele>2588.4</ele>
        <time>2022-09-11T21:46:21Z</time>
      </trkpt>
      <trkpt lat="-11.5260200" lon="-76.6756080">
        <ele>2587.5</ele>
        <time>2022-09-11T21:46:22Z</time>
      </trkpt>
      <trkpt lat="-11.5259800" lon="-76.6757230">
        <ele>2586.7</ele>
        <time>2022-09-11T21:46:23Z</time>
      </trkpt>
      <trkpt lat="-11.5259330" lon="-76.6758420">
        <ele>2586.0</ele>
        <time>2022-09-11T21:46:24Z</time>
      </trkpt>
      <trkpt lat="-11.5258720" lon="-76.6759590">
        <ele>2585.1</ele>
        <time>2022-09-11T21:46:25Z</time>
      </trkpt>
      <trkpt lat="-11.5258030" lon="-76.6760660">
        <ele>2584.3</ele>
        <time>2022-09-11T21:46:26Z</time>
      </trkpt>
      <trkpt lat="-11.5257340" lon="-76.6761650">
        <ele>2583.7</ele>
        <time>2022-09-11T21:46:27Z</time>
      </trkpt>
      <trkpt lat="-11.5256590" lon="-76.6762610">
        <ele>2583.2</ele>
        <time>2022-09-11T21:46:28Z</time>
      </trkpt>
      <trkpt lat="-11.5255800" lon="-76.6763480">
        <ele>2582.5</ele>
        <time>2022-09-11T21:46:29Z</time>
      </trkpt>
      <trkpt lat="-11.5255190" lon="-76.6764470">
        <ele>2581.7</ele>
        <time>2022-09-11T21:46:30Z</time>
      </trkpt>
      <trkpt lat="-11.5254750" lon="-76.6765570">
        <ele>2581.0</ele>
        <time>2022-09-11T21:46:31Z</time>
      </trkpt>
      <trkpt lat="-11.5254430" lon="-76.6766650">
        <ele>2580.3</ele>
        <time>2022-09-11T21:46:32Z</time>
      </trkpt>
      <trkpt lat="-11.5254140" lon="-76.6767700">
        <ele>2579.5</ele>
        <time>2022-09-11T21:46:33Z</time>
      </trkpt>
      <trkpt lat="-11.5253890" lon="-76.6768770">
        <ele>2579.0</ele>
        <time>2022-09-11T21:46:34Z</time>
      </trkpt>
      <trkpt lat="-11.5253680" lon="-76.6769700">
        <ele>2578.6</ele>
        <time>2022-09-11T21:46:35Z</time>
      </trkpt>
      <trkpt lat="-11.5253460" lon="-76.6770480">
        <ele>2578.2</ele>
        <time>2022-09-11T21:46:36Z</time>
      </trkpt>
      <trkpt lat="-11.5253080" lon="-76.6771180">
        <ele>2577.9</ele>
        <time>2022-09-11T21:46:37Z</time>
      </trkpt>
      <trkpt lat="-11.5252540" lon="-76.6771720">
        <ele>2577.5</ele>
        <time>2022-09-11T21:46:38Z</time>
      </trkpt>
      <trkpt lat="-11.5251900" lon="-76.6772170">
        <ele>2577.1</ele>
        <time>2022-09-11T21:46:39Z</time>
      </trkpt>
      <trkpt lat="-11.5251190" lon="-76.6772450">
        <ele>2576.8</ele>
        <time>2022-09-11T21:46:40Z</time>
      </trkpt>
      <trkpt lat="-11.5250480" lon="-76.6772610">
        <ele>2576.4</ele>
        <time>2022-09-11T21:46:41Z</time>
      </trkpt>
      <trkpt lat="-11.5249780" lon="-76.6772730">
        <ele>2576.2</ele>
        <time>2022-09-11T21:46:42Z</time>
      </trkpt>
      <trkpt lat="-11.5249150" lon="-76.6772820">
        <ele>2576.0</ele>
        <time>2022-09-11T21:46:43Z</time>
      </trkpt>
      <trkpt lat="-11.5248580" lon="-76.6773040">
        <ele>2575.7</ele>
        <time>2022-09-11T21:46:44Z</time>
      </trkpt>
      <trkpt lat="-11.5248070" lon="-76.6773280">
        <ele>2575.5</ele>
        <time>2022-09-11T21:46:45Z</time>
      </trkpt>
      <trkpt lat="-11.5247650" lon="-76.6773540">
        <ele>2575.4</ele>
        <time>2022-09-11T21:46:46Z</time>
      </trkpt>
      <trkpt lat="-11.5247190" lon="-76.6773820">
        <ele>2575.2</ele>
        <time>2022-09-11T21:46:47Z</time>
      </trkpt>
      <trkpt lat="-11.5246700" lon="-76.6774100">
        <ele>2575.0</ele>
        <time>2022-09-11T21:46:48Z</time>
      </trkpt>
      <trkpt lat="-11.5246240" lon="-76.6774330">
        <ele>2575.0</ele>
        <time>2022-09-11T21:46:49Z</time>
      </trkpt>
      <trkpt lat="-11.5245960" lon="-76.6774480">
        <ele>2575.0</ele>
        <time>2022-09-11T21:46:50Z</time>
      </trkpt>
      <trkpt lat="-11.5245720" lon="-76.6774750">
        <ele>2575.0</ele>
        <time>2022-09-11T21:46:51Z</time>
      </trkpt>
      <trkpt lat="-11.5245560" lon="-76.6775170">
        <ele>2574.5</ele>
        <time>2022-09-11T21:46:52Z</time>
      </trkpt>
      <trkpt lat="-11.5245400" lon="-76.6775670">
        <ele>2573.7</ele>
        <time>2022-09-11T21:46:53Z</time>
      </trkpt>
      <trkpt lat="-11.5245270" lon="-76.6776150">
        <ele>2573.0</ele>
        <time>2022-09-11T21:46:54Z</time>
      </trkpt>
      <trkpt lat="-11.5245020" lon="-76.6776520">
        <ele>2572.4</ele>
        <time>2022-09-11T21:46:55Z</time>
      </trkpt>
      <trkpt lat="-11.5244680" lon="-76.6776940">
        <ele>2571.6</ele>
        <time>2022-09-11T21:46:56Z</time>
      </trkpt>
      <trkpt lat="-11.5244440" lon="-76.6777490">
        <ele>2570.7</ele>
        <time>2022-09-11T21:46:57Z</time>
      </trkpt>
      <trkpt lat="-11.5244270" lon="-76.6778040">
        <ele>2569.9</ele>
        <time>2022-09-11T21:46:58Z</time>
      </trkpt>
      <trkpt lat="-11.5244060" lon="-76.6778640">
        <ele>2569.0</ele>
        <time>2022-09-11T21:46:59Z</time>
      </trkpt>
      <trkpt lat="-11.5243730" lon="-76.6779230">
        <ele>2568.0</ele>
        <time>2022-09-11T21:47:00Z</time>
      </trkpt>
      <trkpt lat="-11.5243250" lon="-76.6779690">
        <ele>2567.1</ele>
        <time>2022-09-11T21:47:01Z</time>
      </trkpt>
      <trkpt lat="-11.5242700" lon="-76.6780050">
        <ele>2566.1</ele>
        <time>2022-09-11T21:47:02Z</time>
      </trkpt>
      <trkpt lat="-11.5242140" lon="-76.6780350">
        <ele>2565.2</ele>
        <time>2022-09-11T21:47:03Z</time>
      </trkpt>
      <trkpt lat="-11.5241510" lon="-76.6780700">
        <ele>2564.2</ele>
        <time>2022-09-11T21:47:04Z</time>
      </trkpt>
      <trkpt lat="-11.5240850" lon="-76.6781040">
        <ele>2563.1</ele>
        <time>2022-09-11T21:47:05Z</time>
      </trkpt>
      <trkpt lat="-11.5240220" lon="-76.6781380">
        <ele>2562.1</ele>
        <time>2022-09-11T21:47:06Z</time>
      </trkpt>
      <trkpt lat="-11.5239660" lon="-76.6781660">
        <ele>2561.2</ele>
        <time>2022-09-11T21:47:07Z</time>
      </trkpt>
      <trkpt lat="-11.5239190" lon="-76.6781910">
        <ele>2560.4</ele>
        <time>2022-09-11T21:47:08Z</time>
      </trkpt>
      <trkpt lat="-11.5238700" lon="-76.6782060">
        <ele>2559.7</ele>
        <time>2022-09-11T21:47:09Z</time>
      </trkpt>
      <trkpt lat="-11.5238290" lon="-76.6782110">
        <ele>2559.1</ele>
        <time>2022-09-11T21:47:10Z</time>
      </trkpt>
      <trkpt lat="-11.5237990" lon="-76.6782160">
        <ele>2558.6</ele>
        <time>2022-09-11T21:47:11Z</time>
      </trkpt>
      <trkpt lat="-11.5237830" lon="-76.6782160">
        <ele>2558.4</ele>
        <time>2022-09-11T21:47:12Z</time>
      </trkpt>
      <trkpt lat="-11.5237670" lon="-76.6782150">
        <ele>2558.2</ele>
        <time>2022-09-11T21:47:13Z</time>
      </trkpt>
      <trkpt lat="-11.5237400" lon="-76.6782130">
        <ele>2557.8</ele>
        <time>2022-09-11T21:47:14Z</time>
      </trkpt>
      <trkpt lat="-11.5237300" lon="-76.6782120">
        <ele>2557.6</ele>
        <time>2022-09-11T21:47:15Z</time>
      </trkpt>
      <trkpt lat="-11.5237200" lon="-76.6782080">
        <ele>2557.5</ele>
        <time>2022-09-11T21:47:16Z</time>
      </trkpt>
      <trkpt lat="-11.5237210" lon="-76.6782050">
        <ele>2557.4</ele>
        <time>2022-09-11T21:47:17Z</time>
      </trkpt>
      <trkpt lat="-11.5237180" lon="-76.6782070">
        <ele>2557.4</ele>
        <time>2022-09-11T21:47:18Z</time>
      </trkpt>
      <trkpt lat="-11.5237190" lon="-76.6782060">
        <ele>2557.3</ele>
        <time>2022-09-11T21:47:19Z</time>
      </trkpt>
      <trkpt lat="-11.5237230" lon="-76.6782050">
        <ele>2557.3</ele>
        <time>2022-09-11T21:47:20Z</time>
      </trkpt>
      <trkpt lat="-11.5237230" lon="-76.6782040">
        <ele>2557.3</ele>
        <time>2022-09-11T21:47:21Z</time>
      </trkpt>
      <trkpt lat="-11.5237230" lon="-76.6782030">
        <ele>2557.3</ele>
        <time>2022-09-11T21:47:22Z</time>
      </trkpt>
      <trkpt lat="-11.5237230" lon="-76.6782030">
        <ele>2557.3</ele>
        <time>2022-09-11T21:47:23Z</time>
      </trkpt>
      <trkpt lat="-11.5237240" lon="-76.6782030">
        <ele>2557.2</ele>
        <time>2022-09-11T21:47:24Z</time>
      </trkpt>
      <trkpt lat="-11.5237240" lon="-76.6782030">
        <ele>2557.2</ele>
        <time>2022-09-11T21:47:25Z</time>
      </trkpt>
      <trkpt lat="-11.5237230" lon="-76.6782030">
        <ele>2557.2</ele>
        <time>2022-09-11T21:47:26Z</time>
      </trkpt>
      <trkpt lat="-11.5237230" lon="-76.6782020">
        <ele>2557.2</ele>
        <time>2022-09-11T21:47:27Z</time>
      </trkpt>
      <trkpt lat="-11.5236950" lon="-76.6781910">
        <ele>2556.8</ele>
        <time>2022-09-11T21:48:25Z</time>
      </trkpt>
      <trkpt lat="-11.5236690" lon="-76.6781830">
        <ele>2556.4</ele>
        <time>2022-09-11T21:48:26Z</time>
      </trkpt>
      <trkpt lat="-11.5236340" lon="-76.6781750">
        <ele>2555.9</ele>
        <time>2022-09-11T21:48:27Z</time>
      </trkpt>
      <trkpt lat="-11.5235720" lon="-76.6781610">
        <ele>2554.9</ele>
        <time>2022-09-11T21:48:28Z</time>
      </trkpt>
      <trkpt lat="-11.5235090" lon="-76.6781460">
        <ele>2554.0</ele>
        <time>2022-09-11T21:48:29Z</time>
      </trkpt>
      <trkpt lat="-11.5234470" lon="-76.6781160">
        <ele>2553.0</ele>
        <time>2022-09-11T21:48:30Z</time>
      </trkpt>
      <trkpt lat="-11.5234010" lon="-76.6780700">
        <ele>2552.1</ele>
        <time>2022-09-11T21:48:31Z</time>
      </trkpt>
      <trkpt lat="-11.5233760" lon="-76.6780240">
        <ele>2551.3</ele>
        <time>2022-09-11T21:48:32Z</time>
      </trkpt>
      <trkpt lat="-11.5233720" lon="-76.6779750">
        <ele>2550.6</ele>
        <time>2022-09-11T21:48:33Z</time>
      </trkpt>
      <trkpt lat="-11.5234090" lon="-76.6779420">
        <ele>2549.9</ele>
        <time>2022-09-11T21:48:34Z</time>
      </trkpt>
      <trkpt lat="-11.5234470" lon="-76.6779170">
        <ele>2549.2</ele>
        <time>2022-09-11T21:48:35Z</time>
      </trkpt>
      <trkpt lat="-11.5234820" lon="-76.6778750">
        <ele>2548.5</ele>
        <time>2022-09-11T21:48:36Z</time>
      </trkpt>
      <trkpt lat="-11.5235120" lon="-76.6778350">
        <ele>2547.7</ele>
        <time>2022-09-11T21:48:37Z</time>
      </trkpt>
      <trkpt lat="-11.5235420" lon="-76.6777980">
        <ele>2547.1</ele>
        <time>2022-09-11T21:48:38Z</time>
      </trkpt>
      <trkpt lat="-11.5235720" lon="-76.6777650">
        <ele>2546.4</ele>
        <time>2022-09-11T21:48:39Z</time>
      </trkpt>
      <trkpt lat="-11.5236060" lon="-76.6777350">
        <ele>2545.8</ele>
        <time>2022-09-11T21:48:40Z</time>
      </trkpt>
      <trkpt lat="-11.5236390" lon="-76.6777040">
        <ele>2545.1</ele>
        <time>2022-09-11T21:48:41Z</time>
      </trkpt>
      <trkpt lat="-11.5236570" lon="-76.6776980">
        <ele>2544.8</ele>
        <time>2022-09-11T21:48:42Z</time>
      </trkpt>
      <trkpt lat="-11.5236970" lon="-76.6776550">
        <ele>2544.0</ele>
        <time>2022-09-11T21:48:44Z</time>
      </trkpt>
      <trkpt lat="-11.5237360" lon="-76.6776020">
        <ele>2544.0</ele>
        <time>2022-09-11T21:48:45Z</time>
      </trkpt>
      <trkpt lat="-11.5237810" lon="-76.6775610">
        <ele>2544.0</ele>
        <time>2022-09-11T21:48:46Z</time>
      </trkpt>
      <trkpt lat="-11.5238110" lon="-76.6775190">
        <ele>2543.9</ele>
        <time>2022-09-11T21:48:47Z</time>
      </trkpt>
      <trkpt lat="-11.5238360" lon="-76.6774730">
        <ele>2543.9</ele>
        <time>2022-09-11T21:48:49Z</time>
      </trkpt>
      <trkpt lat="-11.5238670" lon="-76.6774370">
        <ele>2543.8</ele>
        <time>2022-09-11T21:48:50Z</time>
      </trkpt>
      <trkpt lat="-11.5239320" lon="-76.6773780">
        <ele>2543.6</ele>
        <time>2022-09-11T21:48:51Z</time>
      </trkpt>
      <trkpt lat="-11.5239660" lon="-76.6773340">
        <ele>2543.4</ele>
        <time>2022-09-11T21:48:52Z</time>
      </trkpt>
      <trkpt lat="-11.5239950" lon="-76.6772830">
        <ele>2543.2</ele>
        <time>2022-09-11T21:48:53Z</time>
      </trkpt>
      <trkpt lat="-11.5240210" lon="-76.6772290">
        <ele>2543.0</ele>
        <time>2022-09-11T21:48:54Z</time>
      </trkpt>
      <trkpt lat="-11.5240410" lon="-76.6771780">
        <ele>2543.0</ele>
        <time>2022-09-11T21:48:55Z</time>
      </trkpt>
      <trkpt lat="-11.5240500" lon="-76.6771230">
        <ele>2542.9</ele>
        <time>2022-09-11T21:48:56Z</time>
      </trkpt>
      <trkpt lat="-11.5240570" lon="-76.6770640">
        <ele>2542.7</ele>
        <time>2022-09-11T21:48:57Z</time>
      </trkpt>
      <trkpt lat="-11.5240590" lon="-76.6770040">
        <ele>2542.5</ele>
        <time>2022-09-11T21:48:58Z</time>
      </trkpt>
      <trkpt lat="-11.5240600" lon="-76.6769530">
        <ele>2542.3</ele>
        <time>2022-09-11T21:48:59Z</time>
      </trkpt>
      <trkpt lat="-11.5240650" lon="-76.6769050">
        <ele>2542.2</ele>
        <time>2022-09-11T21:49:00Z</time>
      </trkpt>
      <trkpt lat="-11.5240770" lon="-76.6768720">
        <ele>2542.1</ele>
        <time>2022-09-11T21:49:01Z</time>
      </trkpt>
      <trkpt lat="-11.5240880" lon="-76.6768380">
        <ele>2542.1</ele>
        <time>2022-09-11T21:49:02Z</time>
      </trkpt>
      <trkpt lat="-11.5240970" lon="-76.6768090">
        <ele>2542.1</ele>
        <time>2022-09-11T21:49:03Z</time>
      </trkpt>
      <trkpt lat="-11.5241020" lon="-76.6768010">
        <ele>2542.0</ele>
        <time>2022-09-11T21:49:04Z</time>
      </trkpt>
      <trkpt lat="-11.5240940" lon="-76.6767520">
        <ele>2542.0</ele>
        <time>2022-09-11T21:49:06Z</time>
      </trkpt>
      <trkpt lat="-11.5240750" lon="-76.6767100">
        <ele>2542.0</ele>
        <time>2022-09-11T21:49:07Z</time>
      </trkpt>
      <trkpt lat="-11.5240480" lon="-76.6766700">
        <ele>2541.9</ele>
        <time>2022-09-11T21:49:09Z</time>
      </trkpt>
      <trkpt lat="-11.5240320" lon="-76.6765740">
        <ele>2541.8</ele>
        <time>2022-09-11T21:49:10Z</time>
      </trkpt>
      <trkpt lat="-11.5240200" lon="-76.6765180">
        <ele>2541.7</ele>
        <time>2022-09-11T21:49:11Z</time>
      </trkpt>
      <trkpt lat="-11.5240080" lon="-76.6764600">
        <ele>2541.5</ele>
        <time>2022-09-11T21:49:12Z</time>
      </trkpt>
      <trkpt lat="-11.5239990" lon="-76.6764040">
        <ele>2541.3</ele>
        <time>2022-09-11T21:49:13Z</time>
      </trkpt>
      <trkpt lat="-11.5239720" lon="-76.6764240">
        <ele>2541.5</ele>
        <time>2022-09-11T21:49:16Z</time>
      </trkpt>
      <trkpt lat="-11.5239570" lon="-76.6763660">
        <ele>2541.3</ele>
        <time>2022-09-11T21:49:17Z</time>
      </trkpt>
      <trkpt lat="-11.5239440" lon="-76.6763080">
        <ele>2541.1</ele>
        <time>2022-09-11T21:49:18Z</time>
      </trkpt>
      <trkpt lat="-11.5239360" lon="-76.6762480">
        <ele>2540.9</ele>
        <time>2022-09-11T21:49:19Z</time>
      </trkpt>
      <trkpt lat="-11.5239260" lon="-76.6761860">
        <ele>2540.7</ele>
        <time>2022-09-11T21:49:20Z</time>
      </trkpt>
      <trkpt lat="-11.5239190" lon="-76.6761190">
        <ele>2540.4</ele>
        <time>2022-09-11T21:49:21Z</time>
      </trkpt>
      <trkpt lat="-11.5239100" lon="-76.6760480">
        <ele>2540.2</ele>
        <time>2022-09-11T21:49:22Z</time>
      </trkpt>
      <trkpt lat="-11.5238950" lon="-76.6759750">
        <ele>2540.1</ele>
        <time>2022-09-11T21:49:23Z</time>
      </trkpt>
      <trkpt lat="-11.5238750" lon="-76.6759040">
        <ele>2539.9</ele>
        <time>2022-09-11T21:49:24Z</time>
      </trkpt>
      <trkpt lat="-11.5238400" lon="-76.6758380">
        <ele>2539.8</ele>
        <time>2022-09-11T21:49:25Z</time>
      </trkpt>
      <trkpt lat="-11.5238000" lon="-76.6757720">
        <ele>2539.6</ele>
        <time>2022-09-11T21:49:26Z</time>
      </trkpt>
      <trkpt lat="-11.5237550" lon="-76.6757120">
        <ele>2539.3</ele>
        <time>2022-09-11T21:49:27Z</time>
      </trkpt>
      <trkpt lat="-11.5237010" lon="-76.6756490">
        <ele>2539.0</ele>
        <time>2022-09-11T21:49:28Z</time>
      </trkpt>
      <trkpt lat="-11.5236480" lon="-76.6755840">
        <ele>2538.3</ele>
        <time>2022-09-11T21:49:29Z</time>
      </trkpt>
      <trkpt lat="-11.5236030" lon="-76.6755170">
        <ele>2537.7</ele>
        <time>2022-09-11T21:49:30Z</time>
      </trkpt>
      <trkpt lat="-11.5235640" lon="-76.6754450">
        <ele>2537.2</ele>
        <time>2022-09-11T21:49:31Z</time>
      </trkpt>
      <trkpt lat="-11.5235290" lon="-76.6753740">
        <ele>2536.6</ele>
        <time>2022-09-11T21:49:32Z</time>
      </trkpt>
      <trkpt lat="-11.5234970" lon="-76.6753040">
        <ele>2536.1</ele>
        <time>2022-09-11T21:49:33Z</time>
      </trkpt>
      <trkpt lat="-11.5234640" lon="-76.6752330">
        <ele>2535.6</ele>
        <time>2022-09-11T21:49:34Z</time>
      </trkpt>
      <trkpt lat="-11.5234320" lon="-76.6751650">
        <ele>2535.0</ele>
        <time>2022-09-11T21:49:35Z</time>
      </trkpt>
      <trkpt lat="-11.5233990" lon="-76.6750960">
        <ele>2534.5</ele>
        <time>2022-09-11T21:49:36Z</time>
      </trkpt>
      <trkpt lat="-11.5233710" lon="-76.6750240">
        <ele>2534.0</ele>
        <time>2022-09-11T21:49:37Z</time>
      </trkpt>
      <trkpt lat="-11.5233460" lon="-76.6749500">
        <ele>2533.5</ele>
        <time>2022-09-11T21:49:38Z</time>
      </trkpt>
      <trkpt lat="-11.5233240" lon="-76.6748760">
        <ele>2532.9</ele>
        <time>2022-09-11T21:49:39Z</time>
      </trkpt>
      <trkpt lat="-11.5233080" lon="-76.6748020">
        <ele>2532.4</ele>
        <time>2022-09-11T21:49:40Z</time>
      </trkpt>
      <trkpt lat="-11.5232910" lon="-76.6747270">
        <ele>2531.9</ele>
        <time>2022-09-11T21:49:41Z</time>
      </trkpt>
      <trkpt lat="-11.5232730" lon="-76.6746490">
        <ele>2531.3</ele>
        <time>2022-09-11T21:49:42Z</time>
      </trkpt>
      <trkpt lat="-11.5232540" lon="-76.6745700">
        <ele>2530.8</ele>
        <time>2022-09-11T21:49:43Z</time>
      </trkpt>
      <trkpt lat="-11.5232360" lon="-76.6744900">
        <ele>2530.2</ele>
        <time>2022-09-11T21:49:44Z</time>
      </trkpt>
      <trkpt lat="-11.5232190" lon="-76.6744080">
        <ele>2529.7</ele>
        <time>2022-09-11T21:49:45Z</time>
      </trkpt>
      <trkpt lat="-11.5232020" lon="-76.6743260">
        <ele>2529.1</ele>
        <time>2022-09-11T21:49:46Z</time>
      </trkpt>
      <trkpt lat="-11.5231770" lon="-76.6742430">
        <ele>2528.5</ele>
        <time>2022-09-11T21:49:47Z</time>
      </trkpt>
      <trkpt lat="-11.5231450" lon="-76.6741620">
        <ele>2527.9</ele>
        <time>2022-09-11T21:49:48Z</time>
      </trkpt>
      <trkpt lat="-11.5231060" lon="-76.6740850">
        <ele>2527.3</ele>
        <time>2022-09-11T21:49:49Z</time>
      </trkpt>
      <trkpt lat="-11.5230620" lon="-76.6740130">
        <ele>2526.7</ele>
        <time>2022-09-11T21:49:50Z</time>
      </trkpt>
      <trkpt lat="-11.5230130" lon="-76.6739390">
        <ele>2526.1</ele>
        <time>2022-09-11T21:49:51Z</time>
      </trkpt>
      <trkpt lat="-11.5229610" lon="-76.6738580">
        <ele>2525.5</ele>
        <time>2022-09-11T21:49:52Z</time>
      </trkpt>
      <trkpt lat="-11.5229090" lon="-76.6737740">
        <ele>2524.8</ele>
        <time>2022-09-11T21:49:53Z</time>
      </trkpt>
      <trkpt lat="-11.5228450" lon="-76.6737020">
        <ele>2524.1</ele>
        <time>2022-09-11T21:49:54Z</time>
      </trkpt>
      <trkpt lat="-11.5227850" lon="-76.6736240">
        <ele>2523.5</ele>
        <time>2022-09-11T21:49:55Z</time>
      </trkpt>
      <trkpt lat="-11.5227240" lon="-76.6735450">
        <ele>2522.8</ele>
        <time>2022-09-11T21:49:56Z</time>
      </trkpt>
      <trkpt lat="-11.5226710" lon="-76.6734680">
        <ele>2522.1</ele>
        <time>2022-09-11T21:49:57Z</time>
      </trkpt>
      <trkpt lat="-11.5226260" lon="-76.6733900">
        <ele>2521.5</ele>
        <time>2022-09-11T21:49:58Z</time>
      </trkpt>
      <trkpt lat="-11.5225930" lon="-76.6733130">
        <ele>2520.9</ele>
        <time>2022-09-11T21:49:59Z</time>
      </trkpt>
      <trkpt lat="-11.5225640" lon="-76.6732490">
        <ele>2520.5</ele>
        <time>2022-09-11T21:50:00Z</time>
      </trkpt>
      <trkpt lat="-11.5225370" lon="-76.6731960">
        <ele>2520.0</ele>
        <time>2022-09-11T21:50:01Z</time>
      </trkpt>
      <trkpt lat="-11.5225080" lon="-76.6731640">
        <ele>2519.7</ele>
        <time>2022-09-11T21:50:02Z</time>
      </trkpt>
      <trkpt lat="-11.5224810" lon="-76.6731820">
        <ele>2519.5</ele>
        <time>2022-09-11T21:50:03Z</time>
      </trkpt>
      <trkpt lat="-11.5224610" lon="-76.6732160">
        <ele>2519.3</ele>
        <time>2022-09-11T21:50:04Z</time>
      </trkpt>
      <trkpt lat="-11.5224580" lon="-76.6732310">
        <ele>2519.2</ele>
        <time>2022-09-11T21:50:05Z</time>
      </trkpt>
      <trkpt lat="-11.5224650" lon="-76.6732680">
        <ele>2518.9</ele>
        <time>2022-09-11T21:50:06Z</time>
      </trkpt>
      <trkpt lat="-11.5224800" lon="-76.6733050">
        <ele>2518.6</ele>
        <time>2022-09-11T21:50:07Z</time>
      </trkpt>
      <trkpt lat="-11.5225070" lon="-76.6733710">
        <ele>2518.1</ele>
        <time>2022-09-11T21:50:08Z</time>
      </trkpt>
      <trkpt lat="-11.5225370" lon="-76.6734370">
        <ele>2517.6</ele>
        <time>2022-09-11T21:50:09Z</time>
      </trkpt>
      <trkpt lat="-11.5225690" lon="-76.6735000">
        <ele>2517.2</ele>
        <time>2022-09-11T21:50:10Z</time>
      </trkpt>
      <trkpt lat="-11.5226000" lon="-76.6735630">
        <ele>2516.7</ele>
        <time>2022-09-11T21:50:11Z</time>
      </trkpt>
      <trkpt lat="-11.5226320" lon="-76.6736270">
        <ele>2516.2</ele>
        <time>2022-09-11T21:50:12Z</time>
      </trkpt>
      <trkpt lat="-11.5226680" lon="-76.6736920">
        <ele>2515.7</ele>
        <time>2022-09-11T21:50:13Z</time>
      </trkpt>
      <trkpt lat="-11.5227060" lon="-76.6737570">
        <ele>2515.2</ele>
        <time>2022-09-11T21:50:14Z</time>
      </trkpt>
      <trkpt lat="-11.5227410" lon="-76.6738230">
        <ele>2514.6</ele>
        <time>2022-09-11T21:50:15Z</time>
      </trkpt>
      <trkpt lat="-11.5227750" lon="-76.6738890">
        <ele>2514.1</ele>
        <time>2022-09-11T21:50:16Z</time>
      </trkpt>
      <trkpt lat="-11.5228040" lon="-76.6739550">
        <ele>2513.6</ele>
        <time>2022-09-11T21:50:17Z</time>
      </trkpt>
      <trkpt lat="-11.5228330" lon="-76.6740230">
        <ele>2513.1</ele>
        <time>2022-09-11T21:50:18Z</time>
      </trkpt>
      <trkpt lat="-11.5228600" lon="-76.6740960">
        <ele>2512.6</ele>
        <time>2022-09-11T21:50:19Z</time>
      </trkpt>
      <trkpt lat="-11.5228880" lon="-76.6741700">
        <ele>2512.1</ele>
        <time>2022-09-11T21:50:20Z</time>
      </trkpt>
      <trkpt lat="-11.5229130" lon="-76.6742460">
        <ele>2511.5</ele>
        <time>2022-09-11T21:50:21Z</time>
      </trkpt>
      <trkpt lat="-11.5229360" lon="-76.6743220">
        <ele>2511.0</ele>
        <time>2022-09-11T21:50:22Z</time>
      </trkpt>
      <trkpt lat="-11.5229570" lon="-76.6744000">
        <ele>2510.4</ele>
        <time>2022-09-11T21:50:23Z</time>
      </trkpt>
      <trkpt lat="-11.5229760" lon="-76.6744720">
        <ele>2509.9</ele>
        <time>2022-09-11T21:50:24Z</time>
      </trkpt>
      <trkpt lat="-11.5229940" lon="-76.6745450">
        <ele>2509.4</ele>
        <time>2022-09-11T21:50:25Z</time>
      </trkpt>
      <trkpt lat="-11.5230090" lon="-76.6746180">
        <ele>2508.9</ele>
        <time>2022-09-11T21:50:26Z</time>
      </trkpt>
      <trkpt lat="-11.5230280" lon="-76.6746890">
        <ele>2508.4</ele>
        <time>2022-09-11T21:50:27Z</time>
      </trkpt>
      <trkpt lat="-11.5230480" lon="-76.6747600">
        <ele>2507.9</ele>
        <time>2022-09-11T21:50:28Z</time>
      </trkpt>
      <trkpt lat="-11.5230660" lon="-76.6748340">
        <ele>2507.4</ele>
        <time>2022-09-11T21:50:29Z</time>
      </trkpt>
      <trkpt lat="-11.5230830" lon="-76.6749100">
        <ele>2506.8</ele>
        <time>2022-09-11T21:50:30Z</time>
      </trkpt>
      <trkpt lat="-11.5230950" lon="-76.6749920">
        <ele>2506.3</ele>
        <time>2022-09-11T21:50:31Z</time>
      </trkpt>
      <trkpt lat="-11.5231120" lon="-76.6750740">
        <ele>2505.7</ele>
        <time>2022-09-11T21:50:32Z</time>
      </trkpt>
      <trkpt lat="-11.5231320" lon="-76.6751600">
        <ele>2505.1</ele>
        <time>2022-09-11T21:50:33Z</time>
      </trkpt>
      <trkpt lat="-11.5231530" lon="-76.6752490">
        <ele>2504.5</ele>
        <time>2022-09-11T21:50:34Z</time>
      </trkpt>
      <trkpt lat="-11.5231760" lon="-76.6753390">
        <ele>2503.8</ele>
        <time>2022-09-11T21:50:35Z</time>
      </trkpt>
      <trkpt lat="-11.5232000" lon="-76.6754270">
        <ele>2503.2</ele>
        <time>2022-09-11T21:50:36Z</time>
      </trkpt>
      <trkpt lat="-11.5232210" lon="-76.6755170">
        <ele>2502.6</ele>
        <time>2022-09-11T21:50:37Z</time>
      </trkpt>
      <trkpt lat="-11.5232350" lon="-76.6756140">
        <ele>2501.9</ele>
        <time>2022-09-11T21:50:38Z</time>
      </trkpt>
      <trkpt lat="-11.5232380" lon="-76.6757180">
        <ele>2501.2</ele>
        <time>2022-09-11T21:50:39Z</time>
      </trkpt>
      <trkpt lat="-11.5232340" lon="-76.6758280">
        <ele>2500.5</ele>
        <time>2022-09-11T21:50:40Z</time>
      </trkpt>
      <trkpt lat="-11.5232220" lon="-76.6759400">
        <ele>2499.7</ele>
        <time>2022-09-11T21:50:41Z</time>
      </trkpt>
      <trkpt lat="-11.5232040" lon="-76.6760490">
        <ele>2498.9</ele>
        <time>2022-09-11T21:50:42Z</time>
      </trkpt>
      <trkpt lat="-11.5231800" lon="-76.6761600">
        <ele>2498.2</ele>
        <time>2022-09-11T21:50:43Z</time>
      </trkpt>
      <trkpt lat="-11.5231460" lon="-76.6762670">
        <ele>2497.4</ele>
        <time>2022-09-11T21:50:44Z</time>
      </trkpt>
      <trkpt lat="-11.5231080" lon="-76.6763690">
        <ele>2496.7</ele>
        <time>2022-09-11T21:50:45Z</time>
      </trkpt>
      <trkpt lat="-11.5230600" lon="-76.6764650">
        <ele>2495.9</ele>
        <time>2022-09-11T21:50:46Z</time>
      </trkpt>
      <trkpt lat="-11.5230030" lon="-76.6765560">
        <ele>2495.2</ele>
        <time>2022-09-11T21:50:47Z</time>
      </trkpt>
      <trkpt lat="-11.5229450" lon="-76.6766380">
        <ele>2494.5</ele>
        <time>2022-09-11T21:50:48Z</time>
      </trkpt>
      <trkpt lat="-11.5228870" lon="-76.6767140">
        <ele>2493.8</ele>
        <time>2022-09-11T21:50:49Z</time>
      </trkpt>
      <trkpt lat="-11.5228350" lon="-76.6767810">
        <ele>2493.3</ele>
        <time>2022-09-11T21:50:50Z</time>
      </trkpt>
      <trkpt lat="-11.5227820" lon="-76.6768340">
        <ele>2492.7</ele>
        <time>2022-09-11T21:50:51Z</time>
      </trkpt>
      <trkpt lat="-11.5227300" lon="-76.6768640">
        <ele>2492.3</ele>
        <time>2022-09-11T21:50:52Z</time>
      </trkpt>
      <trkpt lat="-11.5226770" lon="-76.6768730">
        <ele>2492.0</ele>
        <time>2022-09-11T21:50:53Z</time>
      </trkpt>
      <trkpt lat="-11.5226260" lon="-76.6768600">
        <ele>2491.6</ele>
        <time>2022-09-11T21:50:54Z</time>
      </trkpt>
      <trkpt lat="-11.5225830" lon="-76.6768210">
        <ele>2491.2</ele>
        <time>2022-09-11T21:50:55Z</time>
      </trkpt>
      <trkpt lat="-11.5225540" lon="-76.6767690">
        <ele>2490.8</ele>
        <time>2022-09-11T21:50:56Z</time>
      </trkpt>
      <trkpt lat="-11.5225380" lon="-76.6767100">
        <ele>2490.4</ele>
        <time>2022-09-11T21:50:57Z</time>
      </trkpt>
      <trkpt lat="-11.5225360" lon="-76.6766470">
        <ele>2489.9</ele>
        <time>2022-09-11T21:50:58Z</time>
      </trkpt>
      <trkpt lat="-11.5225400" lon="-76.6765780">
        <ele>2489.5</ele>
        <time>2022-09-11T21:50:59Z</time>
      </trkpt>
      <trkpt lat="-11.5225450" lon="-76.6765040">
        <ele>2489.0</ele>
        <time>2022-09-11T21:51:00Z</time>
      </trkpt>
      <trkpt lat="-11.5225460" lon="-76.6764260">
        <ele>2488.4</ele>
        <time>2022-09-11T21:51:01Z</time>
      </trkpt>
      <trkpt lat="-11.5225510" lon="-76.6763450">
        <ele>2487.9</ele>
        <time>2022-09-11T21:51:02Z</time>
      </trkpt>
      <trkpt lat="-11.5225550" lon="-76.6762660">
        <ele>2487.3</ele>
        <time>2022-09-11T21:51:03Z</time>
      </trkpt>
      <trkpt lat="-11.5225620" lon="-76.6761940">
        <ele>2486.8</ele>
        <time>2022-09-11T21:51:04Z</time>
      </trkpt>
      <trkpt lat="-11.5225770" lon="-76.6761260">
        <ele>2486.4</ele>
        <time>2022-09-11T21:51:05Z</time>
      </trkpt>
      <trkpt lat="-11.5226020" lon="-76.6760610">
        <ele>2485.9</ele>
        <time>2022-09-11T21:51:06Z</time>
      </trkpt>
      <trkpt lat="-11.5226380" lon="-76.6759970">
        <ele>2485.4</ele>
        <time>2022-09-11T21:51:07Z</time>
      </trkpt>
      <trkpt lat="-11.5226760" lon="-76.6759310">
        <ele>2484.9</ele>
        <time>2022-09-11T21:51:08Z</time>
      </trkpt>
      <trkpt lat="-11.5227110" lon="-76.6758610">
        <ele>2484.3</ele>
        <time>2022-09-11T21:51:09Z</time>
      </trkpt>
      <trkpt lat="-11.5227450" lon="-76.6757890">
        <ele>2483.8</ele>
        <time>2022-09-11T21:51:10Z</time>
      </trkpt>
      <trkpt lat="-11.5227700" lon="-76.6757160">
        <ele>2483.3</ele>
        <time>2022-09-11T21:51:11Z</time>
      </trkpt>
      <trkpt lat="-11.5227800" lon="-76.6756390">
        <ele>2482.7</ele>
        <time>2022-09-11T21:51:12Z</time>
      </trkpt>
      <trkpt lat="-11.5227770" lon="-76.6755600">
        <ele>2482.2</ele>
        <time>2022-09-11T21:51:13Z</time>
      </trkpt>
      <trkpt lat="-11.5227600" lon="-76.6754810">
        <ele>2481.6</ele>
        <time>2022-09-11T21:51:14Z</time>
      </trkpt>
      <trkpt lat="-11.5227350" lon="-76.6754030">
        <ele>2481.1</ele>
        <time>2022-09-11T21:51:15Z</time>
      </trkpt>
      <trkpt lat="-11.5227060" lon="-76.6753230">
        <ele>2480.5</ele>
        <time>2022-09-11T21:51:16Z</time>
      </trkpt>
      <trkpt lat="-11.5226790" lon="-76.6752430">
        <ele>2479.9</ele>
        <time>2022-09-11T21:51:17Z</time>
      </trkpt>
      <trkpt lat="-11.5226490" lon="-76.6751610">
        <ele>2479.3</ele>
        <time>2022-09-11T21:51:18Z</time>
      </trkpt>
      <trkpt lat="-11.5226140" lon="-76.6750810">
        <ele>2478.7</ele>
        <time>2022-09-11T21:51:19Z</time>
      </trkpt>
      <trkpt lat="-11.5225730" lon="-76.6750000">
        <ele>2478.1</ele>
        <time>2022-09-11T21:51:20Z</time>
      </trkpt>
      <trkpt lat="-11.5225230" lon="-76.6749190">
        <ele>2477.5</ele>
        <time>2022-09-11T21:51:21Z</time>
      </trkpt>
      <trkpt lat="-11.5224650" lon="-76.6748370">
        <ele>2476.8</ele>
        <time>2022-09-11T21:51:22Z</time>
      </trkpt>
      <trkpt lat="-11.5224020" lon="-76.6747570">
        <ele>2476.1</ele>
        <time>2022-09-11T21:51:23Z</time>
      </trkpt>
      <trkpt lat="-11.5223330" lon="-76.6746820">
        <ele>2475.4</ele>
        <time>2022-09-11T21:51:24Z</time>
      </trkpt>
      <trkpt lat="-11.5222560" lon="-76.6746180">
        <ele>2475.0</ele>
        <time>2022-09-11T21:51:25Z</time>
      </trkpt>
      <trkpt lat="-11.5221740" lon="-76.6745610">
        <ele>2474.2</ele>
        <time>2022-09-11T21:51:26Z</time>
      </trkpt>
      <trkpt lat="-11.5220900" lon="-76.6745130">
        <ele>2473.5</ele>
        <time>2022-09-11T21:51:27Z</time>
      </trkpt>
      <trkpt lat="-11.5220020" lon="-76.6744700">
        <ele>2472.9</ele>
        <time>2022-09-11T21:51:28Z</time>
      </trkpt>
      <trkpt lat="-11.5219140" lon="-76.6744270">
        <ele>2472.1</ele>
        <time>2022-09-11T21:51:29Z</time>
      </trkpt>
      <trkpt lat="-11.5218280" lon="-76.6743820">
        <ele>2471.3</ele>
        <time>2022-09-11T21:51:30Z</time>
      </trkpt>
      <trkpt lat="-11.5217400" lon="-76.6743280">
        <ele>2470.6</ele>
        <time>2022-09-11T21:51:31Z</time>
      </trkpt>
      <trkpt lat="-11.5216570" lon="-76.6742670">
        <ele>2470.0</ele>
        <time>2022-09-11T21:51:32Z</time>
      </trkpt>
      <trkpt lat="-11.5215820" lon="-76.6742000">
        <ele>2469.3</ele>
        <time>2022-09-11T21:51:33Z</time>
      </trkpt>
      <trkpt lat="-11.5215130" lon="-76.6741280">
        <ele>2468.5</ele>
        <time>2022-09-11T21:51:34Z</time>
      </trkpt>
      <trkpt lat="-11.5214510" lon="-76.6740530">
        <ele>2467.8</ele>
        <time>2022-09-11T21:51:35Z</time>
      </trkpt>
      <trkpt lat="-11.5213980" lon="-76.6739760">
        <ele>2467.2</ele>
        <time>2022-09-11T21:51:36Z</time>
      </trkpt>
      <trkpt lat="-11.5213600" lon="-76.6738930">
        <ele>2466.6</ele>
        <time>2022-09-11T21:51:37Z</time>
      </trkpt>
      <trkpt lat="-11.5213380" lon="-76.6738020">
        <ele>2466.0</ele>
        <time>2022-09-11T21:51:38Z</time>
      </trkpt>
      <trkpt lat="-11.5213290" lon="-76.6737080">
        <ele>2465.2</ele>
        <time>2022-09-11T21:51:39Z</time>
      </trkpt>
      <trkpt lat="-11.5213280" lon="-76.6736150">
        <ele>2464.6</ele>
        <time>2022-09-11T21:51:40Z</time>
      </trkpt>
      <trkpt lat="-11.5213310" lon="-76.6735220">
        <ele>2464.1</ele>
        <time>2022-09-11T21:51:41Z</time>
      </trkpt>
      <trkpt lat="-11.5213330" lon="-76.6734290">
        <ele>2463.5</ele>
        <time>2022-09-11T21:51:42Z</time>
      </trkpt>
      <trkpt lat="-11.5213330" lon="-76.6733320">
        <ele>2462.7</ele>
        <time>2022-09-11T21:51:43Z</time>
      </trkpt>
      <trkpt lat="-11.5213310" lon="-76.6732320">
        <ele>2461.9</ele>
        <time>2022-09-11T21:51:44Z</time>
      </trkpt>
      <trkpt lat="-11.5213270" lon="-76.6731290">
        <ele>2461.2</ele>
        <time>2022-09-11T21:51:45Z</time>
      </trkpt>
      <trkpt lat="-11.5213240" lon="-76.6730250">
        <ele>2460.5</ele>
        <time>2022-09-11T21:51:46Z</time>
      </trkpt>
      <trkpt lat="-11.5213240" lon="-76.6729190">
        <ele>2459.7</ele>
        <time>2022-09-11T21:51:47Z</time>
      </trkpt>
      <trkpt lat="-11.5213240" lon="-76.6728110">
        <ele>2458.8</ele>
        <time>2022-09-11T21:51:48Z</time>
      </trkpt>
      <trkpt lat="-11.5213190" lon="-76.6727000">
        <ele>2457.9</ele>
        <time>2022-09-11T21:51:49Z</time>
      </trkpt>
      <trkpt lat="-11.5213100" lon="-76.6725880">
        <ele>2457.0</ele>
        <time>2022-09-11T21:51:50Z</time>
      </trkpt>
      <trkpt lat="-11.5212960" lon="-76.6724760">
        <ele>2456.2</ele>
        <time>2022-09-11T21:51:51Z</time>
      </trkpt>
      <trkpt lat="-11.5212880" lon="-76.6723650">
        <ele>2455.4</ele>
        <time>2022-09-11T21:51:52Z</time>
      </trkpt>
      <trkpt lat="-11.5212870" lon="-76.6722550">
        <ele>2454.6</ele>
        <time>2022-09-11T21:51:53Z</time>
      </trkpt>
      <trkpt lat="-11.5212980" lon="-76.6721440">
        <ele>2453.8</ele>
        <time>2022-09-11T21:51:54Z</time>
      </trkpt>
      <trkpt lat="-11.5213170" lon="-76.6720350">
        <ele>2453.0</ele>
        <time>2022-09-11T21:51:55Z</time>
      </trkpt>
      <trkpt lat="-11.5213440" lon="-76.6719230">
        <ele>2452.3</ele>
        <time>2022-09-11T21:51:56Z</time>
      </trkpt>
      <trkpt lat="-11.5213980" lon="-76.6717990">
        <ele>2451.4</ele>
        <time>2022-09-11T21:51:57Z</time>
      </trkpt>
      <trkpt lat="-11.5214240" lon="-76.6716890">
        <ele>2450.5</ele>
        <time>2022-09-11T21:51:58Z</time>
      </trkpt>
      <trkpt lat="-11.5214290" lon="-76.6715900">
        <ele>2449.8</ele>
        <time>2022-09-11T21:51:59Z</time>
      </trkpt>
      <trkpt lat="-11.5214040" lon="-76.6715050">
        <ele>2449.3</ele>
        <time>2022-09-11T21:52:00Z</time>
      </trkpt>
      <trkpt lat="-11.5213860" lon="-76.6714190">
        <ele>2448.7</ele>
        <time>2022-09-11T21:52:01Z</time>
      </trkpt>
      <trkpt lat="-11.5213670" lon="-76.6713410">
        <ele>2448.1</ele>
        <time>2022-09-11T21:52:02Z</time>
      </trkpt>
      <trkpt lat="-11.5213460" lon="-76.6712760">
        <ele>2447.7</ele>
        <time>2022-09-11T21:52:03Z</time>
      </trkpt>
      <trkpt lat="-11.5213230" lon="-76.6712280">
        <ele>2447.4</ele>
        <time>2022-09-11T21:52:04Z</time>
      </trkpt>
      <trkpt lat="-11.5213000" lon="-76.6712000">
        <ele>2447.1</ele>
        <time>2022-09-11T21:52:05Z</time>
      </trkpt>
      <trkpt lat="-11.5212700" lon="-76.6711930">
        <ele>2447.0</ele>
        <time>2022-09-11T21:52:06Z</time>
      </trkpt>
      <trkpt lat="-11.5212550" lon="-76.6711900">
        <ele>2446.9</ele>
        <time>2022-09-11T21:52:07Z</time>
      </trkpt>
      <trkpt lat="-11.5212260" lon="-76.6711930">
        <ele>2446.7</ele>
        <time>2022-09-11T21:52:08Z</time>
      </trkpt>
      <trkpt lat="-11.5211950" lon="-76.6711990">
        <ele>2446.6</ele>
        <time>2022-09-11T21:52:09Z</time>
      </trkpt>
      <trkpt lat="-11.5211610" lon="-76.6712140">
        <ele>2446.4</ele>
        <time>2022-09-11T21:52:10Z</time>
      </trkpt>
      <trkpt lat="-11.5211130" lon="-76.6712300">
        <ele>2446.1</ele>
        <time>2022-09-11T21:52:11Z</time>
      </trkpt>
      <trkpt lat="-11.5210720" lon="-76.6712550">
        <ele>2445.8</ele>
        <time>2022-09-11T21:52:12Z</time>
      </trkpt>
      <trkpt lat="-11.5210420" lon="-76.6712940">
        <ele>2445.6</ele>
        <time>2022-09-11T21:52:13Z</time>
      </trkpt>
      <trkpt lat="-11.5210330" lon="-76.6713420">
        <ele>2445.3</ele>
        <time>2022-09-11T21:52:14Z</time>
      </trkpt>
      <trkpt lat="-11.5209980" lon="-76.6713980">
        <ele>2444.9</ele>
        <time>2022-09-11T21:52:15Z</time>
      </trkpt>
      <trkpt lat="-11.5209620" lon="-76.6714400">
        <ele>2444.6</ele>
        <time>2022-09-11T21:52:16Z</time>
      </trkpt>
      <trkpt lat="-11.5209260" lon="-76.6714760">
        <ele>2444.3</ele>
        <time>2022-09-11T21:52:17Z</time>
      </trkpt>
      <trkpt lat="-11.5208870" lon="-76.6715080">
        <ele>2443.9</ele>
        <time>2022-09-11T21:52:18Z</time>
      </trkpt>
      <trkpt lat="-11.5208470" lon="-76.6715360">
        <ele>2443.5</ele>
        <time>2022-09-11T21:52:19Z</time>
      </trkpt>
      <trkpt lat="-11.5208040" lon="-76.6715630">
        <ele>2443.2</ele>
        <time>2022-09-11T21:52:20Z</time>
      </trkpt>
      <trkpt lat="-11.5207690" lon="-76.6715910">
        <ele>2442.9</ele>
        <time>2022-09-11T21:52:21Z</time>
      </trkpt>
      <trkpt lat="-11.5207380" lon="-76.6716270">
        <ele>2442.6</ele>
        <time>2022-09-11T21:52:22Z</time>
      </trkpt>
      <trkpt lat="-11.5207120" lon="-76.6716660">
        <ele>2442.3</ele>
        <time>2022-09-11T21:52:23Z</time>
      </trkpt>
      <trkpt lat="-11.5206880" lon="-76.6717050">
        <ele>2442.1</ele>
        <time>2022-09-11T21:52:24Z</time>
      </trkpt>
      <trkpt lat="-11.5206720" lon="-76.6717340">
        <ele>2441.9</ele>
        <time>2022-09-11T21:52:25Z</time>
      </trkpt>
      <trkpt lat="-11.5206460" lon="-76.6717740">
        <ele>2441.6</ele>
        <time>2022-09-11T21:52:26Z</time>
      </trkpt>
      <trkpt lat="-11.5206130" lon="-76.6718190">
        <ele>2441.3</ele>
        <time>2022-09-11T21:52:27Z</time>
      </trkpt>
      <trkpt lat="-11.5205780" lon="-76.6718580">
        <ele>2440.9</ele>
        <time>2022-09-11T21:52:28Z</time>
      </trkpt>
      <trkpt lat="-11.5205340" lon="-76.6718920">
        <ele>2440.5</ele>
        <time>2022-09-11T21:52:29Z</time>
      </trkpt>
      <trkpt lat="-11.5204850" lon="-76.6719240">
        <ele>2440.0</ele>
        <time>2022-09-11T21:52:30Z</time>
      </trkpt>
      <trkpt lat="-11.5204310" lon="-76.6719560">
        <ele>2439.5</ele>
        <time>2022-09-11T21:52:31Z</time>
      </trkpt>
      <trkpt lat="-11.5203730" lon="-76.6719930">
        <ele>2438.9</ele>
        <time>2022-09-11T21:52:32Z</time>
      </trkpt>
      <trkpt lat="-11.5203150" lon="-76.6720310">
        <ele>2438.2</ele>
        <time>2022-09-11T21:52:33Z</time>
      </trkpt>
      <trkpt lat="-11.5202520" lon="-76.6720720">
        <ele>2437.6</ele>
        <time>2022-09-11T21:52:34Z</time>
      </trkpt>
      <trkpt lat="-11.5201810" lon="-76.6721120">
        <ele>2436.9</ele>
        <time>2022-09-11T21:52:35Z</time>
      </trkpt>
      <trkpt lat="-11.5201090" lon="-76.6721490">
        <ele>2436.2</ele>
        <time>2022-09-11T21:52:36Z</time>
      </trkpt>
      <trkpt lat="-11.5200350" lon="-76.6721860">
        <ele>2435.5</ele>
        <time>2022-09-11T21:52:37Z</time>
      </trkpt>
      <trkpt lat="-11.5199510" lon="-76.6722240">
        <ele>2434.7</ele>
        <time>2022-09-11T21:52:38Z</time>
      </trkpt>
      <trkpt lat="-11.5198610" lon="-76.6722610">
        <ele>2433.9</ele>
        <time>2022-09-11T21:52:39Z</time>
      </trkpt>
      <trkpt lat="-11.5197650" lon="-76.6722960">
        <ele>2433.1</ele>
        <time>2022-09-11T21:52:40Z</time>
      </trkpt>
      <trkpt lat="-11.5196650" lon="-76.6723310">
        <ele>2432.3</ele>
        <time>2022-09-11T21:52:41Z</time>
      </trkpt>
      <trkpt lat="-11.5195620" lon="-76.6723620">
        <ele>2431.4</ele>
        <time>2022-09-11T21:52:42Z</time>
      </trkpt>
      <trkpt lat="-11.5194560" lon="-76.6723900">
        <ele>2430.5</ele>
        <time>2022-09-11T21:52:43Z</time>
      </trkpt>
      <trkpt lat="-11.5193420" lon="-76.6724120">
        <ele>2429.6</ele>
        <time>2022-09-11T21:52:44Z</time>
      </trkpt>
      <trkpt lat="-11.5192230" lon="-76.6724260">
        <ele>2428.6</ele>
        <time>2022-09-11T21:52:45Z</time>
      </trkpt>
      <trkpt lat="-11.5191000" lon="-76.6724310">
        <ele>2427.8</ele>
        <time>2022-09-11T21:52:46Z</time>
      </trkpt>
      <trkpt lat="-11.5189780" lon="-76.6724490">
        <ele>2426.9</ele>
        <time>2022-09-11T21:52:47Z</time>
      </trkpt>
      <trkpt lat="-11.5188550" lon="-76.6724750">
        <ele>2425.9</ele>
        <time>2022-09-11T21:52:48Z</time>
      </trkpt>
      <trkpt lat="-11.5187340" lon="-76.6725090">
        <ele>2425.2</ele>
        <time>2022-09-11T21:52:49Z</time>
      </trkpt>
      <trkpt lat="-11.5186120" lon="-76.6725460">
        <ele>2424.4</ele>
        <time>2022-09-11T21:52:50Z</time>
      </trkpt>
      <trkpt lat="-11.5184890" lon="-76.6725860">
        <ele>2423.3</ele>
        <time>2022-09-11T21:52:51Z</time>
      </trkpt>
      <trkpt lat="-11.5183650" lon="-76.6726200">
        <ele>2422.4</ele>
        <time>2022-09-11T21:52:52Z</time>
      </trkpt>
      <trkpt lat="-11.5182400" lon="-76.6726510">
        <ele>2421.7</ele>
        <time>2022-09-11T21:52:53Z</time>
      </trkpt>
      <trkpt lat="-11.5181160" lon="-76.6726800">
        <ele>2420.9</ele>
        <time>2022-09-11T21:52:54Z</time>
      </trkpt>
      <trkpt lat="-11.5179930" lon="-76.6727060">
        <ele>2419.9</ele>
        <time>2022-09-11T21:52:55Z</time>
      </trkpt>
      <trkpt lat="-11.5178780" lon="-76.6727240">
        <ele>2419.0</ele>
        <time>2022-09-11T21:52:56Z</time>
      </trkpt>
      <trkpt lat="-11.5177660" lon="-76.6727370">
        <ele>2418.2</ele>
        <time>2022-09-11T21:52:57Z</time>
      </trkpt>
      <trkpt lat="-11.5176530" lon="-76.6727470">
        <ele>2417.3</ele>
        <time>2022-09-11T21:52:58Z</time>
      </trkpt>
      <trkpt lat="-11.5175470" lon="-76.6727500">
        <ele>2416.5</ele>
        <time>2022-09-11T21:52:59Z</time>
      </trkpt>
      <trkpt lat="-11.5174450" lon="-76.6727410">
        <ele>2415.6</ele>
        <time>2022-09-11T21:53:00Z</time>
      </trkpt>
      <trkpt lat="-11.5173380" lon="-76.6727190">
        <ele>2414.8</ele>
        <time>2022-09-11T21:53:01Z</time>
      </trkpt>
      <trkpt lat="-11.5172330" lon="-76.6726850">
        <ele>2413.7</ele>
        <time>2022-09-11T21:53:02Z</time>
      </trkpt>
      <trkpt lat="-11.5171290" lon="-76.6726450">
        <ele>2412.8</ele>
        <time>2022-09-11T21:53:03Z</time>
      </trkpt>
      <trkpt lat="-11.5170200" lon="-76.6726000">
        <ele>2411.8</ele>
        <time>2022-09-11T21:53:04Z</time>
      </trkpt>
      <trkpt lat="-11.5169050" lon="-76.6725540">
        <ele>2410.8</ele>
        <time>2022-09-11T21:53:05Z</time>
      </trkpt>
      <trkpt lat="-11.5167840" lon="-76.6725190">
        <ele>2409.8</ele>
        <time>2022-09-11T21:53:06Z</time>
      </trkpt>
      <trkpt lat="-11.5166580" lon="-76.6724900">
        <ele>2408.8</ele>
        <time>2022-09-11T21:53:07Z</time>
      </trkpt>
      <trkpt lat="-11.5165300" lon="-76.6724660">
        <ele>2408.1</ele>
        <time>2022-09-11T21:53:08Z</time>
      </trkpt>
      <trkpt lat="-11.5164050" lon="-76.6724470">
        <ele>2407.1</ele>
        <time>2022-09-11T21:53:09Z</time>
      </trkpt>
      <trkpt lat="-11.5162840" lon="-76.6724270">
        <ele>2406.2</ele>
        <time>2022-09-11T21:53:10Z</time>
      </trkpt>
      <trkpt lat="-11.5161620" lon="-76.6723980">
        <ele>2405.2</ele>
        <time>2022-09-11T21:53:11Z</time>
      </trkpt>
      <trkpt lat="-11.5160440" lon="-76.6723650">
        <ele>2404.3</ele>
        <time>2022-09-11T21:53:12Z</time>
      </trkpt>
      <trkpt lat="-11.5159340" lon="-76.6723330">
        <ele>2403.4</ele>
        <time>2022-09-11T21:53:13Z</time>
      </trkpt>
      <trkpt lat="-11.5158370" lon="-76.6723000">
        <ele>2402.6</ele>
        <time>2022-09-11T21:53:14Z</time>
      </trkpt>
      <trkpt lat="-11.5157520" lon="-76.6722640">
        <ele>2401.9</ele>
        <time>2022-09-11T21:53:15Z</time>
      </trkpt>
      <trkpt lat="-11.5156730" lon="-76.6722160">
        <ele>2401.2</ele>
        <time>2022-09-11T21:53:16Z</time>
      </trkpt>
      <trkpt lat="-11.5155950" lon="-76.6721590">
        <ele>2400.5</ele>
        <time>2022-09-11T21:53:17Z</time>
      </trkpt>
      <trkpt lat="-11.5155280" lon="-76.6721020">
        <ele>2399.8</ele>
        <time>2022-09-11T21:53:18Z</time>
      </trkpt>
      <trkpt lat="-11.5154730" lon="-76.6720570">
        <ele>2399.3</ele>
        <time>2022-09-11T21:53:19Z</time>
      </trkpt>
      <trkpt lat="-11.5154210" lon="-76.6720310">
        <ele>2398.8</ele>
        <time>2022-09-11T21:53:20Z</time>
      </trkpt>
      <trkpt lat="-11.5153740" lon="-76.6720310">
        <ele>2398.4</ele>
        <time>2022-09-11T21:53:21Z</time>
      </trkpt>
      <trkpt lat="-11.5153390" lon="-76.6720400">
        <ele>2398.2</ele>
        <time>2022-09-11T21:53:22Z</time>
      </trkpt>
      <trkpt lat="-11.5153190" lon="-76.6720700">
        <ele>2397.9</ele>
        <time>2022-09-11T21:53:23Z</time>
      </trkpt>
      <trkpt lat="-11.5153150" lon="-76.6720830">
        <ele>2397.8</ele>
        <time>2022-09-11T21:53:24Z</time>
      </trkpt>
      <trkpt lat="-11.5153140" lon="-76.6721200">
        <ele>2397.5</ele>
        <time>2022-09-11T21:53:25Z</time>
      </trkpt>
      <trkpt lat="-11.5153290" lon="-76.6721610">
        <ele>2397.2</ele>
        <time>2022-09-11T21:53:26Z</time>
      </trkpt>
      <trkpt lat="-11.5153410" lon="-76.6722020">
        <ele>2396.9</ele>
        <time>2022-09-11T21:53:27Z</time>
      </trkpt>
      <trkpt lat="-11.5153740" lon="-76.6722460">
        <ele>2396.4</ele>
        <time>2022-09-11T21:53:28Z</time>
      </trkpt>
      <trkpt lat="-11.5154170" lon="-76.6722910">
        <ele>2396.0</ele>
        <time>2022-09-11T21:53:29Z</time>
      </trkpt>
      <trkpt lat="-11.5154650" lon="-76.6723380">
        <ele>2395.5</ele>
        <time>2022-09-11T21:53:30Z</time>
      </trkpt>
      <trkpt lat="-11.5155160" lon="-76.6723850">
        <ele>2394.9</ele>
        <time>2022-09-11T21:53:31Z</time>
      </trkpt>
      <trkpt lat="-11.5155680" lon="-76.6724320">
        <ele>2394.4</ele>
        <time>2022-09-11T21:53:32Z</time>
      </trkpt>
      <trkpt lat="-11.5156180" lon="-76.6724780">
        <ele>2393.9</ele>
        <time>2022-09-11T21:53:33Z</time>
      </trkpt>
      <trkpt lat="-11.5156700" lon="-76.6725230">
        <ele>2393.3</ele>
        <time>2022-09-11T21:53:34Z</time>
      </trkpt>
      <trkpt lat="-11.5157230" lon="-76.6725670">
        <ele>2392.8</ele>
        <time>2022-09-11T21:53:35Z</time>
      </trkpt>
      <trkpt lat="-11.5157770" lon="-76.6726130">
        <ele>2392.3</ele>
        <time>2022-09-11T21:53:36Z</time>
      </trkpt>
      <trkpt lat="-11.5158340" lon="-76.6726580">
        <ele>2391.7</ele>
        <time>2022-09-11T21:53:37Z</time>
      </trkpt>
      <trkpt lat="-11.5158930" lon="-76.6727040">
        <ele>2391.2</ele>
        <time>2022-09-11T21:53:38Z</time>
      </trkpt>
      <trkpt lat="-11.5159540" lon="-76.6727500">
        <ele>2390.6</ele>
        <time>2022-09-11T21:53:39Z</time>
      </trkpt>
      <trkpt lat="-11.5160740" lon="-76.6728150">
        <ele>2389.5</ele>
        <time>2022-09-11T21:53:40Z</time>
      </trkpt>
      <trkpt lat="-11.5161610" lon="-76.6728710">
        <ele>2388.7</ele>
        <time>2022-09-11T21:53:41Z</time>
      </trkpt>
      <trkpt lat="-11.5162340" lon="-76.6729210">
        <ele>2388.0</ele>
        <time>2022-09-11T21:53:42Z</time>
      </trkpt>
      <trkpt lat="-11.5163060" lon="-76.6729660">
        <ele>2387.4</ele>
        <time>2022-09-11T21:53:43Z</time>
      </trkpt>
      <trkpt lat="-11.5163820" lon="-76.6730020">
        <ele>2386.8</ele>
        <time>2022-09-11T21:53:44Z</time>
      </trkpt>
      <trkpt lat="-11.5164270" lon="-76.6730110">
        <ele>2386.4</ele>
        <time>2022-09-11T21:53:45Z</time>
      </trkpt>
      <trkpt lat="-11.5164840" lon="-76.6730160">
        <ele>2386.0</ele>
        <time>2022-09-11T21:53:46Z</time>
      </trkpt>
      <trkpt lat="-11.5165560" lon="-76.6730160">
        <ele>2385.4</ele>
        <time>2022-09-11T21:53:47Z</time>
      </trkpt>
      <trkpt lat="-11.5166330" lon="-76.6730140">
        <ele>2384.8</ele>
        <time>2022-09-11T21:53:48Z</time>
      </trkpt>
      <trkpt lat="-11.5167070" lon="-76.6730190">
        <ele>2384.2</ele>
        <time>2022-09-11T21:53:49Z</time>
      </trkpt>
      <trkpt lat="-11.5167720" lon="-76.6730370">
        <ele>2383.7</ele>
        <time>2022-09-11T21:53:50Z</time>
      </trkpt>
      <trkpt lat="-11.5168250" lon="-76.6730690">
        <ele>2383.2</ele>
        <time>2022-09-11T21:53:51Z</time>
      </trkpt>
      <trkpt lat="-11.5168590" lon="-76.6731150">
        <ele>2382.8</ele>
        <time>2022-09-11T21:53:52Z</time>
      </trkpt>
      <trkpt lat="-11.5168960" lon="-76.6731700">
        <ele>2382.3</ele>
        <time>2022-09-11T21:53:53Z</time>
      </trkpt>
      <trkpt lat="-11.5168660" lon="-76.6732130">
        <ele>2381.9</ele>
        <time>2022-09-11T21:53:54Z</time>
      </trkpt>
      <trkpt lat="-11.5168220" lon="-76.6732450">
        <ele>2381.5</ele>
        <time>2022-09-11T21:53:55Z</time>
      </trkpt>
      <trkpt lat="-11.5167610" lon="-76.6732660">
        <ele>2381.0</ele>
        <time>2022-09-11T21:53:56Z</time>
      </trkpt>
      <trkpt lat="-11.5166860" lon="-76.6732800">
        <ele>2380.4</ele>
        <time>2022-09-11T21:53:57Z</time>
      </trkpt>
      <trkpt lat="-11.5166000" lon="-76.6732900">
        <ele>2379.7</ele>
        <time>2022-09-11T21:53:58Z</time>
      </trkpt>
      <trkpt lat="-11.5165060" lon="-76.6732980">
        <ele>2379.0</ele>
        <time>2022-09-11T21:53:59Z</time>
      </trkpt>
      <trkpt lat="-11.5164080" lon="-76.6733060">
        <ele>2378.3</ele>
        <time>2022-09-11T21:54:00Z</time>
      </trkpt>
      <trkpt lat="-11.5163100" lon="-76.6733100">
        <ele>2377.5</ele>
        <time>2022-09-11T21:54:01Z</time>
      </trkpt>
      <trkpt lat="-11.5162090" lon="-76.6733030">
        <ele>2376.7</ele>
        <time>2022-09-11T21:54:02Z</time>
      </trkpt>
      <trkpt lat="-11.5161050" lon="-76.6732820">
        <ele>2375.9</ele>
        <time>2022-09-11T21:54:03Z</time>
      </trkpt>
      <trkpt lat="-11.5160020" lon="-76.6732490">
        <ele>2375.1</ele>
        <time>2022-09-11T21:54:04Z</time>
      </trkpt>
      <trkpt lat="-11.5159060" lon="-76.6732100">
        <ele>2374.3</ele>
        <time>2022-09-11T21:54:05Z</time>
      </trkpt>
      <trkpt lat="-11.5158140" lon="-76.6731660">
        <ele>2373.5</ele>
        <time>2022-09-11T21:54:06Z</time>
      </trkpt>
      <trkpt lat="-11.5157190" lon="-76.6731220">
        <ele>2372.7</ele>
        <time>2022-09-11T21:54:07Z</time>
      </trkpt>
      <trkpt lat="-11.5156210" lon="-76.6730910">
        <ele>2371.9</ele>
        <time>2022-09-11T21:54:08Z</time>
      </trkpt>
      <trkpt lat="-11.5155230" lon="-76.6730780">
        <ele>2371.1</ele>
        <time>2022-09-11T21:54:09Z</time>
      </trkpt>
      <trkpt lat="-11.5154300" lon="-76.6730820">
        <ele>2370.4</ele>
        <time>2022-09-11T21:54:10Z</time>
      </trkpt>
      <trkpt lat="-11.5153440" lon="-76.6730900">
        <ele>2369.8</ele>
        <time>2022-09-11T21:54:11Z</time>
      </trkpt>
      <trkpt lat="-11.5152640" lon="-76.6730940">
        <ele>2369.1</ele>
        <time>2022-09-11T21:54:12Z</time>
      </trkpt>
      <trkpt lat="-11.5151920" lon="-76.6730830">
        <ele>2368.6</ele>
        <time>2022-09-11T21:54:13Z</time>
      </trkpt>
      <trkpt lat="-11.5151280" lon="-76.6730560">
        <ele>2368.0</ele>
        <time>2022-09-11T21:54:14Z</time>
      </trkpt>
      <trkpt lat="-11.5150740" lon="-76.6730170">
        <ele>2367.5</ele>
        <time>2022-09-11T21:54:15Z</time>
      </trkpt>
      <trkpt lat="-11.5150310" lon="-76.6729820">
        <ele>2367.1</ele>
        <time>2022-09-11T21:54:16Z</time>
      </trkpt>
      <trkpt lat="-11.5149970" lon="-76.6729650">
        <ele>2366.8</ele>
        <time>2022-09-11T21:54:17Z</time>
      </trkpt>
      <trkpt lat="-11.5149770" lon="-76.6729950">
        <ele>2366.5</ele>
        <time>2022-09-11T21:54:18Z</time>
      </trkpt>
      <trkpt lat="-11.5149720" lon="-76.6730180">
        <ele>2366.4</ele>
        <time>2022-09-11T21:54:19Z</time>
      </trkpt>
      <trkpt lat="-11.5149810" lon="-76.6730640">
        <ele>2366.0</ele>
        <time>2022-09-11T21:54:20Z</time>
      </trkpt>
      <trkpt lat="-11.5150000" lon="-76.6731450">
        <ele>2365.4</ele>
        <time>2022-09-11T21:54:21Z</time>
      </trkpt>
      <trkpt lat="-11.5150210" lon="-76.6732060">
        <ele>2364.9</ele>
        <time>2022-09-11T21:54:22Z</time>
      </trkpt>
      <trkpt lat="-11.5150430" lon="-76.6732470">
        <ele>2364.5</ele>
        <time>2022-09-11T21:54:23Z</time>
      </trkpt>
      <trkpt lat="-11.5150700" lon="-76.6732810">
        <ele>2364.2</ele>
        <time>2022-09-11T21:54:24Z</time>
      </trkpt>
      <trkpt lat="-11.5150580" lon="-76.6732820">
        <ele>2364.1</ele>
        <time>2022-09-11T21:54:25Z</time>
      </trkpt>
      <trkpt lat="-11.5150600" lon="-76.6732920">
        <ele>2364.0</ele>
        <time>2022-09-11T21:54:26Z</time>
      </trkpt>
      <trkpt lat="-11.5150690" lon="-76.6733020">
        <ele>2363.9</ele>
        <time>2022-09-11T21:54:27Z</time>
      </trkpt>
      <trkpt lat="-11.5150790" lon="-76.6733110">
        <ele>2363.8</ele>
        <time>2022-09-11T21:54:28Z</time>
      </trkpt>
      <trkpt lat="-11.5150800" lon="-76.6733190">
        <ele>2363.8</ele>
        <time>2022-09-11T21:54:29Z</time>
      </trkpt>
      <trkpt lat="-11.5150900" lon="-76.6733240">
        <ele>2363.7</ele>
        <time>2022-09-11T21:54:30Z</time>
      </trkpt>
      <trkpt lat="-11.5151030" lon="-76.6733280">
        <ele>2363.6</ele>
        <time>2022-09-11T21:54:31Z</time>
      </trkpt>
      <trkpt lat="-11.5151100" lon="-76.6733270">
        <ele>2363.5</ele>
        <time>2022-09-11T21:54:32Z</time>
      </trkpt>
      <trkpt lat="-11.5151120" lon="-76.6733270">
        <ele>2363.5</ele>
        <time>2022-09-11T21:54:33Z</time>
      </trkpt>
      <trkpt lat="-11.5151130" lon="-76.6733260">
        <ele>2363.5</ele>
        <time>2022-09-11T21:54:34Z</time>
      </trkpt>
      <trkpt lat="-11.5151180" lon="-76.6733210">
        <ele>2363.5</ele>
        <time>2022-09-11T21:54:35Z</time>
      </trkpt>
      <trkpt lat="-11.5151210" lon="-76.6733180">
        <ele>2363.4</ele>
        <time>2022-09-11T21:54:36Z</time>
      </trkpt>
      <trkpt lat="-11.5151210" lon="-76.6733190">
        <ele>2363.4</ele>
        <time>2022-09-11T21:54:37Z</time>
      </trkpt>
      <trkpt lat="-11.5151200" lon="-76.6733210">
        <ele>2363.4</ele>
        <time>2022-09-11T21:54:38Z</time>
      </trkpt>
      <trkpt lat="-11.5151190" lon="-76.6733210">
        <ele>2363.4</ele>
        <time>2022-09-11T21:54:39Z</time>
      </trkpt>
      <trkpt lat="-11.5151220" lon="-76.6733200">
        <ele>2363.4</ele>
        <time>2022-09-11T21:54:40Z</time>
      </trkpt>
      <trkpt lat="-11.5151330" lon="-76.6733170">
        <ele>2363.3</ele>
        <time>2022-09-11T21:54:41Z</time>
      </trkpt>
      <trkpt lat="-11.5151640" lon="-76.6733160">
        <ele>2363.0</ele>
        <time>2022-09-11T21:54:42Z</time>
      </trkpt>
      <trkpt lat="-11.5152060" lon="-76.6733310">
        <ele>2362.7</ele>
        <time>2022-09-11T21:54:43Z</time>
      </trkpt>
      <trkpt lat="-11.5152220" lon="-76.6733400">
        <ele>2362.6</ele>
        <time>2022-09-11T21:54:44Z</time>
      </trkpt>
      <trkpt lat="-11.5152500" lon="-76.6733580">
        <ele>2362.3</ele>
        <time>2022-09-11T21:54:45Z</time>
      </trkpt>
      <trkpt lat="-11.5153010" lon="-76.6733820">
        <ele>2361.9</ele>
        <time>2022-09-11T21:54:46Z</time>
      </trkpt>
      <trkpt lat="-11.5153500" lon="-76.6734020">
        <ele>2361.5</ele>
        <time>2022-09-11T21:54:47Z</time>
      </trkpt>
      <trkpt lat="-11.5153980" lon="-76.6734320">
        <ele>2361.0</ele>
        <time>2022-09-11T21:54:48Z</time>
      </trkpt>
      <trkpt lat="-11.5154500" lon="-76.6734650">
        <ele>2360.6</ele>
        <time>2022-09-11T21:54:49Z</time>
      </trkpt>
      <trkpt lat="-11.5155020" lon="-76.6735050">
        <ele>2360.1</ele>
        <time>2022-09-11T21:54:50Z</time>
      </trkpt>
      <trkpt lat="-11.5155540" lon="-76.6735520">
        <ele>2359.5</ele>
        <time>2022-09-11T21:54:51Z</time>
      </trkpt>
      <trkpt lat="-11.5156060" lon="-76.6736050">
        <ele>2359.0</ele>
        <time>2022-09-11T21:54:52Z</time>
      </trkpt>
      <trkpt lat="-11.5156600" lon="-76.6736560">
        <ele>2358.4</ele>
        <time>2022-09-11T21:54:53Z</time>
      </trkpt>
      <trkpt lat="-11.5157240" lon="-76.6736990">
        <ele>2357.8</ele>
        <time>2022-09-11T21:54:54Z</time>
      </trkpt>
      <trkpt lat="-11.5157890" lon="-76.6737320">
        <ele>2357.2</ele>
        <time>2022-09-11T21:54:55Z</time>
      </trkpt>
      <trkpt lat="-11.5158570" lon="-76.6737510">
        <ele>2356.7</ele>
        <time>2022-09-11T21:54:56Z</time>
      </trkpt>
      <trkpt lat="-11.5159230" lon="-76.6737610">
        <ele>2356.2</ele>
        <time>2022-09-11T21:54:57Z</time>
      </trkpt>
      <trkpt lat="-11.5159900" lon="-76.6737620">
        <ele>2355.7</ele>
        <time>2022-09-11T21:54:58Z</time>
      </trkpt>
      <trkpt lat="-11.5160470" lon="-76.6737760">
        <ele>2355.2</ele>
        <time>2022-09-11T21:54:59Z</time>
      </trkpt>
      <trkpt lat="-11.5161070" lon="-76.6737850">
        <ele>2354.7</ele>
        <time>2022-09-11T21:55:00Z</time>
      </trkpt>
      <trkpt lat="-11.5161750" lon="-76.6737870">
        <ele>2354.2</ele>
        <time>2022-09-11T21:55:01Z</time>
      </trkpt>
      <trkpt lat="-11.5162580" lon="-76.6737640">
        <ele>2353.6</ele>
        <time>2022-09-11T21:55:02Z</time>
      </trkpt>
      <trkpt lat="-11.5163570" lon="-76.6737270">
        <ele>2352.7</ele>
        <time>2022-09-11T21:55:03Z</time>
      </trkpt>
      <trkpt lat="-11.5164550" lon="-76.6736840">
        <ele>2351.9</ele>
        <time>2022-09-11T21:55:04Z</time>
      </trkpt>
      <trkpt lat="-11.5165040" lon="-76.6736890">
        <ele>2351.5</ele>
        <time>2022-09-11T21:55:05Z</time>
      </trkpt>
      <trkpt lat="-11.5165530" lon="-76.6737010">
        <ele>2351.2</ele>
        <time>2022-09-11T21:55:06Z</time>
      </trkpt>
      <trkpt lat="-11.5165880" lon="-76.6737300">
        <ele>2350.8</ele>
        <time>2022-09-11T21:55:07Z</time>
      </trkpt>
      <trkpt lat="-11.5165970" lon="-76.6737580">
        <ele>2350.6</ele>
        <time>2022-09-11T21:55:08Z</time>
      </trkpt>
      <trkpt lat="-11.5165780" lon="-76.6737930">
        <ele>2350.4</ele>
        <time>2022-09-11T21:55:09Z</time>
      </trkpt>
      <trkpt lat="-11.5165310" lon="-76.6738190">
        <ele>2350.8</ele>
        <time>2022-09-11T21:55:10Z</time>
      </trkpt>
      <trkpt lat="-11.5164420" lon="-76.6738320">
        <ele>2351.5</ele>
        <time>2022-09-11T21:55:11Z</time>
      </trkpt>
      <trkpt lat="-11.5163600" lon="-76.6738410">
        <ele>2352.2</ele>
        <time>2022-09-11T21:55:12Z</time>
      </trkpt>
      <trkpt lat="-11.5162810" lon="-76.6738570">
        <ele>2352.8</ele>
        <time>2022-09-11T21:55:13Z</time>
      </trkpt>
      <trkpt lat="-11.5162020" lon="-76.6738790">
        <ele>2351.5</ele>
        <time>2022-09-11T21:55:14Z</time>
      </trkpt>
      <trkpt lat="-11.5161210" lon="-76.6739000">
        <ele>2353.3</ele>
        <time>2022-09-11T21:55:15Z</time>
      </trkpt>
      <trkpt lat="-11.5160370" lon="-76.6739180">
        <ele>2352.0</ele>
        <time>2022-09-11T21:55:16Z</time>
      </trkpt>
      <trkpt lat="-11.5159590" lon="-76.6739340">
        <ele>2343.7</ele>
        <time>2022-09-11T21:55:17Z</time>
      </trkpt>
      <trkpt lat="-11.5158790" lon="-76.6739430">
        <ele>2343.0</ele>
        <time>2022-09-11T21:55:18Z</time>
      </trkpt>
      <trkpt lat="-11.5157930" lon="-76.6739500">
        <ele>2342.3</ele>
        <time>2022-09-11T21:55:19Z</time>
      </trkpt>
      <trkpt lat="-11.5157020" lon="-76.6739480">
        <ele>2341.6</ele>
        <time>2022-09-11T21:55:20Z</time>
      </trkpt>
      <trkpt lat="-11.5156090" lon="-76.6739310">
        <ele>2340.8</ele>
        <time>2022-09-11T21:55:21Z</time>
      </trkpt>
      <trkpt lat="-11.5155160" lon="-76.6739160">
        <ele>2340.1</ele>
        <time>2022-09-11T21:55:22Z</time>
      </trkpt>
      <trkpt lat="-11.5154200" lon="-76.6739040">
        <ele>2339.3</ele>
        <time>2022-09-11T21:55:23Z</time>
      </trkpt>
      <trkpt lat="-11.5153200" lon="-76.6738930">
        <ele>2338.5</ele>
        <time>2022-09-11T21:55:24Z</time>
      </trkpt>
      <trkpt lat="-11.5152230" lon="-76.6738830">
        <ele>2337.7</ele>
        <time>2022-09-11T21:55:25Z</time>
      </trkpt>
      <trkpt lat="-11.5151310" lon="-76.6738700">
        <ele>2336.9</ele>
        <time>2022-09-11T21:55:26Z</time>
      </trkpt>
      <trkpt lat="-11.5150420" lon="-76.6738520">
        <ele>2335.6</ele>
        <time>2022-09-11T21:55:27Z</time>
      </trkpt>
      <trkpt lat="-11.5149540" lon="-76.6738260">
        <ele>2335.0</ele>
        <time>2022-09-11T21:55:28Z</time>
      </trkpt>
      <trkpt lat="-11.5148700" lon="-76.6737910">
        <ele>2334.3</ele>
        <time>2022-09-11T21:55:29Z</time>
      </trkpt>
      <trkpt lat="-11.5147900" lon="-76.6737460">
        <ele>2333.5</ele>
        <time>2022-09-11T21:55:30Z</time>
      </trkpt>
      <trkpt lat="-11.5147130" lon="-76.6736860">
        <ele>2332.7</ele>
        <time>2022-09-11T21:55:31Z</time>
      </trkpt>
      <trkpt lat="-11.5146380" lon="-76.6736170">
        <ele>2331.9</ele>
        <time>2022-09-11T21:55:32Z</time>
      </trkpt>
      <trkpt lat="-11.5145650" lon="-76.6735400">
        <ele>2331.0</ele>
        <time>2022-09-11T21:55:33Z</time>
      </trkpt>
      <trkpt lat="-11.5144910" lon="-76.6734600">
        <ele>2330.2</ele>
        <time>2022-09-11T21:55:34Z</time>
      </trkpt>
      <trkpt lat="-11.5144160" lon="-76.6733820">
        <ele>2329.5</ele>
        <time>2022-09-11T21:55:35Z</time>
      </trkpt>
      <trkpt lat="-11.5143430" lon="-76.6733080">
        <ele>2328.7</ele>
        <time>2022-09-11T21:55:36Z</time>
      </trkpt>
      <trkpt lat="-11.5142770" lon="-76.6732300">
        <ele>2328.1</ele>
        <time>2022-09-11T21:55:37Z</time>
      </trkpt>
      <trkpt lat="-11.5142230" lon="-76.6731510">
        <ele>2327.4</ele>
        <time>2022-09-11T21:55:38Z</time>
      </trkpt>
      <trkpt lat="-11.5141740" lon="-76.6730700">
        <ele>2326.6</ele>
        <time>2022-09-11T21:55:39Z</time>
      </trkpt>
      <trkpt lat="-11.5141230" lon="-76.6729920">
        <ele>2325.7</ele>
        <time>2022-09-11T21:55:40Z</time>
      </trkpt>
      <trkpt lat="-11.5140640" lon="-76.6729160">
        <ele>2324.8</ele>
        <time>2022-09-11T21:55:41Z</time>
      </trkpt>
      <trkpt lat="-11.5139950" lon="-76.6728460">
        <ele>2324.0</ele>
        <time>2022-09-11T21:55:42Z</time>
      </trkpt>
      <trkpt lat="-11.5139150" lon="-76.6727870">
        <ele>2323.4</ele>
        <time>2022-09-11T21:55:43Z</time>
      </trkpt>
      <trkpt lat="-11.5138290" lon="-76.6727330">
        <ele>2322.8</ele>
        <time>2022-09-11T21:55:44Z</time>
      </trkpt>
      <trkpt lat="-11.5137430" lon="-76.6726800">
        <ele>2322.3</ele>
        <time>2022-09-11T21:55:45Z</time>
      </trkpt>
      <trkpt lat="-11.5136600" lon="-76.6726230">
        <ele>2321.6</ele>
        <time>2022-09-11T21:55:46Z</time>
      </trkpt>
      <trkpt lat="-11.5135820" lon="-76.6725630">
        <ele>2321.0</ele>
        <time>2022-09-11T21:55:47Z</time>
      </trkpt>
      <trkpt lat="-11.5135050" lon="-76.6725020">
        <ele>2320.4</ele>
        <time>2022-09-11T21:55:48Z</time>
      </trkpt>
      <trkpt lat="-11.5134310" lon="-76.6724380">
        <ele>2319.8</ele>
        <time>2022-09-11T21:55:49Z</time>
      </trkpt>
      <trkpt lat="-11.5133590" lon="-76.6723770">
        <ele>2319.2</ele>
        <time>2022-09-11T21:55:50Z</time>
      </trkpt>
      <trkpt lat="-11.5132870" lon="-76.6723190">
        <ele>2318.6</ele>
        <time>2022-09-11T21:55:51Z</time>
      </trkpt>
      <trkpt lat="-11.5132100" lon="-76.6722710">
        <ele>2317.9</ele>
        <time>2022-09-11T21:55:52Z</time>
      </trkpt>
      <trkpt lat="-11.5131320" lon="-76.6722250">
        <ele>2317.1</ele>
        <time>2022-09-11T21:55:53Z</time>
      </trkpt>
      <trkpt lat="-11.5130500" lon="-76.6721920">
        <ele>2316.4</ele>
        <time>2022-09-11T21:55:54Z</time>
      </trkpt>
      <trkpt lat="-11.5129650" lon="-76.6721690">
        <ele>2315.8</ele>
        <time>2022-09-11T21:55:55Z</time>
      </trkpt>
      <trkpt lat="-11.5128840" lon="-76.6721620">
        <ele>2315.1</ele>
        <time>2022-09-11T21:55:56Z</time>
      </trkpt>
      <trkpt lat="-11.5128110" lon="-76.6721640">
        <ele>2314.6</ele>
        <time>2022-09-11T21:55:57Z</time>
      </trkpt>
      <trkpt lat="-11.5127470" lon="-76.6721810">
        <ele>2314.1</ele>
        <time>2022-09-11T21:55:58Z</time>
      </trkpt>
      <trkpt lat="-11.5127050" lon="-76.6722130">
        <ele>2313.7</ele>
        <time>2022-09-11T21:55:59Z</time>
      </trkpt>
      <trkpt lat="-11.5126870" lon="-76.6722530">
        <ele>2313.3</ele>
        <time>2022-09-11T21:56:00Z</time>
      </trkpt>
      <trkpt lat="-11.5126900" lon="-76.6722950">
        <ele>2313.0</ele>
        <time>2022-09-11T21:56:01Z</time>
      </trkpt>
      <trkpt lat="-11.5127040" lon="-76.6723250">
        <ele>2312.7</ele>
        <time>2022-09-11T21:56:02Z</time>
      </trkpt>
      <trkpt lat="-11.5127240" lon="-76.6723470">
        <ele>2312.5</ele>
        <time>2022-09-11T21:56:03Z</time>
      </trkpt>
      <trkpt lat="-11.5127510" lon="-76.6723780">
        <ele>2312.2</ele>
        <time>2022-09-11T21:56:04Z</time>
      </trkpt>
      <trkpt lat="-11.5127750" lon="-76.6724030">
        <ele>2311.9</ele>
        <time>2022-09-11T21:56:05Z</time>
      </trkpt>
      <trkpt lat="-11.5128120" lon="-76.6724380">
        <ele>2311.5</ele>
        <time>2022-09-11T21:56:06Z</time>
      </trkpt>
      <trkpt lat="-11.5128430" lon="-76.6724760">
        <ele>2311.2</ele>
        <time>2022-09-11T21:56:07Z</time>
      </trkpt>
      <trkpt lat="-11.5128720" lon="-76.6725150">
        <ele>2310.9</ele>
        <time>2022-09-11T21:56:08Z</time>
      </trkpt>
      <trkpt lat="-11.5129010" lon="-76.6725580">
        <ele>2310.5</ele>
        <time>2022-09-11T21:56:09Z</time>
      </trkpt>
      <trkpt lat="-11.5129330" lon="-76.6726030">
        <ele>2310.1</ele>
        <time>2022-09-11T21:56:10Z</time>
      </trkpt>
      <trkpt lat="-11.5129690" lon="-76.6726480">
        <ele>2309.7</ele>
        <time>2022-09-11T21:56:11Z</time>
      </trkpt>
      <trkpt lat="-11.5130080" lon="-76.6726910">
        <ele>2309.4</ele>
        <time>2022-09-11T21:56:12Z</time>
      </trkpt>
      <trkpt lat="-11.5130480" lon="-76.6727370">
        <ele>2309.0</ele>
        <time>2022-09-11T21:56:13Z</time>
      </trkpt>
      <trkpt lat="-11.5130940" lon="-76.6727860">
        <ele>2308.6</ele>
        <time>2022-09-11T21:56:14Z</time>
      </trkpt>
      <trkpt lat="-11.5131460" lon="-76.6728350">
        <ele>2308.1</ele>
        <time>2022-09-11T21:56:15Z</time>
      </trkpt>
      <trkpt lat="-11.5132270" lon="-76.6729180">
        <ele>2307.0</ele>
        <time>2022-09-11T21:56:16Z</time>
      </trkpt>
      <trkpt lat="-11.5132970" lon="-76.6729830">
        <ele>2306.2</ele>
        <time>2022-09-11T21:56:17Z</time>
      </trkpt>
      <trkpt lat="-11.5133670" lon="-76.6730400">
        <ele>2305.5</ele>
        <time>2022-09-11T21:56:18Z</time>
      </trkpt>
      <trkpt lat="-11.5134350" lon="-76.6730960">
        <ele>2304.8</ele>
        <time>2022-09-11T21:56:19Z</time>
      </trkpt>
      <trkpt lat="-11.5135040" lon="-76.6731520">
        <ele>2304.1</ele>
        <time>2022-09-11T21:56:20Z</time>
      </trkpt>
      <trkpt lat="-11.5135730" lon="-76.6732060">
        <ele>2303.6</ele>
        <time>2022-09-11T21:56:21Z</time>
      </trkpt>
      <trkpt lat="-11.5136410" lon="-76.6732660">
        <ele>2303.1</ele>
        <time>2022-09-11T21:56:22Z</time>
      </trkpt>
      <trkpt lat="-11.5136990" lon="-76.6733280">
        <ele>2302.6</ele>
        <time>2022-09-11T21:56:23Z</time>
      </trkpt>
      <trkpt lat="-11.5137500" lon="-76.6733940">
        <ele>2302.1</ele>
        <time>2022-09-11T21:56:24Z</time>
      </trkpt>
      <trkpt lat="-11.5137930" lon="-76.6734690">
        <ele>2301.5</ele>
        <time>2022-09-11T21:56:25Z</time>
      </trkpt>
      <trkpt lat="-11.5138260" lon="-76.6735530">
        <ele>2300.8</ele>
        <time>2022-09-11T21:56:26Z</time>
      </trkpt>
      <trkpt lat="-11.5138470" lon="-76.6736330">
        <ele>2300.1</ele>
        <time>2022-09-11T21:56:27Z</time>
      </trkpt>
      <trkpt lat="-11.5138540" lon="-76.6737150">
        <ele>2299.3</ele>
        <time>2022-09-11T21:56:28Z</time>
      </trkpt>
      <trkpt lat="-11.5138520" lon="-76.6737960">
        <ele>2298.4</ele>
        <time>2022-09-11T21:56:29Z</time>
      </trkpt>
      <trkpt lat="-11.5138370" lon="-76.6738810">
        <ele>2297.4</ele>
        <time>2022-09-11T21:56:30Z</time>
      </trkpt>
      <trkpt lat="-11.5138180" lon="-76.6739680">
        <ele>2296.8</ele>
        <time>2022-09-11T21:56:31Z</time>
      </trkpt>
      <trkpt lat="-11.5138010" lon="-76.6740530">
        <ele>2296.3</ele>
        <time>2022-09-11T21:56:32Z</time>
      </trkpt>
      <trkpt lat="-11.5137940" lon="-76.6741360">
        <ele>2295.9</ele>
        <time>2022-09-11T21:56:33Z</time>
      </trkpt>
      <trkpt lat="-11.5137960" lon="-76.6742170">
        <ele>2295.5</ele>
        <time>2022-09-11T21:56:34Z</time>
      </trkpt>
      <trkpt lat="-11.5138140" lon="-76.6742910">
        <ele>2295.1</ele>
        <time>2022-09-11T21:56:35Z</time>
      </trkpt>
      <trkpt lat="-11.5138470" lon="-76.6743550">
        <ele>2294.6</ele>
        <time>2022-09-11T21:56:36Z</time>
      </trkpt>
      <trkpt lat="-11.5138970" lon="-76.6744030">
        <ele>2294.0</ele>
        <time>2022-09-11T21:56:37Z</time>
      </trkpt>
      <trkpt lat="-11.5139650" lon="-76.6744400">
        <ele>2293.2</ele>
        <time>2022-09-11T21:56:38Z</time>
      </trkpt>
      <trkpt lat="-11.5140380" lon="-76.6744670">
        <ele>2292.5</ele>
        <time>2022-09-11T21:56:39Z</time>
      </trkpt>
      <trkpt lat="-11.5141180" lon="-76.6744910">
        <ele>2291.9</ele>
        <time>2022-09-11T21:56:40Z</time>
      </trkpt>
      <trkpt lat="-11.5142030" lon="-76.6745110">
        <ele>2291.2</ele>
        <time>2022-09-11T21:56:41Z</time>
      </trkpt>
      <trkpt lat="-11.5142910" lon="-76.6745300">
        <ele>2290.4</ele>
        <time>2022-09-11T21:56:42Z</time>
      </trkpt>
      <trkpt lat="-11.5143800" lon="-76.6745490">
        <ele>2289.6</ele>
        <time>2022-09-11T21:56:43Z</time>
      </trkpt>
      <trkpt lat="-11.5144710" lon="-76.6745720">
        <ele>2288.8</ele>
        <time>2022-09-11T21:56:44Z</time>
      </trkpt>
      <trkpt lat="-11.5145640" lon="-76.6745990">
        <ele>2288.0</ele>
        <time>2022-09-11T21:56:45Z</time>
      </trkpt>
      <trkpt lat="-11.5146620" lon="-76.6746290">
        <ele>2287.3</ele>
        <time>2022-09-11T21:56:46Z</time>
      </trkpt>
      <trkpt lat="-11.5147580" lon="-76.6746630">
        <ele>2286.7</ele>
        <time>2022-09-11T21:56:47Z</time>
      </trkpt>
      <trkpt lat="-11.5148510" lon="-76.6747010">
        <ele>2286.0</ele>
        <time>2022-09-11T21:56:48Z</time>
      </trkpt>
      <trkpt lat="-11.5149410" lon="-76.6747410">
        <ele>2285.3</ele>
        <time>2022-09-11T21:56:49Z</time>
      </trkpt>
      <trkpt lat="-11.5150350" lon="-76.6747720">
        <ele>2284.5</ele>
        <time>2022-09-11T21:56:50Z</time>
      </trkpt>
      <trkpt lat="-11.5151310" lon="-76.6747920">
        <ele>2283.8</ele>
        <time>2022-09-11T21:56:51Z</time>
      </trkpt>
      <trkpt lat="-11.5152270" lon="-76.6748020">
        <ele>2283.1</ele>
        <time>2022-09-11T21:56:52Z</time>
      </trkpt>
      <trkpt lat="-11.5153250" lon="-76.6748060">
        <ele>2282.3</ele>
        <time>2022-09-11T21:56:53Z</time>
      </trkpt>
      <trkpt lat="-11.5154210" lon="-76.6748070">
        <ele>2281.6</ele>
        <time>2022-09-11T21:56:54Z</time>
      </trkpt>
      <trkpt lat="-11.5155180" lon="-76.6748030">
        <ele>2280.9</ele>
        <time>2022-09-11T21:56:55Z</time>
      </trkpt>
      <trkpt lat="-11.5156190" lon="-76.6747940">
        <ele>2280.1</ele>
        <time>2022-09-11T21:56:56Z</time>
      </trkpt>
      <trkpt lat="-11.5157150" lon="-76.6747950">
        <ele>2279.3</ele>
        <time>2022-09-11T21:56:57Z</time>
      </trkpt>
      <trkpt lat="-11.5158090" lon="-76.6748170">
        <ele>2278.4</ele>
        <time>2022-09-11T21:56:58Z</time>
      </trkpt>
      <trkpt lat="-11.5158980" lon="-76.6748600">
        <ele>2277.5</ele>
        <time>2022-09-11T21:56:59Z</time>
      </trkpt>
      <trkpt lat="-11.5159820" lon="-76.6749160">
        <ele>2276.6</ele>
        <time>2022-09-11T21:57:00Z</time>
      </trkpt>
      <trkpt lat="-11.5160510" lon="-76.6749850">
        <ele>2275.8</ele>
        <time>2022-09-11T21:57:01Z</time>
      </trkpt>
      <trkpt lat="-11.5161100" lon="-76.6750630">
        <ele>2275.1</ele>
        <time>2022-09-11T21:57:02Z</time>
      </trkpt>
      <trkpt lat="-11.5161560" lon="-76.6751400">
        <ele>2274.4</ele>
        <time>2022-09-11T21:57:03Z</time>
      </trkpt>
      <trkpt lat="-11.5161830" lon="-76.6752140">
        <ele>2273.8</ele>
        <time>2022-09-11T21:57:04Z</time>
      </trkpt>
      <trkpt lat="-11.5161940" lon="-76.6752830">
        <ele>2273.2</ele>
        <time>2022-09-11T21:57:05Z</time>
      </trkpt>
      <trkpt lat="-11.5161820" lon="-76.6753410">
        <ele>2272.8</ele>
        <time>2022-09-11T21:57:06Z</time>
      </trkpt>
      <trkpt lat="-11.5161430" lon="-76.6753780">
        <ele>2272.3</ele>
        <time>2022-09-11T21:57:07Z</time>
      </trkpt>
      <trkpt lat="-11.5161030" lon="-76.6753990">
        <ele>2271.9</ele>
        <time>2022-09-11T21:57:08Z</time>
      </trkpt>
      <trkpt lat="-11.5160670" lon="-76.6753990">
        <ele>2271.6</ele>
        <time>2022-09-11T21:57:09Z</time>
      </trkpt>
      <trkpt lat="-11.5160200" lon="-76.6753870">
        <ele>2271.1</ele>
        <time>2022-09-11T21:57:10Z</time>
      </trkpt>
      <trkpt lat="-11.5159800" lon="-76.6753520">
        <ele>2270.7</ele>
        <time>2022-09-11T21:57:11Z</time>
      </trkpt>
      <trkpt lat="-11.5159470" lon="-76.6753090">
        <ele>2270.3</ele>
        <time>2022-09-11T21:57:12Z</time>
      </trkpt>
      <trkpt lat="-11.5159120" lon="-76.6752560">
        <ele>2269.8</ele>
        <time>2022-09-11T21:57:13Z</time>
      </trkpt>
      <trkpt lat="-11.5158720" lon="-76.6751810">
        <ele>2269.1</ele>
        <time>2022-09-11T21:57:14Z</time>
      </trkpt>
      <trkpt lat="-11.5158150" lon="-76.6751320">
        <ele>2268.5</ele>
        <time>2022-09-11T21:57:15Z</time>
      </trkpt>
      <trkpt lat="-11.5157430" lon="-76.6751050">
        <ele>2267.8</ele>
        <time>2022-09-11T21:57:16Z</time>
      </trkpt>
      <trkpt lat="-11.5156610" lon="-76.6750950">
        <ele>2267.1</ele>
        <time>2022-09-11T21:57:17Z</time>
      </trkpt>
      <trkpt lat="-11.5155760" lon="-76.6750990">
        <ele>2266.4</ele>
        <time>2022-09-11T21:57:18Z</time>
      </trkpt>
      <trkpt lat="-11.5154910" lon="-76.6751100">
        <ele>2265.7</ele>
        <time>2022-09-11T21:57:19Z</time>
      </trkpt>
      <trkpt lat="-11.5154090" lon="-76.6751280">
        <ele>2265.0</ele>
        <time>2022-09-11T21:57:20Z</time>
      </trkpt>
      <trkpt lat="-11.5153250" lon="-76.6751450">
        <ele>2264.3</ele>
        <time>2022-09-11T21:57:21Z</time>
      </trkpt>
      <trkpt lat="-11.5152390" lon="-76.6751680">
        <ele>2263.5</ele>
        <time>2022-09-11T21:57:22Z</time>
      </trkpt>
      <trkpt lat="-11.5151510" lon="-76.6751930">
        <ele>2262.7</ele>
        <time>2022-09-11T21:57:23Z</time>
      </trkpt>
      <trkpt lat="-11.5150620" lon="-76.6752220">
        <ele>2262.0</ele>
        <time>2022-09-11T21:57:24Z</time>
      </trkpt>
      <trkpt lat="-11.5149710" lon="-76.6752510">
        <ele>2261.1</ele>
        <time>2022-09-11T21:57:25Z</time>
      </trkpt>
      <trkpt lat="-11.5148840" lon="-76.6752840">
        <ele>2260.4</ele>
        <time>2022-09-11T21:57:26Z</time>
      </trkpt>
      <trkpt lat="-11.5147960" lon="-76.6753480">
        <ele>2259.5</ele>
        <time>2022-09-11T21:57:27Z</time>
      </trkpt>
      <trkpt lat="-11.5147110" lon="-76.6754070">
        <ele>2258.6</ele>
        <time>2022-09-11T21:57:28Z</time>
      </trkpt>
      <trkpt lat="-11.5146280" lon="-76.6754650">
        <ele>2257.7</ele>
        <time>2022-09-11T21:57:29Z</time>
      </trkpt>
      <trkpt lat="-11.5145460" lon="-76.6755130">
        <ele>2256.9</ele>
        <time>2022-09-11T21:57:30Z</time>
      </trkpt>
      <trkpt lat="-11.5144610" lon="-76.6755390">
        <ele>2256.2</ele>
        <time>2022-09-11T21:57:31Z</time>
      </trkpt>
      <trkpt lat="-11.5143690" lon="-76.6755420">
        <ele>2255.4</ele>
        <time>2022-09-11T21:57:32Z</time>
      </trkpt>
      <trkpt lat="-11.5142800" lon="-76.6755160">
        <ele>2254.6</ele>
        <time>2022-09-11T21:57:33Z</time>
      </trkpt>
      <trkpt lat="-11.5141860" lon="-76.6754930">
        <ele>2253.8</ele>
        <time>2022-09-11T21:57:34Z</time>
      </trkpt>
      <trkpt lat="-11.5140900" lon="-76.6754650">
        <ele>2253.0</ele>
        <time>2022-09-11T21:57:35Z</time>
      </trkpt>
      <trkpt lat="-11.5139960" lon="-76.6754280">
        <ele>2252.1</ele>
        <time>2022-09-11T21:57:36Z</time>
      </trkpt>
      <trkpt lat="-11.5139030" lon="-76.6753820">
        <ele>2251.2</ele>
        <time>2022-09-11T21:57:37Z</time>
      </trkpt>
      <trkpt lat="-11.5138070" lon="-76.6753310">
        <ele>2250.3</ele>
        <time>2022-09-11T21:57:38Z</time>
      </trkpt>
      <trkpt lat="-11.5137120" lon="-76.6752850">
        <ele>2249.4</ele>
        <time>2022-09-11T21:57:39Z</time>
      </trkpt>
      <trkpt lat="-11.5136200" lon="-76.6752500">
        <ele>2248.6</ele>
        <time>2022-09-11T21:57:40Z</time>
      </trkpt>
      <trkpt lat="-11.5135310" lon="-76.6752250">
        <ele>2247.8</ele>
        <time>2022-09-11T21:57:41Z</time>
      </trkpt>
      <trkpt lat="-11.5134410" lon="-76.6752070">
        <ele>2247.0</ele>
        <time>2022-09-11T21:57:42Z</time>
      </trkpt>
      <trkpt lat="-11.5133610" lon="-76.6751950">
        <ele>2246.4</ele>
        <time>2022-09-11T21:57:43Z</time>
      </trkpt>
      <trkpt lat="-11.5132850" lon="-76.6751800">
        <ele>2245.7</ele>
        <time>2022-09-11T21:57:44Z</time>
      </trkpt>
      <trkpt lat="-11.5132150" lon="-76.6751450">
        <ele>2245.1</ele>
        <time>2022-09-11T21:57:45Z</time>
      </trkpt>
      <trkpt lat="-11.5131610" lon="-76.6750870">
        <ele>2244.4</ele>
        <time>2022-09-11T21:57:46Z</time>
      </trkpt>
      <trkpt lat="-11.5131200" lon="-76.6750140">
        <ele>2243.7</ele>
        <time>2022-09-11T21:57:47Z</time>
      </trkpt>
      <trkpt lat="-11.5130850" lon="-76.6749360">
        <ele>2243.0</ele>
        <time>2022-09-11T21:57:48Z</time>
      </trkpt>
      <trkpt lat="-11.5130410" lon="-76.6748560">
        <ele>2242.2</ele>
        <time>2022-09-11T21:57:49Z</time>
      </trkpt>
      <trkpt lat="-11.5129870" lon="-76.6747800">
        <ele>2241.4</ele>
        <time>2022-09-11T21:57:50Z</time>
      </trkpt>
      <trkpt lat="-11.5129210" lon="-76.6747110">
        <ele>2240.6</ele>
        <time>2022-09-11T21:57:51Z</time>
      </trkpt>
      <trkpt lat="-11.5128440" lon="-76.6746550">
        <ele>2239.8</ele>
        <time>2022-09-11T21:57:52Z</time>
      </trkpt>
      <trkpt lat="-11.5127550" lon="-76.6746090">
        <ele>2239.0</ele>
        <time>2022-09-11T21:57:53Z</time>
      </trkpt>
      <trkpt lat="-11.5126240" lon="-76.6745850">
        <ele>2237.9</ele>
        <time>2022-09-11T21:57:54Z</time>
      </trkpt>
      <trkpt lat="-11.5125070" lon="-76.6745530">
        <ele>2236.9</ele>
        <time>2022-09-11T21:57:55Z</time>
      </trkpt>
      <trkpt lat="-11.5123960" lon="-76.6745140">
        <ele>2235.9</ele>
        <time>2022-09-11T21:57:56Z</time>
      </trkpt>
      <trkpt lat="-11.5122980" lon="-76.6744670">
        <ele>2234.9</ele>
        <time>2022-09-11T21:57:57Z</time>
      </trkpt>
      <trkpt lat="-11.5122160" lon="-76.6744060">
        <ele>2234.1</ele>
        <time>2022-09-11T21:57:58Z</time>
      </trkpt>
      <trkpt lat="-11.5121520" lon="-76.6743290">
        <ele>2233.3</ele>
        <time>2022-09-11T21:57:59Z</time>
      </trkpt>
      <trkpt lat="-11.5120940" lon="-76.6742480">
        <ele>2232.4</ele>
        <time>2022-09-11T21:58:00Z</time>
      </trkpt>
      <trkpt lat="-11.5120280" lon="-76.6741690">
        <ele>2231.6</ele>
        <time>2022-09-11T21:58:01Z</time>
      </trkpt>
      <trkpt lat="-11.5119500" lon="-76.6740980">
        <ele>2230.7</ele>
        <time>2022-09-11T21:58:02Z</time>
      </trkpt>
      <trkpt lat="-11.5118660" lon="-76.6740340">
        <ele>2229.8</ele>
        <time>2022-09-11T21:58:03Z</time>
      </trkpt>
      <trkpt lat="-11.5117850" lon="-76.6739660">
        <ele>2228.9</ele>
        <time>2022-09-11T21:58:04Z</time>
      </trkpt>
      <trkpt lat="-11.5117100" lon="-76.6738920">
        <ele>2228.0</ele>
        <time>2022-09-11T21:58:05Z</time>
      </trkpt>
      <trkpt lat="-11.5116390" lon="-76.6738100">
        <ele>2227.1</ele>
        <time>2022-09-11T21:58:06Z</time>
      </trkpt>
      <trkpt lat="-11.5115720" lon="-76.6737230">
        <ele>2226.2</ele>
        <time>2022-09-11T21:58:07Z</time>
      </trkpt>
      <trkpt lat="-11.5115070" lon="-76.6736360">
        <ele>2225.3</ele>
        <time>2022-09-11T21:58:08Z</time>
      </trkpt>
      <trkpt lat="-11.5114450" lon="-76.6735500">
        <ele>2224.4</ele>
        <time>2022-09-11T21:58:09Z</time>
      </trkpt>
      <trkpt lat="-11.5113910" lon="-76.6734630">
        <ele>2223.6</ele>
        <time>2022-09-11T21:58:10Z</time>
      </trkpt>
      <trkpt lat="-11.5113510" lon="-76.6733700">
        <ele>2222.7</ele>
        <time>2022-09-11T21:58:11Z</time>
      </trkpt>
      <trkpt lat="-11.5113190" lon="-76.6732730">
        <ele>2221.9</ele>
        <time>2022-09-11T21:58:12Z</time>
      </trkpt>
      <trkpt lat="-11.5112910" lon="-76.6731800">
        <ele>2221.1</ele>
        <time>2022-09-11T21:58:13Z</time>
      </trkpt>
      <trkpt lat="-11.5112540" lon="-76.6730990">
        <ele>2220.3</ele>
        <time>2022-09-11T21:58:14Z</time>
      </trkpt>
      <trkpt lat="-11.5112020" lon="-76.6730290">
        <ele>2219.6</ele>
        <time>2022-09-11T21:58:15Z</time>
      </trkpt>
      <trkpt lat="-11.5111330" lon="-76.6729680">
        <ele>2218.8</ele>
        <time>2022-09-11T21:58:16Z</time>
      </trkpt>
      <trkpt lat="-11.5110520" lon="-76.6729160">
        <ele>2218.0</ele>
        <time>2022-09-11T21:58:17Z</time>
      </trkpt>
      <trkpt lat="-11.5109660" lon="-76.6728680">
        <ele>2217.2</ele>
        <time>2022-09-11T21:58:18Z</time>
      </trkpt>
      <trkpt lat="-11.5108860" lon="-76.6728110">
        <ele>2216.4</ele>
        <time>2022-09-11T21:58:19Z</time>
      </trkpt>
      <trkpt lat="-11.5108150" lon="-76.6727410">
        <ele>2215.5</ele>
        <time>2022-09-11T21:58:20Z</time>
      </trkpt>
      <trkpt lat="-11.5107530" lon="-76.6726590">
        <ele>2214.7</ele>
        <time>2022-09-11T21:58:21Z</time>
      </trkpt>
      <trkpt lat="-11.5106920" lon="-76.6725800">
        <ele>2213.8</ele>
        <time>2022-09-11T21:58:22Z</time>
      </trkpt>
      <trkpt lat="-11.5106310" lon="-76.6725100">
        <ele>2213.1</ele>
        <time>2022-09-11T21:58:23Z</time>
      </trkpt>
      <trkpt lat="-11.5105670" lon="-76.6724550">
        <ele>2212.4</ele>
        <time>2022-09-11T21:58:24Z</time>
      </trkpt>
      <trkpt lat="-11.5104920" lon="-76.6724120">
        <ele>2211.6</ele>
        <time>2022-09-11T21:58:25Z</time>
      </trkpt>
      <trkpt lat="-11.5104060" lon="-76.6723810">
        <ele>2210.9</ele>
        <time>2022-09-11T21:58:26Z</time>
      </trkpt>
      <trkpt lat="-11.5103100" lon="-76.6723590">
        <ele>2210.0</ele>
        <time>2022-09-11T21:58:27Z</time>
      </trkpt>
      <trkpt lat="-11.5102080" lon="-76.6723430">
        <ele>2209.2</ele>
        <time>2022-09-11T21:58:28Z</time>
      </trkpt>
      <trkpt lat="-11.5101040" lon="-76.6723290">
        <ele>2208.3</ele>
        <time>2022-09-11T21:58:29Z</time>
      </trkpt>
      <trkpt lat="-11.5100080" lon="-76.6723120">
        <ele>2207.4</ele>
        <time>2022-09-11T21:58:30Z</time>
      </trkpt>
      <trkpt lat="-11.5099260" lon="-76.6722960">
        <ele>2206.7</ele>
        <time>2022-09-11T21:58:31Z</time>
      </trkpt>
      <trkpt lat="-11.5098610" lon="-76.6722870">
        <ele>2206.2</ele>
        <time>2022-09-11T21:58:32Z</time>
      </trkpt>
      <trkpt lat="-11.5098130" lon="-76.6722900">
        <ele>2205.8</ele>
        <time>2022-09-11T21:58:33Z</time>
      </trkpt>
      <trkpt lat="-11.5097840" lon="-76.6723130">
        <ele>2205.5</ele>
        <time>2022-09-11T21:58:34Z</time>
      </trkpt>
      <trkpt lat="-11.5097720" lon="-76.6723470">
        <ele>2205.2</ele>
        <time>2022-09-11T21:58:35Z</time>
      </trkpt>
      <trkpt lat="-11.5097730" lon="-76.6723610">
        <ele>2205.1</ele>
        <time>2022-09-11T21:58:36Z</time>
      </trkpt>
      <trkpt lat="-11.5097930" lon="-76.6723980">
        <ele>2204.7</ele>
        <time>2022-09-11T21:58:37Z</time>
      </trkpt>
      <trkpt lat="-11.5098360" lon="-76.6724420">
        <ele>2204.6</ele>
        <time>2022-09-11T21:58:38Z</time>
      </trkpt>
      <trkpt lat="-11.5098890" lon="-76.6724690">
        <ele>2205.1</ele>
        <time>2022-09-11T21:58:39Z</time>
      </trkpt>
      <trkpt lat="-11.5099490" lon="-76.6724850">
        <ele>2205.6</ele>
        <time>2022-09-11T21:58:40Z</time>
      </trkpt>
      <trkpt lat="-11.5100130" lon="-76.6724930">
        <ele>2206.2</ele>
        <time>2022-09-11T21:58:41Z</time>
      </trkpt>
      <trkpt lat="-11.5100780" lon="-76.6724980">
        <ele>2206.8</ele>
        <time>2022-09-11T21:58:42Z</time>
      </trkpt>
      <trkpt lat="-11.5101750" lon="-76.6725010">
        <ele>2207.6</ele>
        <time>2022-09-11T21:58:43Z</time>
      </trkpt>
      <trkpt lat="-11.5102510" lon="-76.6725250">
        <ele>2208.3</ele>
        <time>2022-09-11T21:58:44Z</time>
      </trkpt>
      <trkpt lat="-11.5103110" lon="-76.6725690">
        <ele>2209.0</ele>
        <time>2022-09-11T21:58:45Z</time>
      </trkpt>
      <trkpt lat="-11.5103590" lon="-76.6726270">
        <ele>2208.5</ele>
        <time>2022-09-11T21:58:46Z</time>
      </trkpt>
      <trkpt lat="-11.5103950" lon="-76.6726930">
        <ele>2208.1</ele>
        <time>2022-09-11T21:58:47Z</time>
      </trkpt>
      <trkpt lat="-11.5104250" lon="-76.6727600">
        <ele>2198.7</ele>
        <time>2022-09-11T21:58:48Z</time>
      </trkpt>
      <trkpt lat="-11.5104390" lon="-76.6728280">
        <ele>2198.2</ele>
        <time>2022-09-11T21:58:49Z</time>
      </trkpt>
      <trkpt lat="-11.5104490" lon="-76.6728880">
        <ele>2197.7</ele>
        <time>2022-09-11T21:58:50Z</time>
      </trkpt>
      <trkpt lat="-11.5104610" lon="-76.6729460">
        <ele>2197.2</ele>
        <time>2022-09-11T21:58:51Z</time>
      </trkpt>
      <trkpt lat="-11.5104850" lon="-76.6730060">
        <ele>2196.6</ele>
        <time>2022-09-11T21:58:52Z</time>
      </trkpt>
      <trkpt lat="-11.5105250" lon="-76.6730630">
        <ele>2196.0</ele>
        <time>2022-09-11T21:58:53Z</time>
      </trkpt>
      <trkpt lat="-11.5105790" lon="-76.6731120">
        <ele>2195.4</ele>
        <time>2022-09-11T21:58:54Z</time>
      </trkpt>
      <trkpt lat="-11.5106340" lon="-76.6731610">
        <ele>2194.7</ele>
        <time>2022-09-11T21:58:55Z</time>
      </trkpt>
      <trkpt lat="-11.5106940" lon="-76.6732090">
        <ele>2194.1</ele>
        <time>2022-09-11T21:58:56Z</time>
      </trkpt>
      <trkpt lat="-11.5107580" lon="-76.6732570">
        <ele>2193.4</ele>
        <time>2022-09-11T21:58:57Z</time>
      </trkpt>
      <trkpt lat="-11.5108280" lon="-76.6733070">
        <ele>2192.6</ele>
        <time>2022-09-11T21:58:58Z</time>
      </trkpt>
      <trkpt lat="-11.5108950" lon="-76.6733650">
        <ele>2191.3</ele>
        <time>2022-09-11T21:58:59Z</time>
      </trkpt>
      <trkpt lat="-11.5109580" lon="-76.6734250">
        <ele>2190.5</ele>
        <time>2022-09-11T21:59:00Z</time>
      </trkpt>
      <trkpt lat="-11.5110050" lon="-76.6734960">
        <ele>2189.8</ele>
        <time>2022-09-11T21:59:01Z</time>
      </trkpt>
      <trkpt lat="-11.5110460" lon="-76.6735840">
        <ele>2188.9</ele>
        <time>2022-09-11T21:59:02Z</time>
      </trkpt>
      <trkpt lat="-11.5110850" lon="-76.6736720">
        <ele>2188.1</ele>
        <time>2022-09-11T21:59:03Z</time>
      </trkpt>
      <trkpt lat="-11.5111120" lon="-76.6737700">
        <ele>2187.3</ele>
        <time>2022-09-11T21:59:04Z</time>
      </trkpt>
      <trkpt lat="-11.5111220" lon="-76.6738760">
        <ele>2186.3</ele>
        <time>2022-09-11T21:59:05Z</time>
      </trkpt>
      <trkpt lat="-11.5111330" lon="-76.6739790">
        <ele>2185.5</ele>
        <time>2022-09-11T21:59:06Z</time>
      </trkpt>
      <trkpt lat="-11.5111530" lon="-76.6740670">
        <ele>2184.7</ele>
        <time>2022-09-11T21:59:07Z</time>
      </trkpt>
      <trkpt lat="-11.5111810" lon="-76.6741620">
        <ele>2183.9</ele>
        <time>2022-09-11T21:59:08Z</time>
      </trkpt>
      <trkpt lat="-11.5112260" lon="-76.6742550">
        <ele>2183.0</ele>
        <time>2022-09-11T21:59:09Z</time>
      </trkpt>
      <trkpt lat="-11.5112870" lon="-76.6743420">
        <ele>2182.1</ele>
        <time>2022-09-11T21:59:10Z</time>
      </trkpt>
      <trkpt lat="-11.5113500" lon="-76.6744270">
        <ele>2181.2</ele>
        <time>2022-09-11T21:59:11Z</time>
      </trkpt>
      <trkpt lat="-11.5114180" lon="-76.6745150">
        <ele>2180.2</ele>
        <time>2022-09-11T21:59:12Z</time>
      </trkpt>
      <trkpt lat="-11.5115150" lon="-76.6746010">
        <ele>2179.1</ele>
        <time>2022-09-11T21:59:13Z</time>
      </trkpt>
      <trkpt lat="-11.5115910" lon="-76.6746930">
        <ele>2178.1</ele>
        <time>2022-09-11T21:59:14Z</time>
      </trkpt>
      <trkpt lat="-11.5116570" lon="-76.6747880">
        <ele>2177.1</ele>
        <time>2022-09-11T21:59:15Z</time>
      </trkpt>
      <trkpt lat="-11.5117610" lon="-76.6749810">
        <ele>2175.2</ele>
        <time>2022-09-11T21:59:17Z</time>
      </trkpt>
      <trkpt lat="-11.5117930" lon="-76.6750780">
        <ele>2174.3</ele>
        <time>2022-09-11T21:59:18Z</time>
      </trkpt>
      <trkpt lat="-11.5118110" lon="-76.6751790">
        <ele>2173.4</ele>
        <time>2022-09-11T21:59:19Z</time>
      </trkpt>
      <trkpt lat="-11.5118080" lon="-76.6752820">
        <ele>2172.6</ele>
        <time>2022-09-11T21:59:20Z</time>
      </trkpt>
      <trkpt lat="-11.5118080" lon="-76.6753780">
        <ele>2171.8</ele>
        <time>2022-09-11T21:59:21Z</time>
      </trkpt>
      <trkpt lat="-11.5118190" lon="-76.6754690">
        <ele>2171.0</ele>
        <time>2022-09-11T21:59:22Z</time>
      </trkpt>
      <trkpt lat="-11.5118350" lon="-76.6755440">
        <ele>2170.3</ele>
        <time>2022-09-11T21:59:23Z</time>
      </trkpt>
      <trkpt lat="-11.5118550" lon="-76.6755950">
        <ele>2169.8</ele>
        <time>2022-09-11T21:59:24Z</time>
      </trkpt>
      <trkpt lat="-11.5118710" lon="-76.6756250">
        <ele>2169.6</ele>
        <time>2022-09-11T21:59:25Z</time>
      </trkpt>
      <trkpt lat="-11.5118780" lon="-76.6756460">
        <ele>2169.4</ele>
        <time>2022-09-11T21:59:26Z</time>
      </trkpt>
      <trkpt lat="-11.5118790" lon="-76.6756540">
        <ele>2169.3</ele>
        <time>2022-09-11T21:59:27Z</time>
      </trkpt>
      <trkpt lat="-11.5118860" lon="-76.6756650">
        <ele>2169.2</ele>
        <time>2022-09-11T21:59:28Z</time>
      </trkpt>
      <trkpt lat="-11.5118890" lon="-76.6756690">
        <ele>2169.1</ele>
        <time>2022-09-11T21:59:29Z</time>
      </trkpt>
      <trkpt lat="-11.5118930" lon="-76.6756720">
        <ele>2169.1</ele>
        <time>2022-09-11T21:59:30Z</time>
      </trkpt>
      <trkpt lat="-11.5118970" lon="-76.6756750">
        <ele>2169.1</ele>
        <time>2022-09-11T21:59:31Z</time>
      </trkpt>
      <trkpt lat="-11.5119000" lon="-76.6756790">
        <ele>2169.0</ele>
        <time>2022-09-11T21:59:32Z</time>
      </trkpt>
      <trkpt lat="-11.5119040" lon="-76.6756820">
        <ele>2169.0</ele>
        <time>2022-09-11T21:59:33Z</time>
      </trkpt>
      <trkpt lat="-11.5119080" lon="-76.6756860">
        <ele>2168.9</ele>
        <time>2022-09-11T21:59:34Z</time>
      </trkpt>
      <trkpt lat="-11.5119110" lon="-76.6756890">
        <ele>2168.9</ele>
        <time>2022-09-11T21:59:35Z</time>
      </trkpt>
      <trkpt lat="-11.5119150" lon="-76.6756930">
        <ele>2168.8</ele>
        <time>2022-09-11T21:59:36Z</time>
      </trkpt>
      <trkpt lat="-11.5119180" lon="-76.6756960">
        <ele>2168.8</ele>
        <time>2022-09-11T21:59:37Z</time>
      </trkpt>
      <trkpt lat="-11.5119220" lon="-76.6756990">
        <ele>2168.8</ele>
        <time>2022-09-11T21:59:38Z</time>
      </trkpt>
      <trkpt lat="-11.5119260" lon="-76.6757030">
        <ele>2168.7</ele>
        <time>2022-09-11T21:59:40Z</time>
      </trkpt>
      <trkpt lat="-11.5119290" lon="-76.6757060">
        <ele>2168.7</ele>
        <time>2022-09-11T22:01:01Z</time>
      </trkpt>
      <trkpt lat="-11.5119330" lon="-76.6757100">
        <ele>2168.6</ele>
        <time>2022-09-11T22:01:02Z</time>
      </trkpt>
      <trkpt lat="-11.5119370" lon="-76.6757130">
        <ele>2168.6</ele>
        <time>2022-09-11T22:01:03Z</time>
      </trkpt>
      <trkpt lat="-11.5119660" lon="-76.6757390">
        <ele>2168.2</ele>
        <time>2022-09-11T22:01:04Z</time>
      </trkpt>
      <trkpt lat="-11.5119750" lon="-76.6757460">
        <ele>2168.1</ele>
        <time>2022-09-11T22:01:05Z</time>
      </trkpt>
      <trkpt lat="-11.5120020" lon="-76.6757690">
        <ele>2167.8</ele>
        <time>2022-09-11T22:01:06Z</time>
      </trkpt>
      <trkpt lat="-11.5120300" lon="-76.6757920">
        <ele>2167.5</ele>
        <time>2022-09-11T22:01:07Z</time>
      </trkpt>
      <trkpt lat="-11.5120620" lon="-76.6758230">
        <ele>2167.1</ele>
        <time>2022-09-11T22:01:08Z</time>
      </trkpt>
      <trkpt lat="-11.5120960" lon="-76.6758550">
        <ele>2166.7</ele>
        <time>2022-09-11T22:01:09Z</time>
      </trkpt>
      <trkpt lat="-11.5121270" lon="-76.6758730">
        <ele>2166.4</ele>
        <time>2022-09-11T22:01:10Z</time>
      </trkpt>
      <trkpt lat="-11.5121600" lon="-76.6758970">
        <ele>2166.1</ele>
        <time>2022-09-11T22:01:11Z</time>
      </trkpt>
      <trkpt lat="-11.5121600" lon="-76.6759310">
        <ele>2165.6</ele>
        <time>2022-09-11T22:01:13Z</time>
      </trkpt>
      <trkpt lat="-11.5121200" lon="-76.6759580">
        <ele>2162.1</ele>
        <time>2022-09-11T22:01:14Z</time>
      </trkpt>
      <trkpt lat="-11.5120640" lon="-76.6759720">
        <ele>2161.6</ele>
        <time>2022-09-11T22:01:15Z</time>
      </trkpt>
      <trkpt lat="-11.5120010" lon="-76.6759640">
        <ele>2161.1</ele>
        <time>2022-09-11T22:01:16Z</time>
      </trkpt>
      <trkpt lat="-11.5118860" lon="-76.6759190">
        <ele>2157.6</ele>
        <time>2022-09-11T22:01:17Z</time>
      </trkpt>
      <trkpt lat="-11.5118470" lon="-76.6758780">
        <ele>2157.1</ele>
        <time>2022-09-11T22:01:18Z</time>
      </trkpt>
      <trkpt lat="-11.5118060" lon="-76.6758310">
        <ele>2152.6</ele>
        <time>2022-09-11T22:01:19Z</time>
      </trkpt>
      <trkpt lat="-11.5117590" lon="-76.6757800">
        <ele>2158.1</ele>
        <time>2022-09-11T22:01:20Z</time>
      </trkpt>
      <trkpt lat="-11.5117080" lon="-76.6757220">
        <ele>2157.6</ele>
        <time>2022-09-11T22:01:21Z</time>
      </trkpt>
      <trkpt lat="-11.5116160" lon="-76.6756040">
        <ele>2156.3</ele>
        <time>2022-09-11T22:01:23Z</time>
      </trkpt>
      <trkpt lat="-11.5115130" lon="-76.6754970">
        <ele>2155.1</ele>
        <time>2022-09-11T22:01:24Z</time>
      </trkpt>
      <trkpt lat="-11.5114130" lon="-76.6753850">
        <ele>2153.9</ele>
        <time>2022-09-11T22:01:25Z</time>
      </trkpt>
      <trkpt lat="-11.5113250" lon="-76.6752790">
        <ele>2152.7</ele>
        <time>2022-09-11T22:01:26Z</time>
      </trkpt>
      <trkpt lat="-11.5112480" lon="-76.6751780">
        <ele>2151.7</ele>
        <time>2022-09-11T22:01:27Z</time>
      </trkpt>
      <trkpt lat="-11.5111800" lon="-76.6750840">
        <ele>2150.7</ele>
        <time>2022-09-11T22:01:28Z</time>
      </trkpt>
      <trkpt lat="-11.5111120" lon="-76.6749990">
        <ele>2149.8</ele>
        <time>2022-09-11T22:01:29Z</time>
      </trkpt>
      <trkpt lat="-11.5109810" lon="-76.6748440">
        <ele>2148.1</ele>
        <time>2022-09-11T22:01:31Z</time>
      </trkpt>
      <trkpt lat="-11.5109260" lon="-76.6747700">
        <ele>2147.4</ele>
        <time>2022-09-11T22:01:32Z</time>
      </trkpt>
      <trkpt lat="-11.5108910" lon="-76.6747010">
        <ele>2146.7</ele>
        <time>2022-09-11T22:01:33Z</time>
      </trkpt>
      <trkpt lat="-11.5108780" lon="-76.6746290">
        <ele>2146.1</ele>
        <time>2022-09-11T22:01:34Z</time>
      </trkpt>
      <trkpt lat="-11.5108770" lon="-76.6745520">
        <ele>2145.5</ele>
        <time>2022-09-11T22:01:35Z</time>
      </trkpt>
      <trkpt lat="-11.5108630" lon="-76.6744780">
        <ele>2144.9</ele>
        <time>2022-09-11T22:01:36Z</time>
      </trkpt>
      <trkpt lat="-11.5108300" lon="-76.6744130">
        <ele>2144.3</ele>
        <time>2022-09-11T22:01:37Z</time>
      </trkpt>
      <trkpt lat="-11.5107810" lon="-76.6743560">
        <ele>2143.7</ele>
        <time>2022-09-11T22:01:38Z</time>
      </trkpt>
      <trkpt lat="-11.5107300" lon="-76.6742990">
        <ele>2143.0</ele>
        <time>2022-09-11T22:01:39Z</time>
      </trkpt>
      <trkpt lat="-11.5106930" lon="-76.6742290">
        <ele>2142.4</ele>
        <time>2022-09-11T22:01:40Z</time>
      </trkpt>
      <trkpt lat="-11.5106690" lon="-76.6741530">
        <ele>2141.7</ele>
        <time>2022-09-11T22:01:41Z</time>
      </trkpt>
      <trkpt lat="-11.5106540" lon="-76.6740720">
        <ele>2141.0</ele>
        <time>2022-09-11T22:01:42Z</time>
      </trkpt>
      <trkpt lat="-11.5106340" lon="-76.6739910">
        <ele>2140.4</ele>
        <time>2022-09-11T22:01:43Z</time>
      </trkpt>
      <trkpt lat="-11.5106020" lon="-76.6739120">
        <ele>2139.7</ele>
        <time>2022-09-11T22:01:44Z</time>
      </trkpt>
      <trkpt lat="-11.5105600" lon="-76.6738400">
        <ele>2139.0</ele>
        <time>2022-09-11T22:01:45Z</time>
      </trkpt>
      <trkpt lat="-11.5105100" lon="-76.6737790">
        <ele>2138.3</ele>
        <time>2022-09-11T22:01:46Z</time>
      </trkpt>
      <trkpt lat="-11.5104560" lon="-76.6737320">
        <ele>2137.7</ele>
        <time>2022-09-11T22:01:47Z</time>
      </trkpt>
      <trkpt lat="-11.5103990" lon="-76.6737040">
        <ele>2137.2</ele>
        <time>2022-09-11T22:01:48Z</time>
      </trkpt>
      <trkpt lat="-11.5103390" lon="-76.6736860">
        <ele>2136.7</ele>
        <time>2022-09-11T22:01:49Z</time>
      </trkpt>
      <trkpt lat="-11.5102780" lon="-76.6736650">
        <ele>2136.1</ele>
        <time>2022-09-11T22:01:50Z</time>
      </trkpt>
      <trkpt lat="-11.5102170" lon="-76.6736350">
        <ele>2135.6</ele>
        <time>2022-09-11T22:01:51Z</time>
      </trkpt>
      <trkpt lat="-11.5101590" lon="-76.6735950">
        <ele>2135.0</ele>
        <time>2022-09-11T22:01:52Z</time>
      </trkpt>
      <trkpt lat="-11.5100970" lon="-76.6735550">
        <ele>2134.4</ele>
        <time>2022-09-11T22:01:53Z</time>
      </trkpt>
      <trkpt lat="-11.5100300" lon="-76.6735260">
        <ele>2133.8</ele>
        <time>2022-09-11T22:01:54Z</time>
      </trkpt>
      <trkpt lat="-11.5099550" lon="-76.6735110">
        <ele>2133.1</ele>
        <time>2022-09-11T22:01:55Z</time>
      </trkpt>
      <trkpt lat="-11.5098730" lon="-76.6735090">
        <ele>2132.4</ele>
        <time>2022-09-11T22:01:56Z</time>
      </trkpt>
      <trkpt lat="-11.5097870" lon="-76.6735060">
        <ele>2131.7</ele>
        <time>2022-09-11T22:01:57Z</time>
      </trkpt>
      <trkpt lat="-11.5097000" lon="-76.6734890">
        <ele>2131.0</ele>
        <time>2022-09-11T22:01:58Z</time>
      </trkpt>
      <trkpt lat="-11.5096130" lon="-76.6734610">
        <ele>2130.2</ele>
        <time>2022-09-11T22:01:59Z</time>
      </trkpt>
      <trkpt lat="-11.5095290" lon="-76.6734230">
        <ele>2129.4</ele>
        <time>2022-09-11T22:02:00Z</time>
      </trkpt>
      <trkpt lat="-11.5094490" lon="-76.6733680">
        <ele>2128.6</ele>
        <time>2022-09-11T22:02:01Z</time>
      </trkpt>
      <trkpt lat="-11.5093700" lon="-76.6733110">
        <ele>2127.8</ele>
        <time>2022-09-11T22:02:02Z</time>
      </trkpt>
      <trkpt lat="-11.5092900" lon="-76.6732550">
        <ele>2127.0</ele>
        <time>2022-09-11T22:02:03Z</time>
      </trkpt>
      <trkpt lat="-11.5092130" lon="-76.6731960">
        <ele>2126.2</ele>
        <time>2022-09-11T22:02:04Z</time>
      </trkpt>
      <trkpt lat="-11.5091390" lon="-76.6731320">
        <ele>2125.4</ele>
        <time>2022-09-11T22:02:05Z</time>
      </trkpt>
      <trkpt lat="-11.5090670" lon="-76.6730630">
        <ele>2124.6</ele>
        <time>2022-09-11T22:02:06Z</time>
      </trkpt>
      <trkpt lat="-11.5089950" lon="-76.6729930">
        <ele>2123.7</ele>
        <time>2022-09-11T22:02:07Z</time>
      </trkpt>
      <trkpt lat="-11.5089230" lon="-76.6729230">
        <ele>2122.9</ele>
        <time>2022-09-11T22:02:08Z</time>
      </trkpt>
      <trkpt lat="-11.5088480" lon="-76.6728550">
        <ele>2122.1</ele>
        <time>2022-09-11T22:02:09Z</time>
      </trkpt>
      <trkpt lat="-11.5087710" lon="-76.6727890">
        <ele>2121.2</ele>
        <time>2022-09-11T22:02:10Z</time>
      </trkpt>
      <trkpt lat="-11.5086940" lon="-76.6727270">
        <ele>2120.4</ele>
        <time>2022-09-11T22:02:11Z</time>
      </trkpt>
      <trkpt lat="-11.5086200" lon="-76.6726660">
        <ele>2119.6</ele>
        <time>2022-09-11T22:02:12Z</time>
      </trkpt>
      <trkpt lat="-11.5085560" lon="-76.6726060">
        <ele>2118.9</ele>
        <time>2022-09-11T22:02:13Z</time>
      </trkpt>
      <trkpt lat="-11.5084950" lon="-76.6725460">
        <ele>2118.2</ele>
        <time>2022-09-11T22:02:14Z</time>
      </trkpt>
      <trkpt lat="-11.5084440" lon="-76.6724750">
        <ele>2117.4</ele>
        <time>2022-09-11T22:02:15Z</time>
      </trkpt>
      <trkpt lat="-11.5084020" lon="-76.6723980">
        <ele>2116.7</ele>
        <time>2022-09-11T22:02:16Z</time>
      </trkpt>
      <trkpt lat="-11.5083670" lon="-76.6723380">
        <ele>2116.1</ele>
        <time>2022-09-11T22:02:17Z</time>
      </trkpt>
      <trkpt lat="-11.5083330" lon="-76.6722930">
        <ele>2115.7</ele>
        <time>2022-09-11T22:02:18Z</time>
      </trkpt>
      <trkpt lat="-11.5082940" lon="-76.6722580">
        <ele>2115.2</ele>
        <time>2022-09-11T22:02:19Z</time>
      </trkpt>
      <trkpt lat="-11.5082600" lon="-76.6722310">
        <ele>2114.9</ele>
        <time>2022-09-11T22:02:20Z</time>
      </trkpt>
      <trkpt lat="-11.5082320" lon="-76.6722230">
        <ele>2114.6</ele>
        <time>2022-09-11T22:02:21Z</time>
      </trkpt>
      <trkpt lat="-11.5082080" lon="-76.6722040">
        <ele>2114.4</ele>
        <time>2022-09-11T22:02:22Z</time>
      </trkpt>
      <trkpt lat="-11.5081920" lon="-76.6722030">
        <ele>2114.3</ele>
        <time>2022-09-11T22:02:23Z</time>
      </trkpt>
      <trkpt lat="-11.5081880" lon="-76.6722080">
        <ele>2114.2</ele>
        <time>2022-09-11T22:02:24Z</time>
      </trkpt>
      <trkpt lat="-11.5081870" lon="-76.6722130">
        <ele>2114.2</ele>
        <time>2022-09-11T22:02:25Z</time>
      </trkpt>
      <trkpt lat="-11.5081880" lon="-76.6722140">
        <ele>2114.1</ele>
        <time>2022-09-11T22:02:26Z</time>
      </trkpt>
      <trkpt lat="-11.5081860" lon="-76.6722150">
        <ele>2114.1</ele>
        <time>2022-09-11T22:02:27Z</time>
      </trkpt>
      <trkpt lat="-11.5081870" lon="-76.6722150">
        <ele>2114.1</ele>
        <time>2022-09-11T22:02:28Z</time>
      </trkpt>
      <trkpt lat="-11.5081890" lon="-76.6722180">
        <ele>2114.1</ele>
        <time>2022-09-11T22:02:29Z</time>
      </trkpt>
      <trkpt lat="-11.5081900" lon="-76.6722200">
        <ele>2114.1</ele>
        <time>2022-09-11T22:02:30Z</time>
      </trkpt>
      <trkpt lat="-11.5081880" lon="-76.6722240">
        <ele>2114.0</ele>
        <time>2022-09-11T22:02:31Z</time>
      </trkpt>
      <trkpt lat="-11.5081880" lon="-76.6722400">
        <ele>2113.9</ele>
        <time>2022-09-11T22:02:32Z</time>
      </trkpt>
      <trkpt lat="-11.5081880" lon="-76.6722530">
        <ele>2113.8</ele>
        <time>2022-09-11T22:02:33Z</time>
      </trkpt>
      <trkpt lat="-11.5081880" lon="-76.6722660">
        <ele>2113.7</ele>
        <time>2022-09-11T22:02:34Z</time>
      </trkpt>
      <trkpt lat="-11.5081890" lon="-76.6722790">
        <ele>2113.6</ele>
        <time>2022-09-11T22:02:35Z</time>
      </trkpt>
      <trkpt lat="-11.5081890" lon="-76.6722920">
        <ele>2113.6</ele>
        <time>2022-09-11T22:04:21Z</time>
      </trkpt>
      <trkpt lat="-11.5081890" lon="-76.6723050">
        <ele>2113.5</ele>
        <time>2022-09-11T22:04:22Z</time>
      </trkpt>
      <trkpt lat="-11.5081890" lon="-76.6723170">
        <ele>2113.4</ele>
        <time>2022-09-11T22:04:23Z</time>
      </trkpt>
      <trkpt lat="-11.5081930" lon="-76.6723260">
        <ele>2113.4</ele>
        <time>2022-09-11T22:04:24Z</time>
      </trkpt>
      <trkpt lat="-11.5081960" lon="-76.6723440">
        <ele>2113.3</ele>
        <time>2022-09-11T22:04:25Z</time>
      </trkpt>
      <trkpt lat="-11.5082130" lon="-76.6723520">
        <ele>2113.2</ele>
        <time>2022-09-11T22:04:26Z</time>
      </trkpt>
      <trkpt lat="-11.5082260" lon="-76.6723500">
        <ele>2113.1</ele>
        <time>2022-09-11T22:04:27Z</time>
      </trkpt>
      <trkpt lat="-11.5082390" lon="-76.6723490">
        <ele>2113.0</ele>
        <time>2022-09-11T22:04:28Z</time>
      </trkpt>
      <trkpt lat="-11.5082550" lon="-76.6723420">
        <ele>2112.9</ele>
        <time>2022-09-11T22:04:29Z</time>
      </trkpt>
      <trkpt lat="-11.5082660" lon="-76.6723310">
        <ele>2112.8</ele>
        <time>2022-09-11T22:04:30Z</time>
      </trkpt>
      <trkpt lat="-11.5082740" lon="-76.6723100">
        <ele>2112.7</ele>
        <time>2022-09-11T22:04:31Z</time>
      </trkpt>
      <trkpt lat="-11.5082740" lon="-76.6722990">
        <ele>2112.6</ele>
        <time>2022-09-11T22:04:32Z</time>
      </trkpt>
      <trkpt lat="-11.5082740" lon="-76.6722880">
        <ele>2112.6</ele>
        <time>2022-09-11T22:04:33Z</time>
      </trkpt>
      <trkpt lat="-11.5082670" lon="-76.6722780">
        <ele>2112.5</ele>
        <time>2022-09-11T22:04:34Z</time>
      </trkpt>
      <trkpt lat="-11.5082550" lon="-76.6722660">
        <ele>2112.4</ele>
        <time>2022-09-11T22:04:35Z</time>
      </trkpt>
      <trkpt lat="-11.5082340" lon="-76.6722480">
        <ele>2112.2</ele>
        <time>2022-09-11T22:04:36Z</time>
      </trkpt>
      <trkpt lat="-11.5082280" lon="-76.6722420">
        <ele>2112.2</ele>
        <time>2022-09-11T22:04:37Z</time>
      </trkpt>
      <trkpt lat="-11.5082150" lon="-76.6722340">
        <ele>2112.1</ele>
        <time>2022-09-11T22:04:38Z</time>
      </trkpt>
      <trkpt lat="-11.5082010" lon="-76.6722330">
        <ele>2112.0</ele>
        <time>2022-09-11T22:04:39Z</time>
      </trkpt>
      <trkpt lat="-11.5081900" lon="-76.6722400">
        <ele>2111.9</ele>
        <time>2022-09-11T22:04:41Z</time>
      </trkpt>
      <trkpt lat="-11.5081920" lon="-76.6722520">
        <ele>2111.9</ele>
        <time>2022-09-11T22:04:42Z</time>
      </trkpt>
      <trkpt lat="-11.5082000" lon="-76.6722690">
        <ele>2111.8</ele>
        <time>2022-09-11T22:04:44Z</time>
      </trkpt>
      <trkpt lat="-11.5082090" lon="-76.6722780">
        <ele>2111.7</ele>
        <time>2022-09-11T22:04:45Z</time>
      </trkpt>
      <trkpt lat="-11.5082270" lon="-76.6722980">
        <ele>2111.6</ele>
        <time>2022-09-11T22:04:47Z</time>
      </trkpt>
      <trkpt lat="-11.5082290" lon="-76.6723050">
        <ele>2111.5</ele>
        <time>2022-09-11T22:04:48Z</time>
      </trkpt>
      <trkpt lat="-11.5082280" lon="-76.6723070">
        <ele>2111.5</ele>
        <time>2022-09-11T22:04:49Z</time>
      </trkpt>
      <trkpt lat="-11.5082270" lon="-76.6723100">
        <ele>2111.5</ele>
        <time>2022-09-11T22:04:50Z</time>
      </trkpt>
      <trkpt lat="-11.5082260" lon="-76.6723120">
        <ele>2111.5</ele>
        <time>2022-09-11T22:04:51Z</time>
      </trkpt>
      <trkpt lat="-11.5082250" lon="-76.6723140">
        <ele>2111.5</ele>
        <time>2022-09-11T22:04:52Z</time>
      </trkpt>
      <trkpt lat="-11.5082240" lon="-76.6723170">
        <ele>2111.5</ele>
        <time>2022-09-11T22:04:53Z</time>
      </trkpt>
      <trkpt lat="-11.5082230" lon="-76.6723190">
        <ele>2111.4</ele>
        <time>2022-09-11T22:04:54Z</time>
      </trkpt>
      <trkpt lat="-11.5082220" lon="-76.6723210">
        <ele>2111.4</ele>
        <time>2022-09-11T22:04:55Z</time>
      </trkpt>
      <trkpt lat="-11.5082210" lon="-76.6723240">
        <ele>2111.4</ele>
        <time>2022-09-11T22:04:56Z</time>
      </trkpt>
      <trkpt lat="-11.5082200" lon="-76.6723260">
        <ele>2111.4</ele>
        <time>2022-09-11T22:04:57Z</time>
      </trkpt>
      <trkpt lat="-11.5082190" lon="-76.6723280">
        <ele>2111.4</ele>
        <time>2022-09-11T22:04:58Z</time>
      </trkpt>
      <trkpt lat="-11.5082180" lon="-76.6723310">
        <ele>2111.4</ele>
        <time>2022-09-11T22:04:59Z</time>
      </trkpt>
      <trkpt lat="-11.5082170" lon="-76.6723330">
        <ele>2111.4</ele>
        <time>2022-09-11T22:05:00Z</time>
      </trkpt>
      <trkpt lat="-11.5082160" lon="-76.6723350">
        <ele>2111.4</ele>
        <time>2022-09-11T22:05:01Z</time>
      </trkpt>
      <trkpt lat="-11.5082150" lon="-76.6723380">
        <ele>2111.3</ele>
        <time>2022-09-11T22:05:02Z</time>
      </trkpt>
      <trkpt lat="-11.5082140" lon="-76.6723400">
        <ele>2111.3</ele>
        <time>2022-09-11T22:05:03Z</time>
      </trkpt>
      <trkpt lat="-11.5082140" lon="-76.6723420">
        <ele>2111.3</ele>
        <time>2022-09-11T22:05:07Z</time>
      </trkpt>
      <trkpt lat="-11.5082130" lon="-76.6723450">
        <ele>2111.3</ele>
        <time>2022-09-11T22:05:08Z</time>
      </trkpt>
      <trkpt lat="-11.5082120" lon="-76.6723470">
        <ele>2111.3</ele>
        <time>2022-09-11T22:05:09Z</time>
      </trkpt>
      <trkpt lat="-11.5082110" lon="-76.6723490">
        <ele>2111.3</ele>
        <time>2022-09-11T22:05:10Z</time>
      </trkpt>
      <trkpt lat="-11.5082100" lon="-76.6723520">
        <ele>2111.3</ele>
        <time>2022-09-11T22:05:11Z</time>
      </trkpt>
      <trkpt lat="-11.5082090" lon="-76.6723540">
        <ele>2111.2</ele>
        <time>2022-09-11T22:05:12Z</time>
      </trkpt>
      <trkpt lat="-11.5082080" lon="-76.6723570">
        <ele>2111.2</ele>
        <time>2022-09-11T22:05:13Z</time>
      </trkpt>
      <trkpt lat="-11.5082070" lon="-76.6723590">
        <ele>2111.2</ele>
        <time>2022-09-11T22:05:14Z</time>
      </trkpt>
      <trkpt lat="-11.5082060" lon="-76.6723610">
        <ele>2111.2</ele>
        <time>2022-09-11T22:05:15Z</time>
      </trkpt>
      <trkpt lat="-11.5082050" lon="-76.6723640">
        <ele>2111.2</ele>
        <time>2022-09-11T22:05:16Z</time>
      </trkpt>
      <trkpt lat="-11.5082040" lon="-76.6723660">
        <ele>2111.2</ele>
        <time>2022-09-11T22:05:17Z</time>
      </trkpt>
      <trkpt lat="-11.5082030" lon="-76.6723680">
        <ele>2111.2</ele>
        <time>2022-09-11T22:05:18Z</time>
      </trkpt>
      <trkpt lat="-11.5082020" lon="-76.6723710">
        <ele>2111.1</ele>
        <time>2022-09-11T22:06:27Z</time>
      </trkpt>
      <trkpt lat="-11.5082010" lon="-76.6723730">
        <ele>2111.1</ele>
        <time>2022-09-11T22:06:28Z</time>
      </trkpt>
      <trkpt lat="-11.5082000" lon="-76.6723750">
        <ele>2111.1</ele>
        <time>2022-09-11T22:06:29Z</time>
      </trkpt>
      <trkpt lat="-11.5081990" lon="-76.6723780">
        <ele>2111.1</ele>
        <time>2022-09-11T22:06:30Z</time>
      </trkpt>
      <trkpt lat="-11.5081980" lon="-76.6723800">
        <ele>2111.1</ele>
        <time>2022-09-11T22:06:31Z</time>
      </trkpt>
      <trkpt lat="-11.5081970" lon="-76.6723820">
        <ele>2111.1</ele>
        <time>2022-09-11T22:06:32Z</time>
      </trkpt>
      <trkpt lat="-11.5081960" lon="-76.6723850">
        <ele>2111.1</ele>
        <time>2022-09-11T22:06:33Z</time>
      </trkpt>
      <trkpt lat="-11.5081950" lon="-76.6723870">
        <ele>2111.1</ele>
        <time>2022-09-11T22:06:34Z</time>
      </trkpt>
      <trkpt lat="-11.5081940" lon="-76.6723890">
        <ele>2111.0</ele>
        <time>2022-09-11T22:06:35Z</time>
      </trkpt>
      <trkpt lat="-11.5081930" lon="-76.6723920">
        <ele>2111.0</ele>
        <time>2022-09-11T22:06:36Z</time>
      </trkpt>
      <trkpt lat="-11.5081920" lon="-76.6723940">
        <ele>2111.0</ele>
        <time>2022-09-11T22:06:37Z</time>
      </trkpt>
      <trkpt lat="-11.5081910" lon="-76.6723970">
        <ele>2111.0</ele>
        <time>2022-09-11T22:06:38Z</time>
      </trkpt>
      <trkpt lat="-11.5081910" lon="-76.6724320">
        <ele>2110.8</ele>
        <time>2022-09-11T22:06:39Z</time>
      </trkpt>
      <trkpt lat="-11.5081930" lon="-76.6724430">
        <ele>2110.8</ele>
        <time>2022-09-11T22:06:40Z</time>
      </trkpt>
      <trkpt lat="-11.5081860" lon="-76.6724710">
        <ele>2110.6</ele>
        <time>2022-09-11T22:06:41Z</time>
      </trkpt>
      <trkpt lat="-11.5081830" lon="-76.6725000">
        <ele>2110.4</ele>
        <time>2022-09-11T22:06:42Z</time>
      </trkpt>
      <trkpt lat="-11.5082440" lon="-76.6725450">
        <ele>2110.0</ele>
        <time>2022-09-11T22:06:43Z</time>
      </trkpt>
      <trkpt lat="-11.5082780" lon="-76.6725770">
        <ele>2109.8</ele>
        <time>2022-09-11T22:06:44Z</time>
      </trkpt>
      <trkpt lat="-11.5082890" lon="-76.6726560">
        <ele>2109.4</ele>
        <time>2022-09-11T22:06:46Z</time>
      </trkpt>
      <trkpt lat="-11.5083180" lon="-76.6726490">
        <ele>2109.2</ele>
        <time>2022-09-11T22:06:47Z</time>
      </trkpt>
      <trkpt lat="-11.5083470" lon="-76.6726670">
        <ele>2109.0</ele>
        <time>2022-09-11T22:06:48Z</time>
      </trkpt>
      <trkpt lat="-11.5083550" lon="-76.6726680">
        <ele>2109.0</ele>
        <time>2022-09-11T22:06:49Z</time>
      </trkpt>
      <trkpt lat="-11.5083640" lon="-76.6726820">
        <ele>2108.9</ele>
        <time>2022-09-11T22:06:50Z</time>
      </trkpt>
      <trkpt lat="-11.5083660" lon="-76.6726960">
        <ele>2108.8</ele>
        <time>2022-09-11T22:06:51Z</time>
      </trkpt>
      <trkpt lat="-11.5083680" lon="-76.6727110">
        <ele>2108.8</ele>
        <time>2022-09-11T22:06:52Z</time>
      </trkpt>
      <trkpt lat="-11.5083470" lon="-76.6727680">
        <ele>2108.5</ele>
        <time>2022-09-11T22:06:53Z</time>
      </trkpt>
      <trkpt lat="-11.5084590" lon="-76.6729760">
        <ele>2107.3</ele>
        <time>2022-09-11T22:06:54Z</time>
      </trkpt>
      <trkpt lat="-11.5084730" lon="-76.6730010">
        <ele>2107.2</ele>
        <time>2022-09-11T22:06:55Z</time>
      </trkpt>
      <trkpt lat="-11.5085020" lon="-76.6730400">
        <ele>2106.9</ele>
        <time>2022-09-11T22:06:56Z</time>
      </trkpt>
      <trkpt lat="-11.5085220" lon="-76.6730720">
        <ele>2106.7</ele>
        <time>2022-09-11T22:06:57Z</time>
      </trkpt>
      <trkpt lat="-11.5084980" lon="-76.6731010">
        <ele>2106.5</ele>
        <time>2022-09-11T22:06:58Z</time>
      </trkpt>
      <trkpt lat="-11.5085460" lon="-76.6731310">
        <ele>2106.2</ele>
        <time>2022-09-11T22:06:59Z</time>
      </trkpt>
      <trkpt lat="-11.5086290" lon="-76.6731710">
        <ele>2105.7</ele>
        <time>2022-09-11T22:07:00Z</time>
      </trkpt>
      <trkpt lat="-11.5086970" lon="-76.6732050">
        <ele>2105.3</ele>
        <time>2022-09-11T22:07:01Z</time>
      </trkpt>
      <trkpt lat="-11.5087720" lon="-76.6732370">
        <ele>2104.9</ele>
        <time>2022-09-11T22:07:02Z</time>
      </trkpt>
      <trkpt lat="-11.5088350" lon="-76.6732640">
        <ele>2104.6</ele>
        <time>2022-09-11T22:07:03Z</time>
      </trkpt>
      <trkpt lat="-11.5088890" lon="-76.6732900">
        <ele>2104.3</ele>
        <time>2022-09-11T22:07:04Z</time>
      </trkpt>
      <trkpt lat="-11.5089380" lon="-76.6733150">
        <ele>2104.0</ele>
        <time>2022-09-11T22:07:05Z</time>
      </trkpt>
      <trkpt lat="-11.5089810" lon="-76.6733420">
        <ele>2103.7</ele>
        <time>2022-09-11T22:07:06Z</time>
      </trkpt>
      <trkpt lat="-11.5090250" lon="-76.6733570">
        <ele>2103.5</ele>
        <time>2022-09-11T22:07:07Z</time>
      </trkpt>
      <trkpt lat="-11.5090710" lon="-76.6733730">
        <ele>2103.2</ele>
        <time>2022-09-11T22:07:08Z</time>
      </trkpt>
      <trkpt lat="-11.5091160" lon="-76.6733900">
        <ele>2102.9</ele>
        <time>2022-09-11T22:07:09Z</time>
      </trkpt>
      <trkpt lat="-11.5091600" lon="-76.6734150">
        <ele>2102.7</ele>
        <time>2022-09-11T22:07:10Z</time>
      </trkpt>
      <trkpt lat="-11.5092000" lon="-76.6734460">
        <ele>2102.4</ele>
        <time>2022-09-11T22:07:11Z</time>
      </trkpt>
      <trkpt lat="-11.5092370" lon="-76.6734800">
        <ele>2102.1</ele>
        <time>2022-09-11T22:07:12Z</time>
      </trkpt>
      <trkpt lat="-11.5092760" lon="-76.6735200">
        <ele>2101.8</ele>
        <time>2022-09-11T22:07:13Z</time>
      </trkpt>
      <trkpt lat="-11.5093180" lon="-76.6735670">
        <ele>2101.5</ele>
        <time>2022-09-11T22:07:14Z</time>
      </trkpt>
      <trkpt lat="-11.5093670" lon="-76.6736180">
        <ele>2101.1</ele>
        <time>2022-09-11T22:07:15Z</time>
      </trkpt>
      <trkpt lat="-11.5094210" lon="-76.6736760">
        <ele>2100.7</ele>
        <time>2022-09-11T22:07:16Z</time>
      </trkpt>
      <trkpt lat="-11.5094820" lon="-76.6737380">
        <ele>2100.3</ele>
        <time>2022-09-11T22:07:17Z</time>
      </trkpt>
      <trkpt lat="-11.5095700" lon="-76.6738000">
        <ele>2099.7</ele>
        <time>2022-09-11T22:07:18Z</time>
      </trkpt>
      <trkpt lat="-11.5096760" lon="-76.6738600">
        <ele>2099.2</ele>
        <time>2022-09-11T22:07:19Z</time>
      </trkpt>
      <trkpt lat="-11.5097760" lon="-76.6739210">
        <ele>2098.6</ele>
        <time>2022-09-11T22:07:20Z</time>
      </trkpt>
      <trkpt lat="-11.5098610" lon="-76.6739870">
        <ele>2098.1</ele>
        <time>2022-09-11T22:07:21Z</time>
      </trkpt>
      <trkpt lat="-11.5099390" lon="-76.6740560">
        <ele>2097.6</ele>
        <time>2022-09-11T22:07:22Z</time>
      </trkpt>
      <trkpt lat="-11.5100140" lon="-76.6741230">
        <ele>2097.1</ele>
        <time>2022-09-11T22:07:23Z</time>
      </trkpt>
      <trkpt lat="-11.5100830" lon="-76.6741900">
        <ele>2096.7</ele>
        <time>2022-09-11T22:07:24Z</time>
      </trkpt>
      <trkpt lat="-11.5101430" lon="-76.6742550">
        <ele>2096.2</ele>
        <time>2022-09-11T22:07:25Z</time>
      </trkpt>
      <trkpt lat="-11.5101910" lon="-76.6743210">
        <ele>2095.8</ele>
        <time>2022-09-11T22:07:26Z</time>
      </trkpt>
      <trkpt lat="-11.5102200" lon="-76.6743890">
        <ele>2095.4</ele>
        <time>2022-09-11T22:07:27Z</time>
      </trkpt>
      <trkpt lat="-11.5102280" lon="-76.6744630">
        <ele>2095.1</ele>
        <time>2022-09-11T22:07:28Z</time>
      </trkpt>
      <trkpt lat="-11.5102170" lon="-76.6745440">
        <ele>2094.7</ele>
        <time>2022-09-11T22:07:29Z</time>
      </trkpt>
      <trkpt lat="-11.5101890" lon="-76.6746330">
        <ele>2094.2</ele>
        <time>2022-09-11T22:07:30Z</time>
      </trkpt>
      <trkpt lat="-11.5101470" lon="-76.6747270">
        <ele>2093.6</ele>
        <time>2022-09-11T22:07:31Z</time>
      </trkpt>
      <trkpt lat="-11.5100940" lon="-76.6748280">
        <ele>2093.0</ele>
        <time>2022-09-11T22:07:32Z</time>
      </trkpt>
      <trkpt lat="-11.5100380" lon="-76.6749340">
        <ele>2092.3</ele>
        <time>2022-09-11T22:07:33Z</time>
      </trkpt>
      <trkpt lat="-11.5099830" lon="-76.6750450">
        <ele>2091.6</ele>
        <time>2022-09-11T22:07:34Z</time>
      </trkpt>
      <trkpt lat="-11.5099310" lon="-76.6751630">
        <ele>2090.9</ele>
        <time>2022-09-11T22:07:35Z</time>
      </trkpt>
      <trkpt lat="-11.5098840" lon="-76.6752870">
        <ele>2090.2</ele>
        <time>2022-09-11T22:07:36Z</time>
      </trkpt>
      <trkpt lat="-11.5098520" lon="-76.6754160">
        <ele>2089.5</ele>
        <time>2022-09-11T22:07:37Z</time>
      </trkpt>
      <trkpt lat="-11.5098380" lon="-76.6755490">
        <ele>2088.7</ele>
        <time>2022-09-11T22:07:38Z</time>
      </trkpt>
      <trkpt lat="-11.5098450" lon="-76.6756840">
        <ele>2088.0</ele>
        <time>2022-09-11T22:07:39Z</time>
      </trkpt>
      <trkpt lat="-11.5098750" lon="-76.6758110">
        <ele>2087.3</ele>
        <time>2022-09-11T22:07:40Z</time>
      </trkpt>
      <trkpt lat="-11.5099370" lon="-76.6759310">
        <ele>2086.6</ele>
        <time>2022-09-11T22:07:41Z</time>
      </trkpt>
      <trkpt lat="-11.5100070" lon="-76.6760360">
        <ele>2085.9</ele>
        <time>2022-09-11T22:07:42Z</time>
      </trkpt>
      <trkpt lat="-11.5100780" lon="-76.6761250">
        <ele>2085.4</ele>
        <time>2022-09-11T22:07:43Z</time>
      </trkpt>
      <trkpt lat="-11.5101550" lon="-76.6762020">
        <ele>2085.0</ele>
        <time>2022-09-11T22:07:44Z</time>
      </trkpt>
      <trkpt lat="-11.5102350" lon="-76.6762670">
        <ele>2084.6</ele>
        <time>2022-09-11T22:07:45Z</time>
      </trkpt>
      <trkpt lat="-11.5103210" lon="-76.6763210">
        <ele>2084.3</ele>
        <time>2022-09-11T22:07:46Z</time>
      </trkpt>
      <trkpt lat="-11.5104050" lon="-76.6763650">
        <ele>2083.9</ele>
        <time>2022-09-11T22:07:47Z</time>
      </trkpt>
      <trkpt lat="-11.5104860" lon="-76.6764040">
        <ele>2083.6</ele>
        <time>2022-09-11T22:07:48Z</time>
      </trkpt>
      <trkpt lat="-11.5105630" lon="-76.6764370">
        <ele>2083.2</ele>
        <time>2022-09-11T22:07:49Z</time>
      </trkpt>
      <trkpt lat="-11.5106410" lon="-76.6764680">
        <ele>2082.8</ele>
        <time>2022-09-11T22:07:50Z</time>
      </trkpt>
      <trkpt lat="-11.5107100" lon="-76.6764970">
        <ele>2082.4</ele>
        <time>2022-09-11T22:07:51Z</time>
      </trkpt>
      <trkpt lat="-11.5107760" lon="-76.6765290">
        <ele>2082.1</ele>
        <time>2022-09-11T22:07:52Z</time>
      </trkpt>
      <trkpt lat="-11.5108420" lon="-76.6765540">
        <ele>2081.7</ele>
        <time>2022-09-11T22:07:53Z</time>
      </trkpt>
      <trkpt lat="-11.5108980" lon="-76.6765880">
        <ele>2081.4</ele>
        <time>2022-09-11T22:07:54Z</time>
      </trkpt>
      <trkpt lat="-11.5109590" lon="-76.6766200">
        <ele>2081.1</ele>
        <time>2022-09-11T22:07:55Z</time>
      </trkpt>
      <trkpt lat="-11.5110210" lon="-76.6766610">
        <ele>2080.8</ele>
        <time>2022-09-11T22:07:56Z</time>
      </trkpt>
      <trkpt lat="-11.5110840" lon="-76.6767050">
        <ele>2080.5</ele>
        <time>2022-09-11T22:07:57Z</time>
      </trkpt>
      <trkpt lat="-11.5111520" lon="-76.6767430">
        <ele>2080.2</ele>
        <time>2022-09-11T22:07:58Z</time>
      </trkpt>
      <trkpt lat="-11.5112250" lon="-76.6767860">
        <ele>2079.9</ele>
        <time>2022-09-11T22:07:59Z</time>
      </trkpt>
      <trkpt lat="-11.5112960" lon="-76.6768300">
        <ele>2079.5</ele>
        <time>2022-09-11T22:08:00Z</time>
      </trkpt>
      <trkpt lat="-11.5113650" lon="-76.6768690">
        <ele>2079.2</ele>
        <time>2022-09-11T22:08:01Z</time>
      </trkpt>
      <trkpt lat="-11.5114370" lon="-76.6769090">
        <ele>2078.8</ele>
        <time>2022-09-11T22:08:02Z</time>
      </trkpt>
      <trkpt lat="-11.5115120" lon="-76.6769470">
        <ele>2078.5</ele>
        <time>2022-09-11T22:08:03Z</time>
      </trkpt>
      <trkpt lat="-11.5115860" lon="-76.6769830">
        <ele>2078.1</ele>
        <time>2022-09-11T22:08:04Z</time>
      </trkpt>
      <trkpt lat="-11.5116590" lon="-76.6770160">
        <ele>2077.8</ele>
        <time>2022-09-11T22:08:05Z</time>
      </trkpt>
      <trkpt lat="-11.5117310" lon="-76.6770440">
        <ele>2077.4</ele>
        <time>2022-09-11T22:08:06Z</time>
      </trkpt>
      <trkpt lat="-11.5118000" lon="-76.6770780">
        <ele>2077.1</ele>
        <time>2022-09-11T22:08:07Z</time>
      </trkpt>
      <trkpt lat="-11.5118720" lon="-76.6771120">
        <ele>2076.8</ele>
        <time>2022-09-11T22:08:08Z</time>
      </trkpt>
      <trkpt lat="-11.5119410" lon="-76.6771470">
        <ele>2076.5</ele>
        <time>2022-09-11T22:08:09Z</time>
      </trkpt>
      <trkpt lat="-11.5120120" lon="-76.6771840">
        <ele>2076.2</ele>
        <time>2022-09-11T22:08:10Z</time>
      </trkpt>
      <trkpt lat="-11.5120840" lon="-76.6772220">
        <ele>2075.9</ele>
        <time>2022-09-11T22:08:11Z</time>
      </trkpt>
      <trkpt lat="-11.5121550" lon="-76.6772670">
        <ele>2075.5</ele>
        <time>2022-09-11T22:08:12Z</time>
      </trkpt>
      <trkpt lat="-11.5122230" lon="-76.6773210">
        <ele>2075.1</ele>
        <time>2022-09-11T22:08:13Z</time>
      </trkpt>
      <trkpt lat="-11.5122900" lon="-76.6773810">
        <ele>2074.8</ele>
        <time>2022-09-11T22:08:14Z</time>
      </trkpt>
      <trkpt lat="-11.5123610" lon="-76.6774460">
        <ele>2074.4</ele>
        <time>2022-09-11T22:08:15Z</time>
      </trkpt>
      <trkpt lat="-11.5124330" lon="-76.6775170">
        <ele>2074.0</ele>
        <time>2022-09-11T22:08:16Z</time>
      </trkpt>
      <trkpt lat="-11.5125050" lon="-76.6775930">
        <ele>2073.6</ele>
        <time>2022-09-11T22:08:17Z</time>
      </trkpt>
      <trkpt lat="-11.5125770" lon="-76.6776730">
        <ele>2073.2</ele>
        <time>2022-09-11T22:08:18Z</time>
      </trkpt>
      <trkpt lat="-11.5126490" lon="-76.6777540">
        <ele>2072.8</ele>
        <time>2022-09-11T22:08:19Z</time>
      </trkpt>
      <trkpt lat="-11.5127250" lon="-76.6778340">
        <ele>2072.4</ele>
        <time>2022-09-11T22:08:20Z</time>
      </trkpt>
      <trkpt lat="-11.5128020" lon="-76.6779150">
        <ele>2072.0</ele>
        <time>2022-09-11T22:08:21Z</time>
      </trkpt>
      <trkpt lat="-11.5128820" lon="-76.6779910">
        <ele>2071.6</ele>
        <time>2022-09-11T22:08:22Z</time>
      </trkpt>
      <trkpt lat="-11.5129580" lon="-76.6780650">
        <ele>2071.2</ele>
        <time>2022-09-11T22:08:23Z</time>
      </trkpt>
      <trkpt lat="-11.5130230" lon="-76.6781410">
        <ele>2070.7</ele>
        <time>2022-09-11T22:08:24Z</time>
      </trkpt>
      <trkpt lat="-11.5130840" lon="-76.6782130">
        <ele>2070.3</ele>
        <time>2022-09-11T22:08:25Z</time>
      </trkpt>
      <trkpt lat="-11.5131400" lon="-76.6782860">
        <ele>2069.9</ele>
        <time>2022-09-11T22:08:26Z</time>
      </trkpt>
      <trkpt lat="-11.5131920" lon="-76.6783560">
        <ele>2069.6</ele>
        <time>2022-09-11T22:08:27Z</time>
      </trkpt>
      <trkpt lat="-11.5132360" lon="-76.6784320">
        <ele>2069.3</ele>
        <time>2022-09-11T22:08:28Z</time>
      </trkpt>
      <trkpt lat="-11.5132730" lon="-76.6785110">
        <ele>2069.0</ele>
        <time>2022-09-11T22:08:29Z</time>
      </trkpt>
      <trkpt lat="-11.5133060" lon="-76.6785930">
        <ele>2068.7</ele>
        <time>2022-09-11T22:08:30Z</time>
      </trkpt>
      <trkpt lat="-11.5133350" lon="-76.6786790">
        <ele>2068.4</ele>
        <time>2022-09-11T22:08:31Z</time>
      </trkpt>
      <trkpt lat="-11.5133620" lon="-76.6787680">
        <ele>2068.1</ele>
        <time>2022-09-11T22:08:32Z</time>
      </trkpt>
      <trkpt lat="-11.5133880" lon="-76.6788650">
        <ele>2067.6</ele>
        <time>2022-09-11T22:08:33Z</time>
      </trkpt>
      <trkpt lat="-11.5134150" lon="-76.6789630">
        <ele>2067.1</ele>
        <time>2022-09-11T22:08:34Z</time>
      </trkpt>
      <trkpt lat="-11.5134430" lon="-76.6790710">
        <ele>2066.5</ele>
        <time>2022-09-11T22:08:35Z</time>
      </trkpt>
      <trkpt lat="-11.5134780" lon="-76.6791750">
        <ele>2066.0</ele>
        <time>2022-09-11T22:08:36Z</time>
      </trkpt>
      <trkpt lat="-11.5135150" lon="-76.6792820">
        <ele>2065.5</ele>
        <time>2022-09-11T22:08:37Z</time>
      </trkpt>
      <trkpt lat="-11.5135650" lon="-76.6793830">
        <ele>2065.0</ele>
        <time>2022-09-11T22:08:38Z</time>
      </trkpt>
      <trkpt lat="-11.5136240" lon="-76.6794840">
        <ele>2064.6</ele>
        <time>2022-09-11T22:08:39Z</time>
      </trkpt>
      <trkpt lat="-11.5136950" lon="-76.6795800">
        <ele>2064.4</ele>
        <time>2022-09-11T22:08:40Z</time>
      </trkpt>
      <trkpt lat="-11.5137710" lon="-76.6796680">
        <ele>2064.4</ele>
        <time>2022-09-11T22:08:41Z</time>
      </trkpt>
      <trkpt lat="-11.5138550" lon="-76.6797520">
        <ele>2064.4</ele>
        <time>2022-09-11T22:08:42Z</time>
      </trkpt>
      <trkpt lat="-11.5139300" lon="-76.6798230">
        <ele>2064.5</ele>
        <time>2022-09-11T22:08:43Z</time>
      </trkpt>
      <trkpt lat="-11.5140160" lon="-76.6798780">
        <ele>2064.5</ele>
        <time>2022-09-11T22:08:44Z</time>
      </trkpt>
      <trkpt lat="-11.5140940" lon="-76.6799290">
        <ele>2064.5</ele>
        <time>2022-09-11T22:08:45Z</time>
      </trkpt>
      <trkpt lat="-11.5141650" lon="-76.6799790">
        <ele>2064.3</ele>
        <time>2022-09-11T22:08:46Z</time>
      </trkpt>
      <trkpt lat="-11.5142340" lon="-76.6800310">
        <ele>2064.1</ele>
        <time>2022-09-11T22:08:47Z</time>
      </trkpt>
      <trkpt lat="-11.5143010" lon="-76.6800900">
        <ele>2063.6</ele>
        <time>2022-09-11T22:08:48Z</time>
      </trkpt>
      <trkpt lat="-11.5143620" lon="-76.6801550">
        <ele>2063.1</ele>
        <time>2022-09-11T22:08:49Z</time>
      </trkpt>
      <trkpt lat="-11.5144180" lon="-76.6802250">
        <ele>2062.5</ele>
        <time>2022-09-11T22:08:50Z</time>
      </trkpt>
      <trkpt lat="-11.5144630" lon="-76.6803070">
        <ele>2061.9</ele>
        <time>2022-09-11T22:08:51Z</time>
      </trkpt>
      <trkpt lat="-11.5145010" lon="-76.6804000">
        <ele>2061.3</ele>
        <time>2022-09-11T22:08:52Z</time>
      </trkpt>
      <trkpt lat="-11.5145350" lon="-76.6804970">
        <ele>2060.7</ele>
        <time>2022-09-11T22:08:53Z</time>
      </trkpt>
      <trkpt lat="-11.5145680" lon="-76.6806050">
        <ele>2060.0</ele>
        <time>2022-09-11T22:08:54Z</time>
      </trkpt>
      <trkpt lat="-11.5146030" lon="-76.6807160">
        <ele>2059.2</ele>
        <time>2022-09-11T22:08:55Z</time>
      </trkpt>
      <trkpt lat="-11.5146360" lon="-76.6808340">
        <ele>2058.4</ele>
        <time>2022-09-11T22:08:56Z</time>
      </trkpt>
      <trkpt lat="-11.5146770" lon="-76.6809490">
        <ele>2057.5</ele>
        <time>2022-09-11T22:08:57Z</time>
      </trkpt>
      <trkpt lat="-11.5147280" lon="-76.6810600">
        <ele>2056.7</ele>
        <time>2022-09-11T22:08:58Z</time>
      </trkpt>
      <trkpt lat="-11.5147850" lon="-76.6811600">
        <ele>2056.1</ele>
        <time>2022-09-11T22:08:59Z</time>
      </trkpt>
      <trkpt lat="-11.5148430" lon="-76.6812520">
        <ele>2055.6</ele>
        <time>2022-09-11T22:09:00Z</time>
      </trkpt>
      <trkpt lat="-11.5149000" lon="-76.6813250">
        <ele>2055.1</ele>
        <time>2022-09-11T22:09:01Z</time>
      </trkpt>
      <trkpt lat="-11.5149480" lon="-76.6813730">
        <ele>2054.8</ele>
        <time>2022-09-11T22:09:02Z</time>
      </trkpt>
      <trkpt lat="-11.5149890" lon="-76.6813950">
        <ele>2054.6</ele>
        <time>2022-09-11T22:09:03Z</time>
      </trkpt>
      <trkpt lat="-11.5150120" lon="-76.6813990">
        <ele>2054.5</ele>
        <time>2022-09-11T22:09:04Z</time>
      </trkpt>
      <trkpt lat="-11.5150170" lon="-76.6813980">
        <ele>2054.4</ele>
        <time>2022-09-11T22:09:05Z</time>
      </trkpt>
      <trkpt lat="-11.5150120" lon="-76.6813910">
        <ele>2054.4</ele>
        <time>2022-09-11T22:09:06Z</time>
      </trkpt>
      <trkpt lat="-11.5150050" lon="-76.6813960">
        <ele>2054.4</ele>
        <time>2022-09-11T22:09:07Z</time>
      </trkpt>
      <trkpt lat="-11.5150000" lon="-76.6813980">
        <ele>2054.3</ele>
        <time>2022-09-11T22:09:08Z</time>
      </trkpt>
      <trkpt lat="-11.5149980" lon="-76.6814000">
        <ele>2054.3</ele>
        <time>2022-09-11T22:09:09Z</time>
      </trkpt>
      <trkpt lat="-11.5149960" lon="-76.6814020">
        <ele>2054.3</ele>
        <time>2022-09-11T22:09:10Z</time>
      </trkpt>
      <trkpt lat="-11.5149950" lon="-76.6814040">
        <ele>2054.3</ele>
        <time>2022-09-11T22:09:11Z</time>
      </trkpt>
      <trkpt lat="-11.5149950" lon="-76.6814030">
        <ele>2054.3</ele>
        <time>2022-09-11T22:09:12Z</time>
      </trkpt>
      <trkpt lat="-11.5149950" lon="-76.6814020">
        <ele>2054.3</ele>
        <time>2022-09-11T22:09:13Z</time>
      </trkpt>
      <trkpt lat="-11.5149940" lon="-76.6814030">
        <ele>2054.3</ele>
        <time>2022-09-11T22:09:14Z</time>
      </trkpt>
      <trkpt lat="-11.5149960" lon="-76.6814020">
        <ele>2054.3</ele>
        <time>2022-09-11T22:09:15Z</time>
      </trkpt>
      <trkpt lat="-11.5149980" lon="-76.6814010">
        <ele>2054.3</ele>
        <time>2022-09-11T22:09:16Z</time>
      </trkpt>
      <trkpt lat="-11.5149990" lon="-76.6814010">
        <ele>2054.3</ele>
        <time>2022-09-11T22:09:17Z</time>
      </trkpt>
      <trkpt lat="-11.5149590" lon="-76.6814120">
        <ele>2054.1</ele>
        <time>2022-09-11T22:09:35Z</time>
      </trkpt>
      <trkpt lat="-11.5149510" lon="-76.6814110">
        <ele>2054.1</ele>
        <time>2022-09-11T22:09:36Z</time>
      </trkpt>
      <trkpt lat="-11.5149490" lon="-76.6814090">
        <ele>2054.1</ele>
        <time>2022-09-11T22:09:37Z</time>
      </trkpt>
      <trkpt lat="-11.5149520" lon="-76.6814060">
        <ele>2054.1</ele>
        <time>2022-09-11T22:09:38Z</time>
      </trkpt>
      <trkpt lat="-11.5149560" lon="-76.6814040">
        <ele>2054.0</ele>
        <time>2022-09-11T22:09:39Z</time>
      </trkpt>
      <trkpt lat="-11.5149600" lon="-76.6814050">
        <ele>2054.0</ele>
        <time>2022-09-11T22:09:40Z</time>
      </trkpt>
      <trkpt lat="-11.5149630" lon="-76.6814080">
        <ele>2054.0</ele>
        <time>2022-09-11T22:09:41Z</time>
      </trkpt>
      <trkpt lat="-11.5149650" lon="-76.6814080">
        <ele>2054.0</ele>
        <time>2022-09-11T22:09:42Z</time>
      </trkpt>
      <trkpt lat="-11.5149660" lon="-76.6814060">
        <ele>2054.0</ele>
        <time>2022-09-11T22:09:43Z</time>
      </trkpt>
      <trkpt lat="-11.5149650" lon="-76.6814050">
        <ele>2054.0</ele>
        <time>2022-09-11T22:09:44Z</time>
      </trkpt>
      <trkpt lat="-11.5149660" lon="-76.6814050">
        <ele>2054.0</ele>
        <time>2022-09-11T22:09:45Z</time>
      </trkpt>
      <trkpt lat="-11.5149660" lon="-76.6814050">
        <ele>2054.0</ele>
        <time>2022-09-11T22:09:46Z</time>
      </trkpt>
      <trkpt lat="-11.5149660" lon="-76.6814060">
        <ele>2054.0</ele>
        <time>2022-09-11T22:09:47Z</time>
      </trkpt>
      <trkpt lat="-11.5149660" lon="-76.6814080">
        <ele>2054.0</ele>
        <time>2022-09-11T22:09:48Z</time>
      </trkpt>
      <trkpt lat="-11.5149650" lon="-76.6814110">
        <ele>2054.0</ele>
        <time>2022-09-11T22:09:49Z</time>
      </trkpt>
      <trkpt lat="-11.5149650" lon="-76.6814130">
        <ele>2054.0</ele>
        <time>2022-09-11T22:09:50Z</time>
      </trkpt>
      <trkpt lat="-11.5149650" lon="-76.6814140">
        <ele>2054.0</ele>
        <time>2022-09-11T22:09:51Z</time>
      </trkpt>
      <trkpt lat="-11.5149970" lon="-76.6814350">
        <ele>2053.8</ele>
        <time>2022-09-11T22:11:11Z</time>
      </trkpt>
      <trkpt lat="-11.5150260" lon="-76.6814320">
        <ele>2053.7</ele>
        <time>2022-09-11T22:11:12Z</time>
      </trkpt>
      <trkpt lat="-11.5150590" lon="-76.6814260">
        <ele>2053.5</ele>
        <time>2022-09-11T22:11:13Z</time>
      </trkpt>
      <trkpt lat="-11.5150870" lon="-76.6814190">
        <ele>2053.4</ele>
        <time>2022-09-11T22:11:14Z</time>
      </trkpt>
      <trkpt lat="-11.5151390" lon="-76.6814580">
        <ele>2053.1</ele>
        <time>2022-09-11T22:11:15Z</time>
      </trkpt>
      <trkpt lat="-11.5151670" lon="-76.6815010">
        <ele>2052.9</ele>
        <time>2022-09-11T22:11:16Z</time>
      </trkpt>
      <trkpt lat="-11.5152020" lon="-76.6815420">
        <ele>2052.7</ele>
        <time>2022-09-11T22:11:17Z</time>
      </trkpt>
      <trkpt lat="-11.5152360" lon="-76.6815770">
        <ele>2052.4</ele>
        <time>2022-09-11T22:11:18Z</time>
      </trkpt>
      <trkpt lat="-11.5152780" lon="-76.6816160">
        <ele>2052.2</ele>
        <time>2022-09-11T22:11:19Z</time>
      </trkpt>
      <trkpt lat="-11.5153220" lon="-76.6816620">
        <ele>2051.9</ele>
        <time>2022-09-11T22:11:20Z</time>
      </trkpt>
      <trkpt lat="-11.5153670" lon="-76.6817110">
        <ele>2051.7</ele>
        <time>2022-09-11T22:11:21Z</time>
      </trkpt>
      <trkpt lat="-11.5154180" lon="-76.6817600">
        <ele>2051.4</ele>
        <time>2022-09-11T22:11:22Z</time>
      </trkpt>
      <trkpt lat="-11.5154720" lon="-76.6818130">
        <ele>2051.1</ele>
        <time>2022-09-11T22:11:23Z</time>
      </trkpt>
      <trkpt lat="-11.5155300" lon="-76.6818690">
        <ele>2050.8</ele>
        <time>2022-09-11T22:11:24Z</time>
      </trkpt>
      <trkpt lat="-11.5155930" lon="-76.6819250">
        <ele>2050.5</ele>
        <time>2022-09-11T22:11:25Z</time>
      </trkpt>
      <trkpt lat="-11.5156610" lon="-76.6819820">
        <ele>2050.1</ele>
        <time>2022-09-11T22:11:26Z</time>
      </trkpt>
      <trkpt lat="-11.5157340" lon="-76.6820340">
        <ele>2049.8</ele>
        <time>2022-09-11T22:11:27Z</time>
      </trkpt>
      <trkpt lat="-11.5158090" lon="-76.6820820">
        <ele>2049.5</ele>
        <time>2022-09-11T22:11:28Z</time>
      </trkpt>
      <trkpt lat="-11.5158770" lon="-76.6821270">
        <ele>2049.2</ele>
        <time>2022-09-11T22:11:29Z</time>
      </trkpt>
      <trkpt lat="-11.5159460" lon="-76.6821730">
        <ele>2048.8</ele>
        <time>2022-09-11T22:11:30Z</time>
      </trkpt>
      <trkpt lat="-11.5160080" lon="-76.6822210">
        <ele>2048.5</ele>
        <time>2022-09-11T22:11:31Z</time>
      </trkpt>
      <trkpt lat="-11.5160680" lon="-76.6822660">
        <ele>2048.1</ele>
        <time>2022-09-11T22:11:32Z</time>
      </trkpt>
      <trkpt lat="-11.5161280" lon="-76.6823190">
        <ele>2047.7</ele>
        <time>2022-09-11T22:11:33Z</time>
      </trkpt>
      <trkpt lat="-11.5161750" lon="-76.6823700">
        <ele>2047.3</ele>
        <time>2022-09-11T22:11:34Z</time>
      </trkpt>
      <trkpt lat="-11.5162260" lon="-76.6824290">
        <ele>2046.9</ele>
        <time>2022-09-11T22:11:35Z</time>
      </trkpt>
      <trkpt lat="-11.5162810" lon="-76.6824900">
        <ele>2046.5</ele>
        <time>2022-09-11T22:11:36Z</time>
      </trkpt>
      <trkpt lat="-11.5163350" lon="-76.6825530">
        <ele>2046.1</ele>
        <time>2022-09-11T22:11:37Z</time>
      </trkpt>
      <trkpt lat="-11.5163890" lon="-76.6826190">
        <ele>2045.6</ele>
        <time>2022-09-11T22:11:38Z</time>
      </trkpt>
      <trkpt lat="-11.5164490" lon="-76.6826860">
        <ele>2045.1</ele>
        <time>2022-09-11T22:11:39Z</time>
      </trkpt>
      <trkpt lat="-11.5165100" lon="-76.6827580">
        <ele>2044.6</ele>
        <time>2022-09-11T22:11:40Z</time>
      </trkpt>
      <trkpt lat="-11.5165780" lon="-76.6828340">
        <ele>2044.0</ele>
        <time>2022-09-11T22:11:41Z</time>
      </trkpt>
      <trkpt lat="-11.5166870" lon="-76.6829150">
        <ele>2043.1</ele>
        <time>2022-09-11T22:11:42Z</time>
      </trkpt>
      <trkpt lat="-11.5167690" lon="-76.6829860">
        <ele>2042.5</ele>
        <time>2022-09-11T22:11:43Z</time>
      </trkpt>
      <trkpt lat="-11.5168380" lon="-76.6830570">
        <ele>2042.0</ele>
        <time>2022-09-11T22:11:44Z</time>
      </trkpt>
      <trkpt lat="-11.5169050" lon="-76.6831240">
        <ele>2041.5</ele>
        <time>2022-09-11T22:11:45Z</time>
      </trkpt>
      <trkpt lat="-11.5169680" lon="-76.6831920">
        <ele>2041.0</ele>
        <time>2022-09-11T22:11:46Z</time>
      </trkpt>
      <trkpt lat="-11.5170430" lon="-76.6832510">
        <ele>2040.5</ele>
        <time>2022-09-11T22:11:47Z</time>
      </trkpt>
      <trkpt lat="-11.5171130" lon="-76.6833100">
        <ele>2040.0</ele>
        <time>2022-09-11T22:11:48Z</time>
      </trkpt>
      <trkpt lat="-11.5171840" lon="-76.6833610">
        <ele>2039.5</ele>
        <time>2022-09-11T22:11:49Z</time>
      </trkpt>
      <trkpt lat="-11.5172530" lon="-76.6834140">
        <ele>2039.0</ele>
        <time>2022-09-11T22:11:50Z</time>
      </trkpt>
      <trkpt lat="-11.5173180" lon="-76.6834660">
        <ele>2038.5</ele>
        <time>2022-09-11T22:11:51Z</time>
      </trkpt>
      <trkpt lat="-11.5173840" lon="-76.6835190">
        <ele>2037.9</ele>
        <time>2022-09-11T22:11:52Z</time>
      </trkpt>
      <trkpt lat="-11.5174450" lon="-76.6835720">
        <ele>2037.4</ele>
        <time>2022-09-11T22:11:53Z</time>
      </trkpt>
      <trkpt lat="-11.5175040" lon="-76.6836280">
        <ele>2036.9</ele>
        <time>2022-09-11T22:11:54Z</time>
      </trkpt>
      <trkpt lat="-11.5175600" lon="-76.6836900">
        <ele>2036.4</ele>
        <time>2022-09-11T22:11:55Z</time>
      </trkpt>
      <trkpt lat="-11.5176210" lon="-76.6837530">
        <ele>2035.9</ele>
        <time>2022-09-11T22:11:56Z</time>
      </trkpt>
      <trkpt lat="-11.5176830" lon="-76.6838170">
        <ele>2035.4</ele>
        <time>2022-09-11T22:11:57Z</time>
      </trkpt>
      <trkpt lat="-11.5177490" lon="-76.6838850">
        <ele>2034.8</ele>
        <time>2022-09-11T22:11:58Z</time>
      </trkpt>
      <trkpt lat="-11.5178210" lon="-76.6839510">
        <ele>2034.2</ele>
        <time>2022-09-11T22:11:59Z</time>
      </trkpt>
      <trkpt lat="-11.5178970" lon="-76.6840200">
        <ele>2033.6</ele>
        <time>2022-09-11T22:12:00Z</time>
      </trkpt>
      <trkpt lat="-11.5179790" lon="-76.6840830">
        <ele>2033.1</ele>
        <time>2022-09-11T22:12:01Z</time>
      </trkpt>
      <trkpt lat="-11.5180690" lon="-76.6841420">
        <ele>2032.5</ele>
        <time>2022-09-11T22:12:02Z</time>
      </trkpt>
      <trkpt lat="-11.5181600" lon="-76.6842050">
        <ele>2031.9</ele>
        <time>2022-09-11T22:12:03Z</time>
      </trkpt>
      <trkpt lat="-11.5182550" lon="-76.6842640">
        <ele>2031.3</ele>
        <time>2022-09-11T22:12:04Z</time>
      </trkpt>
      <trkpt lat="-11.5183660" lon="-76.6843110">
        <ele>2030.6</ele>
        <time>2022-09-11T22:12:05Z</time>
      </trkpt>
      <trkpt lat="-11.5184530" lon="-76.6843660">
        <ele>2030.1</ele>
        <time>2022-09-11T22:12:06Z</time>
      </trkpt>
      <trkpt lat="-11.5185420" lon="-76.6844120">
        <ele>2029.6</ele>
        <time>2022-09-11T22:12:07Z</time>
      </trkpt>
      <trkpt lat="-11.5186280" lon="-76.6844570">
        <ele>2029.0</ele>
        <time>2022-09-11T22:12:08Z</time>
      </trkpt>
      <trkpt lat="-11.5187140" lon="-76.6844980">
        <ele>2028.5</ele>
        <time>2022-09-11T22:12:09Z</time>
      </trkpt>
      <trkpt lat="-11.5187970" lon="-76.6845410">
        <ele>2028.0</ele>
        <time>2022-09-11T22:12:10Z</time>
      </trkpt>
      <trkpt lat="-11.5188760" lon="-76.6845880">
        <ele>2027.4</ele>
        <time>2022-09-11T22:12:11Z</time>
      </trkpt>
      <trkpt lat="-11.5189480" lon="-76.6846380">
        <ele>2026.9</ele>
        <time>2022-09-11T22:12:12Z</time>
      </trkpt>
      <trkpt lat="-11.5190140" lon="-76.6846960">
        <ele>2026.3</ele>
        <time>2022-09-11T22:12:13Z</time>
      </trkpt>
      <trkpt lat="-11.5190760" lon="-76.6847640">
        <ele>2025.7</ele>
        <time>2022-09-11T22:12:14Z</time>
      </trkpt>
      <trkpt lat="-11.5191390" lon="-76.6848380">
        <ele>2025.2</ele>
        <time>2022-09-11T22:12:15Z</time>
      </trkpt>
      <trkpt lat="-11.5191970" lon="-76.6849160">
        <ele>2024.6</ele>
        <time>2022-09-11T22:12:16Z</time>
      </trkpt>
      <trkpt lat="-11.5192600" lon="-76.6849990">
        <ele>2023.9</ele>
        <time>2022-09-11T22:12:17Z</time>
      </trkpt>
      <trkpt lat="-11.5193230" lon="-76.6850900">
        <ele>2023.1</ele>
        <time>2022-09-11T22:12:18Z</time>
      </trkpt>
      <trkpt lat="-11.5193910" lon="-76.6851860">
        <ele>2022.3</ele>
        <time>2022-09-11T22:12:19Z</time>
      </trkpt>
      <trkpt lat="-11.5194580" lon="-76.6852820">
        <ele>2021.5</ele>
        <time>2022-09-11T22:12:20Z</time>
      </trkpt>
      <trkpt lat="-11.5195320" lon="-76.6853760">
        <ele>2020.6</ele>
        <time>2022-09-11T22:12:21Z</time>
      </trkpt>
      <trkpt lat="-11.5196080" lon="-76.6854700">
        <ele>2019.8</ele>
        <time>2022-09-11T22:12:22Z</time>
      </trkpt>
      <trkpt lat="-11.5196860" lon="-76.6855620">
        <ele>2019.0</ele>
        <time>2022-09-11T22:12:23Z</time>
      </trkpt>
      <trkpt lat="-11.5197730" lon="-76.6856440">
        <ele>2018.1</ele>
        <time>2022-09-11T22:12:24Z</time>
      </trkpt>
      <trkpt lat="-11.5198570" lon="-76.6857160">
        <ele>2017.3</ele>
        <time>2022-09-11T22:12:25Z</time>
      </trkpt>
      <trkpt lat="-11.5199350" lon="-76.6857850">
        <ele>2016.6</ele>
        <time>2022-09-11T22:12:26Z</time>
      </trkpt>
      <trkpt lat="-11.5200150" lon="-76.6858480">
        <ele>2015.8</ele>
        <time>2022-09-11T22:12:27Z</time>
      </trkpt>
      <trkpt lat="-11.5200960" lon="-76.6859060">
        <ele>2015.1</ele>
        <time>2022-09-11T22:12:28Z</time>
      </trkpt>
      <trkpt lat="-11.5201750" lon="-76.6859570">
        <ele>2014.5</ele>
        <time>2022-09-11T22:12:29Z</time>
      </trkpt>
      <trkpt lat="-11.5202490" lon="-76.6860120">
        <ele>2013.8</ele>
        <time>2022-09-11T22:12:30Z</time>
      </trkpt>
      <trkpt lat="-11.5203170" lon="-76.6860670">
        <ele>2013.3</ele>
        <time>2022-09-11T22:12:31Z</time>
      </trkpt>
      <trkpt lat="-11.5203870" lon="-76.6861280">
        <ele>2012.7</ele>
        <time>2022-09-11T22:12:32Z</time>
      </trkpt>
      <trkpt lat="-11.5204560" lon="-76.6861950">
        <ele>2012.1</ele>
        <time>2022-09-11T22:12:33Z</time>
      </trkpt>
      <trkpt lat="-11.5205210" lon="-76.6862750">
        <ele>2011.5</ele>
        <time>2022-09-11T22:12:34Z</time>
      </trkpt>
      <trkpt lat="-11.5205910" lon="-76.6863580">
        <ele>2010.8</ele>
        <time>2022-09-11T22:12:35Z</time>
      </trkpt>
      <trkpt lat="-11.5206600" lon="-76.6864510">
        <ele>2010.0</ele>
        <time>2022-09-11T22:12:36Z</time>
      </trkpt>
      <trkpt lat="-11.5207310" lon="-76.6865520">
        <ele>2009.2</ele>
        <time>2022-09-11T22:12:37Z</time>
      </trkpt>
      <trkpt lat="-11.5208010" lon="-76.6866570">
        <ele>2008.3</ele>
        <time>2022-09-11T22:12:38Z</time>
      </trkpt>
      <trkpt lat="-11.5208710" lon="-76.6867630">
        <ele>2007.3</ele>
        <time>2022-09-11T22:12:39Z</time>
      </trkpt>
      <trkpt lat="-11.5209420" lon="-76.6868660">
        <ele>2006.3</ele>
        <time>2022-09-11T22:12:40Z</time>
      </trkpt>
      <trkpt lat="-11.5210130" lon="-76.6869690">
        <ele>2005.4</ele>
        <time>2022-09-11T22:12:41Z</time>
      </trkpt>
      <trkpt lat="-11.5210890" lon="-76.6870660">
        <ele>2004.4</ele>
        <time>2022-09-11T22:12:42Z</time>
      </trkpt>
      <trkpt lat="-11.5211730" lon="-76.6871510">
        <ele>2003.5</ele>
        <time>2022-09-11T22:12:43Z</time>
      </trkpt>
      <trkpt lat="-11.5212590" lon="-76.6872240">
        <ele>2002.6</ele>
        <time>2022-09-11T22:12:44Z</time>
      </trkpt>
      <trkpt lat="-11.5213390" lon="-76.6872930">
        <ele>2002.0</ele>
        <time>2022-09-11T22:12:45Z</time>
      </trkpt>
      <trkpt lat="-11.5214200" lon="-76.6873560">
        <ele>2001.3</ele>
        <time>2022-09-11T22:12:46Z</time>
      </trkpt>
      <trkpt lat="-11.5215020" lon="-76.6874100">
        <ele>2000.8</ele>
        <time>2022-09-11T22:12:47Z</time>
      </trkpt>
      <trkpt lat="-11.5215860" lon="-76.6874600">
        <ele>2000.2</ele>
        <time>2022-09-11T22:12:48Z</time>
      </trkpt>
      <trkpt lat="-11.5216700" lon="-76.6875090">
        <ele>1999.7</ele>
        <time>2022-09-11T22:12:49Z</time>
      </trkpt>
      <trkpt lat="-11.5217510" lon="-76.6875530">
        <ele>1999.1</ele>
        <time>2022-09-11T22:12:50Z</time>
      </trkpt>
      <trkpt lat="-11.5218320" lon="-76.6876020">
        <ele>1998.5</ele>
        <time>2022-09-11T22:12:51Z</time>
      </trkpt>
      <trkpt lat="-11.5219050" lon="-76.6876560">
        <ele>1997.8</ele>
        <time>2022-09-11T22:12:52Z</time>
      </trkpt>
      <trkpt lat="-11.5219760" lon="-76.6877210">
        <ele>1997.1</ele>
        <time>2022-09-11T22:12:53Z</time>
      </trkpt>
      <trkpt lat="-11.5220480" lon="-76.6877950">
        <ele>1996.4</ele>
        <time>2022-09-11T22:12:54Z</time>
      </trkpt>
      <trkpt lat="-11.5221200" lon="-76.6878800">
        <ele>1995.7</ele>
        <time>2022-09-11T22:12:55Z</time>
      </trkpt>
      <trkpt lat="-11.5221930" lon="-76.6879750">
        <ele>1994.9</ele>
        <time>2022-09-11T22:12:56Z</time>
      </trkpt>
      <trkpt lat="-11.5222620" lon="-76.6880830">
        <ele>1994.0</ele>
        <time>2022-09-11T22:12:57Z</time>
      </trkpt>
      <trkpt lat="-11.5223290" lon="-76.6881950">
        <ele>1993.1</ele>
        <time>2022-09-11T22:12:58Z</time>
      </trkpt>
      <trkpt lat="-11.5223950" lon="-76.6883070">
        <ele>1992.2</ele>
        <time>2022-09-11T22:12:59Z</time>
      </trkpt>
      <trkpt lat="-11.5224640" lon="-76.6884140">
        <ele>1991.3</ele>
        <time>2022-09-11T22:13:00Z</time>
      </trkpt>
      <trkpt lat="-11.5225360" lon="-76.6885150">
        <ele>1990.4</ele>
        <time>2022-09-11T22:13:01Z</time>
      </trkpt>
      <trkpt lat="-11.5226020" lon="-76.6886130">
        <ele>1989.6</ele>
        <time>2022-09-11T22:13:02Z</time>
      </trkpt>
      <trkpt lat="-11.5226650" lon="-76.6887070">
        <ele>1989.1</ele>
        <time>2022-09-11T22:13:03Z</time>
      </trkpt>
      <trkpt lat="-11.5227350" lon="-76.6887940">
        <ele>1988.5</ele>
        <time>2022-09-11T22:13:04Z</time>
      </trkpt>
      <trkpt lat="-11.5228210" lon="-76.6888610">
        <ele>1987.8</ele>
        <time>2022-09-11T22:13:05Z</time>
      </trkpt>
      <trkpt lat="-11.5229150" lon="-76.6889170">
        <ele>1987.1</ele>
        <time>2022-09-11T22:13:06Z</time>
      </trkpt>
      <trkpt lat="-11.5230100" lon="-76.6889630">
        <ele>1986.3</ele>
        <time>2022-09-11T22:13:07Z</time>
      </trkpt>
      <trkpt lat="-11.5231070" lon="-76.6889990">
        <ele>1985.4</ele>
        <time>2022-09-11T22:13:08Z</time>
      </trkpt>
      <trkpt lat="-11.5232040" lon="-76.6890240">
        <ele>1984.4</ele>
        <time>2022-09-11T22:13:09Z</time>
      </trkpt>
      <trkpt lat="-11.5232970" lon="-76.6890440">
        <ele>1983.3</ele>
        <time>2022-09-11T22:13:10Z</time>
      </trkpt>
      <trkpt lat="-11.5233840" lon="-76.6890690">
        <ele>1982.3</ele>
        <time>2022-09-11T22:13:11Z</time>
      </trkpt>
      <trkpt lat="-11.5234770" lon="-76.6890900">
        <ele>1981.4</ele>
        <time>2022-09-11T22:13:12Z</time>
      </trkpt>
      <trkpt lat="-11.5235750" lon="-76.6891140">
        <ele>1980.7</ele>
        <time>2022-09-11T22:13:13Z</time>
      </trkpt>
      <trkpt lat="-11.5236770" lon="-76.6891460">
        <ele>1980.3</ele>
        <time>2022-09-11T22:13:14Z</time>
      </trkpt>
      <trkpt lat="-11.5237790" lon="-76.6891920">
        <ele>1980.2</ele>
        <time>2022-09-11T22:13:15Z</time>
      </trkpt>
      <trkpt lat="-11.5238830" lon="-76.6892500">
        <ele>1980.3</ele>
        <time>2022-09-11T22:13:16Z</time>
      </trkpt>
      <trkpt lat="-11.5239890" lon="-76.6893100">
        <ele>1980.4</ele>
        <time>2022-09-11T22:13:17Z</time>
      </trkpt>
      <trkpt lat="-11.5240950" lon="-76.6893730">
        <ele>1980.2</ele>
        <time>2022-09-11T22:13:18Z</time>
      </trkpt>
      <trkpt lat="-11.5242020" lon="-76.6894320">
        <ele>1979.8</ele>
        <time>2022-09-11T22:13:19Z</time>
      </trkpt>
      <trkpt lat="-11.5243070" lon="-76.6894880">
        <ele>1979.2</ele>
        <time>2022-09-11T22:13:20Z</time>
      </trkpt>
      <trkpt lat="-11.5244160" lon="-76.6895360">
        <ele>1978.7</ele>
        <time>2022-09-11T22:13:21Z</time>
      </trkpt>
      <trkpt lat="-11.5245220" lon="-76.6895750">
        <ele>1978.4</ele>
        <time>2022-09-11T22:13:22Z</time>
      </trkpt>
      <trkpt lat="-11.5246240" lon="-76.6896080">
        <ele>1978.1</ele>
        <time>2022-09-11T22:13:23Z</time>
      </trkpt>
      <trkpt lat="-11.5247210" lon="-76.6896370">
        <ele>1977.9</ele>
        <time>2022-09-11T22:13:24Z</time>
      </trkpt>
      <trkpt lat="-11.5248200" lon="-76.6896540">
        <ele>1977.8</ele>
        <time>2022-09-11T22:13:25Z</time>
      </trkpt>
      <trkpt lat="-11.5249150" lon="-76.6896640">
        <ele>1977.2</ele>
        <time>2022-09-11T22:13:26Z</time>
      </trkpt>
      <trkpt lat="-11.5250110" lon="-76.6896760">
        <ele>1976.4</ele>
        <time>2022-09-11T22:13:27Z</time>
      </trkpt>
      <trkpt lat="-11.5251120" lon="-76.6896930">
        <ele>1975.4</ele>
        <time>2022-09-11T22:13:28Z</time>
      </trkpt>
      <trkpt lat="-11.5252130" lon="-76.6897010">
        <ele>1974.5</ele>
        <time>2022-09-11T22:13:29Z</time>
      </trkpt>
      <trkpt lat="-11.5253120" lon="-76.6896990">
        <ele>1973.9</ele>
        <time>2022-09-11T22:13:30Z</time>
      </trkpt>
      <trkpt lat="-11.5254100" lon="-76.6896920">
        <ele>1973.5</ele>
        <time>2022-09-11T22:13:31Z</time>
      </trkpt>
      <trkpt lat="-11.5255090" lon="-76.6896930">
        <ele>1973.3</ele>
        <time>2022-09-11T22:13:32Z</time>
      </trkpt>
      <trkpt lat="-11.5256090" lon="-76.6896950">
        <ele>1973.0</ele>
        <time>2022-09-11T22:13:33Z</time>
      </trkpt>
      <trkpt lat="-11.5257050" lon="-76.6897000">
        <ele>1972.7</ele>
        <time>2022-09-11T22:13:34Z</time>
      </trkpt>
      <trkpt lat="-11.5257990" lon="-76.6897040">
        <ele>1972.4</ele>
        <time>2022-09-11T22:13:35Z</time>
      </trkpt>
      <trkpt lat="-11.5258950" lon="-76.6897100">
        <ele>1972.0</ele>
        <time>2022-09-11T22:13:36Z</time>
      </trkpt>
      <trkpt lat="-11.5259880" lon="-76.6897220">
        <ele>1971.7</ele>
        <time>2022-09-11T22:13:37Z</time>
      </trkpt>
      <trkpt lat="-11.5260840" lon="-76.6897180">
        <ele>1971.2</ele>
        <time>2022-09-11T22:13:38Z</time>
      </trkpt>
      <trkpt lat="-11.5261830" lon="-76.6897100">
        <ele>1970.8</ele>
        <time>2022-09-11T22:13:39Z</time>
      </trkpt>
      <trkpt lat="-11.5262810" lon="-76.6897020">
        <ele>1970.3</ele>
        <time>2022-09-11T22:13:40Z</time>
      </trkpt>
      <trkpt lat="-11.5263750" lon="-76.6896980">
        <ele>1969.9</ele>
        <time>2022-09-11T22:13:41Z</time>
      </trkpt>
      <trkpt lat="-11.5264680" lon="-76.6896940">
        <ele>1969.6</ele>
        <time>2022-09-11T22:13:42Z</time>
      </trkpt>
      <trkpt lat="-11.5265620" lon="-76.6896920">
        <ele>1969.1</ele>
        <time>2022-09-11T22:13:43Z</time>
      </trkpt>
      <trkpt lat="-11.5266540" lon="-76.6896950">
        <ele>1968.7</ele>
        <time>2022-09-11T22:13:44Z</time>
      </trkpt>
      <trkpt lat="-11.5267440" lon="-76.6897010">
        <ele>1968.3</ele>
        <time>2022-09-11T22:13:45Z</time>
      </trkpt>
      <trkpt lat="-11.5268340" lon="-76.6897070">
        <ele>1967.9</ele>
        <time>2022-09-11T22:13:46Z</time>
      </trkpt>
      <trkpt lat="-11.5269270" lon="-76.6897110">
        <ele>1967.5</ele>
        <time>2022-09-11T22:13:47Z</time>
      </trkpt>
      <trkpt lat="-11.5270190" lon="-76.6897130">
        <ele>1967.1</ele>
        <time>2022-09-11T22:13:48Z</time>
      </trkpt>
      <trkpt lat="-11.5271170" lon="-76.6897130">
        <ele>1966.8</ele>
        <time>2022-09-11T22:13:49Z</time>
      </trkpt>
      <trkpt lat="-11.5272130" lon="-76.6897190">
        <ele>1966.4</ele>
        <time>2022-09-11T22:13:50Z</time>
      </trkpt>
      <trkpt lat="-11.5273050" lon="-76.6897340">
        <ele>1966.1</ele>
        <time>2022-09-11T22:13:51Z</time>
      </trkpt>
      <trkpt lat="-11.5273980" lon="-76.6897520">
        <ele>1965.8</ele>
        <time>2022-09-11T22:13:52Z</time>
      </trkpt>
      <trkpt lat="-11.5274930" lon="-76.6897700">
        <ele>1965.6</ele>
        <time>2022-09-11T22:13:53Z</time>
      </trkpt>
      <trkpt lat="-11.5275890" lon="-76.6897960">
        <ele>1965.3</ele>
        <time>2022-09-11T22:13:54Z</time>
      </trkpt>
      <trkpt lat="-11.5276830" lon="-76.6898260">
        <ele>1964.9</ele>
        <time>2022-09-11T22:13:55Z</time>
      </trkpt>
      <trkpt lat="-11.5277740" lon="-76.6898610">
        <ele>1964.6</ele>
        <time>2022-09-11T22:13:56Z</time>
      </trkpt>
      <trkpt lat="-11.5278630" lon="-76.6899010">
        <ele>1964.3</ele>
        <time>2022-09-11T22:13:57Z</time>
      </trkpt>
      <trkpt lat="-11.5279520" lon="-76.6899410">
        <ele>1963.9</ele>
        <time>2022-09-11T22:13:58Z</time>
      </trkpt>
      <trkpt lat="-11.5280370" lon="-76.6899830">
        <ele>1963.5</ele>
        <time>2022-09-11T22:13:59Z</time>
      </trkpt>
      <trkpt lat="-11.5281170" lon="-76.6900260">
        <ele>1962.9</ele>
        <time>2022-09-11T22:14:00Z</time>
      </trkpt>
      <trkpt lat="-11.5281950" lon="-76.6900690">
        <ele>1962.4</ele>
        <time>2022-09-11T22:14:01Z</time>
      </trkpt>
      <trkpt lat="-11.5282730" lon="-76.6901060">
        <ele>1961.9</ele>
        <time>2022-09-11T22:14:02Z</time>
      </trkpt>
      <trkpt lat="-11.5283550" lon="-76.6901340">
        <ele>1961.3</ele>
        <time>2022-09-11T22:14:03Z</time>
      </trkpt>
      <trkpt lat="-11.5284350" lon="-76.6901700">
        <ele>1960.8</ele>
        <time>2022-09-11T22:14:04Z</time>
      </trkpt>
      <trkpt lat="-11.5285130" lon="-76.6902140">
        <ele>1960.4</ele>
        <time>2022-09-11T22:14:05Z</time>
      </trkpt>
      <trkpt lat="-11.5285950" lon="-76.6902570">
        <ele>1959.9</ele>
        <time>2022-09-11T22:14:06Z</time>
      </trkpt>
      <trkpt lat="-11.5286730" lon="-76.6903100">
        <ele>1959.4</ele>
        <time>2022-09-11T22:14:07Z</time>
      </trkpt>
      <trkpt lat="-11.5287510" lon="-76.6903680">
        <ele>1958.9</ele>
        <time>2022-09-11T22:14:08Z</time>
      </trkpt>
      <trkpt lat="-11.5288300" lon="-76.6904220">
        <ele>1958.3</ele>
        <time>2022-09-11T22:14:09Z</time>
      </trkpt>
      <trkpt lat="-11.5289050" lon="-76.6904890">
        <ele>1957.6</ele>
        <time>2022-09-11T22:14:10Z</time>
      </trkpt>
      <trkpt lat="-11.5289890" lon="-76.6905400">
        <ele>1956.9</ele>
        <time>2022-09-11T22:14:11Z</time>
      </trkpt>
      <trkpt lat="-11.5290700" lon="-76.6906010">
        <ele>1956.2</ele>
        <time>2022-09-11T22:14:12Z</time>
      </trkpt>
      <trkpt lat="-11.5291490" lon="-76.6906590">
        <ele>1955.7</ele>
        <time>2022-09-11T22:14:13Z</time>
      </trkpt>
      <trkpt lat="-11.5292250" lon="-76.6907180">
        <ele>1955.2</ele>
        <time>2022-09-11T22:14:14Z</time>
      </trkpt>
      <trkpt lat="-11.5292950" lon="-76.6907840">
        <ele>1954.7</ele>
        <time>2022-09-11T22:14:15Z</time>
      </trkpt>
      <trkpt lat="-11.5293640" lon="-76.6908510">
        <ele>1954.2</ele>
        <time>2022-09-11T22:14:16Z</time>
      </trkpt>
      <trkpt lat="-11.5294320" lon="-76.6909160">
        <ele>1953.7</ele>
        <time>2022-09-11T22:14:17Z</time>
      </trkpt>
      <trkpt lat="-11.5294970" lon="-76.6909760">
        <ele>1953.2</ele>
        <time>2022-09-11T22:14:18Z</time>
      </trkpt>
      <trkpt lat="-11.5295600" lon="-76.6910350">
        <ele>1952.7</ele>
        <time>2022-09-11T22:14:19Z</time>
      </trkpt>
      <trkpt lat="-11.5296170" lon="-76.6910940">
        <ele>1952.3</ele>
        <time>2022-09-11T22:14:20Z</time>
      </trkpt>
      <trkpt lat="-11.5296740" lon="-76.6911520">
        <ele>1951.9</ele>
        <time>2022-09-11T22:14:21Z</time>
      </trkpt>
      <trkpt lat="-11.5297320" lon="-76.6912090">
        <ele>1951.5</ele>
        <time>2022-09-11T22:14:22Z</time>
      </trkpt>
      <trkpt lat="-11.5297920" lon="-76.6912660">
        <ele>1951.1</ele>
        <time>2022-09-11T22:14:23Z</time>
      </trkpt>
      <trkpt lat="-11.5298550" lon="-76.6913230">
        <ele>1950.6</ele>
        <time>2022-09-11T22:14:24Z</time>
      </trkpt>
      <trkpt lat="-11.5299130" lon="-76.6913780">
        <ele>1950.2</ele>
        <time>2022-09-11T22:14:25Z</time>
      </trkpt>
      <trkpt lat="-11.5300110" lon="-76.6914800">
        <ele>1949.5</ele>
        <time>2022-09-11T22:14:27Z</time>
      </trkpt>
      <trkpt lat="-11.5300440" lon="-76.6915170">
        <ele>1949.2</ele>
        <time>2022-09-11T22:14:28Z</time>
      </trkpt>
      <trkpt lat="-11.5300680" lon="-76.6915510">
        <ele>1949.0</ele>
        <time>2022-09-11T22:14:29Z</time>
      </trkpt>
      <trkpt lat="-11.5300850" lon="-76.6915730">
        <ele>1948.9</ele>
        <time>2022-09-11T22:14:30Z</time>
      </trkpt>
      <trkpt lat="-11.5301100" lon="-76.6916000">
        <ele>1948.8</ele>
        <time>2022-09-11T22:14:31Z</time>
      </trkpt>
      <trkpt lat="-11.5301170" lon="-76.6916090">
        <ele>1948.7</ele>
        <time>2022-09-11T22:14:32Z</time>
      </trkpt>
      <trkpt lat="-11.5301460" lon="-76.6916340">
        <ele>1948.6</ele>
        <time>2022-09-11T22:14:33Z</time>
      </trkpt>
      <trkpt lat="-11.5301560" lon="-76.6916450">
        <ele>1948.5</ele>
        <time>2022-09-11T22:14:34Z</time>
      </trkpt>
      <trkpt lat="-11.5301850" lon="-76.6916730">
        <ele>1948.3</ele>
        <time>2022-09-11T22:14:35Z</time>
      </trkpt>
      <trkpt lat="-11.5302390" lon="-76.6917090">
        <ele>1948.1</ele>
        <time>2022-09-11T22:14:36Z</time>
      </trkpt>
      <trkpt lat="-11.5302750" lon="-76.6917420">
        <ele>1947.9</ele>
        <time>2022-09-11T22:14:37Z</time>
      </trkpt>
      <trkpt lat="-11.5303240" lon="-76.6917780">
        <ele>1947.6</ele>
        <time>2022-09-11T22:14:38Z</time>
      </trkpt>
      <trkpt lat="-11.5303810" lon="-76.6918170">
        <ele>1947.3</ele>
        <time>2022-09-11T22:14:39Z</time>
      </trkpt>
      <trkpt lat="-11.5304340" lon="-76.6918630">
        <ele>1946.7</ele>
        <time>2022-09-11T22:14:40Z</time>
      </trkpt>
      <trkpt lat="-11.5304870" lon="-76.6919130">
        <ele>1945.9</ele>
        <time>2022-09-11T22:14:41Z</time>
      </trkpt>
      <trkpt lat="-11.5305420" lon="-76.6919640">
        <ele>1945.0</ele>
        <time>2022-09-11T22:14:42Z</time>
      </trkpt>
      <trkpt lat="-11.5306000" lon="-76.6920180">
        <ele>1944.0</ele>
        <time>2022-09-11T22:14:43Z</time>
      </trkpt>
      <trkpt lat="-11.5306640" lon="-76.6920720">
        <ele>1943.0</ele>
        <time>2022-09-11T22:14:44Z</time>
      </trkpt>
      <trkpt lat="-11.5307250" lon="-76.6921280">
        <ele>1942.1</ele>
        <time>2022-09-11T22:14:45Z</time>
      </trkpt>
      <trkpt lat="-11.5307950" lon="-76.6921820">
        <ele>1941.1</ele>
        <time>2022-09-11T22:14:46Z</time>
      </trkpt>
      <trkpt lat="-11.5308650" lon="-76.6922390">
        <ele>1940.3</ele>
        <time>2022-09-11T22:14:47Z</time>
      </trkpt>
      <trkpt lat="-11.5309350" lon="-76.6922970">
        <ele>1939.6</ele>
        <time>2022-09-11T22:14:48Z</time>
      </trkpt>
      <trkpt lat="-11.5310090" lon="-76.6923570">
        <ele>1938.8</ele>
        <time>2022-09-11T22:14:49Z</time>
      </trkpt>
      <trkpt lat="-11.5310840" lon="-76.6924170">
        <ele>1937.9</ele>
        <time>2022-09-11T22:14:50Z</time>
      </trkpt>
      <trkpt lat="-11.5311570" lon="-76.6924770">
        <ele>1937.0</ele>
        <time>2022-09-11T22:14:51Z</time>
      </trkpt>
      <trkpt lat="-11.5312310" lon="-76.6925410">
        <ele>1936.1</ele>
        <time>2022-09-11T22:14:52Z</time>
      </trkpt>
      <trkpt lat="-11.5313120" lon="-76.6926000">
        <ele>1935.1</ele>
        <time>2022-09-11T22:14:53Z</time>
      </trkpt>
      <trkpt lat="-11.5313930" lon="-76.6926590">
        <ele>1934.0</ele>
        <time>2022-09-11T22:14:54Z</time>
      </trkpt>
      <trkpt lat="-11.5314750" lon="-76.6927190">
        <ele>1932.7</ele>
        <time>2022-09-11T22:14:55Z</time>
      </trkpt>
      <trkpt lat="-11.5315590" lon="-76.6927820">
        <ele>1931.4</ele>
        <time>2022-09-11T22:14:56Z</time>
      </trkpt>
      <trkpt lat="-11.5316460" lon="-76.6928450">
        <ele>1930.4</ele>
        <time>2022-09-11T22:14:57Z</time>
      </trkpt>
      <trkpt lat="-11.5317320" lon="-76.6929090">
        <ele>1929.4</ele>
        <time>2022-09-11T22:14:58Z</time>
      </trkpt>
      <trkpt lat="-11.5318170" lon="-76.6929740">
        <ele>1928.5</ele>
        <time>2022-09-11T22:14:59Z</time>
      </trkpt>
      <trkpt lat="-11.5318980" lon="-76.6930420">
        <ele>1927.6</ele>
        <time>2022-09-11T22:15:00Z</time>
      </trkpt>
      <trkpt lat="-11.5319800" lon="-76.6931110">
        <ele>1926.7</ele>
        <time>2022-09-11T22:15:01Z</time>
      </trkpt>
      <trkpt lat="-11.5320590" lon="-76.6931810">
        <ele>1925.9</ele>
        <time>2022-09-11T22:15:02Z</time>
      </trkpt>
      <trkpt lat="-11.5321350" lon="-76.6932560">
        <ele>1925.1</ele>
        <time>2022-09-11T22:15:03Z</time>
      </trkpt>
      <trkpt lat="-11.5322080" lon="-76.6933350">
        <ele>1924.4</ele>
        <time>2022-09-11T22:15:04Z</time>
      </trkpt>
      <trkpt lat="-11.5322780" lon="-76.6934180">
        <ele>1923.7</ele>
        <time>2022-09-11T22:15:05Z</time>
      </trkpt>
      <trkpt lat="-11.5323420" lon="-76.6935060">
        <ele>1922.9</ele>
        <time>2022-09-11T22:15:06Z</time>
      </trkpt>
      <trkpt lat="-11.5324030" lon="-76.6936020">
        <ele>1922.0</ele>
        <time>2022-09-11T22:15:07Z</time>
      </trkpt>
      <trkpt lat="-11.5324600" lon="-76.6936980">
        <ele>1921.3</ele>
        <time>2022-09-11T22:15:08Z</time>
      </trkpt>
      <trkpt lat="-11.5325180" lon="-76.6937940">
        <ele>1920.6</ele>
        <time>2022-09-11T22:15:09Z</time>
      </trkpt>
      <trkpt lat="-11.5325730" lon="-76.6938890">
        <ele>1919.8</ele>
        <time>2022-09-11T22:15:10Z</time>
      </trkpt>
      <trkpt lat="-11.5326210" lon="-76.6939880">
        <ele>1919.0</ele>
        <time>2022-09-11T22:15:11Z</time>
      </trkpt>
      <trkpt lat="-11.5326670" lon="-76.6940900">
        <ele>1918.3</ele>
        <time>2022-09-11T22:15:12Z</time>
      </trkpt>
      <trkpt lat="-11.5327080" lon="-76.6941940">
        <ele>1917.5</ele>
        <time>2022-09-11T22:15:13Z</time>
      </trkpt>
      <trkpt lat="-11.5327450" lon="-76.6943030">
        <ele>1916.7</ele>
        <time>2022-09-11T22:15:14Z</time>
      </trkpt>
      <trkpt lat="-11.5327840" lon="-76.6944110">
        <ele>1915.8</ele>
        <time>2022-09-11T22:15:15Z</time>
      </trkpt>
      <trkpt lat="-11.5328180" lon="-76.6945210">
        <ele>1914.8</ele>
        <time>2022-09-11T22:15:16Z</time>
      </trkpt>
      <trkpt lat="-11.5328510" lon="-76.6946320">
        <ele>1913.6</ele>
        <time>2022-09-11T22:15:17Z</time>
      </trkpt>
      <trkpt lat="-11.5328830" lon="-76.6947400">
        <ele>1912.5</ele>
        <time>2022-09-11T22:15:18Z</time>
      </trkpt>
      <trkpt lat="-11.5329160" lon="-76.6948460">
        <ele>1911.4</ele>
        <time>2022-09-11T22:15:19Z</time>
      </trkpt>
      <trkpt lat="-11.5329470" lon="-76.6949590">
        <ele>1910.2</ele>
        <time>2022-09-11T22:15:20Z</time>
      </trkpt>
      <trkpt lat="-11.5329770" lon="-76.6950660">
        <ele>1909.0</ele>
        <time>2022-09-11T22:15:21Z</time>
      </trkpt>
      <trkpt lat="-11.5330070" lon="-76.6951660">
        <ele>1908.0</ele>
        <time>2022-09-11T22:15:22Z</time>
      </trkpt>
      <trkpt lat="-11.5330440" lon="-76.6952700">
        <ele>1906.9</ele>
        <time>2022-09-11T22:15:23Z</time>
      </trkpt>
      <trkpt lat="-11.5330840" lon="-76.6953720">
        <ele>1905.8</ele>
        <time>2022-09-11T22:15:24Z</time>
      </trkpt>
      <trkpt lat="-11.5331230" lon="-76.6954710">
        <ele>1904.6</ele>
        <time>2022-09-11T22:15:25Z</time>
      </trkpt>
      <trkpt lat="-11.5331580" lon="-76.6955660">
        <ele>1903.5</ele>
        <time>2022-09-11T22:15:26Z</time>
      </trkpt>
      <trkpt lat="-11.5331710" lon="-76.6956480">
        <ele>1902.4</ele>
        <time>2022-09-11T22:15:27Z</time>
      </trkpt>
      <trkpt lat="-11.5331870" lon="-76.6957070">
        <ele>1901.7</ele>
        <time>2022-09-11T22:15:28Z</time>
      </trkpt>
      <trkpt lat="-11.5332100" lon="-76.6957500">
        <ele>1901.1</ele>
        <time>2022-09-11T22:15:29Z</time>
      </trkpt>
      <trkpt lat="-11.5332320" lon="-76.6957900">
        <ele>1900.5</ele>
        <time>2022-09-11T22:15:30Z</time>
      </trkpt>
      <trkpt lat="-11.5332530" lon="-76.6958320">
        <ele>1900.0</ele>
        <time>2022-09-11T22:15:31Z</time>
      </trkpt>
      <trkpt lat="-11.5332680" lon="-76.6958700">
        <ele>1899.5</ele>
        <time>2022-09-11T22:15:32Z</time>
      </trkpt>
      <trkpt lat="-11.5332820" lon="-76.6958990">
        <ele>1899.1</ele>
        <time>2022-09-11T22:15:33Z</time>
      </trkpt>
      <trkpt lat="-11.5332940" lon="-76.6959150">
        <ele>1898.8</ele>
        <time>2022-09-11T22:15:34Z</time>
      </trkpt>
      <trkpt lat="-11.5333010" lon="-76.6959270">
        <ele>1898.6</ele>
        <time>2022-09-11T22:15:35Z</time>
      </trkpt>
      <trkpt lat="-11.5333080" lon="-76.6959330">
        <ele>1898.5</ele>
        <time>2022-09-11T22:15:36Z</time>
      </trkpt>
      <trkpt lat="-11.5333120" lon="-76.6959370">
        <ele>1898.4</ele>
        <time>2022-09-11T22:15:37Z</time>
      </trkpt>
      <trkpt lat="-11.5333140" lon="-76.6959370">
        <ele>1898.3</ele>
        <time>2022-09-11T22:15:38Z</time>
      </trkpt>
      <trkpt lat="-11.5333140" lon="-76.6959340">
        <ele>1898.3</ele>
        <time>2022-09-11T22:15:39Z</time>
      </trkpt>
      <trkpt lat="-11.5333130" lon="-76.6959310">
        <ele>1898.3</ele>
        <time>2022-09-11T22:15:40Z</time>
      </trkpt>
      <trkpt lat="-11.5333120" lon="-76.6959280">
        <ele>1898.2</ele>
        <time>2022-09-11T22:15:41Z</time>
      </trkpt>
      <trkpt lat="-11.5333110" lon="-76.6959270">
        <ele>1898.2</ele>
        <time>2022-09-11T22:15:42Z</time>
      </trkpt>
      <trkpt lat="-11.5333080" lon="-76.6959260">
        <ele>1898.2</ele>
        <time>2022-09-11T22:15:43Z</time>
      </trkpt>
      <trkpt lat="-11.5333030" lon="-76.6959270">
        <ele>1898.1</ele>
        <time>2022-09-11T22:15:44Z</time>
      </trkpt>
      <trkpt lat="-11.5332990" lon="-76.6959280">
        <ele>1898.0</ele>
        <time>2022-09-11T22:15:45Z</time>
      </trkpt>
      <trkpt lat="-11.5332940" lon="-76.6959290">
        <ele>1897.9</ele>
        <time>2022-09-11T22:15:46Z</time>
      </trkpt>
      <trkpt lat="-11.5332920" lon="-76.6959300">
        <ele>1897.9</ele>
        <time>2022-09-11T22:15:47Z</time>
      </trkpt>
      <trkpt lat="-11.5332950" lon="-76.6959640">
        <ele>1897.4</ele>
        <time>2022-09-11T22:18:49Z</time>
      </trkpt>
      <trkpt lat="-11.5333000" lon="-76.6959810">
        <ele>1897.2</ele>
        <time>2022-09-11T22:18:50Z</time>
      </trkpt>
      <trkpt lat="-11.5333050" lon="-76.6959930">
        <ele>1897.0</ele>
        <time>2022-09-11T22:18:51Z</time>
      </trkpt>
      <trkpt lat="-11.5333110" lon="-76.6960230">
        <ele>1896.6</ele>
        <time>2022-09-11T22:18:52Z</time>
      </trkpt>
      <trkpt lat="-11.5333150" lon="-76.6960330">
        <ele>1896.5</ele>
        <time>2022-09-11T22:18:53Z</time>
      </trkpt>
      <trkpt lat="-11.5333410" lon="-76.6960650">
        <ele>1895.9</ele>
        <time>2022-09-11T22:18:54Z</time>
      </trkpt>
      <trkpt lat="-11.5333730" lon="-76.6961000">
        <ele>1895.3</ele>
        <time>2022-09-11T22:18:55Z</time>
      </trkpt>
      <trkpt lat="-11.5334140" lon="-76.6961420">
        <ele>1894.6</ele>
        <time>2022-09-11T22:18:56Z</time>
      </trkpt>
      <trkpt lat="-11.5334530" lon="-76.6961910">
        <ele>1893.8</ele>
        <time>2022-09-11T22:18:57Z</time>
      </trkpt>
      <trkpt lat="-11.5334900" lon="-76.6962440">
        <ele>1893.1</ele>
        <time>2022-09-11T22:18:58Z</time>
      </trkpt>
      <trkpt lat="-11.5335330" lon="-76.6962940">
        <ele>1892.4</ele>
        <time>2022-09-11T22:18:59Z</time>
      </trkpt>
      <trkpt lat="-11.5335670" lon="-76.6963610">
        <ele>1891.6</ele>
        <time>2022-09-11T22:19:00Z</time>
      </trkpt>
      <trkpt lat="-11.5336000" lon="-76.6964410">
        <ele>1890.6</ele>
        <time>2022-09-11T22:19:01Z</time>
      </trkpt>
      <trkpt lat="-11.5336270" lon="-76.6965270">
        <ele>1889.7</ele>
        <time>2022-09-11T22:19:02Z</time>
      </trkpt>
      <trkpt lat="-11.5336490" lon="-76.6966150">
        <ele>1888.7</ele>
        <time>2022-09-11T22:19:03Z</time>
      </trkpt>
      <trkpt lat="-11.5336610" lon="-76.6967080">
        <ele>1887.6</ele>
        <time>2022-09-11T22:19:04Z</time>
      </trkpt>
      <trkpt lat="-11.5336640" lon="-76.6967990">
        <ele>1886.3</ele>
        <time>2022-09-11T22:19:05Z</time>
      </trkpt>
      <trkpt lat="-11.5336560" lon="-76.6968940">
        <ele>1885.0</ele>
        <time>2022-09-11T22:19:06Z</time>
      </trkpt>
      <trkpt lat="-11.5336420" lon="-76.6969930">
        <ele>1884.2</ele>
        <time>2022-09-11T22:19:07Z</time>
      </trkpt>
      <trkpt lat="-11.5336210" lon="-76.6970930">
        <ele>1883.8</ele>
        <time>2022-09-11T22:19:08Z</time>
      </trkpt>
      <trkpt lat="-11.5336040" lon="-76.6971900">
        <ele>1883.4</ele>
        <time>2022-09-11T22:19:09Z</time>
      </trkpt>
      <trkpt lat="-11.5335890" lon="-76.6972840">
        <ele>1883.0</ele>
        <time>2022-09-11T22:19:10Z</time>
      </trkpt>
      <trkpt lat="-11.5335810" lon="-76.6973690">
        <ele>1882.6</ele>
        <time>2022-09-11T22:19:11Z</time>
      </trkpt>
      <trkpt lat="-11.5335800" lon="-76.6974460">
        <ele>1881.9</ele>
        <time>2022-09-11T22:19:12Z</time>
      </trkpt>
      <trkpt lat="-11.5335800" lon="-76.6975180">
        <ele>1881.0</ele>
        <time>2022-09-11T22:19:13Z</time>
      </trkpt>
      <trkpt lat="-11.5335810" lon="-76.6975880">
        <ele>1879.8</ele>
        <time>2022-09-11T22:19:14Z</time>
      </trkpt>
      <trkpt lat="-11.5335870" lon="-76.6976520">
        <ele>1878.6</ele>
        <time>2022-09-11T22:19:15Z</time>
      </trkpt>
      <trkpt lat="-11.5336010" lon="-76.6977170">
        <ele>1877.4</ele>
        <time>2022-09-11T22:19:16Z</time>
      </trkpt>
      <trkpt lat="-11.5336210" lon="-76.6977870">
        <ele>1876.3</ele>
        <time>2022-09-11T22:19:17Z</time>
      </trkpt>
      <trkpt lat="-11.5336480" lon="-76.6978630">
        <ele>1875.2</ele>
        <time>2022-09-11T22:19:18Z</time>
      </trkpt>
      <trkpt lat="-11.5336810" lon="-76.6979370">
        <ele>1874.2</ele>
        <time>2022-09-11T22:19:19Z</time>
      </trkpt>
      <trkpt lat="-11.5337170" lon="-76.6980040">
        <ele>1873.3</ele>
        <time>2022-09-11T22:19:20Z</time>
      </trkpt>
      <trkpt lat="-11.5337570" lon="-76.6980750">
        <ele>1872.3</ele>
        <time>2022-09-11T22:19:21Z</time>
      </trkpt>
      <trkpt lat="-11.5337980" lon="-76.6981480">
        <ele>1871.2</ele>
        <time>2022-09-11T22:19:22Z</time>
      </trkpt>
      <trkpt lat="-11.5338410" lon="-76.6982100">
        <ele>1870.3</ele>
        <time>2022-09-11T22:19:23Z</time>
      </trkpt>
      <trkpt lat="-11.5338760" lon="-76.6982600">
        <ele>1869.5</ele>
        <time>2022-09-11T22:19:24Z</time>
      </trkpt>
      <trkpt lat="-11.5339110" lon="-76.6983000">
        <ele>1868.7</ele>
        <time>2022-09-11T22:19:25Z</time>
      </trkpt>
      <trkpt lat="-11.5339440" lon="-76.6983420">
        <ele>1868.0</ele>
        <time>2022-09-11T22:19:26Z</time>
      </trkpt>
      <trkpt lat="-11.5339750" lon="-76.6983960">
        <ele>1867.2</ele>
        <time>2022-09-11T22:19:27Z</time>
      </trkpt>
      <trkpt lat="-11.5340090" lon="-76.6984540">
        <ele>1866.3</ele>
        <time>2022-09-11T22:19:28Z</time>
      </trkpt>
      <trkpt lat="-11.5340450" lon="-76.6985180">
        <ele>1865.4</ele>
        <time>2022-09-11T22:19:29Z</time>
      </trkpt>
      <trkpt lat="-11.5340820" lon="-76.6985830">
        <ele>1864.5</ele>
        <time>2022-09-11T22:19:30Z</time>
      </trkpt>
      <trkpt lat="-11.5341200" lon="-76.6986570">
        <ele>1863.5</ele>
        <time>2022-09-11T22:19:31Z</time>
      </trkpt>
      <trkpt lat="-11.5341630" lon="-76.6987330">
        <ele>1862.5</ele>
        <time>2022-09-11T22:19:32Z</time>
      </trkpt>
      <trkpt lat="-11.5342090" lon="-76.6988100">
        <ele>1861.6</ele>
        <time>2022-09-11T22:19:33Z</time>
      </trkpt>
      <trkpt lat="-11.5342540" lon="-76.6988900">
        <ele>1860.7</ele>
        <time>2022-09-11T22:19:34Z</time>
      </trkpt>
      <trkpt lat="-11.5342970" lon="-76.6989660">
        <ele>1859.8</ele>
        <time>2022-09-11T22:19:35Z</time>
      </trkpt>
      <trkpt lat="-11.5343370" lon="-76.6990360">
        <ele>1858.9</ele>
        <time>2022-09-11T22:19:36Z</time>
      </trkpt>
      <trkpt lat="-11.5343770" lon="-76.6991040">
        <ele>1858.1</ele>
        <time>2022-09-11T22:19:37Z</time>
      </trkpt>
      <trkpt lat="-11.5344190" lon="-76.6991740">
        <ele>1857.3</ele>
        <time>2022-09-11T22:19:38Z</time>
      </trkpt>
      <trkpt lat="-11.5344640" lon="-76.6992450">
        <ele>1856.5</ele>
        <time>2022-09-11T22:19:39Z</time>
      </trkpt>
      <trkpt lat="-11.5345090" lon="-76.6993120">
        <ele>1855.6</ele>
        <time>2022-09-11T22:19:40Z</time>
      </trkpt>
      <trkpt lat="-11.5345530" lon="-76.6993810">
        <ele>1854.9</ele>
        <time>2022-09-11T22:19:41Z</time>
      </trkpt>
      <trkpt lat="-11.5346000" lon="-76.6994440">
        <ele>1854.3</ele>
        <time>2022-09-11T22:19:42Z</time>
      </trkpt>
      <trkpt lat="-11.5346500" lon="-76.6995050">
        <ele>1853.6</ele>
        <time>2022-09-11T22:19:43Z</time>
      </trkpt>
      <trkpt lat="-11.5347020" lon="-76.6995660">
        <ele>1853.0</ele>
        <time>2022-09-11T22:19:44Z</time>
      </trkpt>
      <trkpt lat="-11.5347570" lon="-76.6996260">
        <ele>1852.3</ele>
        <time>2022-09-11T22:19:45Z</time>
      </trkpt>
      <trkpt lat="-11.5348170" lon="-76.6996870">
        <ele>1851.6</ele>
        <time>2022-09-11T22:19:46Z</time>
      </trkpt>
      <trkpt lat="-11.5348800" lon="-76.6997460">
        <ele>1851.0</ele>
        <time>2022-09-11T22:19:47Z</time>
      </trkpt>
      <trkpt lat="-11.5349470" lon="-76.6998030">
        <ele>1850.3</ele>
        <time>2022-09-11T22:19:48Z</time>
      </trkpt>
      <trkpt lat="-11.5350160" lon="-76.6998580">
        <ele>1849.6</ele>
        <time>2022-09-11T22:19:49Z</time>
      </trkpt>
      <trkpt lat="-11.5350840" lon="-76.6999100">
        <ele>1848.9</ele>
        <time>2022-09-11T22:19:50Z</time>
      </trkpt>
      <trkpt lat="-11.5351570" lon="-76.6999620">
        <ele>1848.2</ele>
        <time>2022-09-11T22:19:51Z</time>
      </trkpt>
      <trkpt lat="-11.5352280" lon="-76.7000150">
        <ele>1847.4</ele>
        <time>2022-09-11T22:19:52Z</time>
      </trkpt>
      <trkpt lat="-11.5353000" lon="-76.7000680">
        <ele>1846.6</ele>
        <time>2022-09-11T22:19:53Z</time>
      </trkpt>
      <trkpt lat="-11.5353740" lon="-76.7001190">
        <ele>1845.9</ele>
        <time>2022-09-11T22:19:54Z</time>
      </trkpt>
      <trkpt lat="-11.5354500" lon="-76.7001720">
        <ele>1845.3</ele>
        <time>2022-09-11T22:19:55Z</time>
      </trkpt>
      <trkpt lat="-11.5355200" lon="-76.7002340">
        <ele>1844.6</ele>
        <time>2022-09-11T22:19:56Z</time>
      </trkpt>
      <trkpt lat="-11.5355910" lon="-76.7002960">
        <ele>1843.9</ele>
        <time>2022-09-11T22:19:57Z</time>
      </trkpt>
      <trkpt lat="-11.5356540" lon="-76.7003630">
        <ele>1843.2</ele>
        <time>2022-09-11T22:19:58Z</time>
      </trkpt>
      <trkpt lat="-11.5357130" lon="-76.7004340">
        <ele>1842.5</ele>
        <time>2022-09-11T22:19:59Z</time>
      </trkpt>
      <trkpt lat="-11.5357660" lon="-76.7005020">
        <ele>1841.9</ele>
        <time>2022-09-11T22:20:00Z</time>
      </trkpt>
      <trkpt lat="-11.5358160" lon="-76.7005610">
        <ele>1841.4</ele>
        <time>2022-09-11T22:20:01Z</time>
      </trkpt>
      <trkpt lat="-11.5358580" lon="-76.7006150">
        <ele>1840.8</ele>
        <time>2022-09-11T22:20:02Z</time>
      </trkpt>
      <trkpt lat="-11.5358920" lon="-76.7006830">
        <ele>1840.2</ele>
        <time>2022-09-11T22:20:03Z</time>
      </trkpt>
      <trkpt lat="-11.5359320" lon="-76.7007580">
        <ele>1839.6</ele>
        <time>2022-09-11T22:20:04Z</time>
      </trkpt>
      <trkpt lat="-11.5359720" lon="-76.7008360">
        <ele>1838.8</ele>
        <time>2022-09-11T22:20:05Z</time>
      </trkpt>
      <trkpt lat="-11.5360130" lon="-76.7009170">
        <ele>1838.1</ele>
        <time>2022-09-11T22:20:06Z</time>
      </trkpt>
      <trkpt lat="-11.5360570" lon="-76.7009950">
        <ele>1837.4</ele>
        <time>2022-09-11T22:20:07Z</time>
      </trkpt>
      <trkpt lat="-11.5360990" lon="-76.7010730">
        <ele>1836.7</ele>
        <time>2022-09-11T22:20:08Z</time>
      </trkpt>
      <trkpt lat="-11.5361450" lon="-76.7011530">
        <ele>1835.9</ele>
        <time>2022-09-11T22:20:09Z</time>
      </trkpt>
      <trkpt lat="-11.5361900" lon="-76.7012330">
        <ele>1835.2</ele>
        <time>2022-09-11T22:20:10Z</time>
      </trkpt>
      <trkpt lat="-11.5362440" lon="-76.7013090">
        <ele>1834.5</ele>
        <time>2022-09-11T22:20:11Z</time>
      </trkpt>
      <trkpt lat="-11.5362970" lon="-76.7013850">
        <ele>1833.8</ele>
        <time>2022-09-11T22:20:12Z</time>
      </trkpt>
      <trkpt lat="-11.5363500" lon="-76.7014590">
        <ele>1833.1</ele>
        <time>2022-09-11T22:20:13Z</time>
      </trkpt>
      <trkpt lat="-11.5364020" lon="-76.7015270">
        <ele>1832.5</ele>
        <time>2022-09-11T22:20:14Z</time>
      </trkpt>
      <trkpt lat="-11.5364520" lon="-76.7015930">
        <ele>1831.9</ele>
        <time>2022-09-11T22:20:15Z</time>
      </trkpt>
      <trkpt lat="-11.5365030" lon="-76.7016560">
        <ele>1831.3</ele>
        <time>2022-09-11T22:20:16Z</time>
      </trkpt>
      <trkpt lat="-11.5365570" lon="-76.7017150">
        <ele>1830.8</ele>
        <time>2022-09-11T22:20:17Z</time>
      </trkpt>
      <trkpt lat="-11.5366140" lon="-76.7017740">
        <ele>1830.3</ele>
        <time>2022-09-11T22:20:18Z</time>
      </trkpt>
      <trkpt lat="-11.5366740" lon="-76.7018320">
        <ele>1829.8</ele>
        <time>2022-09-11T22:20:19Z</time>
      </trkpt>
      <trkpt lat="-11.5367400" lon="-76.7018890">
        <ele>1829.3</ele>
        <time>2022-09-11T22:20:20Z</time>
      </trkpt>
      <trkpt lat="-11.5368030" lon="-76.7019490">
        <ele>1828.9</ele>
        <time>2022-09-11T22:20:21Z</time>
      </trkpt>
      <trkpt lat="-11.5368670" lon="-76.7020060">
        <ele>1828.4</ele>
        <time>2022-09-11T22:20:22Z</time>
      </trkpt>
      <trkpt lat="-11.5369320" lon="-76.7020600">
        <ele>1828.0</ele>
        <time>2022-09-11T22:20:23Z</time>
      </trkpt>
      <trkpt lat="-11.5369970" lon="-76.7021140">
        <ele>1827.6</ele>
        <time>2022-09-11T22:20:24Z</time>
      </trkpt>
      <trkpt lat="-11.5370590" lon="-76.7021670">
        <ele>1827.2</ele>
        <time>2022-09-11T22:20:25Z</time>
      </trkpt>
      <trkpt lat="-11.5371220" lon="-76.7022200">
        <ele>1826.7</ele>
        <time>2022-09-11T22:20:26Z</time>
      </trkpt>
      <trkpt lat="-11.5371870" lon="-76.7022720">
        <ele>1826.2</ele>
        <time>2022-09-11T22:20:27Z</time>
      </trkpt>
      <trkpt lat="-11.5372530" lon="-76.7023200">
        <ele>1825.7</ele>
        <time>2022-09-11T22:20:28Z</time>
      </trkpt>
      <trkpt lat="-11.5373200" lon="-76.7023650">
        <ele>1825.2</ele>
        <time>2022-09-11T22:20:29Z</time>
      </trkpt>
      <trkpt lat="-11.5373900" lon="-76.7024050">
        <ele>1824.7</ele>
        <time>2022-09-11T22:20:30Z</time>
      </trkpt>
      <trkpt lat="-11.5374600" lon="-76.7024420">
        <ele>1824.2</ele>
        <time>2022-09-11T22:20:31Z</time>
      </trkpt>
      <trkpt lat="-11.5375290" lon="-76.7024810">
        <ele>1823.7</ele>
        <time>2022-09-11T22:20:32Z</time>
      </trkpt>
      <trkpt lat="-11.5375980" lon="-76.7025160">
        <ele>1823.3</ele>
        <time>2022-09-11T22:20:33Z</time>
      </trkpt>
      <trkpt lat="-11.5376700" lon="-76.7025480">
        <ele>1822.9</ele>
        <time>2022-09-11T22:20:34Z</time>
      </trkpt>
      <trkpt lat="-11.5377440" lon="-76.7025800">
        <ele>1822.5</ele>
        <time>2022-09-11T22:20:35Z</time>
      </trkpt>
      <trkpt lat="-11.5378180" lon="-76.7026100">
        <ele>1822.1</ele>
        <time>2022-09-11T22:20:36Z</time>
      </trkpt>
      <trkpt lat="-11.5378930" lon="-76.7026380">
        <ele>1821.7</ele>
        <time>2022-09-11T22:20:37Z</time>
      </trkpt>
      <trkpt lat="-11.5379660" lon="-76.7026660">
        <ele>1821.3</ele>
        <time>2022-09-11T22:20:38Z</time>
      </trkpt>
      <trkpt lat="-11.5380410" lon="-76.7026940">
        <ele>1820.8</ele>
        <time>2022-09-11T22:20:39Z</time>
      </trkpt>
      <trkpt lat="-11.5381160" lon="-76.7027240">
        <ele>1820.4</ele>
        <time>2022-09-11T22:20:40Z</time>
      </trkpt>
      <trkpt lat="-11.5381930" lon="-76.7027510">
        <ele>1820.0</ele>
        <time>2022-09-11T22:20:41Z</time>
      </trkpt>
      <trkpt lat="-11.5382690" lon="-76.7027820">
        <ele>1819.5</ele>
        <time>2022-09-11T22:20:42Z</time>
      </trkpt>
      <trkpt lat="-11.5383440" lon="-76.7028170">
        <ele>1819.1</ele>
        <time>2022-09-11T22:20:43Z</time>
      </trkpt>
      <trkpt lat="-11.5384200" lon="-76.7028590">
        <ele>1818.6</ele>
        <time>2022-09-11T22:20:44Z</time>
      </trkpt>
      <trkpt lat="-11.5384970" lon="-76.7029020">
        <ele>1818.1</ele>
        <time>2022-09-11T22:20:45Z</time>
      </trkpt>
      <trkpt lat="-11.5385740" lon="-76.7029470">
        <ele>1817.5</ele>
        <time>2022-09-11T22:20:46Z</time>
      </trkpt>
      <trkpt lat="-11.5386490" lon="-76.7029930">
        <ele>1817.0</ele>
        <time>2022-09-11T22:20:47Z</time>
      </trkpt>
      <trkpt lat="-11.5387240" lon="-76.7030400">
        <ele>1816.5</ele>
        <time>2022-09-11T22:20:48Z</time>
      </trkpt>
      <trkpt lat="-11.5387960" lon="-76.7030920">
        <ele>1816.0</ele>
        <time>2022-09-11T22:20:49Z</time>
      </trkpt>
      <trkpt lat="-11.5388550" lon="-76.7031530">
        <ele>1815.6</ele>
        <time>2022-09-11T22:20:50Z</time>
      </trkpt>
      <trkpt lat="-11.5389190" lon="-76.7032040">
        <ele>1815.2</ele>
        <time>2022-09-11T22:20:51Z</time>
      </trkpt>
      <trkpt lat="-11.5389780" lon="-76.7032540">
        <ele>1814.8</ele>
        <time>2022-09-11T22:20:52Z</time>
      </trkpt>
      <trkpt lat="-11.5390380" lon="-76.7033040">
        <ele>1814.4</ele>
        <time>2022-09-11T22:20:53Z</time>
      </trkpt>
      <trkpt lat="-11.5390990" lon="-76.7033550">
        <ele>1814.0</ele>
        <time>2022-09-11T22:20:54Z</time>
      </trkpt>
      <trkpt lat="-11.5391630" lon="-76.7034100">
        <ele>1813.6</ele>
        <time>2022-09-11T22:20:55Z</time>
      </trkpt>
      <trkpt lat="-11.5392280" lon="-76.7034630">
        <ele>1813.1</ele>
        <time>2022-09-11T22:20:56Z</time>
      </trkpt>
      <trkpt lat="-11.5392910" lon="-76.7035180">
        <ele>1812.7</ele>
        <time>2022-09-11T22:20:57Z</time>
      </trkpt>
      <trkpt lat="-11.5393520" lon="-76.7035740">
        <ele>1812.3</ele>
        <time>2022-09-11T22:20:58Z</time>
      </trkpt>
      <trkpt lat="-11.5394080" lon="-76.7036310">
        <ele>1811.9</ele>
        <time>2022-09-11T22:20:59Z</time>
      </trkpt>
      <trkpt lat="-11.5394600" lon="-76.7036920">
        <ele>1811.5</ele>
        <time>2022-09-11T22:21:00Z</time>
      </trkpt>
      <trkpt lat="-11.5395090" lon="-76.7037560">
        <ele>1811.1</ele>
        <time>2022-09-11T22:21:01Z</time>
      </trkpt>
      <trkpt lat="-11.5395580" lon="-76.7038220">
        <ele>1810.7</ele>
        <time>2022-09-11T22:21:02Z</time>
      </trkpt>
      <trkpt lat="-11.5396080" lon="-76.7038850">
        <ele>1810.3</ele>
        <time>2022-09-11T22:21:03Z</time>
      </trkpt>
      <trkpt lat="-11.5396480" lon="-76.7039590">
        <ele>1809.9</ele>
        <time>2022-09-11T22:21:04Z</time>
      </trkpt>
      <trkpt lat="-11.5396830" lon="-76.7040380">
        <ele>1809.5</ele>
        <time>2022-09-11T22:21:05Z</time>
      </trkpt>
      <trkpt lat="-11.5397140" lon="-76.7041230">
        <ele>1809.0</ele>
        <time>2022-09-11T22:21:06Z</time>
      </trkpt>
      <trkpt lat="-11.5397410" lon="-76.7042150">
        <ele>1808.5</ele>
        <time>2022-09-11T22:21:07Z</time>
      </trkpt>
      <trkpt lat="-11.5397630" lon="-76.7043070">
        <ele>1808.0</ele>
        <time>2022-09-11T22:21:08Z</time>
      </trkpt>
      <trkpt lat="-11.5397810" lon="-76.7043980">
        <ele>1807.5</ele>
        <time>2022-09-11T22:21:09Z</time>
      </trkpt>
      <trkpt lat="-11.5397960" lon="-76.7044880">
        <ele>1807.0</ele>
        <time>2022-09-11T22:21:10Z</time>
      </trkpt>
      <trkpt lat="-11.5398100" lon="-76.7045760">
        <ele>1806.5</ele>
        <time>2022-09-11T22:21:11Z</time>
      </trkpt>
      <trkpt lat="-11.5398240" lon="-76.7046580">
        <ele>1806.1</ele>
        <time>2022-09-11T22:21:12Z</time>
      </trkpt>
      <trkpt lat="-11.5398380" lon="-76.7047360">
        <ele>1805.6</ele>
        <time>2022-09-11T22:21:13Z</time>
      </trkpt>
      <trkpt lat="-11.5398520" lon="-76.7048150">
        <ele>1805.1</ele>
        <time>2022-09-11T22:21:14Z</time>
      </trkpt>
      <trkpt lat="-11.5398670" lon="-76.7048960">
        <ele>1804.6</ele>
        <time>2022-09-11T22:21:15Z</time>
      </trkpt>
      <trkpt lat="-11.5398830" lon="-76.7049730">
        <ele>1804.2</ele>
        <time>2022-09-11T22:21:16Z</time>
      </trkpt>
      <trkpt lat="-11.5399020" lon="-76.7050440">
        <ele>1803.8</ele>
        <time>2022-09-11T22:21:17Z</time>
      </trkpt>
      <trkpt lat="-11.5399220" lon="-76.7051130">
        <ele>1803.4</ele>
        <time>2022-09-11T22:21:18Z</time>
      </trkpt>
      <trkpt lat="-11.5399450" lon="-76.7051830">
        <ele>1803.0</ele>
        <time>2022-09-11T22:21:19Z</time>
      </trkpt>
      <trkpt lat="-11.5399690" lon="-76.7052530">
        <ele>1802.6</ele>
        <time>2022-09-11T22:21:20Z</time>
      </trkpt>
      <trkpt lat="-11.5399950" lon="-76.7053260">
        <ele>1802.2</ele>
        <time>2022-09-11T22:21:21Z</time>
      </trkpt>
      <trkpt lat="-11.5400210" lon="-76.7054010">
        <ele>1801.8</ele>
        <time>2022-09-11T22:21:22Z</time>
      </trkpt>
      <trkpt lat="-11.5400500" lon="-76.7054740">
        <ele>1801.3</ele>
        <time>2022-09-11T22:21:23Z</time>
      </trkpt>
      <trkpt lat="-11.5400780" lon="-76.7055510">
        <ele>1800.9</ele>
        <time>2022-09-11T22:21:24Z</time>
      </trkpt>
      <trkpt lat="-11.5401050" lon="-76.7056310">
        <ele>1800.4</ele>
        <time>2022-09-11T22:21:25Z</time>
      </trkpt>
      <trkpt lat="-11.5401320" lon="-76.7057130">
        <ele>1799.8</ele>
        <time>2022-09-11T22:21:26Z</time>
      </trkpt>
      <trkpt lat="-11.5401590" lon="-76.7057930">
        <ele>1799.3</ele>
        <time>2022-09-11T22:21:27Z</time>
      </trkpt>
      <trkpt lat="-11.5401880" lon="-76.7058720">
        <ele>1798.9</ele>
        <time>2022-09-11T22:21:28Z</time>
      </trkpt>
      <trkpt lat="-11.5402160" lon="-76.7059500">
        <ele>1798.4</ele>
        <time>2022-09-11T22:21:29Z</time>
      </trkpt>
      <trkpt lat="-11.5402710" lon="-76.7061130">
        <ele>1797.4</ele>
        <time>2022-09-11T22:21:31Z</time>
      </trkpt>
      <trkpt lat="-11.5403030" lon="-76.7062010">
        <ele>1796.9</ele>
        <time>2022-09-11T22:21:32Z</time>
      </trkpt>
      <trkpt lat="-11.5403310" lon="-76.7062910">
        <ele>1796.4</ele>
        <time>2022-09-11T22:21:33Z</time>
      </trkpt>
      <trkpt lat="-11.5403520" lon="-76.7063920">
        <ele>1795.8</ele>
        <time>2022-09-11T22:21:34Z</time>
      </trkpt>
      <trkpt lat="-11.5403720" lon="-76.7064900">
        <ele>1795.1</ele>
        <time>2022-09-11T22:21:35Z</time>
      </trkpt>
      <trkpt lat="-11.5403840" lon="-76.7065870">
        <ele>1794.5</ele>
        <time>2022-09-11T22:21:36Z</time>
      </trkpt>
      <trkpt lat="-11.5403940" lon="-76.7066900">
        <ele>1793.7</ele>
        <time>2022-09-11T22:21:37Z</time>
      </trkpt>
      <trkpt lat="-11.5404000" lon="-76.7067880">
        <ele>1793.0</ele>
        <time>2022-09-11T22:21:38Z</time>
      </trkpt>
      <trkpt lat="-11.5403990" lon="-76.7068870">
        <ele>1792.2</ele>
        <time>2022-09-11T22:21:39Z</time>
      </trkpt>
      <trkpt lat="-11.5403950" lon="-76.7069810">
        <ele>1791.3</ele>
        <time>2022-09-11T22:21:40Z</time>
      </trkpt>
      <trkpt lat="-11.5403950" lon="-76.7070670">
        <ele>1790.5</ele>
        <time>2022-09-11T22:21:41Z</time>
      </trkpt>
      <trkpt lat="-11.5403950" lon="-76.7071530">
        <ele>1789.7</ele>
        <time>2022-09-11T22:21:42Z</time>
      </trkpt>
      <trkpt lat="-11.5403940" lon="-76.7072390">
        <ele>1788.9</ele>
        <time>2022-09-11T22:21:43Z</time>
      </trkpt>
      <trkpt lat="-11.5403900" lon="-76.7073310">
        <ele>1788.1</ele>
        <time>2022-09-11T22:21:44Z</time>
      </trkpt>
      <trkpt lat="-11.5403860" lon="-76.7074250">
        <ele>1787.4</ele>
        <time>2022-09-11T22:21:45Z</time>
      </trkpt>
      <trkpt lat="-11.5403840" lon="-76.7075230">
        <ele>1786.8</ele>
        <time>2022-09-11T22:21:46Z</time>
      </trkpt>
      <trkpt lat="-11.5403820" lon="-76.7076250">
        <ele>1786.4</ele>
        <time>2022-09-11T22:21:47Z</time>
      </trkpt>
      <trkpt lat="-11.5403850" lon="-76.7077240">
        <ele>1786.1</ele>
        <time>2022-09-11T22:21:48Z</time>
      </trkpt>
      <trkpt lat="-11.5403920" lon="-76.7078230">
        <ele>1786.0</ele>
        <time>2022-09-11T22:21:49Z</time>
      </trkpt>
      <trkpt lat="-11.5403960" lon="-76.7079190">
        <ele>1786.1</ele>
        <time>2022-09-11T22:21:50Z</time>
      </trkpt>
      <trkpt lat="-11.5403950" lon="-76.7080130">
        <ele>1786.2</ele>
        <time>2022-09-11T22:21:51Z</time>
      </trkpt>
      <trkpt lat="-11.5403920" lon="-76.7081020">
        <ele>1786.2</ele>
        <time>2022-09-11T22:21:52Z</time>
      </trkpt>
      <trkpt lat="-11.5403820" lon="-76.7081860">
        <ele>1786.2</ele>
        <time>2022-09-11T22:21:53Z</time>
      </trkpt>
      <trkpt lat="-11.5403730" lon="-76.7082710">
        <ele>1785.9</ele>
        <time>2022-09-11T22:21:54Z</time>
      </trkpt>
      <trkpt lat="-11.5403620" lon="-76.7083550">
        <ele>1785.6</ele>
        <time>2022-09-11T22:21:55Z</time>
      </trkpt>
      <trkpt lat="-11.5403480" lon="-76.7084400">
        <ele>1785.1</ele>
        <time>2022-09-11T22:21:56Z</time>
      </trkpt>
      <trkpt lat="-11.5403320" lon="-76.7085230">
        <ele>1784.6</ele>
        <time>2022-09-11T22:21:57Z</time>
      </trkpt>
      <trkpt lat="-11.5403290" lon="-76.7086060">
        <ele>1784.2</ele>
        <time>2022-09-11T22:21:58Z</time>
      </trkpt>
      <trkpt lat="-11.5403400" lon="-76.7086880">
        <ele>1783.7</ele>
        <time>2022-09-11T22:21:59Z</time>
      </trkpt>
      <trkpt lat="-11.5403570" lon="-76.7087700">
        <ele>1783.3</ele>
        <time>2022-09-11T22:22:00Z</time>
      </trkpt>
      <trkpt lat="-11.5403760" lon="-76.7088550">
        <ele>1782.9</ele>
        <time>2022-09-11T22:22:01Z</time>
      </trkpt>
      <trkpt lat="-11.5403930" lon="-76.7089400">
        <ele>1782.5</ele>
        <time>2022-09-11T22:22:02Z</time>
      </trkpt>
      <trkpt lat="-11.5404090" lon="-76.7090220">
        <ele>1782.1</ele>
        <time>2022-09-11T22:22:03Z</time>
      </trkpt>
      <trkpt lat="-11.5404320" lon="-76.7091050">
        <ele>1781.6</ele>
        <time>2022-09-11T22:22:04Z</time>
      </trkpt>
      <trkpt lat="-11.5404620" lon="-76.7091860">
        <ele>1781.1</ele>
        <time>2022-09-11T22:22:05Z</time>
      </trkpt>
      <trkpt lat="-11.5404930" lon="-76.7092690">
        <ele>1780.6</ele>
        <time>2022-09-11T22:22:06Z</time>
      </trkpt>
      <trkpt lat="-11.5405280" lon="-76.7093490">
        <ele>1780.1</ele>
        <time>2022-09-11T22:22:07Z</time>
      </trkpt>
      <trkpt lat="-11.5405640" lon="-76.7094350">
        <ele>1779.7</ele>
        <time>2022-09-11T22:22:08Z</time>
      </trkpt>
      <trkpt lat="-11.5406030" lon="-76.7095180">
        <ele>1779.3</ele>
        <time>2022-09-11T22:22:09Z</time>
      </trkpt>
      <trkpt lat="-11.5406440" lon="-76.7096000">
        <ele>1778.9</ele>
        <time>2022-09-11T22:22:10Z</time>
      </trkpt>
      <trkpt lat="-11.5406810" lon="-76.7096820">
        <ele>1778.7</ele>
        <time>2022-09-11T22:22:11Z</time>
      </trkpt>
      <trkpt lat="-11.5407210" lon="-76.7097620">
        <ele>1778.5</ele>
        <time>2022-09-11T22:22:12Z</time>
      </trkpt>
      <trkpt lat="-11.5407580" lon="-76.7098400">
        <ele>1778.2</ele>
        <time>2022-09-11T22:22:13Z</time>
      </trkpt>
      <trkpt lat="-11.5407970" lon="-76.7099160">
        <ele>1777.9</ele>
        <time>2022-09-11T22:22:14Z</time>
      </trkpt>
      <trkpt lat="-11.5408410" lon="-76.7099880">
        <ele>1777.7</ele>
        <time>2022-09-11T22:22:15Z</time>
      </trkpt>
      <trkpt lat="-11.5408890" lon="-76.7100570">
        <ele>1777.3</ele>
        <time>2022-09-11T22:22:16Z</time>
      </trkpt>
      <trkpt lat="-11.5409420" lon="-76.7101200">
        <ele>1777.0</ele>
        <time>2022-09-11T22:22:17Z</time>
      </trkpt>
      <trkpt lat="-11.5409940" lon="-76.7101810">
        <ele>1776.6</ele>
        <time>2022-09-11T22:22:18Z</time>
      </trkpt>
      <trkpt lat="-11.5410570" lon="-76.7102380">
        <ele>1776.2</ele>
        <time>2022-09-11T22:22:19Z</time>
      </trkpt>
      <trkpt lat="-11.5411180" lon="-76.7102910">
        <ele>1775.8</ele>
        <time>2022-09-11T22:22:20Z</time>
      </trkpt>
      <trkpt lat="-11.5411850" lon="-76.7103410">
        <ele>1775.3</ele>
        <time>2022-09-11T22:22:21Z</time>
      </trkpt>
      <trkpt lat="-11.5412550" lon="-76.7103850">
        <ele>1774.8</ele>
        <time>2022-09-11T22:22:22Z</time>
      </trkpt>
      <trkpt lat="-11.5413260" lon="-76.7104240">
        <ele>1774.3</ele>
        <time>2022-09-11T22:22:23Z</time>
      </trkpt>
      <trkpt lat="-11.5414040" lon="-76.7104580">
        <ele>1773.7</ele>
        <time>2022-09-11T22:22:24Z</time>
      </trkpt>
      <trkpt lat="-11.5415470" lon="-76.7105220">
        <ele>1772.6</ele>
        <time>2022-09-11T22:22:26Z</time>
      </trkpt>
      <trkpt lat="-11.5416430" lon="-76.7105340">
        <ele>1771.9</ele>
        <time>2022-09-11T22:22:27Z</time>
      </trkpt>
      <trkpt lat="-11.5417320" lon="-76.7105520">
        <ele>1771.2</ele>
        <time>2022-09-11T22:22:28Z</time>
      </trkpt>
      <trkpt lat="-11.5418230" lon="-76.7105680">
        <ele>1770.5</ele>
        <time>2022-09-11T22:22:29Z</time>
      </trkpt>
      <trkpt lat="-11.5419140" lon="-76.7105890">
        <ele>1769.7</ele>
        <time>2022-09-11T22:22:30Z</time>
      </trkpt>
      <trkpt lat="-11.5420030" lon="-76.7106090">
        <ele>1768.9</ele>
        <time>2022-09-11T22:22:31Z</time>
      </trkpt>
      <trkpt lat="-11.5420970" lon="-76.7106290">
        <ele>1768.1</ele>
        <time>2022-09-11T22:22:32Z</time>
      </trkpt>
      <trkpt lat="-11.5421870" lon="-76.7106580">
        <ele>1767.2</ele>
        <time>2022-09-11T22:22:33Z</time>
      </trkpt>
      <trkpt lat="-11.5422840" lon="-76.7106820">
        <ele>1766.3</ele>
        <time>2022-09-11T22:22:34Z</time>
      </trkpt>
      <trkpt lat="-11.5423830" lon="-76.7107160">
        <ele>1765.3</ele>
        <time>2022-09-11T22:22:35Z</time>
      </trkpt>
      <trkpt lat="-11.5424870" lon="-76.7107500">
        <ele>1764.4</ele>
        <time>2022-09-11T22:22:36Z</time>
      </trkpt>
      <trkpt lat="-11.5426140" lon="-76.7107620">
        <ele>1763.3</ele>
        <time>2022-09-11T22:22:37Z</time>
      </trkpt>
      <trkpt lat="-11.5427120" lon="-76.7108080">
        <ele>1762.6</ele>
        <time>2022-09-11T22:22:38Z</time>
      </trkpt>
      <trkpt lat="-11.5428310" lon="-76.7108300">
        <ele>1762.0</ele>
        <time>2022-09-11T22:22:39Z</time>
      </trkpt>
      <trkpt lat="-11.5429410" lon="-76.7108630">
        <ele>1761.6</ele>
        <time>2022-09-11T22:22:40Z</time>
      </trkpt>
      <trkpt lat="-11.5430330" lon="-76.7109140">
        <ele>1761.5</ele>
        <time>2022-09-11T22:22:41Z</time>
      </trkpt>
      <trkpt lat="-11.5431280" lon="-76.7109550">
        <ele>1761.5</ele>
        <time>2022-09-11T22:22:42Z</time>
      </trkpt>
      <trkpt lat="-11.5432240" lon="-76.7109900">
        <ele>1761.6</ele>
        <time>2022-09-11T22:22:43Z</time>
      </trkpt>
      <trkpt lat="-11.5433130" lon="-76.7110240">
        <ele>1761.6</ele>
        <time>2022-09-11T22:22:44Z</time>
      </trkpt>
      <trkpt lat="-11.5433940" lon="-76.7110620">
        <ele>1761.4</ele>
        <time>2022-09-11T22:22:45Z</time>
      </trkpt>
      <trkpt lat="-11.5434700" lon="-76.7111060">
        <ele>1761.1</ele>
        <time>2022-09-11T22:22:46Z</time>
      </trkpt>
      <trkpt lat="-11.5435430" lon="-76.7111590">
        <ele>1760.6</ele>
        <time>2022-09-11T22:22:47Z</time>
      </trkpt>
      <trkpt lat="-11.5436110" lon="-76.7112260">
        <ele>1759.9</ele>
        <time>2022-09-11T22:22:48Z</time>
      </trkpt>
      <trkpt lat="-11.5436730" lon="-76.7113040">
        <ele>1759.2</ele>
        <time>2022-09-11T22:22:49Z</time>
      </trkpt>
      <trkpt lat="-11.5437290" lon="-76.7113870">
        <ele>1758.5</ele>
        <time>2022-09-11T22:22:50Z</time>
      </trkpt>
      <trkpt lat="-11.5437700" lon="-76.7114910">
        <ele>1757.7</ele>
        <time>2022-09-11T22:22:51Z</time>
      </trkpt>
      <trkpt lat="-11.5438090" lon="-76.7115930">
        <ele>1757.0</ele>
        <time>2022-09-11T22:22:52Z</time>
      </trkpt>
      <trkpt lat="-11.5438370" lon="-76.7117030">
        <ele>1756.2</ele>
        <time>2022-09-11T22:22:53Z</time>
      </trkpt>
      <trkpt lat="-11.5438760" lon="-76.7117990">
        <ele>1755.5</ele>
        <time>2022-09-11T22:22:54Z</time>
      </trkpt>
      <trkpt lat="-11.5439180" lon="-76.7118900">
        <ele>1754.9</ele>
        <time>2022-09-11T22:22:55Z</time>
      </trkpt>
      <trkpt lat="-11.5439630" lon="-76.7119800">
        <ele>1754.2</ele>
        <time>2022-09-11T22:22:56Z</time>
      </trkpt>
      <trkpt lat="-11.5440140" lon="-76.7120660">
        <ele>1753.6</ele>
        <time>2022-09-11T22:22:57Z</time>
      </trkpt>
      <trkpt lat="-11.5440720" lon="-76.7121450">
        <ele>1753.0</ele>
        <time>2022-09-11T22:22:58Z</time>
      </trkpt>
      <trkpt lat="-11.5441340" lon="-76.7122190">
        <ele>1752.4</ele>
        <time>2022-09-11T22:22:59Z</time>
      </trkpt>
      <trkpt lat="-11.5442040" lon="-76.7122890">
        <ele>1751.7</ele>
        <time>2022-09-11T22:23:00Z</time>
      </trkpt>
      <trkpt lat="-11.5442780" lon="-76.7123520">
        <ele>1751.1</ele>
        <time>2022-09-11T22:23:01Z</time>
      </trkpt>
      <trkpt lat="-11.5443590" lon="-76.7124060">
        <ele>1750.5</ele>
        <time>2022-09-11T22:23:02Z</time>
      </trkpt>
      <trkpt lat="-11.5444450" lon="-76.7124520">
        <ele>1749.8</ele>
        <time>2022-09-11T22:23:03Z</time>
      </trkpt>
      <trkpt lat="-11.5445420" lon="-76.7124810">
        <ele>1749.1</ele>
        <time>2022-09-11T22:23:04Z</time>
      </trkpt>
      <trkpt lat="-11.5446390" lon="-76.7125060">
        <ele>1748.7</ele>
        <time>2022-09-11T22:23:05Z</time>
      </trkpt>
      <trkpt lat="-11.5447380" lon="-76.7125310">
        <ele>1748.2</ele>
        <time>2022-09-11T22:23:06Z</time>
      </trkpt>
      <trkpt lat="-11.5448370" lon="-76.7125560">
        <ele>1747.6</ele>
        <time>2022-09-11T22:23:07Z</time>
      </trkpt>
      <trkpt lat="-11.5449370" lon="-76.7125750">
        <ele>1747.0</ele>
        <time>2022-09-11T22:23:08Z</time>
      </trkpt>
      <trkpt lat="-11.5450430" lon="-76.7125900">
        <ele>1746.5</ele>
        <time>2022-09-11T22:23:09Z</time>
      </trkpt>
      <trkpt lat="-11.5451440" lon="-76.7126110">
        <ele>1746.0</ele>
        <time>2022-09-11T22:23:10Z</time>
      </trkpt>
      <trkpt lat="-11.5452440" lon="-76.7126350">
        <ele>1745.4</ele>
        <time>2022-09-11T22:23:11Z</time>
      </trkpt>
      <trkpt lat="-11.5453350" lon="-76.7126710">
        <ele>1745.0</ele>
        <time>2022-09-11T22:23:12Z</time>
      </trkpt>
      <trkpt lat="-11.5454230" lon="-76.7127140">
        <ele>1744.6</ele>
        <time>2022-09-11T22:23:13Z</time>
      </trkpt>
      <trkpt lat="-11.5455100" lon="-76.7127650">
        <ele>1744.3</ele>
        <time>2022-09-11T22:23:14Z</time>
      </trkpt>
      <trkpt lat="-11.5455940" lon="-76.7128190">
        <ele>1744.0</ele>
        <time>2022-09-11T22:23:15Z</time>
      </trkpt>
      <trkpt lat="-11.5456750" lon="-76.7128770">
        <ele>1743.6</ele>
        <time>2022-09-11T22:23:16Z</time>
      </trkpt>
      <trkpt lat="-11.5457480" lon="-76.7129450">
        <ele>1743.3</ele>
        <time>2022-09-11T22:23:17Z</time>
      </trkpt>
      <trkpt lat="-11.5458170" lon="-76.7130120">
        <ele>1743.0</ele>
        <time>2022-09-11T22:23:18Z</time>
      </trkpt>
      <trkpt lat="-11.5458840" lon="-76.7130810">
        <ele>1742.6</ele>
        <time>2022-09-11T22:23:19Z</time>
      </trkpt>
      <trkpt lat="-11.5459530" lon="-76.7131490">
        <ele>1742.3</ele>
        <time>2022-09-11T22:23:20Z</time>
      </trkpt>
      <trkpt lat="-11.5460190" lon="-76.7132180">
        <ele>1741.9</ele>
        <time>2022-09-11T22:23:21Z</time>
      </trkpt>
      <trkpt lat="-11.5460870" lon="-76.7132850">
        <ele>1741.5</ele>
        <time>2022-09-11T22:23:22Z</time>
      </trkpt>
      <trkpt lat="-11.5461550" lon="-76.7133520">
        <ele>1741.0</ele>
        <time>2022-09-11T22:23:23Z</time>
      </trkpt>
      <trkpt lat="-11.5462230" lon="-76.7134180">
        <ele>1740.5</ele>
        <time>2022-09-11T22:23:24Z</time>
      </trkpt>
      <trkpt lat="-11.5462930" lon="-76.7134790">
        <ele>1740.0</ele>
        <time>2022-09-11T22:23:25Z</time>
      </trkpt>
      <trkpt lat="-11.5463680" lon="-76.7135370">
        <ele>1739.5</ele>
        <time>2022-09-11T22:23:26Z</time>
      </trkpt>
      <trkpt lat="-11.5464420" lon="-76.7135940">
        <ele>1739.0</ele>
        <time>2022-09-11T22:23:27Z</time>
      </trkpt>
      <trkpt lat="-11.5465140" lon="-76.7136460">
        <ele>1738.5</ele>
        <time>2022-09-11T22:23:28Z</time>
      </trkpt>
      <trkpt lat="-11.5465810" lon="-76.7136940">
        <ele>1737.9</ele>
        <time>2022-09-11T22:23:29Z</time>
      </trkpt>
      <trkpt lat="-11.5466640" lon="-76.7137210">
        <ele>1737.3</ele>
        <time>2022-09-11T22:23:30Z</time>
      </trkpt>
      <trkpt lat="-11.5467630" lon="-76.7137280">
        <ele>1736.6</ele>
        <time>2022-09-11T22:23:31Z</time>
      </trkpt>
      <trkpt lat="-11.5468640" lon="-76.7137440">
        <ele>1735.8</ele>
        <time>2022-09-11T22:23:32Z</time>
      </trkpt>
      <trkpt lat="-11.5469610" lon="-76.7137710">
        <ele>1735.1</ele>
        <time>2022-09-11T22:23:33Z</time>
      </trkpt>
      <trkpt lat="-11.5470570" lon="-76.7138040">
        <ele>1734.4</ele>
        <time>2022-09-11T22:23:34Z</time>
      </trkpt>
      <trkpt lat="-11.5471530" lon="-76.7138350">
        <ele>1733.7</ele>
        <time>2022-09-11T22:23:35Z</time>
      </trkpt>
      <trkpt lat="-11.5472530" lon="-76.7138640">
        <ele>1732.9</ele>
        <time>2022-09-11T22:23:36Z</time>
      </trkpt>
      <trkpt lat="-11.5473540" lon="-76.7138930">
        <ele>1732.3</ele>
        <time>2022-09-11T22:23:37Z</time>
      </trkpt>
      <trkpt lat="-11.5474600" lon="-76.7139260">
        <ele>1731.5</ele>
        <time>2022-09-11T22:23:38Z</time>
      </trkpt>
      <trkpt lat="-11.5475670" lon="-76.7139550">
        <ele>1730.8</ele>
        <time>2022-09-11T22:23:39Z</time>
      </trkpt>
      <trkpt lat="-11.5476750" lon="-76.7139850">
        <ele>1730.1</ele>
        <time>2022-09-11T22:23:40Z</time>
      </trkpt>
      <trkpt lat="-11.5478000" lon="-76.7140150">
        <ele>1729.2</ele>
        <time>2022-09-11T22:23:41Z</time>
      </trkpt>
      <trkpt lat="-11.5479140" lon="-76.7140460">
        <ele>1728.5</ele>
        <time>2022-09-11T22:23:42Z</time>
      </trkpt>
      <trkpt lat="-11.5480200" lon="-76.7140770">
        <ele>1727.8</ele>
        <time>2022-09-11T22:23:43Z</time>
      </trkpt>
      <trkpt lat="-11.5481240" lon="-76.7140990">
        <ele>1727.2</ele>
        <time>2022-09-11T22:23:44Z</time>
      </trkpt>
      <trkpt lat="-11.5482300" lon="-76.7141110">
        <ele>1726.7</ele>
        <time>2022-09-11T22:23:45Z</time>
      </trkpt>
      <trkpt lat="-11.5483300" lon="-76.7141130">
        <ele>1726.2</ele>
        <time>2022-09-11T22:23:46Z</time>
      </trkpt>
      <trkpt lat="-11.5484260" lon="-76.7141080">
        <ele>1725.7</ele>
        <time>2022-09-11T22:23:47Z</time>
      </trkpt>
      <trkpt lat="-11.5485180" lon="-76.7141030">
        <ele>1725.2</ele>
        <time>2022-09-11T22:23:48Z</time>
      </trkpt>
      <trkpt lat="-11.5486120" lon="-76.7140940">
        <ele>1724.7</ele>
        <time>2022-09-11T22:23:49Z</time>
      </trkpt>
      <trkpt lat="-11.5487060" lon="-76.7140760">
        <ele>1724.3</ele>
        <time>2022-09-11T22:23:50Z</time>
      </trkpt>
      <trkpt lat="-11.5487980" lon="-76.7140520">
        <ele>1723.8</ele>
        <time>2022-09-11T22:23:51Z</time>
      </trkpt>
      <trkpt lat="-11.5488850" lon="-76.7140330">
        <ele>1723.4</ele>
        <time>2022-09-11T22:23:52Z</time>
      </trkpt>
      <trkpt lat="-11.5489560" lon="-76.7140190">
        <ele>1723.1</ele>
        <time>2022-09-11T22:23:53Z</time>
      </trkpt>
      <trkpt lat="-11.5490110" lon="-76.7140070">
        <ele>1722.9</ele>
        <time>2022-09-11T22:23:54Z</time>
      </trkpt>
      <trkpt lat="-11.5490520" lon="-76.7139930">
        <ele>1722.7</ele>
        <time>2022-09-11T22:23:55Z</time>
      </trkpt>
      <trkpt lat="-11.5490910" lon="-76.7139780">
        <ele>1722.5</ele>
        <time>2022-09-11T22:23:56Z</time>
      </trkpt>
      <trkpt lat="-11.5491180" lon="-76.7139660">
        <ele>1722.4</ele>
        <time>2022-09-11T22:23:57Z</time>
      </trkpt>
      <trkpt lat="-11.5491700" lon="-76.7139490">
        <ele>1722.2</ele>
        <time>2022-09-11T22:23:58Z</time>
      </trkpt>
      <trkpt lat="-11.5492150" lon="-76.7139390">
        <ele>1722.0</ele>
        <time>2022-09-11T22:23:59Z</time>
      </trkpt>
      <trkpt lat="-11.5492560" lon="-76.7139280">
        <ele>1721.9</ele>
        <time>2022-09-11T22:24:00Z</time>
      </trkpt>
      <trkpt lat="-11.5493170" lon="-76.7139160">
        <ele>1721.6</ele>
        <time>2022-09-11T22:24:01Z</time>
      </trkpt>
      <trkpt lat="-11.5493790" lon="-76.7139060">
        <ele>1721.4</ele>
        <time>2022-09-11T22:24:02Z</time>
      </trkpt>
      <trkpt lat="-11.5494430" lon="-76.7138950">
        <ele>1721.1</ele>
        <time>2022-09-11T22:24:03Z</time>
      </trkpt>
      <trkpt lat="-11.5495060" lon="-76.7138920">
        <ele>1720.8</ele>
        <time>2022-09-11T22:24:04Z</time>
      </trkpt>
      <trkpt lat="-11.5495690" lon="-76.7138900">
        <ele>1720.6</ele>
        <time>2022-09-11T22:24:05Z</time>
      </trkpt>
      <trkpt lat="-11.5496400" lon="-76.7138980">
        <ele>1720.2</ele>
        <time>2022-09-11T22:24:06Z</time>
      </trkpt>
      <trkpt lat="-11.5497150" lon="-76.7139030">
        <ele>1719.8</ele>
        <time>2022-09-11T22:24:07Z</time>
      </trkpt>
      <trkpt lat="-11.5497950" lon="-76.7139080">
        <ele>1719.4</ele>
        <time>2022-09-11T22:24:08Z</time>
      </trkpt>
      <trkpt lat="-11.5498720" lon="-76.7139200">
        <ele>1719.0</ele>
        <time>2022-09-11T22:24:09Z</time>
      </trkpt>
      <trkpt lat="-11.5499470" lon="-76.7139450">
        <ele>1718.6</ele>
        <time>2022-09-11T22:24:10Z</time>
      </trkpt>
      <trkpt lat="-11.5500190" lon="-76.7139760">
        <ele>1718.3</ele>
        <time>2022-09-11T22:24:11Z</time>
      </trkpt>
      <trkpt lat="-11.5500880" lon="-76.7140100">
        <ele>1718.0</ele>
        <time>2022-09-11T22:24:12Z</time>
      </trkpt>
      <trkpt lat="-11.5501570" lon="-76.7140550">
        <ele>1717.6</ele>
        <time>2022-09-11T22:24:13Z</time>
      </trkpt>
      <trkpt lat="-11.5502260" lon="-76.7141050">
        <ele>1717.3</ele>
        <time>2022-09-11T22:24:14Z</time>
      </trkpt>
      <trkpt lat="-11.5502900" lon="-76.7141590">
        <ele>1716.9</ele>
        <time>2022-09-11T22:24:15Z</time>
      </trkpt>
      <trkpt lat="-11.5503530" lon="-76.7142210">
        <ele>1716.5</ele>
        <time>2022-09-11T22:24:16Z</time>
      </trkpt>
      <trkpt lat="-11.5504080" lon="-76.7142870">
        <ele>1716.2</ele>
        <time>2022-09-11T22:24:17Z</time>
      </trkpt>
      <trkpt lat="-11.5504680" lon="-76.7143550">
        <ele>1715.7</ele>
        <time>2022-09-11T22:24:18Z</time>
      </trkpt>
      <trkpt lat="-11.5505280" lon="-76.7143910">
        <ele>1715.4</ele>
        <time>2022-09-11T22:24:19Z</time>
      </trkpt>
      <trkpt lat="-11.5505880" lon="-76.7144330">
        <ele>1715.0</ele>
        <time>2022-09-11T22:24:20Z</time>
      </trkpt>
      <trkpt lat="-11.5506480" lon="-76.7144810">
        <ele>1714.6</ele>
        <time>2022-09-11T22:24:21Z</time>
      </trkpt>
      <trkpt lat="-11.5507100" lon="-76.7145310">
        <ele>1714.3</ele>
        <time>2022-09-11T22:24:22Z</time>
      </trkpt>
      <trkpt lat="-11.5507720" lon="-76.7145810">
        <ele>1713.9</ele>
        <time>2022-09-11T22:24:23Z</time>
      </trkpt>
      <trkpt lat="-11.5508360" lon="-76.7146280">
        <ele>1713.5</ele>
        <time>2022-09-11T22:24:24Z</time>
      </trkpt>
      <trkpt lat="-11.5509020" lon="-76.7146700">
        <ele>1713.1</ele>
        <time>2022-09-11T22:24:25Z</time>
      </trkpt>
      <trkpt lat="-11.5509730" lon="-76.7147090">
        <ele>1712.7</ele>
        <time>2022-09-11T22:24:26Z</time>
      </trkpt>
      <trkpt lat="-11.5510460" lon="-76.7147450">
        <ele>1712.3</ele>
        <time>2022-09-11T22:24:27Z</time>
      </trkpt>
      <trkpt lat="-11.5511170" lon="-76.7147800">
        <ele>1711.9</ele>
        <time>2022-09-11T22:24:28Z</time>
      </trkpt>
      <trkpt lat="-11.5511890" lon="-76.7148060">
        <ele>1711.5</ele>
        <time>2022-09-11T22:24:29Z</time>
      </trkpt>
      <trkpt lat="-11.5512650" lon="-76.7148310">
        <ele>1711.1</ele>
        <time>2022-09-11T22:24:30Z</time>
      </trkpt>
      <trkpt lat="-11.5513440" lon="-76.7148530">
        <ele>1710.7</ele>
        <time>2022-09-11T22:24:31Z</time>
      </trkpt>
      <trkpt lat="-11.5514210" lon="-76.7148720">
        <ele>1710.4</ele>
        <time>2022-09-11T22:24:32Z</time>
      </trkpt>
      <trkpt lat="-11.5514980" lon="-76.7148910">
        <ele>1710.0</ele>
        <time>2022-09-11T22:24:33Z</time>
      </trkpt>
      <trkpt lat="-11.5515760" lon="-76.7149010">
        <ele>1709.7</ele>
        <time>2022-09-11T22:24:34Z</time>
      </trkpt>
      <trkpt lat="-11.5516520" lon="-76.7149080">
        <ele>1709.4</ele>
        <time>2022-09-11T22:24:35Z</time>
      </trkpt>
      <trkpt lat="-11.5517310" lon="-76.7149160">
        <ele>1709.0</ele>
        <time>2022-09-11T22:24:36Z</time>
      </trkpt>
      <trkpt lat="-11.5518130" lon="-76.7149240">
        <ele>1708.6</ele>
        <time>2022-09-11T22:24:37Z</time>
      </trkpt>
      <trkpt lat="-11.5518950" lon="-76.7149360">
        <ele>1708.3</ele>
        <time>2022-09-11T22:24:38Z</time>
      </trkpt>
      <trkpt lat="-11.5519800" lon="-76.7149530">
        <ele>1707.9</ele>
        <time>2022-09-11T22:24:39Z</time>
      </trkpt>
      <trkpt lat="-11.5520660" lon="-76.7149710">
        <ele>1707.5</ele>
        <time>2022-09-11T22:24:40Z</time>
      </trkpt>
      <trkpt lat="-11.5521510" lon="-76.7149960">
        <ele>1707.2</ele>
        <time>2022-09-11T22:24:41Z</time>
      </trkpt>
      <trkpt lat="-11.5522360" lon="-76.7150110">
        <ele>1706.9</ele>
        <time>2022-09-11T22:24:42Z</time>
      </trkpt>
      <trkpt lat="-11.5523190" lon="-76.7150410">
        <ele>1706.6</ele>
        <time>2022-09-11T22:24:43Z</time>
      </trkpt>
      <trkpt lat="-11.5524000" lon="-76.7150790">
        <ele>1706.3</ele>
        <time>2022-09-11T22:24:44Z</time>
      </trkpt>
      <trkpt lat="-11.5524790" lon="-76.7151240">
        <ele>1705.9</ele>
        <time>2022-09-11T22:24:45Z</time>
      </trkpt>
      <trkpt lat="-11.5525550" lon="-76.7151770">
        <ele>1705.6</ele>
        <time>2022-09-11T22:24:46Z</time>
      </trkpt>
      <trkpt lat="-11.5526290" lon="-76.7152360">
        <ele>1705.2</ele>
        <time>2022-09-11T22:24:47Z</time>
      </trkpt>
      <trkpt lat="-11.5527000" lon="-76.7152990">
        <ele>1705.0</ele>
        <time>2022-09-11T22:24:48Z</time>
      </trkpt>
      <trkpt lat="-11.5527670" lon="-76.7153660">
        <ele>1704.5</ele>
        <time>2022-09-11T22:24:49Z</time>
      </trkpt>
      <trkpt lat="-11.5528310" lon="-76.7154380">
        <ele>1704.1</ele>
        <time>2022-09-11T22:24:50Z</time>
      </trkpt>
      <trkpt lat="-11.5528920" lon="-76.7155150">
        <ele>1703.5</ele>
        <time>2022-09-11T22:24:51Z</time>
      </trkpt>
      <trkpt lat="-11.5529510" lon="-76.7155960">
        <ele>1703.0</ele>
        <time>2022-09-11T22:24:52Z</time>
      </trkpt>
      <trkpt lat="-11.5529990" lon="-76.7156980">
        <ele>1702.4</ele>
        <time>2022-09-11T22:24:53Z</time>
      </trkpt>
      <trkpt lat="-11.5530470" lon="-76.7158030">
        <ele>1701.9</ele>
        <time>2022-09-11T22:24:54Z</time>
      </trkpt>
      <trkpt lat="-11.5530970" lon="-76.7159000">
        <ele>1701.4</ele>
        <time>2022-09-11T22:24:55Z</time>
      </trkpt>
      <trkpt lat="-11.5531470" lon="-76.7159920">
        <ele>1700.8</ele>
        <time>2022-09-11T22:24:56Z</time>
      </trkpt>
      <trkpt lat="-11.5531980" lon="-76.7160800">
        <ele>1700.3</ele>
        <time>2022-09-11T22:24:57Z</time>
      </trkpt>
      <trkpt lat="-11.5532480" lon="-76.7161670">
        <ele>1699.8</ele>
        <time>2022-09-11T22:24:58Z</time>
      </trkpt>
      <trkpt lat="-11.5532980" lon="-76.7162530">
        <ele>1699.3</ele>
        <time>2022-09-11T22:24:59Z</time>
      </trkpt>
      <trkpt lat="-11.5533510" lon="-76.7163400">
        <ele>1698.7</ele>
        <time>2022-09-11T22:25:00Z</time>
      </trkpt>
      <trkpt lat="-11.5534040" lon="-76.7164260">
        <ele>1698.2</ele>
        <time>2022-09-11T22:25:01Z</time>
      </trkpt>
      <trkpt lat="-11.5534570" lon="-76.7165110">
        <ele>1697.6</ele>
        <time>2022-09-11T22:25:02Z</time>
      </trkpt>
      <trkpt lat="-11.5535070" lon="-76.7165990">
        <ele>1697.0</ele>
        <time>2022-09-11T22:25:03Z</time>
      </trkpt>
      <trkpt lat="-11.5535580" lon="-76.7166850">
        <ele>1696.3</ele>
        <time>2022-09-11T22:25:04Z</time>
      </trkpt>
      <trkpt lat="-11.5536070" lon="-76.7167710">
        <ele>1695.7</ele>
        <time>2022-09-11T22:25:05Z</time>
      </trkpt>
      <trkpt lat="-11.5536580" lon="-76.7168560">
        <ele>1695.1</ele>
        <time>2022-09-11T22:25:06Z</time>
      </trkpt>
      <trkpt lat="-11.5537080" lon="-76.7169410">
        <ele>1694.5</ele>
        <time>2022-09-11T22:25:07Z</time>
      </trkpt>
      <trkpt lat="-11.5537580" lon="-76.7170260">
        <ele>1694.0</ele>
        <time>2022-09-11T22:25:08Z</time>
      </trkpt>
      <trkpt lat="-11.5538140" lon="-76.7171070">
        <ele>1693.5</ele>
        <time>2022-09-11T22:25:09Z</time>
      </trkpt>
      <trkpt lat="-11.5538740" lon="-76.7171820">
        <ele>1693.0</ele>
        <time>2022-09-11T22:25:10Z</time>
      </trkpt>
      <trkpt lat="-11.5539360" lon="-76.7172500">
        <ele>1692.6</ele>
        <time>2022-09-11T22:25:11Z</time>
      </trkpt>
      <trkpt lat="-11.5540070" lon="-76.7173060">
        <ele>1692.1</ele>
        <time>2022-09-11T22:25:12Z</time>
      </trkpt>
      <trkpt lat="-11.5540810" lon="-76.7173600">
        <ele>1691.6</ele>
        <time>2022-09-11T22:25:13Z</time>
      </trkpt>
      <trkpt lat="-11.5541500" lon="-76.7174160">
        <ele>1691.1</ele>
        <time>2022-09-11T22:25:14Z</time>
      </trkpt>
      <trkpt lat="-11.5542170" lon="-76.7174670">
        <ele>1690.7</ele>
        <time>2022-09-11T22:25:15Z</time>
      </trkpt>
      <trkpt lat="-11.5543110" lon="-76.7174730">
        <ele>1690.1</ele>
        <time>2022-09-11T22:25:16Z</time>
      </trkpt>
      <trkpt lat="-11.5544050" lon="-76.7174800">
        <ele>1689.5</ele>
        <time>2022-09-11T22:25:17Z</time>
      </trkpt>
      <trkpt lat="-11.5545320" lon="-76.7174330">
        <ele>1688.7</ele>
        <time>2022-09-11T22:25:18Z</time>
      </trkpt>
      <trkpt lat="-11.5546460" lon="-76.7173810">
        <ele>1687.9</ele>
        <time>2022-09-11T22:25:19Z</time>
      </trkpt>
      <trkpt lat="-11.5547450" lon="-76.7173200">
        <ele>1687.1</ele>
        <time>2022-09-11T22:25:20Z</time>
      </trkpt>
      <trkpt lat="-11.5548310" lon="-76.7172510">
        <ele>1686.4</ele>
        <time>2022-09-11T22:25:21Z</time>
      </trkpt>
      <trkpt lat="-11.5549050" lon="-76.7171770">
        <ele>1685.9</ele>
        <time>2022-09-11T22:25:22Z</time>
      </trkpt>
      <trkpt lat="-11.5549720" lon="-76.7171010">
        <ele>1685.4</ele>
        <time>2022-09-11T22:25:23Z</time>
      </trkpt>
      <trkpt lat="-11.5550250" lon="-76.7170180">
        <ele>1684.9</ele>
        <time>2022-09-11T22:25:24Z</time>
      </trkpt>
      <trkpt lat="-11.5550720" lon="-76.7169250">
        <ele>1684.5</ele>
        <time>2022-09-11T22:25:25Z</time>
      </trkpt>
      <trkpt lat="-11.5551190" lon="-76.7168260">
        <ele>1684.0</ele>
        <time>2022-09-11T22:25:26Z</time>
      </trkpt>
      <trkpt lat="-11.5551630" lon="-76.7167290">
        <ele>1683.7</ele>
        <time>2022-09-11T22:25:27Z</time>
      </trkpt>
      <trkpt lat="-11.5552050" lon="-76.7166340">
        <ele>1683.3</ele>
        <time>2022-09-11T22:25:28Z</time>
      </trkpt>
      <trkpt lat="-11.5552450" lon="-76.7165340">
        <ele>1683.0</ele>
        <time>2022-09-11T22:25:29Z</time>
      </trkpt>
      <trkpt lat="-11.5552850" lon="-76.7164400">
        <ele>1682.7</ele>
        <time>2022-09-11T22:25:30Z</time>
      </trkpt>
      <trkpt lat="-11.5553240" lon="-76.7163480">
        <ele>1682.4</ele>
        <time>2022-09-11T22:25:31Z</time>
      </trkpt>
      <trkpt lat="-11.5553660" lon="-76.7162580">
        <ele>1682.1</ele>
        <time>2022-09-11T22:25:32Z</time>
      </trkpt>
      <trkpt lat="-11.5554110" lon="-76.7161750">
        <ele>1681.8</ele>
        <time>2022-09-11T22:25:33Z</time>
      </trkpt>
      <trkpt lat="-11.5554600" lon="-76.7160960">
        <ele>1681.5</ele>
        <time>2022-09-11T22:25:34Z</time>
      </trkpt>
      <trkpt lat="-11.5555140" lon="-76.7160200">
        <ele>1681.3</ele>
        <time>2022-09-11T22:25:35Z</time>
      </trkpt>
      <trkpt lat="-11.5555750" lon="-76.7159550">
        <ele>1681.0</ele>
        <time>2022-09-11T22:25:36Z</time>
      </trkpt>
      <trkpt lat="-11.5556410" lon="-76.7159030">
        <ele>1680.8</ele>
        <time>2022-09-11T22:25:37Z</time>
      </trkpt>
      <trkpt lat="-11.5557180" lon="-76.7158610">
        <ele>1680.5</ele>
        <time>2022-09-11T22:25:38Z</time>
      </trkpt>
      <trkpt lat="-11.5558730" lon="-76.7158490">
        <ele>1680.1</ele>
        <time>2022-09-11T22:25:39Z</time>
      </trkpt>
      <trkpt lat="-11.5560050" lon="-76.7158370">
        <ele>1679.6</ele>
        <time>2022-09-11T22:25:40Z</time>
      </trkpt>
      <trkpt lat="-11.5561200" lon="-76.7158310">
        <ele>1679.2</ele>
        <time>2022-09-11T22:25:41Z</time>
      </trkpt>
      <trkpt lat="-11.5562240" lon="-76.7158320">
        <ele>1678.9</ele>
        <time>2022-09-11T22:25:42Z</time>
      </trkpt>
      <trkpt lat="-11.5563220" lon="-76.7158450">
        <ele>1678.5</ele>
        <time>2022-09-11T22:25:43Z</time>
      </trkpt>
      <trkpt lat="-11.5564150" lon="-76.7158670">
        <ele>1678.1</ele>
        <time>2022-09-11T22:25:44Z</time>
      </trkpt>
      <trkpt lat="-11.5565040" lon="-76.7158920">
        <ele>1677.7</ele>
        <time>2022-09-11T22:25:45Z</time>
      </trkpt>
      <trkpt lat="-11.5565910" lon="-76.7159200">
        <ele>1677.4</ele>
        <time>2022-09-11T22:25:46Z</time>
      </trkpt>
      <trkpt lat="-11.5566760" lon="-76.7159490">
        <ele>1677.0</ele>
        <time>2022-09-11T22:25:47Z</time>
      </trkpt>
      <trkpt lat="-11.5567620" lon="-76.7159800">
        <ele>1676.6</ele>
        <time>2022-09-11T22:25:48Z</time>
      </trkpt>
      <trkpt lat="-11.5568480" lon="-76.7160110">
        <ele>1676.2</ele>
        <time>2022-09-11T22:25:49Z</time>
      </trkpt>
      <trkpt lat="-11.5569320" lon="-76.7160430">
        <ele>1675.9</ele>
        <time>2022-09-11T22:25:50Z</time>
      </trkpt>
      <trkpt lat="-11.5570150" lon="-76.7160780">
        <ele>1675.5</ele>
        <time>2022-09-11T22:25:51Z</time>
      </trkpt>
      <trkpt lat="-11.5570970" lon="-76.7161110">
        <ele>1675.2</ele>
        <time>2022-09-11T22:25:52Z</time>
      </trkpt>
      <trkpt lat="-11.5571770" lon="-76.7161420">
        <ele>1674.9</ele>
        <time>2022-09-11T22:25:53Z</time>
      </trkpt>
      <trkpt lat="-11.5572480" lon="-76.7161700">
        <ele>1674.6</ele>
        <time>2022-09-11T22:25:54Z</time>
      </trkpt>
      <trkpt lat="-11.5573140" lon="-76.7161990">
        <ele>1674.4</ele>
        <time>2022-09-11T22:25:55Z</time>
      </trkpt>
      <trkpt lat="-11.5573720" lon="-76.7162270">
        <ele>1674.2</ele>
        <time>2022-09-11T22:25:56Z</time>
      </trkpt>
      <trkpt lat="-11.5574210" lon="-76.7162530">
        <ele>1674.0</ele>
        <time>2022-09-11T22:25:57Z</time>
      </trkpt>
      <trkpt lat="-11.5574590" lon="-76.7162750">
        <ele>1673.8</ele>
        <time>2022-09-11T22:25:58Z</time>
      </trkpt>
      <trkpt lat="-11.5574590" lon="-76.7162940">
        <ele>1673.7</ele>
        <time>2022-09-11T22:25:59Z</time>
      </trkpt>
      <trkpt lat="-11.5574790" lon="-76.7163050">
        <ele>1673.6</ele>
        <time>2022-09-11T22:26:00Z</time>
      </trkpt>
      <trkpt lat="-11.5575080" lon="-76.7163270">
        <ele>1673.5</ele>
        <time>2022-09-11T22:26:01Z</time>
      </trkpt>
      <trkpt lat="-11.5575200" lon="-76.7163310">
        <ele>1673.4</ele>
        <time>2022-09-11T22:26:02Z</time>
      </trkpt>
      <trkpt lat="-11.5575500" lon="-76.7163390">
        <ele>1673.3</ele>
        <time>2022-09-11T22:26:03Z</time>
      </trkpt>
      <trkpt lat="-11.5575570" lon="-76.7163410">
        <ele>1673.3</ele>
        <time>2022-09-11T22:26:04Z</time>
      </trkpt>
      <trkpt lat="-11.5575700" lon="-76.7163450">
        <ele>1673.2</ele>
        <time>2022-09-11T22:26:05Z</time>
      </trkpt>
      <trkpt lat="-11.5575810" lon="-76.7163510">
        <ele>1673.1</ele>
        <time>2022-09-11T22:26:06Z</time>
      </trkpt>
      <trkpt lat="-11.5575900" lon="-76.7163560">
        <ele>1673.1</ele>
        <time>2022-09-11T22:26:07Z</time>
      </trkpt>
      <trkpt lat="-11.5576000" lon="-76.7163620">
        <ele>1673.0</ele>
        <time>2022-09-11T22:26:08Z</time>
      </trkpt>
      <trkpt lat="-11.5576120" lon="-76.7163670">
        <ele>1673.0</ele>
        <time>2022-09-11T22:26:09Z</time>
      </trkpt>
      <trkpt lat="-11.5576170" lon="-76.7163650">
        <ele>1673.0</ele>
        <time>2022-09-11T22:26:10Z</time>
      </trkpt>
      <trkpt lat="-11.5576240" lon="-76.7163650">
        <ele>1672.9</ele>
        <time>2022-09-11T22:26:11Z</time>
      </trkpt>
      <trkpt lat="-11.5576270" lon="-76.7163650">
        <ele>1672.9</ele>
        <time>2022-09-11T22:26:12Z</time>
      </trkpt>
      <trkpt lat="-11.5576310" lon="-76.7163660">
        <ele>1672.9</ele>
        <time>2022-09-11T22:26:13Z</time>
      </trkpt>
      <trkpt lat="-11.5576340" lon="-76.7163660">
        <ele>1672.9</ele>
        <time>2022-09-11T22:26:14Z</time>
      </trkpt>
      <trkpt lat="-11.5576370" lon="-76.7163670">
        <ele>1672.9</ele>
        <time>2022-09-11T22:26:15Z</time>
      </trkpt>
      <trkpt lat="-11.5576400" lon="-76.7163670">
        <ele>1672.9</ele>
        <time>2022-09-11T22:26:16Z</time>
      </trkpt>
      <trkpt lat="-11.5576440" lon="-76.7163680">
        <ele>1672.8</ele>
        <time>2022-09-11T22:26:17Z</time>
      </trkpt>
      <trkpt lat="-11.5576470" lon="-76.7163680">
        <ele>1672.8</ele>
        <time>2022-09-11T22:26:18Z</time>
      </trkpt>
      <trkpt lat="-11.5576500" lon="-76.7163690">
        <ele>1672.8</ele>
        <time>2022-09-11T22:26:19Z</time>
      </trkpt>
      <trkpt lat="-11.5576530" lon="-76.7163690">
        <ele>1672.8</ele>
        <time>2022-09-11T22:26:20Z</time>
      </trkpt>
      <trkpt lat="-11.5576560" lon="-76.7163700">
        <ele>1672.8</ele>
        <time>2022-09-11T22:26:21Z</time>
      </trkpt>
      <trkpt lat="-11.5576600" lon="-76.7163710">
        <ele>1672.8</ele>
        <time>2022-09-11T22:26:22Z</time>
      </trkpt>
      <trkpt lat="-11.5576630" lon="-76.7163710">
        <ele>1672.8</ele>
        <time>2022-09-11T22:26:23Z</time>
      </trkpt>
      <trkpt lat="-11.5576660" lon="-76.7163720">
        <ele>1672.7</ele>
        <time>2022-09-11T22:26:24Z</time>
      </trkpt>
      <trkpt lat="-11.5576690" lon="-76.7163720">
        <ele>1672.7</ele>
        <time>2022-09-11T22:26:25Z</time>
      </trkpt>
      <trkpt lat="-11.5576720" lon="-76.7163730">
        <ele>1672.7</ele>
        <time>2022-09-11T22:26:26Z</time>
      </trkpt>
      <trkpt lat="-11.5576760" lon="-76.7163730">
        <ele>1672.7</ele>
        <time>2022-09-11T22:26:27Z</time>
      </trkpt>
      <trkpt lat="-11.5576790" lon="-76.7163740">
        <ele>1672.7</ele>
        <time>2022-09-11T22:26:30Z</time>
      </trkpt>
      <trkpt lat="-11.5576820" lon="-76.7163740">
        <ele>1672.7</ele>
        <time>2022-09-11T22:26:31Z</time>
      </trkpt>
      <trkpt lat="-11.5576850" lon="-76.7163750">
        <ele>1672.7</ele>
        <time>2022-09-11T22:26:32Z</time>
      </trkpt>
      <trkpt lat="-11.5577100" lon="-76.7163920">
        <ele>1672.5</ele>
        <time>2022-09-11T22:26:33Z</time>
      </trkpt>
      <trkpt lat="-11.5577420" lon="-76.7164110">
        <ele>1672.4</ele>
        <time>2022-09-11T22:26:34Z</time>
      </trkpt>
      <trkpt lat="-11.5577820" lon="-76.7164340">
        <ele>1672.2</ele>
        <time>2022-09-11T22:26:35Z</time>
      </trkpt>
      <trkpt lat="-11.5578240" lon="-76.7164550">
        <ele>1672.0</ele>
        <time>2022-09-11T22:26:36Z</time>
      </trkpt>
      <trkpt lat="-11.5578710" lon="-76.7164830">
        <ele>1671.7</ele>
        <time>2022-09-11T22:26:37Z</time>
      </trkpt>
      <trkpt lat="-11.5579170" lon="-76.7165210">
        <ele>1671.5</ele>
        <time>2022-09-11T22:26:38Z</time>
      </trkpt>
      <trkpt lat="-11.5579630" lon="-76.7165670">
        <ele>1671.3</ele>
        <time>2022-09-11T22:26:39Z</time>
      </trkpt>
      <trkpt lat="-11.5580070" lon="-76.7166170">
        <ele>1671.0</ele>
        <time>2022-09-11T22:26:40Z</time>
      </trkpt>
      <trkpt lat="-11.5580490" lon="-76.7166690">
        <ele>1670.7</ele>
        <time>2022-09-11T22:26:41Z</time>
      </trkpt>
      <trkpt lat="-11.5580910" lon="-76.7167200">
        <ele>1670.5</ele>
        <time>2022-09-11T22:26:42Z</time>
      </trkpt>
      <trkpt lat="-11.5581330" lon="-76.7167680">
        <ele>1670.2</ele>
        <time>2022-09-11T22:26:43Z</time>
      </trkpt>
      <trkpt lat="-11.5581760" lon="-76.7168120">
        <ele>1670.0</ele>
        <time>2022-09-11T22:26:44Z</time>
      </trkpt>
      <trkpt lat="-11.5582180" lon="-76.7168570">
        <ele>1669.8</ele>
        <time>2022-09-11T22:26:45Z</time>
      </trkpt>
      <trkpt lat="-11.5582620" lon="-76.7169000">
        <ele>1669.5</ele>
        <time>2022-09-11T22:26:46Z</time>
      </trkpt>
      <trkpt lat="-11.5583090" lon="-76.7169440">
        <ele>1669.3</ele>
        <time>2022-09-11T22:26:47Z</time>
      </trkpt>
      <trkpt lat="-11.5583580" lon="-76.7169950">
        <ele>1669.0</ele>
        <time>2022-09-11T22:26:48Z</time>
      </trkpt>
      <trkpt lat="-11.5584070" lon="-76.7170480">
        <ele>1668.7</ele>
        <time>2022-09-11T22:26:49Z</time>
      </trkpt>
      <trkpt lat="-11.5584580" lon="-76.7171030">
        <ele>1668.4</ele>
        <time>2022-09-11T22:26:50Z</time>
      </trkpt>
      <trkpt lat="-11.5585070" lon="-76.7171560">
        <ele>1668.0</ele>
        <time>2022-09-11T22:26:51Z</time>
      </trkpt>
      <trkpt lat="-11.5585540" lon="-76.7172120">
        <ele>1667.7</ele>
        <time>2022-09-11T22:26:52Z</time>
      </trkpt>
      <trkpt lat="-11.5586020" lon="-76.7172700">
        <ele>1667.4</ele>
        <time>2022-09-11T22:26:53Z</time>
      </trkpt>
      <trkpt lat="-11.5586500" lon="-76.7173250">
        <ele>1667.0</ele>
        <time>2022-09-11T22:26:54Z</time>
      </trkpt>
      <trkpt lat="-11.5586970" lon="-76.7173800">
        <ele>1666.7</ele>
        <time>2022-09-11T22:26:55Z</time>
      </trkpt>
      <trkpt lat="-11.5587430" lon="-76.7174350">
        <ele>1666.4</ele>
        <time>2022-09-11T22:26:56Z</time>
      </trkpt>
      <trkpt lat="-11.5587900" lon="-76.7174870">
        <ele>1666.1</ele>
        <time>2022-09-11T22:26:57Z</time>
      </trkpt>
      <trkpt lat="-11.5588350" lon="-76.7175420">
        <ele>1665.8</ele>
        <time>2022-09-11T22:26:58Z</time>
      </trkpt>
      <trkpt lat="-11.5588800" lon="-76.7175970">
        <ele>1665.5</ele>
        <time>2022-09-11T22:26:59Z</time>
      </trkpt>
      <trkpt lat="-11.5589260" lon="-76.7176520">
        <ele>1665.2</ele>
        <time>2022-09-11T22:27:00Z</time>
      </trkpt>
      <trkpt lat="-11.5589710" lon="-76.7177080">
        <ele>1664.9</ele>
        <time>2022-09-11T22:27:01Z</time>
      </trkpt>
      <trkpt lat="-11.5590170" lon="-76.7177620">
        <ele>1664.5</ele>
        <time>2022-09-11T22:27:02Z</time>
      </trkpt>
      <trkpt lat="-11.5590630" lon="-76.7178150">
        <ele>1664.2</ele>
        <time>2022-09-11T22:27:03Z</time>
      </trkpt>
      <trkpt lat="-11.5591070" lon="-76.7178670">
        <ele>1663.9</ele>
        <time>2022-09-11T22:27:04Z</time>
      </trkpt>
      <trkpt lat="-11.5591530" lon="-76.7179540">
        <ele>1663.4</ele>
        <time>2022-09-11T22:27:05Z</time>
      </trkpt>
      <trkpt lat="-11.5592000" lon="-76.7180670">
        <ele>1662.9</ele>
        <time>2022-09-11T22:27:06Z</time>
      </trkpt>
      <trkpt lat="-11.5592480" lon="-76.7181790">
        <ele>1662.5</ele>
        <time>2022-09-11T22:27:07Z</time>
      </trkpt>
      <trkpt lat="-11.5592970" lon="-76.7182850">
        <ele>1662.0</ele>
        <time>2022-09-11T22:27:08Z</time>
      </trkpt>
      <trkpt lat="-11.5593440" lon="-76.7183830">
        <ele>1661.6</ele>
        <time>2022-09-11T22:27:09Z</time>
      </trkpt>
      <trkpt lat="-11.5593920" lon="-76.7184710">
        <ele>1661.2</ele>
        <time>2022-09-11T22:27:10Z</time>
      </trkpt>
      <trkpt lat="-11.5594410" lon="-76.7185520">
        <ele>1660.9</ele>
        <time>2022-09-11T22:27:11Z</time>
      </trkpt>
      <trkpt lat="-11.5594910" lon="-76.7186260">
        <ele>1660.6</ele>
        <time>2022-09-11T22:27:12Z</time>
      </trkpt>
      <trkpt lat="-11.5595420" lon="-76.7186970">
        <ele>1660.4</ele>
        <time>2022-09-11T22:27:13Z</time>
      </trkpt>
      <trkpt lat="-11.5595920" lon="-76.7187640">
        <ele>1660.1</ele>
        <time>2022-09-11T22:27:14Z</time>
      </trkpt>
      <trkpt lat="-11.5596430" lon="-76.7188300">
        <ele>1659.9</ele>
        <time>2022-09-11T22:27:15Z</time>
      </trkpt>
      <trkpt lat="-11.5596910" lon="-76.7188960">
        <ele>1659.7</ele>
        <time>2022-09-11T22:27:16Z</time>
      </trkpt>
      <trkpt lat="-11.5597390" lon="-76.7189630">
        <ele>1659.5</ele>
        <time>2022-09-11T22:27:17Z</time>
      </trkpt>
      <trkpt lat="-11.5597870" lon="-76.7190290">
        <ele>1659.4</ele>
        <time>2022-09-11T22:27:18Z</time>
      </trkpt>
      <trkpt lat="-11.5598370" lon="-76.7190920">
        <ele>1659.2</ele>
        <time>2022-09-11T22:27:19Z</time>
      </trkpt>
      <trkpt lat="-11.5598840" lon="-76.7191560">
        <ele>1659.1</ele>
        <time>2022-09-11T22:27:20Z</time>
      </trkpt>
      <trkpt lat="-11.5599310" lon="-76.7192200">
        <ele>1659.0</ele>
        <time>2022-09-11T22:27:21Z</time>
      </trkpt>
      <trkpt lat="-11.5599780" lon="-76.7192840">
        <ele>1658.9</ele>
        <time>2022-09-11T22:27:22Z</time>
      </trkpt>
      <trkpt lat="-11.5600220" lon="-76.7193500">
        <ele>1658.8</ele>
        <time>2022-09-11T22:27:23Z</time>
      </trkpt>
      <trkpt lat="-11.5600680" lon="-76.7194130">
        <ele>1658.8</ele>
        <time>2022-09-11T22:27:24Z</time>
      </trkpt>
      <trkpt lat="-11.5601120" lon="-76.7194740">
        <ele>1658.7</ele>
        <time>2022-09-11T22:27:25Z</time>
      </trkpt>
      <trkpt lat="-11.5601550" lon="-76.7195370">
        <ele>1658.6</ele>
        <time>2022-09-11T22:27:26Z</time>
      </trkpt>
      <trkpt lat="-11.5601950" lon="-76.7195990">
        <ele>1658.6</ele>
        <time>2022-09-11T22:27:27Z</time>
      </trkpt>
      <trkpt lat="-11.5602370" lon="-76.7196590">
        <ele>1658.5</ele>
        <time>2022-09-11T22:27:28Z</time>
      </trkpt>
      <trkpt lat="-11.5602790" lon="-76.7197190">
        <ele>1658.5</ele>
        <time>2022-09-11T22:27:29Z</time>
      </trkpt>
      <trkpt lat="-11.5603190" lon="-76.7197790">
        <ele>1658.5</ele>
        <time>2022-09-11T22:27:30Z</time>
      </trkpt>
      <trkpt lat="-11.5603590" lon="-76.7198390">
        <ele>1658.5</ele>
        <time>2022-09-11T22:27:31Z</time>
      </trkpt>
      <trkpt lat="-11.5603990" lon="-76.7198980">
        <ele>1658.5</ele>
        <time>2022-09-11T22:27:32Z</time>
      </trkpt>
      <trkpt lat="-11.5604400" lon="-76.7199550">
        <ele>1658.5</ele>
        <time>2022-09-11T22:27:33Z</time>
      </trkpt>
      <trkpt lat="-11.5604850" lon="-76.7200080">
        <ele>1658.4</ele>
        <time>2022-09-11T22:27:34Z</time>
      </trkpt>
      <trkpt lat="-11.5605270" lon="-76.7200610">
        <ele>1658.4</ele>
        <time>2022-09-11T22:27:35Z</time>
      </trkpt>
      <trkpt lat="-11.5605690" lon="-76.7201140">
        <ele>1658.3</ele>
        <time>2022-09-11T22:27:36Z</time>
      </trkpt>
      <trkpt lat="-11.5606130" lon="-76.7201640">
        <ele>1658.3</ele>
        <time>2022-09-11T22:27:37Z</time>
      </trkpt>
      <trkpt lat="-11.5606550" lon="-76.7202150">
        <ele>1658.3</ele>
        <time>2022-09-11T22:27:38Z</time>
      </trkpt>
      <trkpt lat="-11.5606950" lon="-76.7202670">
        <ele>1658.2</ele>
        <time>2022-09-11T22:27:39Z</time>
      </trkpt>
      <trkpt lat="-11.5607340" lon="-76.7203190">
        <ele>1658.1</ele>
        <time>2022-09-11T22:27:40Z</time>
      </trkpt>
      <trkpt lat="-11.5607730" lon="-76.7203670">
        <ele>1658.0</ele>
        <time>2022-09-11T22:27:41Z</time>
      </trkpt>
      <trkpt lat="-11.5608130" lon="-76.7204140">
        <ele>1657.8</ele>
        <time>2022-09-11T22:27:42Z</time>
      </trkpt>
      <trkpt lat="-11.5608540" lon="-76.7204610">
        <ele>1657.6</ele>
        <time>2022-09-11T22:27:43Z</time>
      </trkpt>
      <trkpt lat="-11.5608970" lon="-76.7205060">
        <ele>1657.4</ele>
        <time>2022-09-11T22:27:44Z</time>
      </trkpt>
      <trkpt lat="-11.5609410" lon="-76.7205510">
        <ele>1657.2</ele>
        <time>2022-09-11T22:27:45Z</time>
      </trkpt>
      <trkpt lat="-11.5609870" lon="-76.7205970">
        <ele>1657.0</ele>
        <time>2022-09-11T22:27:46Z</time>
      </trkpt>
      <trkpt lat="-11.5610340" lon="-76.7206430">
        <ele>1656.7</ele>
        <time>2022-09-11T22:27:47Z</time>
      </trkpt>
      <trkpt lat="-11.5610840" lon="-76.7206860">
        <ele>1656.4</ele>
        <time>2022-09-11T22:27:48Z</time>
      </trkpt>
      <trkpt lat="-11.5611330" lon="-76.7207280">
        <ele>1656.1</ele>
        <time>2022-09-11T22:27:49Z</time>
      </trkpt>
      <trkpt lat="-11.5611910" lon="-76.7207730">
        <ele>1655.7</ele>
        <time>2022-09-11T22:27:50Z</time>
      </trkpt>
      <trkpt lat="-11.5612380" lon="-76.7207850">
        <ele>1655.5</ele>
        <time>2022-09-11T22:27:51Z</time>
      </trkpt>
      <trkpt lat="-11.5612840" lon="-76.7207950">
        <ele>1655.3</ele>
        <time>2022-09-11T22:27:52Z</time>
      </trkpt>
      <trkpt lat="-11.5613290" lon="-76.7208100">
        <ele>1655.1</ele>
        <time>2022-09-11T22:27:53Z</time>
      </trkpt>
      <trkpt lat="-11.5613730" lon="-76.7208330">
        <ele>1654.8</ele>
        <time>2022-09-11T22:27:54Z</time>
      </trkpt>
      <trkpt lat="-11.5614170" lon="-76.7208600">
        <ele>1654.5</ele>
        <time>2022-09-11T22:27:55Z</time>
      </trkpt>
      <trkpt lat="-11.5614620" lon="-76.7208920">
        <ele>1654.2</ele>
        <time>2022-09-11T22:27:56Z</time>
      </trkpt>
      <trkpt lat="-11.5615070" lon="-76.7209310">
        <ele>1653.8</ele>
        <time>2022-09-11T22:27:57Z</time>
      </trkpt>
      <trkpt lat="-11.5615530" lon="-76.7209740">
        <ele>1653.5</ele>
        <time>2022-09-11T22:27:58Z</time>
      </trkpt>
      <trkpt lat="-11.5615990" lon="-76.7210240">
        <ele>1653.1</ele>
        <time>2022-09-11T22:27:59Z</time>
      </trkpt>
      <trkpt lat="-11.5616490" lon="-76.7210780">
        <ele>1652.7</ele>
        <time>2022-09-11T22:28:00Z</time>
      </trkpt>
      <trkpt lat="-11.5617010" lon="-76.7211360">
        <ele>1652.2</ele>
        <time>2022-09-11T22:28:01Z</time>
      </trkpt>
      <trkpt lat="-11.5617550" lon="-76.7211970">
        <ele>1651.8</ele>
        <time>2022-09-11T22:28:02Z</time>
      </trkpt>
      <trkpt lat="-11.5618120" lon="-76.7212610">
        <ele>1651.3</ele>
        <time>2022-09-11T22:28:03Z</time>
      </trkpt>
      <trkpt lat="-11.5618720" lon="-76.7213270">
        <ele>1650.9</ele>
        <time>2022-09-11T22:28:04Z</time>
      </trkpt>
      <trkpt lat="-11.5619350" lon="-76.7213950">
        <ele>1650.5</ele>
        <time>2022-09-11T22:28:05Z</time>
      </trkpt>
      <trkpt lat="-11.5620010" lon="-76.7214640">
        <ele>1650.1</ele>
        <time>2022-09-11T22:28:06Z</time>
      </trkpt>
      <trkpt lat="-11.5622910" lon="-76.7216500">
        <ele>1649.2</ele>
        <time>2022-09-11T22:28:07Z</time>
      </trkpt>
      <trkpt lat="-11.5623420" lon="-76.7216870">
        <ele>1649.1</ele>
        <time>2022-09-11T22:28:08Z</time>
      </trkpt>
      <trkpt lat="-11.5624230" lon="-76.7217490">
        <ele>1649.0</ele>
        <time>2022-09-11T22:28:09Z</time>
      </trkpt>
      <trkpt lat="-11.5624960" lon="-76.7218060">
        <ele>1648.9</ele>
        <time>2022-09-11T22:28:10Z</time>
      </trkpt>
      <trkpt lat="-11.5625680" lon="-76.7218620">
        <ele>1648.8</ele>
        <time>2022-09-11T22:28:11Z</time>
      </trkpt>
      <trkpt lat="-11.5626390" lon="-76.7219190">
        <ele>1648.8</ele>
        <time>2022-09-11T22:28:12Z</time>
      </trkpt>
      <trkpt lat="-11.5627080" lon="-76.7219760">
        <ele>1648.8</ele>
        <time>2022-09-11T22:28:13Z</time>
      </trkpt>
      <trkpt lat="-11.5627760" lon="-76.7220350">
        <ele>1648.8</ele>
        <time>2022-09-11T22:28:14Z</time>
      </trkpt>
      <trkpt lat="-11.5628430" lon="-76.7220940">
        <ele>1648.8</ele>
        <time>2022-09-11T22:28:15Z</time>
      </trkpt>
      <trkpt lat="-11.5629120" lon="-76.7221520">
        <ele>1648.8</ele>
        <time>2022-09-11T22:28:16Z</time>
      </trkpt>
      <trkpt lat="-11.5629820" lon="-76.7222110">
        <ele>1648.8</ele>
        <time>2022-09-11T22:28:17Z</time>
      </trkpt>
      <trkpt lat="-11.5630520" lon="-76.7222710">
        <ele>1648.8</ele>
        <time>2022-09-11T22:28:18Z</time>
      </trkpt>
      <trkpt lat="-11.5631220" lon="-76.7223300">
        <ele>1648.8</ele>
        <time>2022-09-11T22:28:19Z</time>
      </trkpt>
      <trkpt lat="-11.5631880" lon="-76.7223900">
        <ele>1648.7</ele>
        <time>2022-09-11T22:28:20Z</time>
      </trkpt>
      <trkpt lat="-11.5632500" lon="-76.7224510">
        <ele>1648.6</ele>
        <time>2022-09-11T22:28:21Z</time>
      </trkpt>
      <trkpt lat="-11.5633070" lon="-76.7225130">
        <ele>1648.4</ele>
        <time>2022-09-11T22:28:22Z</time>
      </trkpt>
      <trkpt lat="-11.5633590" lon="-76.7225740">
        <ele>1648.2</ele>
        <time>2022-09-11T22:28:23Z</time>
      </trkpt>
      <trkpt lat="-11.5634060" lon="-76.7226340">
        <ele>1647.9</ele>
        <time>2022-09-11T22:28:24Z</time>
      </trkpt>
      <trkpt lat="-11.5634510" lon="-76.7226970">
        <ele>1647.6</ele>
        <time>2022-09-11T22:28:25Z</time>
      </trkpt>
      <trkpt lat="-11.5634950" lon="-76.7227600">
        <ele>1647.3</ele>
        <time>2022-09-11T22:28:26Z</time>
      </trkpt>
      <trkpt lat="-11.5635380" lon="-76.7228240">
        <ele>1646.9</ele>
        <time>2022-09-11T22:28:27Z</time>
      </trkpt>
      <trkpt lat="-11.5635800" lon="-76.7228900">
        <ele>1646.5</ele>
        <time>2022-09-11T22:28:28Z</time>
      </trkpt>
      <trkpt lat="-11.5636220" lon="-76.7229580">
        <ele>1646.1</ele>
        <time>2022-09-11T22:28:29Z</time>
      </trkpt>
      <trkpt lat="-11.5636640" lon="-76.7230260">
        <ele>1645.7</ele>
        <time>2022-09-11T22:28:30Z</time>
      </trkpt>
      <trkpt lat="-11.5637050" lon="-76.7230950">
        <ele>1645.3</ele>
        <time>2022-09-11T22:28:31Z</time>
      </trkpt>
      <trkpt lat="-11.5637460" lon="-76.7231650">
        <ele>1645.0</ele>
        <time>2022-09-11T22:28:32Z</time>
      </trkpt>
      <trkpt lat="-11.5637840" lon="-76.7232330">
        <ele>1644.7</ele>
        <time>2022-09-11T22:28:33Z</time>
      </trkpt>
      <trkpt lat="-11.5638200" lon="-76.7232970">
        <ele>1644.4</ele>
        <time>2022-09-11T22:28:34Z</time>
      </trkpt>
      <trkpt lat="-11.5638520" lon="-76.7233540">
        <ele>1644.2</ele>
        <time>2022-09-11T22:28:35Z</time>
      </trkpt>
      <trkpt lat="-11.5638750" lon="-76.7234030">
        <ele>1644.0</ele>
        <time>2022-09-11T22:28:36Z</time>
      </trkpt>
      <trkpt lat="-11.5638870" lon="-76.7234470">
        <ele>1643.9</ele>
        <time>2022-09-11T22:28:37Z</time>
      </trkpt>
      <trkpt lat="-11.5638850" lon="-76.7234960">
        <ele>1643.8</ele>
        <time>2022-09-11T22:28:38Z</time>
      </trkpt>
      <trkpt lat="-11.5638900" lon="-76.7235270">
        <ele>1643.7</ele>
        <time>2022-09-11T22:28:39Z</time>
      </trkpt>
      <trkpt lat="-11.5639070" lon="-76.7235630">
        <ele>1643.7</ele>
        <time>2022-09-11T22:28:40Z</time>
      </trkpt>
      <trkpt lat="-11.5639120" lon="-76.7235770">
        <ele>1643.7</ele>
        <time>2022-09-11T22:28:41Z</time>
      </trkpt>
      <trkpt lat="-11.5639210" lon="-76.7236010">
        <ele>1643.7</ele>
        <time>2022-09-11T22:28:42Z</time>
      </trkpt>
      <trkpt lat="-11.5639290" lon="-76.7235970">
        <ele>1643.7</ele>
        <time>2022-09-11T22:28:43Z</time>
      </trkpt>
      <trkpt lat="-11.5639380" lon="-76.7235980">
        <ele>1643.7</ele>
        <time>2022-09-11T22:28:44Z</time>
      </trkpt>
      <trkpt lat="-11.5639380" lon="-76.7235680">
        <ele>1643.7</ele>
        <time>2022-09-11T22:28:45Z</time>
      </trkpt>
      <trkpt lat="-11.5639360" lon="-76.7235480">
        <ele>1643.7</ele>
        <time>2022-09-11T22:28:46Z</time>
      </trkpt>
      <trkpt lat="-11.5639330" lon="-76.7235390">
        <ele>1643.7</ele>
        <time>2022-09-11T22:28:47Z</time>
      </trkpt>
      <trkpt lat="-11.5639670" lon="-76.7235850">
        <ele>1643.8</ele>
        <time>2022-09-11T22:28:48Z</time>
      </trkpt>
      <trkpt lat="-11.5641230" lon="-76.7238180">
        <ele>1643.4</ele>
        <time>2022-09-11T22:28:49Z</time>
      </trkpt>
      <trkpt lat="-11.5641550" lon="-76.7238580">
        <ele>1643.2</ele>
        <time>2022-09-11T22:28:50Z</time>
      </trkpt>
      <trkpt lat="-11.5642090" lon="-76.7239160">
        <ele>1642.6</ele>
        <time>2022-09-11T22:28:51Z</time>
      </trkpt>
      <trkpt lat="-11.5642620" lon="-76.7239590">
        <ele>1642.2</ele>
        <time>2022-09-11T22:28:52Z</time>
      </trkpt>
      <trkpt lat="-11.5643180" lon="-76.7239990">
        <ele>1641.7</ele>
        <time>2022-09-11T22:28:53Z</time>
      </trkpt>
      <trkpt lat="-11.5643790" lon="-76.7240300">
        <ele>1641.2</ele>
        <time>2022-09-11T22:28:54Z</time>
      </trkpt>
      <trkpt lat="-11.5644420" lon="-76.7240560">
        <ele>1640.7</ele>
        <time>2022-09-11T22:28:55Z</time>
      </trkpt>
      <trkpt lat="-11.5645090" lon="-76.7240860">
        <ele>1640.2</ele>
        <time>2022-09-11T22:28:56Z</time>
      </trkpt>
      <trkpt lat="-11.5645780" lon="-76.7241160">
        <ele>1639.7</ele>
        <time>2022-09-11T22:28:57Z</time>
      </trkpt>
      <trkpt lat="-11.5646500" lon="-76.7241440">
        <ele>1639.1</ele>
        <time>2022-09-11T22:28:58Z</time>
      </trkpt>
      <trkpt lat="-11.5647230" lon="-76.7241700">
        <ele>1638.6</ele>
        <time>2022-09-11T22:28:59Z</time>
      </trkpt>
      <trkpt lat="-11.5647980" lon="-76.7241990">
        <ele>1638.0</ele>
        <time>2022-09-11T22:29:00Z</time>
      </trkpt>
      <trkpt lat="-11.5648760" lon="-76.7242270">
        <ele>1637.4</ele>
        <time>2022-09-11T22:29:01Z</time>
      </trkpt>
      <trkpt lat="-11.5649540" lon="-76.7242570">
        <ele>1636.8</ele>
        <time>2022-09-11T22:29:02Z</time>
      </trkpt>
      <trkpt lat="-11.5650310" lon="-76.7242890">
        <ele>1636.2</ele>
        <time>2022-09-11T22:29:03Z</time>
      </trkpt>
      <trkpt lat="-11.5651100" lon="-76.7243240">
        <ele>1635.6</ele>
        <time>2022-09-11T22:29:04Z</time>
      </trkpt>
      <trkpt lat="-11.5651880" lon="-76.7243590">
        <ele>1635.0</ele>
        <time>2022-09-11T22:29:05Z</time>
      </trkpt>
      <trkpt lat="-11.5652670" lon="-76.7243960">
        <ele>1634.4</ele>
        <time>2022-09-11T22:29:06Z</time>
      </trkpt>
      <trkpt lat="-11.5653450" lon="-76.7244320">
        <ele>1633.9</ele>
        <time>2022-09-11T22:29:07Z</time>
      </trkpt>
      <trkpt lat="-11.5654230" lon="-76.7244710">
        <ele>1633.3</ele>
        <time>2022-09-11T22:29:08Z</time>
      </trkpt>
      <trkpt lat="-11.5654990" lon="-76.7245130">
        <ele>1632.8</ele>
        <time>2022-09-11T22:29:09Z</time>
      </trkpt>
      <trkpt lat="-11.5655740" lon="-76.7245570">
        <ele>1632.2</ele>
        <time>2022-09-11T22:29:10Z</time>
      </trkpt>
      <trkpt lat="-11.5656490" lon="-76.7246050">
        <ele>1631.7</ele>
        <time>2022-09-11T22:29:11Z</time>
      </trkpt>
      <trkpt lat="-11.5657260" lon="-76.7246570">
        <ele>1631.1</ele>
        <time>2022-09-11T22:29:12Z</time>
      </trkpt>
      <trkpt lat="-11.5658010" lon="-76.7247160">
        <ele>1630.6</ele>
        <time>2022-09-11T22:29:13Z</time>
      </trkpt>
      <trkpt lat="-11.5658750" lon="-76.7247800">
        <ele>1630.0</ele>
        <time>2022-09-11T22:29:14Z</time>
      </trkpt>
      <trkpt lat="-11.5659480" lon="-76.7248500">
        <ele>1629.3</ele>
        <time>2022-09-11T22:29:15Z</time>
      </trkpt>
      <trkpt lat="-11.5660180" lon="-76.7249280">
        <ele>1628.7</ele>
        <time>2022-09-11T22:29:16Z</time>
      </trkpt>
      <trkpt lat="-11.5661120" lon="-76.7250310">
        <ele>1627.9</ele>
        <time>2022-09-11T22:29:17Z</time>
      </trkpt>
      <trkpt lat="-11.5662220" lon="-76.7251550">
        <ele>1626.8</ele>
        <time>2022-09-11T22:29:18Z</time>
      </trkpt>
      <trkpt lat="-11.5663250" lon="-76.7252710">
        <ele>1625.9</ele>
        <time>2022-09-11T22:29:19Z</time>
      </trkpt>
      <trkpt lat="-11.5664130" lon="-76.7253800">
        <ele>1625.0</ele>
        <time>2022-09-11T22:29:20Z</time>
      </trkpt>
      <trkpt lat="-11.5664910" lon="-76.7254830">
        <ele>1624.2</ele>
        <time>2022-09-11T22:29:21Z</time>
      </trkpt>
      <trkpt lat="-11.5665610" lon="-76.7255780">
        <ele>1623.5</ele>
        <time>2022-09-11T22:29:22Z</time>
      </trkpt>
      <trkpt lat="-11.5666260" lon="-76.7256720">
        <ele>1622.9</ele>
        <time>2022-09-11T22:29:23Z</time>
      </trkpt>
      <trkpt lat="-11.5666910" lon="-76.7257630">
        <ele>1622.2</ele>
        <time>2022-09-11T22:29:24Z</time>
      </trkpt>
      <trkpt lat="-11.5667580" lon="-76.7258460">
        <ele>1621.6</ele>
        <time>2022-09-11T22:29:25Z</time>
      </trkpt>
      <trkpt lat="-11.5668280" lon="-76.7259260">
        <ele>1620.9</ele>
        <time>2022-09-11T22:29:26Z</time>
      </trkpt>
      <trkpt lat="-11.5668980" lon="-76.7260040">
        <ele>1620.2</ele>
        <time>2022-09-11T22:29:27Z</time>
      </trkpt>
      <trkpt lat="-11.5669720" lon="-76.7260830">
        <ele>1619.5</ele>
        <time>2022-09-11T22:29:28Z</time>
      </trkpt>
      <trkpt lat="-11.5670470" lon="-76.7261570">
        <ele>1618.8</ele>
        <time>2022-09-11T22:29:29Z</time>
      </trkpt>
      <trkpt lat="-11.5671230" lon="-76.7262270">
        <ele>1618.1</ele>
        <time>2022-09-11T22:29:30Z</time>
      </trkpt>
      <trkpt lat="-11.5671980" lon="-76.7262990">
        <ele>1617.4</ele>
        <time>2022-09-11T22:29:31Z</time>
      </trkpt>
      <trkpt lat="-11.5672720" lon="-76.7263710">
        <ele>1616.6</ele>
        <time>2022-09-11T22:29:32Z</time>
      </trkpt>
      <trkpt lat="-11.5673480" lon="-76.7264440">
        <ele>1615.9</ele>
        <time>2022-09-11T22:29:33Z</time>
      </trkpt>
      <trkpt lat="-11.5674230" lon="-76.7265170">
        <ele>1615.2</ele>
        <time>2022-09-11T22:29:34Z</time>
      </trkpt>
      <trkpt lat="-11.5674980" lon="-76.7265900">
        <ele>1614.7</ele>
        <time>2022-09-11T22:29:35Z</time>
      </trkpt>
      <trkpt lat="-11.5675730" lon="-76.7266630">
        <ele>1614.2</ele>
        <time>2022-09-11T22:29:36Z</time>
      </trkpt>
      <trkpt lat="-11.5676500" lon="-76.7267310">
        <ele>1613.8</ele>
        <time>2022-09-11T22:29:37Z</time>
      </trkpt>
      <trkpt lat="-11.5677250" lon="-76.7267940">
        <ele>1613.5</ele>
        <time>2022-09-11T22:29:38Z</time>
      </trkpt>
      <trkpt lat="-11.5677980" lon="-76.7268560">
        <ele>1613.2</ele>
        <time>2022-09-11T22:29:39Z</time>
      </trkpt>
      <trkpt lat="-11.5678700" lon="-76.7269170">
        <ele>1613.0</ele>
        <time>2022-09-11T22:29:40Z</time>
      </trkpt>
      <trkpt lat="-11.5679400" lon="-76.7269760">
        <ele>1612.8</ele>
        <time>2022-09-11T22:29:41Z</time>
      </trkpt>
      <trkpt lat="-11.5680100" lon="-76.7270280">
        <ele>1612.5</ele>
        <time>2022-09-11T22:29:42Z</time>
      </trkpt>
      <trkpt lat="-11.5680780" lon="-76.7270760">
        <ele>1612.3</ele>
        <time>2022-09-11T22:29:43Z</time>
      </trkpt>
      <trkpt lat="-11.5681460" lon="-76.7271200">
        <ele>1612.1</ele>
        <time>2022-09-11T22:29:44Z</time>
      </trkpt>
      <trkpt lat="-11.5682160" lon="-76.7271610">
        <ele>1612.0</ele>
        <time>2022-09-11T22:29:45Z</time>
      </trkpt>
      <trkpt lat="-11.5682840" lon="-76.7271970">
        <ele>1611.8</ele>
        <time>2022-09-11T22:29:46Z</time>
      </trkpt>
      <trkpt lat="-11.5683500" lon="-76.7272280">
        <ele>1611.6</ele>
        <time>2022-09-11T22:29:47Z</time>
      </trkpt>
      <trkpt lat="-11.5684210" lon="-76.7272530">
        <ele>1611.4</ele>
        <time>2022-09-11T22:29:48Z</time>
      </trkpt>
      <trkpt lat="-11.5684880" lon="-76.7272750">
        <ele>1611.2</ele>
        <time>2022-09-11T22:29:49Z</time>
      </trkpt>
      <trkpt lat="-11.5685550" lon="-76.7272960">
        <ele>1611.0</ele>
        <time>2022-09-11T22:29:50Z</time>
      </trkpt>
      <trkpt lat="-11.5686220" lon="-76.7273120">
        <ele>1610.9</ele>
        <time>2022-09-11T22:29:51Z</time>
      </trkpt>
      <trkpt lat="-11.5686900" lon="-76.7273230">
        <ele>1610.7</ele>
        <time>2022-09-11T22:29:52Z</time>
      </trkpt>
      <trkpt lat="-11.5687570" lon="-76.7273350">
        <ele>1610.6</ele>
        <time>2022-09-11T22:29:53Z</time>
      </trkpt>
      <trkpt lat="-11.5688260" lon="-76.7273460">
        <ele>1610.4</ele>
        <time>2022-09-11T22:29:54Z</time>
      </trkpt>
      <trkpt lat="-11.5689090" lon="-76.7273790">
        <ele>1610.2</ele>
        <time>2022-09-11T22:29:55Z</time>
      </trkpt>
      <trkpt lat="-11.5689840" lon="-76.7273990">
        <ele>1610.0</ele>
        <time>2022-09-11T22:29:56Z</time>
      </trkpt>
      <trkpt lat="-11.5690530" lon="-76.7274150">
        <ele>1609.8</ele>
        <time>2022-09-11T22:29:57Z</time>
      </trkpt>
      <trkpt lat="-11.5691210" lon="-76.7274320">
        <ele>1609.6</ele>
        <time>2022-09-11T22:29:58Z</time>
      </trkpt>
      <trkpt lat="-11.5691910" lon="-76.7274500">
        <ele>1609.4</ele>
        <time>2022-09-11T22:29:59Z</time>
      </trkpt>
      <trkpt lat="-11.5692600" lon="-76.7274670">
        <ele>1609.2</ele>
        <time>2022-09-11T22:30:00Z</time>
      </trkpt>
      <trkpt lat="-11.5693280" lon="-76.7274890">
        <ele>1609.0</ele>
        <time>2022-09-11T22:30:01Z</time>
      </trkpt>
      <trkpt lat="-11.5693970" lon="-76.7275110">
        <ele>1608.8</ele>
        <time>2022-09-11T22:30:02Z</time>
      </trkpt>
      <trkpt lat="-11.5694630" lon="-76.7275300">
        <ele>1608.6</ele>
        <time>2022-09-11T22:30:03Z</time>
      </trkpt>
      <trkpt lat="-11.5695270" lon="-76.7275510">
        <ele>1608.4</ele>
        <time>2022-09-11T22:30:04Z</time>
      </trkpt>
      <trkpt lat="-11.5695900" lon="-76.7275760">
        <ele>1608.2</ele>
        <time>2022-09-11T22:30:05Z</time>
      </trkpt>
      <trkpt lat="-11.5696500" lon="-76.7276020">
        <ele>1608.1</ele>
        <time>2022-09-11T22:30:06Z</time>
      </trkpt>
      <trkpt lat="-11.5697070" lon="-76.7276280">
        <ele>1607.9</ele>
        <time>2022-09-11T22:30:07Z</time>
      </trkpt>
      <trkpt lat="-11.5697650" lon="-76.7276540">
        <ele>1607.8</ele>
        <time>2022-09-11T22:30:08Z</time>
      </trkpt>
      <trkpt lat="-11.5698220" lon="-76.7276820">
        <ele>1607.6</ele>
        <time>2022-09-11T22:30:09Z</time>
      </trkpt>
      <trkpt lat="-11.5698770" lon="-76.7277110">
        <ele>1607.4</ele>
        <time>2022-09-11T22:30:10Z</time>
      </trkpt>
      <trkpt lat="-11.5699350" lon="-76.7277400">
        <ele>1607.3</ele>
        <time>2022-09-11T22:30:11Z</time>
      </trkpt>
      <trkpt lat="-11.5699920" lon="-76.7277690">
        <ele>1607.1</ele>
        <time>2022-09-11T22:30:12Z</time>
      </trkpt>
      <trkpt lat="-11.5700470" lon="-76.7277960">
        <ele>1607.0</ele>
        <time>2022-09-11T22:30:13Z</time>
      </trkpt>
      <trkpt lat="-11.5701050" lon="-76.7278190">
        <ele>1606.9</ele>
        <time>2022-09-11T22:30:14Z</time>
      </trkpt>
      <trkpt lat="-11.5701640" lon="-76.7278400">
        <ele>1606.9</ele>
        <time>2022-09-11T22:30:15Z</time>
      </trkpt>
      <trkpt lat="-11.5702220" lon="-76.7278570">
        <ele>1606.8</ele>
        <time>2022-09-11T22:30:16Z</time>
      </trkpt>
      <trkpt lat="-11.5702790" lon="-76.7278700">
        <ele>1606.8</ele>
        <time>2022-09-11T22:30:17Z</time>
      </trkpt>
      <trkpt lat="-11.5703350" lon="-76.7278830">
        <ele>1606.8</ele>
        <time>2022-09-11T22:30:18Z</time>
      </trkpt>
      <trkpt lat="-11.5703880" lon="-76.7278870">
        <ele>1606.8</ele>
        <time>2022-09-11T22:30:19Z</time>
      </trkpt>
      <trkpt lat="-11.5704390" lon="-76.7278940">
        <ele>1606.8</ele>
        <time>2022-09-11T22:30:20Z</time>
      </trkpt>
      <trkpt lat="-11.5704870" lon="-76.7279030">
        <ele>1606.8</ele>
        <time>2022-09-11T22:30:21Z</time>
      </trkpt>
      <trkpt lat="-11.5705400" lon="-76.7278980">
        <ele>1606.8</ele>
        <time>2022-09-11T22:30:22Z</time>
      </trkpt>
      <trkpt lat="-11.5705910" lon="-76.7279000">
        <ele>1606.8</ele>
        <time>2022-09-11T22:30:23Z</time>
      </trkpt>
      <trkpt lat="-11.5706350" lon="-76.7279050">
        <ele>1606.8</ele>
        <time>2022-09-11T22:30:24Z</time>
      </trkpt>
      <trkpt lat="-11.5706780" lon="-76.7279050">
        <ele>1606.9</ele>
        <time>2022-09-11T22:30:25Z</time>
      </trkpt>
      <trkpt lat="-11.5707230" lon="-76.7279080">
        <ele>1606.9</ele>
        <time>2022-09-11T22:30:26Z</time>
      </trkpt>
      <trkpt lat="-11.5707640" lon="-76.7279020">
        <ele>1606.9</ele>
        <time>2022-09-11T22:30:27Z</time>
      </trkpt>
      <trkpt lat="-11.5708070" lon="-76.7278950">
        <ele>1606.9</ele>
        <time>2022-09-11T22:30:28Z</time>
      </trkpt>
      <trkpt lat="-11.5708570" lon="-76.7278920">
        <ele>1606.9</ele>
        <time>2022-09-11T22:30:29Z</time>
      </trkpt>
      <trkpt lat="-11.5709050" lon="-76.7278820">
        <ele>1607.0</ele>
        <time>2022-09-11T22:30:30Z</time>
      </trkpt>
      <trkpt lat="-11.5709560" lon="-76.7278720">
        <ele>1607.0</ele>
        <time>2022-09-11T22:30:31Z</time>
      </trkpt>
      <trkpt lat="-11.5710030" lon="-76.7278580">
        <ele>1607.1</ele>
        <time>2022-09-11T22:30:32Z</time>
      </trkpt>
      <trkpt lat="-11.5710510" lon="-76.7278420">
        <ele>1607.1</ele>
        <time>2022-09-11T22:30:33Z</time>
      </trkpt>
      <trkpt lat="-11.5710980" lon="-76.7278240">
        <ele>1607.1</ele>
        <time>2022-09-11T22:30:34Z</time>
      </trkpt>
      <trkpt lat="-11.5711440" lon="-76.7278110">
        <ele>1607.2</ele>
        <time>2022-09-11T22:30:35Z</time>
      </trkpt>
      <trkpt lat="-11.5711910" lon="-76.7277920">
        <ele>1607.2</ele>
        <time>2022-09-11T22:30:36Z</time>
      </trkpt>
      <trkpt lat="-11.5712380" lon="-76.7277710">
        <ele>1607.3</ele>
        <time>2022-09-11T22:30:37Z</time>
      </trkpt>
      <trkpt lat="-11.5712850" lon="-76.7277460">
        <ele>1607.4</ele>
        <time>2022-09-11T22:30:38Z</time>
      </trkpt>
      <trkpt lat="-11.5713300" lon="-76.7277160">
        <ele>1607.5</ele>
        <time>2022-09-11T22:30:39Z</time>
      </trkpt>
      <trkpt lat="-11.5713730" lon="-76.7276840">
        <ele>1607.5</ele>
        <time>2022-09-11T22:30:40Z</time>
      </trkpt>
      <trkpt lat="-11.5714150" lon="-76.7276480">
        <ele>1607.6</ele>
        <time>2022-09-11T22:30:41Z</time>
      </trkpt>
      <trkpt lat="-11.5714570" lon="-76.7276070">
        <ele>1607.7</ele>
        <time>2022-09-11T22:30:42Z</time>
      </trkpt>
      <trkpt lat="-11.5715010" lon="-76.7275660">
        <ele>1607.8</ele>
        <time>2022-09-11T22:30:43Z</time>
      </trkpt>
      <trkpt lat="-11.5715430" lon="-76.7275230">
        <ele>1607.9</ele>
        <time>2022-09-11T22:30:44Z</time>
      </trkpt>
      <trkpt lat="-11.5715870" lon="-76.7274830">
        <ele>1608.0</ele>
        <time>2022-09-11T22:30:45Z</time>
      </trkpt>
      <trkpt lat="-11.5716320" lon="-76.7274420">
        <ele>1608.1</ele>
        <time>2022-09-11T22:30:46Z</time>
      </trkpt>
      <trkpt lat="-11.5716730" lon="-76.7273920">
        <ele>1608.1</ele>
        <time>2022-09-11T22:30:47Z</time>
      </trkpt>
      <trkpt lat="-11.5717150" lon="-76.7273430">
        <ele>1608.2</ele>
        <time>2022-09-11T22:30:48Z</time>
      </trkpt>
      <trkpt lat="-11.5717570" lon="-76.7272950">
        <ele>1608.2</ele>
        <time>2022-09-11T22:30:49Z</time>
      </trkpt>
      <trkpt lat="-11.5718000" lon="-76.7272480">
        <ele>1608.3</ele>
        <time>2022-09-11T22:30:50Z</time>
      </trkpt>
      <trkpt lat="-11.5718440" lon="-76.7272020">
        <ele>1608.3</ele>
        <time>2022-09-11T22:30:51Z</time>
      </trkpt>
      <trkpt lat="-11.5718890" lon="-76.7271570">
        <ele>1608.3</ele>
        <time>2022-09-11T22:30:52Z</time>
      </trkpt>
      <trkpt lat="-11.5719330" lon="-76.7271100">
        <ele>1608.2</ele>
        <time>2022-09-11T22:30:53Z</time>
      </trkpt>
      <trkpt lat="-11.5719800" lon="-76.7270660">
        <ele>1608.2</ele>
        <time>2022-09-11T22:30:54Z</time>
      </trkpt>
      <trkpt lat="-11.5720250" lon="-76.7270210">
        <ele>1608.2</ele>
        <time>2022-09-11T22:30:55Z</time>
      </trkpt>
      <trkpt lat="-11.5720710" lon="-76.7269770">
        <ele>1608.2</ele>
        <time>2022-09-11T22:30:56Z</time>
      </trkpt>
      <trkpt lat="-11.5721160" lon="-76.7269340">
        <ele>1608.3</ele>
        <time>2022-09-11T22:30:57Z</time>
      </trkpt>
      <trkpt lat="-11.5721640" lon="-76.7268950">
        <ele>1608.3</ele>
        <time>2022-09-11T22:30:58Z</time>
      </trkpt>
      <trkpt lat="-11.5722140" lon="-76.7268580">
        <ele>1608.4</ele>
        <time>2022-09-11T22:30:59Z</time>
      </trkpt>
      <trkpt lat="-11.5722640" lon="-76.7268240">
        <ele>1608.4</ele>
        <time>2022-09-11T22:31:00Z</time>
      </trkpt>
      <trkpt lat="-11.5723150" lon="-76.7267930">
        <ele>1608.5</ele>
        <time>2022-09-11T22:31:01Z</time>
      </trkpt>
      <trkpt lat="-11.5723660" lon="-76.7267650">
        <ele>1608.5</ele>
        <time>2022-09-11T22:31:02Z</time>
      </trkpt>
      <trkpt lat="-11.5724200" lon="-76.7267380">
        <ele>1608.6</ele>
        <time>2022-09-11T22:31:03Z</time>
      </trkpt>
      <trkpt lat="-11.5724730" lon="-76.7267110">
        <ele>1608.7</ele>
        <time>2022-09-11T22:31:04Z</time>
      </trkpt>
      <trkpt lat="-11.5725280" lon="-76.7266890">
        <ele>1608.8</ele>
        <time>2022-09-11T22:31:05Z</time>
      </trkpt>
      <trkpt lat="-11.5725860" lon="-76.7266710">
        <ele>1608.9</ele>
        <time>2022-09-11T22:31:06Z</time>
      </trkpt>
      <trkpt lat="-11.5726450" lon="-76.7266510">
        <ele>1609.0</ele>
        <time>2022-09-11T22:31:07Z</time>
      </trkpt>
      <trkpt lat="-11.5727060" lon="-76.7266350">
        <ele>1609.2</ele>
        <time>2022-09-11T22:31:08Z</time>
      </trkpt>
      <trkpt lat="-11.5727670" lon="-76.7266170">
        <ele>1609.3</ele>
        <time>2022-09-11T22:31:09Z</time>
      </trkpt>
      <trkpt lat="-11.5728320" lon="-76.7266020">
        <ele>1609.5</ele>
        <time>2022-09-11T22:31:10Z</time>
      </trkpt>
      <trkpt lat="-11.5728980" lon="-76.7265900">
        <ele>1609.8</ele>
        <time>2022-09-11T22:31:11Z</time>
      </trkpt>
      <trkpt lat="-11.5729590" lon="-76.7265910">
        <ele>1610.0</ele>
        <time>2022-09-11T22:31:12Z</time>
      </trkpt>
      <trkpt lat="-11.5730220" lon="-76.7265950">
        <ele>1610.3</ele>
        <time>2022-09-11T22:31:13Z</time>
      </trkpt>
      <trkpt lat="-11.5730790" lon="-76.7266060">
        <ele>1610.5</ele>
        <time>2022-09-11T22:31:14Z</time>
      </trkpt>
      <trkpt lat="-11.5731370" lon="-76.7266140">
        <ele>1610.7</ele>
        <time>2022-09-11T22:31:15Z</time>
      </trkpt>
      <trkpt lat="-11.5731910" lon="-76.7266250">
        <ele>1611.0</ele>
        <time>2022-09-11T22:31:16Z</time>
      </trkpt>
      <trkpt lat="-11.5732420" lon="-76.7266440">
        <ele>1611.2</ele>
        <time>2022-09-11T22:31:17Z</time>
      </trkpt>
      <trkpt lat="-11.5732890" lon="-76.7266670">
        <ele>1611.5</ele>
        <time>2022-09-11T22:31:18Z</time>
      </trkpt>
      <trkpt lat="-11.5733370" lon="-76.7266950">
        <ele>1611.7</ele>
        <time>2022-09-11T22:31:19Z</time>
      </trkpt>
      <trkpt lat="-11.5733840" lon="-76.7267250">
        <ele>1611.9</ele>
        <time>2022-09-11T22:31:20Z</time>
      </trkpt>
      <trkpt lat="-11.5734320" lon="-76.7267570">
        <ele>1612.1</ele>
        <time>2022-09-11T22:31:21Z</time>
      </trkpt>
      <trkpt lat="-11.5734770" lon="-76.7267910">
        <ele>1612.2</ele>
        <time>2022-09-11T22:31:22Z</time>
      </trkpt>
      <trkpt lat="-11.5735210" lon="-76.7268250">
        <ele>1612.3</ele>
        <time>2022-09-11T22:31:23Z</time>
      </trkpt>
      <trkpt lat="-11.5735650" lon="-76.7268570">
        <ele>1612.2</ele>
        <time>2022-09-11T22:31:24Z</time>
      </trkpt>
      <trkpt lat="-11.5736080" lon="-76.7268890">
        <ele>1612.1</ele>
        <time>2022-09-11T22:31:25Z</time>
      </trkpt>
      <trkpt lat="-11.5736520" lon="-76.7269230">
        <ele>1611.9</ele>
        <time>2022-09-11T22:31:26Z</time>
      </trkpt>
      <trkpt lat="-11.5736960" lon="-76.7269610">
        <ele>1611.7</ele>
        <time>2022-09-11T22:31:27Z</time>
      </trkpt>
      <trkpt lat="-11.5737410" lon="-76.7269990">
        <ele>1611.5</ele>
        <time>2022-09-11T22:31:28Z</time>
      </trkpt>
      <trkpt lat="-11.5737890" lon="-76.7270370">
        <ele>1611.3</ele>
        <time>2022-09-11T22:31:29Z</time>
      </trkpt>
      <trkpt lat="-11.5738400" lon="-76.7270790">
        <ele>1611.2</ele>
        <time>2022-09-11T22:31:30Z</time>
      </trkpt>
      <trkpt lat="-11.5738930" lon="-76.7271220">
        <ele>1611.3</ele>
        <time>2022-09-11T22:31:31Z</time>
      </trkpt>
      <trkpt lat="-11.5739440" lon="-76.7271660">
        <ele>1611.4</ele>
        <time>2022-09-11T22:31:32Z</time>
      </trkpt>
      <trkpt lat="-11.5739910" lon="-76.7272100">
        <ele>1611.6</ele>
        <time>2022-09-11T22:31:33Z</time>
      </trkpt>
      <trkpt lat="-11.5740340" lon="-76.7272530">
        <ele>1611.8</ele>
        <time>2022-09-11T22:31:34Z</time>
      </trkpt>
      <trkpt lat="-11.5740760" lon="-76.7272940">
        <ele>1611.9</ele>
        <time>2022-09-11T22:31:35Z</time>
      </trkpt>
      <trkpt lat="-11.5741190" lon="-76.7273310">
        <ele>1611.9</ele>
        <time>2022-09-11T22:31:36Z</time>
      </trkpt>
      <trkpt lat="-11.5741620" lon="-76.7273700">
        <ele>1611.7</ele>
        <time>2022-09-11T22:31:37Z</time>
      </trkpt>
      <trkpt lat="-11.5742060" lon="-76.7274120">
        <ele>1611.5</ele>
        <time>2022-09-11T22:31:38Z</time>
      </trkpt>
      <trkpt lat="-11.5742530" lon="-76.7274520">
        <ele>1611.2</ele>
        <time>2022-09-11T22:31:39Z</time>
      </trkpt>
      <trkpt lat="-11.5743010" lon="-76.7274930">
        <ele>1610.8</ele>
        <time>2022-09-11T22:31:40Z</time>
      </trkpt>
      <trkpt lat="-11.5743490" lon="-76.7275340">
        <ele>1610.3</ele>
        <time>2022-09-11T22:31:41Z</time>
      </trkpt>
      <trkpt lat="-11.5743980" lon="-76.7275780">
        <ele>1609.8</ele>
        <time>2022-09-11T22:31:42Z</time>
      </trkpt>
      <trkpt lat="-11.5744470" lon="-76.7276280">
        <ele>1609.3</ele>
        <time>2022-09-11T22:31:43Z</time>
      </trkpt>
      <trkpt lat="-11.5744980" lon="-76.7276820">
        <ele>1608.7</ele>
        <time>2022-09-11T22:31:44Z</time>
      </trkpt>
      <trkpt lat="-11.5745500" lon="-76.7277400">
        <ele>1608.1</ele>
        <time>2022-09-11T22:31:45Z</time>
      </trkpt>
      <trkpt lat="-11.5746050" lon="-76.7278020">
        <ele>1607.5</ele>
        <time>2022-09-11T22:31:46Z</time>
      </trkpt>
      <trkpt lat="-11.5746600" lon="-76.7278660">
        <ele>1606.9</ele>
        <time>2022-09-11T22:31:47Z</time>
      </trkpt>
      <trkpt lat="-11.5747150" lon="-76.7279330">
        <ele>1606.3</ele>
        <time>2022-09-11T22:31:48Z</time>
      </trkpt>
      <trkpt lat="-11.5747700" lon="-76.7280040">
        <ele>1605.6</ele>
        <time>2022-09-11T22:31:49Z</time>
      </trkpt>
      <trkpt lat="-11.5748230" lon="-76.7280790">
        <ele>1605.0</ele>
        <time>2022-09-11T22:31:50Z</time>
      </trkpt>
      <trkpt lat="-11.5748750" lon="-76.7281580">
        <ele>1604.4</ele>
        <time>2022-09-11T22:31:51Z</time>
      </trkpt>
      <trkpt lat="-11.5749250" lon="-76.7282380">
        <ele>1603.9</ele>
        <time>2022-09-11T22:31:52Z</time>
      </trkpt>
      <trkpt lat="-11.5749720" lon="-76.7283200">
        <ele>1603.4</ele>
        <time>2022-09-11T22:31:53Z</time>
      </trkpt>
      <trkpt lat="-11.5750170" lon="-76.7284030">
        <ele>1602.9</ele>
        <time>2022-09-11T22:31:54Z</time>
      </trkpt>
      <trkpt lat="-11.5750630" lon="-76.7284860">
        <ele>1602.5</ele>
        <time>2022-09-11T22:31:55Z</time>
      </trkpt>
      <trkpt lat="-11.5751120" lon="-76.7285610">
        <ele>1602.2</ele>
        <time>2022-09-11T22:31:56Z</time>
      </trkpt>
      <trkpt lat="-11.5751610" lon="-76.7286320">
        <ele>1602.0</ele>
        <time>2022-09-11T22:31:57Z</time>
      </trkpt>
      <trkpt lat="-11.5752050" lon="-76.7287060">
        <ele>1601.8</ele>
        <time>2022-09-11T22:31:58Z</time>
      </trkpt>
      <trkpt lat="-11.5752490" lon="-76.7287780">
        <ele>1601.7</ele>
        <time>2022-09-11T22:31:59Z</time>
      </trkpt>
      <trkpt lat="-11.5752910" lon="-76.7288460">
        <ele>1601.6</ele>
        <time>2022-09-11T22:32:00Z</time>
      </trkpt>
      <trkpt lat="-11.5753330" lon="-76.7289120">
        <ele>1601.6</ele>
        <time>2022-09-11T22:32:01Z</time>
      </trkpt>
      <trkpt lat="-11.5753750" lon="-76.7289780">
        <ele>1601.6</ele>
        <time>2022-09-11T22:32:02Z</time>
      </trkpt>
      <trkpt lat="-11.5754160" lon="-76.7290420">
        <ele>1601.5</ele>
        <time>2022-09-11T22:32:03Z</time>
      </trkpt>
      <trkpt lat="-11.5754560" lon="-76.7291050">
        <ele>1601.5</ele>
        <time>2022-09-11T22:32:04Z</time>
      </trkpt>
      <trkpt lat="-11.5754970" lon="-76.7291670">
        <ele>1601.5</ele>
        <time>2022-09-11T22:32:05Z</time>
      </trkpt>
      <trkpt lat="-11.5755360" lon="-76.7292330">
        <ele>1601.4</ele>
        <time>2022-09-11T22:32:06Z</time>
      </trkpt>
      <trkpt lat="-11.5755740" lon="-76.7292990">
        <ele>1601.4</ele>
        <time>2022-09-11T22:32:07Z</time>
      </trkpt>
      <trkpt lat="-11.5756090" lon="-76.7293670">
        <ele>1601.4</ele>
        <time>2022-09-11T22:32:08Z</time>
      </trkpt>
      <trkpt lat="-11.5756460" lon="-76.7294300">
        <ele>1601.4</ele>
        <time>2022-09-11T22:32:09Z</time>
      </trkpt>
      <trkpt lat="-11.5756790" lon="-76.7294960">
        <ele>1601.5</ele>
        <time>2022-09-11T22:32:10Z</time>
      </trkpt>
      <trkpt lat="-11.5757080" lon="-76.7295650">
        <ele>1601.6</ele>
        <time>2022-09-11T22:32:11Z</time>
      </trkpt>
      <trkpt lat="-11.5757340" lon="-76.7296350">
        <ele>1601.7</ele>
        <time>2022-09-11T22:32:12Z</time>
      </trkpt>
      <trkpt lat="-11.5757590" lon="-76.7297020">
        <ele>1601.8</ele>
        <time>2022-09-11T22:32:13Z</time>
      </trkpt>
      <trkpt lat="-11.5757820" lon="-76.7297670">
        <ele>1602.0</ele>
        <time>2022-09-11T22:32:14Z</time>
      </trkpt>
      <trkpt lat="-11.5758040" lon="-76.7298310">
        <ele>1602.1</ele>
        <time>2022-09-11T22:32:15Z</time>
      </trkpt>
      <trkpt lat="-11.5758250" lon="-76.7298960">
        <ele>1602.3</ele>
        <time>2022-09-11T22:32:16Z</time>
      </trkpt>
      <trkpt lat="-11.5758440" lon="-76.7299650">
        <ele>1602.5</ele>
        <time>2022-09-11T22:32:17Z</time>
      </trkpt>
      <trkpt lat="-11.5758670" lon="-76.7300320">
        <ele>1602.7</ele>
        <time>2022-09-11T22:32:18Z</time>
      </trkpt>
      <trkpt lat="-11.5758840" lon="-76.7301030">
        <ele>1603.0</ele>
        <time>2022-09-11T22:32:19Z</time>
      </trkpt>
      <trkpt lat="-11.5759020" lon="-76.7301730">
        <ele>1603.3</ele>
        <time>2022-09-11T22:32:20Z</time>
      </trkpt>
      <trkpt lat="-11.5759130" lon="-76.7302480">
        <ele>1603.5</ele>
        <time>2022-09-11T22:32:21Z</time>
      </trkpt>
      <trkpt lat="-11.5759260" lon="-76.7303190">
        <ele>1603.8</ele>
        <time>2022-09-11T22:32:22Z</time>
      </trkpt>
      <trkpt lat="-11.5759430" lon="-76.7303860">
        <ele>1604.1</ele>
        <time>2022-09-11T22:32:23Z</time>
      </trkpt>
      <trkpt lat="-11.5759570" lon="-76.7304560">
        <ele>1604.3</ele>
        <time>2022-09-11T22:32:24Z</time>
      </trkpt>
      <trkpt lat="-11.5759710" lon="-76.7305280">
        <ele>1604.6</ele>
        <time>2022-09-11T22:32:25Z</time>
      </trkpt>
      <trkpt lat="-11.5759860" lon="-76.7306030">
        <ele>1604.8</ele>
        <time>2022-09-11T22:32:26Z</time>
      </trkpt>
      <trkpt lat="-11.5759980" lon="-76.7306780">
        <ele>1605.0</ele>
        <time>2022-09-11T22:32:27Z</time>
      </trkpt>
      <trkpt lat="-11.5760120" lon="-76.7307530">
        <ele>1605.2</ele>
        <time>2022-09-11T22:32:28Z</time>
      </trkpt>
      <trkpt lat="-11.5760250" lon="-76.7308320">
        <ele>1605.4</ele>
        <time>2022-09-11T22:32:29Z</time>
      </trkpt>
      <trkpt lat="-11.5760350" lon="-76.7309130">
        <ele>1605.5</ele>
        <time>2022-09-11T22:32:30Z</time>
      </trkpt>
      <trkpt lat="-11.5760480" lon="-76.7309940">
        <ele>1605.5</ele>
        <time>2022-09-11T22:32:31Z</time>
      </trkpt>
      <trkpt lat="-11.5760600" lon="-76.7310760">
        <ele>1605.6</ele>
        <time>2022-09-11T22:32:32Z</time>
      </trkpt>
      <trkpt lat="-11.5760690" lon="-76.7311610">
        <ele>1605.6</ele>
        <time>2022-09-11T22:32:33Z</time>
      </trkpt>
      <trkpt lat="-11.5760780" lon="-76.7312470">
        <ele>1605.5</ele>
        <time>2022-09-11T22:32:34Z</time>
      </trkpt>
      <trkpt lat="-11.5760890" lon="-76.7313300">
        <ele>1605.4</ele>
        <time>2022-09-11T22:32:35Z</time>
      </trkpt>
      <trkpt lat="-11.5760970" lon="-76.7314150">
        <ele>1605.2</ele>
        <time>2022-09-11T22:32:36Z</time>
      </trkpt>
      <trkpt lat="-11.5761070" lon="-76.7314990">
        <ele>1604.9</ele>
        <time>2022-09-11T22:32:37Z</time>
      </trkpt>
      <trkpt lat="-11.5761200" lon="-76.7315790">
        <ele>1604.7</ele>
        <time>2022-09-11T22:32:38Z</time>
      </trkpt>
      <trkpt lat="-11.5761320" lon="-76.7316610">
        <ele>1604.4</ele>
        <time>2022-09-11T22:32:39Z</time>
      </trkpt>
      <trkpt lat="-11.5761460" lon="-76.7317510">
        <ele>1604.1</ele>
        <time>2022-09-11T22:32:40Z</time>
      </trkpt>
      <trkpt lat="-11.5761630" lon="-76.7318390">
        <ele>1603.8</ele>
        <time>2022-09-11T22:32:41Z</time>
      </trkpt>
      <trkpt lat="-11.5761850" lon="-76.7319210">
        <ele>1603.4</ele>
        <time>2022-09-11T22:32:42Z</time>
      </trkpt>
      <trkpt lat="-11.5762110" lon="-76.7320050">
        <ele>1603.1</ele>
        <time>2022-09-11T22:32:43Z</time>
      </trkpt>
      <trkpt lat="-11.5762340" lon="-76.7320870">
        <ele>1602.7</ele>
        <time>2022-09-11T22:32:44Z</time>
      </trkpt>
      <trkpt lat="-11.5762590" lon="-76.7321700">
        <ele>1602.4</ele>
        <time>2022-09-11T22:32:45Z</time>
      </trkpt>
      <trkpt lat="-11.5762870" lon="-76.7322520">
        <ele>1602.0</ele>
        <time>2022-09-11T22:32:46Z</time>
      </trkpt>
      <trkpt lat="-11.5763160" lon="-76.7323320">
        <ele>1601.6</ele>
        <time>2022-09-11T22:32:47Z</time>
      </trkpt>
      <trkpt lat="-11.5763450" lon="-76.7324130">
        <ele>1601.3</ele>
        <time>2022-09-11T22:32:48Z</time>
      </trkpt>
      <trkpt lat="-11.5763760" lon="-76.7324960">
        <ele>1600.9</ele>
        <time>2022-09-11T22:32:49Z</time>
      </trkpt>
      <trkpt lat="-11.5764090" lon="-76.7325780">
        <ele>1600.5</ele>
        <time>2022-09-11T22:32:50Z</time>
      </trkpt>
      <trkpt lat="-11.5764430" lon="-76.7326550">
        <ele>1600.1</ele>
        <time>2022-09-11T22:32:51Z</time>
      </trkpt>
      <trkpt lat="-11.5764790" lon="-76.7327340">
        <ele>1599.7</ele>
        <time>2022-09-11T22:32:52Z</time>
      </trkpt>
      <trkpt lat="-11.5765200" lon="-76.7328110">
        <ele>1599.3</ele>
        <time>2022-09-11T22:32:53Z</time>
      </trkpt>
      <trkpt lat="-11.5765630" lon="-76.7328860">
        <ele>1599.0</ele>
        <time>2022-09-11T22:32:54Z</time>
      </trkpt>
      <trkpt lat="-11.5766070" lon="-76.7329650">
        <ele>1598.6</ele>
        <time>2022-09-11T22:32:55Z</time>
      </trkpt>
      <trkpt lat="-11.5766500" lon="-76.7330480">
        <ele>1598.2</ele>
        <time>2022-09-11T22:32:56Z</time>
      </trkpt>
      <trkpt lat="-11.5766930" lon="-76.7331300">
        <ele>1597.8</ele>
        <time>2022-09-11T22:32:57Z</time>
      </trkpt>
      <trkpt lat="-11.5767360" lon="-76.7332120">
        <ele>1597.3</ele>
        <time>2022-09-11T22:32:58Z</time>
      </trkpt>
      <trkpt lat="-11.5767800" lon="-76.7332940">
        <ele>1596.7</ele>
        <time>2022-09-11T22:32:59Z</time>
      </trkpt>
      <trkpt lat="-11.5768230" lon="-76.7333790">
        <ele>1596.1</ele>
        <time>2022-09-11T22:33:00Z</time>
      </trkpt>
      <trkpt lat="-11.5768670" lon="-76.7334620">
        <ele>1595.5</ele>
        <time>2022-09-11T22:33:01Z</time>
      </trkpt>
      <trkpt lat="-11.5769060" lon="-76.7335470">
        <ele>1594.8</ele>
        <time>2022-09-11T22:33:02Z</time>
      </trkpt>
      <trkpt lat="-11.5769420" lon="-76.7336340">
        <ele>1594.2</ele>
        <time>2022-09-11T22:33:03Z</time>
      </trkpt>
      <trkpt lat="-11.5769790" lon="-76.7337140">
        <ele>1593.6</ele>
        <time>2022-09-11T22:33:04Z</time>
      </trkpt>
      <trkpt lat="-11.5770180" lon="-76.7337930">
        <ele>1593.0</ele>
        <time>2022-09-11T22:33:05Z</time>
      </trkpt>
      <trkpt lat="-11.5770510" lon="-76.7338760">
        <ele>1592.3</ele>
        <time>2022-09-11T22:33:06Z</time>
      </trkpt>
      <trkpt lat="-11.5770860" lon="-76.7339580">
        <ele>1591.7</ele>
        <time>2022-09-11T22:33:07Z</time>
      </trkpt>
      <trkpt lat="-11.5771200" lon="-76.7340420">
        <ele>1591.1</ele>
        <time>2022-09-11T22:33:08Z</time>
      </trkpt>
      <trkpt lat="-11.5771570" lon="-76.7341250">
        <ele>1590.4</ele>
        <time>2022-09-11T22:33:09Z</time>
      </trkpt>
      <trkpt lat="-11.5771920" lon="-76.7342050">
        <ele>1589.7</ele>
        <time>2022-09-11T22:33:10Z</time>
      </trkpt>
      <trkpt lat="-11.5772280" lon="-76.7342870">
        <ele>1589.0</ele>
        <time>2022-09-11T22:33:11Z</time>
      </trkpt>
      <trkpt lat="-11.5772670" lon="-76.7343660">
        <ele>1588.6</ele>
        <time>2022-09-11T22:33:12Z</time>
      </trkpt>
      <trkpt lat="-11.5773050" lon="-76.7344500">
        <ele>1588.2</ele>
        <time>2022-09-11T22:33:13Z</time>
      </trkpt>
      <trkpt lat="-11.5773490" lon="-76.7345270">
        <ele>1587.8</ele>
        <time>2022-09-11T22:33:14Z</time>
      </trkpt>
      <trkpt lat="-11.5773950" lon="-76.7346080">
        <ele>1587.4</ele>
        <time>2022-09-11T22:33:15Z</time>
      </trkpt>
      <trkpt lat="-11.5774450" lon="-76.7346910">
        <ele>1586.9</ele>
        <time>2022-09-11T22:33:16Z</time>
      </trkpt>
      <trkpt lat="-11.5774970" lon="-76.7347730">
        <ele>1586.4</ele>
        <time>2022-09-11T22:33:17Z</time>
      </trkpt>
      <trkpt lat="-11.5775540" lon="-76.7348530">
        <ele>1585.9</ele>
        <time>2022-09-11T22:33:18Z</time>
      </trkpt>
      <trkpt lat="-11.5776120" lon="-76.7349350">
        <ele>1585.4</ele>
        <time>2022-09-11T22:33:19Z</time>
      </trkpt>
      <trkpt lat="-11.5776700" lon="-76.7350190">
        <ele>1584.8</ele>
        <time>2022-09-11T22:33:20Z</time>
      </trkpt>
      <trkpt lat="-11.5777260" lon="-76.7351090">
        <ele>1584.2</ele>
        <time>2022-09-11T22:33:21Z</time>
      </trkpt>
      <trkpt lat="-11.5777870" lon="-76.7351990">
        <ele>1583.5</ele>
        <time>2022-09-11T22:33:22Z</time>
      </trkpt>
      <trkpt lat="-11.5778440" lon="-76.7352930">
        <ele>1582.8</ele>
        <time>2022-09-11T22:33:23Z</time>
      </trkpt>
      <trkpt lat="-11.5778940" lon="-76.7353930">
        <ele>1582.1</ele>
        <time>2022-09-11T22:33:24Z</time>
      </trkpt>
      <trkpt lat="-11.5779440" lon="-76.7354900">
        <ele>1581.4</ele>
        <time>2022-09-11T22:33:25Z</time>
      </trkpt>
      <trkpt lat="-11.5779920" lon="-76.7355830">
        <ele>1580.8</ele>
        <time>2022-09-11T22:33:26Z</time>
      </trkpt>
      <trkpt lat="-11.5780340" lon="-76.7356770">
        <ele>1580.2</ele>
        <time>2022-09-11T22:33:27Z</time>
      </trkpt>
      <trkpt lat="-11.5780740" lon="-76.7357750">
        <ele>1579.5</ele>
        <time>2022-09-11T22:33:28Z</time>
      </trkpt>
      <trkpt lat="-11.5781100" lon="-76.7358770">
        <ele>1578.9</ele>
        <time>2022-09-11T22:33:29Z</time>
      </trkpt>
      <trkpt lat="-11.5781340" lon="-76.7359870">
        <ele>1578.1</ele>
        <time>2022-09-11T22:33:30Z</time>
      </trkpt>
      <trkpt lat="-11.5781480" lon="-76.7361020">
        <ele>1577.4</ele>
        <time>2022-09-11T22:33:31Z</time>
      </trkpt>
      <trkpt lat="-11.5781460" lon="-76.7362190">
        <ele>1576.7</ele>
        <time>2022-09-11T22:33:32Z</time>
      </trkpt>
      <trkpt lat="-11.5781290" lon="-76.7363390">
        <ele>1575.9</ele>
        <time>2022-09-11T22:33:33Z</time>
      </trkpt>
      <trkpt lat="-11.5781040" lon="-76.7364540">
        <ele>1575.1</ele>
        <time>2022-09-11T22:33:34Z</time>
      </trkpt>
      <trkpt lat="-11.5780720" lon="-76.7365630">
        <ele>1574.3</ele>
        <time>2022-09-11T22:33:35Z</time>
      </trkpt>
      <trkpt lat="-11.5780360" lon="-76.7366750">
        <ele>1573.5</ele>
        <time>2022-09-11T22:33:36Z</time>
      </trkpt>
      <trkpt lat="-11.5779990" lon="-76.7367880">
        <ele>1572.7</ele>
        <time>2022-09-11T22:33:37Z</time>
      </trkpt>
      <trkpt lat="-11.5779640" lon="-76.7368930">
        <ele>1572.0</ele>
        <time>2022-09-11T22:33:38Z</time>
      </trkpt>
      <trkpt lat="-11.5779330" lon="-76.7370000">
        <ele>1571.4</ele>
        <time>2022-09-11T22:33:39Z</time>
      </trkpt>
      <trkpt lat="-11.5778850" lon="-76.7371110">
        <ele>1570.8</ele>
        <time>2022-09-11T22:33:40Z</time>
      </trkpt>
      <trkpt lat="-11.5778680" lon="-76.7372230">
        <ele>1570.4</ele>
        <time>2022-09-11T22:33:41Z</time>
      </trkpt>
      <trkpt lat="-11.5778510" lon="-76.7373330">
        <ele>1570.0</ele>
        <time>2022-09-11T22:33:42Z</time>
      </trkpt>
      <trkpt lat="-11.5778420" lon="-76.7374400">
        <ele>1569.7</ele>
        <time>2022-09-11T22:33:43Z</time>
      </trkpt>
      <trkpt lat="-11.5778340" lon="-76.7375480">
        <ele>1569.3</ele>
        <time>2022-09-11T22:33:44Z</time>
      </trkpt>
      <trkpt lat="-11.5778300" lon="-76.7376550">
        <ele>1569.1</ele>
        <time>2022-09-11T22:33:45Z</time>
      </trkpt>
      <trkpt lat="-11.5778290" lon="-76.7377610">
        <ele>1568.8</ele>
        <time>2022-09-11T22:33:46Z</time>
      </trkpt>
      <trkpt lat="-11.5778370" lon="-76.7378660">
        <ele>1568.6</ele>
        <time>2022-09-11T22:33:47Z</time>
      </trkpt>
      <trkpt lat="-11.5778490" lon="-76.7379660">
        <ele>1568.3</ele>
        <time>2022-09-11T22:33:48Z</time>
      </trkpt>
      <trkpt lat="-11.5778600" lon="-76.7380590">
        <ele>1568.0</ele>
        <time>2022-09-11T22:33:49Z</time>
      </trkpt>
      <trkpt lat="-11.5778820" lon="-76.7381460">
        <ele>1567.8</ele>
        <time>2022-09-11T22:33:50Z</time>
      </trkpt>
      <trkpt lat="-11.5779030" lon="-76.7382360">
        <ele>1567.6</ele>
        <time>2022-09-11T22:33:51Z</time>
      </trkpt>
      <trkpt lat="-11.5779230" lon="-76.7383240">
        <ele>1567.4</ele>
        <time>2022-09-11T22:33:52Z</time>
      </trkpt>
      <trkpt lat="-11.5779420" lon="-76.7384180">
        <ele>1567.1</ele>
        <time>2022-09-11T22:33:53Z</time>
      </trkpt>
      <trkpt lat="-11.5779640" lon="-76.7385090">
        <ele>1566.8</ele>
        <time>2022-09-11T22:33:54Z</time>
      </trkpt>
      <trkpt lat="-11.5779910" lon="-76.7386000">
        <ele>1566.5</ele>
        <time>2022-09-11T22:33:55Z</time>
      </trkpt>
      <trkpt lat="-11.5780190" lon="-76.7386820">
        <ele>1566.1</ele>
        <time>2022-09-11T22:33:56Z</time>
      </trkpt>
      <trkpt lat="-11.5780470" lon="-76.7387590">
        <ele>1565.7</ele>
        <time>2022-09-11T22:33:57Z</time>
      </trkpt>
      <trkpt lat="-11.5780760" lon="-76.7388340">
        <ele>1565.4</ele>
        <time>2022-09-11T22:33:58Z</time>
      </trkpt>
      <trkpt lat="-11.5781040" lon="-76.7389010">
        <ele>1565.0</ele>
        <time>2022-09-11T22:33:59Z</time>
      </trkpt>
      <trkpt lat="-11.5781330" lon="-76.7389630">
        <ele>1564.6</ele>
        <time>2022-09-11T22:34:00Z</time>
      </trkpt>
      <trkpt lat="-11.5781630" lon="-76.7390210">
        <ele>1564.3</ele>
        <time>2022-09-11T22:34:01Z</time>
      </trkpt>
      <trkpt lat="-11.5781940" lon="-76.7390710">
        <ele>1564.0</ele>
        <time>2022-09-11T22:34:02Z</time>
      </trkpt>
      <trkpt lat="-11.5782300" lon="-76.7391200">
        <ele>1563.6</ele>
        <time>2022-09-11T22:34:03Z</time>
      </trkpt>
      <trkpt lat="-11.5782670" lon="-76.7391670">
        <ele>1563.3</ele>
        <time>2022-09-11T22:34:04Z</time>
      </trkpt>
      <trkpt lat="-11.5783020" lon="-76.7392080">
        <ele>1562.9</ele>
        <time>2022-09-11T22:34:05Z</time>
      </trkpt>
      <trkpt lat="-11.5783340" lon="-76.7392460">
        <ele>1562.6</ele>
        <time>2022-09-11T22:34:06Z</time>
      </trkpt>
      <trkpt lat="-11.5783680" lon="-76.7392850">
        <ele>1562.3</ele>
        <time>2022-09-11T22:34:07Z</time>
      </trkpt>
      <trkpt lat="-11.5784050" lon="-76.7393260">
        <ele>1562.0</ele>
        <time>2022-09-11T22:34:08Z</time>
      </trkpt>
      <trkpt lat="-11.5784430" lon="-76.7393620">
        <ele>1561.7</ele>
        <time>2022-09-11T22:34:09Z</time>
      </trkpt>
      <trkpt lat="-11.5784730" lon="-76.7393770">
        <ele>1561.5</ele>
        <time>2022-09-11T22:34:10Z</time>
      </trkpt>
      <trkpt lat="-11.5785090" lon="-76.7394070">
        <ele>1561.2</ele>
        <time>2022-09-11T22:34:11Z</time>
      </trkpt>
      <trkpt lat="-11.5785390" lon="-76.7394290">
        <ele>1561.0</ele>
        <time>2022-09-11T22:34:12Z</time>
      </trkpt>
      <trkpt lat="-11.5785650" lon="-76.7394500">
        <ele>1560.9</ele>
        <time>2022-09-11T22:34:13Z</time>
      </trkpt>
      <trkpt lat="-11.5785910" lon="-76.7394620">
        <ele>1560.7</ele>
        <time>2022-09-11T22:34:14Z</time>
      </trkpt>
      <trkpt lat="-11.5786180" lon="-76.7394690">
        <ele>1560.6</ele>
        <time>2022-09-11T22:34:15Z</time>
      </trkpt>
      <trkpt lat="-11.5786250" lon="-76.7394740">
        <ele>1560.5</ele>
        <time>2022-09-11T22:34:16Z</time>
      </trkpt>
      <trkpt lat="-11.5786360" lon="-76.7394860">
        <ele>1560.5</ele>
        <time>2022-09-11T22:34:17Z</time>
      </trkpt>
      <trkpt lat="-11.5786500" lon="-76.7394910">
        <ele>1560.4</ele>
        <time>2022-09-11T22:34:18Z</time>
      </trkpt>
      <trkpt lat="-11.5786650" lon="-76.7394890">
        <ele>1560.3</ele>
        <time>2022-09-11T22:34:19Z</time>
      </trkpt>
      <trkpt lat="-11.5786790" lon="-76.7394840">
        <ele>1560.3</ele>
        <time>2022-09-11T22:34:20Z</time>
      </trkpt>
      <trkpt lat="-11.5787030" lon="-76.7394600">
        <ele>1560.1</ele>
        <time>2022-09-11T22:34:21Z</time>
      </trkpt>
      <trkpt lat="-11.5787120" lon="-76.7394470">
        <ele>1560.1</ele>
        <time>2022-09-11T22:34:22Z</time>
      </trkpt>
      <trkpt lat="-11.5787190" lon="-76.7394320">
        <ele>1560.0</ele>
        <time>2022-09-11T22:34:23Z</time>
      </trkpt>
      <trkpt lat="-11.5787200" lon="-76.7394250">
        <ele>1560.0</ele>
        <time>2022-09-11T22:34:24Z</time>
      </trkpt>
      <trkpt lat="-11.5787190" lon="-76.7394240">
        <ele>1560.0</ele>
        <time>2022-09-11T22:34:25Z</time>
      </trkpt>
      <trkpt lat="-11.5787200" lon="-76.7394240">
        <ele>1560.0</ele>
        <time>2022-09-11T22:34:26Z</time>
      </trkpt>
      <trkpt lat="-11.5787220" lon="-76.7394240">
        <ele>1560.0</ele>
        <time>2022-09-11T22:34:27Z</time>
      </trkpt>
      <trkpt lat="-11.5787240" lon="-76.7394230">
        <ele>1560.0</ele>
        <time>2022-09-11T22:34:28Z</time>
      </trkpt>
      <trkpt lat="-11.5787260" lon="-76.7394220">
        <ele>1560.0</ele>
        <time>2022-09-11T22:34:29Z</time>
      </trkpt>
      <trkpt lat="-11.5787270" lon="-76.7394220">
        <ele>1560.0</ele>
        <time>2022-09-11T22:34:30Z</time>
      </trkpt>
      <trkpt lat="-11.5787290" lon="-76.7394200">
        <ele>1559.9</ele>
        <time>2022-09-11T22:34:31Z</time>
      </trkpt>
      <trkpt lat="-11.5787260" lon="-76.7394170">
        <ele>1559.9</ele>
        <time>2022-09-11T22:34:32Z</time>
      </trkpt>
      <trkpt lat="-11.5787240" lon="-76.7394150">
        <ele>1559.9</ele>
        <time>2022-09-11T22:34:33Z</time>
      </trkpt>
      <trkpt lat="-11.5787260" lon="-76.7394120">
        <ele>1559.9</ele>
        <time>2022-09-11T22:34:34Z</time>
      </trkpt>
      <trkpt lat="-11.5787270" lon="-76.7394120">
        <ele>1559.9</ele>
        <time>2022-09-11T22:34:35Z</time>
      </trkpt>
      <trkpt lat="-11.5787290" lon="-76.7394140">
        <ele>1559.9</ele>
        <time>2022-09-11T22:34:36Z</time>
      </trkpt>
      <trkpt lat="-11.5787290" lon="-76.7394100">
        <ele>1559.9</ele>
        <time>2022-09-11T22:34:37Z</time>
      </trkpt>
      <trkpt lat="-11.5787270" lon="-76.7394090">
        <ele>1559.9</ele>
        <time>2022-09-11T22:34:38Z</time>
      </trkpt>
      <trkpt lat="-11.5787250" lon="-76.7394120">
        <ele>1559.9</ele>
        <time>2022-09-11T22:34:39Z</time>
      </trkpt>
      <trkpt lat="-11.5787240" lon="-76.7394150">
        <ele>1559.9</ele>
        <time>2022-09-11T22:34:40Z</time>
      </trkpt>
      <trkpt lat="-11.5787240" lon="-76.7394220">
        <ele>1559.8</ele>
        <time>2022-09-11T22:34:41Z</time>
      </trkpt>
      <trkpt lat="-11.5787260" lon="-76.7394270">
        <ele>1559.8</ele>
        <time>2022-09-11T22:34:42Z</time>
      </trkpt>
      <trkpt lat="-11.5787270" lon="-76.7394300">
        <ele>1559.8</ele>
        <time>2022-09-11T22:34:43Z</time>
      </trkpt>
      <trkpt lat="-11.5787290" lon="-76.7394290">
        <ele>1559.8</ele>
        <time>2022-09-11T22:34:44Z</time>
      </trkpt>
      <trkpt lat="-11.5787290" lon="-76.7394270">
        <ele>1559.8</ele>
        <time>2022-09-11T22:34:45Z</time>
      </trkpt>
      <trkpt lat="-11.5787300" lon="-76.7394260">
        <ele>1559.8</ele>
        <time>2022-09-11T22:34:46Z</time>
      </trkpt>
      <trkpt lat="-11.5787310" lon="-76.7394250">
        <ele>1559.8</ele>
        <time>2022-09-11T22:34:47Z</time>
      </trkpt>
      <trkpt lat="-11.5787330" lon="-76.7394260">
        <ele>1559.8</ele>
        <time>2022-09-11T22:34:48Z</time>
      </trkpt>
    </trkseg>
  </trk>
</gpx>
